<?xml version='1.0' encoding='UTF-8'?><gpx version="1.1" creator="JPX - https://github.com/jenetics/jpx" xmlns="http://www.topografix.com/GPX/1/1"><trk><trkseg><trkpt lat="44.88964719315891" lon="11.83531569240932"><ele>1.0</ele><time>2026-03-22T12:22:02Z</time></trkpt><trkpt lat="44.8897368328431" lon="11.83543840623424"><ele>1.0</ele><time>2026-03-22T12:22:04Z</time></trkpt><trkpt lat="44.88978214634836" lon="11.835504061005903"><ele>1.0</ele><time>2026-03-22T12:22:05Z</time></trkpt><trkpt lat="44.88982821345463" lon="11.835577167671568"><ele>1.0</ele><time>2026-03-22T12:22:06Z</time></trkpt><trkpt lat="44.889798085706154" lon="11.835768491915523"><ele>1.0</ele><time>2026-03-22T12:22:07Z</time></trkpt><trkpt lat="44.88986263115349" lon="11.835842935623795"><ele>1.0</ele><time>2026-03-22T12:22:08Z</time></trkpt><trkpt lat="44.88995182843708" lon="11.83593614666279"><ele>1.0</ele><time>2026-03-22T12:22:09Z</time></trkpt><trkpt lat="44.890026548720556" lon="11.836007608845469"><ele>1.0</ele><time>2026-03-22T12:22:10Z</time></trkpt><trkpt lat="44.8901120819524" lon="11.836078824859557"><ele>1.0</ele><time>2026-03-22T12:22:11Z</time></trkpt><trkpt lat="44.8901988655184" lon="11.836140277829752"><ele>1.0</ele><time>2026-03-22T12:22:12Z</time></trkpt><trkpt lat="44.89029654349192" lon="11.836195540599958"><ele>1.4</ele><time>2026-03-22T12:22:13Z</time></trkpt><trkpt lat="44.890386824118764" lon="11.836240864297206"><ele>1.8</ele><time>2026-03-22T12:22:14Z</time></trkpt><trkpt lat="44.89048032976743" lon="11.836277578488172"><ele>2.1999999999999997</ele><time>2026-03-22T12:22:15Z</time></trkpt><trkpt lat="44.890573816838014" lon="11.836303230233176"><ele>2.6</ele><time>2026-03-22T12:22:16Z</time></trkpt><trkpt lat="44.89065603101256" lon="11.836323479479583"><ele>3.0</ele><time>2026-03-22T12:22:17Z</time></trkpt><trkpt lat="44.89073745191372" lon="11.83633794156167"><ele>3.0</ele><time>2026-03-22T12:22:17.999Z</time></trkpt><trkpt lat="44.89080944271552" lon="11.836345864278776"><ele>3.0</ele><time>2026-03-22T12:22:18.999Z</time></trkpt><trkpt lat="44.890910643936856" lon="11.836348513320099"><ele>3.0</ele><time>2026-03-22T12:22:20.999Z</time></trkpt><trkpt lat="44.89099687468687" lon="11.836349449048543"><ele>3.0</ele><time>2026-03-22T12:22:24.999Z</time></trkpt><trkpt lat="44.89098978422737" lon="11.836463403365952"><ele>3.0</ele><time>2026-03-22T12:22:26.999Z</time></trkpt><trkpt lat="44.89100119905785" lon="11.836589215566844"><ele>3.0</ele><time>2026-03-22T12:22:27.999Z</time></trkpt><trkpt lat="44.89100948963252" lon="11.836688413417793"><ele>3.0</ele><time>2026-03-22T12:22:28.999Z</time></trkpt><trkpt lat="44.89101565078184" lon="11.836783590808508"><ele>3.0</ele><time>2026-03-22T12:22:29.999Z</time></trkpt><trkpt lat="44.89102053615974" lon="11.836922886514747"><ele>3.0</ele><time>2026-03-22T12:22:31.999Z</time></trkpt><trkpt lat="44.89100299404434" lon="11.837025278042853"><ele>3.0</ele><time>2026-03-22T12:22:33.999Z</time></trkpt><trkpt lat="44.89088344623035" lon="11.837061757236778"><ele>3.0</ele><time>2026-03-22T12:22:35.999Z</time></trkpt><trkpt lat="44.89079041390259" lon="11.83708079440516"><ele>2.75</ele><time>2026-03-22T12:22:36.999Z</time></trkpt><trkpt lat="44.89068027288986" lon="11.83704786125799"><ele>2.5</ele><time>2026-03-22T12:22:37.999Z</time></trkpt><trkpt lat="44.890557369343036" lon="11.837044113582943"><ele>2.25</ele><time>2026-03-22T12:22:38.999Z</time></trkpt><trkpt lat="44.89042031498425" lon="11.837003124844228"><ele>2.0</ele><time>2026-03-22T12:22:39.999Z</time></trkpt><trkpt lat="44.8902849172301" lon="11.83695823230044"><ele>2.0</ele><time>2026-03-22T12:22:40.999Z</time></trkpt><trkpt lat="44.890161817492725" lon="11.836903139463915"><ele>2.0</ele><time>2026-03-22T12:22:41.999Z</time></trkpt><trkpt lat="44.89002916620666" lon="11.836831983054108"><ele>2.0</ele><time>2026-03-22T12:22:42.999Z</time></trkpt><trkpt lat="44.88992525741927" lon="11.83676403054781"><ele>2.0</ele><time>2026-03-22T12:22:43.999Z</time></trkpt><trkpt lat="44.889816960632764" lon="11.83666199323153"><ele>1.75</ele><time>2026-03-22T12:22:44.999Z</time></trkpt><trkpt lat="44.88970841139082" lon="11.836586488087267"><ele>1.5</ele><time>2026-03-22T12:22:45.999Z</time></trkpt><trkpt lat="44.88961515004246" lon="11.836482429685052"><ele>1.25</ele><time>2026-03-22T12:22:46.999Z</time></trkpt><trkpt lat="44.889518095013365" lon="11.836374342246776"><ele>1.0</ele><time>2026-03-22T12:22:47.999Z</time></trkpt><trkpt lat="44.88942922887866" lon="11.836268396319337"><ele>1.0</ele><time>2026-03-22T12:22:48.999Z</time></trkpt><trkpt lat="44.88933631572623" lon="11.836142857282058"><ele>1.0</ele><time>2026-03-22T12:22:49.999Z</time></trkpt><trkpt lat="44.889247335454236" lon="11.836006888168939"><ele>1.0</ele><time>2026-03-22T12:22:50.999Z</time></trkpt><trkpt lat="44.88915293479029" lon="11.835878681951705"><ele>1.0</ele><time>2026-03-22T12:22:51.999Z</time></trkpt><trkpt lat="44.889081635969134" lon="11.835730107289903"><ele>1.0</ele><time>2026-03-22T12:22:52.999Z</time></trkpt><trkpt lat="44.88902712778414" lon="11.83559223496089"><ele>1.0</ele><time>2026-03-22T12:22:53.999Z</time></trkpt><trkpt lat="44.888985580584624" lon="11.835468536160528"><ele>1.0</ele><time>2026-03-22T12:22:54.999Z</time></trkpt><trkpt lat="44.888937619096836" lon="11.835342087017477"><ele>1.0</ele><time>2026-03-22T12:22:55.999Z</time></trkpt><trkpt lat="44.888905919681335" lon="11.835233992458697"><ele>1.0</ele><time>2026-03-22T12:22:56.999Z</time></trkpt><trkpt lat="44.88885498266664" lon="11.835117374920467"><ele>1.0</ele><time>2026-03-22T12:22:58.999Z</time></trkpt><trkpt lat="44.88878411108137" lon="11.835103364015653"><ele>1.0</ele><time>2026-03-22T12:23:00.999Z</time></trkpt><trkpt lat="44.88872157536868" lon="11.835090627175388"><ele>1.0</ele><time>2026-03-22T12:23:02.999Z</time></trkpt><trkpt lat="44.88866185833955" lon="11.835221225938852"><ele>1.0</ele><time>2026-03-22T12:23:03.999Z</time></trkpt><trkpt lat="44.88861362744613" lon="11.835361548192589"><ele>1.0</ele><time>2026-03-22T12:23:04.999Z</time></trkpt><trkpt lat="44.88855909599707" lon="11.835506207943874"><ele>1.0</ele><time>2026-03-22T12:23:05.999Z</time></trkpt><trkpt lat="44.888496314638935" lon="11.835641729887419"><ele>1.0</ele><time>2026-03-22T12:23:06.999Z</time></trkpt><trkpt lat="44.888421712228904" lon="11.835788213888856"><ele>1.0</ele><time>2026-03-22T12:23:07.999Z</time></trkpt><trkpt lat="44.888341169215416" lon="11.835941717981187"><ele>1.0</ele><time>2026-03-22T12:23:08.999Z</time></trkpt><trkpt lat="44.88825415278889" lon="11.836102040618092"><ele>1.0</ele><time>2026-03-22T12:23:09.998Z</time></trkpt><trkpt lat="44.8881486361081" lon="11.836290788054317"><ele>1.0</ele><time>2026-03-22T12:23:10.998Z</time></trkpt><trkpt lat="44.88806766664636" lon="11.83642871736001"><ele>1.0</ele><time>2026-03-22T12:23:11.998Z</time></trkpt><trkpt lat="44.88799375880342" lon="11.836548906172181"><ele>1.0</ele><time>2026-03-22T12:23:12.998Z</time></trkpt><trkpt lat="44.88793006250608" lon="11.836661427807677"><ele>1.0</ele><time>2026-03-22T12:23:13.998Z</time></trkpt><trkpt lat="44.88785623130991" lon="11.836735392604599"><ele>1.0</ele><time>2026-03-22T12:23:14.998Z</time></trkpt><trkpt lat="44.88779894059126" lon="11.836794332546175"><ele>1.0</ele><time>2026-03-22T12:23:15.998Z</time></trkpt><trkpt lat="44.88773530158519" lon="11.836846802768475"><ele>1.0</ele><time>2026-03-22T12:23:16.998Z</time></trkpt><trkpt lat="44.88761608235696" lon="11.836861007322561"><ele>1.0</ele><time>2026-03-22T12:23:18.998Z</time></trkpt><trkpt lat="44.887502878124465" lon="11.836853055299843"><ele>0.8</ele><time>2026-03-22T12:23:20.998Z</time></trkpt><trkpt lat="44.88743765253806" lon="11.836867320319278"><ele>0.6000000000000001</ele><time>2026-03-22T12:23:21.998Z</time></trkpt><trkpt lat="44.88734154317307" lon="11.83682021824751"><ele>0.4</ele><time>2026-03-22T12:23:22.998Z</time></trkpt><trkpt lat="44.8872439104336" lon="11.836845000485864"><ele>0.2</ele><time>2026-03-22T12:23:23.998Z</time></trkpt><trkpt lat="44.88715363081324" lon="11.836963922467154"><ele>0.0</ele><time>2026-03-22T12:23:24.998Z</time></trkpt><trkpt lat="44.887047694726036" lon="11.837084817581292"><ele>0.0</ele><time>2026-03-22T12:23:25.998Z</time></trkpt><trkpt lat="44.8869460960988" lon="11.837182574699192"><ele>0.0</ele><time>2026-03-22T12:23:26.998Z</time></trkpt><trkpt lat="44.88679095831218" lon="11.837139560464694"><ele>0.0</ele><time>2026-03-22T12:23:27.998Z</time></trkpt><trkpt lat="44.88663368554093" lon="11.83717498497581"><ele>0.0</ele><time>2026-03-22T12:23:28.998Z</time></trkpt><trkpt lat="44.88647393731869" lon="11.83720981008846"><ele>0.0</ele><time>2026-03-22T12:23:29.998Z</time></trkpt><trkpt lat="44.88630084837493" lon="11.837247415928777"><ele>0.0</ele><time>2026-03-22T12:23:30.998Z</time></trkpt><trkpt lat="44.8861078781848" lon="11.837290578651581"><ele>0.0</ele><time>2026-03-22T12:23:31.998Z</time></trkpt><trkpt lat="44.885917284626515" lon="11.837362301800502"><ele>0.0</ele><time>2026-03-22T12:23:32.998Z</time></trkpt><trkpt lat="44.88571783578758" lon="11.837408553628283"><ele>0.0</ele><time>2026-03-22T12:23:33.998Z</time></trkpt><trkpt lat="44.88551169018782" lon="11.83746144060377"><ele>0.0</ele><time>2026-03-22T12:23:34.998Z</time></trkpt><trkpt lat="44.88530173168602" lon="11.837488897615124"><ele>0.0</ele><time>2026-03-22T12:23:35.998Z</time></trkpt><trkpt lat="44.88507555311058" lon="11.837524010026035"><ele>0.0</ele><time>2026-03-22T12:23:36.998Z</time></trkpt><trkpt lat="44.88485604756132" lon="11.837575005597847"><ele>0.6666666666666666</ele><time>2026-03-22T12:23:37.998Z</time></trkpt><trkpt lat="44.88464559403336" lon="11.837641087980833"><ele>1.3333333333333333</ele><time>2026-03-22T12:23:38.998Z</time></trkpt><trkpt lat="44.88441299919905" lon="11.837675570621707"><ele>2.0</ele><time>2026-03-22T12:23:39.998Z</time></trkpt><trkpt lat="44.88418123953439" lon="11.837726371876304"><ele>2.0</ele><time>2026-03-22T12:23:40.998Z</time></trkpt><trkpt lat="44.88394819132921" lon="11.83777888167315"><ele>2.0</ele><time>2026-03-22T12:23:41.998Z</time></trkpt><trkpt lat="44.88371718757655" lon="11.837833821369806"><ele>2.0</ele><time>2026-03-22T12:23:42.998Z</time></trkpt><trkpt lat="44.88347688886284" lon="11.837896860912956"><ele>2.0</ele><time>2026-03-22T12:23:43.998Z</time></trkpt><trkpt lat="44.88324775269923" lon="11.837983016781651"><ele>2.0</ele><time>2026-03-22T12:23:44.998Z</time></trkpt><trkpt lat="44.883025447767174" lon="11.838103367463264"><ele>2.0</ele><time>2026-03-22T12:23:45.998Z</time></trkpt><trkpt lat="44.88279878678656" lon="11.83822189826418"><ele>1.5</ele><time>2026-03-22T12:23:46.998Z</time></trkpt><trkpt lat="44.882554235602036" lon="11.838324475777888"><ele>1.0</ele><time>2026-03-22T12:23:47.998Z</time></trkpt><trkpt lat="44.882320906815444" lon="11.838441405662838"><ele>1.0</ele><time>2026-03-22T12:23:48.998Z</time></trkpt><trkpt lat="44.88207412909103" lon="11.838565212891769"><ele>1.0</ele><time>2026-03-22T12:23:49.998Z</time></trkpt><trkpt lat="44.88183435816171" lon="11.838685504824255"><ele>1.5</ele><time>2026-03-22T12:23:50.998Z</time></trkpt><trkpt lat="44.88158932973546" lon="11.838808688155783"><ele>2.0</ele><time>2026-03-22T12:23:51.998Z</time></trkpt><trkpt lat="44.88134320510357" lon="11.838934246816255"><ele>2.0</ele><time>2026-03-22T12:23:52.998Z</time></trkpt><trkpt lat="44.88109668229937" lon="11.839060008607222"><ele>2.0</ele><time>2026-03-22T12:23:53.998Z</time></trkpt><trkpt lat="44.88084167560098" lon="11.839190703631687"><ele>1.5</ele><time>2026-03-22T12:23:54.998Z</time></trkpt><trkpt lat="44.88060154556827" lon="11.839314195381153"><ele>1.0</ele><time>2026-03-22T12:23:55.998Z</time></trkpt><trkpt lat="44.88036051743817" lon="11.839438149006568"><ele>1.0</ele><time>2026-03-22T12:23:56.998Z</time></trkpt><trkpt lat="44.88013567535002" lon="11.839553780665689"><ele>1.0</ele><time>2026-03-22T12:23:57.998Z</time></trkpt><trkpt lat="44.87990759527323" lon="11.839665346605697"><ele>0.5</ele><time>2026-03-22T12:23:58.998Z</time></trkpt><trkpt lat="44.87968081010205" lon="11.839761676411158"><ele>0.0</ele><time>2026-03-22T12:23:59.998Z</time></trkpt><trkpt lat="44.87946868519187" lon="11.839843518189559"><ele>-0.3333333333333333</ele><time>2026-03-22T12:24:00.998Z</time></trkpt><trkpt lat="44.87925275700747" lon="11.839920006043561"><ele>-0.6666666666666666</ele><time>2026-03-22T12:24:01.998Z</time></trkpt><trkpt lat="44.87903470382299" lon="11.839988962197518"><ele>-1.0</ele><time>2026-03-22T12:24:02.998Z</time></trkpt><trkpt lat="44.878819192962304" lon="11.840036922718811"><ele>-1.0</ele><time>2026-03-22T12:24:03.998Z</time></trkpt><trkpt lat="44.87860576098984" lon="11.84004118377692"><ele>-1.0</ele><time>2026-03-22T12:24:04.998Z</time></trkpt><trkpt lat="44.87839467763176" lon="11.840003561429011"><ele>-1.0</ele><time>2026-03-22T12:24:05.998Z</time></trkpt><trkpt lat="44.87819374489698" lon="11.839931257204674"><ele>0.0</ele><time>2026-03-22T12:24:06.998Z</time></trkpt><trkpt lat="44.877989285333676" lon="11.839824346764898"><ele>1.0</ele><time>2026-03-22T12:24:07.998Z</time></trkpt><trkpt lat="44.87777076889315" lon="11.839691088287767"><ele>1.5</ele><time>2026-03-22T12:24:08.998Z</time></trkpt><trkpt lat="44.87756088542943" lon="11.839559211643133"><ele>2.0</ele><time>2026-03-22T12:24:09.998Z</time></trkpt><trkpt lat="44.87734950344725" lon="11.839431508231021"><ele>2.0</ele><time>2026-03-22T12:24:10.998Z</time></trkpt><trkpt lat="44.877140491508584" lon="11.839342255285805"><ele>2.0</ele><time>2026-03-22T12:24:11.998Z</time></trkpt><trkpt lat="44.87693588760978" lon="11.839256314874536"><ele>2.0</ele><time>2026-03-22T12:24:12.998Z</time></trkpt><trkpt lat="44.8767334653464" lon="11.83919515333039"><ele>2.0</ele><time>2026-03-22T12:24:13.998Z</time></trkpt><trkpt lat="44.87653524440773" lon="11.839134722998857"><ele>2.0</ele><time>2026-03-22T12:24:14.998Z</time></trkpt><trkpt lat="44.876344393342585" lon="11.83904548097028"><ele>2.0</ele><time>2026-03-22T12:24:15.998Z</time></trkpt><trkpt lat="44.87616524679263" lon="11.838964180258184"><ele>2.0</ele><time>2026-03-22T12:24:16.998Z</time></trkpt><trkpt lat="44.8759910440663" lon="11.838870573074589"><ele>2.0</ele><time>2026-03-22T12:24:17.998Z</time></trkpt><trkpt lat="44.87582364377138" lon="11.838768987595698"><ele>2.0</ele><time>2026-03-22T12:24:18.998Z</time></trkpt><trkpt lat="44.875665466894965" lon="11.838651545248924"><ele>1.6666666666666665</ele><time>2026-03-22T12:24:19.998Z</time></trkpt><trkpt lat="44.87552286206596" lon="11.838507433163638"><ele>1.3333333333333333</ele><time>2026-03-22T12:24:20.998Z</time></trkpt><trkpt lat="44.875398785530216" lon="11.838331095560992"><ele>1.0</ele><time>2026-03-22T12:24:21.998Z</time></trkpt><trkpt lat="44.87528496646017" lon="11.838137365702146"><ele>1.0</ele><time>2026-03-22T12:24:22.998Z</time></trkpt><trkpt lat="44.87516530467742" lon="11.83794415906214"><ele>1.0</ele><time>2026-03-22T12:24:23.998Z</time></trkpt><trkpt lat="44.87502487281489" lon="11.837776990503643"><ele>1.0</ele><time>2026-03-22T12:24:24.998Z</time></trkpt><trkpt lat="44.87488709556765" lon="11.837596227322011"><ele>1.6666666666666665</ele><time>2026-03-22T12:24:25.998Z</time></trkpt><trkpt lat="44.874738567060234" lon="11.837440329931692"><ele>2.3333333333333335</ele><time>2026-03-22T12:24:26.998Z</time></trkpt><trkpt lat="44.87458248089124" lon="11.837280841399409"><ele>3.0</ele><time>2026-03-22T12:24:27.998Z</time></trkpt><trkpt lat="44.87441914911535" lon="11.837121537944842"><ele>2.3333333333333335</ele><time>2026-03-22T12:24:28.998Z</time></trkpt><trkpt lat="44.874257542461685" lon="11.836956919562667"><ele>1.6666666666666665</ele><time>2026-03-22T12:24:29.997Z</time></trkpt><trkpt lat="44.87409771718374" lon="11.836785393296633"><ele>1.0</ele><time>2026-03-22T12:24:30.997Z</time></trkpt><trkpt lat="44.87393363840111" lon="11.836619818946994"><ele>1.0</ele><time>2026-03-22T12:24:31.997Z</time></trkpt><trkpt lat="44.87377545444171" lon="11.836439061007798"><ele>1.0</ele><time>2026-03-22T12:24:32.997Z</time></trkpt><trkpt lat="44.87360793991708" lon="11.836270014912229"><ele>1.0</ele><time>2026-03-22T12:24:33.997Z</time></trkpt><trkpt lat="44.87344361313013" lon="11.836097548790343"><ele>0.6666666666666666</ele><time>2026-03-22T12:24:34.997Z</time></trkpt><trkpt lat="44.87327914586078" lon="11.835923946576754"><ele>0.3333333333333333</ele><time>2026-03-22T12:24:35.997Z</time></trkpt><trkpt lat="44.873119139309885" lon="11.83573265062821"><ele>0.0</ele><time>2026-03-22T12:24:36.997Z</time></trkpt><trkpt lat="44.87295651902593" lon="11.835565349796282"><ele>0.0</ele><time>2026-03-22T12:24:37.997Z</time></trkpt><trkpt lat="44.872797206958104" lon="11.835387696087105"><ele>0.0</ele><time>2026-03-22T12:24:38.997Z</time></trkpt><trkpt lat="44.87264560306805" lon="11.835232039881433"><ele>0.0</ele><time>2026-03-22T12:24:39.997Z</time></trkpt><trkpt lat="44.872500641936874" lon="11.835084345248243"><ele>0.0</ele><time>2026-03-22T12:24:40.997Z</time></trkpt><trkpt lat="44.872357416937206" lon="11.834937038438333"><ele>0.0</ele><time>2026-03-22T12:24:41.997Z</time></trkpt><trkpt lat="44.872220782043044" lon="11.83479558530522"><ele>0.0</ele><time>2026-03-22T12:24:42.997Z</time></trkpt><trkpt lat="44.87208964570191" lon="11.834654915937776"><ele>0.0</ele><time>2026-03-22T12:24:43.997Z</time></trkpt><trkpt lat="44.871957398786286" lon="11.834525711808578"><ele>0.0</ele><time>2026-03-22T12:24:44.997Z</time></trkpt><trkpt lat="44.87182082598426" lon="11.834409854417633"><ele>0.0</ele><time>2026-03-22T12:24:45.997Z</time></trkpt><trkpt lat="44.87167870338186" lon="11.834299500599933"><ele>0.6666666666666666</ele><time>2026-03-22T12:24:46.997Z</time></trkpt><trkpt lat="44.87152411185935" lon="11.834223541449642"><ele>1.3333333333333333</ele><time>2026-03-22T12:24:47.997Z</time></trkpt><trkpt lat="44.87135543458678" lon="11.834158224171594"><ele>2.0</ele><time>2026-03-22T12:24:48.997Z</time></trkpt><trkpt lat="44.87119761031365" lon="11.834085427509391"><ele>2.0</ele><time>2026-03-22T12:24:49.997Z</time></trkpt><trkpt lat="44.871041845263804" lon="11.834003078152184"><ele>2.0</ele><time>2026-03-22T12:24:50.997Z</time></trkpt><trkpt lat="44.87089723184019" lon="11.833897089042587"><ele>2.0</ele><time>2026-03-22T12:24:51.997Z</time></trkpt><trkpt lat="44.870764789244625" lon="11.833779603078753"><ele>2.0</ele><time>2026-03-22T12:24:52.997Z</time></trkpt><trkpt lat="44.87063249365617" lon="11.83366128300228"><ele>2.0</ele><time>2026-03-22T12:24:53.997Z</time></trkpt><trkpt lat="44.87050425350074" lon="11.833522602964727"><ele>2.0</ele><time>2026-03-22T12:24:54.997Z</time></trkpt><trkpt lat="44.87037320401522" lon="11.833392536910505"><ele>2.0</ele><time>2026-03-22T12:24:55.997Z</time></trkpt><trkpt lat="44.87023482969338" lon="11.833275739142662"><ele>2.0</ele><time>2026-03-22T12:24:56.997Z</time></trkpt><trkpt lat="44.87009158110065" lon="11.833155228785783"><ele>2.0</ele><time>2026-03-22T12:24:57.997Z</time></trkpt><trkpt lat="44.86995556126644" lon="11.833033309393972"><ele>2.333333333333333</ele><time>2026-03-22T12:24:58.997Z</time></trkpt><trkpt lat="44.869809542829536" lon="11.832908432689592"><ele>2.6666666666666665</ele><time>2026-03-22T12:24:59.997Z</time></trkpt><trkpt lat="44.86966271871249" lon="11.832799350610127"><ele>3.0</ele><time>2026-03-22T12:25:00.997Z</time></trkpt><trkpt lat="44.86951549943759" lon="11.832687255146357"><ele>3.0</ele><time>2026-03-22T12:25:01.997Z</time></trkpt><trkpt lat="44.86938117184195" lon="11.83254484696235"><ele>3.0</ele><time>2026-03-22T12:25:02.997Z</time></trkpt><trkpt lat="44.86923420426718" lon="11.832421347161624"><ele>3.0</ele><time>2026-03-22T12:25:03.997Z</time></trkpt><trkpt lat="44.86908065575129" lon="11.832295991004493"><ele>2.6666666666666665</ele><time>2026-03-22T12:25:04.997Z</time></trkpt><trkpt lat="44.86892769501375" lon="11.83215064010237"><ele>2.333333333333333</ele><time>2026-03-22T12:25:05.997Z</time></trkpt><trkpt lat="44.86877566367874" lon="11.831987962190134"><ele>2.0</ele><time>2026-03-22T12:25:06.997Z</time></trkpt><trkpt lat="44.86862388979793" lon="11.831808267320875"><ele>2.0</ele><time>2026-03-22T12:25:07.997Z</time></trkpt><trkpt lat="44.86847234510571" lon="11.831616371666554"><ele>2.0</ele><time>2026-03-22T12:25:08.997Z</time></trkpt><trkpt lat="44.86832561478875" lon="11.831436356639173"><ele>2.0</ele><time>2026-03-22T12:25:09.997Z</time></trkpt><trkpt lat="44.868186196202" lon="11.831267094763678"><ele>2.0</ele><time>2026-03-22T12:25:10.997Z</time></trkpt><trkpt lat="44.868048683727714" lon="11.831107267740366"><ele>2.0</ele><time>2026-03-22T12:25:11.997Z</time></trkpt><trkpt lat="44.867916001604115" lon="11.830952733008292"><ele>2.0</ele><time>2026-03-22T12:25:12.997Z</time></trkpt><trkpt lat="44.867791782508036" lon="11.830801699913584"><ele>2.0</ele><time>2026-03-22T12:25:13.997Z</time></trkpt><trkpt lat="44.86765763407562" lon="11.830672917457235"><ele>2.0</ele><time>2026-03-22T12:25:14.997Z</time></trkpt><trkpt lat="44.86752303199835" lon="11.830573773258164"><ele>2.0</ele><time>2026-03-22T12:25:15.997Z</time></trkpt><trkpt lat="44.86737128997999" lon="11.830496212216303"><ele>2.0</ele><time>2026-03-22T12:25:16.997Z</time></trkpt><trkpt lat="44.867222252061396" lon="11.830438237651698"><ele>2.0</ele><time>2026-03-22T12:25:17.997Z</time></trkpt><trkpt lat="44.86706752495353" lon="11.83044550073143"><ele>2.0</ele><time>2026-03-22T12:25:18.997Z</time></trkpt><trkpt lat="44.866903344338645" lon="11.830475743754178"><ele>1.6666666666666665</ele><time>2026-03-22T12:25:19.997Z</time></trkpt><trkpt lat="44.86673702381698" lon="11.830507431166335"><ele>1.3333333333333333</ele><time>2026-03-22T12:25:20.997Z</time></trkpt><trkpt lat="44.8665640459236" lon="11.830599261359337"><ele>1.0</ele><time>2026-03-22T12:25:21.997Z</time></trkpt><trkpt lat="44.86641576481035" lon="11.830704610809684"><ele>1.0</ele><time>2026-03-22T12:25:22.997Z</time></trkpt><trkpt lat="44.866263000681535" lon="11.830776177629884"><ele>1.0</ele><time>2026-03-22T12:25:23.997Z</time></trkpt><trkpt lat="44.866108288393896" lon="11.830837541059084"><ele>1.0</ele><time>2026-03-22T12:25:24.997Z</time></trkpt><trkpt lat="44.86595089112695" lon="11.830921713947873"><ele>0.6666666666666666</ele><time>2026-03-22T12:25:25.997Z</time></trkpt><trkpt lat="44.865788467036914" lon="11.831005632224864"><ele>0.3333333333333333</ele><time>2026-03-22T12:25:26.997Z</time></trkpt><trkpt lat="44.86562362804653" lon="11.831089835688108"><ele>0.0</ele><time>2026-03-22T12:25:27.997Z</time></trkpt><trkpt lat="44.86547030935637" lon="11.83115956930959"><ele>0.0</ele><time>2026-03-22T12:25:28.997Z</time></trkpt><trkpt lat="44.86531064416475" lon="11.831215836609015"><ele>0.0</ele><time>2026-03-22T12:25:29.997Z</time></trkpt><trkpt lat="44.86514341319913" lon="11.83125546004029"><ele>0.0</ele><time>2026-03-22T12:25:30.997Z</time></trkpt><trkpt lat="44.86497906824309" lon="11.831271353126017"><ele>0.3333333333333333</ele><time>2026-03-22T12:25:31.997Z</time></trkpt><trkpt lat="44.86482193276514" lon="11.831256675521676"><ele>0.6666666666666666</ele><time>2026-03-22T12:25:32.997Z</time></trkpt><trkpt lat="44.86465814738767" lon="11.831244311060306"><ele>1.0</ele><time>2026-03-22T12:25:33.997Z</time></trkpt><trkpt lat="44.86450082201872" lon="11.831262733659262"><ele>1.0</ele><time>2026-03-22T12:25:34.997Z</time></trkpt><trkpt lat="44.864339118475" lon="11.831225695868149"><ele>1.0</ele><time>2026-03-22T12:25:35.997Z</time></trkpt><trkpt lat="44.86416242132492" lon="11.831219257205738"><ele>1.0</ele><time>2026-03-22T12:25:36.997Z</time></trkpt><trkpt lat="44.86398081643202" lon="11.83121921501845"><ele>1.0</ele><time>2026-03-22T12:25:37.997Z</time></trkpt><trkpt lat="44.863803579084156" lon="11.831248475447028"><ele>1.0</ele><time>2026-03-22T12:25:38.997Z</time></trkpt><trkpt lat="44.86362349363364" lon="11.831269284453024"><ele>1.0</ele><time>2026-03-22T12:25:39.997Z</time></trkpt><trkpt lat="44.86344470586002" lon="11.831284890303067"><ele>0.6666666666666666</ele><time>2026-03-22T12:25:40.997Z</time></trkpt><trkpt lat="44.863267136703065" lon="11.83129104389135"><ele>0.3333333333333333</ele><time>2026-03-22T12:25:41.997Z</time></trkpt><trkpt lat="44.86309016982289" lon="11.831300586771205"><ele>0.0</ele><time>2026-03-22T12:25:42.997Z</time></trkpt><trkpt lat="44.86290340075847" lon="11.831289415348879"><ele>0.0</ele><time>2026-03-22T12:25:43.997Z</time></trkpt><trkpt lat="44.86271513249832" lon="11.831316787651549"><ele>0.0</ele><time>2026-03-22T12:25:44.997Z</time></trkpt><trkpt lat="44.8625211627897" lon="11.831299733892772"><ele>0.0</ele><time>2026-03-22T12:25:45.997Z</time></trkpt><trkpt lat="44.86232923099764" lon="11.831303330934036"><ele>0.0</ele><time>2026-03-22T12:25:46.997Z</time></trkpt><trkpt lat="44.86213751412982" lon="11.831315321394927"><ele>0.0</ele><time>2026-03-22T12:25:47.997Z</time></trkpt><trkpt lat="44.86194552018488" lon="11.831345032105908"><ele>0.0</ele><time>2026-03-22T12:25:48.997Z</time></trkpt><trkpt lat="44.86175752015784" lon="11.831408902597119"><ele>-0.3333333333333333</ele><time>2026-03-22T12:25:49.996Z</time></trkpt><trkpt lat="44.86158182526832" lon="11.831492257187907"><ele>-0.6666666666666666</ele><time>2026-03-22T12:25:50.996Z</time></trkpt><trkpt lat="44.86140787974372" lon="11.83160076977484"><ele>-1.0</ele><time>2026-03-22T12:25:51.996Z</time></trkpt><trkpt lat="44.861234522988845" lon="11.831743753591791"><ele>-0.5</ele><time>2026-03-22T12:25:52.996Z</time></trkpt><trkpt lat="44.86105895250094" lon="11.83193403803934"><ele>0.0</ele><time>2026-03-22T12:25:53.996Z</time></trkpt><trkpt lat="44.86087697415205" lon="11.832158173451774"><ele>0.0</ele><time>2026-03-22T12:25:54.996Z</time></trkpt><trkpt lat="44.86068875814735" lon="11.832408891317797"><ele>0.0</ele><time>2026-03-22T12:25:55.996Z</time></trkpt><trkpt lat="44.860492158518014" lon="11.832671656529564"><ele>0.0</ele><time>2026-03-22T12:25:56.996Z</time></trkpt><trkpt lat="44.86030018584231" lon="11.832928236133382"><ele>0.0</ele><time>2026-03-22T12:25:57.996Z</time></trkpt><trkpt lat="44.86015120707514" lon="11.833226864443592"><ele>0.5</ele><time>2026-03-22T12:25:58.996Z</time></trkpt><trkpt lat="44.85997808364805" lon="11.833459765080198"><ele>1.0</ele><time>2026-03-22T12:25:59.996Z</time></trkpt><trkpt lat="44.859812340121564" lon="11.833669853476886"><ele>1.0</ele><time>2026-03-22T12:26:00.996Z</time></trkpt><trkpt lat="44.8596402635608" lon="11.83386776785303"><ele>1.0</ele><time>2026-03-22T12:26:01.996Z</time></trkpt><trkpt lat="44.85941878335888" lon="11.833972276666454"><ele>1.0</ele><time>2026-03-22T12:26:02.996Z</time></trkpt><trkpt lat="44.859216994288055" lon="11.834146960812518"><ele>1.0</ele><time>2026-03-22T12:26:03.996Z</time></trkpt><trkpt lat="44.85899593375198" lon="11.834331306998727"><ele>1.0</ele><time>2026-03-22T12:26:04.996Z</time></trkpt><trkpt lat="44.85876764410645" lon="11.83452275888117"><ele>1.0</ele><time>2026-03-22T12:26:05.996Z</time></trkpt><trkpt lat="44.8585528371008" lon="11.834700425255948"><ele>2.0</ele><time>2026-03-22T12:26:06.996Z</time></trkpt><trkpt lat="44.85834105208425" lon="11.834870809270885"><ele>3.0</ele><time>2026-03-22T12:26:07.996Z</time></trkpt><trkpt lat="44.85814426809977" lon="11.83500497649854"><ele>3.0</ele><time>2026-03-22T12:26:08.996Z</time></trkpt><trkpt lat="44.85794077861511" lon="11.83509797605557"><ele>3.0</ele><time>2026-03-22T12:26:09.996Z</time></trkpt><trkpt lat="44.8577381566795" lon="11.835271065059786"><ele>3.0</ele><time>2026-03-22T12:26:10.996Z</time></trkpt><trkpt lat="44.85752122800837" lon="11.83534083148286"><ele>3.0</ele><time>2026-03-22T12:26:11.996Z</time></trkpt><trkpt lat="44.857295894792664" lon="11.835362332935617"><ele>3.0</ele><time>2026-03-22T12:26:12.996Z</time></trkpt><trkpt lat="44.85707393390089" lon="11.835359935886649"><ele>3.0</ele><time>2026-03-22T12:26:13.996Z</time></trkpt><trkpt lat="44.85684797444083" lon="11.835321874386455"><ele>3.0</ele><time>2026-03-22T12:26:14.996Z</time></trkpt><trkpt lat="44.856634474452925" lon="11.83515786554658"><ele>1.5</ele><time>2026-03-22T12:26:15.996Z</time></trkpt><trkpt lat="44.85640724934236" lon="11.835076568671951"><ele>0.0</ele><time>2026-03-22T12:26:16.996Z</time></trkpt><trkpt lat="44.85617500690843" lon="11.834962294448843"><ele>0.0</ele><time>2026-03-22T12:26:17.996Z</time></trkpt><trkpt lat="44.855939566765066" lon="11.834859257755886"><ele>0.0</ele><time>2026-03-22T12:26:18.996Z</time></trkpt><trkpt lat="44.855717997780125" lon="11.834673568174173"><ele>0.0</ele><time>2026-03-22T12:26:19.996Z</time></trkpt><trkpt lat="44.85549303175556" lon="11.834481796724399"><ele>0.0</ele><time>2026-03-22T12:26:20.996Z</time></trkpt><trkpt lat="44.85526533561738" lon="11.834278741512303"><ele>0.5</ele><time>2026-03-22T12:26:21.996Z</time></trkpt><trkpt lat="44.85502866078846" lon="11.834074985465913"><ele>1.0</ele><time>2026-03-22T12:26:22.996Z</time></trkpt><trkpt lat="44.85479264858411" lon="11.83386626359707"><ele>1.0</ele><time>2026-03-22T12:26:23.996Z</time></trkpt><trkpt lat="44.85453990200234" lon="11.833660215099105"><ele>1.0</ele><time>2026-03-22T12:26:24.996Z</time></trkpt><trkpt lat="44.854287691969795" lon="11.83344890095921"><ele>1.5</ele><time>2026-03-22T12:26:25.996Z</time></trkpt><trkpt lat="44.854030247649185" lon="11.833236182256055"><ele>2.0</ele><time>2026-03-22T12:26:26.996Z</time></trkpt><trkpt lat="44.85377125904803" lon="11.833022330515554"><ele>2.0</ele><time>2026-03-22T12:26:27.996Z</time></trkpt><trkpt lat="44.85350723953774" lon="11.832807000517542"><ele>2.0</ele><time>2026-03-22T12:26:28.996Z</time></trkpt><trkpt lat="44.853244982737536" lon="11.832588792051933"><ele>1.5</ele><time>2026-03-22T12:26:29.996Z</time></trkpt><trkpt lat="44.85298653012302" lon="11.832374207507415"><ele>1.0</ele><time>2026-03-22T12:26:30.996Z</time></trkpt><trkpt lat="44.85273568165334" lon="11.83216716403781"><ele>1.0</ele><time>2026-03-22T12:26:31.996Z</time></trkpt><trkpt lat="44.8524983265297" lon="11.831972487532783"><ele>1.0</ele><time>2026-03-22T12:26:32.996Z</time></trkpt><trkpt lat="44.8522720256223" lon="11.831780731743981"><ele>1.0</ele><time>2026-03-22T12:26:33.996Z</time></trkpt><trkpt lat="44.852058572205735" lon="11.831600843273458"><ele>1.0</ele><time>2026-03-22T12:26:34.996Z</time></trkpt><trkpt lat="44.85185491269846" lon="11.831432005688324"><ele>1.0</ele><time>2026-03-22T12:26:35.996Z</time></trkpt><trkpt lat="44.85166459605208" lon="11.831273707742819"><ele>1.0</ele><time>2026-03-22T12:26:36.996Z</time></trkpt><trkpt lat="44.851481246964724" lon="11.831125719497665"><ele>1.0</ele><time>2026-03-22T12:26:37.996Z</time></trkpt><trkpt lat="44.85129810530685" lon="11.830994693063076"><ele>1.0</ele><time>2026-03-22T12:26:38.996Z</time></trkpt><trkpt lat="44.851108241012724" lon="11.830880312212026"><ele>1.0</ele><time>2026-03-22T12:26:39.996Z</time></trkpt><trkpt lat="44.850910267497696" lon="11.83078987706765"><ele>1.0</ele><time>2026-03-22T12:26:40.996Z</time></trkpt><trkpt lat="44.85070036404099" lon="11.830734716159053"><ele>1.0</ele><time>2026-03-22T12:26:41.996Z</time></trkpt><trkpt lat="44.85048433496931" lon="11.830715894505065"><ele>1.0</ele><time>2026-03-22T12:26:42.996Z</time></trkpt><trkpt lat="44.850264474492704" lon="11.830729448642384"><ele>1.0</ele><time>2026-03-22T12:26:43.996Z</time></trkpt><trkpt lat="44.850036341040564" lon="11.830773998398024"><ele>1.0</ele><time>2026-03-22T12:26:44.996Z</time></trkpt><trkpt lat="44.84981292955179" lon="11.830853525679805"><ele>1.0</ele><time>2026-03-22T12:26:45.996Z</time></trkpt><trkpt lat="44.849583833692094" lon="11.830943352159121"><ele>1.0</ele><time>2026-03-22T12:26:46.996Z</time></trkpt><trkpt lat="44.849347565742434" lon="11.831054868040015"><ele>1.0</ele><time>2026-03-22T12:26:47.996Z</time></trkpt><trkpt lat="44.84911646113346" lon="11.831157598914531"><ele>1.0</ele><time>2026-03-22T12:26:48.996Z</time></trkpt><trkpt lat="44.84887995466717" lon="11.831265923141373"><ele>1.0</ele><time>2026-03-22T12:26:49.996Z</time></trkpt><trkpt lat="44.84864932055323" lon="11.831364592258861"><ele>1.0</ele><time>2026-03-22T12:26:50.996Z</time></trkpt><trkpt lat="44.84841636843093" lon="11.831478196005463"><ele>1.0</ele><time>2026-03-22T12:26:51.996Z</time></trkpt><trkpt lat="44.84819711832188" lon="11.831621949901352"><ele>1.0</ele><time>2026-03-22T12:26:52.996Z</time></trkpt><trkpt lat="44.847975212470075" lon="11.83177894465214"><ele>1.0</ele><time>2026-03-22T12:26:53.996Z</time></trkpt><trkpt lat="44.847773529460845" lon="11.831937664838096"><ele>1.3333333333333333</ele><time>2026-03-22T12:26:54.996Z</time></trkpt><trkpt lat="44.84758891543376" lon="11.832118280505156"><ele>1.6666666666666665</ele><time>2026-03-22T12:26:55.996Z</time></trkpt><trkpt lat="44.84741574650019" lon="11.832299287522957"><ele>2.0</ele><time>2026-03-22T12:26:56.996Z</time></trkpt><trkpt lat="44.847249799849656" lon="11.832469870698304"><ele>2.0</ele><time>2026-03-22T12:26:57.996Z</time></trkpt><trkpt lat="44.84709373528211" lon="11.832642917524003"><ele>2.0</ele><time>2026-03-22T12:26:58.996Z</time></trkpt><trkpt lat="44.846961098316505" lon="11.832827401176909"><ele>2.0</ele><time>2026-03-22T12:26:59.996Z</time></trkpt><trkpt lat="44.84684761211663" lon="11.833055130245022"><ele>2.0</ele><time>2026-03-22T12:27:00.996Z</time></trkpt><trkpt lat="44.846751523704015" lon="11.8333095770379"><ele>2.0</ele><time>2026-03-22T12:27:01.996Z</time></trkpt><trkpt lat="44.8466746877008" lon="11.833608175924663"><ele>2.0</ele><time>2026-03-22T12:27:02.996Z</time></trkpt><trkpt lat="44.846618521948095" lon="11.83392388983049"><ele>2.0</ele><time>2026-03-22T12:27:03.996Z</time></trkpt><trkpt lat="44.8465620487749" lon="11.834250743192216"><ele>2.0</ele><time>2026-03-22T12:27:04.996Z</time></trkpt><trkpt lat="44.84651635952622" lon="11.834587085918178"><ele>1.5</ele><time>2026-03-22T12:27:05.996Z</time></trkpt><trkpt lat="44.84648960608933" lon="11.834924100741745"><ele>1.0</ele><time>2026-03-22T12:27:06.996Z</time></trkpt><trkpt lat="44.84649045151471" lon="11.835278668494503"><ele>0.5</ele><time>2026-03-22T12:27:07.996Z</time></trkpt><trkpt lat="44.84650481070072" lon="11.835645263811166"><ele>0.0</ele><time>2026-03-22T12:27:08.996Z</time></trkpt><trkpt lat="44.8465186120584" lon="11.83599889166497"><ele>0.0</ele><time>2026-03-22T12:27:09.996Z</time></trkpt><trkpt lat="44.84652651397472" lon="11.836341661023704"><ele>0.0</ele><time>2026-03-22T12:27:10.995Z</time></trkpt><trkpt lat="44.84653881933687" lon="11.836679511173918"><ele>1.0</ele><time>2026-03-22T12:27:11.995Z</time></trkpt><trkpt lat="44.846543951329636" lon="11.837007063509084"><ele>2.0</ele><time>2026-03-22T12:27:12.995Z</time></trkpt><trkpt lat="44.84655008834966" lon="11.837326683964312"><ele>2.0</ele><time>2026-03-22T12:27:13.995Z</time></trkpt><trkpt lat="44.84655640716231" lon="11.837642156892288"><ele>2.0</ele><time>2026-03-22T12:27:14.995Z</time></trkpt><trkpt lat="44.846550243213706" lon="11.837964575172967"><ele>2.0</ele><time>2026-03-22T12:27:15.995Z</time></trkpt><trkpt lat="44.84653625271053" lon="11.838281094117164"><ele>2.0</ele><time>2026-03-22T12:27:16.995Z</time></trkpt><trkpt lat="44.84651560457024" lon="11.838591901086584"><ele>2.0</ele><time>2026-03-22T12:27:17.995Z</time></trkpt><trkpt lat="44.84649803555888" lon="11.838901557470955"><ele>1.6666666666666665</ele><time>2026-03-22T12:27:18.995Z</time></trkpt><trkpt lat="44.84648118541467" lon="11.839212516713982"><ele>1.3333333333333333</ele><time>2026-03-22T12:27:19.995Z</time></trkpt><trkpt lat="44.84646168206716" lon="11.83952512753717"><ele>1.0</ele><time>2026-03-22T12:27:20.995Z</time></trkpt><trkpt lat="44.84644018329601" lon="11.839836675844632"><ele>0.6666666666666666</ele><time>2026-03-22T12:27:21.995Z</time></trkpt><trkpt lat="44.84642185287231" lon="11.840136236661895"><ele>0.3333333333333333</ele><time>2026-03-22T12:27:22.995Z</time></trkpt><trkpt lat="44.84640686190904" lon="11.840430519939826"><ele>0.0</ele><time>2026-03-22T12:27:23.995Z</time></trkpt><trkpt lat="44.846389199198974" lon="11.840719883650804"><ele>-1.0</ele><time>2026-03-22T12:27:24.995Z</time></trkpt><trkpt lat="44.84634868876554" lon="11.840986613873627"><ele>-2.0</ele><time>2026-03-22T12:27:25.995Z</time></trkpt><trkpt lat="44.846333679205934" lon="11.84124926095143"><ele>-3.0</ele><time>2026-03-22T12:27:26.995Z</time></trkpt><trkpt lat="44.84631632241032" lon="11.841510134706562"><ele>-3.0</ele><time>2026-03-22T12:27:27.995Z</time></trkpt><trkpt lat="44.846286795653036" lon="11.841755014932982"><ele>-3.0</ele><time>2026-03-22T12:27:28.995Z</time></trkpt><trkpt lat="44.84622886843442" lon="11.842004271413936"><ele>-3.0</ele><time>2026-03-22T12:27:29.995Z</time></trkpt><trkpt lat="44.84614437569066" lon="11.842216762848016"><ele>-3.0</ele><time>2026-03-22T12:27:30.995Z</time></trkpt><trkpt lat="44.846032928020655" lon="11.8424214548639"><ele>-3.0</ele><time>2026-03-22T12:27:31.995Z</time></trkpt><trkpt lat="44.84589290744645" lon="11.842607666739003"><ele>-3.0</ele><time>2026-03-22T12:27:32.995Z</time></trkpt><trkpt lat="44.84572232463814" lon="11.842801036855416"><ele>-3.0</ele><time>2026-03-22T12:27:33.995Z</time></trkpt><trkpt lat="44.84552712953939" lon="11.843023744222535"><ele>-3.0</ele><time>2026-03-22T12:27:34.995Z</time></trkpt><trkpt lat="44.845310279963165" lon="11.843268047421267"><ele>0.0</ele><time>2026-03-22T12:27:35.995Z</time></trkpt><trkpt lat="44.845085304591365" lon="11.843521890451697"><ele>3.0</ele><time>2026-03-22T12:27:36.995Z</time></trkpt><trkpt lat="44.844862980943034" lon="11.843771903346422"><ele>3.0</ele><time>2026-03-22T12:27:37.995Z</time></trkpt><trkpt lat="44.844638800216956" lon="11.844025030907991"><ele>3.0</ele><time>2026-03-22T12:27:38.995Z</time></trkpt><trkpt lat="44.844417509253006" lon="11.84427603085833"><ele>4.5</ele><time>2026-03-22T12:27:39.995Z</time></trkpt><trkpt lat="44.8442023680174" lon="11.84452005531744"><ele>6.0</ele><time>2026-03-22T12:27:40.995Z</time></trkpt><trkpt lat="44.843990299190146" lon="11.844760594939004"><ele>6.0</ele><time>2026-03-22T12:27:41.995Z</time></trkpt><trkpt lat="44.84378421871974" lon="11.844994342369668"><ele>6.0</ele><time>2026-03-22T12:27:42.995Z</time></trkpt><trkpt lat="44.843585916876215" lon="11.845218133615614"><ele>4.5</ele><time>2026-03-22T12:27:43.995Z</time></trkpt><trkpt lat="44.843405194907895" lon="11.84545027712132"><ele>3.0</ele><time>2026-03-22T12:27:44.995Z</time></trkpt><trkpt lat="44.84321260192298" lon="11.845635863677382"><ele>3.0</ele><time>2026-03-22T12:27:45.995Z</time></trkpt><trkpt lat="44.84304191726563" lon="11.845829020966866"><ele>3.0</ele><time>2026-03-22T12:27:46.995Z</time></trkpt><trkpt lat="44.84288751345154" lon="11.846039349686622"><ele>3.0</ele><time>2026-03-22T12:27:47.995Z</time></trkpt><trkpt lat="44.8427224339003" lon="11.846217540852221"><ele>3.0</ele><time>2026-03-22T12:27:48.995Z</time></trkpt><trkpt lat="44.842600879107145" lon="11.846438656863874"><ele>3.0</ele><time>2026-03-22T12:27:49.995Z</time></trkpt><trkpt lat="44.84248899926013" lon="11.846660266024994"><ele>3.0</ele><time>2026-03-22T12:27:50.995Z</time></trkpt><trkpt lat="44.84240525582874" lon="11.846914640049734"><ele>3.0</ele><time>2026-03-22T12:27:51.995Z</time></trkpt><trkpt lat="44.84234231316894" lon="11.847188108018194"><ele>3.0</ele><time>2026-03-22T12:27:52.995Z</time></trkpt><trkpt lat="44.842300900668874" lon="11.847475114285558"><ele>3.0</ele><time>2026-03-22T12:27:53.995Z</time></trkpt><trkpt lat="44.842285253245265" lon="11.847776951685825"><ele>3.333333333333333</ele><time>2026-03-22T12:27:54.995Z</time></trkpt><trkpt lat="44.84229539801968" lon="11.84806886171334"><ele>3.6666666666666665</ele><time>2026-03-22T12:27:55.995Z</time></trkpt><trkpt lat="44.84230714986683" lon="11.848336852009762"><ele>4.0</ele><time>2026-03-22T12:27:56.995Z</time></trkpt><trkpt lat="44.84231879854015" lon="11.848574322124229"><ele>3.4000000000000004</ele><time>2026-03-22T12:27:57.995Z</time></trkpt><trkpt lat="44.84233357291096" lon="11.848775683635555"><ele>2.8000000000000003</ele><time>2026-03-22T12:27:58.995Z</time></trkpt><trkpt lat="44.84234003609914" lon="11.848930114065634"><ele>2.2</ele><time>2026-03-22T12:27:59.995Z</time></trkpt><trkpt lat="44.842337150328724" lon="11.849045586071101"><ele>1.6</ele><time>2026-03-22T12:28:00.995Z</time></trkpt><trkpt lat="44.84231459921533" lon="11.849137023681516"><ele>1.0</ele><time>2026-03-22T12:28:01.995Z</time></trkpt><trkpt lat="44.84220283831199" lon="11.849215565274756"><ele>0.9999999999999999</ele><time>2026-03-22T12:28:03.995Z</time></trkpt><trkpt lat="44.842131601208756" lon="11.849264089425914"><ele>1.0</ele><time>2026-03-22T12:28:04.995Z</time></trkpt><trkpt lat="44.84206077248674" lon="11.849315439584197"><ele>1.0</ele><time>2026-03-22T12:28:05.995Z</time></trkpt><trkpt lat="44.841988296979935" lon="11.849276796271484"><ele>1.0</ele><time>2026-03-22T12:28:06.995Z</time></trkpt><trkpt lat="44.84191577607992" lon="11.8492004633229"><ele>0.9999999999999999</ele><time>2026-03-22T12:28:07.995Z</time></trkpt><trkpt lat="44.84183962143266" lon="11.849073671478841"><ele>1.0</ele><time>2026-03-22T12:28:08.995Z</time></trkpt><trkpt lat="44.84173675260592" lon="11.84890071823064"><ele>1.0</ele><time>2026-03-22T12:28:09.995Z</time></trkpt><trkpt lat="44.841643831664165" lon="11.848716539385396"><ele>1.0</ele><time>2026-03-22T12:28:10.995Z</time></trkpt><trkpt lat="44.84152998951379" lon="11.84851507438581"><ele>1.0</ele><time>2026-03-22T12:28:11.995Z</time></trkpt><trkpt lat="44.84139930643553" lon="11.848317864301789"><ele>1.3333333333333333</ele><time>2026-03-22T12:28:12.995Z</time></trkpt><trkpt lat="44.841250485306425" lon="11.84811547542753"><ele>1.6666666666666665</ele><time>2026-03-22T12:28:13.995Z</time></trkpt><trkpt lat="44.84106969417053" lon="11.847950964979118"><ele>2.0</ele><time>2026-03-22T12:28:14.995Z</time></trkpt><trkpt lat="44.84088130701477" lon="11.847796486928544"><ele>1.5</ele><time>2026-03-22T12:28:15.995Z</time></trkpt><trkpt lat="44.84069026644377" lon="11.847609156984742"><ele>1.0</ele><time>2026-03-22T12:28:16.995Z</time></trkpt><trkpt lat="44.84049421360622" lon="11.847413390510681"><ele>1.0</ele><time>2026-03-22T12:28:17.995Z</time></trkpt><trkpt lat="44.84028976850956" lon="11.847209722003923"><ele>1.0</ele><time>2026-03-22T12:28:18.995Z</time></trkpt><trkpt lat="44.840079525147004" lon="11.8469980956975"><ele>0.0</ele><time>2026-03-22T12:28:19.995Z</time></trkpt><trkpt lat="44.83986534746245" lon="11.846784185545223"><ele>-1.0</ele><time>2026-03-22T12:28:20.995Z</time></trkpt><trkpt lat="44.8396469135157" lon="11.846575953361416"><ele>-1.0</ele><time>2026-03-22T12:28:21.995Z</time></trkpt><trkpt lat="44.83942841224283" lon="11.846359615259622"><ele>-1.0</ele><time>2026-03-22T12:28:22.995Z</time></trkpt><trkpt lat="44.83920986364684" lon="11.846137894151997"><ele>0.0</ele><time>2026-03-22T12:28:23.995Z</time></trkpt><trkpt lat="44.83898824232064" lon="11.845924141924652"><ele>1.0</ele><time>2026-03-22T12:28:24.995Z</time></trkpt><trkpt lat="44.83877077169341" lon="11.845714206239476"><ele>1.0</ele><time>2026-03-22T12:28:25.995Z</time></trkpt><trkpt lat="44.83855807801195" lon="11.84550714079372"><ele>1.0</ele><time>2026-03-22T12:28:26.995Z</time></trkpt><trkpt lat="44.838350793827566" lon="11.845304426854339"><ele>1.0</ele><time>2026-03-22T12:28:27.995Z</time></trkpt><trkpt lat="44.83814986608624" lon="11.845106137289815"><ele>1.0</ele><time>2026-03-22T12:28:28.995Z</time></trkpt><trkpt lat="44.837952614499514" lon="11.844912145875156"><ele>1.0</ele><time>2026-03-22T12:28:29.995Z</time></trkpt><trkpt lat="44.83775924824078" lon="11.84472347644155"><ele>1.0</ele><time>2026-03-22T12:28:30.994Z</time></trkpt><trkpt lat="44.83757162075635" lon="11.844538122262373"><ele>1.0</ele><time>2026-03-22T12:28:31.994Z</time></trkpt><trkpt lat="44.837386865818694" lon="11.844359504714095"><ele>1.0</ele><time>2026-03-22T12:28:32.994Z</time></trkpt><trkpt lat="44.83720548869494" lon="11.844184486400852"><ele>1.0</ele><time>2026-03-22T12:28:33.994Z</time></trkpt><trkpt lat="44.83702868969489" lon="11.844013531841359"><ele>1.0</ele><time>2026-03-22T12:28:34.994Z</time></trkpt><trkpt lat="44.83685225407376" lon="11.84384667623644"><ele>1.0</ele><time>2026-03-22T12:28:35.994Z</time></trkpt><trkpt lat="44.8366820375255" lon="11.843680194423587"><ele>1.0</ele><time>2026-03-22T12:28:36.994Z</time></trkpt><trkpt lat="44.83651773779847" lon="11.84352321643983"><ele>1.0</ele><time>2026-03-22T12:28:37.994Z</time></trkpt><trkpt lat="44.83636187253385" lon="11.843372603472325"><ele>1.0</ele><time>2026-03-22T12:28:38.994Z</time></trkpt><trkpt lat="44.83621929600086" lon="11.843209717206307"><ele>1.0</ele><time>2026-03-22T12:28:39.994Z</time></trkpt><trkpt lat="44.83608609013937" lon="11.843020644194603"><ele>1.0</ele><time>2026-03-22T12:28:40.994Z</time></trkpt><trkpt lat="44.83596614126641" lon="11.842803126064808"><ele>1.0</ele><time>2026-03-22T12:28:41.994Z</time></trkpt><trkpt lat="44.83584366649855" lon="11.84257573486823"><ele>1.0</ele><time>2026-03-22T12:28:42.994Z</time></trkpt><trkpt lat="44.83571286932214" lon="11.842337498630842"><ele>1.0</ele><time>2026-03-22T12:28:43.994Z</time></trkpt><trkpt lat="44.835580310481554" lon="11.84209815817057"><ele>1.0</ele><time>2026-03-22T12:28:44.994Z</time></trkpt><trkpt lat="44.83544504272081" lon="11.841859449876054"><ele>1.0</ele><time>2026-03-22T12:28:45.994Z</time></trkpt><trkpt lat="44.83531189290004" lon="11.841623406330491"><ele>1.0</ele><time>2026-03-22T12:28:46.994Z</time></trkpt><trkpt lat="44.835184873926394" lon="11.841390542122411"><ele>1.0</ele><time>2026-03-22T12:28:47.994Z</time></trkpt><trkpt lat="44.83506840217583" lon="11.841174272184258"><ele>1.0</ele><time>2026-03-22T12:28:48.994Z</time></trkpt><trkpt lat="44.834966790325346" lon="11.840967786412653"><ele>0.6666666666666666</ele><time>2026-03-22T12:28:49.994Z</time></trkpt><trkpt lat="44.83488423271005" lon="11.840760009700341"><ele>0.3333333333333333</ele><time>2026-03-22T12:28:50.994Z</time></trkpt><trkpt lat="44.83482814651393" lon="11.840546350392577"><ele>0.0</ele><time>2026-03-22T12:28:51.994Z</time></trkpt><trkpt lat="44.83480202314753" lon="11.840307919234451"><ele>0.3333333333333333</ele><time>2026-03-22T12:28:52.994Z</time></trkpt><trkpt lat="44.83481009751709" lon="11.84005250249769"><ele>0.6666666666666666</ele><time>2026-03-22T12:28:53.994Z</time></trkpt><trkpt lat="44.83483315860884" lon="11.839780895917333"><ele>1.0</ele><time>2026-03-22T12:28:54.994Z</time></trkpt><trkpt lat="44.83486590064282" lon="11.839508484556685"><ele>1.0</ele><time>2026-03-22T12:28:55.994Z</time></trkpt><trkpt lat="44.83492542239795" lon="11.839228184570455"><ele>1.0</ele><time>2026-03-22T12:28:56.994Z</time></trkpt><trkpt lat="44.83500774957259" lon="11.838939317166512"><ele>1.0</ele><time>2026-03-22T12:28:57.994Z</time></trkpt><trkpt lat="44.83509642818707" lon="11.838643711917612"><ele>1.5</ele><time>2026-03-22T12:28:58.994Z</time></trkpt><trkpt lat="44.83517869893121" lon="11.838333538398894"><ele>2.0</ele><time>2026-03-22T12:28:59.994Z</time></trkpt><trkpt lat="44.835260013892814" lon="11.838012485898037"><ele>2.0</ele><time>2026-03-22T12:29:00.994Z</time></trkpt><trkpt lat="44.83534118975832" lon="11.83768724874704"><ele>2.0</ele><time>2026-03-22T12:29:01.994Z</time></trkpt><trkpt lat="44.83542782232946" lon="11.837357554796691"><ele>1.5</ele><time>2026-03-22T12:29:02.994Z</time></trkpt><trkpt lat="44.83551376191563" lon="11.837023074182769"><ele>1.0</ele><time>2026-03-22T12:29:03.994Z</time></trkpt><trkpt lat="44.83559876421814" lon="11.836694948553674"><ele>0.5</ele><time>2026-03-22T12:29:04.994Z</time></trkpt><trkpt lat="44.83568079388217" lon="11.83637087220178"><ele>0.0</ele><time>2026-03-22T12:29:05.994Z</time></trkpt><trkpt lat="44.835762572870046" lon="11.836063168283543"><ele>0.3333333333333333</ele><time>2026-03-22T12:29:06.994Z</time></trkpt><trkpt lat="44.835841308067295" lon="11.835772824743918"><ele>0.6666666666666666</ele><time>2026-03-22T12:29:07.994Z</time></trkpt><trkpt lat="44.835909269957966" lon="11.835513170708944"><ele>1.0</ele><time>2026-03-22T12:29:08.994Z</time></trkpt><trkpt lat="44.83596892790324" lon="11.835285214722868"><ele>1.25</ele><time>2026-03-22T12:29:09.994Z</time></trkpt><trkpt lat="44.836020895263886" lon="11.835095717433958"><ele>1.5</ele><time>2026-03-22T12:29:10.994Z</time></trkpt><trkpt lat="44.83607341894717" lon="11.83491911549027"><ele>1.75</ele><time>2026-03-22T12:29:11.994Z</time></trkpt><trkpt lat="44.836140623974316" lon="11.834743595746598"><ele>2.0</ele><time>2026-03-22T12:29:12.994Z</time></trkpt><trkpt lat="44.836240212472134" lon="11.834587355440705"><ele>2.0</ele><time>2026-03-22T12:29:13.994Z</time></trkpt><trkpt lat="44.836375214767635" lon="11.834454688831698"><ele>2.0</ele><time>2026-03-22T12:29:14.994Z</time></trkpt><trkpt lat="44.836540568088985" lon="11.834319341587124"><ele>2.0</ele><time>2026-03-22T12:29:15.994Z</time></trkpt><trkpt lat="44.83670416762613" lon="11.834164523708184"><ele>1.6666666666666665</ele><time>2026-03-22T12:29:16.994Z</time></trkpt><trkpt lat="44.83686251322755" lon="11.834006227572385"><ele>1.3333333333333333</ele><time>2026-03-22T12:29:17.994Z</time></trkpt><trkpt lat="44.837026121848936" lon="11.833853774785052"><ele>1.0</ele><time>2026-03-22T12:29:18.994Z</time></trkpt><trkpt lat="44.837189124997906" lon="11.833693131703576"><ele>1.0</ele><time>2026-03-22T12:29:19.994Z</time></trkpt><trkpt lat="44.83734633683415" lon="11.833525469205439"><ele>1.0</ele><time>2026-03-22T12:29:20.994Z</time></trkpt><trkpt lat="44.83749522347687" lon="11.833360098973385"><ele>1.0</ele><time>2026-03-22T12:29:21.994Z</time></trkpt><trkpt lat="44.83762195422537" lon="11.833189839623627"><ele>1.0</ele><time>2026-03-22T12:29:22.994Z</time></trkpt><trkpt lat="44.83772978576204" lon="11.83300953952859"><ele>1.0</ele><time>2026-03-22T12:29:23.994Z</time></trkpt><trkpt lat="44.83782823183715" lon="11.832805092631297"><ele>1.0</ele><time>2026-03-22T12:29:24.994Z</time></trkpt><trkpt lat="44.837908609603595" lon="11.832577455036342"><ele>1.3333333333333333</ele><time>2026-03-22T12:29:25.994Z</time></trkpt><trkpt lat="44.837990213528975" lon="11.832341666774187"><ele>1.6666666666666665</ele><time>2026-03-22T12:29:26.994Z</time></trkpt><trkpt lat="44.838074062085255" lon="11.832112597224091"><ele>2.0</ele><time>2026-03-22T12:29:27.994Z</time></trkpt><trkpt lat="44.83814631567495" lon="11.831871180022532"><ele>2.6666666666666665</ele><time>2026-03-22T12:29:28.994Z</time></trkpt><trkpt lat="44.83820885780467" lon="11.83160971584609"><ele>3.333333333333333</ele><time>2026-03-22T12:29:29.994Z</time></trkpt><trkpt lat="44.83828685098583" lon="11.831399336303638"><ele>4.0</ele><time>2026-03-22T12:29:30.994Z</time></trkpt><trkpt lat="44.83834668452049" lon="11.831182997366072"><ele>4.0</ele><time>2026-03-22T12:29:31.994Z</time></trkpt><trkpt lat="44.83841702889198" lon="11.8309743447442"><ele>4.0</ele><time>2026-03-22T12:29:32.994Z</time></trkpt><trkpt lat="44.83845990857063" lon="11.830753504559052"><ele>4.0</ele><time>2026-03-22T12:29:33.994Z</time></trkpt><trkpt lat="44.83849348082826" lon="11.830513407269967"><ele>3.333333333333333</ele><time>2026-03-22T12:29:34.994Z</time></trkpt><trkpt lat="44.83854135488684" lon="11.830291617389115"><ele>2.6666666666666665</ele><time>2026-03-22T12:29:35.994Z</time></trkpt><trkpt lat="44.83860839165892" lon="11.830100220268745"><ele>2.0</ele><time>2026-03-22T12:29:36.994Z</time></trkpt><trkpt lat="44.83868676114973" lon="11.829918368768842"><ele>2.0</ele><time>2026-03-22T12:29:37.994Z</time></trkpt><trkpt lat="44.83876070293919" lon="11.829753274443831"><ele>2.0</ele><time>2026-03-22T12:29:38.994Z</time></trkpt><trkpt lat="44.83881820052083" lon="11.82959552301465"><ele>2.0</ele><time>2026-03-22T12:29:39.994Z</time></trkpt><trkpt lat="44.838867224451086" lon="11.829401622964292"><ele>2.0</ele><time>2026-03-22T12:29:40.994Z</time></trkpt><trkpt lat="44.83890018341658" lon="11.829187492798336"><ele>2.0</ele><time>2026-03-22T12:29:41.994Z</time></trkpt><trkpt lat="44.83892584032388" lon="11.828943992474057"><ele>2.0</ele><time>2026-03-22T12:29:42.994Z</time></trkpt><trkpt lat="44.83896061624877" lon="11.828703145344953"><ele>2.0</ele><time>2026-03-22T12:29:43.994Z</time></trkpt><trkpt lat="44.83898452126647" lon="11.828458435090353"><ele>2.333333333333333</ele><time>2026-03-22T12:29:44.994Z</time></trkpt><trkpt lat="44.83900231151824" lon="11.828224558975919"><ele>2.6666666666666665</ele><time>2026-03-22T12:29:45.994Z</time></trkpt><trkpt lat="44.83902158442639" lon="11.828013539455304"><ele>3.0</ele><time>2026-03-22T12:29:46.994Z</time></trkpt><trkpt lat="44.8390383765621" lon="11.827816850036733"><ele>3.75</ele><time>2026-03-22T12:29:47.994Z</time></trkpt><trkpt lat="44.83905188653282" lon="11.827629457397295"><ele>4.5</ele><time>2026-03-22T12:29:48.994Z</time></trkpt><trkpt lat="44.83906134153261" lon="11.827440546527875"><ele>5.25</ele><time>2026-03-22T12:29:49.994Z</time></trkpt><trkpt lat="44.83906230449239" lon="11.827248920934158"><ele>6.0</ele><time>2026-03-22T12:29:50.994Z</time></trkpt><trkpt lat="44.839047395891164" lon="11.827061060362109"><ele>6.0</ele><time>2026-03-22T12:29:51.993Z</time></trkpt><trkpt lat="44.83903179941823" lon="11.826893704843156"><ele>6.0</ele><time>2026-03-22T12:29:52.993Z</time></trkpt><trkpt lat="44.83900706374867" lon="11.826719199923229"><ele>6.0</ele><time>2026-03-22T12:29:53.993Z</time></trkpt><trkpt lat="44.83895604725051" lon="11.82654699724713"><ele>6.0</ele><time>2026-03-22T12:29:54.993Z</time></trkpt><trkpt lat="44.838923046205274" lon="11.826394083367736"><ele>6.0</ele><time>2026-03-22T12:29:55.993Z</time></trkpt><trkpt lat="44.838888774728076" lon="11.826241935306408"><ele>6.0</ele><time>2026-03-22T12:29:56.993Z</time></trkpt><trkpt lat="44.83886893764011" lon="11.826094976363525"><ele>6.0</ele><time>2026-03-22T12:29:57.993Z</time></trkpt><trkpt lat="44.83885176554132" lon="11.82596976332109"><ele>6.0</ele><time>2026-03-22T12:29:58.993Z</time></trkpt><trkpt lat="44.83883474335306" lon="11.825867110662807"><ele>6.0</ele><time>2026-03-22T12:29:59.993Z</time></trkpt><trkpt lat="44.83877790243956" lon="11.825725162679715"><ele>5.833333333333333</ele><time>2026-03-22T12:30:01.993Z</time></trkpt><trkpt lat="44.838675242119315" lon="11.82564719461967"><ele>5.666666666666667</ele><time>2026-03-22T12:30:03.993Z</time></trkpt><trkpt lat="44.838592474494284" lon="11.825630575777316"><ele>5.5</ele><time>2026-03-22T12:30:04.993Z</time></trkpt><trkpt lat="44.838507490592846" lon="11.825646406589524"><ele>5.333333333333334</ele><time>2026-03-22T12:30:05.993Z</time></trkpt><trkpt lat="44.83843272235954" lon="11.825664637575446"><ele>5.166666666666667</ele><time>2026-03-22T12:30:06.993Z</time></trkpt><trkpt lat="44.83837227266736" lon="11.825689463877614"><ele>5.0</ele><time>2026-03-22T12:30:07.993Z</time></trkpt><trkpt lat="44.838264383696334" lon="11.825687575881114"><ele>5.2</ele><time>2026-03-22T12:30:09.993Z</time></trkpt><trkpt lat="44.838213696433726" lon="11.825618038095634"><ele>5.4</ele><time>2026-03-22T12:30:10.993Z</time></trkpt><trkpt lat="44.838179565582095" lon="11.825515149911716"><ele>5.6</ele><time>2026-03-22T12:30:11.993Z</time></trkpt><trkpt lat="44.838170114667456" lon="11.825381711694718"><ele>5.8</ele><time>2026-03-22T12:30:12.993Z</time></trkpt><trkpt lat="44.8381697638181" lon="11.825229222255983"><ele>6.0</ele><time>2026-03-22T12:30:13.993Z</time></trkpt><trkpt lat="44.838160419291754" lon="11.82504837619605"><ele>6.0</ele><time>2026-03-22T12:30:14.993Z</time></trkpt><trkpt lat="44.838137359117155" lon="11.824858261951519"><ele>6.0</ele><time>2026-03-22T12:30:15.993Z</time></trkpt><trkpt lat="44.838117017627766" lon="11.824641633302006"><ele>6.0</ele><time>2026-03-22T12:30:16.993Z</time></trkpt><trkpt lat="44.83808722967196" lon="11.82441866417639"><ele>5.333333333333333</ele><time>2026-03-22T12:30:17.993Z</time></trkpt><trkpt lat="44.838066899085526" lon="11.824186375529594"><ele>4.666666666666666</ele><time>2026-03-22T12:30:18.993Z</time></trkpt><trkpt lat="44.838052387291334" lon="11.823949834253094"><ele>4.0</ele><time>2026-03-22T12:30:19.993Z</time></trkpt><trkpt lat="44.83802604884275" lon="11.823708710103064"><ele>4.0</ele><time>2026-03-22T12:30:20.993Z</time></trkpt><trkpt lat="44.837987508729334" lon="11.823455430126069"><ele>4.0</ele><time>2026-03-22T12:30:21.993Z</time></trkpt><trkpt lat="44.837948032074905" lon="11.823197792376657"><ele>4.0</ele><time>2026-03-22T12:30:22.993Z</time></trkpt><trkpt lat="44.837920069628495" lon="11.822927676571496"><ele>4.0</ele><time>2026-03-22T12:30:23.993Z</time></trkpt><trkpt lat="44.83789472752735" lon="11.822660966888956"><ele>4.0</ele><time>2026-03-22T12:30:24.993Z</time></trkpt><trkpt lat="44.83787787896791" lon="11.822377978273126"><ele>4.0</ele><time>2026-03-22T12:30:25.993Z</time></trkpt><trkpt lat="44.837851316568646" lon="11.82208207719716"><ele>3.333333333333333</ele><time>2026-03-22T12:30:26.993Z</time></trkpt><trkpt lat="44.83782136352382" lon="11.821802757614815"><ele>2.6666666666666665</ele><time>2026-03-22T12:30:27.993Z</time></trkpt><trkpt lat="44.83778675195334" lon="11.821508406489976"><ele>2.0</ele><time>2026-03-22T12:30:28.993Z</time></trkpt><trkpt lat="44.83774745964468" lon="11.821200558004945"><ele>2.5</ele><time>2026-03-22T12:30:29.993Z</time></trkpt><trkpt lat="44.837706264726535" lon="11.820884599836297"><ele>3.0</ele><time>2026-03-22T12:30:30.993Z</time></trkpt><trkpt lat="44.83765819934257" lon="11.82057360318751"><ele>3.0</ele><time>2026-03-22T12:30:31.993Z</time></trkpt><trkpt lat="44.837602937089216" lon="11.820255781344239"><ele>3.0</ele><time>2026-03-22T12:30:32.993Z</time></trkpt><trkpt lat="44.83755188583626" lon="11.819930700940448"><ele>3.0</ele><time>2026-03-22T12:30:33.993Z</time></trkpt><trkpt lat="44.83749512231446" lon="11.819603865890517"><ele>3.0</ele><time>2026-03-22T12:30:34.993Z</time></trkpt><trkpt lat="44.83743919542786" lon="11.819272295288199"><ele>2.5</ele><time>2026-03-22T12:30:35.993Z</time></trkpt><trkpt lat="44.83738320668127" lon="11.818949880416609"><ele>2.0</ele><time>2026-03-22T12:30:36.993Z</time></trkpt><trkpt lat="44.83732404635556" lon="11.818631682159728"><ele>2.0</ele><time>2026-03-22T12:30:37.993Z</time></trkpt><trkpt lat="44.83726191596232" lon="11.818320022948715"><ele>2.0</ele><time>2026-03-22T12:30:38.993Z</time></trkpt><trkpt lat="44.83720391490715" lon="11.818021508159905"><ele>2.0</ele><time>2026-03-22T12:30:39.993Z</time></trkpt><trkpt lat="44.837148920002974" lon="11.817731040056836"><ele>2.6666666666666665</ele><time>2026-03-22T12:30:40.993Z</time></trkpt><trkpt lat="44.83710187955361" lon="11.817440360197871"><ele>3.333333333333333</ele><time>2026-03-22T12:30:41.993Z</time></trkpt><trkpt lat="44.83706412154859" lon="11.817156456169899"><ele>4.0</ele><time>2026-03-22T12:30:42.993Z</time></trkpt><trkpt lat="44.83704097614595" lon="11.81687788509923"><ele>4.333333333333333</ele><time>2026-03-22T12:30:43.993Z</time></trkpt><trkpt lat="44.837037702793694" lon="11.81660414931568"><ele>4.666666666666667</ele><time>2026-03-22T12:30:44.993Z</time></trkpt><trkpt lat="44.837061080148736" lon="11.816346511968707"><ele>5.0</ele><time>2026-03-22T12:30:45.993Z</time></trkpt><trkpt lat="44.83711779615652" lon="11.816089556643036"><ele>5.0</ele><time>2026-03-22T12:30:46.993Z</time></trkpt><trkpt lat="44.83722655285272" lon="11.815865995615532"><ele>5.0</ele><time>2026-03-22T12:30:47.993Z</time></trkpt><trkpt lat="44.83732447086626" lon="11.815612504955567"><ele>5.0</ele><time>2026-03-22T12:30:48.993Z</time></trkpt><trkpt lat="44.8374443415164" lon="11.815367600990777"><ele>4.666666666666667</ele><time>2026-03-22T12:30:49.993Z</time></trkpt><trkpt lat="44.83756164520634" lon="11.81511698641251"><ele>4.333333333333333</ele><time>2026-03-22T12:30:50.993Z</time></trkpt><trkpt lat="44.83767868980416" lon="11.814857676608517"><ele>4.0</ele><time>2026-03-22T12:30:51.993Z</time></trkpt><trkpt lat="44.83778478890249" lon="11.814595433066488"><ele>4.0</ele><time>2026-03-22T12:30:52.993Z</time></trkpt><trkpt lat="44.837888345460115" lon="11.814317978947988"><ele>4.0</ele><time>2026-03-22T12:30:53.993Z</time></trkpt><trkpt lat="44.83798757058969" lon="11.814034094186924"><ele>4.0</ele><time>2026-03-22T12:30:54.993Z</time></trkpt><trkpt lat="44.838088815098125" lon="11.81374794906049"><ele>4.333333333333333</ele><time>2026-03-22T12:30:55.993Z</time></trkpt><trkpt lat="44.8381779953497" lon="11.81346842418155"><ele>4.666666666666667</ele><time>2026-03-22T12:30:56.993Z</time></trkpt><trkpt lat="44.8382556518514" lon="11.813189056997981"><ele>5.0</ele><time>2026-03-22T12:30:57.993Z</time></trkpt><trkpt lat="44.83830758789817" lon="11.812911597574262"><ele>4.333333333333334</ele><time>2026-03-22T12:30:58.993Z</time></trkpt><trkpt lat="44.83834135129766" lon="11.812620844690077"><ele>3.666666666666667</ele><time>2026-03-22T12:30:59.993Z</time></trkpt><trkpt lat="44.83837264248249" lon="11.812316986097963"><ele>3.0</ele><time>2026-03-22T12:31:00.993Z</time></trkpt><trkpt lat="44.83840254481608" lon="11.812008050323124"><ele>3.0</ele><time>2026-03-22T12:31:01.993Z</time></trkpt><trkpt lat="44.83844751159938" lon="11.811698780210708"><ele>3.0</ele><time>2026-03-22T12:31:02.993Z</time></trkpt><trkpt lat="44.838474958460736" lon="11.811376902405186"><ele>2.5</ele><time>2026-03-22T12:31:03.993Z</time></trkpt><trkpt lat="44.838497056536575" lon="11.8110525159707"><ele>2.0</ele><time>2026-03-22T12:31:04.993Z</time></trkpt><trkpt lat="44.838519054904545" lon="11.810735105761077"><ele>2.6666666666666665</ele><time>2026-03-22T12:31:05.993Z</time></trkpt><trkpt lat="44.83854994483943" lon="11.810421619140678"><ele>3.333333333333333</ele><time>2026-03-22T12:31:06.993Z</time></trkpt><trkpt lat="44.83858723306639" lon="11.810111832134053"><ele>4.0</ele><time>2026-03-22T12:31:07.993Z</time></trkpt><trkpt lat="44.838633661452306" lon="11.809792491073514"><ele>4.5</ele><time>2026-03-22T12:31:08.993Z</time></trkpt><trkpt lat="44.83868196137507" lon="11.809474648923842"><ele>5.0</ele><time>2026-03-22T12:31:09.993Z</time></trkpt><trkpt lat="44.838731939598944" lon="11.809154318983056"><ele>3.5</ele><time>2026-03-22T12:31:10.993Z</time></trkpt><trkpt lat="44.83879912951216" lon="11.808839341101274"><ele>2.0</ele><time>2026-03-22T12:31:11.992Z</time></trkpt><trkpt lat="44.83886192858256" lon="11.808520698793211"><ele>2.0</ele><time>2026-03-22T12:31:12.992Z</time></trkpt><trkpt lat="44.83892084923585" lon="11.80820658790051"><ele>2.0</ele><time>2026-03-22T12:31:13.992Z</time></trkpt><trkpt lat="44.838978026876305" lon="11.807886281804484"><ele>3.5</ele><time>2026-03-22T12:31:14.992Z</time></trkpt><trkpt lat="44.8390358840467" lon="11.80756601822639"><ele>5.0</ele><time>2026-03-22T12:31:15.992Z</time></trkpt><trkpt lat="44.83911148321306" lon="11.80725334664869"><ele>5.0</ele><time>2026-03-22T12:31:16.992Z</time></trkpt><trkpt lat="44.83917165154908" lon="11.80693356451985"><ele>5.0</ele><time>2026-03-22T12:31:17.992Z</time></trkpt><trkpt lat="44.83922497344839" lon="11.80660668688003"><ele>5.0</ele><time>2026-03-22T12:31:18.992Z</time></trkpt><trkpt lat="44.83928550689857" lon="11.806284558966002"><ele>5.0</ele><time>2026-03-22T12:31:19.992Z</time></trkpt><trkpt lat="44.83935094861927" lon="11.805965365793345"><ele>4.0</ele><time>2026-03-22T12:31:20.992Z</time></trkpt><trkpt lat="44.839411635724446" lon="11.805637645563978"><ele>3.0</ele><time>2026-03-22T12:31:21.992Z</time></trkpt><trkpt lat="44.8394692285242" lon="11.805298081785839"><ele>3.5</ele><time>2026-03-22T12:31:22.992Z</time></trkpt><trkpt lat="44.83950164076719" lon="11.804948052112058"><ele>4.0</ele><time>2026-03-22T12:31:23.992Z</time></trkpt><trkpt lat="44.83954480717674" lon="11.8046139054891"><ele>3.5</ele><time>2026-03-22T12:31:24.992Z</time></trkpt><trkpt lat="44.839571250899986" lon="11.804258952189329"><ele>3.0</ele><time>2026-03-22T12:31:25.992Z</time></trkpt><trkpt lat="44.8395997137943" lon="11.80391138885525"><ele>3.0</ele><time>2026-03-22T12:31:26.992Z</time></trkpt><trkpt lat="44.83962011101634" lon="11.803569464229916"><ele>3.0</ele><time>2026-03-22T12:31:27.992Z</time></trkpt><trkpt lat="44.83962185334723" lon="11.803235288576271"><ele>3.0</ele><time>2026-03-22T12:31:28.992Z</time></trkpt><trkpt lat="44.83961215820555" lon="11.802930051408708"><ele>3.0</ele><time>2026-03-22T12:31:29.992Z</time></trkpt><trkpt lat="44.83960451322161" lon="11.802646956357645"><ele>3.0</ele><time>2026-03-22T12:31:30.992Z</time></trkpt><trkpt lat="44.839568611519624" lon="11.802393503090073"><ele>3.0</ele><time>2026-03-22T12:31:31.992Z</time></trkpt><trkpt lat="44.83955725028812" lon="11.80216262988759"><ele>3.0</ele><time>2026-03-22T12:31:32.992Z</time></trkpt><trkpt lat="44.83958436378037" lon="11.80190955270476"><ele>3.0</ele><time>2026-03-22T12:31:33.992Z</time></trkpt><trkpt lat="44.83963618980221" lon="11.801651935749527"><ele>2.5</ele><time>2026-03-22T12:31:34.992Z</time></trkpt><trkpt lat="44.83971757409004" lon="11.801376428776544"><ele>2.0</ele><time>2026-03-22T12:31:35.992Z</time></trkpt><trkpt lat="44.839823645869394" lon="11.801074520394456"><ele>2.5</ele><time>2026-03-22T12:31:36.992Z</time></trkpt><trkpt lat="44.83993159836318" lon="11.800764191869284"><ele>3.0</ele><time>2026-03-22T12:31:37.992Z</time></trkpt><trkpt lat="44.840049532117135" lon="11.800446589675264"><ele>2.5</ele><time>2026-03-22T12:31:38.992Z</time></trkpt><trkpt lat="44.84017274497233" lon="11.800123295455586"><ele>2.0</ele><time>2026-03-22T12:31:39.992Z</time></trkpt><trkpt lat="44.8402987308493" lon="11.79980590057985"><ele>2.0</ele><time>2026-03-22T12:31:40.992Z</time></trkpt><trkpt lat="44.840432261403286" lon="11.799475380563827"><ele>2.0</ele><time>2026-03-22T12:31:41.992Z</time></trkpt><trkpt lat="44.8405590496841" lon="11.799156769745972"><ele>3.0</ele><time>2026-03-22T12:31:42.992Z</time></trkpt><trkpt lat="44.8406873567881" lon="11.79884261015544"><ele>4.0</ele><time>2026-03-22T12:31:43.992Z</time></trkpt><trkpt lat="44.84081177032417" lon="11.798540485802414"><ele>4.0</ele><time>2026-03-22T12:31:44.992Z</time></trkpt><trkpt lat="44.84093578165167" lon="11.79824138906892"><ele>4.0</ele><time>2026-03-22T12:31:45.992Z</time></trkpt><trkpt lat="44.84105334090953" lon="11.797941458521628"><ele>3.0</ele><time>2026-03-22T12:31:46.992Z</time></trkpt><trkpt lat="44.84117618013826" lon="11.797630412831728"><ele>2.0</ele><time>2026-03-22T12:31:47.992Z</time></trkpt><trkpt lat="44.841297464436515" lon="11.797327730798512"><ele>2.0</ele><time>2026-03-22T12:31:48.992Z</time></trkpt><trkpt lat="44.841416779440294" lon="11.797024896713511"><ele>2.0</ele><time>2026-03-22T12:31:49.992Z</time></trkpt><trkpt lat="44.84153369781645" lon="11.79672198160548"><ele>2.5</ele><time>2026-03-22T12:31:50.992Z</time></trkpt><trkpt lat="44.841644312402394" lon="11.79642755352412"><ele>3.0</ele><time>2026-03-22T12:31:51.992Z</time></trkpt><trkpt lat="44.84176103393585" lon="11.796137427573337"><ele>3.0</ele><time>2026-03-22T12:31:52.992Z</time></trkpt><trkpt lat="44.8418755625638" lon="11.795850347337272"><ele>3.0</ele><time>2026-03-22T12:31:53.992Z</time></trkpt><trkpt lat="44.84198219643017" lon="11.7955633490305"><ele>3.0</ele><time>2026-03-22T12:31:54.992Z</time></trkpt><trkpt lat="44.84209383338405" lon="11.795278005459105"><ele>3.0</ele><time>2026-03-22T12:31:55.992Z</time></trkpt><trkpt lat="44.842204033540135" lon="11.794995093565754"><ele>3.333333333333333</ele><time>2026-03-22T12:31:56.992Z</time></trkpt><trkpt lat="44.8423155460617" lon="11.794717531114628"><ele>3.6666666666666665</ele><time>2026-03-22T12:31:57.992Z</time></trkpt><trkpt lat="44.84242255152863" lon="11.794443669332239"><ele>4.0</ele><time>2026-03-22T12:31:58.992Z</time></trkpt><trkpt lat="44.84252958371724" lon="11.794171675105819"><ele>3.6666666666666665</ele><time>2026-03-22T12:31:59.992Z</time></trkpt><trkpt lat="44.842634814997155" lon="11.79390462074554"><ele>3.333333333333333</ele><time>2026-03-22T12:32:00.992Z</time></trkpt><trkpt lat="44.84273110697454" lon="11.7936446686572"><ele>3.0</ele><time>2026-03-22T12:32:01.992Z</time></trkpt><trkpt lat="44.84282024319479" lon="11.793384136468228"><ele>3.0</ele><time>2026-03-22T12:32:02.992Z</time></trkpt><trkpt lat="44.842904063784516" lon="11.79312326262142"><ele>3.0</ele><time>2026-03-22T12:32:03.992Z</time></trkpt><trkpt lat="44.842982514084476" lon="11.792868953865543"><ele>3.0</ele><time>2026-03-22T12:32:04.992Z</time></trkpt><trkpt lat="44.84305296200955" lon="11.79261690496019"><ele>3.333333333333333</ele><time>2026-03-22T12:32:05.992Z</time></trkpt><trkpt lat="44.84312787903579" lon="11.792374400771337"><ele>3.6666666666666665</ele><time>2026-03-22T12:32:06.992Z</time></trkpt><trkpt lat="44.84324243175787" lon="11.792157981513093"><ele>4.0</ele><time>2026-03-22T12:32:07.992Z</time></trkpt><trkpt lat="44.84331580006462" lon="11.791922290989874"><ele>4.0</ele><time>2026-03-22T12:32:08.992Z</time></trkpt><trkpt lat="44.84338857793789" lon="11.791673108481104"><ele>4.0</ele><time>2026-03-22T12:32:09.992Z</time></trkpt><trkpt lat="44.84344759466993" lon="11.791397078919427"><ele>4.0</ele><time>2026-03-22T12:32:10.992Z</time></trkpt><trkpt lat="44.84350073541577" lon="11.791109303819272"><ele>3.333333333333333</ele><time>2026-03-22T12:32:11.992Z</time></trkpt><trkpt lat="44.843553403548995" lon="11.790816610759894"><ele>2.6666666666666665</ele><time>2026-03-22T12:32:12.992Z</time></trkpt><trkpt lat="44.843608556650615" lon="11.790513810049084"><ele>2.0</ele><time>2026-03-22T12:32:13.992Z</time></trkpt><trkpt lat="44.84366420209082" lon="11.790211189107824"><ele>2.333333333333333</ele><time>2026-03-22T12:32:14.992Z</time></trkpt><trkpt lat="44.843720340141566" lon="11.789905889158065"><ele>2.6666666666666665</ele><time>2026-03-22T12:32:15.992Z</time></trkpt><trkpt lat="44.843776132966816" lon="11.789602466687393"><ele>3.0</ele><time>2026-03-22T12:32:16.992Z</time></trkpt><trkpt lat="44.843832492702504" lon="11.78929596127437"><ele>3.0</ele><time>2026-03-22T12:32:17.992Z</time></trkpt><trkpt lat="44.84387785363604" lon="11.788980730706054"><ele>3.0</ele><time>2026-03-22T12:32:18.992Z</time></trkpt><trkpt lat="44.8439026184596" lon="11.788641168124547"><ele>3.5</ele><time>2026-03-22T12:32:19.992Z</time></trkpt><trkpt lat="44.843916604334" lon="11.788296687952778"><ele>4.0</ele><time>2026-03-22T12:32:20.992Z</time></trkpt><trkpt lat="44.84392751225516" lon="11.787946595623339"><ele>3.0</ele><time>2026-03-22T12:32:21.992Z</time></trkpt><trkpt lat="44.84393865789951" lon="11.787588873487746"><ele>2.0</ele><time>2026-03-22T12:32:22.992Z</time></trkpt><trkpt lat="44.843949667533344" lon="11.7872355166842"><ele>2.0</ele><time>2026-03-22T12:32:23.992Z</time></trkpt><trkpt lat="44.843960148268586" lon="11.78689913493482"><ele>2.0</ele><time>2026-03-22T12:32:24.992Z</time></trkpt><trkpt lat="44.84397085452768" lon="11.78656595112657"><ele>2.0</ele><time>2026-03-22T12:32:25.992Z</time></trkpt><trkpt lat="44.8439818829913" lon="11.786235362964783"><ele>2.0</ele><time>2026-03-22T12:32:26.992Z</time></trkpt><trkpt lat="44.84399315925694" lon="11.78589734674391"><ele>2.0</ele><time>2026-03-22T12:32:27.992Z</time></trkpt><trkpt lat="44.84400645324152" lon="11.785551280554516"><ele>2.0</ele><time>2026-03-22T12:32:28.992Z</time></trkpt><trkpt lat="44.84402189875026" lon="11.785198774187103"><ele>3.0</ele><time>2026-03-22T12:32:29.992Z</time></trkpt><trkpt lat="44.8440340527854" lon="11.784842633208092"><ele>4.0</ele><time>2026-03-22T12:32:30.992Z</time></trkpt><trkpt lat="44.844059102130096" lon="11.78448162482029"><ele>3.5</ele><time>2026-03-22T12:32:31.992Z</time></trkpt><trkpt lat="44.844078727076486" lon="11.784119544104877"><ele>3.0</ele><time>2026-03-22T12:32:32.991Z</time></trkpt><trkpt lat="44.84411417708233" lon="11.783752326844803"><ele>3.0</ele><time>2026-03-22T12:32:33.991Z</time></trkpt><trkpt lat="44.844132968381935" lon="11.783387607342362"><ele>3.0</ele><time>2026-03-22T12:32:34.991Z</time></trkpt><trkpt lat="44.84415083363841" lon="11.783025600120261"><ele>3.0</ele><time>2026-03-22T12:32:35.991Z</time></trkpt><trkpt lat="44.844170727785205" lon="11.782686452854536"><ele>3.0</ele><time>2026-03-22T12:32:36.991Z</time></trkpt><trkpt lat="44.844202461807036" lon="11.782351581873883"><ele>3.5</ele><time>2026-03-22T12:32:37.991Z</time></trkpt><trkpt lat="44.84425050089194" lon="11.78201381375047"><ele>4.0</ele><time>2026-03-22T12:32:38.991Z</time></trkpt><trkpt lat="44.844329291853064" lon="11.781682054824474"><ele>3.5</ele><time>2026-03-22T12:32:39.991Z</time></trkpt><trkpt lat="44.84441115861789" lon="11.781347005867527"><ele>3.0</ele><time>2026-03-22T12:32:40.991Z</time></trkpt><trkpt lat="44.8445035017625" lon="11.781003426895067"><ele>3.0</ele><time>2026-03-22T12:32:41.991Z</time></trkpt><trkpt lat="44.8445955837616" lon="11.780671123775136"><ele>3.0</ele><time>2026-03-22T12:32:42.991Z</time></trkpt><trkpt lat="44.84469574290066" lon="11.780345420274456"><ele>3.0</ele><time>2026-03-22T12:32:43.991Z</time></trkpt><trkpt lat="44.84479829406887" lon="11.780029336012579"><ele>3.0</ele><time>2026-03-22T12:32:44.991Z</time></trkpt><trkpt lat="44.844899276748905" lon="11.779723398671829"><ele>3.0</ele><time>2026-03-22T12:32:45.991Z</time></trkpt><trkpt lat="44.844989175390225" lon="11.77942313729124"><ele>3.0</ele><time>2026-03-22T12:32:46.991Z</time></trkpt><trkpt lat="44.84504132958317" lon="11.77911715226666"><ele>3.0</ele><time>2026-03-22T12:32:47.991Z</time></trkpt><trkpt lat="44.845084372156286" lon="11.778821373605227"><ele>3.0</ele><time>2026-03-22T12:32:48.991Z</time></trkpt><trkpt lat="44.84512377038404" lon="11.778513502975994"><ele>3.0</ele><time>2026-03-22T12:32:49.991Z</time></trkpt><trkpt lat="44.845175445405985" lon="11.7781997197122"><ele>3.0</ele><time>2026-03-22T12:32:50.991Z</time></trkpt><trkpt lat="44.84523892155408" lon="11.777887909270573"><ele>3.0</ele><time>2026-03-22T12:32:51.991Z</time></trkpt><trkpt lat="44.845315818976395" lon="11.777572879237312"><ele>3.0</ele><time>2026-03-22T12:32:52.991Z</time></trkpt><trkpt lat="44.845376845049586" lon="11.777241066703892"><ele>3.0</ele><time>2026-03-22T12:32:53.991Z</time></trkpt><trkpt lat="44.84547614205508" lon="11.776921964501328"><ele>3.0</ele><time>2026-03-22T12:32:54.991Z</time></trkpt><trkpt lat="44.84557336956754" lon="11.77660537472734"><ele>3.0</ele><time>2026-03-22T12:32:55.991Z</time></trkpt><trkpt lat="44.845677752589616" lon="11.776301875531985"><ele>3.0</ele><time>2026-03-22T12:32:56.991Z</time></trkpt><trkpt lat="44.84578557750292" lon="11.775995418645481"><ele>3.0</ele><time>2026-03-22T12:32:57.991Z</time></trkpt><trkpt lat="44.84589611338192" lon="11.77570881536715"><ele>3.0</ele><time>2026-03-22T12:32:58.991Z</time></trkpt><trkpt lat="44.84601204172524" lon="11.775454225328696"><ele>3.0</ele><time>2026-03-22T12:32:59.991Z</time></trkpt><trkpt lat="44.8461320844004" lon="11.775207989578943"><ele>3.0</ele><time>2026-03-22T12:33:00.991Z</time></trkpt><trkpt lat="44.846258383795664" lon="11.774975713041986"><ele>3.0</ele><time>2026-03-22T12:33:01.991Z</time></trkpt><trkpt lat="44.846379321897395" lon="11.774754280733418"><ele>3.0</ele><time>2026-03-22T12:33:02.991Z</time></trkpt><trkpt lat="44.84648796103566" lon="11.774534290382181"><ele>3.0</ele><time>2026-03-22T12:33:03.991Z</time></trkpt><trkpt lat="44.84659308983429" lon="11.774326555891124"><ele>3.0</ele><time>2026-03-22T12:33:04.991Z</time></trkpt><trkpt lat="44.84668993074679" lon="11.774119116695669"><ele>3.0</ele><time>2026-03-22T12:33:05.991Z</time></trkpt><trkpt lat="44.84678321784642" lon="11.773899282239865"><ele>3.0</ele><time>2026-03-22T12:33:06.991Z</time></trkpt><trkpt lat="44.84687270983886" lon="11.77368889376601"><ele>3.333333333333333</ele><time>2026-03-22T12:33:07.991Z</time></trkpt><trkpt lat="44.84696711789244" lon="11.773468989156074"><ele>3.6666666666666665</ele><time>2026-03-22T12:33:08.991Z</time></trkpt><trkpt lat="44.84706243124738" lon="11.773247960350725"><ele>4.0</ele><time>2026-03-22T12:33:09.991Z</time></trkpt><trkpt lat="44.847161086863686" lon="11.773024800869376"><ele>4.0</ele><time>2026-03-22T12:33:10.991Z</time></trkpt><trkpt lat="44.84725850147091" lon="11.77280556535465"><ele>4.0</ele><time>2026-03-22T12:33:11.991Z</time></trkpt><trkpt lat="44.84734753491695" lon="11.772579331079836"><ele>4.0</ele><time>2026-03-22T12:33:12.991Z</time></trkpt><trkpt lat="44.847437610819426" lon="11.7723483315629"><ele>4.0</ele><time>2026-03-22T12:33:13.991Z</time></trkpt><trkpt lat="44.84752899596769" lon="11.77211939195965"><ele>4.0</ele><time>2026-03-22T12:33:14.991Z</time></trkpt><trkpt lat="44.84762106115447" lon="11.771896519025084"><ele>4.0</ele><time>2026-03-22T12:33:15.991Z</time></trkpt><trkpt lat="44.84770952306848" lon="11.77167767293156"><ele>3.6666666666666665</ele><time>2026-03-22T12:33:16.991Z</time></trkpt><trkpt lat="44.84777884862481" lon="11.771461475630264"><ele>3.333333333333333</ele><time>2026-03-22T12:33:17.991Z</time></trkpt><trkpt lat="44.84783924256044" lon="11.77124524393921"><ele>3.0</ele><time>2026-03-22T12:33:18.991Z</time></trkpt><trkpt lat="44.847899100291926" lon="11.77103763337739"><ele>3.0</ele><time>2026-03-22T12:33:19.991Z</time></trkpt><trkpt lat="44.847965274820616" lon="11.770826501089116"><ele>3.0</ele><time>2026-03-22T12:33:20.991Z</time></trkpt><trkpt lat="44.84804635542736" lon="11.770616265462873"><ele>3.0</ele><time>2026-03-22T12:33:21.991Z</time></trkpt><trkpt lat="44.84813154787092" lon="11.77041130468047"><ele>3.0</ele><time>2026-03-22T12:33:22.991Z</time></trkpt><trkpt lat="44.84822182877522" lon="11.77020323277134"><ele>3.0</ele><time>2026-03-22T12:33:23.991Z</time></trkpt><trkpt lat="44.84831297564486" lon="11.770000890733739"><ele>3.0</ele><time>2026-03-22T12:33:24.991Z</time></trkpt><trkpt lat="44.84841589820499" lon="11.769815853258663"><ele>3.333333333333333</ele><time>2026-03-22T12:33:25.991Z</time></trkpt><trkpt lat="44.84851829274618" lon="11.769636144954532"><ele>3.6666666666666665</ele><time>2026-03-22T12:33:26.991Z</time></trkpt><trkpt lat="44.848626466973535" lon="11.769450639332252"><ele>4.0</ele><time>2026-03-22T12:33:27.991Z</time></trkpt><trkpt lat="44.84872865234836" lon="11.76926356315093"><ele>4.0</ele><time>2026-03-22T12:33:28.991Z</time></trkpt><trkpt lat="44.84882534125833" lon="11.769079035592501"><ele>4.0</ele><time>2026-03-22T12:33:29.991Z</time></trkpt><trkpt lat="44.848929785547796" lon="11.768891508987279"><ele>4.0</ele><time>2026-03-22T12:33:30.991Z</time></trkpt><trkpt lat="44.84902709321895" lon="11.76871360363586"><ele>4.0</ele><time>2026-03-22T12:33:31.991Z</time></trkpt><trkpt lat="44.84912933928292" lon="11.768538589212158"><ele>4.0</ele><time>2026-03-22T12:33:32.991Z</time></trkpt><trkpt lat="44.849229811816244" lon="11.76836525799993"><ele>4.0</ele><time>2026-03-22T12:33:33.991Z</time></trkpt><trkpt lat="44.84932860851296" lon="11.768185358887138"><ele>4.333333333333333</ele><time>2026-03-22T12:33:34.991Z</time></trkpt><trkpt lat="44.84942637735729" lon="11.767999570538592"><ele>4.666666666666667</ele><time>2026-03-22T12:33:35.991Z</time></trkpt><trkpt lat="44.849527070030966" lon="11.76781647184682"><ele>5.0</ele><time>2026-03-22T12:33:36.991Z</time></trkpt><trkpt lat="44.84962830822448" lon="11.767641889254113"><ele>5.666666666666667</ele><time>2026-03-22T12:33:37.991Z</time></trkpt><trkpt lat="44.8497311695645" lon="11.76747235715965"><ele>6.333333333333334</ele><time>2026-03-22T12:33:38.991Z</time></trkpt><trkpt lat="44.849825771997594" lon="11.767303187855315"><ele>7.0</ele><time>2026-03-22T12:33:39.991Z</time></trkpt><trkpt lat="44.84991694460514" lon="11.767134322694487"><ele>7.0</ele><time>2026-03-22T12:33:40.991Z</time></trkpt><trkpt lat="44.85000421232049" lon="11.766965476024673"><ele>7.0</ele><time>2026-03-22T12:33:41.991Z</time></trkpt><trkpt lat="44.85008161420499" lon="11.766805530866566"><ele>7.0</ele><time>2026-03-22T12:33:42.991Z</time></trkpt><trkpt lat="44.85015917493578" lon="11.766660272760243"><ele>7.0</ele><time>2026-03-22T12:33:43.991Z</time></trkpt><trkpt lat="44.8502496648441" lon="11.766527745282305"><ele>6.5</ele><time>2026-03-22T12:33:44.991Z</time></trkpt><trkpt lat="44.85035153028188" lon="11.766410310796154"><ele>6.0</ele><time>2026-03-22T12:33:45.991Z</time></trkpt><trkpt lat="44.85045724305343" lon="11.766311941815149"><ele>5.5</ele><time>2026-03-22T12:33:46.991Z</time></trkpt><trkpt lat="44.85057206905274" lon="11.76624295780554"><ele>5.0</ele><time>2026-03-22T12:33:47.991Z</time></trkpt><trkpt lat="44.85068683824044" lon="11.766204569193087"><ele>5.0</ele><time>2026-03-22T12:33:48.991Z</time></trkpt><trkpt lat="44.85079879255682" lon="11.76617688156186"><ele>5.0</ele><time>2026-03-22T12:33:49.991Z</time></trkpt><trkpt lat="44.85092264544745" lon="11.766148619085666"><ele>5.0</ele><time>2026-03-22T12:33:50.991Z</time></trkpt><trkpt lat="44.85104202515057" lon="11.76611802087987"><ele>5.0</ele><time>2026-03-22T12:33:51.991Z</time></trkpt><trkpt lat="44.85117339462329" lon="11.76607634884788"><ele>5.333333333333334</ele><time>2026-03-22T12:33:52.99Z</time></trkpt><trkpt lat="44.8513156250806" lon="11.766023102593364"><ele>5.666666666666667</ele><time>2026-03-22T12:33:53.99Z</time></trkpt><trkpt lat="44.851464409822306" lon="11.765929640229182"><ele>6.0</ele><time>2026-03-22T12:33:54.99Z</time></trkpt><trkpt lat="44.85161535843985" lon="11.765821361784024"><ele>6.0</ele><time>2026-03-22T12:33:55.99Z</time></trkpt><trkpt lat="44.85176923248018" lon="11.765722183328807"><ele>6.0</ele><time>2026-03-22T12:33:56.99Z</time></trkpt><trkpt lat="44.85196551830568" lon="11.765714251679032"><ele>6.0</ele><time>2026-03-22T12:33:57.99Z</time></trkpt><trkpt lat="44.852116431040685" lon="11.765602906743045"><ele>5.666666666666667</ele><time>2026-03-22T12:33:58.99Z</time></trkpt><trkpt lat="44.852260341260944" lon="11.765496847523574"><ele>5.333333333333334</ele><time>2026-03-22T12:33:59.99Z</time></trkpt><trkpt lat="44.852401787969264" lon="11.765400539862434"><ele>5.0</ele><time>2026-03-22T12:34:00.99Z</time></trkpt><trkpt lat="44.85254189486303" lon="11.765319595220454"><ele>5.0</ele><time>2026-03-22T12:34:01.99Z</time></trkpt><trkpt lat="44.852696370926246" lon="11.765246981156022"><ele>5.0</ele><time>2026-03-22T12:34:02.99Z</time></trkpt><trkpt lat="44.85286887391406" lon="11.765174388238652"><ele>5.0</ele><time>2026-03-22T12:34:03.99Z</time></trkpt><trkpt lat="44.85304164111165" lon="11.765103981298708"><ele>5.0</ele><time>2026-03-22T12:34:04.99Z</time></trkpt><trkpt lat="44.853220559017416" lon="11.765034465948881"><ele>5.0</ele><time>2026-03-22T12:34:05.99Z</time></trkpt><trkpt lat="44.853396299190365" lon="11.764966652725628"><ele>5.0</ele><time>2026-03-22T12:34:06.99Z</time></trkpt><trkpt lat="44.8535746562921" lon="11.76487668036852"><ele>4.333333333333334</ele><time>2026-03-22T12:34:07.99Z</time></trkpt><trkpt lat="44.85376152752707" lon="11.764825069678457"><ele>3.666666666666667</ele><time>2026-03-22T12:34:08.99Z</time></trkpt><trkpt lat="44.853940402235665" lon="11.764754178627784"><ele>3.0</ele><time>2026-03-22T12:34:09.99Z</time></trkpt><trkpt lat="44.85412625478282" lon="11.764689554314652"><ele>3.333333333333333</ele><time>2026-03-22T12:34:10.99Z</time></trkpt><trkpt lat="44.85430333777867" lon="11.764650469580216"><ele>3.6666666666666665</ele><time>2026-03-22T12:34:11.99Z</time></trkpt><trkpt lat="44.85448305163407" lon="11.764659824210671"><ele>4.0</ele><time>2026-03-22T12:34:12.99Z</time></trkpt><trkpt lat="44.854673221973734" lon="11.764686681759569"><ele>4.0</ele><time>2026-03-22T12:34:13.99Z</time></trkpt><trkpt lat="44.854865913040975" lon="11.76474480507373"><ele>4.0</ele><time>2026-03-22T12:34:14.99Z</time></trkpt><trkpt lat="44.85506024705759" lon="11.764810178105853"><ele>4.0</ele><time>2026-03-22T12:34:15.99Z</time></trkpt><trkpt lat="44.85526104655695" lon="11.764863209049514"><ele>4.333333333333333</ele><time>2026-03-22T12:34:16.99Z</time></trkpt><trkpt lat="44.855466038155065" lon="11.764917023942315"><ele>4.666666666666667</ele><time>2026-03-22T12:34:17.99Z</time></trkpt><trkpt lat="44.85567284812084" lon="11.764966228021258"><ele>5.0</ele><time>2026-03-22T12:34:18.99Z</time></trkpt><trkpt lat="44.855877103940564" lon="11.765009983804802"><ele>4.333333333333334</ele><time>2026-03-22T12:34:19.99Z</time></trkpt><trkpt lat="44.85607160065889" lon="11.765036097294669"><ele>3.666666666666667</ele><time>2026-03-22T12:34:20.99Z</time></trkpt><trkpt lat="44.856261527752594" lon="11.765021809225752"><ele>3.0</ele><time>2026-03-22T12:34:21.99Z</time></trkpt><trkpt lat="44.8564503598211" lon="11.764987096270506"><ele>3.0</ele><time>2026-03-22T12:34:22.99Z</time></trkpt><trkpt lat="44.85664785031826" lon="11.764910515211149"><ele>3.0</ele><time>2026-03-22T12:34:23.99Z</time></trkpt><trkpt lat="44.85684694471377" lon="11.764856038526872"><ele>3.0</ele><time>2026-03-22T12:34:24.99Z</time></trkpt><trkpt lat="44.85706918848092" lon="11.764762492685627"><ele>3.0</ele><time>2026-03-22T12:34:25.99Z</time></trkpt><trkpt lat="44.85727904033892" lon="11.764648709439351"><ele>3.0</ele><time>2026-03-22T12:34:26.99Z</time></trkpt><trkpt lat="44.85748985282174" lon="11.764526435368458"><ele>2.6666666666666665</ele><time>2026-03-22T12:34:27.99Z</time></trkpt><trkpt lat="44.85769257030366" lon="11.764406108911837"><ele>2.333333333333333</ele><time>2026-03-22T12:34:28.99Z</time></trkpt><trkpt lat="44.857886398393816" lon="11.764285952816337"><ele>2.0</ele><time>2026-03-22T12:34:29.99Z</time></trkpt><trkpt lat="44.85807269967766" lon="11.764155633156449"><ele>2.0</ele><time>2026-03-22T12:34:30.99Z</time></trkpt><trkpt lat="44.858250840503935" lon="11.764009506809177"><ele>2.0</ele><time>2026-03-22T12:34:31.99Z</time></trkpt><trkpt lat="44.858406513072026" lon="11.763861639752744"><ele>2.0</ele><time>2026-03-22T12:34:32.99Z</time></trkpt><trkpt lat="44.85854300142453" lon="11.763726299516271"><ele>2.0</ele><time>2026-03-22T12:34:33.99Z</time></trkpt><trkpt lat="44.85866922836079" lon="11.763601169655397"><ele>2.0</ele><time>2026-03-22T12:34:34.99Z</time></trkpt><trkpt lat="44.858790835759535" lon="11.763483282556713"><ele>2.0</ele><time>2026-03-22T12:34:35.99Z</time></trkpt><trkpt lat="44.8589057611382" lon="11.763371873048854"><ele>2.0</ele><time>2026-03-22T12:34:36.99Z</time></trkpt><trkpt lat="44.85901792741564" lon="11.763232448082926"><ele>2.0</ele><time>2026-03-22T12:34:37.99Z</time></trkpt><trkpt lat="44.85915623821995" lon="11.76309615806173"><ele>2.0</ele><time>2026-03-22T12:34:38.99Z</time></trkpt><trkpt lat="44.859301016113086" lon="11.762952061907074"><ele>2.0</ele><time>2026-03-22T12:34:39.99Z</time></trkpt><trkpt lat="44.85945576760963" lon="11.762797491305777"><ele>2.333333333333333</ele><time>2026-03-22T12:34:40.99Z</time></trkpt><trkpt lat="44.8596114500645" lon="11.762626206348363"><ele>2.6666666666666665</ele><time>2026-03-22T12:34:41.99Z</time></trkpt><trkpt lat="44.859767592298404" lon="11.762438740192447"><ele>3.0</ele><time>2026-03-22T12:34:42.99Z</time></trkpt><trkpt lat="44.859918254106745" lon="11.762225589160588"><ele>3.0</ele><time>2026-03-22T12:34:43.99Z</time></trkpt><trkpt lat="44.86006746933309" lon="11.761991113577277"><ele>3.0</ele><time>2026-03-22T12:34:44.99Z</time></trkpt><trkpt lat="44.86021064249895" lon="11.76174575651062"><ele>3.0</ele><time>2026-03-22T12:34:45.99Z</time></trkpt><trkpt lat="44.860347480793855" lon="11.761473012302481"><ele>3.0</ele><time>2026-03-22T12:34:46.99Z</time></trkpt><trkpt lat="44.8604629234568" lon="11.761199204924226"><ele>3.0</ele><time>2026-03-22T12:34:47.99Z</time></trkpt><trkpt lat="44.86055855275386" lon="11.760900366676278"><ele>3.0</ele><time>2026-03-22T12:34:48.99Z</time></trkpt><trkpt lat="44.86064658249072" lon="11.760583363282867"><ele>3.0</ele><time>2026-03-22T12:34:49.99Z</time></trkpt><trkpt lat="44.860718108888" lon="11.76024738955791"><ele>3.5</ele><time>2026-03-22T12:34:50.99Z</time></trkpt><trkpt lat="44.86077940018691" lon="11.759893387141984"><ele>4.0</ele><time>2026-03-22T12:34:51.99Z</time></trkpt><trkpt lat="44.860826364776024" lon="11.759541758242966"><ele>4.5</ele><time>2026-03-22T12:34:52.99Z</time></trkpt><trkpt lat="44.86087075432712" lon="11.7591973559066"><ele>5.0</ele><time>2026-03-22T12:34:53.99Z</time></trkpt><trkpt lat="44.86091751350307" lon="11.758853287209014"><ele>4.0</ele><time>2026-03-22T12:34:54.99Z</time></trkpt><trkpt lat="44.86096761039284" lon="11.758507938054352"><ele>3.0</ele><time>2026-03-22T12:34:55.99Z</time></trkpt><trkpt lat="44.8610149234842" lon="11.758162104020563"><ele>3.0</ele><time>2026-03-22T12:34:56.99Z</time></trkpt><trkpt lat="44.86106745987254" lon="11.757813019888376"><ele>3.0</ele><time>2026-03-22T12:34:57.99Z</time></trkpt><trkpt lat="44.86111943233274" lon="11.75747819774503"><ele>3.0</ele><time>2026-03-22T12:34:58.99Z</time></trkpt><trkpt lat="44.8611622298823" lon="11.75713297755168"><ele>3.0</ele><time>2026-03-22T12:34:59.99Z</time></trkpt><trkpt lat="44.86120179430914" lon="11.756807807779873"><ele>2.6666666666666665</ele><time>2026-03-22T12:35:00.99Z</time></trkpt><trkpt lat="44.86124026220379" lon="11.756496785549826"><ele>2.333333333333333</ele><time>2026-03-22T12:35:01.99Z</time></trkpt><trkpt lat="44.861275784306244" lon="11.756205093565086"><ele>2.0</ele><time>2026-03-22T12:35:02.99Z</time></trkpt><trkpt lat="44.86129642370605" lon="11.755920372957153"><ele>2.0</ele><time>2026-03-22T12:35:03.99Z</time></trkpt><trkpt lat="44.86129142592215" lon="11.755637537681933"><ele>2.0</ele><time>2026-03-22T12:35:04.99Z</time></trkpt><trkpt lat="44.86125464976482" lon="11.755347627951764"><ele>2.0</ele><time>2026-03-22T12:35:05.99Z</time></trkpt><trkpt lat="44.86120801071682" lon="11.755043924830181"><ele>2.0</ele><time>2026-03-22T12:35:06.99Z</time></trkpt><trkpt lat="44.86117241210976" lon="11.754733006205647"><ele>2.0</ele><time>2026-03-22T12:35:07.99Z</time></trkpt><trkpt lat="44.86110885010716" lon="11.754417412871428"><ele>2.0</ele><time>2026-03-22T12:35:08.99Z</time></trkpt><trkpt lat="44.86102675461367" lon="11.754102824537068"><ele>2.0</ele><time>2026-03-22T12:35:09.99Z</time></trkpt><trkpt lat="44.86094155348759" lon="11.753799311815529"><ele>5.0</ele><time>2026-03-22T12:35:10.99Z</time></trkpt><trkpt lat="44.860842559002315" lon="11.753501612240026"><ele>8.0</ele><time>2026-03-22T12:35:11.99Z</time></trkpt><trkpt lat="44.860742684450756" lon="11.753219189487504"><ele>8.0</ele><time>2026-03-22T12:35:12.989Z</time></trkpt><trkpt lat="44.86063923736962" lon="11.7529474101297"><ele>8.0</ele><time>2026-03-22T12:35:13.989Z</time></trkpt><trkpt lat="44.86052461220605" lon="11.752684142740922"><ele>8.0</ele><time>2026-03-22T12:35:14.989Z</time></trkpt><trkpt lat="44.860390489537735" lon="11.752423702607926"><ele>9.5</ele><time>2026-03-22T12:35:15.989Z</time></trkpt><trkpt lat="44.86024493190662" lon="11.752169931674617"><ele>11.0</ele><time>2026-03-22T12:35:16.989Z</time></trkpt><trkpt lat="44.860097862749925" lon="11.751915746872534"><ele>9.5</ele><time>2026-03-22T12:35:17.989Z</time></trkpt><trkpt lat="44.85993699750389" lon="11.751668287265476"><ele>8.0</ele><time>2026-03-22T12:35:18.989Z</time></trkpt><trkpt lat="44.85976654447183" lon="11.751433888476019"><ele>8.0</ele><time>2026-03-22T12:35:19.989Z</time></trkpt><trkpt lat="44.859586643752905" lon="11.751203060753857"><ele>8.0</ele><time>2026-03-22T12:35:20.989Z</time></trkpt><trkpt lat="44.8594015411152" lon="11.750973123590668"><ele>7.5</ele><time>2026-03-22T12:35:21.989Z</time></trkpt><trkpt lat="44.85921903494572" lon="11.75074894515207"><ele>7.0</ele><time>2026-03-22T12:35:22.989Z</time></trkpt><trkpt lat="44.859040344672835" lon="11.750530949663698"><ele>7.0</ele><time>2026-03-22T12:35:23.989Z</time></trkpt><trkpt lat="44.85886558387389" lon="11.750330153016185"><ele>7.0</ele><time>2026-03-22T12:35:24.989Z</time></trkpt><trkpt lat="44.85869936523839" lon="11.750138333384884"><ele>7.0</ele><time>2026-03-22T12:35:25.989Z</time></trkpt><trkpt lat="44.858525327826214" lon="11.749975010959693"><ele>6.0</ele><time>2026-03-22T12:35:26.989Z</time></trkpt><trkpt lat="44.85833452821863" lon="11.749826165530886"><ele>5.0</ele><time>2026-03-22T12:35:27.989Z</time></trkpt><trkpt lat="44.85812656969093" lon="11.749697443515641"><ele>4.0</ele><time>2026-03-22T12:35:28.989Z</time></trkpt><trkpt lat="44.857908531612196" lon="11.749575779336583"><ele>4.0</ele><time>2026-03-22T12:35:29.989Z</time></trkpt><trkpt lat="44.857685795897744" lon="11.749467592428676"><ele>4.0</ele><time>2026-03-22T12:35:30.989Z</time></trkpt><trkpt lat="44.857462236864954" lon="11.749368895852752"><ele>3.0</ele><time>2026-03-22T12:35:31.989Z</time></trkpt><trkpt lat="44.857240753327424" lon="11.749280082861215"><ele>2.0</ele><time>2026-03-22T12:35:32.989Z</time></trkpt><trkpt lat="44.85701589169454" lon="11.749204216585037"><ele>2.0</ele><time>2026-03-22T12:35:33.989Z</time></trkpt><trkpt lat="44.85678931603622" lon="11.749117598426977"><ele>2.0</ele><time>2026-03-22T12:35:34.989Z</time></trkpt><trkpt lat="44.85656629813176" lon="11.749046284766218"><ele>2.6666666666666665</ele><time>2026-03-22T12:35:35.989Z</time></trkpt><trkpt lat="44.85635223822987" lon="11.748998517204836"><ele>3.333333333333333</ele><time>2026-03-22T12:35:36.989Z</time></trkpt><trkpt lat="44.856147155421645" lon="11.748975308205399"><ele>4.0</ele><time>2026-03-22T12:35:37.989Z</time></trkpt><trkpt lat="44.85595195078217" lon="11.748978273876272"><ele>5.0</ele><time>2026-03-22T12:35:38.989Z</time></trkpt><trkpt lat="44.855762882010126" lon="11.749003730734188"><ele>6.0</ele><time>2026-03-22T12:35:39.989Z</time></trkpt><trkpt lat="44.85559579204894" lon="11.749036384659588"><ele>7.0</ele><time>2026-03-22T12:35:40.989Z</time></trkpt><trkpt lat="44.85543390396498" lon="11.749050833491383"><ele>7.0</ele><time>2026-03-22T12:35:41.989Z</time></trkpt><trkpt lat="44.8552890639522" lon="11.74903711738751"><ele>7.0</ele><time>2026-03-22T12:35:42.989Z</time></trkpt><trkpt lat="44.85514740384651" lon="11.748972461905257"><ele>7.0</ele><time>2026-03-22T12:35:43.989Z</time></trkpt><trkpt lat="44.85501323745322" lon="11.748849815422714"><ele>6.333333333333334</ele><time>2026-03-22T12:35:44.989Z</time></trkpt><trkpt lat="44.85485940691647" lon="11.74866776697109"><ele>5.666666666666667</ele><time>2026-03-22T12:35:45.989Z</time></trkpt><trkpt lat="44.8546946049158" lon="11.748479374255279"><ele>5.0</ele><time>2026-03-22T12:35:46.989Z</time></trkpt><trkpt lat="44.85451040068698" lon="11.74828034846827"><ele>4.0</ele><time>2026-03-22T12:35:47.989Z</time></trkpt><trkpt lat="44.85430957637772" lon="11.748062833104596"><ele>3.0</ele><time>2026-03-22T12:35:48.989Z</time></trkpt><trkpt lat="44.85410250328448" lon="11.747851408281143"><ele>3.0</ele><time>2026-03-22T12:35:49.989Z</time></trkpt><trkpt lat="44.85388951197364" lon="11.747625110159097"><ele>3.0</ele><time>2026-03-22T12:35:50.989Z</time></trkpt><trkpt lat="44.853663900832714" lon="11.747399700730483"><ele>3.0</ele><time>2026-03-22T12:35:51.989Z</time></trkpt><trkpt lat="44.853425354130444" lon="11.747163486385588"><ele>3.0</ele><time>2026-03-22T12:35:52.989Z</time></trkpt><trkpt lat="44.85318471480366" lon="11.74692574035904"><ele>3.5</ele><time>2026-03-22T12:35:53.989Z</time></trkpt><trkpt lat="44.8529450534947" lon="11.746690272897473"><ele>4.0</ele><time>2026-03-22T12:35:54.989Z</time></trkpt><trkpt lat="44.852702077347175" lon="11.746452088087455"><ele>4.0</ele><time>2026-03-22T12:35:55.989Z</time></trkpt><trkpt lat="44.85246564597609" lon="11.74623158715949"><ele>4.0</ele><time>2026-03-22T12:35:56.989Z</time></trkpt><trkpt lat="44.85223871970107" lon="11.746012806040092"><ele>4.0</ele><time>2026-03-22T12:35:57.989Z</time></trkpt><trkpt lat="44.85202253908051" lon="11.745804633653476"><ele>4.0</ele><time>2026-03-22T12:35:58.989Z</time></trkpt><trkpt lat="44.85182580954521" lon="11.745611556519822"><ele>3.6666666666666665</ele><time>2026-03-22T12:35:59.989Z</time></trkpt><trkpt lat="44.85164214193115" lon="11.745427294351552"><ele>3.333333333333333</ele><time>2026-03-22T12:36:00.989Z</time></trkpt><trkpt lat="44.85146817761933" lon="11.745260772247864"><ele>3.0</ele><time>2026-03-22T12:36:01.989Z</time></trkpt><trkpt lat="44.851301178120465" lon="11.74513695622883"><ele>3.0</ele><time>2026-03-22T12:36:02.989Z</time></trkpt><trkpt lat="44.85114133693832" lon="11.745047789257747"><ele>3.0</ele><time>2026-03-22T12:36:03.989Z</time></trkpt><trkpt lat="44.85096531348258" lon="11.744990680685243"><ele>3.0</ele><time>2026-03-22T12:36:04.989Z</time></trkpt><trkpt lat="44.850787097941016" lon="11.744932135442447"><ele>3.666666666666667</ele><time>2026-03-22T12:36:05.989Z</time></trkpt><trkpt lat="44.85060830987254" lon="11.744855580628908"><ele>4.333333333333334</ele><time>2026-03-22T12:36:06.989Z</time></trkpt><trkpt lat="44.850438777335256" lon="11.744749944869968"><ele>5.0</ele><time>2026-03-22T12:36:07.989Z</time></trkpt><trkpt lat="44.85026536923846" lon="11.744615850690318"><ele>4.666666666666667</ele><time>2026-03-22T12:36:08.989Z</time></trkpt><trkpt lat="44.850092953098866" lon="11.744468594000942"><ele>4.333333333333333</ele><time>2026-03-22T12:36:09.989Z</time></trkpt><trkpt lat="44.84992038673803" lon="11.744319893542375"><ele>4.0</ele><time>2026-03-22T12:36:10.989Z</time></trkpt><trkpt lat="44.849756273086996" lon="11.744167935876389"><ele>3.6666666666666665</ele><time>2026-03-22T12:36:11.989Z</time></trkpt><trkpt lat="44.849610632140404" lon="11.743997591412558"><ele>3.333333333333333</ele><time>2026-03-22T12:36:12.989Z</time></trkpt><trkpt lat="44.849466649806466" lon="11.743793957567647"><ele>3.0</ele><time>2026-03-22T12:36:13.989Z</time></trkpt><trkpt lat="44.84934047415601" lon="11.74357526767931"><ele>3.0</ele><time>2026-03-22T12:36:14.989Z</time></trkpt><trkpt lat="44.84922912693481" lon="11.74333669624733"><ele>3.0</ele><time>2026-03-22T12:36:15.989Z</time></trkpt><trkpt lat="44.849133232634095" lon="11.743081015564542"><ele>3.0</ele><time>2026-03-22T12:36:16.989Z</time></trkpt><trkpt lat="44.8490514415199" lon="11.742814102568076"><ele>3.0</ele><time>2026-03-22T12:36:17.989Z</time></trkpt><trkpt lat="44.848992190457636" lon="11.74254090972809"><ele>3.0</ele><time>2026-03-22T12:36:18.989Z</time></trkpt><trkpt lat="44.84893802198946" lon="11.742254190964973"><ele>3.0</ele><time>2026-03-22T12:36:19.989Z</time></trkpt><trkpt lat="44.84888373828615" lon="11.741980015326746"><ele>2.6666666666666665</ele><time>2026-03-22T12:36:20.989Z</time></trkpt><trkpt lat="44.84884289978356" lon="11.74170013075868"><ele>2.333333333333333</ele><time>2026-03-22T12:36:21.989Z</time></trkpt><trkpt lat="44.84881065384265" lon="11.741421530908026"><ele>2.0</ele><time>2026-03-22T12:36:22.989Z</time></trkpt><trkpt lat="44.84878457709082" lon="11.74112732465372"><ele>2.333333333333333</ele><time>2026-03-22T12:36:23.989Z</time></trkpt><trkpt lat="44.848762372073466" lon="11.740840333761222"><ele>2.6666666666666665</ele><time>2026-03-22T12:36:24.989Z</time></trkpt><trkpt lat="44.84874153122891" lon="11.740557791442363"><ele>3.0</ele><time>2026-03-22T12:36:25.989Z</time></trkpt><trkpt lat="44.84872932890336" lon="11.740278363307137"><ele>3.333333333333333</ele><time>2026-03-22T12:36:26.989Z</time></trkpt><trkpt lat="44.84871210192229" lon="11.740014591398847"><ele>3.6666666666666665</ele><time>2026-03-22T12:36:27.989Z</time></trkpt><trkpt lat="44.8486859952638" lon="11.739773409266727"><ele>4.0</ele><time>2026-03-22T12:36:28.989Z</time></trkpt><trkpt lat="44.84863564535759" lon="11.73953651484281"><ele>3.6666666666666665</ele><time>2026-03-22T12:36:29.989Z</time></trkpt><trkpt lat="44.84856482988732" lon="11.739305443493677"><ele>3.333333333333333</ele><time>2026-03-22T12:36:30.989Z</time></trkpt><trkpt lat="44.84849096835412" lon="11.739100134952134"><ele>3.0</ele><time>2026-03-22T12:36:31.989Z</time></trkpt><trkpt lat="44.84840894068832" lon="11.738904923583164"><ele>3.25</ele><time>2026-03-22T12:36:32.989Z</time></trkpt><trkpt lat="44.848348899703716" lon="11.738719943964703"><ele>3.5</ele><time>2026-03-22T12:36:33.988Z</time></trkpt><trkpt lat="44.84830470210611" lon="11.738544085936164"><ele>3.75</ele><time>2026-03-22T12:36:34.988Z</time></trkpt><trkpt lat="44.848283291818994" lon="11.738367050991146"><ele>4.0</ele><time>2026-03-22T12:36:35.988Z</time></trkpt><trkpt lat="44.84828576870026" lon="11.738180529030952"><ele>4.0</ele><time>2026-03-22T12:36:36.988Z</time></trkpt><trkpt lat="44.848319316853086" lon="11.737987065501121"><ele>4.0</ele><time>2026-03-22T12:36:37.988Z</time></trkpt><trkpt lat="44.8483605852799" lon="11.737760847123718"><ele>4.0</ele><time>2026-03-22T12:36:38.988Z</time></trkpt><trkpt lat="44.84840957062791" lon="11.7375078926009"><ele>3.6666666666666665</ele><time>2026-03-22T12:36:39.988Z</time></trkpt><trkpt lat="44.84846578432283" lon="11.737249811717826"><ele>3.333333333333333</ele><time>2026-03-22T12:36:40.988Z</time></trkpt><trkpt lat="44.84852167400043" lon="11.736976201520413"><ele>3.0</ele><time>2026-03-22T12:36:41.988Z</time></trkpt><trkpt lat="44.8485783077051" lon="11.736690790373906"><ele>3.0</ele><time>2026-03-22T12:36:42.988Z</time></trkpt><trkpt lat="44.84864723781129" lon="11.736397769803018"><ele>3.0</ele><time>2026-03-22T12:36:43.988Z</time></trkpt><trkpt lat="44.848718466077905" lon="11.736089328771532"><ele>3.0</ele><time>2026-03-22T12:36:44.988Z</time></trkpt><trkpt lat="44.84878796571423" lon="11.735769933142176"><ele>3.0</ele><time>2026-03-22T12:36:45.988Z</time></trkpt><trkpt lat="44.8488691997277" lon="11.735455202913627"><ele>3.0</ele><time>2026-03-22T12:36:46.988Z</time></trkpt><trkpt lat="44.84895462134078" lon="11.73513923044729"><ele>3.5</ele><time>2026-03-22T12:36:47.988Z</time></trkpt><trkpt lat="44.84903825124357" lon="11.734813369986519"><ele>4.0</ele><time>2026-03-22T12:36:48.988Z</time></trkpt><trkpt lat="44.84913092356426" lon="11.73449349017473"><ele>4.5</ele><time>2026-03-22T12:36:49.988Z</time></trkpt><trkpt lat="44.8492108020571" lon="11.73415906659921"><ele>5.0</ele><time>2026-03-22T12:36:50.988Z</time></trkpt><trkpt lat="44.849304301191445" lon="11.733830393759394"><ele>4.0</ele><time>2026-03-22T12:36:51.988Z</time></trkpt><trkpt lat="44.84941761663717" lon="11.733520644051916"><ele>3.0</ele><time>2026-03-22T12:36:52.988Z</time></trkpt><trkpt lat="44.84950605367111" lon="11.733212797456284"><ele>3.0</ele><time>2026-03-22T12:36:53.988Z</time></trkpt><trkpt lat="44.849572943502466" lon="11.732888122966258"><ele>3.0</ele><time>2026-03-22T12:36:54.988Z</time></trkpt><trkpt lat="44.84963852650789" lon="11.732567220769056"><ele>3.0</ele><time>2026-03-22T12:36:55.988Z</time></trkpt><trkpt lat="44.849695311482485" lon="11.732224247615514"><ele>3.0</ele><time>2026-03-22T12:36:56.988Z</time></trkpt><trkpt lat="44.84975485785689" lon="11.731879553997604"><ele>3.0</ele><time>2026-03-22T12:36:57.988Z</time></trkpt><trkpt lat="44.84980887623559" lon="11.731526083652001"><ele>3.0</ele><time>2026-03-22T12:36:58.988Z</time></trkpt><trkpt lat="44.84986259914922" lon="11.731166096613824"><ele>3.5</ele><time>2026-03-22T12:36:59.988Z</time></trkpt><trkpt lat="44.8499217088843" lon="11.730816300413979"><ele>4.0</ele><time>2026-03-22T12:37:00.988Z</time></trkpt><trkpt lat="44.84997367196446" lon="11.730473638044227"><ele>4.0</ele><time>2026-03-22T12:37:01.988Z</time></trkpt><trkpt lat="44.8500276211428" lon="11.73013541271748"><ele>4.0</ele><time>2026-03-22T12:37:02.988Z</time></trkpt><trkpt lat="44.85008032672763" lon="11.729800375358446"><ele>3.0</ele><time>2026-03-22T12:37:03.988Z</time></trkpt><trkpt lat="44.850130718604575" lon="11.729469180424786"><ele>2.0</ele><time>2026-03-22T12:37:04.988Z</time></trkpt><trkpt lat="44.850179752803" lon="11.729144324198039"><ele>2.0</ele><time>2026-03-22T12:37:05.988Z</time></trkpt><trkpt lat="44.85022357166914" lon="11.728809305014991"><ele>2.0</ele><time>2026-03-22T12:37:06.988Z</time></trkpt><trkpt lat="44.850265761739735" lon="11.72847101717341"><ele>2.5</ele><time>2026-03-22T12:37:07.988Z</time></trkpt><trkpt lat="44.850313230464366" lon="11.728143050352156"><ele>3.0</ele><time>2026-03-22T12:37:08.988Z</time></trkpt><trkpt lat="44.85036647894495" lon="11.727824380185085"><ele>2.5</ele><time>2026-03-22T12:37:09.988Z</time></trkpt><trkpt lat="44.85039631438025" lon="11.727483894827941"><ele>2.0</ele><time>2026-03-22T12:37:10.988Z</time></trkpt><trkpt lat="44.850412888853356" lon="11.727135987913876"><ele>2.5</ele><time>2026-03-22T12:37:11.988Z</time></trkpt><trkpt lat="44.8504208652267" lon="11.726787201265918"><ele>3.0</ele><time>2026-03-22T12:37:12.988Z</time></trkpt><trkpt lat="44.85042404932512" lon="11.72643728800587"><ele>3.0</ele><time>2026-03-22T12:37:13.988Z</time></trkpt><trkpt lat="44.850423712398644" lon="11.726102298139674"><ele>3.0</ele><time>2026-03-22T12:37:14.988Z</time></trkpt><trkpt lat="44.85041356323536" lon="11.725784697577181"><ele>2.6666666666666665</ele><time>2026-03-22T12:37:15.988Z</time></trkpt><trkpt lat="44.85040650446191" lon="11.725473352333584"><ele>2.333333333333333</ele><time>2026-03-22T12:37:16.988Z</time></trkpt><trkpt lat="44.85037200332916" lon="11.725165200667425"><ele>2.0</ele><time>2026-03-22T12:37:17.988Z</time></trkpt><trkpt lat="44.850329871513836" lon="11.724854629267133"><ele>2.0</ele><time>2026-03-22T12:37:18.988Z</time></trkpt><trkpt lat="44.85028138944899" lon="11.72454112823524"><ele>2.0</ele><time>2026-03-22T12:37:19.988Z</time></trkpt><trkpt lat="44.85021812749121" lon="11.724230430178885"><ele>2.6666666666666665</ele><time>2026-03-22T12:37:20.988Z</time></trkpt><trkpt lat="44.85013214416858" lon="11.723941268986243"><ele>3.333333333333333</ele><time>2026-03-22T12:37:21.988Z</time></trkpt><trkpt lat="44.8500401799805" lon="11.723661980606146"><ele>4.0</ele><time>2026-03-22T12:37:22.988Z</time></trkpt><trkpt lat="44.849952878958234" lon="11.723372986337179"><ele>5.5</ele><time>2026-03-22T12:37:23.988Z</time></trkpt><trkpt lat="44.84986837946238" lon="11.72308105005245"><ele>7.0</ele><time>2026-03-22T12:37:24.988Z</time></trkpt><trkpt lat="44.849737288383146" lon="11.72281151240007"><ele>6.666666666666667</ele><time>2026-03-22T12:37:25.988Z</time></trkpt><trkpt lat="44.84963524664386" lon="11.722527083415484"><ele>6.333333333333334</ele><time>2026-03-22T12:37:26.988Z</time></trkpt><trkpt lat="44.849529043086555" lon="11.722253464866014"><ele>6.0</ele><time>2026-03-22T12:37:27.988Z</time></trkpt><trkpt lat="44.84942434939914" lon="11.722006026696262"><ele>6.333333333333334</ele><time>2026-03-22T12:37:28.988Z</time></trkpt><trkpt lat="44.849328830682715" lon="11.72178811306349"><ele>6.666666666666667</ele><time>2026-03-22T12:37:29.988Z</time></trkpt><trkpt lat="44.84924110558704" lon="11.721592356360576"><ele>7.0</ele><time>2026-03-22T12:37:30.988Z</time></trkpt><trkpt lat="44.849168208958886" lon="11.721426902105732"><ele>7.199999999999999</ele><time>2026-03-22T12:37:31.988Z</time></trkpt><trkpt lat="44.84910587442634" lon="11.721299236929589"><ele>7.3999999999999995</ele><time>2026-03-22T12:37:32.988Z</time></trkpt><trkpt lat="44.849068458222035" lon="11.721213667140544"><ele>7.6000000000000005</ele><time>2026-03-22T12:37:33.988Z</time></trkpt><trkpt lat="44.84901565169279" lon="11.721098420565223"><ele>7.800000000000001</ele><time>2026-03-22T12:37:35.988Z</time></trkpt><trkpt lat="44.84892090177311" lon="11.720948476332238"><ele>8.0</ele><time>2026-03-22T12:37:37.988Z</time></trkpt><trkpt lat="44.848854381946374" lon="11.720838582146975"><ele>7.5</ele><time>2026-03-22T12:37:38.988Z</time></trkpt><trkpt lat="44.84878133753238" lon="11.720687251576264"><ele>7.0</ele><time>2026-03-22T12:37:39.988Z</time></trkpt><trkpt lat="44.84871374397777" lon="11.720520362408639"><ele>6.5</ele><time>2026-03-22T12:37:40.988Z</time></trkpt><trkpt lat="44.84863640526757" lon="11.720348126922222"><ele>6.0</ele><time>2026-03-22T12:37:41.988Z</time></trkpt><trkpt lat="44.8485390644285" lon="11.720190102930914"><ele>5.5</ele><time>2026-03-22T12:37:42.988Z</time></trkpt><trkpt lat="44.84844060848404" lon="11.72004315744896"><ele>5.0</ele><time>2026-03-22T12:37:43.988Z</time></trkpt><trkpt lat="44.848349517892885" lon="11.719909753008444"><ele>4.5</ele><time>2026-03-22T12:37:44.988Z</time></trkpt><trkpt lat="44.84827145596366" lon="11.71978108521355"><ele>4.0</ele><time>2026-03-22T12:37:45.988Z</time></trkpt><trkpt lat="44.848194677269234" lon="11.7196518079666"><ele>4.0</ele><time>2026-03-22T12:37:46.988Z</time></trkpt><trkpt lat="44.8481237184205" lon="11.71951660835627"><ele>4.0</ele><time>2026-03-22T12:37:47.988Z</time></trkpt><trkpt lat="44.84806430837185" lon="11.71938738714682"><ele>4.0</ele><time>2026-03-22T12:37:48.988Z</time></trkpt><trkpt lat="44.84800557055748" lon="11.719275286086832"><ele>4.0</ele><time>2026-03-22T12:37:49.988Z</time></trkpt><trkpt lat="44.84795742855444" lon="11.719171674917906"><ele>4.0</ele><time>2026-03-22T12:37:50.988Z</time></trkpt><trkpt lat="44.84793276339217" lon="11.71907372054007"><ele>3.9999999999999996</ele><time>2026-03-22T12:37:51.988Z</time></trkpt><trkpt lat="44.84792661052667" lon="11.718973708730363"><ele>4.0</ele><time>2026-03-22T12:37:52.988Z</time></trkpt><trkpt lat="44.84792636062535" lon="11.718863381224969"><ele>4.0</ele><time>2026-03-22T12:37:53.987Z</time></trkpt><trkpt lat="44.847940414439044" lon="11.718753053618393"><ele>4.0</ele><time>2026-03-22T12:37:54.987Z</time></trkpt><trkpt lat="44.847970394461015" lon="11.718628539285582"><ele>3.9999999999999996</ele><time>2026-03-22T12:37:55.987Z</time></trkpt><trkpt lat="44.848033690373086" lon="11.718525070598773"><ele>4.0</ele><time>2026-03-22T12:37:56.987Z</time></trkpt><trkpt lat="44.848128664312284" lon="11.71842602687004"><ele>4.0</ele><time>2026-03-22T12:37:57.987Z</time></trkpt><trkpt lat="44.84824971850922" lon="11.718328976377496"><ele>4.0</ele><time>2026-03-22T12:37:58.987Z</time></trkpt><trkpt lat="44.84838631666205" lon="11.718232448154628"><ele>4.0</ele><time>2026-03-22T12:37:59.987Z</time></trkpt><trkpt lat="44.848532291723366" lon="11.718122043184882"><ele>3.333333333333333</ele><time>2026-03-22T12:38:00.987Z</time></trkpt><trkpt lat="44.848686658176916" lon="11.717990723788592"><ele>2.6666666666666665</ele><time>2026-03-22T12:38:01.987Z</time></trkpt><trkpt lat="44.84884292189751" lon="11.717812081679254"><ele>2.0</ele><time>2026-03-22T12:38:02.987Z</time></trkpt><trkpt lat="44.84899289135112" lon="11.717609978219464"><ele>2.0</ele><time>2026-03-22T12:38:03.987Z</time></trkpt><trkpt lat="44.84913878651783" lon="11.71738551894503"><ele>2.0</ele><time>2026-03-22T12:38:04.987Z</time></trkpt><trkpt lat="44.84929333713129" lon="11.717163428247886"><ele>2.0</ele><time>2026-03-22T12:38:05.987Z</time></trkpt><trkpt lat="44.8494553612232" lon="11.716917061724718"><ele>2.0</ele><time>2026-03-22T12:38:06.987Z</time></trkpt><trkpt lat="44.849624204715234" lon="11.716661695775528"><ele>2.0</ele><time>2026-03-22T12:38:07.987Z</time></trkpt><trkpt lat="44.84978891750583" lon="11.716403101911052"><ele>2.0</ele><time>2026-03-22T12:38:08.987Z</time></trkpt><trkpt lat="44.8499548049659" lon="11.716145420891205"><ele>2.0</ele><time>2026-03-22T12:38:09.987Z</time></trkpt><trkpt lat="44.850115815385266" lon="11.715889789792138"><ele>2.0</ele><time>2026-03-22T12:38:10.987Z</time></trkpt><trkpt lat="44.850265508126256" lon="11.715657773041862"><ele>2.0</ele><time>2026-03-22T12:38:11.987Z</time></trkpt><trkpt lat="44.85040044653996" lon="11.715442310889786"><ele>2.0</ele><time>2026-03-22T12:38:12.987Z</time></trkpt><trkpt lat="44.850532648939065" lon="11.71524018327105"><ele>2.0</ele><time>2026-03-22T12:38:13.987Z</time></trkpt><trkpt lat="44.850657142164074" lon="11.715051281907158"><ele>2.0</ele><time>2026-03-22T12:38:14.987Z</time></trkpt><trkpt lat="44.85075692173774" lon="11.714879868003036"><ele>2.0</ele><time>2026-03-22T12:38:15.987Z</time></trkpt><trkpt lat="44.85086261400582" lon="11.714733945205142"><ele>2.0</ele><time>2026-03-22T12:38:16.987Z</time></trkpt><trkpt lat="44.850966020151965" lon="11.71460895757812"><ele>2.0</ele><time>2026-03-22T12:38:17.987Z</time></trkpt><trkpt lat="44.85106821188607" lon="11.714506454570612"><ele>2.0</ele><time>2026-03-22T12:38:18.987Z</time></trkpt><trkpt lat="44.851167009841625" lon="11.714444917242627"><ele>2.0</ele><time>2026-03-22T12:38:19.987Z</time></trkpt><trkpt lat="44.85125791281221" lon="11.714385900302352"><ele>2.0</ele><time>2026-03-22T12:38:20.987Z</time></trkpt><trkpt lat="44.851342818012085" lon="11.714358541790627"><ele>2.0</ele><time>2026-03-22T12:38:21.987Z</time></trkpt><trkpt lat="44.8514240626732" lon="11.714343162632943"><ele>2.0</ele><time>2026-03-22T12:38:22.987Z</time></trkpt><trkpt lat="44.85150546080116" lon="11.714333273757127"><ele>2.0</ele><time>2026-03-22T12:38:23.987Z</time></trkpt><trkpt lat="44.851604624873154" lon="11.714330168990637"><ele>2.0</ele><time>2026-03-22T12:38:24.987Z</time></trkpt><trkpt lat="44.8517119653176" lon="11.714290785578433"><ele>2.333333333333333</ele><time>2026-03-22T12:38:25.987Z</time></trkpt><trkpt lat="44.85184148585553" lon="11.714234043852668"><ele>2.6666666666666665</ele><time>2026-03-22T12:38:26.987Z</time></trkpt><trkpt lat="44.85198273115393" lon="11.714186854087707"><ele>3.0</ele><time>2026-03-22T12:38:27.987Z</time></trkpt><trkpt lat="44.85214897743864" lon="11.714140406677323"><ele>3.0</ele><time>2026-03-22T12:38:28.987Z</time></trkpt><trkpt lat="44.85234167116517" lon="11.714126839811703"><ele>3.0</ele><time>2026-03-22T12:38:29.987Z</time></trkpt><trkpt lat="44.85253755683505" lon="11.714078144289386"><ele>3.0</ele><time>2026-03-22T12:38:30.987Z</time></trkpt><trkpt lat="44.852750890944236" lon="11.714025215755665"><ele>2.5</ele><time>2026-03-22T12:38:31.987Z</time></trkpt><trkpt lat="44.85297846881779" lon="11.713969481966476"><ele>2.0</ele><time>2026-03-22T12:38:32.987Z</time></trkpt><trkpt lat="44.85320928663397" lon="11.713912954714983"><ele>2.0</ele><time>2026-03-22T12:38:33.987Z</time></trkpt><trkpt lat="44.85344640072046" lon="11.713854885507267"><ele>2.0</ele><time>2026-03-22T12:38:34.987Z</time></trkpt><trkpt lat="44.85368591637697" lon="11.71379622815663"><ele>1.5</ele><time>2026-03-22T12:38:35.987Z</time></trkpt><trkpt lat="44.85393282326911" lon="11.713734856314975"><ele>1.0</ele><time>2026-03-22T12:38:36.987Z</time></trkpt><trkpt lat="44.85418437455679" lon="11.713671837869864"><ele>1.5</ele><time>2026-03-22T12:38:37.987Z</time></trkpt><trkpt lat="44.854438343800346" lon="11.713608408431025"><ele>2.0</ele><time>2026-03-22T12:38:38.987Z</time></trkpt><trkpt lat="44.8546946847799" lon="11.71354488662538"><ele>1.5</ele><time>2026-03-22T12:38:39.987Z</time></trkpt><trkpt lat="44.85495023440846" lon="11.713481923519229"><ele>1.0</ele><time>2026-03-22T12:38:40.987Z</time></trkpt><trkpt lat="44.85519958496513" lon="11.713420487759818"><ele>1.0</ele><time>2026-03-22T12:38:41.987Z</time></trkpt><trkpt lat="44.85544754627971" lon="11.71333747975467"><ele>1.0</ele><time>2026-03-22T12:38:42.987Z</time></trkpt><trkpt lat="44.855702192774324" lon="11.713274581976776"><ele>1.0</ele><time>2026-03-22T12:38:43.987Z</time></trkpt><trkpt lat="44.855950438207536" lon="11.7132153771902"><ele>1.0</ele><time>2026-03-22T12:38:44.987Z</time></trkpt><trkpt lat="44.856195805134355" lon="11.713156349484459"><ele>1.0</ele><time>2026-03-22T12:38:45.987Z</time></trkpt><trkpt lat="44.85643113952762" lon="11.713097918667204"><ele>1.0</ele><time>2026-03-22T12:38:46.987Z</time></trkpt><trkpt lat="44.856654204328855" lon="11.713045641749071"><ele>1.3333333333333333</ele><time>2026-03-22T12:38:47.987Z</time></trkpt><trkpt lat="44.856858940736146" lon="11.712994956140395"><ele>1.6666666666666665</ele><time>2026-03-22T12:38:48.987Z</time></trkpt><trkpt lat="44.85703892999085" lon="11.712953342335716"><ele>2.0</ele><time>2026-03-22T12:38:49.987Z</time></trkpt><trkpt lat="44.85720188397606" lon="11.71293027612934"><ele>2.0</ele><time>2026-03-22T12:38:50.987Z</time></trkpt><trkpt lat="44.85734620497678" lon="11.712934058978677"><ele>2.0</ele><time>2026-03-22T12:38:51.987Z</time></trkpt><trkpt lat="44.857474548333684" lon="11.712957307117462"><ele>2.0</ele><time>2026-03-22T12:38:52.987Z</time></trkpt><trkpt lat="44.85759228590807" lon="11.712999697251796"><ele>2.0</ele><time>2026-03-22T12:38:53.987Z</time></trkpt><trkpt lat="44.85767830796415" lon="11.71304962102729"><ele>1.9999999999999998</ele><time>2026-03-22T12:38:54.987Z</time></trkpt><trkpt lat="44.85773686830043" lon="11.713102484728504"><ele>2.0</ele><time>2026-03-22T12:38:55.987Z</time></trkpt><trkpt lat="44.85782473794542" lon="11.713218283456762"><ele>2.0</ele><time>2026-03-22T12:38:57.987Z</time></trkpt><trkpt lat="44.85787552688603" lon="11.71329858846191"><ele>2.0</ele><time>2026-03-22T12:38:58.987Z</time></trkpt><trkpt lat="44.85792352466177" lon="11.713391065809002"><ele>1.9999999999999998</ele><time>2026-03-22T12:38:59.987Z</time></trkpt><trkpt lat="44.85798269096898" lon="11.713464365928106"><ele>2.0</ele><time>2026-03-22T12:39:00.987Z</time></trkpt><trkpt lat="44.85805054105885" lon="11.713497617140995"><ele>2.0</ele><time>2026-03-22T12:39:01.987Z</time></trkpt><trkpt lat="44.85812920767517" lon="11.713485860804083"><ele>2.0</ele><time>2026-03-22T12:39:02.987Z</time></trkpt><trkpt lat="44.85820890450281" lon="11.713428239860987"><ele>2.0</ele><time>2026-03-22T12:39:03.987Z</time></trkpt><trkpt lat="44.858280452314375" lon="11.713299664707884"><ele>2.0</ele><time>2026-03-22T12:39:04.987Z</time></trkpt><trkpt lat="44.85839673278932" lon="11.713183874718018"><ele>2.0</ele><time>2026-03-22T12:39:05.987Z</time></trkpt><trkpt lat="44.858516743142225" lon="11.713044115223767"><ele>2.333333333333333</ele><time>2026-03-22T12:39:06.987Z</time></trkpt><trkpt lat="44.858641218268346" lon="11.712906303755886"><ele>2.6666666666666665</ele><time>2026-03-22T12:39:07.987Z</time></trkpt><trkpt lat="44.85878015955963" lon="11.712760844637204"><ele>3.0</ele><time>2026-03-22T12:39:08.987Z</time></trkpt><trkpt lat="44.85892856681071" lon="11.712590030145352"><ele>3.0</ele><time>2026-03-22T12:39:09.987Z</time></trkpt><trkpt lat="44.859081122584264" lon="11.712413525052177"><ele>3.0</ele><time>2026-03-22T12:39:10.987Z</time></trkpt><trkpt lat="44.85924898287788" lon="11.712225697357757"><ele>3.0</ele><time>2026-03-22T12:39:11.987Z</time></trkpt><trkpt lat="44.85943083645505" lon="11.712041588904297"><ele>3.0</ele><time>2026-03-22T12:39:12.987Z</time></trkpt><trkpt lat="44.85962620339426" lon="11.711858130737683"><ele>3.0</ele><time>2026-03-22T12:39:13.987Z</time></trkpt><trkpt lat="44.85983452748566" lon="11.711675990245228"><ele>3.0</ele><time>2026-03-22T12:39:14.986Z</time></trkpt><trkpt lat="44.8600573780569" lon="11.711503824162829"><ele>3.0</ele><time>2026-03-22T12:39:15.986Z</time></trkpt><trkpt lat="44.86029369693801" lon="11.711348795894871"><ele>3.0</ele><time>2026-03-22T12:39:16.986Z</time></trkpt><trkpt lat="44.86053683927714" lon="11.71119966012189"><ele>3.0</ele><time>2026-03-22T12:39:17.986Z</time></trkpt><trkpt lat="44.86077983473166" lon="11.711045282595546"><ele>3.0</ele><time>2026-03-22T12:39:18.986Z</time></trkpt><trkpt lat="44.86102724819281" lon="11.710897126551304"><ele>3.0</ele><time>2026-03-22T12:39:19.986Z</time></trkpt><trkpt lat="44.86127158951837" lon="11.710749022638982"><ele>3.0</ele><time>2026-03-22T12:39:20.986Z</time></trkpt><trkpt lat="44.861511976673086" lon="11.710610070557339"><ele>3.0</ele><time>2026-03-22T12:39:21.986Z</time></trkpt><trkpt lat="44.861745047749764" lon="11.710473146775678"><ele>3.0</ele><time>2026-03-22T12:39:22.986Z</time></trkpt><trkpt lat="44.8619727221353" lon="11.710343256680323"><ele>3.0</ele><time>2026-03-22T12:39:23.986Z</time></trkpt><trkpt lat="44.862197527045815" lon="11.710215583797606"><ele>3.0</ele><time>2026-03-22T12:39:24.986Z</time></trkpt><trkpt lat="44.8624121322074" lon="11.710098622691266"><ele>3.0</ele><time>2026-03-22T12:39:25.986Z</time></trkpt><trkpt lat="44.862623228538915" lon="11.709989634107101"><ele>2.6666666666666665</ele><time>2026-03-22T12:39:26.986Z</time></trkpt><trkpt lat="44.86282737911904" lon="11.709879617390154"><ele>2.333333333333333</ele><time>2026-03-22T12:39:27.986Z</time></trkpt><trkpt lat="44.86303116757584" lon="11.709790263597961"><ele>2.0</ele><time>2026-03-22T12:39:28.986Z</time></trkpt><trkpt lat="44.86323861860851" lon="11.709717980603704"><ele>2.333333333333333</ele><time>2026-03-22T12:39:29.986Z</time></trkpt><trkpt lat="44.86345082148958" lon="11.709677300579655"><ele>2.6666666666666665</ele><time>2026-03-22T12:39:30.986Z</time></trkpt><trkpt lat="44.863669009872304" lon="11.709680540038766"><ele>3.0</ele><time>2026-03-22T12:39:31.986Z</time></trkpt><trkpt lat="44.86389185112396" lon="11.709724685371667"><ele>3.0</ele><time>2026-03-22T12:39:32.986Z</time></trkpt><trkpt lat="44.864123677560585" lon="11.709786815861426"><ele>3.0</ele><time>2026-03-22T12:39:33.986Z</time></trkpt><trkpt lat="44.8643593666869" lon="11.709853695604876"><ele>3.0</ele><time>2026-03-22T12:39:34.986Z</time></trkpt><trkpt lat="44.864599804469755" lon="11.709913640988994"><ele>3.0</ele><time>2026-03-22T12:39:35.986Z</time></trkpt><trkpt lat="44.86483950787335" lon="11.70998052384851"><ele>3.0</ele><time>2026-03-22T12:39:36.986Z</time></trkpt><trkpt lat="44.86507370466046" lon="11.71003441015845"><ele>3.0</ele><time>2026-03-22T12:39:37.986Z</time></trkpt><trkpt lat="44.865305310124484" lon="11.710090272473597"><ele>2.0</ele><time>2026-03-22T12:39:38.986Z</time></trkpt><trkpt lat="44.86553476985421" lon="11.710142484220757"><ele>1.0</ele><time>2026-03-22T12:39:39.986Z</time></trkpt><trkpt lat="44.865763980378794" lon="11.710202400264691"><ele>3.0</ele><time>2026-03-22T12:39:40.986Z</time></trkpt><trkpt lat="44.86598936693978" lon="11.710252457585026"><ele>5.0</ele><time>2026-03-22T12:39:41.986Z</time></trkpt><trkpt lat="44.86621489037889" lon="11.710295178167502"><ele>5.0</ele><time>2026-03-22T12:39:42.986Z</time></trkpt><trkpt lat="44.8664389195944" lon="11.710342705103395"><ele>5.0</ele><time>2026-03-22T12:39:43.986Z</time></trkpt><trkpt lat="44.86666638086817" lon="11.710387498999461"><ele>4.666666666666667</ele><time>2026-03-22T12:39:44.986Z</time></trkpt><trkpt lat="44.866888514467654" lon="11.710427736298236"><ele>4.333333333333333</ele><time>2026-03-22T12:39:45.986Z</time></trkpt><trkpt lat="44.86710387797377" lon="11.710458239697816"><ele>4.0</ele><time>2026-03-22T12:39:46.986Z</time></trkpt><trkpt lat="44.86731090563377" lon="11.710498541842957"><ele>4.0</ele><time>2026-03-22T12:39:47.986Z</time></trkpt><trkpt lat="44.867503805303734" lon="11.710530119796456"><ele>4.0</ele><time>2026-03-22T12:39:48.986Z</time></trkpt><trkpt lat="44.86769015663071" lon="11.71056225163179"><ele>4.0</ele><time>2026-03-22T12:39:49.986Z</time></trkpt><trkpt lat="44.8678701086789" lon="11.710578019934177"><ele>3.333333333333333</ele><time>2026-03-22T12:39:50.986Z</time></trkpt><trkpt lat="44.868051248556256" lon="11.710575707569745"><ele>2.6666666666666665</ele><time>2026-03-22T12:39:51.986Z</time></trkpt><trkpt lat="44.86823614689959" lon="11.71056287693873"><ele>2.0</ele><time>2026-03-22T12:39:52.986Z</time></trkpt><trkpt lat="44.86842767377364" lon="11.71053045344278"><ele>1.6666666666666665</ele><time>2026-03-22T12:39:53.986Z</time></trkpt><trkpt lat="44.86862567845804" lon="11.7104806875093"><ele>1.3333333333333333</ele><time>2026-03-22T12:39:54.986Z</time></trkpt><trkpt lat="44.868819863579546" lon="11.710418201236045"><ele>1.0</ele><time>2026-03-22T12:39:55.986Z</time></trkpt><trkpt lat="44.8690093554957" lon="11.71033860366772"><ele>1.0</ele><time>2026-03-22T12:39:56.986Z</time></trkpt><trkpt lat="44.86918708766246" lon="11.710247152962292"><ele>1.0</ele><time>2026-03-22T12:39:57.986Z</time></trkpt><trkpt lat="44.86936245082216" lon="11.710144722739"><ele>1.0</ele><time>2026-03-22T12:39:58.986Z</time></trkpt><trkpt lat="44.869529616289746" lon="11.710042068040607"><ele>1.6666666666666665</ele><time>2026-03-22T12:39:59.986Z</time></trkpt><trkpt lat="44.869688059960836" lon="11.709950499702535"><ele>2.3333333333333335</ele><time>2026-03-22T12:40:00.986Z</time></trkpt><trkpt lat="44.86982663857301" lon="11.709872565080298"><ele>3.0</ele><time>2026-03-22T12:40:01.986Z</time></trkpt><trkpt lat="44.86995011915665" lon="11.709810997978378"><ele>3.0</ele><time>2026-03-22T12:40:02.986Z</time></trkpt><trkpt lat="44.870074328721614" lon="11.709747562795418"><ele>3.0</ele><time>2026-03-22T12:40:03.986Z</time></trkpt><trkpt lat="44.870169225771285" lon="11.709688491238362"><ele>3.0</ele><time>2026-03-22T12:40:04.986Z</time></trkpt><trkpt lat="44.87025154772503" lon="11.709635113031965"><ele>3.0</ele><time>2026-03-22T12:40:05.986Z</time></trkpt><trkpt lat="44.87032518056659" lon="11.709588198301526"><ele>3.0</ele><time>2026-03-22T12:40:06.986Z</time></trkpt><trkpt lat="44.87039100214115" lon="11.709538664483635"><ele>3.0</ele><time>2026-03-22T12:40:07.986Z</time></trkpt><trkpt lat="44.87045228994225" lon="11.70946660662815"><ele>3.0</ele><time>2026-03-22T12:40:08.986Z</time></trkpt><trkpt lat="44.87053562584801" lon="11.709430064200351"><ele>3.0</ele><time>2026-03-22T12:40:09.986Z</time></trkpt><trkpt lat="44.870606583362" lon="11.709373649377467"><ele>3.0</ele><time>2026-03-22T12:40:10.986Z</time></trkpt><trkpt lat="44.870683926944686" lon="11.709329944234796"><ele>3.0</ele><time>2026-03-22T12:40:11.986Z</time></trkpt><trkpt lat="44.870772515295045" lon="11.709360534631868"><ele>3.0</ele><time>2026-03-22T12:40:12.986Z</time></trkpt><trkpt lat="44.87084676843904" lon="11.70941932613978"><ele>3.0</ele><time>2026-03-22T12:40:13.986Z</time></trkpt><trkpt lat="44.870909428628075" lon="11.709512581917"><ele>3.0</ele><time>2026-03-22T12:40:14.986Z</time></trkpt><trkpt lat="44.87095708299063" lon="11.70964639153552"><ele>3.0</ele><time>2026-03-22T12:40:15.986Z</time></trkpt><trkpt lat="44.8709929547108" lon="11.709808774201594"><ele>3.0</ele><time>2026-03-22T12:40:16.986Z</time></trkpt><trkpt lat="44.87103083001998" lon="11.709962500051814"><ele>3.0</ele><time>2026-03-22T12:40:17.986Z</time></trkpt><trkpt lat="44.87105332422919" lon="11.710097767661985"><ele>3.4</ele><time>2026-03-22T12:40:18.986Z</time></trkpt><trkpt lat="44.87107794842708" lon="11.710198307405268"><ele>3.8</ele><time>2026-03-22T12:40:19.986Z</time></trkpt><trkpt lat="44.87112584189687" lon="11.710286359951825"><ele>4.2</ele><time>2026-03-22T12:40:21.986Z</time></trkpt><trkpt lat="44.87125566695382" lon="11.710255643475843"><ele>4.6</ele><time>2026-03-22T12:40:23.986Z</time></trkpt><trkpt lat="44.87134427409313" lon="11.710200603251735"><ele>5.0</ele><time>2026-03-22T12:40:24.986Z</time></trkpt><trkpt lat="44.87141374318813" lon="11.710098318620282"><ele>5.25</ele><time>2026-03-22T12:40:25.986Z</time></trkpt><trkpt lat="44.871446578048094" lon="11.709941823382902"><ele>5.5</ele><time>2026-03-22T12:40:26.986Z</time></trkpt><trkpt lat="44.87141323087184" lon="11.709785804130185"><ele>5.75</ele><time>2026-03-22T12:40:27.986Z</time></trkpt><trkpt lat="44.871400498108926" lon="11.70960058098255"><ele>6.0</ele><time>2026-03-22T12:40:28.986Z</time></trkpt><trkpt lat="44.8714069003643" lon="11.709396291190377"><ele>5.0</ele><time>2026-03-22T12:40:29.986Z</time></trkpt><trkpt lat="44.8714364964582" lon="11.709200237470318"><ele>4.0</ele><time>2026-03-22T12:40:30.986Z</time></trkpt><trkpt lat="44.87147470994311" lon="11.708994288235164"><ele>3.0</ele><time>2026-03-22T12:40:31.986Z</time></trkpt><trkpt lat="44.87151941376491" lon="11.708771472160654"><ele>2.6666666666666665</ele><time>2026-03-22T12:40:32.986Z</time></trkpt><trkpt lat="44.871552573949636" lon="11.708528629032745"><ele>2.333333333333333</ele><time>2026-03-22T12:40:33.986Z</time></trkpt><trkpt lat="44.871577857219194" lon="11.708263277636682"><ele>2.0</ele><time>2026-03-22T12:40:34.985Z</time></trkpt><trkpt lat="44.87160154931857" lon="11.70800584548706"><ele>2.0</ele><time>2026-03-22T12:40:35.985Z</time></trkpt><trkpt lat="44.871625113007156" lon="11.707743039322212"><ele>2.0</ele><time>2026-03-22T12:40:36.985Z</time></trkpt><trkpt lat="44.871647715970965" lon="11.707490948087727"><ele>2.0</ele><time>2026-03-22T12:40:37.985Z</time></trkpt><trkpt lat="44.87167010082789" lon="11.707249571113458"><ele>2.0</ele><time>2026-03-22T12:40:38.985Z</time></trkpt><trkpt lat="44.871691904549785" lon="11.7070225255583"><ele>2.0</ele><time>2026-03-22T12:40:39.985Z</time></trkpt><trkpt lat="44.87172077463993" lon="11.706812337347243"><ele>2.0</ele><time>2026-03-22T12:40:40.985Z</time></trkpt><trkpt lat="44.87176785661933" lon="11.706620347327894"><ele>2.0</ele><time>2026-03-22T12:40:41.985Z</time></trkpt><trkpt lat="44.871825773852756" lon="11.706440606353114"><ele>2.0</ele><time>2026-03-22T12:40:42.985Z</time></trkpt><trkpt lat="44.871884833285364" lon="11.706256208583511"><ele>2.0</ele><time>2026-03-22T12:40:43.985Z</time></trkpt><trkpt lat="44.87198305174994" lon="11.706101007957091"><ele>2.0</ele><time>2026-03-22T12:40:44.985Z</time></trkpt><trkpt lat="44.87210683958556" lon="11.705970003972299"><ele>2.0</ele><time>2026-03-22T12:40:45.985Z</time></trkpt><trkpt lat="44.872260984726815" lon="11.705895748877161"><ele>2.0</ele><time>2026-03-22T12:40:46.985Z</time></trkpt><trkpt lat="44.87242261625879" lon="11.705802793085656"><ele>2.0</ele><time>2026-03-22T12:40:47.985Z</time></trkpt><trkpt lat="44.87258044251725" lon="11.70569387328544"><ele>2.0</ele><time>2026-03-22T12:40:48.985Z</time></trkpt><trkpt lat="44.87274629729358" lon="11.705595955505174"><ele>2.0</ele><time>2026-03-22T12:40:49.985Z</time></trkpt><trkpt lat="44.87290892784199" lon="11.705495938490905"><ele>2.0</ele><time>2026-03-22T12:40:50.985Z</time></trkpt><trkpt lat="44.873068120668485" lon="11.705398362337561"><ele>2.0</ele><time>2026-03-22T12:40:51.985Z</time></trkpt><trkpt lat="44.87322384689716" lon="11.70530752504842"><ele>2.0</ele><time>2026-03-22T12:40:52.985Z</time></trkpt><trkpt lat="44.87337909873891" lon="11.70521683843505"><ele>2.0</ele><time>2026-03-22T12:40:53.985Z</time></trkpt><trkpt lat="44.87353535377189" lon="11.705156538882973"><ele>2.333333333333333</ele><time>2026-03-22T12:40:54.985Z</time></trkpt><trkpt lat="44.873694351123746" lon="11.705110820917614"><ele>2.6666666666666665</ele><time>2026-03-22T12:40:55.985Z</time></trkpt><trkpt lat="44.87386112048706" lon="11.705097504073873"><ele>3.0</ele><time>2026-03-22T12:40:56.985Z</time></trkpt><trkpt lat="44.87404614860694" lon="11.705086536762543"><ele>3.0</ele><time>2026-03-22T12:40:57.985Z</time></trkpt><trkpt lat="44.87423871856767" lon="11.705073988062864"><ele>3.0</ele><time>2026-03-22T12:40:58.985Z</time></trkpt><trkpt lat="44.874436389849464" lon="11.705061106900073"><ele>3.0</ele><time>2026-03-22T12:40:59.985Z</time></trkpt><trkpt lat="44.87464876250858" lon="11.70504883358409"><ele>3.0</ele><time>2026-03-22T12:41:00.985Z</time></trkpt><trkpt lat="44.87486497021361" lon="11.705037460155062"><ele>3.0</ele><time>2026-03-22T12:41:01.985Z</time></trkpt><trkpt lat="44.87508665976279" lon="11.705023762395149"><ele>3.0</ele><time>2026-03-22T12:41:02.985Z</time></trkpt><trkpt lat="44.87531351083366" lon="11.705009242551721"><ele>3.0</ele><time>2026-03-22T12:41:03.985Z</time></trkpt><trkpt lat="44.87553715407576" lon="11.704994928245497"><ele>3.0</ele><time>2026-03-22T12:41:04.985Z</time></trkpt><trkpt lat="44.875755626886225" lon="11.704979386539708"><ele>3.0</ele><time>2026-03-22T12:41:05.985Z</time></trkpt><trkpt lat="44.87597034065399" lon="11.704962290925454"><ele>3.0</ele><time>2026-03-22T12:41:06.985Z</time></trkpt><trkpt lat="44.876186789796044" lon="11.704918547495229"><ele>3.0</ele><time>2026-03-22T12:41:07.985Z</time></trkpt><trkpt lat="44.87640698113561" lon="11.704895391185183"><ele>3.0</ele><time>2026-03-22T12:41:08.985Z</time></trkpt><trkpt lat="44.876625007353596" lon="11.704871197712512"><ele>2.3333333333333335</ele><time>2026-03-22T12:41:09.985Z</time></trkpt><trkpt lat="44.87684440600263" lon="11.704849131972914"><ele>1.6666666666666665</ele><time>2026-03-22T12:41:10.985Z</time></trkpt><trkpt lat="44.8770676516294" lon="11.70484891259"><ele>1.0</ele><time>2026-03-22T12:41:11.985Z</time></trkpt><trkpt lat="44.87729422632022" lon="11.704838564850567"><ele>1.0</ele><time>2026-03-22T12:41:12.985Z</time></trkpt><trkpt lat="44.877525341476584" lon="11.704831760211205"><ele>1.0</ele><time>2026-03-22T12:41:13.985Z</time></trkpt><trkpt lat="44.87775279340444" lon="11.704820997988772"><ele>1.3333333333333333</ele><time>2026-03-22T12:41:14.985Z</time></trkpt><trkpt lat="44.87797766516133" lon="11.7048145151125"><ele>1.6666666666666665</ele><time>2026-03-22T12:41:15.985Z</time></trkpt><trkpt lat="44.87820207104651" lon="11.704806089330017"><ele>2.0</ele><time>2026-03-22T12:41:16.985Z</time></trkpt><trkpt lat="44.87842490662812" lon="11.704794096489076"><ele>1.6666666666666665</ele><time>2026-03-22T12:41:17.985Z</time></trkpt><trkpt lat="44.87864484256301" lon="11.704783925633704"><ele>1.3333333333333333</ele><time>2026-03-22T12:41:18.985Z</time></trkpt><trkpt lat="44.878861755469636" lon="11.704769557846681"><ele>1.0</ele><time>2026-03-22T12:41:19.985Z</time></trkpt><trkpt lat="44.879079450169186" lon="11.70475635947292"><ele>1.3333333333333333</ele><time>2026-03-22T12:41:20.985Z</time></trkpt><trkpt lat="44.879294251500255" lon="11.70474869309531"><ele>1.6666666666666665</ele><time>2026-03-22T12:41:21.985Z</time></trkpt><trkpt lat="44.879504954960254" lon="11.704735647265872"><ele>2.0</ele><time>2026-03-22T12:41:22.985Z</time></trkpt><trkpt lat="44.87970808176454" lon="11.70472962368893"><ele>2.0</ele><time>2026-03-22T12:41:23.985Z</time></trkpt><trkpt lat="44.87990931655448" lon="11.704718040402215"><ele>2.0</ele><time>2026-03-22T12:41:24.985Z</time></trkpt><trkpt lat="44.88010807219993" lon="11.704722913898085"><ele>2.0</ele><time>2026-03-22T12:41:25.985Z</time></trkpt><trkpt lat="44.88028160723524" lon="11.704720367717968"><ele>2.0</ele><time>2026-03-22T12:41:26.985Z</time></trkpt><trkpt lat="44.88044363552868" lon="11.704710257342379"><ele>2.0</ele><time>2026-03-22T12:41:27.985Z</time></trkpt><trkpt lat="44.88058987622168" lon="11.70470910955913"><ele>2.0</ele><time>2026-03-22T12:41:28.985Z</time></trkpt><trkpt lat="44.880719055556845" lon="11.704704864919165"><ele>2.0</ele><time>2026-03-22T12:41:29.985Z</time></trkpt><trkpt lat="44.88083388378327" lon="11.704706189117333"><ele>2.0</ele><time>2026-03-22T12:41:30.985Z</time></trkpt><trkpt lat="44.880936371159066" lon="11.704682983761455"><ele>2.0</ele><time>2026-03-22T12:41:31.985Z</time></trkpt><trkpt lat="44.88103491315816" lon="11.704644867237631"><ele>2.0</ele><time>2026-03-22T12:41:32.999Z</time></trkpt><trkpt lat="44.88111984705178" lon="11.704589974110764"><ele>2.0</ele><time>2026-03-22T12:41:33.999Z</time></trkpt><trkpt lat="44.8811943034323" lon="11.704486104739956"><ele>2.0</ele><time>2026-03-22T12:41:34.999Z</time></trkpt><trkpt lat="44.88126888617776" lon="11.704347737174222"><ele>2.0</ele><time>2026-03-22T12:41:35.999Z</time></trkpt><trkpt lat="44.881356015587826" lon="11.704166191898189"><ele>2.0</ele><time>2026-03-22T12:41:36.999Z</time></trkpt><trkpt lat="44.8814662880559" lon="11.703944288755372"><ele>2.0</ele><time>2026-03-22T12:41:37.999Z</time></trkpt><trkpt lat="44.88157711317499" lon="11.70372046981014"><ele>2.0</ele><time>2026-03-22T12:41:38.999Z</time></trkpt><trkpt lat="44.88168943254878" lon="11.703519618599229"><ele>2.0</ele><time>2026-03-22T12:41:39.999Z</time></trkpt><trkpt lat="44.88178792633419" lon="11.703316163708758"><ele>2.0</ele><time>2026-03-22T12:41:40.999Z</time></trkpt><trkpt lat="44.881874933623074" lon="11.703145266725889"><ele>1.75</ele><time>2026-03-22T12:41:41.999Z</time></trkpt><trkpt lat="44.88196259938425" lon="11.70300222144871"><ele>1.5</ele><time>2026-03-22T12:41:42.999Z</time></trkpt><trkpt lat="44.88203571833506" lon="11.70286530878898"><ele>1.25</ele><time>2026-03-22T12:41:43.999Z</time></trkpt><trkpt lat="44.882101457563024" lon="11.702718184501258"><ele>1.0</ele><time>2026-03-22T12:41:44.999Z</time></trkpt><trkpt lat="44.8821532824445" lon="11.702579266797988"><ele>0.8</ele><time>2026-03-22T12:41:45.999Z</time></trkpt><trkpt lat="44.882218329950994" lon="11.702452282234455"><ele>0.6000000000000001</ele><time>2026-03-22T12:41:46.999Z</time></trkpt><trkpt lat="44.88227285537909" lon="11.702345321571611"><ele>0.4</ele><time>2026-03-22T12:41:47.999Z</time></trkpt><trkpt lat="44.88231951880595" lon="11.70226484871702"><ele>0.2</ele><time>2026-03-22T12:41:48.999Z</time></trkpt><trkpt lat="44.882374372857434" lon="11.702201831490697"><ele>0.0</ele><time>2026-03-22T12:41:49.999Z</time></trkpt><trkpt lat="44.88249745483772" lon="11.702179066796957"><ele>0.0</ele><time>2026-03-22T12:41:51.999Z</time></trkpt><trkpt lat="44.88257133213842" lon="11.70226005510113"><ele>0.0</ele><time>2026-03-22T12:41:52.999Z</time></trkpt><trkpt lat="44.88268440471159" lon="11.702332822853249"><ele>0.0</ele><time>2026-03-22T12:41:53.999Z</time></trkpt><trkpt lat="44.8828334664371" lon="11.702465536212516"><ele>0.0</ele><time>2026-03-22T12:41:54.999Z</time></trkpt><trkpt lat="44.882985601472654" lon="11.702590371282168"><ele>0.0</ele><time>2026-03-22T12:41:55.999Z</time></trkpt><trkpt lat="44.88313996365078" lon="11.702735026302374"><ele>0.0</ele><time>2026-03-22T12:41:56.999Z</time></trkpt><trkpt lat="44.88329729653945" lon="11.702894705247637"><ele>0.0</ele><time>2026-03-22T12:41:57.999Z</time></trkpt><trkpt lat="44.88347135238809" lon="11.703036356658139"><ele>0.3333333333333333</ele><time>2026-03-22T12:41:58.999Z</time></trkpt><trkpt lat="44.883643186459345" lon="11.703179643410651"><ele>0.6666666666666666</ele><time>2026-03-22T12:41:59.999Z</time></trkpt><trkpt lat="44.88382003909246" lon="11.703338643687003"><ele>1.0</ele><time>2026-03-22T12:42:00.999Z</time></trkpt><trkpt lat="44.88400708085299" lon="11.703491297431155"><ele>1.0</ele><time>2026-03-22T12:42:01.999Z</time></trkpt><trkpt lat="44.88419065498637" lon="11.703644293793472"><ele>1.0</ele><time>2026-03-22T12:42:02.998Z</time></trkpt><trkpt lat="44.88437689105517" lon="11.703800525606127"><ele>1.0</ele><time>2026-03-22T12:42:03.998Z</time></trkpt><trkpt lat="44.88455524092446" lon="11.703954135758762"><ele>1.0</ele><time>2026-03-22T12:42:04.998Z</time></trkpt><trkpt lat="44.88472099321559" lon="11.704116326349727"><ele>1.0</ele><time>2026-03-22T12:42:05.998Z</time></trkpt><trkpt lat="44.884891134143786" lon="11.704281092116657"><ele>1.0</ele><time>2026-03-22T12:42:06.998Z</time></trkpt><trkpt lat="44.88507006365421" lon="11.704436467134625"><ele>0.3333333333333333</ele><time>2026-03-22T12:42:07.998Z</time></trkpt><trkpt lat="44.88522900743628" lon="11.704632659205004"><ele>-0.3333333333333333</ele><time>2026-03-22T12:42:08.998Z</time></trkpt><trkpt lat="44.88539323927603" lon="11.704837978986566"><ele>-1.0</ele><time>2026-03-22T12:42:09.998Z</time></trkpt><trkpt lat="44.88555100999769" lon="11.70505787654948"><ele>-0.3333333333333333</ele><time>2026-03-22T12:42:10.998Z</time></trkpt><trkpt lat="44.88571210007696" lon="11.705283729455513"><ele>0.3333333333333333</ele><time>2026-03-22T12:42:11.998Z</time></trkpt><trkpt lat="44.885864725668064" lon="11.705508363875028"><ele>1.0</ele><time>2026-03-22T12:42:12.998Z</time></trkpt><trkpt lat="44.88601433180849" lon="11.705738856189287"><ele>1.5</ele><time>2026-03-22T12:42:13.998Z</time></trkpt><trkpt lat="44.88617138816925" lon="11.70597855404566"><ele>2.0</ele><time>2026-03-22T12:42:14.998Z</time></trkpt><trkpt lat="44.88633233022374" lon="11.706230245708465"><ele>2.5</ele><time>2026-03-22T12:42:15.998Z</time></trkpt><trkpt lat="44.88650328939327" lon="11.706482011416096"><ele>3.0</ele><time>2026-03-22T12:42:16.998Z</time></trkpt><trkpt lat="44.886677628510704" lon="11.706736588308058"><ele>2.0</ele><time>2026-03-22T12:42:17.998Z</time></trkpt><trkpt lat="44.88685090255304" lon="11.706995245049878"><ele>1.0</ele><time>2026-03-22T12:42:19Z</time></trkpt><trkpt lat="44.88701942798749" lon="11.707251040039386"><ele>1.0</ele><time>2026-03-22T12:42:20Z</time></trkpt><trkpt lat="44.88719391379237" lon="11.707508654295653"><ele>1.0</ele><time>2026-03-22T12:42:21Z</time></trkpt><trkpt lat="44.887365853434474" lon="11.70775961068222"><ele>1.0</ele><time>2026-03-22T12:42:22Z</time></trkpt><trkpt lat="44.88753769835627" lon="11.708010917996177"><ele>1.0</ele><time>2026-03-22T12:42:23Z</time></trkpt><trkpt lat="44.8877063366653" lon="11.70826024703749"><ele>1.0</ele><time>2026-03-22T12:42:24Z</time></trkpt><trkpt lat="44.88787705966939" lon="11.708503236211257"><ele>1.0</ele><time>2026-03-22T12:42:25Z</time></trkpt><trkpt lat="44.88805275072464" lon="11.708760080452528"><ele>1.0</ele><time>2026-03-22T12:42:26Z</time></trkpt><trkpt lat="44.888227795429124" lon="11.70901649684868"><ele>1.0</ele><time>2026-03-22T12:42:27Z</time></trkpt><trkpt lat="44.88839695709466" lon="11.709277513307711"><ele>1.0</ele><time>2026-03-22T12:42:28.001Z</time></trkpt><trkpt lat="44.88856912938885" lon="11.709531453940913"><ele>1.0</ele><time>2026-03-22T12:42:29Z</time></trkpt><trkpt lat="44.88873878626326" lon="11.70979412428199"><ele>1.0</ele><time>2026-03-22T12:42:30Z</time></trkpt><trkpt lat="44.88890903439022" lon="11.710041606266737"><ele>1.0</ele><time>2026-03-22T12:42:31.001Z</time></trkpt><trkpt lat="44.889085402859244" lon="11.710290672912734"><ele>1.3333333333333333</ele><time>2026-03-22T12:42:32Z</time></trkpt><trkpt lat="44.889238070380515" lon="11.710521561309756"><ele>1.6666666666666665</ele><time>2026-03-22T12:42:33Z</time></trkpt><trkpt lat="44.88936251858523" lon="11.710702500050147"><ele>2.0</ele><time>2026-03-22T12:42:34Z</time></trkpt><trkpt lat="44.889453821335245" lon="11.710841039366914"><ele>2.0</ele><time>2026-03-22T12:42:35Z</time></trkpt><trkpt lat="44.8895171945256" lon="11.710939039660213"><ele>2.0</ele><time>2026-03-22T12:42:36Z</time></trkpt><trkpt lat="44.889603239370075" lon="11.711020270180462"><ele>2.0</ele><time>2026-03-22T12:42:38Z</time></trkpt><trkpt lat="44.889710095595646" lon="11.711019132661516"><ele>2.0</ele><time>2026-03-22T12:42:40Z</time></trkpt><trkpt lat="44.889786822638854" lon="11.71098682702684"><ele>2.0</ele><time>2026-03-22T12:42:41Z</time></trkpt><trkpt lat="44.88988162439891" lon="11.71099013615327"><ele>2.0</ele><time>2026-03-22T12:42:42Z</time></trkpt><trkpt lat="44.89000010735583" lon="11.710991004546749"><ele>2.0</ele><time>2026-03-22T12:42:43Z</time></trkpt><trkpt lat="44.890139957628584" lon="11.711000172685072"><ele>2.0</ele><time>2026-03-22T12:42:44Z</time></trkpt><trkpt lat="44.89029483489213" lon="11.7110053410407"><ele>2.0</ele><time>2026-03-22T12:42:45Z</time></trkpt><trkpt lat="44.890460791007555" lon="11.711011191688371"><ele>2.0</ele><time>2026-03-22T12:42:46Z</time></trkpt><trkpt lat="44.89064647476582" lon="11.711024056288215"><ele>2.0</ele><time>2026-03-22T12:42:47Z</time></trkpt><trkpt lat="44.890828908783945" lon="11.711024569812249"><ele>2.0</ele><time>2026-03-22T12:42:48Z</time></trkpt><trkpt lat="44.89102463860835" lon="11.711062786570118"><ele>2.333333333333333</ele><time>2026-03-22T12:42:49Z</time></trkpt><trkpt lat="44.891216687242114" lon="11.711078583238304"><ele>2.6666666666666665</ele><time>2026-03-22T12:42:50Z</time></trkpt><trkpt lat="44.89140987922872" lon="11.71109447396333"><ele>3.0</ele><time>2026-03-22T12:42:51Z</time></trkpt><trkpt lat="44.891613005253554" lon="11.71111118178488"><ele>2.6666666666666665</ele><time>2026-03-22T12:42:52Z</time></trkpt><trkpt lat="44.89181673865586" lon="11.711127939562536"><ele>2.333333333333333</ele><time>2026-03-22T12:42:53Z</time></trkpt><trkpt lat="44.89202177296774" lon="11.711144804359089"><ele>2.0</ele><time>2026-03-22T12:42:54Z</time></trkpt><trkpt lat="44.892233783868384" lon="11.711162242998459"><ele>2.0</ele><time>2026-03-22T12:42:55Z</time></trkpt><trkpt lat="44.892441105992894" lon="11.711179295967007"><ele>2.0</ele><time>2026-03-22T12:42:56Z</time></trkpt><trkpt lat="44.89265252096964" lon="11.711196685584039"><ele>2.0</ele><time>2026-03-22T12:42:57Z</time></trkpt><trkpt lat="44.89286751626574" lon="11.711214369700361"><ele>2.0</ele><time>2026-03-22T12:42:58Z</time></trkpt><trkpt lat="44.89308592641644" lon="11.71123222596847"><ele>2.0</ele><time>2026-03-22T12:42:59Z</time></trkpt><trkpt lat="44.89331157732417" lon="11.711250504512334"><ele>2.0</ele><time>2026-03-22T12:43:00Z</time></trkpt><trkpt lat="44.893534228467004" lon="11.71126854007051"><ele>2.0</ele><time>2026-03-22T12:43:01Z</time></trkpt><trkpt lat="44.89376264138244" lon="11.711287042343654"><ele>2.0</ele><time>2026-03-22T12:43:02Z</time></trkpt><trkpt lat="44.89398524170937" lon="11.711305073783347"><ele>2.0</ele><time>2026-03-22T12:43:03Z</time></trkpt><trkpt lat="44.894213343079635" lon="11.71132355082229"><ele>2.0</ele><time>2026-03-22T12:43:04Z</time></trkpt><trkpt lat="44.89444060799264" lon="11.711342176330572"><ele>2.0</ele><time>2026-03-22T12:43:05Z</time></trkpt><trkpt lat="44.89466581034285" lon="11.71136074237492"><ele>2.0</ele><time>2026-03-22T12:43:06Z</time></trkpt><trkpt lat="44.89489076108594" lon="11.711335424781723"><ele>1.5</ele><time>2026-03-22T12:43:07Z</time></trkpt><trkpt lat="44.89512220908522" lon="11.711357752178868"><ele>1.0</ele><time>2026-03-22T12:43:08Z</time></trkpt><trkpt lat="44.89533884304965" lon="11.711388112672426"><ele>1.0</ele><time>2026-03-22T12:43:09Z</time></trkpt><trkpt lat="44.89554494180662" lon="11.71140901455351"><ele>1.0</ele><time>2026-03-22T12:43:10Z</time></trkpt><trkpt lat="44.89577571769359" lon="11.711431220614248"><ele>1.0</ele><time>2026-03-22T12:43:11Z</time></trkpt><trkpt lat="44.89599096161911" lon="11.711451011479884"><ele>1.0</ele><time>2026-03-22T12:43:12Z</time></trkpt><trkpt lat="44.89622406948256" lon="11.71146880653636"><ele>1.0</ele><time>2026-03-22T12:43:13Z</time></trkpt><trkpt lat="44.896441640579354" lon="11.71149841820793"><ele>1.0</ele><time>2026-03-22T12:43:14Z</time></trkpt><trkpt lat="44.896646563474185" lon="11.711516066653205"><ele>1.0</ele><time>2026-03-22T12:43:15Z</time></trkpt><trkpt lat="44.8968462860079" lon="11.711533045873313"><ele>1.0</ele><time>2026-03-22T12:43:16Z</time></trkpt><trkpt lat="44.89704080252048" lon="11.711551201310124"><ele>1.3333333333333333</ele><time>2026-03-22T12:43:17Z</time></trkpt><trkpt lat="44.89722150725478" lon="11.711567297984683"><ele>1.6666666666666665</ele><time>2026-03-22T12:43:18Z</time></trkpt><trkpt lat="44.897384401182585" lon="11.71157604124867"><ele>2.0</ele><time>2026-03-22T12:43:19Z</time></trkpt><trkpt lat="44.89754282437955" lon="11.711590144496977"><ele>2.333333333333333</ele><time>2026-03-22T12:43:20Z</time></trkpt><trkpt lat="44.89770696260787" lon="11.711607716596252"><ele>2.6666666666666665</ele><time>2026-03-22T12:43:21Z</time></trkpt><trkpt lat="44.897875005677854" lon="11.711623360463948"><ele>3.0</ele><time>2026-03-22T12:43:22Z</time></trkpt><trkpt lat="44.89804545627699" lon="11.711632197024015"><ele>3.0</ele><time>2026-03-22T12:43:23Z</time></trkpt><trkpt lat="44.898219923914404" lon="11.71164210833541"><ele>3.0</ele><time>2026-03-22T12:43:24Z</time></trkpt><trkpt lat="44.89839989467841" lon="11.711656685127995"><ele>3.0</ele><time>2026-03-22T12:43:25Z</time></trkpt><trkpt lat="44.89858471087813" lon="11.711670112847347"><ele>3.0</ele><time>2026-03-22T12:43:26Z</time></trkpt><trkpt lat="44.898771320182064" lon="11.711680139542768"><ele>3.0</ele><time>2026-03-22T12:43:27Z</time></trkpt><trkpt lat="44.89896088119112" lon="11.711700024955979"><ele>3.0</ele><time>2026-03-22T12:43:28Z</time></trkpt><trkpt lat="44.89914624205027" lon="11.71172672700103"><ele>2.3333333333333335</ele><time>2026-03-22T12:43:28.999Z</time></trkpt><trkpt lat="44.89933047775411" lon="11.711759122053328"><ele>1.6666666666666665</ele><time>2026-03-22T12:43:29.999Z</time></trkpt><trkpt lat="44.899511556140915" lon="11.711762207954044"><ele>1.0</ele><time>2026-03-22T12:43:30.999Z</time></trkpt><trkpt lat="44.899680172450715" lon="11.711780524318042"><ele>1.0</ele><time>2026-03-22T12:43:31.999Z</time></trkpt><trkpt lat="44.899851448376076" lon="11.711799981446648"><ele>1.0</ele><time>2026-03-22T12:43:32.999Z</time></trkpt><trkpt lat="44.900019602063615" lon="11.711811085497592"><ele>1.0</ele><time>2026-03-22T12:43:33.999Z</time></trkpt><trkpt lat="44.90017370083312" lon="11.711818284934665"><ele>1.25</ele><time>2026-03-22T12:43:34.999Z</time></trkpt><trkpt lat="44.900310622816136" lon="11.711823903108865"><ele>1.5</ele><time>2026-03-22T12:43:35.999Z</time></trkpt><trkpt lat="44.90045485627395" lon="11.71183298454814"><ele>1.75</ele><time>2026-03-22T12:43:36.999Z</time></trkpt><trkpt lat="44.900599635058235" lon="11.711854535088316"><ele>2.0</ele><time>2026-03-22T12:43:37.999Z</time></trkpt><trkpt lat="44.900751392142446" lon="11.711860676841232"><ele>1.6666666666666665</ele><time>2026-03-22T12:43:38.999Z</time></trkpt><trkpt lat="44.90091918443413" lon="11.711853893728287"><ele>1.3333333333333333</ele><time>2026-03-22T12:43:39.999Z</time></trkpt><trkpt lat="44.90111409359866" lon="11.711844840687869"><ele>1.0</ele><time>2026-03-22T12:43:40.999Z</time></trkpt><trkpt lat="44.90131711143846" lon="11.711859578950435"><ele>1.0</ele><time>2026-03-22T12:43:41.999Z</time></trkpt><trkpt lat="44.90152830396573" lon="11.711878189111129"><ele>1.0</ele><time>2026-03-22T12:43:42.999Z</time></trkpt><trkpt lat="44.90174993468149" lon="11.711894302971924"><ele>1.0</ele><time>2026-03-22T12:43:43.999Z</time></trkpt><trkpt lat="44.90197665581664" lon="11.711917079443369"><ele>2.0</ele><time>2026-03-22T12:43:44.999Z</time></trkpt><trkpt lat="44.902207350357344" lon="11.711935569540781"><ele>3.0</ele><time>2026-03-22T12:43:45.999Z</time></trkpt><trkpt lat="44.90244330310399" lon="11.711954798698022"><ele>2.5</ele><time>2026-03-22T12:43:46.999Z</time></trkpt><trkpt lat="44.902682103078796" lon="11.71197184443902"><ele>2.0</ele><time>2026-03-22T12:43:47.999Z</time></trkpt><trkpt lat="44.90291995404569" lon="11.711982658482631"><ele>2.0</ele><time>2026-03-22T12:43:48.999Z</time></trkpt><trkpt lat="44.90316656560293" lon="11.712003736230896"><ele>2.0</ele><time>2026-03-22T12:43:49.999Z</time></trkpt><trkpt lat="44.903410975766555" lon="11.712025892662615"><ele>2.5</ele><time>2026-03-22T12:43:50.999Z</time></trkpt><trkpt lat="44.90365584468963" lon="11.71204973551553"><ele>3.0</ele><time>2026-03-22T12:43:51.999Z</time></trkpt><trkpt lat="44.90390013551304" lon="11.712066488612283"><ele>3.0</ele><time>2026-03-22T12:43:52.999Z</time></trkpt><trkpt lat="44.90414121070477" lon="11.712079327839968"><ele>3.0</ele><time>2026-03-22T12:43:53.999Z</time></trkpt><trkpt lat="44.90438277689096" lon="11.71210642689518"><ele>3.0</ele><time>2026-03-22T12:43:54.999Z</time></trkpt><trkpt lat="44.90462057982242" lon="11.712135497420327"><ele>3.0</ele><time>2026-03-22T12:43:55.999Z</time></trkpt><trkpt lat="44.90486335802189" lon="11.712149211978124"><ele>2.0</ele><time>2026-03-22T12:43:56.999Z</time></trkpt><trkpt lat="44.90509726367315" lon="11.712166896057127"><ele>1.0</ele><time>2026-03-22T12:43:57.999Z</time></trkpt><trkpt lat="44.90532632983062" lon="11.71218566921591"><ele>1.0</ele><time>2026-03-22T12:43:58.999Z</time></trkpt><trkpt lat="44.90555306149248" lon="11.712205137197166"><ele>1.0</ele><time>2026-03-22T12:43:59.999Z</time></trkpt><trkpt lat="44.905768694117064" lon="11.71223765505182"><ele>1.0</ele><time>2026-03-22T12:44:00.999Z</time></trkpt><trkpt lat="44.90598879687115" lon="11.712257040962758"><ele>1.3333333333333333</ele><time>2026-03-22T12:44:01.999Z</time></trkpt><trkpt lat="44.90620008934171" lon="11.71227100917852"><ele>1.6666666666666665</ele><time>2026-03-22T12:44:02.999Z</time></trkpt><trkpt lat="44.90641863130904" lon="11.71227505128921"><ele>2.0</ele><time>2026-03-22T12:44:03.999Z</time></trkpt><trkpt lat="44.9066352684383" lon="11.712295873762214"><ele>2.333333333333333</ele><time>2026-03-22T12:44:04.999Z</time></trkpt><trkpt lat="44.906832695867045" lon="11.712318233288949"><ele>2.6666666666666665</ele><time>2026-03-22T12:44:05.999Z</time></trkpt><trkpt lat="44.90704084825882" lon="11.71233960719979"><ele>3.0</ele><time>2026-03-22T12:44:06.999Z</time></trkpt><trkpt lat="44.907235861144365" lon="11.712359203717547"><ele>3.0</ele><time>2026-03-22T12:44:07.999Z</time></trkpt><trkpt lat="44.907432139112345" lon="11.71237509751179"><ele>3.0</ele><time>2026-03-22T12:44:08.999Z</time></trkpt><trkpt lat="44.90761375209706" lon="11.712397235894864"><ele>3.0</ele><time>2026-03-22T12:44:09.999Z</time></trkpt><trkpt lat="44.9077922478361" lon="11.712418169719546"><ele>3.333333333333333</ele><time>2026-03-22T12:44:10.999Z</time></trkpt><trkpt lat="44.907973219559196" lon="11.712424367850646"><ele>3.6666666666666665</ele><time>2026-03-22T12:44:11.999Z</time></trkpt><trkpt lat="44.908152561574674" lon="11.712433688272663"><ele>4.0</ele><time>2026-03-22T12:44:12.999Z</time></trkpt><trkpt lat="44.908341231831876" lon="11.712455219558231"><ele>4.333333333333333</ele><time>2026-03-22T12:44:13.999Z</time></trkpt><trkpt lat="44.90852813079088" lon="11.712465445209103"><ele>4.666666666666667</ele><time>2026-03-22T12:44:14.999Z</time></trkpt><trkpt lat="44.90873074712378" lon="11.712483672769428"><ele>5.0</ele><time>2026-03-22T12:44:15.999Z</time></trkpt><trkpt lat="44.908937860813644" lon="11.712496993040867"><ele>5.0</ele><time>2026-03-22T12:44:16.999Z</time></trkpt><trkpt lat="44.909147603595166" lon="11.712515346626374"><ele>5.0</ele><time>2026-03-22T12:44:17.999Z</time></trkpt><trkpt lat="44.909354981922256" lon="11.712521299750541"><ele>5.0</ele><time>2026-03-22T12:44:18.999Z</time></trkpt><trkpt lat="44.90958780528791" lon="11.712547335178654"><ele>4.333333333333334</ele><time>2026-03-22T12:44:19.999Z</time></trkpt><trkpt lat="44.909800036669964" lon="11.712562900857547"><ele>3.666666666666667</ele><time>2026-03-22T12:44:20.999Z</time></trkpt><trkpt lat="44.910015895037525" lon="11.712570155190832"><ele>3.0</ele><time>2026-03-22T12:44:21.999Z</time></trkpt><trkpt lat="44.91022818752783" lon="11.712596861576985"><ele>3.0</ele><time>2026-03-22T12:44:22.999Z</time></trkpt><trkpt lat="44.91046272768888" lon="11.712608356793368"><ele>3.0</ele><time>2026-03-22T12:44:23.999Z</time></trkpt><trkpt lat="44.91068707219224" lon="11.712621837139691"><ele>3.0</ele><time>2026-03-22T12:44:25Z</time></trkpt><trkpt lat="44.910902396550135" lon="11.712636556323183"><ele>3.0</ele><time>2026-03-22T12:44:26Z</time></trkpt><trkpt lat="44.91112536997436" lon="11.712662687010603"><ele>3.0</ele><time>2026-03-22T12:44:27Z</time></trkpt><trkpt lat="44.911347889716744" lon="11.712683451820412"><ele>3.0</ele><time>2026-03-22T12:44:28Z</time></trkpt><trkpt lat="44.911564308177525" lon="11.712701058731163"><ele>3.0</ele><time>2026-03-22T12:44:29Z</time></trkpt><trkpt lat="44.911776018972716" lon="11.712721527797806"><ele>3.0</ele><time>2026-03-22T12:44:30Z</time></trkpt><trkpt lat="44.911975192384546" lon="11.712742367524324"><ele>3.0</ele><time>2026-03-22T12:44:31Z</time></trkpt><trkpt lat="44.91215731391179" lon="11.712746453129888"><ele>3.0</ele><time>2026-03-22T12:44:32Z</time></trkpt><trkpt lat="44.91234467077073" lon="11.712769920631278"><ele>3.0</ele><time>2026-03-22T12:44:33Z</time></trkpt><trkpt lat="44.91251558087298" lon="11.712780932798024"><ele>3.0</ele><time>2026-03-22T12:44:34Z</time></trkpt><trkpt lat="44.91267628900686" lon="11.712793227501736"><ele>3.0</ele><time>2026-03-22T12:44:35.001Z</time></trkpt><trkpt lat="44.91284334442866" lon="11.71281427717085"><ele>3.0</ele><time>2026-03-22T12:44:36.001Z</time></trkpt><trkpt lat="44.91299545578791" lon="11.712834111825112"><ele>3.0</ele><time>2026-03-22T12:44:37Z</time></trkpt><trkpt lat="44.913130461926684" lon="11.712843850281592"><ele>3.0</ele><time>2026-03-22T12:44:38Z</time></trkpt><trkpt lat="44.91325922043313" lon="11.71285541207693"><ele>3.0</ele><time>2026-03-22T12:44:39Z</time></trkpt><trkpt lat="44.91337403562042" lon="11.71286616551623"><ele>3.0</ele><time>2026-03-22T12:44:40Z</time></trkpt><trkpt lat="44.91347268291858" lon="11.712877327788895"><ele>3.3333333333333335</ele><time>2026-03-22T12:44:41Z</time></trkpt><trkpt lat="44.9135675506584" lon="11.712876459728317"><ele>3.666666666666667</ele><time>2026-03-22T12:44:42Z</time></trkpt><trkpt lat="44.91364798090511" lon="11.71287879861733"><ele>4.0</ele><time>2026-03-22T12:44:43Z</time></trkpt><trkpt lat="44.91372134454638" lon="11.712900837410396"><ele>4.333333333333334</ele><time>2026-03-22T12:44:44Z</time></trkpt><trkpt lat="44.91379498666247" lon="11.712886338116663"><ele>4.666666666666667</ele><time>2026-03-22T12:44:45Z</time></trkpt><trkpt lat="44.913853638287925" lon="11.712936697333692"><ele>5.0</ele><time>2026-03-22T12:44:46Z</time></trkpt><trkpt lat="44.91391370407319" lon="11.713115094370732"><ele>5.0</ele><time>2026-03-22T12:44:48Z</time></trkpt><trkpt lat="44.91391548056639" lon="11.713269382199288"><ele>5.0</ele><time>2026-03-22T12:44:49Z</time></trkpt><trkpt lat="44.913902848204735" lon="11.713431546469105"><ele>5.0</ele><time>2026-03-22T12:44:50Z</time></trkpt><trkpt lat="44.913893846583974" lon="11.713598354679583"><ele>5.0</ele><time>2026-03-22T12:44:51Z</time></trkpt><trkpt lat="44.91391300598478" lon="11.713762375968633"><ele>4.666666666666667</ele><time>2026-03-22T12:44:52Z</time></trkpt><trkpt lat="44.91394225774834" lon="11.71390066491083"><ele>4.333333333333334</ele><time>2026-03-22T12:44:53Z</time></trkpt><trkpt lat="44.913992850480035" lon="11.714021652121628"><ele>4.0</ele><time>2026-03-22T12:44:54Z</time></trkpt><trkpt lat="44.91406608938268" lon="11.714095322221796"><ele>3.666666666666667</ele><time>2026-03-22T12:44:55Z</time></trkpt><trkpt lat="44.914148806725635" lon="11.714146525401837"><ele>3.3333333333333335</ele><time>2026-03-22T12:44:56Z</time></trkpt><trkpt lat="44.91421190062153" lon="11.7141791627696"><ele>3.0</ele><time>2026-03-22T12:44:57Z</time></trkpt><trkpt lat="44.91428642467873" lon="11.71420677300917"><ele>3.0</ele><time>2026-03-22T12:44:59Z</time></trkpt><trkpt lat="44.914362300068476" lon="11.714263722945766"><ele>3.0</ele><time>2026-03-22T12:45:02Z</time></trkpt><trkpt lat="44.914429042276" lon="11.714147611522012"><ele>3.0</ele><time>2026-03-22T12:45:03Z</time></trkpt><trkpt lat="44.9144886027312" lon="11.714069489604354"><ele>3.0</ele><time>2026-03-22T12:45:03.999Z</time></trkpt><trkpt lat="44.9145632041595" lon="11.713991018295145"><ele>3.0</ele><time>2026-03-22T12:45:04.999Z</time></trkpt><trkpt lat="44.91464089948459" lon="11.713886879277839"><ele>3.0</ele><time>2026-03-22T12:45:05.999Z</time></trkpt><trkpt lat="44.91473048192437" lon="11.713762619884648"><ele>3.0</ele><time>2026-03-22T12:45:06.999Z</time></trkpt><trkpt lat="44.914826757276025" lon="11.713623298943226"><ele>3.0</ele><time>2026-03-22T12:45:07.999Z</time></trkpt><trkpt lat="44.914920836104386" lon="11.713466715336597"><ele>3.0</ele><time>2026-03-22T12:45:08.999Z</time></trkpt><trkpt lat="44.91500957634705" lon="11.71332717190212"><ele>3.2</ele><time>2026-03-22T12:45:09.999Z</time></trkpt><trkpt lat="44.915087877594004" lon="11.713203903842697"><ele>3.4</ele><time>2026-03-22T12:45:10.999Z</time></trkpt><trkpt lat="44.915175216043465" lon="11.71310545964153"><ele>3.6000000000000005</ele><time>2026-03-22T12:45:11.999Z</time></trkpt><trkpt lat="44.91526427129574" lon="11.713062400562494"><ele>3.8000000000000003</ele><time>2026-03-22T12:45:12.999Z</time></trkpt><trkpt lat="44.91535372210925" lon="11.71304984470335"><ele>4.0</ele><time>2026-03-22T12:45:13.999Z</time></trkpt><trkpt lat="44.9154589434258" lon="11.713074038984365"><ele>4.0</ele><time>2026-03-22T12:45:14.999Z</time></trkpt><trkpt lat="44.91556547105445" lon="11.713097899084213"><ele>4.0</ele><time>2026-03-22T12:45:15.999Z</time></trkpt><trkpt lat="44.915671384645634" lon="11.713111584058586"><ele>4.0</ele><time>2026-03-22T12:45:16.999Z</time></trkpt><trkpt lat="44.91577325962559" lon="11.71311913187878"><ele>4.0</ele><time>2026-03-22T12:45:17.999Z</time></trkpt><trkpt lat="44.91587143676468" lon="11.71312491319562"><ele>4.0</ele><time>2026-03-22T12:45:18.999Z</time></trkpt><trkpt lat="44.91595855235461" lon="11.7131198925353"><ele>3.9999999999999996</ele><time>2026-03-22T12:45:19.999Z</time></trkpt><trkpt lat="44.91603462678099" lon="11.71311738336396"><ele>4.0</ele><time>2026-03-22T12:45:20.999Z</time></trkpt><trkpt lat="44.916106761634545" lon="11.713070196329635"><ele>4.0</ele><time>2026-03-22T12:45:21.999Z</time></trkpt><trkpt lat="44.9161626731417" lon="11.712995151783002"><ele>4.0</ele><time>2026-03-22T12:45:22.999Z</time></trkpt><trkpt lat="44.916200898396106" lon="11.712867883370897"><ele>3.9999999999999996</ele><time>2026-03-22T12:45:23.999Z</time></trkpt><trkpt lat="44.916250918985725" lon="11.712716168656813"><ele>4.0</ele><time>2026-03-22T12:45:24.999Z</time></trkpt><trkpt lat="44.916302271019305" lon="11.712535906953256"><ele>4.0</ele><time>2026-03-22T12:45:25.999Z</time></trkpt><trkpt lat="44.91637323098621" lon="11.712335529074412"><ele>4.0</ele><time>2026-03-22T12:45:26.999Z</time></trkpt><trkpt lat="44.916448825404565" lon="11.712115440226153"><ele>4.0</ele><time>2026-03-22T12:45:27.999Z</time></trkpt><trkpt lat="44.91652053417709" lon="11.71188970830365"><ele>4.0</ele><time>2026-03-22T12:45:28.999Z</time></trkpt><trkpt lat="44.91659258293858" lon="11.71165738596186"><ele>4.0</ele><time>2026-03-22T12:45:29.999Z</time></trkpt><trkpt lat="44.916682109683634" lon="11.711439382585162"><ele>4.0</ele><time>2026-03-22T12:45:30.999Z</time></trkpt><trkpt lat="44.91675749824586" lon="11.711192891453834"><ele>3.333333333333333</ele><time>2026-03-22T12:45:31.999Z</time></trkpt><trkpt lat="44.91683076745198" lon="11.710943459163172"><ele>2.6666666666666665</ele><time>2026-03-22T12:45:32.999Z</time></trkpt><trkpt lat="44.916897407806935" lon="11.710693173948266"><ele>2.0</ele><time>2026-03-22T12:45:33.999Z</time></trkpt><trkpt lat="44.91695563597533" lon="11.710437017971635"><ele>2.333333333333333</ele><time>2026-03-22T12:45:34.999Z</time></trkpt><trkpt lat="44.91701321814267" lon="11.710185236333848"><ele>2.6666666666666665</ele><time>2026-03-22T12:45:35.999Z</time></trkpt><trkpt lat="44.917066718287934" lon="11.709944621422133"><ele>3.0</ele><time>2026-03-22T12:45:36.999Z</time></trkpt><trkpt lat="44.9171100134866" lon="11.709711367610586"><ele>3.0</ele><time>2026-03-22T12:45:37.999Z</time></trkpt><trkpt lat="44.91713470000368" lon="11.709489728460124"><ele>3.0</ele><time>2026-03-22T12:45:38.999Z</time></trkpt><trkpt lat="44.91714411146757" lon="11.709263547655361"><ele>3.0</ele><time>2026-03-22T12:45:39.999Z</time></trkpt><trkpt lat="44.91715027958129" lon="11.70903384224071"><ele>2.6666666666666665</ele><time>2026-03-22T12:45:40.999Z</time></trkpt><trkpt lat="44.91714369609188" lon="11.708779648206956"><ele>2.333333333333333</ele><time>2026-03-22T12:45:41.999Z</time></trkpt><trkpt lat="44.91713532824794" lon="11.708523496640453"><ele>2.0</ele><time>2026-03-22T12:45:42.999Z</time></trkpt><trkpt lat="44.91712419009715" lon="11.708268984752104"><ele>2.0</ele><time>2026-03-22T12:45:43.999Z</time></trkpt><trkpt lat="44.917113200644025" lon="11.708020285425278"><ele>2.0</ele><time>2026-03-22T12:45:44.999Z</time></trkpt><trkpt lat="44.917099339725155" lon="11.707776328782474"><ele>2.0</ele><time>2026-03-22T12:45:45.999Z</time></trkpt><trkpt lat="44.917089640471595" lon="11.70754101140504"><ele>2.333333333333333</ele><time>2026-03-22T12:45:46.999Z</time></trkpt><trkpt lat="44.917071192338966" lon="11.707315185941868"><ele>2.6666666666666665</ele><time>2026-03-22T12:45:47.999Z</time></trkpt><trkpt lat="44.91702657406214" lon="11.707105063276995"><ele>3.0</ele><time>2026-03-22T12:45:48.999Z</time></trkpt><trkpt lat="44.916956832901576" lon="11.706909285947962"><ele>3.0</ele><time>2026-03-22T12:45:49.999Z</time></trkpt><trkpt lat="44.916865169699996" lon="11.70671768295329"><ele>3.0</ele><time>2026-03-22T12:45:50.999Z</time></trkpt><trkpt lat="44.916778510572016" lon="11.706532476885492"><ele>3.0</ele><time>2026-03-22T12:45:51.999Z</time></trkpt><trkpt lat="44.91670607031156" lon="11.706338212291719"><ele>3.333333333333333</ele><time>2026-03-22T12:45:52.999Z</time></trkpt><trkpt lat="44.91664599692695" lon="11.706121992584562"><ele>3.6666666666666665</ele><time>2026-03-22T12:45:53.999Z</time></trkpt><trkpt lat="44.916602166719926" lon="11.705892134244332"><ele>4.0</ele><time>2026-03-22T12:45:54.999Z</time></trkpt><trkpt lat="44.916561111115065" lon="11.705646517127573"><ele>4.0</ele><time>2026-03-22T12:45:55.999Z</time></trkpt><trkpt lat="44.916528925829226" lon="11.705401791432285"><ele>4.0</ele><time>2026-03-22T12:45:56.999Z</time></trkpt><trkpt lat="44.916491371077136" lon="11.705161545433825"><ele>4.0</ele><time>2026-03-22T12:45:57.999Z</time></trkpt><trkpt lat="44.916461473281764" lon="11.704919920928909"><ele>4.0</ele><time>2026-03-22T12:45:58.999Z</time></trkpt><trkpt lat="44.91642221362628" lon="11.704692645908132"><ele>4.0</ele><time>2026-03-22T12:45:59.999Z</time></trkpt><trkpt lat="44.91638980062373" lon="11.704469984899484"><ele>4.0</ele><time>2026-03-22T12:46:00.999Z</time></trkpt><trkpt lat="44.916359576085206" lon="11.704256225049626"><ele>3.75</ele><time>2026-03-22T12:46:01.999Z</time></trkpt><trkpt lat="44.91632994693331" lon="11.704052572227335"><ele>3.5</ele><time>2026-03-22T12:46:02.999Z</time></trkpt><trkpt lat="44.91629764326192" lon="11.70386087747891"><ele>3.25</ele><time>2026-03-22T12:46:03.999Z</time></trkpt><trkpt lat="44.916259661385176" lon="11.703673431456085"><ele>3.0</ele><time>2026-03-22T12:46:04.999Z</time></trkpt><trkpt lat="44.916227026667045" lon="11.7034982504247"><ele>2.8333333333333335</ele><time>2026-03-22T12:46:05.999Z</time></trkpt><trkpt lat="44.91619914063126" lon="11.703333824936236"><ele>2.6666666666666665</ele><time>2026-03-22T12:46:06.999Z</time></trkpt><trkpt lat="44.916176576235145" lon="11.703200232770033"><ele>2.5</ele><time>2026-03-22T12:46:07.999Z</time></trkpt><trkpt lat="44.91615296525502" lon="11.70308757385331"><ele>2.333333333333333</ele><time>2026-03-22T12:46:08.999Z</time></trkpt><trkpt lat="44.91612478170606" lon="11.702989196533455"><ele>2.1666666666666665</ele><time>2026-03-22T12:46:09.999Z</time></trkpt><trkpt lat="44.916075008424215" lon="11.70292249971776"><ele>2.0</ele><time>2026-03-22T12:46:10.999Z</time></trkpt><trkpt lat="44.91601450287525" lon="11.702843763902283"><ele>2.25</ele><time>2026-03-22T12:46:11.999Z</time></trkpt><trkpt lat="44.915892765249104" lon="11.702846737417309"><ele>2.5</ele><time>2026-03-22T12:46:12.999Z</time></trkpt><trkpt lat="44.9157563133732" lon="11.70283869715848"><ele>2.75</ele><time>2026-03-22T12:46:13.999Z</time></trkpt><trkpt lat="44.91560034408647" lon="11.702831241088312"><ele>3.0</ele><time>2026-03-22T12:46:14.999Z</time></trkpt><trkpt lat="44.915443306428195" lon="11.702823733948952"><ele>3.0</ele><time>2026-03-22T12:46:15.999Z</time></trkpt><trkpt lat="44.9152897870445" lon="11.702816395005321"><ele>3.0</ele><time>2026-03-22T12:46:16.999Z</time></trkpt><trkpt lat="44.915142342340104" lon="11.702808238148434"><ele>3.0</ele><time>2026-03-22T12:46:17.999Z</time></trkpt><trkpt lat="44.915000386428986" lon="11.702799219047245"><ele>3.0</ele><time>2026-03-22T12:46:18.999Z</time></trkpt><trkpt lat="44.91485830138884" lon="11.702789633236371"><ele>3.0</ele><time>2026-03-22T12:46:19.999Z</time></trkpt><trkpt lat="44.914714995030884" lon="11.702802873299774"><ele>3.0</ele><time>2026-03-22T12:46:20.999Z</time></trkpt><trkpt lat="44.91457791662248" lon="11.7027808369217"><ele>3.0</ele><time>2026-03-22T12:46:21.999Z</time></trkpt><trkpt lat="44.914437092511065" lon="11.70276299775395"><ele>3.0</ele><time>2026-03-22T12:46:22.999Z</time></trkpt><trkpt lat="44.91429018699308" lon="11.702751515558267"><ele>3.0</ele><time>2026-03-22T12:46:23.998Z</time></trkpt><trkpt lat="44.91413690213383" lon="11.702740994039772"><ele>3.0</ele><time>2026-03-22T12:46:24.998Z</time></trkpt><trkpt lat="44.91398667678914" lon="11.70274110455503"><ele>3.0</ele><time>2026-03-22T12:46:25.998Z</time></trkpt><trkpt lat="44.91383951838573" lon="11.702739947281978"><ele>3.0</ele><time>2026-03-22T12:46:26.998Z</time></trkpt><trkpt lat="44.91369820714567" lon="11.702731344682693"><ele>3.0</ele><time>2026-03-22T12:46:27.998Z</time></trkpt><trkpt lat="44.913558177854306" lon="11.70271835755334"><ele>3.0</ele><time>2026-03-22T12:46:28.998Z</time></trkpt><trkpt lat="44.913417453531416" lon="11.702709895491541"><ele>3.0</ele><time>2026-03-22T12:46:29.998Z</time></trkpt><trkpt lat="44.91327043257727" lon="11.702704112038175"><ele>3.333333333333333</ele><time>2026-03-22T12:46:31Z</time></trkpt><trkpt lat="44.91311450744148" lon="11.702707610846952"><ele>3.6666666666666665</ele><time>2026-03-22T12:46:32Z</time></trkpt><trkpt lat="44.912956831771254" lon="11.702679499948594"><ele>4.0</ele><time>2026-03-22T12:46:33Z</time></trkpt><trkpt lat="44.91278811730397" lon="11.70269273740585"><ele>4.0</ele><time>2026-03-22T12:46:34Z</time></trkpt><trkpt lat="44.91261351080935" lon="11.70271283044431"><ele>4.0</ele><time>2026-03-22T12:46:35Z</time></trkpt><trkpt lat="44.91243088075709" lon="11.702734152472106"><ele>4.0</ele><time>2026-03-22T12:46:36Z</time></trkpt><trkpt lat="44.91224058768611" lon="11.702756120674152"><ele>4.333333333333333</ele><time>2026-03-22T12:46:37Z</time></trkpt><trkpt lat="44.91204804288334" lon="11.702776504690025"><ele>4.666666666666667</ele><time>2026-03-22T12:46:38Z</time></trkpt><trkpt lat="44.91185201200451" lon="11.70279989425942"><ele>5.0</ele><time>2026-03-22T12:46:39Z</time></trkpt><trkpt lat="44.911660281932605" lon="11.702826563568197"><ele>5.0</ele><time>2026-03-22T12:46:40Z</time></trkpt><trkpt lat="44.911478644496185" lon="11.702860547573515"><ele>5.0</ele><time>2026-03-22T12:46:41Z</time></trkpt><trkpt lat="44.91131221044427" lon="11.702850865093653"><ele>5.0</ele><time>2026-03-22T12:46:42Z</time></trkpt><trkpt lat="44.91116408824483" lon="11.702866697553967"><ele>5.0</ele><time>2026-03-22T12:46:43Z</time></trkpt><trkpt lat="44.91103155035807" lon="11.702876024755625"><ele>5.0</ele><time>2026-03-22T12:46:44Z</time></trkpt><trkpt lat="44.910916206819" lon="11.702877874201189"><ele>5.0</ele><time>2026-03-22T12:46:45Z</time></trkpt><trkpt lat="44.910823074573344" lon="11.702857546494505"><ele>5.0</ele><time>2026-03-22T12:46:46Z</time></trkpt><trkpt lat="44.910761608919934" lon="11.702794013011902"><ele>5.0</ele><time>2026-03-22T12:46:47Z</time></trkpt><trkpt lat="44.91069254566946" lon="11.702671986321235"><ele>4.666666666666667</ele><time>2026-03-22T12:46:48Z</time></trkpt><trkpt lat="44.91062164641172" lon="11.702511994163066"><ele>4.333333333333333</ele><time>2026-03-22T12:46:49Z</time></trkpt><trkpt lat="44.91054135407089" lon="11.702336656496628"><ele>4.0</ele><time>2026-03-22T12:46:50Z</time></trkpt><trkpt lat="44.91044828037404" lon="11.70213644314029"><ele>4.0</ele><time>2026-03-22T12:46:51Z</time></trkpt><trkpt lat="44.91035389234416" lon="11.701935005046014"><ele>4.0</ele><time>2026-03-22T12:46:52Z</time></trkpt><trkpt lat="44.91025936355936" lon="11.70173060424883"><ele>4.0</ele><time>2026-03-22T12:46:53Z</time></trkpt><trkpt lat="44.91016674998712" lon="11.701520024510863"><ele>3.6666666666666665</ele><time>2026-03-22T12:46:54Z</time></trkpt><trkpt lat="44.91008704338729" lon="11.701293669457824"><ele>3.333333333333333</ele><time>2026-03-22T12:46:55Z</time></trkpt><trkpt lat="44.91002430533885" lon="11.701055440447835"><ele>3.0</ele><time>2026-03-22T12:46:56Z</time></trkpt><trkpt lat="44.90997442088813" lon="11.700805434850384"><ele>3.0</ele><time>2026-03-22T12:46:57Z</time></trkpt><trkpt lat="44.909939390627294" lon="11.700551181588049"><ele>3.0</ele><time>2026-03-22T12:46:58Z</time></trkpt><trkpt lat="44.90991232074938" lon="11.700291846275913"><ele>3.0</ele><time>2026-03-22T12:46:59Z</time></trkpt><trkpt lat="44.90990950885187" lon="11.700038972691463"><ele>2.6666666666666665</ele><time>2026-03-22T12:47:00Z</time></trkpt><trkpt lat="44.90992964642902" lon="11.699787885317452"><ele>2.333333333333333</ele><time>2026-03-22T12:47:01Z</time></trkpt><trkpt lat="44.909980821917564" lon="11.699543090874155"><ele>2.0</ele><time>2026-03-22T12:47:02Z</time></trkpt><trkpt lat="44.910042895679865" lon="11.699305346015517"><ele>2.6666666666666665</ele><time>2026-03-22T12:47:03Z</time></trkpt><trkpt lat="44.91010280669519" lon="11.699061306905678"><ele>3.333333333333333</ele><time>2026-03-22T12:47:04Z</time></trkpt><trkpt lat="44.910154649692544" lon="11.69882013673133"><ele>4.0</ele><time>2026-03-22T12:47:05Z</time></trkpt><trkpt lat="44.910206677290425" lon="11.698582993041086"><ele>4.0</ele><time>2026-03-22T12:47:06Z</time></trkpt><trkpt lat="44.91025387165094" lon="11.698363176373533"><ele>4.0</ele><time>2026-03-22T12:47:07Z</time></trkpt><trkpt lat="44.91028570086944" lon="11.698153424641774"><ele>4.0</ele><time>2026-03-22T12:47:08Z</time></trkpt><trkpt lat="44.91028955309451" lon="11.697954661623928"><ele>4.0</ele><time>2026-03-22T12:47:09Z</time></trkpt><trkpt lat="44.91025744482384" lon="11.697772992531844"><ele>4.0</ele><time>2026-03-22T12:47:10Z</time></trkpt><trkpt lat="44.9101851959701" lon="11.697633149834823"><ele>4.0</ele><time>2026-03-22T12:47:11Z</time></trkpt><trkpt lat="44.910069043962004" lon="11.697508627810436"><ele>4.0</ele><time>2026-03-22T12:47:12Z</time></trkpt><trkpt lat="44.90992611840805" lon="11.697393154498252"><ele>4.0</ele><time>2026-03-22T12:47:13Z</time></trkpt><trkpt lat="44.90980572329194" lon="11.697236235671163"><ele>4.0</ele><time>2026-03-22T12:47:14Z</time></trkpt><trkpt lat="44.90968328560149" lon="11.69709631781317"><ele>4.0</ele><time>2026-03-22T12:47:15Z</time></trkpt><trkpt lat="44.90958782817354" lon="11.696918142145538"><ele>4.0</ele><time>2026-03-22T12:47:16Z</time></trkpt><trkpt lat="44.90952589543317" lon="11.696712724389451"><ele>4.0</ele><time>2026-03-22T12:47:17Z</time></trkpt><trkpt lat="44.90948062670571" lon="11.696473919173865"><ele>4.0</ele><time>2026-03-22T12:47:18Z</time></trkpt><trkpt lat="44.90943046128368" lon="11.696197848363045"><ele>4.0</ele><time>2026-03-22T12:47:19Z</time></trkpt><trkpt lat="44.9093709861188" lon="11.695911819386744"><ele>4.0</ele><time>2026-03-22T12:47:20Z</time></trkpt><trkpt lat="44.9093086193542" lon="11.695616286965828"><ele>4.0</ele><time>2026-03-22T12:47:21Z</time></trkpt><trkpt lat="44.90925251534328" lon="11.695326044216246"><ele>3.333333333333333</ele><time>2026-03-22T12:47:22Z</time></trkpt><trkpt lat="44.90919825721562" lon="11.695049106219827"><ele>2.6666666666666665</ele><time>2026-03-22T12:47:23Z</time></trkpt><trkpt lat="44.9091458303085" lon="11.694789369285315"><ele>2.0</ele><time>2026-03-22T12:47:24Z</time></trkpt><trkpt lat="44.909089550926055" lon="11.69453836840864"><ele>2.0</ele><time>2026-03-22T12:47:25Z</time></trkpt><trkpt lat="44.9090395502167" lon="11.694291190272732"><ele>2.0</ele><time>2026-03-22T12:47:26Z</time></trkpt><trkpt lat="44.909001522006214" lon="11.694044207346709"><ele>2.0</ele><time>2026-03-22T12:47:27Z</time></trkpt><trkpt lat="44.908990542817385" lon="11.693806767469942"><ele>2.6666666666666665</ele><time>2026-03-22T12:47:28Z</time></trkpt><trkpt lat="44.90901140770765" lon="11.693559017361073"><ele>3.333333333333333</ele><time>2026-03-22T12:47:29Z</time></trkpt><trkpt lat="44.909051453501064" lon="11.693302600931947"><ele>4.0</ele><time>2026-03-22T12:47:30Z</time></trkpt><trkpt lat="44.90910799533221" lon="11.693051571270308"><ele>4.0</ele><time>2026-03-22T12:47:31Z</time></trkpt><trkpt lat="44.90918600858232" lon="11.692812525435421"><ele>4.0</ele><time>2026-03-22T12:47:32Z</time></trkpt><trkpt lat="44.90927730893128" lon="11.69259129174018"><ele>4.0</ele><time>2026-03-22T12:47:33Z</time></trkpt><trkpt lat="44.909378327511114" lon="11.692371723464392"><ele>3.6666666666666665</ele><time>2026-03-22T12:47:34Z</time></trkpt><trkpt lat="44.9094955142279" lon="11.692149905206824"><ele>3.333333333333333</ele><time>2026-03-22T12:47:35Z</time></trkpt><trkpt lat="44.909613862409074" lon="11.691927190757971"><ele>3.0</ele><time>2026-03-22T12:47:36Z</time></trkpt><trkpt lat="44.909718688831184" lon="11.69169667533959"><ele>3.0</ele><time>2026-03-22T12:47:37Z</time></trkpt><trkpt lat="44.909818887725095" lon="11.69145895970377"><ele>3.0</ele><time>2026-03-22T12:47:38Z</time></trkpt><trkpt lat="44.90990747367125" lon="11.691224249381538"><ele>3.0</ele><time>2026-03-22T12:47:39Z</time></trkpt><trkpt lat="44.90997083565621" lon="11.690968187190922"><ele>3.333333333333333</ele><time>2026-03-22T12:47:40Z</time></trkpt><trkpt lat="44.91004869834853" lon="11.690730793057144"><ele>3.6666666666666665</ele><time>2026-03-22T12:47:41Z</time></trkpt><trkpt lat="44.910096863951885" lon="11.690486790049828"><ele>4.0</ele><time>2026-03-22T12:47:42Z</time></trkpt><trkpt lat="44.91017030837213" lon="11.690272765802707"><ele>3.6666666666666665</ele><time>2026-03-22T12:47:43Z</time></trkpt><trkpt lat="44.910227924938745" lon="11.69005309877841"><ele>3.333333333333333</ele><time>2026-03-22T12:47:44Z</time></trkpt><trkpt lat="44.91028497309762" lon="11.689835596169049"><ele>3.0</ele><time>2026-03-22T12:47:45Z</time></trkpt><trkpt lat="44.91034305695285" lon="11.689626217803378"><ele>3.0</ele><time>2026-03-22T12:47:46Z</time></trkpt><trkpt lat="44.910398947796004" lon="11.689426517341882"><ele>3.0</ele><time>2026-03-22T12:47:47Z</time></trkpt><trkpt lat="44.910442334746655" lon="11.689255041395253"><ele>3.0</ele><time>2026-03-22T12:47:47.999Z</time></trkpt><trkpt lat="44.91045057661426" lon="11.689124834047718"><ele>3.0</ele><time>2026-03-22T12:47:48.999Z</time></trkpt><trkpt lat="44.91044606345643" lon="11.68903364951929"><ele>3.0</ele><time>2026-03-22T12:47:49.999Z</time></trkpt><trkpt lat="44.91041800305033" lon="11.688946253788764"><ele>3.25</ele><time>2026-03-22T12:47:50.999Z</time></trkpt><trkpt lat="44.910346526947535" lon="11.688874534463638"><ele>3.5</ele><time>2026-03-22T12:47:51.999Z</time></trkpt><trkpt lat="44.910232683796856" lon="11.68881731298697"><ele>3.75</ele><time>2026-03-22T12:47:52.999Z</time></trkpt><trkpt lat="44.9100979841106" lon="11.688769713306334"><ele>4.0</ele><time>2026-03-22T12:47:53.999Z</time></trkpt><trkpt lat="44.90994487147556" lon="11.688678933143077"><ele>4.333333333333333</ele><time>2026-03-22T12:47:54.999Z</time></trkpt><trkpt lat="44.90978227336942" lon="11.68859980022234"><ele>4.666666666666667</ele><time>2026-03-22T12:47:55.999Z</time></trkpt><trkpt lat="44.90962263681148" lon="11.688521885414833"><ele>5.0</ele><time>2026-03-22T12:47:56.999Z</time></trkpt><trkpt lat="44.909471593802365" lon="11.688448164948621"><ele>5.0</ele><time>2026-03-22T12:47:57.999Z</time></trkpt><trkpt lat="44.90931885019789" lon="11.688398103114158"><ele>5.0</ele><time>2026-03-22T12:47:58.999Z</time></trkpt><trkpt lat="44.90918074177685" lon="11.688313203065395"><ele>5.0</ele><time>2026-03-22T12:47:59.999Z</time></trkpt><trkpt lat="44.9090434032071" lon="11.688238105549159"><ele>5.0</ele><time>2026-03-22T12:48:00.999Z</time></trkpt><trkpt lat="44.90890571884837" lon="11.688164828219158"><ele>5.0</ele><time>2026-03-22T12:48:01.999Z</time></trkpt><trkpt lat="44.908773325138036" lon="11.688102336426272"><ele>5.0</ele><time>2026-03-22T12:48:02.999Z</time></trkpt><trkpt lat="44.908639765437115" lon="11.688050248214553"><ele>5.0</ele><time>2026-03-22T12:48:03.999Z</time></trkpt><trkpt lat="44.90850934911578" lon="11.688011602907961"><ele>4.75</ele><time>2026-03-22T12:48:04.999Z</time></trkpt><trkpt lat="44.90837662682585" lon="11.68800723049477"><ele>4.5</ele><time>2026-03-22T12:48:05.999Z</time></trkpt><trkpt lat="44.90824760286298" lon="11.688016805697723"><ele>4.25</ele><time>2026-03-22T12:48:06.999Z</time></trkpt><trkpt lat="44.90811885913076" lon="11.688045389593324"><ele>4.0</ele><time>2026-03-22T12:48:07.999Z</time></trkpt><trkpt lat="44.90799688695017" lon="11.68807757023583"><ele>4.0</ele><time>2026-03-22T12:48:08.999Z</time></trkpt><trkpt lat="44.907871122959264" lon="11.688105459238539"><ele>4.0</ele><time>2026-03-22T12:48:09.999Z</time></trkpt><trkpt lat="44.90774669324848" lon="11.688124075481344"><ele>4.0</ele><time>2026-03-22T12:48:10.999Z</time></trkpt><trkpt lat="44.90762033867272" lon="11.688098922028804"><ele>4.0</ele><time>2026-03-22T12:48:11.999Z</time></trkpt><trkpt lat="44.90749800697866" lon="11.688050984235693"><ele>3.25</ele><time>2026-03-22T12:48:12.999Z</time></trkpt><trkpt lat="44.90737315045229" lon="11.687989651473483"><ele>2.5</ele><time>2026-03-22T12:48:13.999Z</time></trkpt><trkpt lat="44.907254168249395" lon="11.68792341423251"><ele>1.75</ele><time>2026-03-22T12:48:14.999Z</time></trkpt><trkpt lat="44.90713787042381" lon="11.687869736776564"><ele>1.0</ele><time>2026-03-22T12:48:15.999Z</time></trkpt><trkpt lat="44.907011863793194" lon="11.6878303554841"><ele>1.0</ele><time>2026-03-22T12:48:16.999Z</time></trkpt><trkpt lat="44.906872398160836" lon="11.687804877284698"><ele>1.0</ele><time>2026-03-22T12:48:17.999Z</time></trkpt><trkpt lat="44.9067104021582" lon="11.687810647060353"><ele>1.0</ele><time>2026-03-22T12:48:18.999Z</time></trkpt><trkpt lat="44.90652153087219" lon="11.687849851905298"><ele>1.0</ele><time>2026-03-22T12:48:19.999Z</time></trkpt><trkpt lat="44.90631925435617" lon="11.68790288368557"><ele>1.0</ele><time>2026-03-22T12:48:20.999Z</time></trkpt><trkpt lat="44.90612140272687" lon="11.68795689872226"><ele>1.0</ele><time>2026-03-22T12:48:21.999Z</time></trkpt><trkpt lat="44.90594348586953" lon="11.688009583138019"><ele>1.0</ele><time>2026-03-22T12:48:22.999Z</time></trkpt><trkpt lat="44.90577133567634" lon="11.688060560154128"><ele>1.0</ele><time>2026-03-22T12:48:23.999Z</time></trkpt><trkpt lat="44.905612075539786" lon="11.68811545804987"><ele>1.0</ele><time>2026-03-22T12:48:24.999Z</time></trkpt><trkpt lat="44.90546270814315" lon="11.688201065928187"><ele>1.0</ele><time>2026-03-22T12:48:25.999Z</time></trkpt><trkpt lat="44.90533188018404" lon="11.68831795811566"><ele>1.0</ele><time>2026-03-22T12:48:26.999Z</time></trkpt><trkpt lat="44.905218091732095" lon="11.688482981016268"><ele>1.0</ele><time>2026-03-22T12:48:27.999Z</time></trkpt><trkpt lat="44.90511995216688" lon="11.688671526850376"><ele>1.6666666666666665</ele><time>2026-03-22T12:48:28.999Z</time></trkpt><trkpt lat="44.905022542115404" lon="11.688860822814886"><ele>2.3333333333333335</ele><time>2026-03-22T12:48:29.999Z</time></trkpt><trkpt lat="44.904927343653654" lon="11.689044861084225"><ele>3.0</ele><time>2026-03-22T12:48:30.999Z</time></trkpt><trkpt lat="44.90483331813804" lon="11.68922649387505"><ele>3.0</ele><time>2026-03-22T12:48:31.999Z</time></trkpt><trkpt lat="44.9047570813045" lon="11.68938116402513"><ele>3.0</ele><time>2026-03-22T12:48:32.999Z</time></trkpt><trkpt lat="44.90468659150884" lon="11.689510729994879"><ele>3.0</ele><time>2026-03-22T12:48:33.999Z</time></trkpt><trkpt lat="44.90461832047487" lon="11.689593504239552"><ele>3.0</ele><time>2026-03-22T12:48:34.999Z</time></trkpt><trkpt lat="44.90454545995508" lon="11.689631732177654"><ele>3.0</ele><time>2026-03-22T12:48:35.999Z</time></trkpt><trkpt lat="44.904446504070066" lon="11.689652600238379"><ele>2.6666666666666665</ele><time>2026-03-22T12:48:37Z</time></trkpt><trkpt lat="44.90433208498461" lon="11.689619882465474"><ele>2.333333333333333</ele><time>2026-03-22T12:48:38Z</time></trkpt><trkpt lat="44.90417625137754" lon="11.689554090075278"><ele>2.0</ele><time>2026-03-22T12:48:39Z</time></trkpt><trkpt lat="44.903998539168775" lon="11.689473366480582"><ele>2.6666666666666665</ele><time>2026-03-22T12:48:40.001Z</time></trkpt><trkpt lat="44.90380412375767" lon="11.689384996461602"><ele>3.333333333333333</ele><time>2026-03-22T12:48:41Z</time></trkpt><trkpt lat="44.903608762641795" lon="11.689297416478173"><ele>4.0</ele><time>2026-03-22T12:48:42Z</time></trkpt><trkpt lat="44.90339821121395" lon="11.689227091327194"><ele>4.0</ele><time>2026-03-22T12:48:43Z</time></trkpt><trkpt lat="44.903190395016146" lon="11.68912470072725"><ele>4.0</ele><time>2026-03-22T12:48:44Z</time></trkpt><trkpt lat="44.90298483310813" lon="11.688991963149306"><ele>4.0</ele><time>2026-03-22T12:48:45Z</time></trkpt><trkpt lat="44.90278174906519" lon="11.688842257950586"><ele>3.5</ele><time>2026-03-22T12:48:46Z</time></trkpt><trkpt lat="44.90257531796913" lon="11.688698654007835"><ele>3.0</ele><time>2026-03-22T12:48:47Z</time></trkpt><trkpt lat="44.90236927067219" lon="11.688558502878221"><ele>2.3333333333333335</ele><time>2026-03-22T12:48:48Z</time></trkpt><trkpt lat="44.902166706547106" lon="11.688413945608728"><ele>1.6666666666666665</ele><time>2026-03-22T12:48:49Z</time></trkpt><trkpt lat="44.9019811802529" lon="11.688272986270292"><ele>1.0</ele><time>2026-03-22T12:48:50Z</time></trkpt><trkpt lat="44.90180683297509" lon="11.688144105156901"><ele>1.0</ele><time>2026-03-22T12:48:51Z</time></trkpt><trkpt lat="44.90164278770579" lon="11.688046322435934"><ele>1.0</ele><time>2026-03-22T12:48:52Z</time></trkpt><trkpt lat="44.90146516695379" lon="11.687977723069888"><ele>1.0</ele><time>2026-03-22T12:48:53Z</time></trkpt><trkpt lat="44.90127431028554" lon="11.687916774336026"><ele>1.0</ele><time>2026-03-22T12:48:54Z</time></trkpt><trkpt lat="44.901070129110224" lon="11.687888820773924"><ele>1.0</ele><time>2026-03-22T12:48:55Z</time></trkpt><trkpt lat="44.90086116642991" lon="11.687861479220778"><ele>1.0</ele><time>2026-03-22T12:48:56Z</time></trkpt><trkpt lat="44.90065518285541" lon="11.687834529326935"><ele>1.0</ele><time>2026-03-22T12:48:57Z</time></trkpt><trkpt lat="44.900464392784635" lon="11.687809565544386"><ele>1.0</ele><time>2026-03-22T12:48:58Z</time></trkpt><trkpt lat="44.90029321226503" lon="11.687786523611576"><ele>1.0</ele><time>2026-03-22T12:48:59Z</time></trkpt><trkpt lat="44.90013711522193" lon="11.687763427922166"><ele>1.0</ele><time>2026-03-22T12:49:00Z</time></trkpt><trkpt lat="44.899994200376696" lon="11.687736108011654"><ele>1.0</ele><time>2026-03-22T12:49:01Z</time></trkpt><trkpt lat="44.89986043422818" lon="11.687691632863213"><ele>1.0</ele><time>2026-03-22T12:49:02Z</time></trkpt><trkpt lat="44.899738094335014" lon="11.6875705300042"><ele>1.0</ele><time>2026-03-22T12:49:03Z</time></trkpt><trkpt lat="44.899619814652226" lon="11.687417575847034"><ele>1.0</ele><time>2026-03-22T12:49:04Z</time></trkpt><trkpt lat="44.899508402964166" lon="11.687230350503686"><ele>1.0</ele><time>2026-03-22T12:49:05Z</time></trkpt><trkpt lat="44.8994009808604" lon="11.687026442416652"><ele>1.0</ele><time>2026-03-22T12:49:06Z</time></trkpt><trkpt lat="44.89929100725122" lon="11.686819522056478"><ele>1.3333333333333333</ele><time>2026-03-22T12:49:07Z</time></trkpt><trkpt lat="44.89918343865118" lon="11.68662308959383"><ele>1.6666666666666665</ele><time>2026-03-22T12:49:08Z</time></trkpt><trkpt lat="44.899083538729265" lon="11.68644496792239"><ele>2.0</ele><time>2026-03-22T12:49:09Z</time></trkpt><trkpt lat="44.8989758295436" lon="11.686292632157045"><ele>2.0</ele><time>2026-03-22T12:49:10Z</time></trkpt><trkpt lat="44.89885742459805" lon="11.686151604714206"><ele>2.0</ele><time>2026-03-22T12:49:11Z</time></trkpt><trkpt lat="44.89873713843108" lon="11.686038118904428"><ele>2.0</ele><time>2026-03-22T12:49:12Z</time></trkpt><trkpt lat="44.898618491933675" lon="11.685936589217828"><ele>2.0</ele><time>2026-03-22T12:49:13Z</time></trkpt><trkpt lat="44.898474643911996" lon="11.685902103910767"><ele>2.333333333333333</ele><time>2026-03-22T12:49:14Z</time></trkpt><trkpt lat="44.898323846828156" lon="11.685900489815822"><ele>2.6666666666666665</ele><time>2026-03-22T12:49:15Z</time></trkpt><trkpt lat="44.89816520738965" lon="11.685926265472784"><ele>3.0</ele><time>2026-03-22T12:49:16Z</time></trkpt><trkpt lat="44.89799362189609" lon="11.685965742272762"><ele>3.0</ele><time>2026-03-22T12:49:17Z</time></trkpt><trkpt lat="44.89781445758511" lon="11.686017568919944"><ele>3.0</ele><time>2026-03-22T12:49:18Z</time></trkpt><trkpt lat="44.897630964794864" lon="11.686076514829784"><ele>3.0</ele><time>2026-03-22T12:49:19Z</time></trkpt><trkpt lat="44.89744939431779" lon="11.68616107243081"><ele>3.0</ele><time>2026-03-22T12:49:20Z</time></trkpt><trkpt lat="44.89727599465983" lon="11.686268176115558"><ele>3.0</ele><time>2026-03-22T12:49:21Z</time></trkpt><trkpt lat="44.89711793024775" lon="11.686402276759374"><ele>3.0</ele><time>2026-03-22T12:49:22Z</time></trkpt><trkpt lat="44.896950896300915" lon="11.68651186242558"><ele>3.0</ele><time>2026-03-22T12:49:23Z</time></trkpt><trkpt lat="44.89679367806568" lon="11.686650282032534"><ele>3.0</ele><time>2026-03-22T12:49:24Z</time></trkpt><trkpt lat="44.896633518281966" lon="11.686805347418536"><ele>3.0</ele><time>2026-03-22T12:49:25Z</time></trkpt><trkpt lat="44.89647626953918" lon="11.686966743782252"><ele>3.333333333333333</ele><time>2026-03-22T12:49:26Z</time></trkpt><trkpt lat="44.89632489720394" lon="11.687125778155634"><ele>3.6666666666666665</ele><time>2026-03-22T12:49:27Z</time></trkpt><trkpt lat="44.896176100150846" lon="11.687276801813724"><ele>4.0</ele><time>2026-03-22T12:49:28Z</time></trkpt><trkpt lat="44.89603419143177" lon="11.68740814878851"><ele>3.6666666666666665</ele><time>2026-03-22T12:49:29Z</time></trkpt><trkpt lat="44.895891626153016" lon="11.687512285570563"><ele>3.333333333333333</ele><time>2026-03-22T12:49:30Z</time></trkpt><trkpt lat="44.8957385777054" lon="11.68758234327221"><ele>3.0</ele><time>2026-03-22T12:49:31Z</time></trkpt><trkpt lat="44.89558096912263" lon="11.68761396229891"><ele>3.0</ele><time>2026-03-22T12:49:32Z</time></trkpt><trkpt lat="44.895417673105996" lon="11.687600960227465"><ele>3.0</ele><time>2026-03-22T12:49:33Z</time></trkpt><trkpt lat="44.89526269741186" lon="11.687511334133776"><ele>3.0</ele><time>2026-03-22T12:49:34Z</time></trkpt><trkpt lat="44.89509879490151" lon="11.687413470062115"><ele>3.0</ele><time>2026-03-22T12:49:35Z</time></trkpt><trkpt lat="44.89490942722053" lon="11.687324186678737"><ele>3.0</ele><time>2026-03-22T12:49:36Z</time></trkpt><trkpt lat="44.89472540408269" lon="11.687185299644577"><ele>3.0</ele><time>2026-03-22T12:49:36.999Z</time></trkpt><trkpt lat="44.89452648379817" lon="11.687084037157621"><ele>3.0</ele><time>2026-03-22T12:49:37.999Z</time></trkpt><trkpt lat="44.894336955704155" lon="11.68694314786321"><ele>3.0</ele><time>2026-03-22T12:49:38.999Z</time></trkpt><trkpt lat="44.89413629726791" lon="11.686844289070295"><ele>3.0</ele><time>2026-03-22T12:49:39.999Z</time></trkpt><trkpt lat="44.89394511178573" lon="11.686704622142065"><ele>2.6666666666666665</ele><time>2026-03-22T12:49:40.999Z</time></trkpt><trkpt lat="44.89374491862747" lon="11.686597963109252"><ele>2.333333333333333</ele><time>2026-03-22T12:49:41.999Z</time></trkpt><trkpt lat="44.89355461783492" lon="11.686450826678353"><ele>2.0</ele><time>2026-03-22T12:49:42.999Z</time></trkpt><trkpt lat="44.89336852883105" lon="11.686285478062395"><ele>2.333333333333333</ele><time>2026-03-22T12:49:43.999Z</time></trkpt><trkpt lat="44.89318814428021" lon="11.68610209380504"><ele>2.6666666666666665</ele><time>2026-03-22T12:49:44.999Z</time></trkpt><trkpt lat="44.89301286346515" lon="11.685921481536132"><ele>3.0</ele><time>2026-03-22T12:49:45.999Z</time></trkpt><trkpt lat="44.89283162206871" lon="11.685762579009703"><ele>3.0</ele><time>2026-03-22T12:49:46.999Z</time></trkpt><trkpt lat="44.892635551603284" lon="11.685592171707558"><ele>3.0</ele><time>2026-03-22T12:49:47.999Z</time></trkpt><trkpt lat="44.892449643375784" lon="11.685413834090113"><ele>3.0</ele><time>2026-03-22T12:49:48.999Z</time></trkpt><trkpt lat="44.8922788777165" lon="11.685259540233908"><ele>3.0</ele><time>2026-03-22T12:49:49.999Z</time></trkpt><trkpt lat="44.89210385403944" lon="11.68510773672297"><ele>3.0</ele><time>2026-03-22T12:49:50.999Z</time></trkpt><trkpt lat="44.89191971207955" lon="11.684962878073305"><ele>3.333333333333333</ele><time>2026-03-22T12:49:51.999Z</time></trkpt><trkpt lat="44.89173801302347" lon="11.68483035200133"><ele>3.6666666666666665</ele><time>2026-03-22T12:49:52.999Z</time></trkpt><trkpt lat="44.89155031209891" lon="11.684704815300892"><ele>4.0</ele><time>2026-03-22T12:49:53.999Z</time></trkpt><trkpt lat="44.89136602445559" lon="11.684568645549351"><ele>4.0</ele><time>2026-03-22T12:49:54.999Z</time></trkpt><trkpt lat="44.89118500963841" lon="11.68443093216984"><ele>4.0</ele><time>2026-03-22T12:49:55.999Z</time></trkpt><trkpt lat="44.89101127892965" lon="11.684279802575105"><ele>4.0</ele><time>2026-03-22T12:49:56.999Z</time></trkpt><trkpt lat="44.890848094835576" lon="11.684116377316347"><ele>3.6666666666666665</ele><time>2026-03-22T12:49:57.999Z</time></trkpt><trkpt lat="44.89068653921237" lon="11.683948741515326"><ele>3.333333333333333</ele><time>2026-03-22T12:49:58.999Z</time></trkpt><trkpt lat="44.890524027767135" lon="11.683784171555175"><ele>3.0</ele><time>2026-03-22T12:49:59.999Z</time></trkpt><trkpt lat="44.890365322037184" lon="11.683626490919863"><ele>3.0</ele><time>2026-03-22T12:50:00.999Z</time></trkpt><trkpt lat="44.890211265736426" lon="11.683468255538067"><ele>3.0</ele><time>2026-03-22T12:50:01.999Z</time></trkpt><trkpt lat="44.89008783617901" lon="11.683290839026213"><ele>3.0</ele><time>2026-03-22T12:50:02.999Z</time></trkpt><trkpt lat="44.8899616640354" lon="11.683112883553534"><ele>3.333333333333333</ele><time>2026-03-22T12:50:03.999Z</time></trkpt><trkpt lat="44.88983771863159" lon="11.682925260110835"><ele>3.6666666666666665</ele><time>2026-03-22T12:50:04.999Z</time></trkpt><trkpt lat="44.88975075511075" lon="11.682696052910565"><ele>4.0</ele><time>2026-03-22T12:50:05.999Z</time></trkpt><trkpt lat="44.88967743927334" lon="11.682458590149308"><ele>4.0</ele><time>2026-03-22T12:50:06.999Z</time></trkpt><trkpt lat="44.889611101054925" lon="11.682219393397597"><ele>4.0</ele><time>2026-03-22T12:50:07.999Z</time></trkpt><trkpt lat="44.88954061353978" lon="11.681973418293435"><ele>4.0</ele><time>2026-03-22T12:50:08.999Z</time></trkpt><trkpt lat="44.88946470456856" lon="11.68170992613603"><ele>4.0</ele><time>2026-03-22T12:50:09.999Z</time></trkpt><trkpt lat="44.88939270473354" lon="11.681440007214517"><ele>4.0</ele><time>2026-03-22T12:50:10.999Z</time></trkpt><trkpt lat="44.88931742677056" lon="11.681156141974947"><ele>4.0</ele><time>2026-03-22T12:50:11.999Z</time></trkpt><trkpt lat="44.88925554795127" lon="11.680854529165456"><ele>4.0</ele><time>2026-03-22T12:50:12.999Z</time></trkpt><trkpt lat="44.88918051482088" lon="11.680565382553192"><ele>4.0</ele><time>2026-03-22T12:50:13.999Z</time></trkpt><trkpt lat="44.889107445609895" lon="11.68028945104858"><ele>4.0</ele><time>2026-03-22T12:50:14.999Z</time></trkpt><trkpt lat="44.88902497776854" lon="11.680021581510955"><ele>4.0</ele><time>2026-03-22T12:50:15.999Z</time></trkpt><trkpt lat="44.88889939093538" lon="11.67978660642629"><ele>4.0</ele><time>2026-03-22T12:50:16.999Z</time></trkpt><trkpt lat="44.888781362664396" lon="11.679540255739317"><ele>4.0</ele><time>2026-03-22T12:50:17.999Z</time></trkpt><trkpt lat="44.88865835732683" lon="11.679298814257239"><ele>4.0</ele><time>2026-03-22T12:50:18.999Z</time></trkpt><trkpt lat="44.88853200163053" lon="11.679070671695765"><ele>4.0</ele><time>2026-03-22T12:50:19.999Z</time></trkpt><trkpt lat="44.88842012946885" lon="11.678852851689053"><ele>4.0</ele><time>2026-03-22T12:50:20.999Z</time></trkpt><trkpt lat="44.88830379737858" lon="11.67865274008972"><ele>3.6666666666666665</ele><time>2026-03-22T12:50:21.999Z</time></trkpt><trkpt lat="44.888183966199435" lon="11.678479061295937"><ele>3.333333333333333</ele><time>2026-03-22T12:50:22.999Z</time></trkpt><trkpt lat="44.888052423728354" lon="11.678336615358699"><ele>3.0</ele><time>2026-03-22T12:50:23.999Z</time></trkpt><trkpt lat="44.88791850750591" lon="11.678198483759356"><ele>3.0</ele><time>2026-03-22T12:50:24.999Z</time></trkpt><trkpt lat="44.88778934958548" lon="11.678054825554474"><ele>3.0</ele><time>2026-03-22T12:50:25.999Z</time></trkpt><trkpt lat="44.887607326226615" lon="11.677998624916992"><ele>3.0</ele><time>2026-03-22T12:50:26.999Z</time></trkpt><trkpt lat="44.88742622780966" lon="11.67796263518808"><ele>3.0</ele><time>2026-03-22T12:50:27.999Z</time></trkpt><trkpt lat="44.887237945463696" lon="11.67796993223716"><ele>3.0</ele><time>2026-03-22T12:50:28.999Z</time></trkpt><trkpt lat="44.88706236842769" lon="11.678002072959817"><ele>3.0</ele><time>2026-03-22T12:50:29.999Z</time></trkpt><trkpt lat="44.88690294354292" lon="11.678041029689908"><ele>2.75</ele><time>2026-03-22T12:50:30.999Z</time></trkpt><trkpt lat="44.88675492494677" lon="11.678087186067938"><ele>2.5</ele><time>2026-03-22T12:50:31.999Z</time></trkpt><trkpt lat="44.886619473768015" lon="11.678112597993524"><ele>2.25</ele><time>2026-03-22T12:50:32.999Z</time></trkpt><trkpt lat="44.88649215410092" lon="11.678118217270715"><ele>2.0</ele><time>2026-03-22T12:50:33.999Z</time></trkpt><trkpt lat="44.88637245171091" lon="11.678041268015729"><ele>2.0</ele><time>2026-03-22T12:50:34.999Z</time></trkpt><trkpt lat="44.88625196437311" lon="11.677911702045183"><ele>2.0</ele><time>2026-03-22T12:50:35.999Z</time></trkpt><trkpt lat="44.88613579514238" lon="11.677752687237012"><ele>2.0</ele><time>2026-03-22T12:50:36.999Z</time></trkpt><trkpt lat="44.886035417360056" lon="11.677555625829573"><ele>2.0</ele><time>2026-03-22T12:50:37.999Z</time></trkpt><trkpt lat="44.885957704250025" lon="11.677327355697878"><ele>2.0</ele><time>2026-03-22T12:50:38.999Z</time></trkpt><trkpt lat="44.88589137721953" lon="11.677079327379092"><ele>2.0</ele><time>2026-03-22T12:50:39.999Z</time></trkpt><trkpt lat="44.885842230995614" lon="11.676803638963387"><ele>2.333333333333333</ele><time>2026-03-22T12:50:40.999Z</time></trkpt><trkpt lat="44.88579238652715" lon="11.676524318841413"><ele>2.6666666666666665</ele><time>2026-03-22T12:50:41.999Z</time></trkpt><trkpt lat="44.885752509096974" lon="11.676247780207829"><ele>3.0</ele><time>2026-03-22T12:50:43Z</time></trkpt><trkpt lat="44.88573020946484" lon="11.675989098797942"><ele>3.25</ele><time>2026-03-22T12:50:44Z</time></trkpt><trkpt lat="44.885721022753415" lon="11.67576424812683"><ele>3.5</ele><time>2026-03-22T12:50:45Z</time></trkpt><trkpt lat="44.885718781094994" lon="11.67557606303461"><ele>3.75</ele><time>2026-03-22T12:50:46Z</time></trkpt><trkpt lat="44.88570834964842" lon="11.675393272339832"><ele>4.0</ele><time>2026-03-22T12:50:47Z</time></trkpt><trkpt lat="44.88566734301492" lon="11.675214554305954"><ele>4.0</ele><time>2026-03-22T12:50:48Z</time></trkpt><trkpt lat="44.88559150247256" lon="11.675026994991319"><ele>4.0</ele><time>2026-03-22T12:50:49Z</time></trkpt><trkpt lat="44.88549543165791" lon="11.674843027151706"><ele>4.0</ele><time>2026-03-22T12:50:50.001Z</time></trkpt><trkpt lat="44.885371318709446" lon="11.674667312340588"><ele>4.0</ele><time>2026-03-22T12:50:51.001Z</time></trkpt><trkpt lat="44.88523507181198" lon="11.674490391233803"><ele>4.0</ele><time>2026-03-22T12:50:52Z</time></trkpt><trkpt lat="44.88507265824638" lon="11.674334323693364"><ele>4.0</ele><time>2026-03-22T12:50:53Z</time></trkpt><trkpt lat="44.88489737264672" lon="11.674183256772704"><ele>4.0</ele><time>2026-03-22T12:50:54Z</time></trkpt><trkpt lat="44.884696545983736" lon="11.674048380528404"><ele>4.0</ele><time>2026-03-22T12:50:55Z</time></trkpt><trkpt lat="44.884486525591406" lon="11.673918727589331"><ele>4.0</ele><time>2026-03-22T12:50:56Z</time></trkpt><trkpt lat="44.884284194447275" lon="11.673778285835505"><ele>4.0</ele><time>2026-03-22T12:50:57Z</time></trkpt><trkpt lat="44.88409030694768" lon="11.67361012918478"><ele>3.6666666666666665</ele><time>2026-03-22T12:50:58Z</time></trkpt><trkpt lat="44.88391086209368" lon="11.673438884150931"><ele>3.333333333333333</ele><time>2026-03-22T12:50:59Z</time></trkpt><trkpt lat="44.883740534571935" lon="11.67328872943866"><ele>3.0</ele><time>2026-03-22T12:51:00Z</time></trkpt><trkpt lat="44.8835576620221" lon="11.67316458598728"><ele>2.6666666666666665</ele><time>2026-03-22T12:51:01Z</time></trkpt><trkpt lat="44.883368545255784" lon="11.673072680222846"><ele>2.333333333333333</ele><time>2026-03-22T12:51:02Z</time></trkpt><trkpt lat="44.88317840941439" lon="11.672994208748843"><ele>2.0</ele><time>2026-03-22T12:51:03Z</time></trkpt><trkpt lat="44.883002625389096" lon="11.672892974060064"><ele>2.0</ele><time>2026-03-22T12:51:04Z</time></trkpt><trkpt lat="44.882840316516194" lon="11.672788408978318"><ele>2.0</ele><time>2026-03-22T12:51:05Z</time></trkpt><trkpt lat="44.88269570906152" lon="11.672693918417572"><ele>2.0</ele><time>2026-03-22T12:51:06Z</time></trkpt><trkpt lat="44.88255490496287" lon="11.672632456599503"><ele>2.0</ele><time>2026-03-22T12:51:07Z</time></trkpt><trkpt lat="44.88241470509699" lon="11.672617743500254"><ele>2.0</ele><time>2026-03-22T12:51:08Z</time></trkpt><trkpt lat="44.88227322344715" lon="11.67265014899295"><ele>2.0</ele><time>2026-03-22T12:51:09Z</time></trkpt><trkpt lat="44.882138100787024" lon="11.672712953539955"><ele>2.0</ele><time>2026-03-22T12:51:10Z</time></trkpt><trkpt lat="44.88201941335119" lon="11.672795126138535"><ele>2.5</ele><time>2026-03-22T12:51:11Z</time></trkpt><trkpt lat="44.881919379214224" lon="11.672887193470427"><ele>3.0</ele><time>2026-03-22T12:51:12Z</time></trkpt><trkpt lat="44.881833296708685" lon="11.672992072940868"><ele>3.5</ele><time>2026-03-22T12:51:12.999Z</time></trkpt><trkpt lat="44.881740738685544" lon="11.673095809953123"><ele>4.0</ele><time>2026-03-22T12:51:13.999Z</time></trkpt><trkpt lat="44.88164543665569" lon="11.673171005459682"><ele>4.0</ele><time>2026-03-22T12:51:14.999Z</time></trkpt><trkpt lat="44.88154627012223" lon="11.673186429734983"><ele>4.0</ele><time>2026-03-22T12:51:15.999Z</time></trkpt><trkpt lat="44.881439936490466" lon="11.673139892132788"><ele>4.0</ele><time>2026-03-22T12:51:16.999Z</time></trkpt><trkpt lat="44.8813397397368" lon="11.673033334583838"><ele>4.0</ele><time>2026-03-22T12:51:17.999Z</time></trkpt><trkpt lat="44.88122193040499" lon="11.672910474876819"><ele>4.0</ele><time>2026-03-22T12:51:18.999Z</time></trkpt><trkpt lat="44.88109178155091" lon="11.672779272960728"><ele>4.0</ele><time>2026-03-22T12:51:19.999Z</time></trkpt><trkpt lat="44.880971551228576" lon="11.672600777406856"><ele>4.0</ele><time>2026-03-22T12:51:20.999Z</time></trkpt><trkpt lat="44.88082643827586" lon="11.672445374530096"><ele>4.0</ele><time>2026-03-22T12:51:21.999Z</time></trkpt><trkpt lat="44.88068893880733" lon="11.672297445191425"><ele>4.0</ele><time>2026-03-22T12:51:22.999Z</time></trkpt><trkpt lat="44.8805563100036" lon="11.672150614878975"><ele>4.0</ele><time>2026-03-22T12:51:23.999Z</time></trkpt><trkpt lat="44.88044363660902" lon="11.671989386085595"><ele>4.333333333333333</ele><time>2026-03-22T12:51:24.999Z</time></trkpt><trkpt lat="44.88034419648385" lon="11.671805989319711"><ele>4.666666666666667</ele><time>2026-03-22T12:51:25.999Z</time></trkpt><trkpt lat="44.880243756254764" lon="11.67162318634361"><ele>5.0</ele><time>2026-03-22T12:51:26.999Z</time></trkpt><trkpt lat="44.880164165599126" lon="11.671394896075581"><ele>4.666666666666667</ele><time>2026-03-22T12:51:27.999Z</time></trkpt><trkpt lat="44.88008287396504" lon="11.671172390241402"><ele>4.333333333333333</ele><time>2026-03-22T12:51:28.999Z</time></trkpt><trkpt lat="44.88001830432372" lon="11.670945922171528"><ele>4.0</ele><time>2026-03-22T12:51:29.999Z</time></trkpt><trkpt lat="44.879971376089294" lon="11.67071537096955"><ele>3.6666666666666665</ele><time>2026-03-22T12:51:30.999Z</time></trkpt><trkpt lat="44.87994970118926" lon="11.670478847569466"><ele>3.333333333333333</ele><time>2026-03-22T12:51:31.999Z</time></trkpt><trkpt lat="44.879944583822976" lon="11.670242162549124"><ele>3.0</ele><time>2026-03-22T12:51:32.999Z</time></trkpt><trkpt lat="44.87994470194647" lon="11.669990115245472"><ele>2.6666666666666665</ele><time>2026-03-22T12:51:33.999Z</time></trkpt><trkpt lat="44.87995009449634" lon="11.669745645572716"><ele>2.333333333333333</ele><time>2026-03-22T12:51:34.999Z</time></trkpt><trkpt lat="44.87993520497133" lon="11.669514500193939"><ele>2.0</ele><time>2026-03-22T12:51:35.999Z</time></trkpt><trkpt lat="44.879903763591024" lon="11.669285982348198"><ele>2.0</ele><time>2026-03-22T12:51:36.999Z</time></trkpt><trkpt lat="44.87986529709163" lon="11.66905656129684"><ele>2.0</ele><time>2026-03-22T12:51:37.999Z</time></trkpt><trkpt lat="44.87983792724831" lon="11.668818822812895"><ele>2.0</ele><time>2026-03-22T12:51:38.999Z</time></trkpt><trkpt lat="44.87980050381968" lon="11.668582879364555"><ele>2.6666666666666665</ele><time>2026-03-22T12:51:39.999Z</time></trkpt><trkpt lat="44.87976596561611" lon="11.668352106128166"><ele>3.333333333333333</ele><time>2026-03-22T12:51:40.999Z</time></trkpt><trkpt lat="44.87973253534933" lon="11.668126342231565"><ele>4.0</ele><time>2026-03-22T12:51:41.999Z</time></trkpt><trkpt lat="44.879696683999846" lon="11.667909115392213"><ele>4.0</ele><time>2026-03-22T12:51:42.999Z</time></trkpt><trkpt lat="44.87966446159527" lon="11.667713143407592"><ele>4.0</ele><time>2026-03-22T12:51:43.999Z</time></trkpt><trkpt lat="44.87962722148752" lon="11.667511517226233"><ele>4.0</ele><time>2026-03-22T12:51:44.999Z</time></trkpt><trkpt lat="44.87959340108054" lon="11.667322453421031"><ele>4.0</ele><time>2026-03-22T12:51:45.999Z</time></trkpt><trkpt lat="44.8795541909843" lon="11.667134256781733"><ele>4.0</ele><time>2026-03-22T12:51:46.999Z</time></trkpt><trkpt lat="44.879495358380474" lon="11.666939963684385"><ele>4.0</ele><time>2026-03-22T12:51:47.999Z</time></trkpt><trkpt lat="44.87942931005777" lon="11.66674993229838"><ele>4.0</ele><time>2026-03-22T12:51:48.999Z</time></trkpt><trkpt lat="44.87936008252755" lon="11.66655445921555"><ele>4.0</ele><time>2026-03-22T12:51:49.999Z</time></trkpt><trkpt lat="44.87928691613071" lon="11.666346400906583"><ele>4.0</ele><time>2026-03-22T12:51:50.999Z</time></trkpt><trkpt lat="44.87920763457601" lon="11.666138253812024"><ele>4.0</ele><time>2026-03-22T12:51:51.999Z</time></trkpt><trkpt lat="44.879129505517426" lon="11.66592728361162"><ele>4.333333333333333</ele><time>2026-03-22T12:51:52.999Z</time></trkpt><trkpt lat="44.879045552678846" lon="11.665719738172918"><ele>4.666666666666667</ele><time>2026-03-22T12:51:53.999Z</time></trkpt><trkpt lat="44.87895775082402" lon="11.665521218862112"><ele>5.0</ele><time>2026-03-22T12:51:54.999Z</time></trkpt><trkpt lat="44.87886552396279" lon="11.66533681733545"><ele>4.666666666666667</ele><time>2026-03-22T12:51:55.999Z</time></trkpt><trkpt lat="44.87877635977042" lon="11.665156533418651"><ele>4.333333333333333</ele><time>2026-03-22T12:51:56.999Z</time></trkpt><trkpt lat="44.87869393250345" lon="11.664975678286753"><ele>4.0</ele><time>2026-03-22T12:51:57.999Z</time></trkpt><trkpt lat="44.87861844074995" lon="11.664802043815891"><ele>4.0</ele><time>2026-03-22T12:51:58.999Z</time></trkpt><trkpt lat="44.87855030344596" lon="11.664642470698437"><ele>4.0</ele><time>2026-03-22T12:51:59.999Z</time></trkpt><trkpt lat="44.878497002838095" lon="11.664497628823444"><ele>4.0</ele><time>2026-03-22T12:52:00.999Z</time></trkpt><trkpt lat="44.87844932719673" lon="11.664373419796108"><ele>4.0</ele><time>2026-03-22T12:52:01.999Z</time></trkpt><trkpt lat="44.87840752693082" lon="11.664253583417786"><ele>4.0</ele><time>2026-03-22T12:52:02.999Z</time></trkpt><trkpt lat="44.87836356896378" lon="11.664172367192949"><ele>4.2</ele><time>2026-03-22T12:52:03.999Z</time></trkpt><trkpt lat="44.878356572283586" lon="11.664081133294717"><ele>4.4</ele><time>2026-03-22T12:52:04.999Z</time></trkpt><trkpt lat="44.87832733628446" lon="11.663937200713368"><ele>4.6</ele><time>2026-03-22T12:52:06.999Z</time></trkpt><trkpt lat="44.878299744276504" lon="11.663774554106789"><ele>4.8</ele><time>2026-03-22T12:52:08.999Z</time></trkpt><trkpt lat="44.87828387197668" lon="11.663672417794995"><ele>5.0</ele><time>2026-03-22T12:52:09.999Z</time></trkpt><trkpt lat="44.87825274437636" lon="11.663549657824806"><ele>5.5</ele><time>2026-03-22T12:52:10.999Z</time></trkpt><trkpt lat="44.87823419438262" lon="11.66340288507785"><ele>6.0</ele><time>2026-03-22T12:52:11.999Z</time></trkpt><trkpt lat="44.87821276170633" lon="11.663225276842981"><ele>6.5</ele><time>2026-03-22T12:52:12.999Z</time></trkpt><trkpt lat="44.878188837046295" lon="11.663021379779899"><ele>7.0</ele><time>2026-03-22T12:52:13.999Z</time></trkpt><trkpt lat="44.87816274093638" lon="11.662798976607759"><ele>7.0</ele><time>2026-03-22T12:52:14.999Z</time></trkpt><trkpt lat="44.87813626372762" lon="11.66256914875371"><ele>7.0</ele><time>2026-03-22T12:52:15.999Z</time></trkpt><trkpt lat="44.87811763907672" lon="11.66232588106014"><ele>7.0</ele><time>2026-03-22T12:52:16.999Z</time></trkpt><trkpt lat="44.87808700267746" lon="11.662086391036532"><ele>6.333333333333334</ele><time>2026-03-22T12:52:17.999Z</time></trkpt><trkpt lat="44.8780570846309" lon="11.6618360954893"><ele>5.666666666666667</ele><time>2026-03-22T12:52:18.999Z</time></trkpt><trkpt lat="44.87803129257556" lon="11.66158116185818"><ele>5.0</ele><time>2026-03-22T12:52:19.999Z</time></trkpt><trkpt lat="44.877998772184505" lon="11.661326783326887"><ele>4.333333333333334</ele><time>2026-03-22T12:52:20.999Z</time></trkpt><trkpt lat="44.877956400419954" lon="11.661074387387217"><ele>3.666666666666667</ele><time>2026-03-22T12:52:21.999Z</time></trkpt><trkpt lat="44.877905676294056" lon="11.660824545375174"><ele>3.0</ele><time>2026-03-22T12:52:22.999Z</time></trkpt><trkpt lat="44.8778457940663" lon="11.660577987369885"><ele>3.0</ele><time>2026-03-22T12:52:23.999Z</time></trkpt><trkpt lat="44.87777287678996" lon="11.66035433423027"><ele>3.0</ele><time>2026-03-22T12:52:24.999Z</time></trkpt><trkpt lat="44.87768738864807" lon="11.660140476811405"><ele>3.0</ele><time>2026-03-22T12:52:25.999Z</time></trkpt><trkpt lat="44.87759209866876" lon="11.659934798823071"><ele>3.0</ele><time>2026-03-22T12:52:26.999Z</time></trkpt><trkpt lat="44.87748153396936" lon="11.65973802671355"><ele>3.0</ele><time>2026-03-22T12:52:27.999Z</time></trkpt><trkpt lat="44.87735451264848" lon="11.659552136320547"><ele>3.0</ele><time>2026-03-22T12:52:28.999Z</time></trkpt><trkpt lat="44.877219848704065" lon="11.659354049891773"><ele>3.0</ele><time>2026-03-22T12:52:29.999Z</time></trkpt><trkpt lat="44.8770772901514" lon="11.659160832246723"><ele>3.0</ele><time>2026-03-22T12:52:30.999Z</time></trkpt><trkpt lat="44.87693534115459" lon="11.658962171669467"><ele>3.0</ele><time>2026-03-22T12:52:31.999Z</time></trkpt><trkpt lat="44.87679476426433" lon="11.658760918484534"><ele>3.0</ele><time>2026-03-22T12:52:32.999Z</time></trkpt><trkpt lat="44.87664235080977" lon="11.658587362267797"><ele>3.0</ele><time>2026-03-22T12:52:33.998Z</time></trkpt><trkpt lat="44.876475544734355" lon="11.658433342568005"><ele>3.0</ele><time>2026-03-22T12:52:34.998Z</time></trkpt><trkpt lat="44.87630630498685" lon="11.65830324788726"><ele>3.0</ele><time>2026-03-22T12:52:35.998Z</time></trkpt><trkpt lat="44.8761299605724" lon="11.658157806018876"><ele>3.0</ele><time>2026-03-22T12:52:36.998Z</time></trkpt><trkpt lat="44.87595890424629" lon="11.658013688779869"><ele>3.0</ele><time>2026-03-22T12:52:37.998Z</time></trkpt><trkpt lat="44.87579167255213" lon="11.657867185047692"><ele>3.0</ele><time>2026-03-22T12:52:38.998Z</time></trkpt><trkpt lat="44.87563593906111" lon="11.657710182708698"><ele>3.0</ele><time>2026-03-22T12:52:39.998Z</time></trkpt><trkpt lat="44.8755040437977" lon="11.657507914201025"><ele>3.0</ele><time>2026-03-22T12:52:40.998Z</time></trkpt><trkpt lat="44.87537840051484" lon="11.657289083947644"><ele>3.0</ele><time>2026-03-22T12:52:41.998Z</time></trkpt><trkpt lat="44.875258426264004" lon="11.657046360804383"><ele>3.0</ele><time>2026-03-22T12:52:42.998Z</time></trkpt><trkpt lat="44.87515008459447" lon="11.656781927554345"><ele>3.0</ele><time>2026-03-22T12:52:43.998Z</time></trkpt><trkpt lat="44.87504234000746" lon="11.656520673246407"><ele>3.333333333333333</ele><time>2026-03-22T12:52:44.998Z</time></trkpt><trkpt lat="44.87493846239545" lon="11.656264693636102"><ele>3.6666666666666665</ele><time>2026-03-22T12:52:45.998Z</time></trkpt><trkpt lat="44.87483814322022" lon="11.656016665193228"><ele>4.0</ele><time>2026-03-22T12:52:46.998Z</time></trkpt><trkpt lat="44.87474320054743" lon="11.655783470142747"><ele>4.0</ele><time>2026-03-22T12:52:47.998Z</time></trkpt><trkpt lat="44.8746576988753" lon="11.655561835595856"><ele>4.0</ele><time>2026-03-22T12:52:49Z</time></trkpt><trkpt lat="44.87458928770087" lon="11.65533186050418"><ele>4.0</ele><time>2026-03-22T12:52:50Z</time></trkpt><trkpt lat="44.87455129624015" lon="11.655093355571816"><ele>3.333333333333333</ele><time>2026-03-22T12:52:51Z</time></trkpt><trkpt lat="44.87453222698227" lon="11.654835941164057"><ele>2.6666666666666665</ele><time>2026-03-22T12:52:52Z</time></trkpt><trkpt lat="44.874540278986544" lon="11.654558934502012"><ele>2.0</ele><time>2026-03-22T12:52:53Z</time></trkpt><trkpt lat="44.87456108219777" lon="11.65427320203177"><ele>2.0</ele><time>2026-03-22T12:52:54Z</time></trkpt><trkpt lat="44.874575797093854" lon="11.653988290268654"><ele>2.0</ele><time>2026-03-22T12:52:55Z</time></trkpt><trkpt lat="44.87458650436918" lon="11.653709305176507"><ele>2.0</ele><time>2026-03-22T12:52:56Z</time></trkpt><trkpt lat="44.87459907869578" lon="11.653436859432103"><ele>2.6666666666666665</ele><time>2026-03-22T12:52:57Z</time></trkpt><trkpt lat="44.87461446061772" lon="11.653170618626417"><ele>3.333333333333333</ele><time>2026-03-22T12:52:58Z</time></trkpt><trkpt lat="44.87462832893309" lon="11.652918170689146"><ele>4.0</ele><time>2026-03-22T12:52:59Z</time></trkpt><trkpt lat="44.874642793831484" lon="11.652671311654261"><ele>4.0</ele><time>2026-03-22T12:53:00Z</time></trkpt><trkpt lat="44.87465467842624" lon="11.652428995801255"><ele>4.0</ele><time>2026-03-22T12:53:01Z</time></trkpt><trkpt lat="44.87466579904706" lon="11.65218934927278"><ele>4.0</ele><time>2026-03-22T12:53:02Z</time></trkpt><trkpt lat="44.874675813839836" lon="11.65195281037292"><ele>4.0</ele><time>2026-03-22T12:53:03Z</time></trkpt><trkpt lat="44.874686852282935" lon="11.651722526459734"><ele>4.0</ele><time>2026-03-22T12:53:04Z</time></trkpt><trkpt lat="44.87469656310613" lon="11.651496491844497"><ele>4.0</ele><time>2026-03-22T12:53:05Z</time></trkpt><trkpt lat="44.87470469992786" lon="11.651278068095028"><ele>3.75</ele><time>2026-03-22T12:53:06Z</time></trkpt><trkpt lat="44.8747144102055" lon="11.651068005173258"><ele>3.5</ele><time>2026-03-22T12:53:07Z</time></trkpt><trkpt lat="44.874724428784155" lon="11.650878818108852"><ele>3.25</ele><time>2026-03-22T12:53:08Z</time></trkpt><trkpt lat="44.87473314064553" lon="11.650699103471082"><ele>3.0</ele><time>2026-03-22T12:53:09Z</time></trkpt><trkpt lat="44.87473942213181" lon="11.650529658780563"><ele>3.0</ele><time>2026-03-22T12:53:10Z</time></trkpt><trkpt lat="44.874748445699566" lon="11.650385270440863"><ele>3.0</ele><time>2026-03-22T12:53:11Z</time></trkpt><trkpt lat="44.874758185566655" lon="11.650272301152073"><ele>3.0</ele><time>2026-03-22T12:53:12Z</time></trkpt><trkpt lat="44.87476911989973" lon="11.650179529635016"><ele>3.0</ele><time>2026-03-22T12:53:13Z</time></trkpt><trkpt lat="44.87477878530593" lon="11.650071226298524"><ele>3.0</ele><time>2026-03-22T12:53:15Z</time></trkpt><trkpt lat="44.87476393078831" lon="11.649958770476239"><ele>3.0</ele><time>2026-03-22T12:53:18Z</time></trkpt><trkpt lat="44.874661565087344" lon="11.64992030501459"><ele>3.1666666666666665</ele><time>2026-03-22T12:53:20Z</time></trkpt><trkpt lat="44.87458121962258" lon="11.649908014490977"><ele>3.333333333333333</ele><time>2026-03-22T12:53:21Z</time></trkpt><trkpt lat="44.87450129482046" lon="11.649910008517864"><ele>3.5</ele><time>2026-03-22T12:53:22Z</time></trkpt><trkpt lat="44.874420980191616" lon="11.649912012272631"><ele>3.6666666666666665</ele><time>2026-03-22T12:53:23Z</time></trkpt><trkpt lat="44.87432761666549" lon="11.649914341581923"><ele>3.833333333333333</ele><time>2026-03-22T12:53:24Z</time></trkpt><trkpt lat="44.87421770799215" lon="11.649917083670754"><ele>4.0</ele><time>2026-03-22T12:53:25Z</time></trkpt><trkpt lat="44.87409649510533" lon="11.649941996489028"><ele>4.5</ele><time>2026-03-22T12:53:26Z</time></trkpt><trkpt lat="44.87397592685314" lon="11.649931852998183"><ele>5.0</ele><time>2026-03-22T12:53:27Z</time></trkpt><trkpt lat="44.87384525788183" lon="11.649934033729892"><ele>5.5</ele><time>2026-03-22T12:53:28Z</time></trkpt><trkpt lat="44.87370522863016" lon="11.649942155250216"><ele>6.0</ele><time>2026-03-22T12:53:29Z</time></trkpt><trkpt lat="44.87356426886772" lon="11.6499472665231"><ele>6.0</ele><time>2026-03-22T12:53:30Z</time></trkpt><trkpt lat="44.873425546891255" lon="11.64995054976226"><ele>6.0</ele><time>2026-03-22T12:53:31Z</time></trkpt><trkpt lat="44.87328071403763" lon="11.64995516784894"><ele>6.0</ele><time>2026-03-22T12:53:32Z</time></trkpt><trkpt lat="44.87313052816676" lon="11.649962468094849"><ele>6.0</ele><time>2026-03-22T12:53:33Z</time></trkpt><trkpt lat="44.8729802697469" lon="11.649971883657694"><ele>6.0</ele><time>2026-03-22T12:53:34Z</time></trkpt><trkpt lat="44.87282848802481" lon="11.649954663755851"><ele>6.0</ele><time>2026-03-22T12:53:35Z</time></trkpt><trkpt lat="44.87267788543224" lon="11.649958773185064"><ele>6.0</ele><time>2026-03-22T12:53:36Z</time></trkpt><trkpt lat="44.872521617686814" lon="11.649963531553494"><ele>6.0</ele><time>2026-03-22T12:53:37Z</time></trkpt><trkpt lat="44.87235434040201" lon="11.649968625162618"><ele>6.0</ele><time>2026-03-22T12:53:38Z</time></trkpt><trkpt lat="44.87219235703286" lon="11.649973557570345"><ele>6.0</ele><time>2026-03-22T12:53:39Z</time></trkpt><trkpt lat="44.87201925306543" lon="11.64997882860435"><ele>6.0</ele><time>2026-03-22T12:53:40Z</time></trkpt><trkpt lat="44.871844222183405" lon="11.649984160220336"><ele>6.0</ele><time>2026-03-22T12:53:41Z</time></trkpt><trkpt lat="44.87166902911001" lon="11.64998949486896"><ele>6.0</ele><time>2026-03-22T12:53:42Z</time></trkpt><trkpt lat="44.87148186583842" lon="11.649995194009687"><ele>6.0</ele><time>2026-03-22T12:53:43Z</time></trkpt><trkpt lat="44.871287360304855" lon="11.650001835960747"><ele>6.0</ele><time>2026-03-22T12:53:44Z</time></trkpt><trkpt lat="44.87108159331849" lon="11.650008077360742"><ele>6.0</ele><time>2026-03-22T12:53:45Z</time></trkpt><trkpt lat="44.870872631628366" lon="11.650014183166613"><ele>6.0</ele><time>2026-03-22T12:53:46Z</time></trkpt><trkpt lat="44.870658821177656" lon="11.650020413905988"><ele>6.0</ele><time>2026-03-22T12:53:46.999Z</time></trkpt><trkpt lat="44.87044937183345" lon="11.65002651755725"><ele>6.0</ele><time>2026-03-22T12:53:47.999Z</time></trkpt><trkpt lat="44.870241296962305" lon="11.650032581152619"><ele>5.333333333333333</ele><time>2026-03-22T12:53:48.999Z</time></trkpt><trkpt lat="44.87003906992631" lon="11.650038474333373"><ele>4.666666666666666</ele><time>2026-03-22T12:53:49.999Z</time></trkpt><trkpt lat="44.869831238609244" lon="11.650044530833036"><ele>4.0</ele><time>2026-03-22T12:53:50.999Z</time></trkpt><trkpt lat="44.869624302820206" lon="11.650050561233567"><ele>4.0</ele><time>2026-03-22T12:53:51.999Z</time></trkpt><trkpt lat="44.86942148225032" lon="11.650056471709883"><ele>4.0</ele><time>2026-03-22T12:53:52.999Z</time></trkpt><trkpt lat="44.86921881509343" lon="11.650062377719891"><ele>4.0</ele><time>2026-03-22T12:53:53.999Z</time></trkpt><trkpt lat="44.86902050033047" lon="11.65006795544963"><ele>4.0</ele><time>2026-03-22T12:53:54.999Z</time></trkpt><trkpt lat="44.86883220341502" lon="11.650072879682854"><ele>4.0</ele><time>2026-03-22T12:53:55.999Z</time></trkpt><trkpt lat="44.868649352278155" lon="11.650077661506648"><ele>4.0</ele><time>2026-03-22T12:53:56.999Z</time></trkpt><trkpt lat="44.8684698855259" lon="11.65008085244151"><ele>4.0</ele><time>2026-03-22T12:53:57.999Z</time></trkpt><trkpt lat="44.8682861290978" lon="11.650083045836826"><ele>4.0</ele><time>2026-03-22T12:53:58.999Z</time></trkpt><trkpt lat="44.86810074675984" lon="11.65008264580719"><ele>4.0</ele><time>2026-03-22T12:53:59.999Z</time></trkpt><trkpt lat="44.86790352992858" lon="11.650081696774665"><ele>4.0</ele><time>2026-03-22T12:54:00.999Z</time></trkpt><trkpt lat="44.86771004563212" lon="11.650078850167775"><ele>4.0</ele><time>2026-03-22T12:54:01.999Z</time></trkpt><trkpt lat="44.86751886056476" lon="11.650076037387107"><ele>4.0</ele><time>2026-03-22T12:54:02.999Z</time></trkpt><trkpt lat="44.867346379909584" lon="11.650071676363556"><ele>4.333333333333333</ele><time>2026-03-22T12:54:03.999Z</time></trkpt><trkpt lat="44.867182708192914" lon="11.650065428986611"><ele>4.666666666666667</ele><time>2026-03-22T12:54:04.999Z</time></trkpt><trkpt lat="44.867036274875346" lon="11.65004328908002"><ele>5.0</ele><time>2026-03-22T12:54:05.999Z</time></trkpt><trkpt lat="44.866901320817625" lon="11.64999733261458"><ele>5.666666666666667</ele><time>2026-03-22T12:54:06.999Z</time></trkpt><trkpt lat="44.866766186568114" lon="11.649904868603533"><ele>6.333333333333334</ele><time>2026-03-22T12:54:07.999Z</time></trkpt><trkpt lat="44.86664436619511" lon="11.649778523665184"><ele>7.0</ele><time>2026-03-22T12:54:08.999Z</time></trkpt><trkpt lat="44.866520390993564" lon="11.649613764266995"><ele>6.666666666666667</ele><time>2026-03-22T12:54:09.999Z</time></trkpt><trkpt lat="44.86639139436165" lon="11.649446839242694"><ele>6.333333333333334</ele><time>2026-03-22T12:54:10.999Z</time></trkpt><trkpt lat="44.8662611570143" lon="11.649279258957502"><ele>6.0</ele><time>2026-03-22T12:54:11.999Z</time></trkpt><trkpt lat="44.86612417827571" lon="11.64910368093344"><ele>6.0</ele><time>2026-03-22T12:54:12.999Z</time></trkpt><trkpt lat="44.86598732032783" lon="11.648928257376813"><ele>6.0</ele><time>2026-03-22T12:54:13.999Z</time></trkpt><trkpt lat="44.865859630425774" lon="11.648762752153592"><ele>6.0</ele><time>2026-03-22T12:54:14.999Z</time></trkpt><trkpt lat="44.86573959615153" lon="11.648606981182423"><ele>5.666666666666667</ele><time>2026-03-22T12:54:15.999Z</time></trkpt><trkpt lat="44.86562541967624" lon="11.648458183220958"><ele>5.333333333333334</ele><time>2026-03-22T12:54:16.999Z</time></trkpt><trkpt lat="44.865509291538466" lon="11.648305759351489"><ele>5.0</ele><time>2026-03-22T12:54:17.999Z</time></trkpt><trkpt lat="44.86538613378709" lon="11.64814410847242"><ele>5.0</ele><time>2026-03-22T12:54:18.999Z</time></trkpt><trkpt lat="44.865261605384966" lon="11.647981186620907"><ele>5.0</ele><time>2026-03-22T12:54:19.999Z</time></trkpt><trkpt lat="44.8651296694034" lon="11.64780988103081"><ele>5.0</ele><time>2026-03-22T12:54:20.999Z</time></trkpt><trkpt lat="44.8649970944257" lon="11.64763638456778"><ele>5.0</ele><time>2026-03-22T12:54:21.999Z</time></trkpt><trkpt lat="44.86486850586124" lon="11.647466049885043"><ele>5.0</ele><time>2026-03-22T12:54:22.999Z</time></trkpt><trkpt lat="44.86473952974164" lon="11.647295202490636"><ele>5.0</ele><time>2026-03-22T12:54:23.999Z</time></trkpt><trkpt lat="44.86461814387573" lon="11.647138379172148"><ele>5.0</ele><time>2026-03-22T12:54:24.999Z</time></trkpt><trkpt lat="44.86450986816019" lon="11.646998534353978"><ele>5.0</ele><time>2026-03-22T12:54:25.999Z</time></trkpt><trkpt lat="44.86441194324522" lon="11.646872058228857"><ele>5.0</ele><time>2026-03-22T12:54:26.999Z</time></trkpt><trkpt lat="44.86431810624704" lon="11.646750862115768"><ele>5.0</ele><time>2026-03-22T12:54:27.999Z</time></trkpt><trkpt lat="44.864241909599215" lon="11.646652449430414"><ele>5.2</ele><time>2026-03-22T12:54:28.999Z</time></trkpt><trkpt lat="44.86417220802184" lon="11.646562425441806"><ele>5.4</ele><time>2026-03-22T12:54:29.999Z</time></trkpt><trkpt lat="44.864100257448854" lon="11.646472560333544"><ele>5.6</ele><time>2026-03-22T12:54:30.999Z</time></trkpt><trkpt lat="44.864019309163396" lon="11.646382452256447"><ele>5.8</ele><time>2026-03-22T12:54:31.999Z</time></trkpt><trkpt lat="44.863923648954774" lon="11.646291927385645"><ele>6.0</ele><time>2026-03-22T12:54:32.999Z</time></trkpt><trkpt lat="44.863811630132325" lon="11.646228897947752"><ele>6.0</ele><time>2026-03-22T12:54:33.999Z</time></trkpt><trkpt lat="44.86369101245861" lon="11.646189305492056"><ele>6.0</ele><time>2026-03-22T12:54:34.999Z</time></trkpt><trkpt lat="44.86357390965371" lon="11.646157169035757"><ele>6.0</ele><time>2026-03-22T12:54:35.999Z</time></trkpt><trkpt lat="44.86345435006637" lon="11.64614542092093"><ele>6.0</ele><time>2026-03-22T12:54:36.999Z</time></trkpt><trkpt lat="44.863349827624354" lon="11.646098290638449"><ele>5.75</ele><time>2026-03-22T12:54:37.999Z</time></trkpt><trkpt lat="44.86321926445153" lon="11.646061066271594"><ele>5.5</ele><time>2026-03-22T12:54:38.999Z</time></trkpt><trkpt lat="44.863077310391816" lon="11.646026371345368"><ele>5.25</ele><time>2026-03-22T12:54:39.999Z</time></trkpt><trkpt lat="44.862928345779984" lon="11.645989225398978"><ele>5.0</ele><time>2026-03-22T12:54:40.999Z</time></trkpt><trkpt lat="44.86277006103431" lon="11.645950130400916"><ele>5.333333333333334</ele><time>2026-03-22T12:54:41.999Z</time></trkpt><trkpt lat="44.86260807888514" lon="11.645919231483425"><ele>5.666666666666667</ele><time>2026-03-22T12:54:42.999Z</time></trkpt><trkpt lat="44.86244157222048" lon="11.645870432163962"><ele>6.0</ele><time>2026-03-22T12:54:43.999Z</time></trkpt><trkpt lat="44.86227120789421" lon="11.645821127087881"><ele>6.0</ele><time>2026-03-22T12:54:44.999Z</time></trkpt><trkpt lat="44.86209737405502" lon="11.645777342833963"><ele>6.0</ele><time>2026-03-22T12:54:45.999Z</time></trkpt><trkpt lat="44.861925327095626" lon="11.645732378208047"><ele>6.0</ele><time>2026-03-22T12:54:46.999Z</time></trkpt><trkpt lat="44.86175455077487" lon="11.645701637336929"><ele>5.666666666666667</ele><time>2026-03-22T12:54:47.999Z</time></trkpt><trkpt lat="44.86158422718325" lon="11.645669751672756"><ele>5.333333333333334</ele><time>2026-03-22T12:54:48.999Z</time></trkpt><trkpt lat="44.86142119094613" lon="11.64563302864005"><ele>5.0</ele><time>2026-03-22T12:54:49.999Z</time></trkpt><trkpt lat="44.86125880345449" lon="11.645586853360037"><ele>5.0</ele><time>2026-03-22T12:54:50.999Z</time></trkpt><trkpt lat="44.86109796115776" lon="11.645550103105615"><ele>5.0</ele><time>2026-03-22T12:54:51.999Z</time></trkpt><trkpt lat="44.86094690306311" lon="11.645515110166919"><ele>5.0</ele><time>2026-03-22T12:54:52.999Z</time></trkpt><trkpt lat="44.86079436977945" lon="11.645480370473976"><ele>4.75</ele><time>2026-03-22T12:54:53.999Z</time></trkpt><trkpt lat="44.86064610693321" lon="11.645444799799378"><ele>4.5</ele><time>2026-03-22T12:54:55Z</time></trkpt><trkpt lat="44.86050448803145" lon="11.645409074793776"><ele>4.25</ele><time>2026-03-22T12:54:56Z</time></trkpt><trkpt lat="44.86035679548868" lon="11.645380124963037"><ele>4.0</ele><time>2026-03-22T12:54:57Z</time></trkpt><trkpt lat="44.860225917210116" lon="11.645332145682943"><ele>4.333333333333333</ele><time>2026-03-22T12:54:58Z</time></trkpt><trkpt lat="44.86009513109718" lon="11.645237316112397"><ele>4.666666666666667</ele><time>2026-03-22T12:54:59Z</time></trkpt><trkpt lat="44.85995686657582" lon="11.645126259104437"><ele>5.0</ele><time>2026-03-22T12:55:00Z</time></trkpt><trkpt lat="44.85981631628942" lon="11.644997252737888"><ele>5.0</ele><time>2026-03-22T12:55:01Z</time></trkpt><trkpt lat="44.85967024286669" lon="11.64486741844809"><ele>5.0</ele><time>2026-03-22T12:55:02Z</time></trkpt><trkpt lat="44.85951875725676" lon="11.644734982202074"><ele>5.0</ele><time>2026-03-22T12:55:03Z</time></trkpt><trkpt lat="44.8593742348598" lon="11.64458129771374"><ele>4.666666666666667</ele><time>2026-03-22T12:55:04Z</time></trkpt><trkpt lat="44.85922682338482" lon="11.64444762993677"><ele>4.333333333333333</ele><time>2026-03-22T12:55:05Z</time></trkpt><trkpt lat="44.859075033778076" lon="11.644309865142242"><ele>4.0</ele><time>2026-03-22T12:55:06Z</time></trkpt><trkpt lat="44.85890814329761" lon="11.644184798532764"><ele>4.0</ele><time>2026-03-22T12:55:07Z</time></trkpt><trkpt lat="44.85875962828192" lon="11.644023602083946"><ele>4.0</ele><time>2026-03-22T12:55:08Z</time></trkpt><trkpt lat="44.858600534200114" lon="11.643879207793576"><ele>4.0</ele><time>2026-03-22T12:55:09Z</time></trkpt><trkpt lat="44.85844580857849" lon="11.643738778327656"><ele>4.0</ele><time>2026-03-22T12:55:10Z</time></trkpt><trkpt lat="44.858298314957295" lon="11.643596965270717"><ele>4.0</ele><time>2026-03-22T12:55:11Z</time></trkpt><trkpt lat="44.85815236433366" lon="11.643457753702172"><ele>4.0</ele><time>2026-03-22T12:55:12Z</time></trkpt><trkpt lat="44.85800743880987" lon="11.643317791330608"><ele>4.0</ele><time>2026-03-22T12:55:13Z</time></trkpt><trkpt lat="44.85786668866054" lon="11.643191417141482"><ele>4.0</ele><time>2026-03-22T12:55:14Z</time></trkpt><trkpt lat="44.85772668123731" lon="11.643067250510473"><ele>4.0</ele><time>2026-03-22T12:55:15Z</time></trkpt><trkpt lat="44.857584670380085" lon="11.642951720799104"><ele>4.0</ele><time>2026-03-22T12:55:16Z</time></trkpt><trkpt lat="44.857445816193334" lon="11.642831397110815"><ele>4.0</ele><time>2026-03-22T12:55:17Z</time></trkpt><trkpt lat="44.8573150822674" lon="11.64271697694623"><ele>4.0</ele><time>2026-03-22T12:55:18Z</time></trkpt><trkpt lat="44.857187886028214" lon="11.642614801088778"><ele>4.0</ele><time>2026-03-22T12:55:19Z</time></trkpt><trkpt lat="44.85707919249404" lon="11.64249678305223"><ele>4.0</ele><time>2026-03-22T12:55:20Z</time></trkpt><trkpt lat="44.856965806521806" lon="11.642417248060465"><ele>4.0</ele><time>2026-03-22T12:55:21Z</time></trkpt><trkpt lat="44.85686487179259" lon="11.642304875304424"><ele>4.0</ele><time>2026-03-22T12:55:22Z</time></trkpt><trkpt lat="44.85675459163357" lon="11.642231913339078"><ele>4.0</ele><time>2026-03-22T12:55:23Z</time></trkpt><trkpt lat="44.85665139349952" lon="11.642107761117604"><ele>4.0</ele><time>2026-03-22T12:55:24Z</time></trkpt><trkpt lat="44.85653957058398" lon="11.642002647622862"><ele>4.0</ele><time>2026-03-22T12:55:25Z</time></trkpt><trkpt lat="44.85642559714387" lon="11.641907050481226"><ele>4.0</ele><time>2026-03-22T12:55:26Z</time></trkpt><trkpt lat="44.856321331080565" lon="11.641777031127107"><ele>4.25</ele><time>2026-03-22T12:55:27Z</time></trkpt><trkpt lat="44.856212691646306" lon="11.641653838535346"><ele>4.5</ele><time>2026-03-22T12:55:28Z</time></trkpt><trkpt lat="44.8560998763809" lon="11.641513876794868"><ele>4.75</ele><time>2026-03-22T12:55:29Z</time></trkpt><trkpt lat="44.85597615037202" lon="11.641371484198782"><ele>5.0</ele><time>2026-03-22T12:55:30Z</time></trkpt><trkpt lat="44.85585422346147" lon="11.641215149410966"><ele>4.666666666666667</ele><time>2026-03-22T12:55:31Z</time></trkpt><trkpt lat="44.85572896727177" lon="11.641068368782703"><ele>4.333333333333333</ele><time>2026-03-22T12:55:32Z</time></trkpt><trkpt lat="44.85559073158373" lon="11.640928151478283"><ele>4.0</ele><time>2026-03-22T12:55:33Z</time></trkpt><trkpt lat="44.85546392041596" lon="11.640779005641065"><ele>4.0</ele><time>2026-03-22T12:55:34Z</time></trkpt><trkpt lat="44.85534482284909" lon="11.640616610926296"><ele>4.0</ele><time>2026-03-22T12:55:35Z</time></trkpt><trkpt lat="44.85521538232216" lon="11.640490046269527"><ele>4.0</ele><time>2026-03-22T12:55:36Z</time></trkpt><trkpt lat="44.85511349624761" lon="11.64034358007769"><ele>4.0</ele><time>2026-03-22T12:55:37Z</time></trkpt><trkpt lat="44.854999187938375" lon="11.64020772487435"><ele>4.0</ele><time>2026-03-22T12:55:38Z</time></trkpt><trkpt lat="44.854886388503346" lon="11.64007578008269"><ele>4.0</ele><time>2026-03-22T12:55:39Z</time></trkpt><trkpt lat="44.85476340103907" lon="11.639931064541678"><ele>4.0</ele><time>2026-03-22T12:55:40Z</time></trkpt><trkpt lat="44.8546455989288" lon="11.639788847806878"><ele>4.0</ele><time>2026-03-22T12:55:41Z</time></trkpt><trkpt lat="44.854515016779935" lon="11.639662942746673"><ele>4.0</ele><time>2026-03-22T12:55:42Z</time></trkpt><trkpt lat="44.854389056581816" lon="11.639512558837422"><ele>4.0</ele><time>2026-03-22T12:55:43Z</time></trkpt><trkpt lat="44.854260313386554" lon="11.639359006246071"><ele>4.0</ele><time>2026-03-22T12:55:44Z</time></trkpt><trkpt lat="44.85412925851066" lon="11.6391993207937"><ele>4.0</ele><time>2026-03-22T12:55:45Z</time></trkpt><trkpt lat="44.8539972653272" lon="11.639042023593303"><ele>4.0</ele><time>2026-03-22T12:55:46Z</time></trkpt><trkpt lat="44.85386661468631" lon="11.638894331152619"><ele>4.0</ele><time>2026-03-22T12:55:47Z</time></trkpt><trkpt lat="44.85375224768055" lon="11.638729122440523"><ele>4.0</ele><time>2026-03-22T12:55:48Z</time></trkpt><trkpt lat="44.85361726958316" lon="11.638595664136073"><ele>3.6666666666666665</ele><time>2026-03-22T12:55:49Z</time></trkpt><trkpt lat="44.85349229445614" lon="11.63844368352295"><ele>3.333333333333333</ele><time>2026-03-22T12:55:50Z</time></trkpt><trkpt lat="44.85336300987165" lon="11.638293135536633"><ele>3.0</ele><time>2026-03-22T12:55:51Z</time></trkpt><trkpt lat="44.85323767729132" lon="11.63814782382213"><ele>3.0</ele><time>2026-03-22T12:55:52Z</time></trkpt><trkpt lat="44.853121540951086" lon="11.638012357275391"><ele>3.0</ele><time>2026-03-22T12:55:53Z</time></trkpt><trkpt lat="44.85303109517258" lon="11.63787338092493"><ele>3.0</ele><time>2026-03-22T12:55:54Z</time></trkpt><trkpt lat="44.85292827107965" lon="11.637770912641809"><ele>3.0</ele><time>2026-03-22T12:55:55Z</time></trkpt><trkpt lat="44.852812843268275" lon="11.637692604949523"><ele>2.6666666666666665</ele><time>2026-03-22T12:55:56Z</time></trkpt><trkpt lat="44.85266631047816" lon="11.637667627310202"><ele>2.333333333333333</ele><time>2026-03-22T12:55:56.999Z</time></trkpt><trkpt lat="44.852499816837806" lon="11.637684016419646"><ele>2.0</ele><time>2026-03-22T12:55:57.999Z</time></trkpt><trkpt lat="44.852338994179384" lon="11.637719122963631"><ele>2.6666666666666665</ele><time>2026-03-22T12:55:58.999Z</time></trkpt><trkpt lat="44.85218060185393" lon="11.637753398739575"><ele>3.333333333333333</ele><time>2026-03-22T12:55:59.999Z</time></trkpt><trkpt lat="44.85201827359531" lon="11.637788658135037"><ele>4.0</ele><time>2026-03-22T12:56:00.999Z</time></trkpt><trkpt lat="44.85186676859808" lon="11.637821349059491"><ele>4.333333333333333</ele><time>2026-03-22T12:56:01.999Z</time></trkpt><trkpt lat="44.85171031236436" lon="11.63785512774029"><ele>4.666666666666667</ele><time>2026-03-22T12:56:03Z</time></trkpt><trkpt lat="44.85155092494148" lon="11.637888372067748"><ele>5.0</ele><time>2026-03-22T12:56:04Z</time></trkpt><trkpt lat="44.8513921668203" lon="11.637922544256707"><ele>5.0</ele><time>2026-03-22T12:56:05Z</time></trkpt><trkpt lat="44.85122516266409" lon="11.637958567448315"><ele>5.0</ele><time>2026-03-22T12:56:06Z</time></trkpt><trkpt lat="44.8510543519551" lon="11.637995411691811"><ele>5.0</ele><time>2026-03-22T12:56:07Z</time></trkpt><trkpt lat="44.8508786829635" lon="11.638033303397403"><ele>5.333333333333334</ele><time>2026-03-22T12:56:08Z</time></trkpt><trkpt lat="44.85070143716718" lon="11.63807196368755"><ele>5.666666666666667</ele><time>2026-03-22T12:56:09Z</time></trkpt><trkpt lat="44.85052248027424" lon="11.638110906251363"><ele>6.0</ele><time>2026-03-22T12:56:10Z</time></trkpt><trkpt lat="44.85034216551008" lon="11.63815014432223"><ele>6.0</ele><time>2026-03-22T12:56:11Z</time></trkpt><trkpt lat="44.85016636616719" lon="11.63818864188487"><ele>6.0</ele><time>2026-03-22T12:56:12Z</time></trkpt><trkpt lat="44.849984867238305" lon="11.638228579720009"><ele>6.0</ele><time>2026-03-22T12:56:13Z</time></trkpt><trkpt lat="44.84980726757196" lon="11.638267659573648"><ele>5.666666666666667</ele><time>2026-03-22T12:56:14Z</time></trkpt><trkpt lat="44.84965679447243" lon="11.63830077037894"><ele>5.333333333333334</ele><time>2026-03-22T12:56:15Z</time></trkpt><trkpt lat="44.84949593025963" lon="11.638337630603834"><ele>5.0</ele><time>2026-03-22T12:56:16Z</time></trkpt><trkpt lat="44.84935920376306" lon="11.638369123753838"><ele>5.2</ele><time>2026-03-22T12:56:17Z</time></trkpt><trkpt lat="44.849232885385376" lon="11.638397388446796"><ele>5.4</ele><time>2026-03-22T12:56:18Z</time></trkpt><trkpt lat="44.849119005254536" lon="11.638422502790817"><ele>5.6</ele><time>2026-03-22T12:56:19Z</time></trkpt><trkpt lat="44.84902878450228" lon="11.638427601375719"><ele>5.8</ele><time>2026-03-22T12:56:20Z</time></trkpt><trkpt lat="44.84894333395372" lon="11.638444971759197"><ele>6.0</ele><time>2026-03-22T12:56:21Z</time></trkpt><trkpt lat="44.84884490066071" lon="11.63847106342798"><ele>6.0</ele><time>2026-03-22T12:56:23Z</time></trkpt><trkpt lat="44.848773557571405" lon="11.638490100431637"><ele>6.0</ele><time>2026-03-22T12:56:26Z</time></trkpt><trkpt lat="44.84868013044228" lon="11.638478949386021"><ele>6.0</ele><time>2026-03-22T12:56:27.999Z</time></trkpt><trkpt lat="44.8486122212918" lon="11.638490860549675"><ele>6.0</ele><time>2026-03-22T12:56:28.999Z</time></trkpt><trkpt lat="44.848535361252566" lon="11.638432849989075"><ele>6.0</ele><time>2026-03-22T12:56:29.999Z</time></trkpt><trkpt lat="44.848449204026274" lon="11.638437697369076"><ele>6.0</ele><time>2026-03-22T12:56:30.999Z</time></trkpt><trkpt lat="44.848365451085165" lon="11.638494927338021"><ele>5.6</ele><time>2026-03-22T12:56:31.999Z</time></trkpt><trkpt lat="44.8483361511155" lon="11.638636175641441"><ele>5.199999999999999</ele><time>2026-03-22T12:56:32.999Z</time></trkpt><trkpt lat="44.8483261062448" lon="11.63876339548323"><ele>4.800000000000001</ele><time>2026-03-22T12:56:33.999Z</time></trkpt><trkpt lat="44.848354811778044" lon="11.638886418732012"><ele>4.4</ele><time>2026-03-22T12:56:34.999Z</time></trkpt><trkpt lat="44.848408675427855" lon="11.639008619020315"><ele>4.0</ele><time>2026-03-22T12:56:35.999Z</time></trkpt><trkpt lat="44.848473491750916" lon="11.639139829565577"><ele>4.0</ele><time>2026-03-22T12:56:36.999Z</time></trkpt><trkpt lat="44.84850507753444" lon="11.639306865575113"><ele>4.0</ele><time>2026-03-22T12:56:37.999Z</time></trkpt><trkpt lat="44.84846149410853" lon="11.639493549764207"><ele>4.0</ele><time>2026-03-22T12:56:38.999Z</time></trkpt><trkpt lat="44.84845834748257" lon="11.639716795318531"><ele>4.0</ele><time>2026-03-22T12:56:39.999Z</time></trkpt><trkpt lat="44.84845497324828" lon="11.639962900162567"><ele>4.0</ele><time>2026-03-22T12:56:40.999Z</time></trkpt><trkpt lat="44.848452215374174" lon="11.64020702105518"><ele>4.0</ele><time>2026-03-22T12:56:41.999Z</time></trkpt><trkpt lat="44.84846479103961" lon="11.64045767324094"><ele>4.0</ele><time>2026-03-22T12:56:42.999Z</time></trkpt><trkpt lat="44.84846015594146" lon="11.64072327756775"><ele>3.6666666666666665</ele><time>2026-03-22T12:56:43.999Z</time></trkpt><trkpt lat="44.84845405586549" lon="11.640988196362326"><ele>3.333333333333333</ele><time>2026-03-22T12:56:44.999Z</time></trkpt><trkpt lat="44.84844534470443" lon="11.641237323010373"><ele>3.0</ele><time>2026-03-22T12:56:45.999Z</time></trkpt><trkpt lat="44.84843838984902" lon="11.641473435431509"><ele>2.6666666666666665</ele><time>2026-03-22T12:56:46.999Z</time></trkpt><trkpt lat="44.84842968946849" lon="11.641719695815594"><ele>2.333333333333333</ele><time>2026-03-22T12:56:47.999Z</time></trkpt><trkpt lat="44.84840825482678" lon="11.641974164110582"><ele>2.0</ele><time>2026-03-22T12:56:48.999Z</time></trkpt><trkpt lat="44.84837503878439" lon="11.642222312589986"><ele>2.0</ele><time>2026-03-22T12:56:49.999Z</time></trkpt><trkpt lat="44.84833181873789" lon="11.642463634298169"><ele>2.0</ele><time>2026-03-22T12:56:50.999Z</time></trkpt><trkpt lat="44.8482833345813" lon="11.642701206968788"><ele>2.0</ele><time>2026-03-22T12:56:51.999Z</time></trkpt><trkpt lat="44.84823197070487" lon="11.64293737561449"><ele>2.0</ele><time>2026-03-22T12:56:52.999Z</time></trkpt><trkpt lat="44.84818019014268" lon="11.643166248077264"><ele>2.0</ele><time>2026-03-22T12:56:53.999Z</time></trkpt><trkpt lat="44.84813025795015" lon="11.643397538400864"><ele>2.0</ele><time>2026-03-22T12:56:54.999Z</time></trkpt><trkpt lat="44.84807622554555" lon="11.64361486024483"><ele>2.0</ele><time>2026-03-22T12:56:55.999Z</time></trkpt><trkpt lat="44.847995018822466" lon="11.643814409419658"><ele>2.0</ele><time>2026-03-22T12:56:56.999Z</time></trkpt><trkpt lat="44.84792126292459" lon="11.644020291934496"><ele>2.0</ele><time>2026-03-22T12:56:57.999Z</time></trkpt><trkpt lat="44.847846394124055" lon="11.644223776650405"><ele>2.0</ele><time>2026-03-22T12:56:58.999Z</time></trkpt><trkpt lat="44.847767056091286" lon="11.644431182207201"><ele>2.0</ele><time>2026-03-22T12:56:59.999Z</time></trkpt><trkpt lat="44.8476887277312" lon="11.64463777793539"><ele>2.0</ele><time>2026-03-22T12:57:01Z</time></trkpt><trkpt lat="44.84761259249085" lon="11.644840737419699"><ele>2.6666666666666665</ele><time>2026-03-22T12:57:02.001Z</time></trkpt><trkpt lat="44.8475242081516" lon="11.645056043169324"><ele>3.333333333333333</ele><time>2026-03-22T12:57:03.001Z</time></trkpt><trkpt lat="44.84744355150614" lon="11.645280456241103"><ele>4.0</ele><time>2026-03-22T12:57:04Z</time></trkpt><trkpt lat="44.84736269785048" lon="11.645500169430719"><ele>4.333333333333333</ele><time>2026-03-22T12:57:05Z</time></trkpt><trkpt lat="44.847278228186525" lon="11.645720490467664"><ele>4.666666666666667</ele><time>2026-03-22T12:57:06Z</time></trkpt><trkpt lat="44.84719934852422" lon="11.64593714346019"><ele>5.0</ele><time>2026-03-22T12:57:07.001Z</time></trkpt><trkpt lat="44.8471153593352" lon="11.646158714442853"><ele>4.333333333333334</ele><time>2026-03-22T12:57:08Z</time></trkpt><trkpt lat="44.847034323042735" lon="11.646381396376544"><ele>3.666666666666667</ele><time>2026-03-22T12:57:09Z</time></trkpt><trkpt lat="44.84695439685321" lon="11.64659693576488"><ele>3.0</ele><time>2026-03-22T12:57:10Z</time></trkpt><trkpt lat="44.84687414873673" lon="11.646807103030376"><ele>3.0</ele><time>2026-03-22T12:57:11Z</time></trkpt><trkpt lat="44.84679578565024" lon="11.64701166421134"><ele>3.0</ele><time>2026-03-22T12:57:12Z</time></trkpt><trkpt lat="44.8467167400601" lon="11.647209868322465"><ele>3.0</ele><time>2026-03-22T12:57:13Z</time></trkpt><trkpt lat="44.846639733253106" lon="11.647402853105469"><ele>3.0</ele><time>2026-03-22T12:57:14Z</time></trkpt><trkpt lat="44.84656781637248" lon="11.647592168741731"><ele>3.0</ele><time>2026-03-22T12:57:15Z</time></trkpt><trkpt lat="44.84649623407143" lon="11.647783557912069"><ele>3.0</ele><time>2026-03-22T12:57:16Z</time></trkpt><trkpt lat="44.846420786956784" lon="11.647965773218907"><ele>3.0</ele><time>2026-03-22T12:57:17Z</time></trkpt><trkpt lat="44.84635454825187" lon="11.648149813241192"><ele>3.0</ele><time>2026-03-22T12:57:18Z</time></trkpt><trkpt lat="44.846294155984324" lon="11.648324972402307"><ele>3.0</ele><time>2026-03-22T12:57:19Z</time></trkpt><trkpt lat="44.84623318692635" lon="11.648487709352827"><ele>3.0</ele><time>2026-03-22T12:57:20Z</time></trkpt><trkpt lat="44.84618848075791" lon="11.648650522700693"><ele>3.0</ele><time>2026-03-22T12:57:21Z</time></trkpt><trkpt lat="44.84615303134879" lon="11.648814390061029"><ele>3.0</ele><time>2026-03-22T12:57:22Z</time></trkpt><trkpt lat="44.846136629134215" lon="11.648977384849056"><ele>3.0</ele><time>2026-03-22T12:57:23Z</time></trkpt><trkpt lat="44.84612949434258" lon="11.649126847003702"><ele>3.0</ele><time>2026-03-22T12:57:24Z</time></trkpt><trkpt lat="44.84612826573417" lon="11.649276523047526"><ele>3.0</ele><time>2026-03-22T12:57:25Z</time></trkpt><trkpt lat="44.84613027408348" lon="11.649422520821696"><ele>3.0</ele><time>2026-03-22T12:57:26Z</time></trkpt><trkpt lat="44.846113416679614" lon="11.649560840762929"><ele>3.0</ele><time>2026-03-22T12:57:27Z</time></trkpt><trkpt lat="44.84608406769438" lon="11.649690274185424"><ele>3.0</ele><time>2026-03-22T12:57:28Z</time></trkpt><trkpt lat="44.84603925349284" lon="11.649792036279166"><ele>3.0</ele><time>2026-03-22T12:57:29Z</time></trkpt><trkpt lat="44.845964441838206" lon="11.649864938263455"><ele>3.0</ele><time>2026-03-22T12:57:30Z</time></trkpt><trkpt lat="44.84587574844594" lon="11.649926296402953"><ele>3.0</ele><time>2026-03-22T12:57:31Z</time></trkpt><trkpt lat="44.8457907352817" lon="11.650046380867128"><ele>3.0</ele><time>2026-03-22T12:57:32Z</time></trkpt><trkpt lat="44.84567509633163" lon="11.65005176499324"><ele>3.0</ele><time>2026-03-22T12:57:33Z</time></trkpt><trkpt lat="44.845552912804195" lon="11.65012862982122"><ele>3.0</ele><time>2026-03-22T12:57:34Z</time></trkpt><trkpt lat="44.84542010093427" lon="11.65011757522531"><ele>3.0</ele><time>2026-03-22T12:57:35Z</time></trkpt><trkpt lat="44.84527149631758" lon="11.65015299150933"><ele>3.0</ele><time>2026-03-22T12:57:36Z</time></trkpt><trkpt lat="44.84511835668672" lon="11.650189617329618"><ele>3.0</ele><time>2026-03-22T12:57:37Z</time></trkpt><trkpt lat="44.844964941273204" lon="11.650226891672764"><ele>3.0</ele><time>2026-03-22T12:57:38Z</time></trkpt><trkpt lat="44.84481812222056" lon="11.65026247100397"><ele>3.0</ele><time>2026-03-22T12:57:39Z</time></trkpt><trkpt lat="44.844692478967055" lon="11.65029858881977"><ele>3.0</ele><time>2026-03-22T12:57:40Z</time></trkpt><trkpt lat="44.84455601844157" lon="11.650331059861019"><ele>3.0</ele><time>2026-03-22T12:57:41Z</time></trkpt><trkpt lat="44.84442447727794" lon="11.650374876569131"><ele>3.0</ele><time>2026-03-22T12:57:42Z</time></trkpt><trkpt lat="44.84429283023686" lon="11.650404097037422"><ele>3.0</ele><time>2026-03-22T12:57:43Z</time></trkpt><trkpt lat="44.8441708064126" lon="11.650442241160782"><ele>3.0</ele><time>2026-03-22T12:57:44Z</time></trkpt><trkpt lat="44.84406148268378" lon="11.650466356791139"><ele>3.0</ele><time>2026-03-22T12:57:45Z</time></trkpt><trkpt lat="44.843964307003645" lon="11.65049565011155"><ele>3.0</ele><time>2026-03-22T12:57:46Z</time></trkpt><trkpt lat="44.843879937692634" lon="11.650525216804457"><ele>3.0</ele><time>2026-03-22T12:57:47Z</time></trkpt><trkpt lat="44.84381152342334" lon="11.650532553656054"><ele>3.0</ele><time>2026-03-22T12:57:48Z</time></trkpt><trkpt lat="44.843710250083326" lon="11.650527984040329"><ele>3.0</ele><time>2026-03-22T12:57:50Z</time></trkpt><trkpt lat="44.8437712686644" lon="11.650809433814214"><ele>3.0</ele><time>2026-03-22T12:57:54Z</time></trkpt><trkpt lat="44.84386822379899" lon="11.650884940684978"><ele>3.0</ele><time>2026-03-22T12:57:56Z</time></trkpt><trkpt lat="44.843811817584125" lon="11.651027322199823"><ele>3.0</ele><time>2026-03-22T12:57:57Z</time></trkpt><trkpt lat="44.84383427264281" lon="11.65112023491616"><ele>3.0</ele><time>2026-03-22T12:57:58Z</time></trkpt><trkpt lat="44.84387260886931" lon="11.651198136324606"><ele>3.0</ele><time>2026-03-22T12:57:59Z</time></trkpt><trkpt lat="44.84398012164056" lon="11.65123328700251"><ele>3.0</ele><time>2026-03-22T12:58:00Z</time></trkpt><trkpt lat="44.84405359625525" lon="11.65122382624446"><ele>3.0</ele><time>2026-03-22T12:58:02Z</time></trkpt><trkpt lat="44.84408457674571" lon="11.651124269867243"><ele>3.0</ele><time>2026-03-22T13:00:24.999Z</time></trkpt><trkpt lat="44.84412551771068" lon="11.651052792944938"><ele>3.0</ele><time>2026-03-22T13:01:17Z</time></trkpt><trkpt lat="44.84433722453904" lon="11.650987754645174"><ele>3.0</ele><time>2026-03-22T13:01:33.001Z</time></trkpt><trkpt lat="44.84440629813713" lon="11.65100139389174"><ele>3.0</ele><time>2026-03-22T13:01:35.001Z</time></trkpt><trkpt lat="44.84451543513757" lon="11.651024539677225"><ele>3.0</ele><time>2026-03-22T13:01:40.001Z</time></trkpt><trkpt lat="44.84453795096862" lon="11.650762770646038"><ele>3.0</ele><time>2026-03-22T13:01:45.001Z</time></trkpt><trkpt lat="44.844537926296255" lon="11.650613144598271"><ele>3.0</ele><time>2026-03-22T13:01:47.001Z</time></trkpt><trkpt lat="44.84457877976774" lon="11.650518345827411"><ele>3.0</ele><time>2026-03-22T13:01:49.001Z</time></trkpt><trkpt lat="44.844740741192474" lon="11.650390859509649"><ele>3.0</ele><time>2026-03-22T13:01:53Z</time></trkpt><trkpt lat="44.84481786319137" lon="11.650326561713117"><ele>3.0</ele><time>2026-03-22T13:01:54Z</time></trkpt><trkpt lat="44.844943443620885" lon="11.650317912779554"><ele>3.0</ele><time>2026-03-22T13:01:55Z</time></trkpt><trkpt lat="44.84506133326582" lon="11.650271416203818"><ele>3.0</ele><time>2026-03-22T13:01:56Z</time></trkpt><trkpt lat="44.84518096895665" lon="11.650235181769006"><ele>3.0</ele><time>2026-03-22T13:01:57Z</time></trkpt><trkpt lat="44.84530534720385" lon="11.650196952765913"><ele>3.0</ele><time>2026-03-22T13:01:58Z</time></trkpt><trkpt lat="44.84541574583759" lon="11.650166009289833"><ele>3.0</ele><time>2026-03-22T13:01:59Z</time></trkpt><trkpt lat="44.84551289113808" lon="11.650140934225165"><ele>3.0</ele><time>2026-03-22T13:02:00Z</time></trkpt><trkpt lat="44.845588531249575" lon="11.650148916292116"><ele>3.0</ele><time>2026-03-22T13:02:01Z</time></trkpt><trkpt lat="44.84565337490808" lon="11.650156175908402"><ele>3.0</ele><time>2026-03-22T13:02:02Z</time></trkpt><trkpt lat="44.845785112775935" lon="11.65022136362078"><ele>3.0</ele><time>2026-03-22T13:02:04Z</time></trkpt><trkpt lat="44.845874959862435" lon="11.650304946882923"><ele>3.0</ele><time>2026-03-22T13:02:05Z</time></trkpt><trkpt lat="44.84596619036637" lon="11.650428092705184"><ele>3.0</ele><time>2026-03-22T13:02:06Z</time></trkpt><trkpt lat="44.84605735211894" lon="11.650549460429973"><ele>3.0</ele><time>2026-03-22T13:02:07Z</time></trkpt><trkpt lat="44.84612585851818" lon="11.650682520892918"><ele>3.0</ele><time>2026-03-22T13:02:08Z</time></trkpt><trkpt lat="44.84617449862673" lon="11.650815550350284"><ele>3.0</ele><time>2026-03-22T13:02:09Z</time></trkpt><trkpt lat="44.846209877115825" lon="11.650986533232686"><ele>3.333333333333333</ele><time>2026-03-22T13:02:10Z</time></trkpt><trkpt lat="44.846204561153726" lon="11.651174291050808"><ele>3.6666666666666665</ele><time>2026-03-22T13:02:11Z</time></trkpt><trkpt lat="44.84620009154865" lon="11.651400365072671"><ele>4.0</ele><time>2026-03-22T13:02:12Z</time></trkpt><trkpt lat="44.846193763930195" lon="11.651637555518617"><ele>4.0</ele><time>2026-03-22T13:02:13Z</time></trkpt><trkpt lat="44.846186996404754" lon="11.651891236419479"><ele>4.0</ele><time>2026-03-22T13:02:14Z</time></trkpt><trkpt lat="44.84618129407061" lon="11.65217132720827"><ele>4.0</ele><time>2026-03-22T13:02:15Z</time></trkpt><trkpt lat="44.84617796594501" lon="11.6524579879664"><ele>4.0</ele><time>2026-03-22T13:02:16Z</time></trkpt><trkpt lat="44.846205388847835" lon="11.652750936241079"><ele>4.0</ele><time>2026-03-22T13:02:17Z</time></trkpt><trkpt lat="44.84622203633008" lon="11.653055644687825"><ele>4.0</ele><time>2026-03-22T13:02:18Z</time></trkpt><trkpt lat="44.8462490919568" lon="11.653360209657865"><ele>4.0</ele><time>2026-03-22T13:02:19Z</time></trkpt><trkpt lat="44.84628273417373" lon="11.653649190016328"><ele>4.0</ele><time>2026-03-22T13:02:20Z</time></trkpt><trkpt lat="44.846316637064255" lon="11.65393151500717"><ele>4.0</ele><time>2026-03-22T13:02:21Z</time></trkpt><trkpt lat="44.84634912806758" lon="11.65420542462686"><ele>4.333333333333333</ele><time>2026-03-22T13:02:22Z</time></trkpt><trkpt lat="44.84638174949744" lon="11.65446110215742"><ele>4.666666666666667</ele><time>2026-03-22T13:02:23Z</time></trkpt><trkpt lat="44.84640730704338" lon="11.654708121099212"><ele>5.0</ele><time>2026-03-22T13:02:24Z</time></trkpt><trkpt lat="44.84643067544479" lon="11.654934695076362"><ele>5.0</ele><time>2026-03-22T13:02:25Z</time></trkpt><trkpt lat="44.84645878799502" lon="11.655152740480863"><ele>5.0</ele><time>2026-03-22T13:02:26Z</time></trkpt><trkpt lat="44.84648584464844" lon="11.655370069303403"><ele>5.0</ele><time>2026-03-22T13:02:27Z</time></trkpt><trkpt lat="44.846512116304154" lon="11.655595637538825"><ele>5.0</ele><time>2026-03-22T13:02:28Z</time></trkpt><trkpt lat="44.846538856769556" lon="11.655831215902746"><ele>5.0</ele><time>2026-03-22T13:02:29Z</time></trkpt><trkpt lat="44.84656659941592" lon="11.65607302971928"><ele>5.0</ele><time>2026-03-22T13:02:30Z</time></trkpt><trkpt lat="44.84658914818055" lon="11.65631945531296"><ele>5.0</ele><time>2026-03-22T13:02:31Z</time></trkpt><trkpt lat="44.84662455836398" lon="11.6565681002483"><ele>5.0</ele><time>2026-03-22T13:02:32Z</time></trkpt><trkpt lat="44.8466626554527" lon="11.656805392530787"><ele>5.0</ele><time>2026-03-22T13:02:33Z</time></trkpt><trkpt lat="44.84670462810817" lon="11.657039550192884"><ele>5.0</ele><time>2026-03-22T13:02:34Z</time></trkpt><trkpt lat="44.8467442384197" lon="11.65726961986541"><ele>5.0</ele><time>2026-03-22T13:02:35Z</time></trkpt><trkpt lat="44.84678883710927" lon="11.657494913106186"><ele>5.0</ele><time>2026-03-22T13:02:36Z</time></trkpt><trkpt lat="44.84682550319225" lon="11.657725250522818"><ele>4.666666666666667</ele><time>2026-03-22T13:02:37Z</time></trkpt><trkpt lat="44.846864923232836" lon="11.657955451157608"><ele>4.333333333333333</ele><time>2026-03-22T13:02:38Z</time></trkpt><trkpt lat="44.846910978987836" lon="11.658193994958994"><ele>4.0</ele><time>2026-03-22T13:02:39Z</time></trkpt><trkpt lat="44.84695115548864" lon="11.658434999818827"><ele>4.333333333333333</ele><time>2026-03-22T13:02:40Z</time></trkpt><trkpt lat="44.84699315529616" lon="11.658681119263285"><ele>4.666666666666667</ele><time>2026-03-22T13:02:41Z</time></trkpt><trkpt lat="44.84703308303634" lon="11.658926490035581"><ele>5.0</ele><time>2026-03-22T13:02:42Z</time></trkpt><trkpt lat="44.847074717782846" lon="11.659180221048233"><ele>5.0</ele><time>2026-03-22T13:02:43Z</time></trkpt><trkpt lat="44.84711272832521" lon="11.65943181173509"><ele>5.0</ele><time>2026-03-22T13:02:44Z</time></trkpt><trkpt lat="44.84715315001305" lon="11.659672621128284"><ele>5.0</ele><time>2026-03-22T13:02:45Z</time></trkpt><trkpt lat="44.847189091697324" lon="11.659913770082293"><ele>5.0</ele><time>2026-03-22T13:02:46Z</time></trkpt><trkpt lat="44.84719381216896" lon="11.660161304282008"><ele>5.0</ele><time>2026-03-22T13:02:47Z</time></trkpt><trkpt lat="44.84722922899592" lon="11.660397645447839"><ele>5.0</ele><time>2026-03-22T13:02:48Z</time></trkpt><trkpt lat="44.84726324098474" lon="11.66062662625948"><ele>5.0</ele><time>2026-03-22T13:02:49Z</time></trkpt><trkpt lat="44.84729900942701" lon="11.660844944885245"><ele>5.0</ele><time>2026-03-22T13:02:50Z</time></trkpt><trkpt lat="44.847342358916244" lon="11.661062572248358"><ele>5.0</ele><time>2026-03-22T13:02:51Z</time></trkpt><trkpt lat="44.84739880563268" lon="11.661285867013776"><ele>5.0</ele><time>2026-03-22T13:02:52Z</time></trkpt><trkpt lat="44.84746213878823" lon="11.661517739741319"><ele>5.0</ele><time>2026-03-22T13:02:53Z</time></trkpt><trkpt lat="44.84752465533318" lon="11.661752852308668"><ele>5.0</ele><time>2026-03-22T13:02:54Z</time></trkpt><trkpt lat="44.8475976630411" lon="11.661986241315278"><ele>4.333333333333334</ele><time>2026-03-22T13:02:55Z</time></trkpt><trkpt lat="44.84766129446483" lon="11.662218977739506"><ele>3.666666666666667</ele><time>2026-03-22T13:02:56Z</time></trkpt><trkpt lat="44.84772369707475" lon="11.662451502953909"><ele>3.0</ele><time>2026-03-22T13:02:57Z</time></trkpt><trkpt lat="44.847787580369875" lon="11.662677973955942"><ele>2.6666666666666665</ele><time>2026-03-22T13:02:58Z</time></trkpt><trkpt lat="44.84784996819133" lon="11.662904708420584"><ele>2.333333333333333</ele><time>2026-03-22T13:02:59Z</time></trkpt><trkpt lat="44.84791070575962" lon="11.663132620673395"><ele>2.0</ele><time>2026-03-22T13:03:00Z</time></trkpt><trkpt lat="44.84797032244561" lon="11.663358017869951"><ele>2.0</ele><time>2026-03-22T13:03:01Z</time></trkpt><trkpt lat="44.848025265644246" lon="11.6635825738643"><ele>2.0</ele><time>2026-03-22T13:03:02Z</time></trkpt><trkpt lat="44.84807871667838" lon="11.66379557551365"><ele>2.0</ele><time>2026-03-22T13:03:03Z</time></trkpt><trkpt lat="44.84813630011643" lon="11.664012915532604"><ele>2.333333333333333</ele><time>2026-03-22T13:03:04Z</time></trkpt><trkpt lat="44.8482021677138" lon="11.664229494961127"><ele>2.6666666666666665</ele><time>2026-03-22T13:03:05Z</time></trkpt><trkpt lat="44.848266493074185" lon="11.664447185330621"><ele>3.0</ele><time>2026-03-22T13:03:06Z</time></trkpt><trkpt lat="44.84833002793248" lon="11.664657288014537"><ele>3.0</ele><time>2026-03-22T13:03:07Z</time></trkpt><trkpt lat="44.848396792442074" lon="11.664864294842998"><ele>3.0</ele><time>2026-03-22T13:03:08Z</time></trkpt><trkpt lat="44.8484701523379" lon="11.665070391444711"><ele>3.0</ele><time>2026-03-22T13:03:09Z</time></trkpt><trkpt lat="44.84856418435847" lon="11.665269891381133"><ele>2.6666666666666665</ele><time>2026-03-22T13:03:10Z</time></trkpt><trkpt lat="44.848676944274885" lon="11.665474811631183"><ele>2.333333333333333</ele><time>2026-03-22T13:03:11Z</time></trkpt><trkpt lat="44.84881501742822" lon="11.6656756487069"><ele>2.0</ele><time>2026-03-22T13:03:11.999Z</time></trkpt><trkpt lat="44.84899556313533" lon="11.665895026840227"><ele>2.0</ele><time>2026-03-22T13:03:12.999Z</time></trkpt><trkpt lat="44.84918162296003" lon="11.666150908020857"><ele>2.0</ele><time>2026-03-22T13:03:13.999Z</time></trkpt><trkpt lat="44.849371587299395" lon="11.666433197561398"><ele>1.5</ele><time>2026-03-22T13:03:14.999Z</time></trkpt><trkpt lat="44.84957006673753" lon="11.666717721904565"><ele>1.0</ele><time>2026-03-22T13:03:15.999Z</time></trkpt><trkpt lat="44.849771862542525" lon="11.667001803014852"><ele>1.5</ele><time>2026-03-22T13:03:16.999Z</time></trkpt><trkpt lat="44.8499797672452" lon="11.667283973545056"><ele>2.0</ele><time>2026-03-22T13:03:17.999Z</time></trkpt><trkpt lat="44.8501874065594" lon="11.667562156189373"><ele>2.0</ele><time>2026-03-22T13:03:19Z</time></trkpt><trkpt lat="44.850390134767075" lon="11.667835171007317"><ele>2.0</ele><time>2026-03-22T13:03:20Z</time></trkpt><trkpt lat="44.8505948262019" lon="11.668101951873698"><ele>2.0</ele><time>2026-03-22T13:03:21Z</time></trkpt><trkpt lat="44.85079971664456" lon="11.668368861291198"><ele>2.0</ele><time>2026-03-22T13:03:22.001Z</time></trkpt><trkpt lat="44.85100665334205" lon="11.66863827489233"><ele>2.5</ele><time>2026-03-22T13:03:23.001Z</time></trkpt><trkpt lat="44.85120676671447" lon="11.66891864204795"><ele>3.0</ele><time>2026-03-22T13:03:24.001Z</time></trkpt><trkpt lat="44.85141420230931" lon="11.669198943448365"><ele>3.0</ele><time>2026-03-22T13:03:25Z</time></trkpt><trkpt lat="44.851625118236264" lon="11.669458792847335"><ele>3.0</ele><time>2026-03-22T13:03:26Z</time></trkpt><trkpt lat="44.85181985376206" lon="11.669742736679218"><ele>3.5</ele><time>2026-03-22T13:03:27Z</time></trkpt><trkpt lat="44.85202238456726" lon="11.670028317745393"><ele>4.0</ele><time>2026-03-22T13:03:28.001Z</time></trkpt><trkpt lat="44.85222132732458" lon="11.670305702674822"><ele>3.0</ele><time>2026-03-22T13:03:29.001Z</time></trkpt><trkpt lat="44.852414299874404" lon="11.670587306157563"><ele>2.0</ele><time>2026-03-22T13:03:30.001Z</time></trkpt><trkpt lat="44.85260477140774" lon="11.670870860465483"><ele>2.5</ele><time>2026-03-22T13:03:31Z</time></trkpt><trkpt lat="44.8527834788751" lon="11.671158196687681"><ele>3.0</ele><time>2026-03-22T13:03:32Z</time></trkpt><trkpt lat="44.852950197177" lon="11.671462687289077"><ele>3.0</ele><time>2026-03-22T13:03:33Z</time></trkpt><trkpt lat="44.85311500047742" lon="11.671764064222982"><ele>3.0</ele><time>2026-03-22T13:03:34Z</time></trkpt><trkpt lat="44.85327972783298" lon="11.672061487345797"><ele>3.0</ele><time>2026-03-22T13:03:35Z</time></trkpt><trkpt lat="44.85344752680218" lon="11.67236220140918"><ele>3.0</ele><time>2026-03-22T13:03:36Z</time></trkpt><trkpt lat="44.85361842333554" lon="11.672658015173601"><ele>3.0</ele><time>2026-03-22T13:03:37Z</time></trkpt><trkpt lat="44.85378833654889" lon="11.672947839056036"><ele>3.0</ele><time>2026-03-22T13:03:38Z</time></trkpt><trkpt lat="44.8539556857944" lon="11.673231674783924"><ele>3.0</ele><time>2026-03-22T13:03:39Z</time></trkpt><trkpt lat="44.85413100164328" lon="11.673506941018283"><ele>3.0</ele><time>2026-03-22T13:03:40Z</time></trkpt><trkpt lat="44.85431040647071" lon="11.673777907791347"><ele>2.5</ele><time>2026-03-22T13:03:41Z</time></trkpt><trkpt lat="44.85449638385088" lon="11.674045117595552"><ele>2.0</ele><time>2026-03-22T13:03:42Z</time></trkpt><trkpt lat="44.85468391311145" lon="11.674313273130485"><ele>2.5</ele><time>2026-03-22T13:03:43Z</time></trkpt><trkpt lat="44.85487079154969" lon="11.674578266752086"><ele>3.0</ele><time>2026-03-22T13:03:44Z</time></trkpt><trkpt lat="44.85505745614363" lon="11.67484336596609"><ele>3.0</ele><time>2026-03-22T13:03:45Z</time></trkpt><trkpt lat="44.85524308368541" lon="11.675104197697017"><ele>3.0</ele><time>2026-03-22T13:03:46Z</time></trkpt><trkpt lat="44.85542505454679" lon="11.675366568615924"><ele>3.0</ele><time>2026-03-22T13:03:47Z</time></trkpt><trkpt lat="44.8556088946602" lon="11.675629207134406"><ele>3.0</ele><time>2026-03-22T13:03:48Z</time></trkpt><trkpt lat="44.8557918363353" lon="11.675889193237227"><ele>2.5</ele><time>2026-03-22T13:03:49Z</time></trkpt><trkpt lat="44.85597395872729" lon="11.676146217874129"><ele>2.0</ele><time>2026-03-22T13:03:50Z</time></trkpt><trkpt lat="44.856148801797254" lon="11.676390256663627"><ele>2.0</ele><time>2026-03-22T13:03:51Z</time></trkpt><trkpt lat="44.85630821440622" lon="11.676622995209188"><ele>2.0</ele><time>2026-03-22T13:03:52Z</time></trkpt><trkpt lat="44.856460129176156" lon="11.676843260767395"><ele>2.0</ele><time>2026-03-22T13:03:53Z</time></trkpt><trkpt lat="44.856599887339414" lon="11.67704460760372"><ele>2.333333333333333</ele><time>2026-03-22T13:03:54Z</time></trkpt><trkpt lat="44.85673103987035" lon="11.677225196837929"><ele>2.6666666666666665</ele><time>2026-03-22T13:03:55Z</time></trkpt><trkpt lat="44.85684752571459" lon="11.677379495652785"><ele>3.0</ele><time>2026-03-22T13:03:56Z</time></trkpt><trkpt lat="44.85695216387617" lon="11.677512868532771"><ele>3.0</ele><time>2026-03-22T13:03:57Z</time></trkpt><trkpt lat="44.857051346688344" lon="11.677635369454798"><ele>3.0</ele><time>2026-03-22T13:03:58Z</time></trkpt><trkpt lat="44.85712955294787" lon="11.677750821582423"><ele>3.0</ele><time>2026-03-22T13:03:59Z</time></trkpt><trkpt lat="44.85719277400671" lon="11.677872023900662"><ele>3.0</ele><time>2026-03-22T13:04:00Z</time></trkpt><trkpt lat="44.85724511281297" lon="11.678010811298877"><ele>3.0</ele><time>2026-03-22T13:04:01Z</time></trkpt><trkpt lat="44.857301422634144" lon="11.678159932664745"><ele>3.0</ele><time>2026-03-22T13:04:02Z</time></trkpt><trkpt lat="44.857390690230666" lon="11.678295857724363"><ele>3.0</ele><time>2026-03-22T13:04:03Z</time></trkpt><trkpt lat="44.8575044477122" lon="11.678395539256801"><ele>3.0</ele><time>2026-03-22T13:04:04Z</time></trkpt><trkpt lat="44.85759541440558" lon="11.678603930593994"><ele>3.333333333333333</ele><time>2026-03-22T13:04:05Z</time></trkpt><trkpt lat="44.85767803823667" lon="11.678823861608265"><ele>3.6666666666666665</ele><time>2026-03-22T13:04:06Z</time></trkpt><trkpt lat="44.857769581647055" lon="11.67906618600121"><ele>4.0</ele><time>2026-03-22T13:04:07Z</time></trkpt><trkpt lat="44.85785897082249" lon="11.679336807165543"><ele>3.0</ele><time>2026-03-22T13:04:08Z</time></trkpt><trkpt lat="44.857951049430234" lon="11.679630107309947"><ele>2.0</ele><time>2026-03-22T13:04:09Z</time></trkpt><trkpt lat="44.858050798935054" lon="11.679949027385328"><ele>2.5</ele><time>2026-03-22T13:04:10Z</time></trkpt><trkpt lat="44.85815319905271" lon="11.68028353429553"><ele>3.0</ele><time>2026-03-22T13:04:11Z</time></trkpt><trkpt lat="44.858267441540036" lon="11.680631625674952"><ele>3.0</ele><time>2026-03-22T13:04:12Z</time></trkpt><trkpt lat="44.858386294673345" lon="11.680968484197054"><ele>3.0</ele><time>2026-03-22T13:04:13Z</time></trkpt><trkpt lat="44.85852230869725" lon="11.6813021749234"><ele>3.0</ele><time>2026-03-22T13:04:14Z</time></trkpt><trkpt lat="44.85864756047722" lon="11.681651158419248"><ele>3.0</ele><time>2026-03-22T13:04:15Z</time></trkpt><trkpt lat="44.85877664071632" lon="11.682013801790408"><ele>3.0</ele><time>2026-03-22T13:04:16Z</time></trkpt><trkpt lat="44.85891368527899" lon="11.682388413928129"><ele>3.0</ele><time>2026-03-22T13:04:17Z</time></trkpt><trkpt lat="44.859047464663895" lon="11.682770046184919"><ele>2.5</ele><time>2026-03-22T13:04:18Z</time></trkpt><trkpt lat="44.85918663404169" lon="11.683158961802864"><ele>2.0</ele><time>2026-03-22T13:04:19Z</time></trkpt><trkpt lat="44.859325862914396" lon="11.68355204437499"><ele>2.0</ele><time>2026-03-22T13:04:20Z</time></trkpt><trkpt lat="44.85946765491726" lon="11.683943399230529"><ele>2.0</ele><time>2026-03-22T13:04:21Z</time></trkpt><trkpt lat="44.8596106182855" lon="11.68433838559706"><ele>3.0</ele><time>2026-03-22T13:04:22Z</time></trkpt><trkpt lat="44.85975437042299" lon="11.68473352689188"><ele>4.0</ele><time>2026-03-22T13:04:23Z</time></trkpt><trkpt lat="44.859897702939136" lon="11.68513448250764"><ele>3.0</ele><time>2026-03-22T13:04:24Z</time></trkpt><trkpt lat="44.8600414779148" lon="11.685536451323822"><ele>2.0</ele><time>2026-03-22T13:04:25Z</time></trkpt><trkpt lat="44.86018333047476" lon="11.685937233962965"><ele>2.0</ele><time>2026-03-22T13:04:26Z</time></trkpt><trkpt lat="44.86032693880182" lon="11.686334736304728"><ele>2.0</ele><time>2026-03-22T13:04:27Z</time></trkpt><trkpt lat="44.86046910648568" lon="11.686729459125381"><ele>2.5</ele><time>2026-03-22T13:04:28Z</time></trkpt><trkpt lat="44.86060464013772" lon="11.68711693180508"><ele>3.0</ele><time>2026-03-22T13:04:29Z</time></trkpt><trkpt lat="44.86073625136475" lon="11.687484289353531"><ele>2.5</ele><time>2026-03-22T13:04:30Z</time></trkpt><trkpt lat="44.860862176115496" lon="11.687832409002223"><ele>2.0</ele><time>2026-03-22T13:04:31Z</time></trkpt><trkpt lat="44.86098107682049" lon="11.688161574523496"><ele>2.0</ele><time>2026-03-22T13:04:32Z</time></trkpt><trkpt lat="44.861093052857754" lon="11.68847427300303"><ele>2.0</ele><time>2026-03-22T13:04:33Z</time></trkpt><trkpt lat="44.86119964928805" lon="11.688778024877333"><ele>1.5</ele><time>2026-03-22T13:04:33.999Z</time></trkpt><trkpt lat="44.861308173098564" lon="11.68907949488548"><ele>1.0</ele><time>2026-03-22T13:04:34.999Z</time></trkpt><trkpt lat="44.8614181128115" lon="11.689386545399882"><ele>1.5</ele><time>2026-03-22T13:04:35.999Z</time></trkpt><trkpt lat="44.86153221402948" lon="11.689693291085616"><ele>2.0</ele><time>2026-03-22T13:04:36.999Z</time></trkpt><trkpt lat="44.86164296467521" lon="11.689999724942943"><ele>2.0</ele><time>2026-03-22T13:04:37.999Z</time></trkpt><trkpt lat="44.86175139236087" lon="11.690301817719833"><ele>2.0</ele><time>2026-03-22T13:04:38.999Z</time></trkpt><trkpt lat="44.861859485039545" lon="11.690604282573275"><ele>2.0</ele><time>2026-03-22T13:04:39.999Z</time></trkpt><trkpt lat="44.86196853469635" lon="11.690912222035587"><ele>2.0</ele><time>2026-03-22T13:04:40.999Z</time></trkpt><trkpt lat="44.86207510360142" lon="11.691211450427797"><ele>1.0</ele><time>2026-03-22T13:04:41.999Z</time></trkpt><trkpt lat="44.862183749406434" lon="11.691502092500441"><ele>0.0</ele><time>2026-03-22T13:04:42.999Z</time></trkpt><trkpt lat="44.862299556189356" lon="11.691799784561661"><ele>0.5</ele><time>2026-03-22T13:04:43.999Z</time></trkpt><trkpt lat="44.86241681684675" lon="11.692104769447797"><ele>1.0</ele><time>2026-03-22T13:04:44.999Z</time></trkpt><trkpt lat="44.86253571519501" lon="11.692416567216533"><ele>1.5</ele><time>2026-03-22T13:04:45.999Z</time></trkpt><trkpt lat="44.862647869454335" lon="11.69273383705507"><ele>2.0</ele><time>2026-03-22T13:04:46.999Z</time></trkpt><trkpt lat="44.8627570665749" lon="11.693061451909992"><ele>2.5</ele><time>2026-03-22T13:04:47.999Z</time></trkpt><trkpt lat="44.862866503152574" lon="11.693385097172664"><ele>3.0</ele><time>2026-03-22T13:04:48.999Z</time></trkpt><trkpt lat="44.862967177750676" lon="11.693700619559884"><ele>3.0</ele><time>2026-03-22T13:04:49.999Z</time></trkpt><trkpt lat="44.86306107942" lon="11.694000940482944"><ele>3.0</ele><time>2026-03-22T13:04:50.999Z</time></trkpt><trkpt lat="44.8631521762364" lon="11.694291322978684"><ele>2.3333333333333335</ele><time>2026-03-22T13:04:51.999Z</time></trkpt><trkpt lat="44.863241505881696" lon="11.694577956678945"><ele>1.6666666666666665</ele><time>2026-03-22T13:04:52.999Z</time></trkpt><trkpt lat="44.863332078992464" lon="11.694857392624211"><ele>1.0</ele><time>2026-03-22T13:04:53.999Z</time></trkpt><trkpt lat="44.86342635459034" lon="11.695123463982574"><ele>1.6666666666666665</ele><time>2026-03-22T13:04:54.999Z</time></trkpt><trkpt lat="44.863524365646825" lon="11.69537238449921"><ele>2.3333333333333335</ele><time>2026-03-22T13:04:55.999Z</time></trkpt><trkpt lat="44.86362176985952" lon="11.695595983460656"><ele>3.0</ele><time>2026-03-22T13:04:56.999Z</time></trkpt><trkpt lat="44.86372862749335" lon="11.69579645275049"><ele>3.0</ele><time>2026-03-22T13:04:57.999Z</time></trkpt><trkpt lat="44.86383489122497" lon="11.695968400084073"><ele>3.0</ele><time>2026-03-22T13:04:58.999Z</time></trkpt><trkpt lat="44.86393584262842" lon="11.696121746325728"><ele>3.0</ele><time>2026-03-22T13:04:59.999Z</time></trkpt><trkpt lat="44.86404604627295" lon="11.69627271657762"><ele>3.0</ele><time>2026-03-22T13:05:00.999Z</time></trkpt><trkpt lat="44.86415821761821" lon="11.696411525886976"><ele>3.0</ele><time>2026-03-22T13:05:01.999Z</time></trkpt><trkpt lat="44.864264738254406" lon="11.696531430741478"><ele>3.0</ele><time>2026-03-22T13:05:02.999Z</time></trkpt><trkpt lat="44.86437997987329" lon="11.696620121807134"><ele>3.0</ele><time>2026-03-22T13:05:03.999Z</time></trkpt><trkpt lat="44.86446564311391" lon="11.696758894899666"><ele>3.0</ele><time>2026-03-22T13:05:04.999Z</time></trkpt><trkpt lat="44.86452193664965" lon="11.696909486053906"><ele>3.0</ele><time>2026-03-22T13:05:05.999Z</time></trkpt><trkpt lat="44.864602211774866" lon="11.697030383929663"><ele>3.0</ele><time>2026-03-22T13:05:06.999Z</time></trkpt><trkpt lat="44.86470406096418" lon="11.697103629474011"><ele>3.0</ele><time>2026-03-22T13:05:07.999Z</time></trkpt><trkpt lat="44.86481426457187" lon="11.697129599336815"><ele>3.0</ele><time>2026-03-22T13:05:08.999Z</time></trkpt><trkpt lat="44.8649159103545" lon="11.697066270861505"><ele>3.0</ele><time>2026-03-22T13:05:09.999Z</time></trkpt><trkpt lat="44.86502640307807" lon="11.69724458485526"><ele>3.0</ele><time>2026-03-22T13:05:10.999Z</time></trkpt><trkpt lat="44.86509765303826" lon="11.697371823296168"><ele>3.0</ele><time>2026-03-22T13:05:11.999Z</time></trkpt><trkpt lat="44.86515185228318" lon="11.697541253657567"><ele>3.0</ele><time>2026-03-22T13:05:12.999Z</time></trkpt><trkpt lat="44.86519986497747" lon="11.697769648901632"><ele>3.0</ele><time>2026-03-22T13:05:13.999Z</time></trkpt><trkpt lat="44.86525550652883" lon="11.698033426186882"><ele>3.0</ele><time>2026-03-22T13:05:14.999Z</time></trkpt><trkpt lat="44.86532490887867" lon="11.698323307921633"><ele>3.0</ele><time>2026-03-22T13:05:15.999Z</time></trkpt><trkpt lat="44.865394916284515" lon="11.698629718965204"><ele>3.0</ele><time>2026-03-22T13:05:16.999Z</time></trkpt><trkpt lat="44.865464644516805" lon="11.69893916886798"><ele>3.0</ele><time>2026-03-22T13:05:17.999Z</time></trkpt><trkpt lat="44.86553823645051" lon="11.699264786899889"><ele>3.0</ele><time>2026-03-22T13:05:18.999Z</time></trkpt><trkpt lat="44.86561536043692" lon="11.699611942838192"><ele>3.5</ele><time>2026-03-22T13:05:19.999Z</time></trkpt><trkpt lat="44.86569700147803" lon="11.699965726737775"><ele>4.0</ele><time>2026-03-22T13:05:20.999Z</time></trkpt><trkpt lat="44.86578336706343" lon="11.700320615058551"><ele>4.0</ele><time>2026-03-22T13:05:21.999Z</time></trkpt><trkpt lat="44.86587560025467" lon="11.70067525039136"><ele>4.0</ele><time>2026-03-22T13:05:22.999Z</time></trkpt><trkpt lat="44.8659663264229" lon="11.701026435998786"><ele>2.5</ele><time>2026-03-22T13:05:23.999Z</time></trkpt><trkpt lat="44.86605841367866" lon="11.701375853116138"><ele>1.0</ele><time>2026-03-22T13:05:25.001Z</time></trkpt><trkpt lat="44.866146039220546" lon="11.701719051905993"><ele>1.0</ele><time>2026-03-22T13:05:26Z</time></trkpt><trkpt lat="44.86623115469118" lon="11.702054091902301"><ele>1.0</ele><time>2026-03-22T13:05:27Z</time></trkpt><trkpt lat="44.86631843685123" lon="11.702384520091298"><ele>1.0</ele><time>2026-03-22T13:05:28Z</time></trkpt><trkpt lat="44.86639778384775" lon="11.702700679481262"><ele>1.0</ele><time>2026-03-22T13:05:29Z</time></trkpt><trkpt lat="44.86647763277074" lon="11.703016379420188"><ele>1.5</ele><time>2026-03-22T13:05:30Z</time></trkpt><trkpt lat="44.86655915156125" lon="11.7033258847296"><ele>2.0</ele><time>2026-03-22T13:05:31Z</time></trkpt><trkpt lat="44.86663864489998" lon="11.703630587604481"><ele>2.5</ele><time>2026-03-22T13:05:32.001Z</time></trkpt><trkpt lat="44.86672555317147" lon="11.703940365046302"><ele>3.0</ele><time>2026-03-22T13:05:33.001Z</time></trkpt><trkpt lat="44.86682817102261" lon="11.704239537307101"><ele>3.5</ele><time>2026-03-22T13:05:34.001Z</time></trkpt><trkpt lat="44.866957367770404" lon="11.704527894056431"><ele>4.0</ele><time>2026-03-22T13:05:35.001Z</time></trkpt><trkpt lat="44.86710154407479" lon="11.704804763134907"><ele>4.0</ele><time>2026-03-22T13:05:36.001Z</time></trkpt><trkpt lat="44.867269181149155" lon="11.705067078521251"><ele>4.0</ele><time>2026-03-22T13:05:37.001Z</time></trkpt><trkpt lat="44.867441882701584" lon="11.705327529243068"><ele>3.5</ele><time>2026-03-22T13:05:38.001Z</time></trkpt><trkpt lat="44.867626504597055" lon="11.70558548670209"><ele>3.0</ele><time>2026-03-22T13:05:39.001Z</time></trkpt><trkpt lat="44.867823803358206" lon="11.70583930856452"><ele>3.0</ele><time>2026-03-22T13:05:40.001Z</time></trkpt><trkpt lat="44.868027164486215" lon="11.70608698459628"><ele>3.0</ele><time>2026-03-22T13:05:41.001Z</time></trkpt><trkpt lat="44.86822156393229" lon="11.706337326646626"><ele>3.0</ele><time>2026-03-22T13:05:42.001Z</time></trkpt><trkpt lat="44.868413587981095" lon="11.706588439509327"><ele>3.0</ele><time>2026-03-22T13:05:43.001Z</time></trkpt><trkpt lat="44.868603038782325" lon="11.706831327377401"><ele>2.5</ele><time>2026-03-22T13:05:44.001Z</time></trkpt><trkpt lat="44.868784164289416" lon="11.707057525511951"><ele>2.0</ele><time>2026-03-22T13:05:45.001Z</time></trkpt><trkpt lat="44.86895092458572" lon="11.707277888499"><ele>2.0</ele><time>2026-03-22T13:05:46.001Z</time></trkpt><trkpt lat="44.86911764971067" lon="11.70747712146636"><ele>2.0</ele><time>2026-03-22T13:05:47.001Z</time></trkpt><trkpt lat="44.869286335050205" lon="11.707650315358144"><ele>2.0</ele><time>2026-03-22T13:05:48.001Z</time></trkpt><trkpt lat="44.86946386905404" lon="11.707803039843839"><ele>2.333333333333333</ele><time>2026-03-22T13:05:49.001Z</time></trkpt><trkpt lat="44.86962841400017" lon="11.707934834586226"><ele>2.6666666666666665</ele><time>2026-03-22T13:05:50.001Z</time></trkpt><trkpt lat="44.8697926334879" lon="11.708043778590877"><ele>3.0</ele><time>2026-03-22T13:05:51.001Z</time></trkpt><trkpt lat="44.86993572662173" lon="11.70814584582246"><ele>3.0</ele><time>2026-03-22T13:05:52.001Z</time></trkpt><trkpt lat="44.870057506451886" lon="11.708255437890635"><ele>3.0</ele><time>2026-03-22T13:05:53.001Z</time></trkpt><trkpt lat="44.8701502446675" lon="11.708379809667614"><ele>3.0</ele><time>2026-03-22T13:05:54.001Z</time></trkpt><trkpt lat="44.870218725223744" lon="11.708508731468125"><ele>3.0</ele><time>2026-03-22T13:05:55.001Z</time></trkpt><trkpt lat="44.8702722589745" lon="11.70863709306125"><ele>2.8</ele><time>2026-03-22T13:05:56.001Z</time></trkpt><trkpt lat="44.8703086463" lon="11.708782237533004"><ele>2.5999999999999996</ele><time>2026-03-22T13:05:57.001Z</time></trkpt><trkpt lat="44.870307591134726" lon="11.708929697372076"><ele>2.4000000000000004</ele><time>2026-03-22T13:05:58.001Z</time></trkpt><trkpt lat="44.87029258465697" lon="11.709052865429893"><ele>2.2</ele><time>2026-03-22T13:05:59.001Z</time></trkpt><trkpt lat="44.870276947284026" lon="11.709176415164965"><ele>2.0</ele><time>2026-03-22T13:06:00.001Z</time></trkpt><trkpt lat="44.870305740888014" lon="11.709314063488012"><ele>2.0</ele><time>2026-03-22T13:06:01.001Z</time></trkpt><trkpt lat="44.870390186280744" lon="11.709396876308274"><ele>2.0</ele><time>2026-03-22T13:06:02.001Z</time></trkpt><trkpt lat="44.87047293109297" lon="11.709446965297406"><ele>2.0</ele><time>2026-03-22T13:06:03.001Z</time></trkpt><trkpt lat="44.870573971371186" lon="11.709449845600561"><ele>2.0</ele><time>2026-03-22T13:06:04.001Z</time></trkpt><trkpt lat="44.8706639069813" lon="11.709417477072755"><ele>2.0</ele><time>2026-03-22T13:06:05Z</time></trkpt><trkpt lat="44.87075473258145" lon="11.709396584230364"><ele>2.2</ele><time>2026-03-22T13:06:06Z</time></trkpt><trkpt lat="44.870840209553556" lon="11.709429946943905"><ele>2.4000000000000004</ele><time>2026-03-22T13:06:07Z</time></trkpt><trkpt lat="44.870908902926345" lon="11.709517415526026"><ele>2.5999999999999996</ele><time>2026-03-22T13:06:08Z</time></trkpt><trkpt lat="44.87096686308833" lon="11.709663279972519"><ele>2.8</ele><time>2026-03-22T13:06:09Z</time></trkpt><trkpt lat="44.87102005822492" lon="11.709839736877077"><ele>3.0</ele><time>2026-03-22T13:06:10Z</time></trkpt><trkpt lat="44.87105390178939" lon="11.710060699854791"><ele>3.666666666666667</ele><time>2026-03-22T13:06:11Z</time></trkpt><trkpt lat="44.87111016480931" lon="11.710295310164247"><ele>4.333333333333334</ele><time>2026-03-22T13:06:12Z</time></trkpt><trkpt lat="44.87116540420224" lon="11.710552523698874"><ele>5.0</ele><time>2026-03-22T13:06:13Z</time></trkpt><trkpt lat="44.871216730382436" lon="11.710827830885655"><ele>4.0</ele><time>2026-03-22T13:06:14Z</time></trkpt><trkpt lat="44.87126067938255" lon="11.711106801156621"><ele>3.0</ele><time>2026-03-22T13:06:15Z</time></trkpt><trkpt lat="44.87130163077565" lon="11.711381065028336"><ele>2.0</ele><time>2026-03-22T13:06:16Z</time></trkpt><trkpt lat="44.87133946923472" lon="11.711642664470249"><ele>2.0</ele><time>2026-03-22T13:06:17Z</time></trkpt><trkpt lat="44.87137868916786" lon="11.711904974637847"><ele>2.0</ele><time>2026-03-22T13:06:18Z</time></trkpt><trkpt lat="44.871415557768415" lon="11.71216553964129"><ele>2.0</ele><time>2026-03-22T13:06:19Z</time></trkpt><trkpt lat="44.87145850909387" lon="11.712407542637742"><ele>1.3333333333333333</ele><time>2026-03-22T13:06:20Z</time></trkpt><trkpt lat="44.87150665270642" lon="11.71262839219846"><ele>0.6666666666666666</ele><time>2026-03-22T13:06:21Z</time></trkpt><trkpt lat="44.87155967954133" lon="11.712831173010288"><ele>0.0</ele><time>2026-03-22T13:06:22Z</time></trkpt><trkpt lat="44.871605778036916" lon="11.713013218457197"><ele>0.0</ele><time>2026-03-22T13:06:23Z</time></trkpt><trkpt lat="44.87166056034893" lon="11.713196480169469"><ele>0.0</ele><time>2026-03-22T13:06:24Z</time></trkpt><trkpt lat="44.87171939557311" lon="11.713390183838323"><ele>0.0</ele><time>2026-03-22T13:06:25Z</time></trkpt><trkpt lat="44.87178032525326" lon="11.713592840506172"><ele>0.0</ele><time>2026-03-22T13:06:26Z</time></trkpt><trkpt lat="44.871850926520885" lon="11.713802295573387"><ele>0.3333333333333333</ele><time>2026-03-22T13:06:27Z</time></trkpt><trkpt lat="44.871926523036485" lon="11.714010059115415"><ele>0.6666666666666666</ele><time>2026-03-22T13:06:28Z</time></trkpt><trkpt lat="44.872009160021605" lon="11.714213758372468"><ele>1.0</ele><time>2026-03-22T13:06:29Z</time></trkpt><trkpt lat="44.872086713548626" lon="11.714407765080434"><ele>1.0</ele><time>2026-03-22T13:06:30Z</time></trkpt><trkpt lat="44.87217009256797" lon="11.714596675847188"><ele>1.0</ele><time>2026-03-22T13:06:31Z</time></trkpt><trkpt lat="44.87225692283261" lon="11.714778465645038"><ele>1.0</ele><time>2026-03-22T13:06:32Z</time></trkpt><trkpt lat="44.872346379859536" lon="11.714954635290706"><ele>1.0</ele><time>2026-03-22T13:06:33Z</time></trkpt><trkpt lat="44.8724358867385" lon="11.71512672640933"><ele>1.0</ele><time>2026-03-22T13:06:34Z</time></trkpt><trkpt lat="44.872529658914004" lon="11.715296059031806"><ele>1.0</ele><time>2026-03-22T13:06:35Z</time></trkpt><trkpt lat="44.87262727884341" lon="11.715465034413501"><ele>1.0</ele><time>2026-03-22T13:06:36Z</time></trkpt><trkpt lat="44.87273302189533" lon="11.715631661298046"><ele>1.0</ele><time>2026-03-22T13:06:37Z</time></trkpt><trkpt lat="44.87283970072131" lon="11.715799060193028"><ele>1.0</ele><time>2026-03-22T13:06:38Z</time></trkpt><trkpt lat="44.87295227455763" lon="11.715963574877497"><ele>1.0</ele><time>2026-03-22T13:06:39Z</time></trkpt><trkpt lat="44.8730679224148" lon="11.716127610131771"><ele>1.0</ele><time>2026-03-22T13:06:40Z</time></trkpt><trkpt lat="44.873189766623675" lon="11.716289126717038"><ele>1.0</ele><time>2026-03-22T13:06:41Z</time></trkpt><trkpt lat="44.87331337717189" lon="11.716446713561005"><ele>0.3333333333333333</ele><time>2026-03-22T13:06:42Z</time></trkpt><trkpt lat="44.873443077444115" lon="11.716597418959875"><ele>-0.3333333333333333</ele><time>2026-03-22T13:06:43Z</time></trkpt><trkpt lat="44.87357370210988" lon="11.716746890414734"><ele>-1.0</ele><time>2026-03-22T13:06:44Z</time></trkpt><trkpt lat="44.87370890812907" lon="11.716887263700285"><ele>-0.6666666666666666</ele><time>2026-03-22T13:06:45Z</time></trkpt><trkpt lat="44.87384372369224" lon="11.717024410377167"><ele>-0.3333333333333333</ele><time>2026-03-22T13:06:46Z</time></trkpt><trkpt lat="44.8739755329588" lon="11.717161217937155"><ele>0.0</ele><time>2026-03-22T13:06:47Z</time></trkpt><trkpt lat="44.87411462774319" lon="11.717286675156467"><ele>0.0</ele><time>2026-03-22T13:06:48Z</time></trkpt><trkpt lat="44.87425776148758" lon="11.717401342124107"><ele>0.0</ele><time>2026-03-22T13:06:49Z</time></trkpt><trkpt lat="44.87439951509832" lon="11.717513955098081"><ele>0.0</ele><time>2026-03-22T13:06:50Z</time></trkpt><trkpt lat="44.87454016945986" lon="11.717625007117713"><ele>0.3333333333333333</ele><time>2026-03-22T13:06:51Z</time></trkpt><trkpt lat="44.87468701944907" lon="11.717735566087812"><ele>0.6666666666666666</ele><time>2026-03-22T13:06:52Z</time></trkpt><trkpt lat="44.87482589351888" lon="11.717853043732612"><ele>1.0</ele><time>2026-03-22T13:06:53Z</time></trkpt><trkpt lat="44.87497401185582" lon="11.717964495704232"><ele>1.0</ele><time>2026-03-22T13:06:54Z</time></trkpt><trkpt lat="44.87512105840567" lon="11.718084550071818"><ele>1.0</ele><time>2026-03-22T13:06:55Z</time></trkpt><trkpt lat="44.87527292396357" lon="11.71819526466538"><ele>1.0</ele><time>2026-03-22T13:06:56Z</time></trkpt><trkpt lat="44.87541431393873" lon="11.718318699003083"><ele>1.0</ele><time>2026-03-22T13:06:57Z</time></trkpt><trkpt lat="44.87556428973229" lon="11.718434468369258"><ele>1.0</ele><time>2026-03-22T13:06:58Z</time></trkpt><trkpt lat="44.875691697196594" lon="11.718557313402613"><ele>1.0</ele><time>2026-03-22T13:06:59Z</time></trkpt><trkpt lat="44.875831280127954" lon="11.718681811407231"><ele>1.0</ele><time>2026-03-22T13:07:00Z</time></trkpt><trkpt lat="44.87596101123308" lon="11.718811439918793"><ele>1.0</ele><time>2026-03-22T13:07:01Z</time></trkpt><trkpt lat="44.876091984537716" lon="11.718944270223245"><ele>1.0</ele><time>2026-03-22T13:07:02Z</time></trkpt><trkpt lat="44.87621578152252" lon="11.719077359194538"><ele>1.0</ele><time>2026-03-22T13:07:03Z</time></trkpt><trkpt lat="44.876339785715075" lon="11.719219286059362"><ele>1.0</ele><time>2026-03-22T13:07:04Z</time></trkpt><trkpt lat="44.87646540948438" lon="11.719367017379804"><ele>1.0</ele><time>2026-03-22T13:07:05Z</time></trkpt><trkpt lat="44.8765829740647" lon="11.719523256567596"><ele>1.0</ele><time>2026-03-22T13:07:06Z</time></trkpt><trkpt lat="44.87670351883749" lon="11.719685464244098"><ele>1.0</ele><time>2026-03-22T13:07:07Z</time></trkpt><trkpt lat="44.87681767346729" lon="11.719852531623019"><ele>1.0</ele><time>2026-03-22T13:07:08Z</time></trkpt><trkpt lat="44.87692878244161" lon="11.720021618075293"><ele>1.3333333333333333</ele><time>2026-03-22T13:07:09Z</time></trkpt><trkpt lat="44.877035232736006" lon="11.720194378129175"><ele>1.6666666666666665</ele><time>2026-03-22T13:07:10Z</time></trkpt><trkpt lat="44.877146566509936" lon="11.720366858677389"><ele>2.0</ele><time>2026-03-22T13:07:11Z</time></trkpt><trkpt lat="44.87724491323202" lon="11.720543027973294"><ele>2.0</ele><time>2026-03-22T13:07:12Z</time></trkpt><trkpt lat="44.877337154907345" lon="11.720727481936864"><ele>2.0</ele><time>2026-03-22T13:07:13Z</time></trkpt><trkpt lat="44.87742717524576" lon="11.720908248516878"><ele>2.0</ele><time>2026-03-22T13:07:14Z</time></trkpt><trkpt lat="44.877512202729996" lon="11.72109780297922"><ele>2.0</ele><time>2026-03-22T13:07:15Z</time></trkpt><trkpt lat="44.87759158923778" lon="11.721287813509813"><ele>2.0</ele><time>2026-03-22T13:07:16Z</time></trkpt><trkpt lat="44.87767173668285" lon="11.721485785705394"><ele>2.0</ele><time>2026-03-22T13:07:17Z</time></trkpt><trkpt lat="44.87775235094003" lon="11.721692930926663"><ele>1.6666666666666665</ele><time>2026-03-22T13:07:18Z</time></trkpt><trkpt lat="44.877829236146404" lon="11.721901521496973"><ele>1.3333333333333333</ele><time>2026-03-22T13:07:19Z</time></trkpt><trkpt lat="44.87790251102315" lon="11.722112450039475"><ele>1.0</ele><time>2026-03-22T13:07:20Z</time></trkpt><trkpt lat="44.877973559597365" lon="11.7223234577547"><ele>1.0</ele><time>2026-03-22T13:07:21Z</time></trkpt><trkpt lat="44.87803723419286" lon="11.722537408115766"><ele>1.0</ele><time>2026-03-22T13:07:22Z</time></trkpt><trkpt lat="44.87809373978233" lon="11.722751973334121"><ele>1.0</ele><time>2026-03-22T13:07:23Z</time></trkpt><trkpt lat="44.87814707701761" lon="11.722970011827254"><ele>1.3333333333333333</ele><time>2026-03-22T13:07:24Z</time></trkpt><trkpt lat="44.87820089644028" lon="11.72319083911865"><ele>1.6666666666666665</ele><time>2026-03-22T13:07:25Z</time></trkpt><trkpt lat="44.878251140485126" lon="11.723408934252003"><ele>2.0</ele><time>2026-03-22T13:07:25.999Z</time></trkpt><trkpt lat="44.87829380974094" lon="11.723629873676964"><ele>2.333333333333333</ele><time>2026-03-22T13:07:26.999Z</time></trkpt><trkpt lat="44.87833644358906" lon="11.72384841275318"><ele>2.6666666666666665</ele><time>2026-03-22T13:07:27.999Z</time></trkpt><trkpt lat="44.87837570197958" lon="11.72406570580986"><ele>3.0</ele><time>2026-03-22T13:07:28.999Z</time></trkpt><trkpt lat="44.878414935083946" lon="11.724283268530122"><ele>2.3333333333333335</ele><time>2026-03-22T13:07:29.999Z</time></trkpt><trkpt lat="44.87845386603881" lon="11.724499310303768"><ele>1.6666666666666665</ele><time>2026-03-22T13:07:31Z</time></trkpt><trkpt lat="44.878487947116966" lon="11.724712426592843"><ele>1.0</ele><time>2026-03-22T13:07:32Z</time></trkpt><trkpt lat="44.87851914685053" lon="11.724929331885775"><ele>1.0</ele><time>2026-03-22T13:07:33Z</time></trkpt><trkpt lat="44.878554864552825" lon="11.725148395999671"><ele>1.0</ele><time>2026-03-22T13:07:34.001Z</time></trkpt><trkpt lat="44.878578633225764" lon="11.725364510660919"><ele>1.0</ele><time>2026-03-22T13:07:35Z</time></trkpt><trkpt lat="44.878608031224104" lon="11.72558774620538"><ele>1.0</ele><time>2026-03-22T13:07:36Z</time></trkpt><trkpt lat="44.87864324302366" lon="11.72580302240353"><ele>1.0</ele><time>2026-03-22T13:07:37.001Z</time></trkpt><trkpt lat="44.878683946031316" lon="11.72603056637738"><ele>1.0</ele><time>2026-03-22T13:07:38.001Z</time></trkpt><trkpt lat="44.878719710774526" lon="11.726250853594072"><ele>0.6666666666666666</ele><time>2026-03-22T13:07:39.001Z</time></trkpt><trkpt lat="44.87875218996985" lon="11.726473662731246"><ele>0.3333333333333333</ele><time>2026-03-22T13:07:40Z</time></trkpt><trkpt lat="44.87878422752538" lon="11.72669634379893"><ele>0.0</ele><time>2026-03-22T13:07:41Z</time></trkpt><trkpt lat="44.87881862382097" lon="11.726916713631988"><ele>1.0</ele><time>2026-03-22T13:07:42Z</time></trkpt><trkpt lat="44.87885559873998" lon="11.72713636719295"><ele>2.0</ele><time>2026-03-22T13:07:43Z</time></trkpt><trkpt lat="44.87889144881099" lon="11.727355794824708"><ele>3.0</ele><time>2026-03-22T13:07:44.001Z</time></trkpt><trkpt lat="44.87892741097477" lon="11.727575187518012"><ele>3.333333333333333</ele><time>2026-03-22T13:07:45.001Z</time></trkpt><trkpt lat="44.87896152593274" lon="11.727793242529618"><ele>3.6666666666666665</ele><time>2026-03-22T13:07:46.001Z</time></trkpt><trkpt lat="44.87899906128636" lon="11.728006284276857"><ele>4.0</ele><time>2026-03-22T13:07:47.001Z</time></trkpt><trkpt lat="44.87903238040405" lon="11.728223867413947"><ele>4.0</ele><time>2026-03-22T13:07:48.001Z</time></trkpt><trkpt lat="44.87907061978788" lon="11.728444457906654"><ele>4.0</ele><time>2026-03-22T13:07:49.001Z</time></trkpt><trkpt lat="44.879101218956094" lon="11.728663166480542"><ele>4.0</ele><time>2026-03-22T13:07:50.001Z</time></trkpt><trkpt lat="44.87913617510184" lon="11.728886630771777"><ele>3.6666666666666665</ele><time>2026-03-22T13:07:51.001Z</time></trkpt><trkpt lat="44.87917422333893" lon="11.729112878497467"><ele>3.333333333333333</ele><time>2026-03-22T13:07:52.001Z</time></trkpt><trkpt lat="44.879207755463234" lon="11.729335864568315"><ele>3.0</ele><time>2026-03-22T13:07:53.001Z</time></trkpt><trkpt lat="44.87924399029833" lon="11.729563985228934"><ele>2.6666666666666665</ele><time>2026-03-22T13:07:54.001Z</time></trkpt><trkpt lat="44.87927887691034" lon="11.729789013087482"><ele>2.333333333333333</ele><time>2026-03-22T13:07:55.001Z</time></trkpt><trkpt lat="44.879311747026485" lon="11.730026080678181"><ele>2.0</ele><time>2026-03-22T13:07:56.001Z</time></trkpt><trkpt lat="44.87934820096389" lon="11.730249116695619"><ele>1.6666666666666665</ele><time>2026-03-22T13:07:57.001Z</time></trkpt><trkpt lat="44.87938514272245" lon="11.730477311330441"><ele>1.3333333333333333</ele><time>2026-03-22T13:07:58.001Z</time></trkpt><trkpt lat="44.87942713023956" lon="11.73069860755803"><ele>1.0</ele><time>2026-03-22T13:07:59.001Z</time></trkpt><trkpt lat="44.87947250318495" lon="11.730914741750448"><ele>1.0</ele><time>2026-03-22T13:08:00.001Z</time></trkpt><trkpt lat="44.879512866236524" lon="11.731128022568086"><ele>1.0</ele><time>2026-03-22T13:08:01.001Z</time></trkpt><trkpt lat="44.879549606325945" lon="11.731336968200969"><ele>1.0</ele><time>2026-03-22T13:08:02.001Z</time></trkpt><trkpt lat="44.87958475749721" lon="11.731541802186992"><ele>1.0</ele><time>2026-03-22T13:08:03.001Z</time></trkpt><trkpt lat="44.87962237597" lon="11.731750431776767"><ele>1.0</ele><time>2026-03-22T13:08:04.001Z</time></trkpt><trkpt lat="44.87965404529422" lon="11.731961846994311"><ele>1.0</ele><time>2026-03-22T13:08:05.001Z</time></trkpt><trkpt lat="44.87968920190541" lon="11.732175131486846"><ele>1.3333333333333333</ele><time>2026-03-22T13:08:06.001Z</time></trkpt><trkpt lat="44.879723233832976" lon="11.732386388719085"><ele>1.6666666666666665</ele><time>2026-03-22T13:08:07.001Z</time></trkpt><trkpt lat="44.87975758606379" lon="11.732598909520167"><ele>2.0</ele><time>2026-03-22T13:08:08.001Z</time></trkpt><trkpt lat="44.879795239599225" lon="11.732809292766046"><ele>2.6666666666666665</ele><time>2026-03-22T13:08:09.001Z</time></trkpt><trkpt lat="44.87983177162021" lon="11.733019438088762"><ele>3.333333333333333</ele><time>2026-03-22T13:08:10.001Z</time></trkpt><trkpt lat="44.879870472483795" lon="11.73323389351581"><ele>4.0</ele><time>2026-03-22T13:08:11.001Z</time></trkpt><trkpt lat="44.87991375470283" lon="11.733450412619652"><ele>3.333333333333333</ele><time>2026-03-22T13:08:12.001Z</time></trkpt><trkpt lat="44.87995169892656" lon="11.73367090863631"><ele>2.6666666666666665</ele><time>2026-03-22T13:08:13.001Z</time></trkpt><trkpt lat="44.87998968452818" lon="11.733888591684304"><ele>2.0</ele><time>2026-03-22T13:08:14.001Z</time></trkpt><trkpt lat="44.88003092452745" lon="11.734114908769952"><ele>2.0</ele><time>2026-03-22T13:08:15.001Z</time></trkpt><trkpt lat="44.88006326805727" lon="11.734338886358538"><ele>2.0</ele><time>2026-03-22T13:08:16.001Z</time></trkpt><trkpt lat="44.880111056002306" lon="11.73458492153045"><ele>2.0</ele><time>2026-03-22T13:08:17.001Z</time></trkpt><trkpt lat="44.880144272202514" lon="11.73481018822904"><ele>2.0</ele><time>2026-03-22T13:08:18.001Z</time></trkpt><trkpt lat="44.88018490895289" lon="11.735038787624124"><ele>2.0</ele><time>2026-03-22T13:08:19.001Z</time></trkpt><trkpt lat="44.88022110543822" lon="11.735262943532852"><ele>2.0</ele><time>2026-03-22T13:08:20.001Z</time></trkpt><trkpt lat="44.88025663133989" lon="11.735482231070737"><ele>2.0</ele><time>2026-03-22T13:08:21Z</time></trkpt><trkpt lat="44.88028730691697" lon="11.735685421929455"><ele>2.0</ele><time>2026-03-22T13:08:22Z</time></trkpt><trkpt lat="44.880312628457226" lon="11.735883734127967"><ele>2.0</ele><time>2026-03-22T13:08:23Z</time></trkpt><trkpt lat="44.8803396522717" lon="11.736070129142494"><ele>2.0</ele><time>2026-03-22T13:08:24Z</time></trkpt><trkpt lat="44.88036996279834" lon="11.736273142339398"><ele>2.333333333333333</ele><time>2026-03-22T13:08:25Z</time></trkpt><trkpt lat="44.880401151447586" lon="11.736476218713179"><ele>2.6666666666666665</ele><time>2026-03-22T13:08:26Z</time></trkpt><trkpt lat="44.880436497830104" lon="11.73669693721266"><ele>3.0</ele><time>2026-03-22T13:08:27Z</time></trkpt><trkpt lat="44.88047461185435" lon="11.736929515530246"><ele>3.0</ele><time>2026-03-22T13:08:28Z</time></trkpt><trkpt lat="44.88051908724807" lon="11.737178515354936"><ele>3.0</ele><time>2026-03-22T13:08:29Z</time></trkpt><trkpt lat="44.880560670074914" lon="11.737439764850448"><ele>3.0</ele><time>2026-03-22T13:08:30Z</time></trkpt><trkpt lat="44.88061054147196" lon="11.737716648193333"><ele>2.3333333333333335</ele><time>2026-03-22T13:08:31Z</time></trkpt><trkpt lat="44.880660478132505" lon="11.73800058126052"><ele>1.6666666666666665</ele><time>2026-03-22T13:08:32Z</time></trkpt><trkpt lat="44.88070811630477" lon="11.738297349835745"><ele>1.0</ele><time>2026-03-22T13:08:33Z</time></trkpt><trkpt lat="44.88074934843821" lon="11.738593534910537"><ele>1.0</ele><time>2026-03-22T13:08:34Z</time></trkpt><trkpt lat="44.88079359558532" lon="11.738886448796453"><ele>1.0</ele><time>2026-03-22T13:08:35Z</time></trkpt><trkpt lat="44.880847030889456" lon="11.73915888983409"><ele>1.0</ele><time>2026-03-22T13:08:36Z</time></trkpt><trkpt lat="44.880889685619984" lon="11.739395036102046"><ele>1.0</ele><time>2026-03-22T13:08:37Z</time></trkpt><trkpt lat="44.88092493450491" lon="11.73959699439065"><ele>1.0</ele><time>2026-03-22T13:08:38Z</time></trkpt><trkpt lat="44.880960999945486" lon="11.739775531916017"><ele>1.0</ele><time>2026-03-22T13:08:39Z</time></trkpt><trkpt lat="44.88099030894926" lon="11.7399336594222"><ele>1.0</ele><time>2026-03-22T13:08:40Z</time></trkpt><trkpt lat="44.88101387541828" lon="11.740061217267606"><ele>1.25</ele><time>2026-03-22T13:08:41Z</time></trkpt><trkpt lat="44.88104275665334" lon="11.740174160051803"><ele>1.5</ele><time>2026-03-22T13:08:42Z</time></trkpt><trkpt lat="44.88105579108154" lon="11.740279987377608"><ele>1.75</ele><time>2026-03-22T13:08:43Z</time></trkpt><trkpt lat="44.88108589037692" lon="11.74038327468226"><ele>2.0</ele><time>2026-03-22T13:08:45Z</time></trkpt><trkpt lat="44.88127962238724" lon="11.74025728907209"><ele>2.0</ele><time>2026-03-22T13:08:46Z</time></trkpt><trkpt lat="44.88139331754142" lon="11.74023526026879"><ele>2.0</ele><time>2026-03-22T13:08:47Z</time></trkpt><trkpt lat="44.881536820759166" lon="11.740268001324878"><ele>2.0</ele><time>2026-03-22T13:08:48Z</time></trkpt><trkpt lat="44.88169813652089" lon="11.740276809982888"><ele>2.0</ele><time>2026-03-22T13:08:49Z</time></trkpt><trkpt lat="44.881872404455095" lon="11.740300917891666"><ele>2.333333333333333</ele><time>2026-03-22T13:08:50Z</time></trkpt><trkpt lat="44.882054612587176" lon="11.740330234872697"><ele>2.6666666666666665</ele><time>2026-03-22T13:08:51Z</time></trkpt><trkpt lat="44.88224112200604" lon="11.740357990447778"><ele>3.0</ele><time>2026-03-22T13:08:52Z</time></trkpt><trkpt lat="44.882445460529034" lon="11.740389348596013"><ele>3.0</ele><time>2026-03-22T13:08:53Z</time></trkpt><trkpt lat="44.88264949996573" lon="11.740424490420015"><ele>3.0</ele><time>2026-03-22T13:08:54Z</time></trkpt><trkpt lat="44.882858221874756" lon="11.740465068320038"><ele>3.0</ele><time>2026-03-22T13:08:55Z</time></trkpt><trkpt lat="44.88306908870646" lon="11.740503464168782"><ele>3.0</ele><time>2026-03-22T13:08:56Z</time></trkpt><trkpt lat="44.88327262703023" lon="11.740538119171793"><ele>3.0</ele><time>2026-03-22T13:08:57Z</time></trkpt><trkpt lat="44.88346554061254" lon="11.740570372393838"><ele>3.0</ele><time>2026-03-22T13:08:58Z</time></trkpt><trkpt lat="44.883653798602175" lon="11.740606191175408"><ele>3.333333333333333</ele><time>2026-03-22T13:08:59Z</time></trkpt><trkpt lat="44.88383764169274" lon="11.740647134622039"><ele>3.6666666666666665</ele><time>2026-03-22T13:09:00Z</time></trkpt><trkpt lat="44.88402393386068" lon="11.740702823960817"><ele>4.0</ele><time>2026-03-22T13:09:01Z</time></trkpt><trkpt lat="44.88421936849757" lon="11.740784326150251"><ele>4.0</ele><time>2026-03-22T13:09:02Z</time></trkpt><trkpt lat="44.884417463903354" lon="11.740873781423769"><ele>4.0</ele><time>2026-03-22T13:09:03Z</time></trkpt><trkpt lat="44.8846175891812" lon="11.74097046468944"><ele>4.0</ele><time>2026-03-22T13:09:04Z</time></trkpt><trkpt lat="44.884816153344765" lon="11.741062693097872"><ele>3.333333333333333</ele><time>2026-03-22T13:09:05Z</time></trkpt><trkpt lat="44.88500766781602" lon="11.741145931038089"><ele>2.6666666666666665</ele><time>2026-03-22T13:09:06Z</time></trkpt><trkpt lat="44.88519515126923" lon="11.74121742300259"><ele>2.0</ele><time>2026-03-22T13:09:07Z</time></trkpt><trkpt lat="44.88537491599972" lon="11.741255469563393"><ele>1.6666666666666665</ele><time>2026-03-22T13:09:08Z</time></trkpt><trkpt lat="44.885570525616416" lon="11.741260947076238"><ele>1.3333333333333333</ele><time>2026-03-22T13:09:09Z</time></trkpt><trkpt lat="44.885773329201385" lon="11.741247574594908"><ele>1.0</ele><time>2026-03-22T13:09:10Z</time></trkpt><trkpt lat="44.88598363557391" lon="11.74121565884631"><ele>0.6666666666666666</ele><time>2026-03-22T13:09:11Z</time></trkpt><trkpt lat="44.88620131305534" lon="11.741190826964699"><ele>0.3333333333333333</ele><time>2026-03-22T13:09:12Z</time></trkpt><trkpt lat="44.88642141883968" lon="11.741172596386177"><ele>0.0</ele><time>2026-03-22T13:09:13Z</time></trkpt><trkpt lat="44.88664406510809" lon="11.741174817873084"><ele>0.3333333333333333</ele><time>2026-03-22T13:09:14Z</time></trkpt><trkpt lat="44.8868657278012" lon="11.741205643996855"><ele>0.6666666666666666</ele><time>2026-03-22T13:09:15Z</time></trkpt><trkpt lat="44.88708818518858" lon="11.741263910456862"><ele>1.0</ele><time>2026-03-22T13:09:16Z</time></trkpt><trkpt lat="44.88731209926427" lon="11.74134525050073"><ele>1.0</ele><time>2026-03-22T13:09:17Z</time></trkpt><trkpt lat="44.887536115090676" lon="11.741450541271572"><ele>1.0</ele><time>2026-03-22T13:09:18Z</time></trkpt><trkpt lat="44.88775769661398" lon="11.741575200617671"><ele>3.0</ele><time>2026-03-22T13:09:19Z</time></trkpt><trkpt lat="44.8882019732532" lon="11.74181535088748"><ele>1.5</ele><time>2026-03-22T13:09:21Z</time></trkpt><trkpt lat="44.88843165447775" lon="11.741913639334452"><ele>0.0</ele><time>2026-03-22T13:09:22Z</time></trkpt><trkpt lat="44.888668901985696" lon="11.741997307373772"><ele>0.0</ele><time>2026-03-22T13:09:23Z</time></trkpt><trkpt lat="44.88891207008721" lon="11.742065076333578"><ele>0.0</ele><time>2026-03-22T13:09:24Z</time></trkpt><trkpt lat="44.88915599773284" lon="11.742136135644746"><ele>0.5</ele><time>2026-03-22T13:09:25Z</time></trkpt><trkpt lat="44.88938902505342" lon="11.742211202899595"><ele>1.0</ele><time>2026-03-22T13:09:26Z</time></trkpt><trkpt lat="44.88961604777956" lon="11.742296847760574"><ele>1.0</ele><time>2026-03-22T13:09:27Z</time></trkpt><trkpt lat="44.889840750717816" lon="11.742408017335082"><ele>1.0</ele><time>2026-03-22T13:09:28Z</time></trkpt><trkpt lat="44.89005584506901" lon="11.7425245421777"><ele>1.0</ele><time>2026-03-22T13:09:29Z</time></trkpt><trkpt lat="44.890261767357906" lon="11.742629654570976"><ele>1.0</ele><time>2026-03-22T13:09:30Z</time></trkpt><trkpt lat="44.89046574274901" lon="11.742729718375323"><ele>1.0</ele><time>2026-03-22T13:09:31Z</time></trkpt><trkpt lat="44.890659658524356" lon="11.742821322992132"><ele>1.0</ele><time>2026-03-22T13:09:32Z</time></trkpt><trkpt lat="44.89084940205604" lon="11.742881529921704"><ele>1.0</ele><time>2026-03-22T13:09:33Z</time></trkpt><trkpt lat="44.89104911390411" lon="11.742901453747042"><ele>1.0</ele><time>2026-03-22T13:09:34Z</time></trkpt><trkpt lat="44.891260725722205" lon="11.74287687491265"><ele>1.0</ele><time>2026-03-22T13:09:35Z</time></trkpt><trkpt lat="44.8914752970245" lon="11.742838833681132"><ele>1.0</ele><time>2026-03-22T13:09:36Z</time></trkpt><trkpt lat="44.891693129118096" lon="11.74280292805161"><ele>1.0</ele><time>2026-03-22T13:09:37Z</time></trkpt><trkpt lat="44.89189906428769" lon="11.742760324686053"><ele>1.0</ele><time>2026-03-22T13:09:38Z</time></trkpt><trkpt lat="44.89211005556571" lon="11.742720803654148"><ele>1.0</ele><time>2026-03-22T13:09:39Z</time></trkpt><trkpt lat="44.892321102527184" lon="11.742667014598126"><ele>1.0</ele><time>2026-03-22T13:09:40Z</time></trkpt><trkpt lat="44.89252627981308" lon="11.742588757882544"><ele>1.3333333333333333</ele><time>2026-03-22T13:09:41Z</time></trkpt><trkpt lat="44.89272540239125" lon="11.74249862401125"><ele>1.6666666666666665</ele><time>2026-03-22T13:09:42Z</time></trkpt><trkpt lat="44.8929292355062" lon="11.742436732067732"><ele>2.0</ele><time>2026-03-22T13:09:43.001Z</time></trkpt><trkpt lat="44.89314476939059" lon="11.742405871175666"><ele>2.0</ele><time>2026-03-22T13:09:44.001Z</time></trkpt><trkpt lat="44.89337021987074" lon="11.742392813154352"><ele>2.0</ele><time>2026-03-22T13:09:45.001Z</time></trkpt><trkpt lat="44.89359897551628" lon="11.742376131004574"><ele>1.5</ele><time>2026-03-22T13:09:46.001Z</time></trkpt><trkpt lat="44.89383883215744" lon="11.742363164374774"><ele>1.0</ele><time>2026-03-22T13:09:47Z</time></trkpt><trkpt lat="44.89408377986103" lon="11.742354437474454"><ele>0.5</ele><time>2026-03-22T13:09:48Z</time></trkpt><trkpt lat="44.89433423531311" lon="11.742334455285645"><ele>0.0</ele><time>2026-03-22T13:09:49Z</time></trkpt><trkpt lat="44.8945769893525" lon="11.74231961493025"><ele>0.0</ele><time>2026-03-22T13:09:50.001Z</time></trkpt><trkpt lat="44.894824017127185" lon="11.742294648582055"><ele>0.0</ele><time>2026-03-22T13:09:51.001Z</time></trkpt><trkpt lat="44.895069440747136" lon="11.742268327826263"><ele>0.5</ele><time>2026-03-22T13:09:52.001Z</time></trkpt><trkpt lat="44.89531695890769" lon="11.742239921732521"><ele>1.0</ele><time>2026-03-22T13:09:53.001Z</time></trkpt><trkpt lat="44.895559612432244" lon="11.742215005105752"><ele>1.0</ele><time>2026-03-22T13:09:54.001Z</time></trkpt><trkpt lat="44.89580434205403" lon="11.742186980798474"><ele>1.0</ele><time>2026-03-22T13:09:55.001Z</time></trkpt><trkpt lat="44.89605295908795" lon="11.742160889191405"><ele>1.0</ele><time>2026-03-22T13:09:56.001Z</time></trkpt><trkpt lat="44.8963038248119" lon="11.74214008542316"><ele>1.0</ele><time>2026-03-22T13:09:57.001Z</time></trkpt><trkpt lat="44.89656122683775" lon="11.742126290851909"><ele>0.5</ele><time>2026-03-22T13:09:58.001Z</time></trkpt><trkpt lat="44.89682005211589" lon="11.742125585253127"><ele>0.0</ele><time>2026-03-22T13:09:59Z</time></trkpt><trkpt lat="44.89707752389958" lon="11.742129863974137"><ele>0.0</ele><time>2026-03-22T13:10:00Z</time></trkpt><trkpt lat="44.897337583070076" lon="11.74213995485309"><ele>0.0</ele><time>2026-03-22T13:10:01Z</time></trkpt><trkpt lat="44.89759658796867" lon="11.742152618266948"><ele>1.0</ele><time>2026-03-22T13:10:02Z</time></trkpt><trkpt lat="44.89784726731708" lon="11.742159140642263"><ele>2.0</ele><time>2026-03-22T13:10:03Z</time></trkpt><trkpt lat="44.89809787004506" lon="11.742168592780352"><ele>2.0</ele><time>2026-03-22T13:10:04Z</time></trkpt><trkpt lat="44.89834221624134" lon="11.742182800069136"><ele>2.0</ele><time>2026-03-22T13:10:05Z</time></trkpt><trkpt lat="44.898584270884555" lon="11.742195826283131"><ele>2.0</ele><time>2026-03-22T13:10:06Z</time></trkpt><trkpt lat="44.89882601226323" lon="11.742208886774995"><ele>2.0</ele><time>2026-03-22T13:10:07Z</time></trkpt><trkpt lat="44.89906359785155" lon="11.74221917350784"><ele>1.0</ele><time>2026-03-22T13:10:08Z</time></trkpt><trkpt lat="44.899295550365494" lon="11.742227399116132"><ele>0.0</ele><time>2026-03-22T13:10:09Z</time></trkpt><trkpt lat="44.8995203046191" lon="11.742235645191817"><ele>0.0</ele><time>2026-03-22T13:10:10Z</time></trkpt><trkpt lat="44.899736380886324" lon="11.742243530466787"><ele>0.0</ele><time>2026-03-22T13:10:11Z</time></trkpt><trkpt lat="44.899945933571665" lon="11.742242745166648"><ele>0.0</ele><time>2026-03-22T13:10:12Z</time></trkpt><trkpt lat="44.900149004400234" lon="11.742226816785369"><ele>0.6666666666666666</ele><time>2026-03-22T13:10:13Z</time></trkpt><trkpt lat="44.90034530866322" lon="11.742181300357442"><ele>1.3333333333333333</ele><time>2026-03-22T13:10:14Z</time></trkpt><trkpt lat="44.90054716500459" lon="11.742112362358336"><ele>2.0</ele><time>2026-03-22T13:10:15Z</time></trkpt><trkpt lat="44.90074399062422" lon="11.742004783657388"><ele>2.333333333333333</ele><time>2026-03-22T13:10:16Z</time></trkpt><trkpt lat="44.90093864589079" lon="11.741873413565413"><ele>2.6666666666666665</ele><time>2026-03-22T13:10:17Z</time></trkpt><trkpt lat="44.901135440671695" lon="11.741733525867126"><ele>3.0</ele><time>2026-03-22T13:10:18Z</time></trkpt><trkpt lat="44.90133320390415" lon="11.741587367674574"><ele>3.0</ele><time>2026-03-22T13:10:19Z</time></trkpt><trkpt lat="44.90153512599771" lon="11.741444989004638"><ele>3.0</ele><time>2026-03-22T13:10:20Z</time></trkpt><trkpt lat="44.90174466365872" lon="11.741325203379185"><ele>2.0</ele><time>2026-03-22T13:10:21Z</time></trkpt><trkpt lat="44.90196141040482" lon="11.74122514889329"><ele>1.0</ele><time>2026-03-22T13:10:22Z</time></trkpt><trkpt lat="44.902179151287456" lon="11.741137784942772"><ele>1.0</ele><time>2026-03-22T13:10:23Z</time></trkpt><trkpt lat="44.902388696779354" lon="11.741074609938128"><ele>1.0</ele><time>2026-03-22T13:10:24Z</time></trkpt><trkpt lat="44.90260078564292" lon="11.7410380137372"><ele>1.0</ele><time>2026-03-22T13:10:25Z</time></trkpt><trkpt lat="44.90281339851454" lon="11.741035172438622"><ele>1.0</ele><time>2026-03-22T13:10:26Z</time></trkpt><trkpt lat="44.90303272058605" lon="11.741068732854117"><ele>1.0</ele><time>2026-03-22T13:10:27Z</time></trkpt><trkpt lat="44.90324898747488" lon="11.741140095925001"><ele>1.0</ele><time>2026-03-22T13:10:28Z</time></trkpt><trkpt lat="44.90347543069867" lon="11.741218222849795"><ele>1.3333333333333333</ele><time>2026-03-22T13:10:29Z</time></trkpt><trkpt lat="44.90368719268683" lon="11.741286643116148"><ele>1.6666666666666665</ele><time>2026-03-22T13:10:30Z</time></trkpt><trkpt lat="44.90389921438365" lon="11.741342237487155"><ele>2.0</ele><time>2026-03-22T13:10:31Z</time></trkpt><trkpt lat="44.904106002848906" lon="11.741380556310089"><ele>1.3333333333333333</ele><time>2026-03-22T13:10:32Z</time></trkpt><trkpt lat="44.90431670045162" lon="11.741395120081808"><ele>0.6666666666666666</ele><time>2026-03-22T13:10:33Z</time></trkpt><trkpt lat="44.90452470241401" lon="11.741384373299455"><ele>0.0</ele><time>2026-03-22T13:10:34Z</time></trkpt><trkpt lat="44.90474395342959" lon="11.741340340391384"><ele>0.0</ele><time>2026-03-22T13:10:35Z</time></trkpt><trkpt lat="44.90497059171196" lon="11.741262434838132"><ele>0.0</ele><time>2026-03-22T13:10:36Z</time></trkpt><trkpt lat="44.90519537122897" lon="11.741173781677546"><ele>0.0</ele><time>2026-03-22T13:10:37Z</time></trkpt><trkpt lat="44.90542287785799" lon="11.741066125899286"><ele>0.0</ele><time>2026-03-22T13:10:38Z</time></trkpt><trkpt lat="44.9056474222979" lon="11.740956987964028"><ele>0.5</ele><time>2026-03-22T13:10:39Z</time></trkpt><trkpt lat="44.90586542031997" lon="11.740848070436448"><ele>1.0</ele><time>2026-03-22T13:10:40Z</time></trkpt><trkpt lat="44.906082476985105" lon="11.740747665038453"><ele>1.0</ele><time>2026-03-22T13:10:41Z</time></trkpt><trkpt lat="44.90629486838158" lon="11.740657235612598"><ele>1.0</ele><time>2026-03-22T13:10:42Z</time></trkpt><trkpt lat="44.90651043177611" lon="11.740595890979417"><ele>1.0</ele><time>2026-03-22T13:10:43Z</time></trkpt><trkpt lat="44.90671813316251" lon="11.740551842484924"><ele>-0.33333333333333337</ele><time>2026-03-22T13:10:44Z</time></trkpt><trkpt lat="44.90693276094792" lon="11.740508550711748"><ele>-1.6666666666666667</ele><time>2026-03-22T13:10:45Z</time></trkpt><trkpt lat="44.90714133370356" lon="11.740477855492308"><ele>-3.0</ele><time>2026-03-22T13:10:46Z</time></trkpt><trkpt lat="44.90734609894648" lon="11.740490128785192"><ele>-3.0</ele><time>2026-03-22T13:10:47Z</time></trkpt><trkpt lat="44.907549760137115" lon="11.740522661475925"><ele>-3.0</ele><time>2026-03-22T13:10:48Z</time></trkpt><trkpt lat="44.90773404309543" lon="11.740570552644758"><ele>-3.0</ele><time>2026-03-22T13:10:49Z</time></trkpt><trkpt lat="44.907898082887804" lon="11.74064599560353"><ele>-2.6666666666666665</ele><time>2026-03-22T13:10:50Z</time></trkpt><trkpt lat="44.90804961170502" lon="11.740712536872481"><ele>-2.333333333333333</ele><time>2026-03-22T13:10:51Z</time></trkpt><trkpt lat="44.908201718420564" lon="11.740777986768276"><ele>-2.0</ele><time>2026-03-22T13:10:52Z</time></trkpt><trkpt lat="44.90836616346172" lon="11.740820143525147"><ele>-0.6666666666666666</ele><time>2026-03-22T13:10:53Z</time></trkpt><trkpt lat="44.90853345478047" lon="11.740851912918266"><ele>0.6666666666666666</ele><time>2026-03-22T13:10:54Z</time></trkpt><trkpt lat="44.908704325571286" lon="11.740867590660432"><ele>2.0</ele><time>2026-03-22T13:10:55Z</time></trkpt><trkpt lat="44.90886235644932" lon="11.740883075812373"><ele>2.0</ele><time>2026-03-22T13:10:56Z</time></trkpt><trkpt lat="44.909011988629956" lon="11.740898870101114"><ele>2.0</ele><time>2026-03-22T13:10:57Z</time></trkpt><trkpt lat="44.909152166513444" lon="11.740906293467583"><ele>2.0</ele><time>2026-03-22T13:10:58Z</time></trkpt><trkpt lat="44.90928856610481" lon="11.740913669089455"><ele>2.0</ele><time>2026-03-22T13:10:59Z</time></trkpt><trkpt lat="44.909423308939935" lon="11.740934999880123"><ele>2.0</ele><time>2026-03-22T13:11:00Z</time></trkpt><trkpt lat="44.90956332549758" lon="11.740964843960137"><ele>2.0</ele><time>2026-03-22T13:11:01Z</time></trkpt><trkpt lat="44.90968041843226" lon="11.741003839700337"><ele>2.0</ele><time>2026-03-22T13:11:02Z</time></trkpt><trkpt lat="44.909806925013925" lon="11.74105769347512"><ele>2.0</ele><time>2026-03-22T13:11:03Z</time></trkpt><trkpt lat="44.909932065358646" lon="11.741124253867419"><ele>2.0</ele><time>2026-03-22T13:11:04Z</time></trkpt><trkpt lat="44.91005202047521" lon="11.741207316209936"><ele>2.0</ele><time>2026-03-22T13:11:05Z</time></trkpt><trkpt lat="44.91016512173648" lon="11.741307000931819"><ele>2.0</ele><time>2026-03-22T13:11:06Z</time></trkpt><trkpt lat="44.91027402020318" lon="11.741412944793575"><ele>2.0</ele><time>2026-03-22T13:11:07Z</time></trkpt><trkpt lat="44.910366917397255" lon="11.741522948494662"><ele>2.0</ele><time>2026-03-22T13:11:08Z</time></trkpt><trkpt lat="44.91045057805662" lon="11.741637368647906"><ele>2.0</ele><time>2026-03-22T13:11:09Z</time></trkpt><trkpt lat="44.91052081730234" lon="11.741746249824457"><ele>2.0</ele><time>2026-03-22T13:11:10Z</time></trkpt><trkpt lat="44.91059085800228" lon="11.74184889556901"><ele>2.0</ele><time>2026-03-22T13:11:11Z</time></trkpt><trkpt lat="44.910650825859754" lon="11.741939239635421"><ele>2.0</ele><time>2026-03-22T13:11:12Z</time></trkpt><trkpt lat="44.910703469470704" lon="11.742019104088914"><ele>1.9999999999999998</ele><time>2026-03-22T13:11:13Z</time></trkpt><trkpt lat="44.910778328433274" lon="11.742128474228396"><ele>2.0</ele><time>2026-03-22T13:11:15Z</time></trkpt><trkpt lat="44.91082564907251" lon="11.74219892596559"><ele>2.0</ele><time>2026-03-22T13:11:17Z</time></trkpt><trkpt lat="44.91087650222326" lon="11.742270222499444"><ele>2.0</ele><time>2026-03-22T13:11:27.999Z</time></trkpt><trkpt lat="44.91094875933214" lon="11.742375458488947"><ele>1.9999999999999998</ele><time>2026-03-22T13:11:30.999Z</time></trkpt><trkpt lat="44.911013491158194" lon="11.742457757249058"><ele>2.0</ele><time>2026-03-22T13:11:32.999Z</time></trkpt><trkpt lat="44.91087714789449" lon="11.74256869076648"><ele>2.0</ele><time>2026-03-22T13:11:34.999Z</time></trkpt><trkpt lat="44.91080381347414" lon="11.74266994892404"><ele>2.0</ele><time>2026-03-22T13:11:35.999Z</time></trkpt><trkpt lat="44.91071734935754" lon="11.742785017722555"><ele>2.0</ele><time>2026-03-22T13:11:36.999Z</time></trkpt><trkpt lat="44.91061788088945" lon="11.74294465228091"><ele>2.0</ele><time>2026-03-22T13:11:37.999Z</time></trkpt><trkpt lat="44.91048650977714" lon="11.743078013659154"><ele>2.0</ele><time>2026-03-22T13:11:38.999Z</time></trkpt><trkpt lat="44.910363847712276" lon="11.743232281048314"><ele>2.0</ele><time>2026-03-22T13:11:39.999Z</time></trkpt><trkpt lat="44.910233227355164" lon="11.74340138068505"><ele>2.0</ele><time>2026-03-22T13:11:40.999Z</time></trkpt><trkpt lat="44.91009932649505" lon="11.743575944351887"><ele>1.6666666666666665</ele><time>2026-03-22T13:11:41.999Z</time></trkpt><trkpt lat="44.909957237071254" lon="11.743756131064416"><ele>1.3333333333333333</ele><time>2026-03-22T13:11:43Z</time></trkpt><trkpt lat="44.90981089613227" lon="11.743950191534218"><ele>1.0</ele><time>2026-03-22T13:11:44Z</time></trkpt><trkpt lat="44.9096615980576" lon="11.744107882249962"><ele>1.0</ele><time>2026-03-22T13:11:45Z</time></trkpt><trkpt lat="44.909528484061674" lon="11.744275217475996"><ele>1.0</ele><time>2026-03-22T13:11:46.001Z</time></trkpt><trkpt lat="44.909391690147075" lon="11.744447349707778"><ele>1.0</ele><time>2026-03-22T13:11:47.001Z</time></trkpt><trkpt lat="44.909255121359685" lon="11.744618292534803"><ele>1.3333333333333333</ele><time>2026-03-22T13:11:48.001Z</time></trkpt><trkpt lat="44.90910395868285" lon="11.744768168713005"><ele>1.6666666666666665</ele><time>2026-03-22T13:11:49Z</time></trkpt><trkpt lat="44.90894409383565" lon="11.744913363526196"><ele>2.0</ele><time>2026-03-22T13:11:50.001Z</time></trkpt><trkpt lat="44.90878407709046" lon="11.74505274423129"><ele>2.0</ele><time>2026-03-22T13:11:51.001Z</time></trkpt><trkpt lat="44.908630033554026" lon="11.745185887259092"><ele>2.0</ele><time>2026-03-22T13:11:52Z</time></trkpt><trkpt lat="44.908483458346105" lon="11.745312575275818"><ele>2.0</ele><time>2026-03-22T13:11:53.001Z</time></trkpt><trkpt lat="44.90834811375284" lon="11.745429556447705"><ele>2.0</ele><time>2026-03-22T13:11:54.001Z</time></trkpt><trkpt lat="44.90821198642449" lon="11.745546484424995"><ele>2.0</ele><time>2026-03-22T13:11:55Z</time></trkpt><trkpt lat="44.90807790278381" lon="11.745643948353163"><ele>2.0</ele><time>2026-03-22T13:11:56Z</time></trkpt><trkpt lat="44.90794924534392" lon="11.745721830725916"><ele>2.0</ele><time>2026-03-22T13:11:57Z</time></trkpt><trkpt lat="44.90784206866299" lon="11.745789843333764"><ele>2.0</ele><time>2026-03-22T13:11:58Z</time></trkpt><trkpt lat="44.90773289713532" lon="11.7458796948955"><ele>2.0</ele><time>2026-03-22T13:11:59Z</time></trkpt><trkpt lat="44.90765065355931" lon="11.746008022308065"><ele>2.0</ele><time>2026-03-22T13:12:00Z</time></trkpt><trkpt lat="44.90757871701546" lon="11.746170135257287"><ele>2.333333333333333</ele><time>2026-03-22T13:12:01Z</time></trkpt><trkpt lat="44.90749563937947" lon="11.746361357691521"><ele>2.6666666666666665</ele><time>2026-03-22T13:12:02Z</time></trkpt><trkpt lat="44.90740725072284" lon="11.746563692675535"><ele>3.0</ele><time>2026-03-22T13:12:03Z</time></trkpt><trkpt lat="44.90732805663962" lon="11.746744427563385"><ele>3.25</ele><time>2026-03-22T13:12:04Z</time></trkpt><trkpt lat="44.90725415005257" lon="11.746909725662396"><ele>3.5</ele><time>2026-03-22T13:12:05Z</time></trkpt><trkpt lat="44.90718102487207" lon="11.747073276109406"><ele>3.75</ele><time>2026-03-22T13:12:06Z</time></trkpt><trkpt lat="44.90713564017844" lon="11.747216082876701"><ele>4.0</ele><time>2026-03-22T13:12:07Z</time></trkpt><trkpt lat="44.90707162241391" lon="11.747334937881103"><ele>4.0</ele><time>2026-03-22T13:12:08Z</time></trkpt><trkpt lat="44.90700985373318" lon="11.74747390387977"><ele>4.0</ele><time>2026-03-22T13:12:09Z</time></trkpt><trkpt lat="44.90694039437957" lon="11.747640536026044"><ele>4.0</ele><time>2026-03-22T13:12:10Z</time></trkpt><trkpt lat="44.90686550916586" lon="11.747811094353995"><ele>4.0</ele><time>2026-03-22T13:12:11Z</time></trkpt><trkpt lat="44.906786791996" lon="11.74798567693786"><ele>4.0</ele><time>2026-03-22T13:12:12Z</time></trkpt><trkpt lat="44.9067081819277" lon="11.748167822813752"><ele>4.0</ele><time>2026-03-22T13:12:13Z</time></trkpt><trkpt lat="44.90662845142972" lon="11.748357588717766"><ele>4.0</ele><time>2026-03-22T13:12:14Z</time></trkpt><trkpt lat="44.90654766711646" lon="11.748547838413772"><ele>3.75</ele><time>2026-03-22T13:12:15Z</time></trkpt><trkpt lat="44.90645616518047" lon="11.748727585646881"><ele>3.5</ele><time>2026-03-22T13:12:16Z</time></trkpt><trkpt lat="44.90637700788801" lon="11.748906830361564"><ele>3.25</ele><time>2026-03-22T13:12:17Z</time></trkpt><trkpt lat="44.90631334301429" lon="11.749084763482214"><ele>3.0</ele><time>2026-03-22T13:12:18Z</time></trkpt><trkpt lat="44.90626514172456" lon="11.749264172870541"><ele>3.0</ele><time>2026-03-22T13:12:19Z</time></trkpt><trkpt lat="44.90622815126838" lon="11.749449685724906"><ele>3.0</ele><time>2026-03-22T13:12:20Z</time></trkpt><trkpt lat="44.906187044844586" lon="11.74964099561651"><ele>3.0</ele><time>2026-03-22T13:12:21Z</time></trkpt><trkpt lat="44.90615020779448" lon="11.74983003192295"><ele>3.0</ele><time>2026-03-22T13:12:22Z</time></trkpt><trkpt lat="44.90609336854793" lon="11.750011977733703"><ele>3.0</ele><time>2026-03-22T13:12:23Z</time></trkpt><trkpt lat="44.90606468839236" lon="11.75019766034563"><ele>3.0</ele><time>2026-03-22T13:12:24Z</time></trkpt><trkpt lat="44.90603383446344" lon="11.750387232183854"><ele>3.0</ele><time>2026-03-22T13:12:25Z</time></trkpt><trkpt lat="44.906036846149235" lon="11.750596818903334"><ele>3.0</ele><time>2026-03-22T13:12:26Z</time></trkpt><trkpt lat="44.906032971590854" lon="11.75081164356559"><ele>3.0</ele><time>2026-03-22T13:12:27Z</time></trkpt><trkpt lat="44.90602876611358" lon="11.751042590695153"><ele>3.0</ele><time>2026-03-22T13:12:28Z</time></trkpt><trkpt lat="44.906023820741844" lon="11.751286919253703"><ele>3.0</ele><time>2026-03-22T13:12:29Z</time></trkpt><trkpt lat="44.90601868464543" lon="11.751525162874282"><ele>3.0</ele><time>2026-03-22T13:12:30Z</time></trkpt><trkpt lat="44.906007623224106" lon="11.751770644013611"><ele>3.0</ele><time>2026-03-22T13:12:31Z</time></trkpt><trkpt lat="44.905989750438785" lon="11.752014313005835"><ele>3.0</ele><time>2026-03-22T13:12:32Z</time></trkpt><trkpt lat="44.90596913461448" lon="11.7522558870562"><ele>3.0</ele><time>2026-03-22T13:12:33Z</time></trkpt><trkpt lat="44.90593438677912" lon="11.752486086607579"><ele>3.0</ele><time>2026-03-22T13:12:34Z</time></trkpt><trkpt lat="44.905916989193926" lon="11.75270680161447"><ele>3.0</ele><time>2026-03-22T13:12:35Z</time></trkpt><trkpt lat="44.90589591622818" lon="11.75289571893793"><ele>3.0</ele><time>2026-03-22T13:12:36Z</time></trkpt><trkpt lat="44.905877513178886" lon="11.753044021151688"><ele>3.0</ele><time>2026-03-22T13:12:37Z</time></trkpt><trkpt lat="44.90585387944153" lon="11.753160831229911"><ele>3.0</ele><time>2026-03-22T13:12:38Z</time></trkpt><trkpt lat="44.90578423480541" lon="11.7532200639311"><ele>3.0</ele><time>2026-03-22T13:12:39Z</time></trkpt><trkpt lat="44.90571741993806" lon="11.753192333304826"><ele>3.0</ele><time>2026-03-22T13:12:40Z</time></trkpt><trkpt lat="44.905629583232745" lon="11.75318957384984"><ele>3.0</ele><time>2026-03-22T13:12:41Z</time></trkpt><trkpt lat="44.90553327337159" lon="11.753198343634264"><ele>3.0</ele><time>2026-03-22T13:12:42Z</time></trkpt><trkpt lat="44.9054185300434" lon="11.753223344000077"><ele>3.0</ele><time>2026-03-22T13:12:43Z</time></trkpt><trkpt lat="44.905288205642094" lon="11.753284837132988"><ele>3.0</ele><time>2026-03-22T13:12:44Z</time></trkpt><trkpt lat="44.90517440756535" lon="11.75338006055829"><ele>3.0</ele><time>2026-03-22T13:12:45Z</time></trkpt><trkpt lat="44.90505445371066" lon="11.753496622758837"><ele>2.3333333333333335</ele><time>2026-03-22T13:12:46Z</time></trkpt><trkpt lat="44.904927700775644" lon="11.753625881451233"><ele>1.6666666666666665</ele><time>2026-03-22T13:12:47Z</time></trkpt><trkpt lat="44.90479878646041" lon="11.753760358207284"><ele>1.0</ele><time>2026-03-22T13:12:48Z</time></trkpt><trkpt lat="44.90467462775092" lon="11.753888398296233"><ele>1.0</ele><time>2026-03-22T13:12:49Z</time></trkpt><trkpt lat="44.904548772150974" lon="11.754009957616955"><ele>1.0</ele><time>2026-03-22T13:12:50Z</time></trkpt><trkpt lat="44.90441745920913" lon="11.754096681669159"><ele>1.0</ele><time>2026-03-22T13:12:51Z</time></trkpt><trkpt lat="44.90426083278651" lon="11.754174283325094"><ele>1.0</ele><time>2026-03-22T13:12:52Z</time></trkpt><trkpt lat="44.904095804997645" lon="11.754244254876706"><ele>1.0</ele><time>2026-03-22T13:12:53Z</time></trkpt><trkpt lat="44.90392431585593" lon="11.754314906411432"><ele>1.0</ele><time>2026-03-22T13:12:54Z</time></trkpt><trkpt lat="44.90375648998535" lon="11.754389121129742"><ele>1.0</ele><time>2026-03-22T13:12:55Z</time></trkpt><trkpt lat="44.903597003087086" lon="11.754484414755964"><ele>1.0</ele><time>2026-03-22T13:12:56Z</time></trkpt><trkpt lat="44.90344307623971" lon="11.754613128655505"><ele>1.0</ele><time>2026-03-22T13:12:57Z</time></trkpt><trkpt lat="44.90329829191639" lon="11.75475250807289"><ele>1.3333333333333333</ele><time>2026-03-22T13:12:58Z</time></trkpt><trkpt lat="44.903156243600854" lon="11.754903120784915"><ele>1.6666666666666665</ele><time>2026-03-22T13:12:59Z</time></trkpt><trkpt lat="44.90301879814348" lon="11.75505275176073"><ele>2.0</ele><time>2026-03-22T13:13:00Z</time></trkpt><trkpt lat="44.902886941516435" lon="11.755192884932644"><ele>2.0</ele><time>2026-03-22T13:13:01Z</time></trkpt><trkpt lat="44.902753287702986" lon="11.755316736548323"><ele>2.0</ele><time>2026-03-22T13:13:02Z</time></trkpt><trkpt lat="44.90262019875505" lon="11.755417229960054"><ele>2.0</ele><time>2026-03-22T13:13:03Z</time></trkpt><trkpt lat="44.9024880102053" lon="11.755501086272677"><ele>1.3333333333333333</ele><time>2026-03-22T13:13:04Z</time></trkpt><trkpt lat="44.902354633031884" lon="11.755562572364656"><ele>0.6666666666666666</ele><time>2026-03-22T13:13:05Z</time></trkpt><trkpt lat="44.902209623223015" lon="11.755595787213899"><ele>0.0</ele><time>2026-03-22T13:13:06Z</time></trkpt><trkpt lat="44.902044928639434" lon="11.755624608704931"><ele>0.0</ele><time>2026-03-22T13:13:07Z</time></trkpt><trkpt lat="44.90187010951731" lon="11.75565252298916"><ele>0.0</ele><time>2026-03-22T13:13:08Z</time></trkpt><trkpt lat="44.90169195066264" lon="11.755681962329794"><ele>0.0</ele><time>2026-03-22T13:13:09Z</time></trkpt><trkpt lat="44.90152468090957" lon="11.755713028441102"><ele>0.75</ele><time>2026-03-22T13:13:10Z</time></trkpt><trkpt lat="44.9013742508795" lon="11.755739740503806"><ele>1.5</ele><time>2026-03-22T13:13:11Z</time></trkpt><trkpt lat="44.901255957158035" lon="11.755760047701628"><ele>2.25</ele><time>2026-03-22T13:13:12Z</time></trkpt><trkpt lat="44.90112555182509" lon="11.755807287289246"><ele>3.0</ele><time>2026-03-22T13:13:13Z</time></trkpt><trkpt lat="44.90100187903225" lon="11.75591329434695"><ele>3.333333333333333</ele><time>2026-03-22T13:13:14Z</time></trkpt><trkpt lat="44.9008743153644" lon="11.756035722373815"><ele>3.6666666666666665</ele><time>2026-03-22T13:13:15Z</time></trkpt><trkpt lat="44.90074116647956" lon="11.756164105905082"><ele>4.0</ele><time>2026-03-22T13:13:16Z</time></trkpt><trkpt lat="44.90061154217908" lon="11.756289616432145"><ele>4.0</ele><time>2026-03-22T13:13:16.999Z</time></trkpt><trkpt lat="44.90048639628985" lon="11.75641164161016"><ele>4.0</ele><time>2026-03-22T13:13:17.999Z</time></trkpt><trkpt lat="44.90036192991423" lon="11.756534485991903"><ele>4.0</ele><time>2026-03-22T13:13:18.999Z</time></trkpt><trkpt lat="44.90024655836733" lon="11.756650695664918"><ele>4.0</ele><time>2026-03-22T13:13:19.999Z</time></trkpt><trkpt lat="44.900114414426206" lon="11.756778440941197"><ele>3.6666666666666665</ele><time>2026-03-22T13:13:20.999Z</time></trkpt><trkpt lat="44.89996260829876" lon="11.756902476361132"><ele>3.333333333333333</ele><time>2026-03-22T13:13:21.999Z</time></trkpt><trkpt lat="44.899787252555875" lon="11.757026988395781"><ele>3.0</ele><time>2026-03-22T13:13:22.999Z</time></trkpt><trkpt lat="44.89959349300424" lon="11.757159035751162"><ele>3.0</ele><time>2026-03-22T13:13:23.999Z</time></trkpt><trkpt lat="44.89939504296262" lon="11.757290558544659"><ele>3.0</ele><time>2026-03-22T13:13:24.999Z</time></trkpt><trkpt lat="44.89920120257603" lon="11.75741054638135"><ele>3.0</ele><time>2026-03-22T13:13:25.999Z</time></trkpt><trkpt lat="44.89900908229472" lon="11.75752516165084"><ele>2.6666666666666665</ele><time>2026-03-22T13:13:26.999Z</time></trkpt><trkpt lat="44.89882090741951" lon="11.757620434305887"><ele>2.333333333333333</ele><time>2026-03-22T13:13:27.999Z</time></trkpt><trkpt lat="44.89862785903058" lon="11.757702208384325"><ele>2.0</ele><time>2026-03-22T13:13:28.999Z</time></trkpt><trkpt lat="44.89844449066783" lon="11.757775101499975"><ele>1.6666666666666665</ele><time>2026-03-22T13:13:29.999Z</time></trkpt><trkpt lat="44.89826731591629" lon="11.757841276710483"><ele>1.3333333333333333</ele><time>2026-03-22T13:13:30.999Z</time></trkpt><trkpt lat="44.898088730650926" lon="11.757922284362094"><ele>1.0</ele><time>2026-03-22T13:13:31.999Z</time></trkpt><trkpt lat="44.89793068778378" lon="11.758039547059616"><ele>1.0</ele><time>2026-03-22T13:13:32.999Z</time></trkpt><trkpt lat="44.89778264289119" lon="11.758197919957341"><ele>1.0</ele><time>2026-03-22T13:13:33.999Z</time></trkpt><trkpt lat="44.89763577007007" lon="11.758368740391495"><ele>1.0</ele><time>2026-03-22T13:13:34.999Z</time></trkpt><trkpt lat="44.89748399346902" lon="11.758541559739355"><ele>1.3333333333333333</ele><time>2026-03-22T13:13:35.999Z</time></trkpt><trkpt lat="44.897326367761366" lon="11.758703838699814"><ele>1.6666666666666665</ele><time>2026-03-22T13:13:36.999Z</time></trkpt><trkpt lat="44.89716194983833" lon="11.758873393838938"><ele>2.0</ele><time>2026-03-22T13:13:37.999Z</time></trkpt><trkpt lat="44.896993578083865" lon="11.759048250445648"><ele>2.0</ele><time>2026-03-22T13:13:38.999Z</time></trkpt><trkpt lat="44.89683547531648" lon="11.759213781936545"><ele>2.0</ele><time>2026-03-22T13:13:39.999Z</time></trkpt><trkpt lat="44.8966743971741" lon="11.759382428571389"><ele>2.0</ele><time>2026-03-22T13:13:40.999Z</time></trkpt><trkpt lat="44.8965230627143" lon="11.759540873668106"><ele>2.0</ele><time>2026-03-22T13:13:41.999Z</time></trkpt><trkpt lat="44.896383204325566" lon="11.75968730358698"><ele>2.0</ele><time>2026-03-22T13:13:42.999Z</time></trkpt><trkpt lat="44.89623753443933" lon="11.759839817942444"><ele>2.0</ele><time>2026-03-22T13:13:43.999Z</time></trkpt><trkpt lat="44.896092443554586" lon="11.759987932389075"><ele>2.0</ele><time>2026-03-22T13:13:44.999Z</time></trkpt><trkpt lat="44.89594783589179" lon="11.760135178715277"><ele>2.0</ele><time>2026-03-22T13:13:45.999Z</time></trkpt><trkpt lat="44.89581773676067" lon="11.760271182804267"><ele>2.0</ele><time>2026-03-22T13:13:46.999Z</time></trkpt><trkpt lat="44.89569871955294" lon="11.76041335310953"><ele>1.6666666666666665</ele><time>2026-03-22T13:13:47.999Z</time></trkpt><trkpt lat="44.895599373089155" lon="11.760596999883914"><ele>1.3333333333333333</ele><time>2026-03-22T13:13:49.001Z</time></trkpt><trkpt lat="44.8955238888905" lon="11.760799665088278"><ele>1.0</ele><time>2026-03-22T13:13:50Z</time></trkpt><trkpt lat="44.89546121824287" lon="11.76101581050336"><ele>0.6666666666666666</ele><time>2026-03-22T13:13:51Z</time></trkpt><trkpt lat="44.895401618142145" lon="11.761241913343445"><ele>0.3333333333333333</ele><time>2026-03-22T13:13:52.001Z</time></trkpt><trkpt lat="44.89534983519787" lon="11.76145567112033"><ele>0.0</ele><time>2026-03-22T13:13:53.001Z</time></trkpt><trkpt lat="44.89530122327189" lon="11.761668270899508"><ele>0.0</ele><time>2026-03-22T13:13:54.001Z</time></trkpt><trkpt lat="44.895253534916456" lon="11.761866536430063"><ele>0.0</ele><time>2026-03-22T13:13:55Z</time></trkpt><trkpt lat="44.895194065568326" lon="11.762067509395932"><ele>0.0</ele><time>2026-03-22T13:13:56Z</time></trkpt><trkpt lat="44.89511606867209" lon="11.762249032552116"><ele>0.0</ele><time>2026-03-22T13:13:57Z</time></trkpt><trkpt lat="44.895013877141366" lon="11.762454569549137"><ele>0.0</ele><time>2026-03-22T13:13:58Z</time></trkpt><trkpt lat="44.89489871732913" lon="11.762676098284269"><ele>0.0</ele><time>2026-03-22T13:13:59.001Z</time></trkpt><trkpt lat="44.894775554903525" lon="11.762908415488717"><ele>0.0</ele><time>2026-03-22T13:14:00.001Z</time></trkpt><trkpt lat="44.89465359402582" lon="11.763145648071623"><ele>0.0</ele><time>2026-03-22T13:14:01Z</time></trkpt><trkpt lat="44.894532408446196" lon="11.763383925906627"><ele>0.0</ele><time>2026-03-22T13:14:02Z</time></trkpt><trkpt lat="44.894411059690206" lon="11.763627359141696"><ele>0.3333333333333333</ele><time>2026-03-22T13:14:03Z</time></trkpt><trkpt lat="44.894294399880074" lon="11.7638709037415"><ele>0.6666666666666666</ele><time>2026-03-22T13:14:04Z</time></trkpt><trkpt lat="44.89417756352631" lon="11.764116210779173"><ele>1.0</ele><time>2026-03-22T13:14:05Z</time></trkpt><trkpt lat="44.894062118227936" lon="11.764358597723668"><ele>1.0</ele><time>2026-03-22T13:14:06Z</time></trkpt><trkpt lat="44.89394640263125" lon="11.764602778120526"><ele>1.0</ele><time>2026-03-22T13:14:07Z</time></trkpt><trkpt lat="44.89383510731436" lon="11.764840764762756"><ele>1.0</ele><time>2026-03-22T13:14:08Z</time></trkpt><trkpt lat="44.8937252293215" lon="11.765075720176789"><ele>1.0</ele><time>2026-03-22T13:14:09Z</time></trkpt><trkpt lat="44.893617231117055" lon="11.765306657141124"><ele>1.0</ele><time>2026-03-22T13:14:10Z</time></trkpt><trkpt lat="44.89350640327496" lon="11.765541989525001"><ele>1.0</ele><time>2026-03-22T13:14:11Z</time></trkpt><trkpt lat="44.893394508444416" lon="11.76577786423726"><ele>1.0</ele><time>2026-03-22T13:14:12Z</time></trkpt><trkpt lat="44.893283056955745" lon="11.766012803566564"><ele>1.0</ele><time>2026-03-22T13:14:13Z</time></trkpt><trkpt lat="44.893174218247545" lon="11.766242235088647"><ele>1.0</ele><time>2026-03-22T13:14:14Z</time></trkpt><trkpt lat="44.893072586263365" lon="11.766454329266432"><ele>1.0</ele><time>2026-03-22T13:14:15Z</time></trkpt><trkpt lat="44.89297817715632" lon="11.766649536139798"><ele>1.0</ele><time>2026-03-22T13:14:16Z</time></trkpt><trkpt lat="44.892897623508" lon="11.766823956194617"><ele>1.0</ele><time>2026-03-22T13:14:17Z</time></trkpt><trkpt lat="44.89283673963724" lon="11.766969424624794"><ele>1.0</ele><time>2026-03-22T13:14:18Z</time></trkpt><trkpt lat="44.892796576841086" lon="11.767095254325321"><ele>1.2000000000000002</ele><time>2026-03-22T13:14:19Z</time></trkpt><trkpt lat="44.8927691300802" lon="11.767220233348821"><ele>1.4000000000000001</ele><time>2026-03-22T13:14:20Z</time></trkpt><trkpt lat="44.89276512387457" lon="11.767351813820659"><ele>1.6</ele><time>2026-03-22T13:14:21Z</time></trkpt><trkpt lat="44.89277357903992" lon="11.767477174698342"><ele>1.8</ele><time>2026-03-22T13:14:22Z</time></trkpt><trkpt lat="44.89276945959553" lon="11.767618139663488"><ele>2.0</ele><time>2026-03-22T13:14:23Z</time></trkpt><trkpt lat="44.8927670073932" lon="11.76777245108413"><ele>2.0</ele><time>2026-03-22T13:14:24Z</time></trkpt><trkpt lat="44.89276668232326" lon="11.76793303301243"><ele>2.0</ele><time>2026-03-22T13:14:25Z</time></trkpt><trkpt lat="44.89277165114308" lon="11.768089986151526"><ele>2.0</ele><time>2026-03-22T13:14:26Z</time></trkpt><trkpt lat="44.89277551459673" lon="11.76825914638497"><ele>2.0</ele><time>2026-03-22T13:14:27Z</time></trkpt><trkpt lat="44.89278729767266" lon="11.768425501756399"><ele>2.0</ele><time>2026-03-22T13:14:28Z</time></trkpt><trkpt lat="44.89279970737494" lon="11.768589760952345"><ele>2.0</ele><time>2026-03-22T13:14:29Z</time></trkpt><trkpt lat="44.89280535002735" lon="11.768755903371293"><ele>2.0</ele><time>2026-03-22T13:14:30Z</time></trkpt><trkpt lat="44.89280167630896" lon="11.768935544689827"><ele>2.0</ele><time>2026-03-22T13:14:31Z</time></trkpt><trkpt lat="44.89279789002488" lon="11.769116013471507"><ele>2.0</ele><time>2026-03-22T13:14:32Z</time></trkpt><trkpt lat="44.892797929341896" lon="11.769288033339631"><ele>2.0</ele><time>2026-03-22T13:14:33Z</time></trkpt><trkpt lat="44.8928003685334" lon="11.769450676646589"><ele>2.0</ele><time>2026-03-22T13:14:34Z</time></trkpt><trkpt lat="44.89280179686818" lon="11.769596679580104"><ele>2.0</ele><time>2026-03-22T13:14:35Z</time></trkpt><trkpt lat="44.89281979052719" lon="11.769732817230526"><ele>2.0</ele><time>2026-03-22T13:14:36Z</time></trkpt><trkpt lat="44.89284427746562" lon="11.769860025923876"><ele>2.0</ele><time>2026-03-22T13:14:37Z</time></trkpt><trkpt lat="44.89290713757453" lon="11.769967507676387"><ele>2.0</ele><time>2026-03-22T13:14:38Z</time></trkpt><trkpt lat="44.89296857539103" lon="11.770090345242943"><ele>2.0</ele><time>2026-03-22T13:14:39Z</time></trkpt><trkpt lat="44.89304136095659" lon="11.77022776011783"><ele>2.0</ele><time>2026-03-22T13:14:40Z</time></trkpt><trkpt lat="44.89312144846566" lon="11.770378960404907"><ele>2.0</ele><time>2026-03-22T13:14:41Z</time></trkpt><trkpt lat="44.89319582426783" lon="11.770519377486844"><ele>2.0</ele><time>2026-03-22T13:14:42Z</time></trkpt><trkpt lat="44.89327156152594" lon="11.7706647013263"><ele>2.0</ele><time>2026-03-22T13:14:43Z</time></trkpt><trkpt lat="44.893338927149905" lon="11.770797020343553"><ele>2.0</ele><time>2026-03-22T13:14:44Z</time></trkpt><trkpt lat="44.8934079140612" lon="11.770933300595534"><ele>2.4000000000000004</ele><time>2026-03-22T13:14:45Z</time></trkpt><trkpt lat="44.89345777486139" lon="11.771068382380307"><ele>2.8000000000000003</ele><time>2026-03-22T13:14:46Z</time></trkpt><trkpt lat="44.89351881066835" lon="11.771186510324291"><ele>3.2</ele><time>2026-03-22T13:14:47Z</time></trkpt><trkpt lat="44.893576783731916" lon="11.771295868799374"><ele>3.6</ele><time>2026-03-22T13:14:48Z</time></trkpt><trkpt lat="44.89363108966168" lon="11.771396450795956"><ele>4.0</ele><time>2026-03-22T13:14:49Z</time></trkpt><trkpt lat="44.89368315189192" lon="11.771492528729736"><ele>4.0</ele><time>2026-03-22T13:14:50Z</time></trkpt><trkpt lat="44.893739763753686" lon="11.771572261446403"><ele>4.0</ele><time>2026-03-22T13:14:51Z</time></trkpt><trkpt lat="44.89377713712651" lon="11.771649556825617"><ele>4.0</ele><time>2026-03-22T13:14:52Z</time></trkpt><trkpt lat="44.89382593919209" lon="11.771785929589123"><ele>4.0</ele><time>2026-03-22T13:14:54Z</time></trkpt><trkpt lat="44.89385703426041" lon="11.771915597678994"><ele>4.0</ele><time>2026-03-22T13:14:56Z</time></trkpt><trkpt lat="44.89377077643025" lon="11.772109018053436"><ele>4.0</ele><time>2026-03-22T13:14:58Z</time></trkpt><trkpt lat="44.893729056872324" lon="11.772247722827982"><ele>4.0</ele><time>2026-03-22T13:14:59Z</time></trkpt><trkpt lat="44.89368501114002" lon="11.772394161010517"><ele>4.0</ele><time>2026-03-22T13:15:00Z</time></trkpt><trkpt lat="44.89363668134232" lon="11.772554842582695"><ele>4.0</ele><time>2026-03-22T13:15:01Z</time></trkpt><trkpt lat="44.89359085769128" lon="11.772707191988369"><ele>4.0</ele><time>2026-03-22T13:15:02Z</time></trkpt><trkpt lat="44.893551943003175" lon="11.772857736007023"><ele>4.0</ele><time>2026-03-22T13:15:03Z</time></trkpt><trkpt lat="44.89351023412703" lon="11.772994944708097"><ele>4.0</ele><time>2026-03-22T13:15:04Z</time></trkpt><trkpt lat="44.893469738170374" lon="11.773134482453687"><ele>4.0</ele><time>2026-03-22T13:15:05Z</time></trkpt><trkpt lat="44.89341462070543" lon="11.773220393876693"><ele>4.0</ele><time>2026-03-22T13:15:06Z</time></trkpt><trkpt lat="44.893382050834795" lon="11.773313809156104"><ele>3.833333333333333</ele><time>2026-03-22T13:15:07Z</time></trkpt><trkpt lat="44.89331733745421" lon="11.773339171774666"><ele>3.6666666666666665</ele><time>2026-03-22T13:15:08Z</time></trkpt><trkpt lat="44.89325380496908" lon="11.773346632556802"><ele>3.5</ele><time>2026-03-22T13:15:09Z</time></trkpt><trkpt lat="44.8931819836984" lon="11.773322622124223"><ele>3.333333333333333</ele><time>2026-03-22T13:15:10Z</time></trkpt><trkpt lat="44.893084576148695" lon="11.773289525005692"><ele>3.1666666666666665</ele><time>2026-03-22T13:15:11Z</time></trkpt><trkpt lat="44.89296870844796" lon="11.773248161532125"><ele>3.0</ele><time>2026-03-22T13:15:12Z</time></trkpt><trkpt lat="44.89285803862205" lon="11.773208653685574"><ele>3.0</ele><time>2026-03-22T13:15:13Z</time></trkpt><trkpt lat="44.89272372792368" lon="11.773160876102562"><ele>3.0</ele><time>2026-03-22T13:15:14Z</time></trkpt><trkpt lat="44.89258661465764" lon="11.773135400143596"><ele>3.0</ele><time>2026-03-22T13:15:15Z</time></trkpt><trkpt lat="44.89245260668644" lon="11.773091319326761"><ele>3.0</ele><time>2026-03-22T13:15:16Z</time></trkpt><trkpt lat="44.89231469595126" lon="11.77304577120726"><ele>3.25</ele><time>2026-03-22T13:15:17Z</time></trkpt><trkpt lat="44.892184629708936" lon="11.773007930295593"><ele>3.5</ele><time>2026-03-22T13:15:18Z</time></trkpt><trkpt lat="44.89205758178456" lon="11.772987812567077"><ele>3.75</ele><time>2026-03-22T13:15:19Z</time></trkpt><trkpt lat="44.89195265396108" lon="11.772948211065819"><ele>4.0</ele><time>2026-03-22T13:15:20Z</time></trkpt><trkpt lat="44.89184365552539" lon="11.772910671954179"><ele>4.0</ele><time>2026-03-22T13:15:21Z</time></trkpt><trkpt lat="44.891741040454896" lon="11.772866314775642"><ele>4.0</ele><time>2026-03-22T13:15:21.999Z</time></trkpt><trkpt lat="44.89164022324251" lon="11.772805666379737"><ele>4.0</ele><time>2026-03-22T13:15:22.999Z</time></trkpt><trkpt lat="44.89152806109089" lon="11.772709235985989"><ele>4.0</ele><time>2026-03-22T13:15:23.999Z</time></trkpt><trkpt lat="44.8914406365521" lon="11.772611022216838"><ele>4.0</ele><time>2026-03-22T13:15:24.999Z</time></trkpt><trkpt lat="44.89136148215438" lon="11.772515918965688"><ele>4.0</ele><time>2026-03-22T13:15:25.999Z</time></trkpt><trkpt lat="44.891280332438825" lon="11.772425381359426"><ele>4.0</ele><time>2026-03-22T13:15:26.999Z</time></trkpt><trkpt lat="44.89120462652509" lon="11.772347053760322"><ele>4.0</ele><time>2026-03-22T13:15:27.999Z</time></trkpt><trkpt lat="44.891152287830366" lon="11.772241420639762"><ele>4.0</ele><time>2026-03-22T13:15:28.999Z</time></trkpt><trkpt lat="44.89109807211641" lon="11.772157392972337"><ele>4.0</ele><time>2026-03-22T13:15:29.999Z</time></trkpt><trkpt lat="44.89103682745793" lon="11.772086105581694"><ele>4.0</ele><time>2026-03-22T13:15:30.999Z</time></trkpt><trkpt lat="44.890998803439565" lon="11.77198024526003"><ele>4.0</ele><time>2026-03-22T13:15:31.999Z</time></trkpt><trkpt lat="44.89096282379876" lon="11.771868536474427"><ele>4.0</ele><time>2026-03-22T13:15:32.999Z</time></trkpt><trkpt lat="44.890898794303915" lon="11.771745050326114"><ele>4.0</ele><time>2026-03-22T13:15:33.999Z</time></trkpt><trkpt lat="44.89082136511394" lon="11.771623492812521"><ele>4.5</ele><time>2026-03-22T13:15:34.999Z</time></trkpt><trkpt lat="44.89075047268459" lon="11.771483746902007"><ele>5.0</ele><time>2026-03-22T13:15:35.999Z</time></trkpt><trkpt lat="44.890648225678554" lon="11.77136846291467"><ele>5.5</ele><time>2026-03-22T13:15:36.999Z</time></trkpt><trkpt lat="44.8905335706754" lon="11.771272362174122"><ele>6.0</ele><time>2026-03-22T13:15:37.999Z</time></trkpt><trkpt lat="44.89042302108072" lon="11.77119184579157"><ele>6.0</ele><time>2026-03-22T13:15:38.999Z</time></trkpt><trkpt lat="44.890313600779045" lon="11.771125445149627"><ele>6.0</ele><time>2026-03-22T13:15:39.999Z</time></trkpt><trkpt lat="44.890206864221845" lon="11.77106382048623"><ele>6.0</ele><time>2026-03-22T13:15:40.999Z</time></trkpt><trkpt lat="44.890088011840966" lon="11.771005009758"><ele>6.0</ele><time>2026-03-22T13:15:41.999Z</time></trkpt><trkpt lat="44.8899550827817" lon="11.770947879572827"><ele>5.333333333333333</ele><time>2026-03-22T13:15:42.999Z</time></trkpt><trkpt lat="44.889805769766795" lon="11.770892483445149"><ele>4.666666666666666</ele><time>2026-03-22T13:15:43.999Z</time></trkpt><trkpt lat="44.88965239527212" lon="11.770850062370004"><ele>4.0</ele><time>2026-03-22T13:15:44.999Z</time></trkpt><trkpt lat="44.88949009553633" lon="11.770820386189051"><ele>4.0</ele><time>2026-03-22T13:15:45.999Z</time></trkpt><trkpt lat="44.88932151217915" lon="11.770822422026137"><ele>4.0</ele><time>2026-03-22T13:15:46.999Z</time></trkpt><trkpt lat="44.88915747699194" lon="11.770848082667854"><ele>4.0</ele><time>2026-03-22T13:15:47.999Z</time></trkpt><trkpt lat="44.88898787653525" lon="11.770888708453935"><ele>3.6666666666666665</ele><time>2026-03-22T13:15:48.999Z</time></trkpt><trkpt lat="44.88881479821062" lon="11.770932983273289"><ele>3.333333333333333</ele><time>2026-03-22T13:15:49.999Z</time></trkpt><trkpt lat="44.88864561345701" lon="11.770978127978388"><ele>3.0</ele><time>2026-03-22T13:15:50.999Z</time></trkpt><trkpt lat="44.88847439143453" lon="11.771023816284933"><ele>2.3333333333333335</ele><time>2026-03-22T13:15:51.999Z</time></trkpt><trkpt lat="44.88829520662395" lon="11.771071629383515"><ele>1.6666666666666665</ele><time>2026-03-22T13:15:52.999Z</time></trkpt><trkpt lat="44.88813256629602" lon="11.771115027811227"><ele>1.0</ele><time>2026-03-22T13:15:53.999Z</time></trkpt><trkpt lat="44.88796805904325" lon="11.771159125923862"><ele>1.0</ele><time>2026-03-22T13:15:55.001Z</time></trkpt><trkpt lat="44.887820008439036" lon="11.771198961206883"><ele>1.0</ele><time>2026-03-22T13:15:56.001Z</time></trkpt><trkpt lat="44.887697585117614" lon="11.77123190111433"><ele>1.0</ele><time>2026-03-22T13:15:57.001Z</time></trkpt><trkpt lat="44.88760131399758" lon="11.771257804327652"><ele>1.0</ele><time>2026-03-22T13:15:58.001Z</time></trkpt><trkpt lat="44.88750184494994" lon="11.771284568030888"><ele>1.0</ele><time>2026-03-22T13:15:59.001Z</time></trkpt><trkpt lat="44.887418429332534" lon="11.771319033277614"><ele>1.0</ele><time>2026-03-22T13:16:00.001Z</time></trkpt><trkpt lat="44.88733037146426" lon="11.771343145794937"><ele>1.0</ele><time>2026-03-22T13:16:01.001Z</time></trkpt><trkpt lat="44.8872364986149" lon="11.77136904392175"><ele>1.0</ele><time>2026-03-22T13:16:02Z</time></trkpt><trkpt lat="44.88712973076498" lon="11.771398439982457"><ele>1.0</ele><time>2026-03-22T13:16:03Z</time></trkpt><trkpt lat="44.8870149622242" lon="11.771432338579348"><ele>1.0</ele><time>2026-03-22T13:16:04Z</time></trkpt><trkpt lat="44.88688966808832" lon="11.771469738971557"><ele>1.0</ele><time>2026-03-22T13:16:05.001Z</time></trkpt><trkpt lat="44.88676120520719" lon="11.77148429812331"><ele>1.0</ele><time>2026-03-22T13:16:06.001Z</time></trkpt><trkpt lat="44.88662534008768" lon="11.771524944202067"><ele>1.0</ele><time>2026-03-22T13:16:07Z</time></trkpt><trkpt lat="44.88648967479898" lon="11.77156819167194"><ele>1.5</ele><time>2026-03-22T13:16:08.001Z</time></trkpt><trkpt lat="44.88635455283901" lon="11.771608399947473"><ele>2.0</ele><time>2026-03-22T13:16:09.001Z</time></trkpt><trkpt lat="44.88621385614819" lon="11.771649245418454"><ele>2.5</ele><time>2026-03-22T13:16:10.001Z</time></trkpt><trkpt lat="44.88607937310274" lon="11.771668191322274"><ele>3.0</ele><time>2026-03-22T13:16:11Z</time></trkpt><trkpt lat="44.885947063506535" lon="11.771707257736171"><ele>3.0</ele><time>2026-03-22T13:16:12Z</time></trkpt><trkpt lat="44.88581014008735" lon="11.771748704907111"><ele>3.0</ele><time>2026-03-22T13:16:13Z</time></trkpt><trkpt lat="44.88567333379013" lon="11.77178785122973"><ele>3.0</ele><time>2026-03-22T13:16:14Z</time></trkpt><trkpt lat="44.88553572530282" lon="11.771827732727903"><ele>3.0</ele><time>2026-03-22T13:16:15Z</time></trkpt><trkpt lat="44.88539974730107" lon="11.771865199013503"><ele>3.0</ele><time>2026-03-22T13:16:16Z</time></trkpt><trkpt lat="44.88526516044374" lon="11.771890647442719"><ele>3.0</ele><time>2026-03-22T13:16:17Z</time></trkpt><trkpt lat="44.88513726222818" lon="11.771892371380636"><ele>3.0</ele><time>2026-03-22T13:16:18Z</time></trkpt><trkpt lat="44.88501738560571" lon="11.771881999813234"><ele>3.0</ele><time>2026-03-22T13:16:19Z</time></trkpt><trkpt lat="44.88489973771958" lon="11.771854647833447"><ele>3.0</ele><time>2026-03-22T13:16:20Z</time></trkpt><trkpt lat="44.88478056114952" lon="11.77182707962219"><ele>3.0</ele><time>2026-03-22T13:16:21Z</time></trkpt><trkpt lat="44.88465880131892" lon="11.771798621334018"><ele>3.0</ele><time>2026-03-22T13:16:22Z</time></trkpt><trkpt lat="44.88452576441558" lon="11.771752467465939"><ele>3.0</ele><time>2026-03-22T13:16:23Z</time></trkpt><trkpt lat="44.884384906964605" lon="11.771755995210118"><ele>3.0</ele><time>2026-03-22T13:16:24Z</time></trkpt><trkpt lat="44.8842461415782" lon="11.771808682803785"><ele>3.0</ele><time>2026-03-22T13:16:25Z</time></trkpt><trkpt lat="44.88410676984713" lon="11.771916256640576"><ele>3.0</ele><time>2026-03-22T13:16:26Z</time></trkpt><trkpt lat="44.883960036697886" lon="11.772048170162135"><ele>3.0</ele><time>2026-03-22T13:16:27Z</time></trkpt><trkpt lat="44.883808763239095" lon="11.772184658434364"><ele>3.0</ele><time>2026-03-22T13:16:28Z</time></trkpt><trkpt lat="44.8836526653516" lon="11.77232419030742"><ele>3.0</ele><time>2026-03-22T13:16:29Z</time></trkpt><trkpt lat="44.88350424646131" lon="11.772456856076989"><ele>3.0</ele><time>2026-03-22T13:16:30Z</time></trkpt><trkpt lat="44.88336098513876" lon="11.772587766005708"><ele>3.0</ele><time>2026-03-22T13:16:31Z</time></trkpt><trkpt lat="44.88323328769311" lon="11.772706839877543"><ele>3.0</ele><time>2026-03-22T13:16:32Z</time></trkpt><trkpt lat="44.88312074972081" lon="11.77281230122484"><ele>3.0</ele><time>2026-03-22T13:16:33Z</time></trkpt><trkpt lat="44.88301722289744" lon="11.772909317958574"><ele>3.0</ele><time>2026-03-22T13:16:34Z</time></trkpt><trkpt lat="44.88290276172371" lon="11.773016581638364"><ele>3.0</ele><time>2026-03-22T13:16:35Z</time></trkpt><trkpt lat="44.88277783467037" lon="11.77313583996364"><ele>3.0</ele><time>2026-03-22T13:16:36Z</time></trkpt><trkpt lat="44.8826464780465" lon="11.773261953598027"><ele>2.6666666666666665</ele><time>2026-03-22T13:16:37Z</time></trkpt><trkpt lat="44.88250831164571" lon="11.773406211170327"><ele>2.333333333333333</ele><time>2026-03-22T13:16:38Z</time></trkpt><trkpt lat="44.88236897550134" lon="11.773561220478722"><ele>2.0</ele><time>2026-03-22T13:16:39Z</time></trkpt><trkpt lat="44.88223546767641" lon="11.773719665033939"><ele>1.6666666666666665</ele><time>2026-03-22T13:16:40Z</time></trkpt><trkpt lat="44.88211655452876" lon="11.773862338759294"><ele>1.3333333333333333</ele><time>2026-03-22T13:16:41Z</time></trkpt><trkpt lat="44.88199272441586" lon="11.774003256750127"><ele>1.0</ele><time>2026-03-22T13:16:42Z</time></trkpt><trkpt lat="44.88187825288054" lon="11.774142064833258"><ele>1.0</ele><time>2026-03-22T13:16:43Z</time></trkpt><trkpt lat="44.881769991046205" lon="11.77427589103551"><ele>1.0</ele><time>2026-03-22T13:16:44Z</time></trkpt><trkpt lat="44.8816639331616" lon="11.77440616153124"><ele>1.0</ele><time>2026-03-22T13:16:45Z</time></trkpt><trkpt lat="44.881563077862644" lon="11.774530065750259"><ele>1.0</ele><time>2026-03-22T13:16:46Z</time></trkpt><trkpt lat="44.881382892511134" lon="11.77472637099023"><ele>1.1666666666666665</ele><time>2026-03-22T13:16:48Z</time></trkpt><trkpt lat="44.88131332628011" lon="11.774803058069688"><ele>1.3333333333333333</ele><time>2026-03-22T13:16:49Z</time></trkpt><trkpt lat="44.88124344593567" lon="11.774869165226695"><ele>1.5</ele><time>2026-03-22T13:16:50Z</time></trkpt><trkpt lat="44.881181735799686" lon="11.774913805505081"><ele>1.6666666666666665</ele><time>2026-03-22T13:16:51Z</time></trkpt><trkpt lat="44.881087028720614" lon="11.774968561184904"><ele>1.8333333333333333</ele><time>2026-03-22T13:16:53Z</time></trkpt><trkpt lat="44.881038849641946" lon="11.775027693658755"><ele>2.0</ele><time>2026-03-22T13:16:55Z</time></trkpt><trkpt lat="44.88098297337322" lon="11.77511088120481"><ele>2.0</ele><time>2026-03-22T13:16:57Z</time></trkpt><trkpt lat="44.88100802483588" lon="11.775246888674332"><ele>2.0</ele><time>2026-03-22T13:16:58Z</time></trkpt><trkpt lat="44.88105223050961" lon="11.775371354146133"><ele>2.0</ele><time>2026-03-22T13:16:59Z</time></trkpt><trkpt lat="44.881110634918045" lon="11.775508586555535"><ele>2.0</ele><time>2026-03-22T13:17:00Z</time></trkpt><trkpt lat="44.881175888873784" lon="11.775658984880048"><ele>2.0</ele><time>2026-03-22T13:17:01Z</time></trkpt><trkpt lat="44.88125249313526" lon="11.775819967642333"><ele>2.0</ele><time>2026-03-22T13:17:02Z</time></trkpt><trkpt lat="44.88134175541836" lon="11.775988209645199"><ele>2.0</ele><time>2026-03-22T13:17:03Z</time></trkpt><trkpt lat="44.88143239344599" lon="11.776169169482156"><ele>2.0</ele><time>2026-03-22T13:17:04Z</time></trkpt><trkpt lat="44.88153024104829" lon="11.776366663699921"><ele>2.0</ele><time>2026-03-22T13:17:05Z</time></trkpt><trkpt lat="44.881637585334715" lon="11.77657523135999"><ele>2.0</ele><time>2026-03-22T13:17:06Z</time></trkpt><trkpt lat="44.8817344393622" lon="11.776794343297475"><ele>2.0</ele><time>2026-03-22T13:17:07Z</time></trkpt><trkpt lat="44.88183082164696" lon="11.777012427235773"><ele>2.0</ele><time>2026-03-22T13:17:08Z</time></trkpt><trkpt lat="44.88192227510034" lon="11.777219680648987"><ele>2.0</ele><time>2026-03-22T13:17:09Z</time></trkpt><trkpt lat="44.88200633420206" lon="11.777416557040599"><ele>2.0</ele><time>2026-03-22T13:17:10Z</time></trkpt><trkpt lat="44.882088096745406" lon="11.777596882742397"><ele>2.6666666666666665</ele><time>2026-03-22T13:17:11Z</time></trkpt><trkpt lat="44.88215840115499" lon="11.777787130082672"><ele>3.333333333333333</ele><time>2026-03-22T13:17:12Z</time></trkpt><trkpt lat="44.88223364503915" lon="11.777975020246393"><ele>4.0</ele><time>2026-03-22T13:17:13Z</time></trkpt><trkpt lat="44.882303958175825" lon="11.778181533315752"><ele>4.0</ele><time>2026-03-22T13:17:14Z</time></trkpt><trkpt lat="44.882360353110734" lon="11.778374109040165"><ele>4.0</ele><time>2026-03-22T13:17:15Z</time></trkpt><trkpt lat="44.882418409358294" lon="11.77856243997573"><ele>4.0</ele><time>2026-03-22T13:17:16Z</time></trkpt><trkpt lat="44.88247662986034" lon="11.778763492055834"><ele>4.0</ele><time>2026-03-22T13:17:17Z</time></trkpt><trkpt lat="44.88254173664513" lon="11.778972119558683"><ele>3.6666666666666665</ele><time>2026-03-22T13:17:18Z</time></trkpt><trkpt lat="44.88260131415174" lon="11.779172240817523"><ele>3.333333333333333</ele><time>2026-03-22T13:17:19Z</time></trkpt><trkpt lat="44.88265511818674" lon="11.779374480116477"><ele>3.0</ele><time>2026-03-22T13:17:20Z</time></trkpt><trkpt lat="44.882702870424424" lon="11.779590572980487"><ele>3.0</ele><time>2026-03-22T13:17:21Z</time></trkpt><trkpt lat="44.882756554861075" lon="11.779802656598738"><ele>3.0</ele><time>2026-03-22T13:17:22Z</time></trkpt><trkpt lat="44.8828118891309" lon="11.780005249618249"><ele>3.0</ele><time>2026-03-22T13:17:23Z</time></trkpt><trkpt lat="44.882873819345626" lon="11.780202475627652"><ele>3.0</ele><time>2026-03-22T13:17:24Z</time></trkpt><trkpt lat="44.88295076604529" lon="11.780423847290754"><ele>3.0</ele><time>2026-03-22T13:17:25Z</time></trkpt><trkpt lat="44.882999519378664" lon="11.780692383545308"><ele>3.0</ele><time>2026-03-22T13:17:26Z</time></trkpt><trkpt lat="44.883076721938686" lon="11.780965991444862"><ele>3.0</ele><time>2026-03-22T13:17:27Z</time></trkpt><trkpt lat="44.8831570057422" lon="11.781237888198925"><ele>3.0</ele><time>2026-03-22T13:17:28Z</time></trkpt><trkpt lat="44.88325749744052" lon="11.781517688245353"><ele>3.0</ele><time>2026-03-22T13:17:29Z</time></trkpt><trkpt lat="44.883363363863495" lon="11.781794374076076"><ele>3.0</ele><time>2026-03-22T13:17:30Z</time></trkpt><trkpt lat="44.88347881540822" lon="11.7820773672757"><ele>3.0</ele><time>2026-03-22T13:17:31Z</time></trkpt><trkpt lat="44.8835802157873" lon="11.782357820971171"><ele>3.0</ele><time>2026-03-22T13:17:31.999Z</time></trkpt><trkpt lat="44.88364414509076" lon="11.782663980475307"><ele>3.0</ele><time>2026-03-22T13:17:32.999Z</time></trkpt><trkpt lat="44.883688608627544" lon="11.782987323807108"><ele>3.0</ele><time>2026-03-22T13:17:33.999Z</time></trkpt><trkpt lat="44.88376552772192" lon="11.783306975033572"><ele>3.0</ele><time>2026-03-22T13:17:34.999Z</time></trkpt><trkpt lat="44.88382023494057" lon="11.783648781522453"><ele>2.5</ele><time>2026-03-22T13:17:35.999Z</time></trkpt><trkpt lat="44.88385066844806" lon="11.78397733187279"><ele>2.0</ele><time>2026-03-22T13:17:36.999Z</time></trkpt><trkpt lat="44.88388408156047" lon="11.784312700779873"><ele>2.5</ele><time>2026-03-22T13:17:37.999Z</time></trkpt><trkpt lat="44.88392810242515" lon="11.784640822328825"><ele>3.0</ele><time>2026-03-22T13:17:38.999Z</time></trkpt><trkpt lat="44.88397948638454" lon="11.784953983294926"><ele>3.0</ele><time>2026-03-22T13:17:39.999Z</time></trkpt><trkpt lat="44.88405063274828" lon="11.785242342913245"><ele>3.0</ele><time>2026-03-22T13:17:40.999Z</time></trkpt><trkpt lat="44.88414045101961" lon="11.785516660445206"><ele>3.0</ele><time>2026-03-22T13:17:41.999Z</time></trkpt><trkpt lat="44.884245489363146" lon="11.78578308747352"><ele>3.5</ele><time>2026-03-22T13:17:42.999Z</time></trkpt><trkpt lat="44.88436575787712" lon="11.786047359548283"><ele>4.0</ele><time>2026-03-22T13:17:43.999Z</time></trkpt><trkpt lat="44.884493898505994" lon="11.786315228842053"><ele>4.0</ele><time>2026-03-22T13:17:44.999Z</time></trkpt><trkpt lat="44.8846275167011" lon="11.786578954015537"><ele>4.0</ele><time>2026-03-22T13:17:45.999Z</time></trkpt><trkpt lat="44.88476638890357" lon="11.786834564579758"><ele>4.0</ele><time>2026-03-22T13:17:46.999Z</time></trkpt><trkpt lat="44.88489294605467" lon="11.78707747810453"><ele>4.0</ele><time>2026-03-22T13:17:47.999Z</time></trkpt><trkpt lat="44.88501437812391" lon="11.787306209513638"><ele>4.0</ele><time>2026-03-22T13:17:48.999Z</time></trkpt><trkpt lat="44.88512433821327" lon="11.787528125665222"><ele>4.0</ele><time>2026-03-22T13:17:49.999Z</time></trkpt><trkpt lat="44.88523722998654" lon="11.787741892009365"><ele>4.0</ele><time>2026-03-22T13:17:50.999Z</time></trkpt><trkpt lat="44.88534000654761" lon="11.78795365625114"><ele>4.0</ele><time>2026-03-22T13:17:51.999Z</time></trkpt><trkpt lat="44.8854367152246" lon="11.788174678400429"><ele>4.0</ele><time>2026-03-22T13:17:52.999Z</time></trkpt><trkpt lat="44.88552173777715" lon="11.788402631225518"><ele>4.0</ele><time>2026-03-22T13:17:53.999Z</time></trkpt><trkpt lat="44.885579372586434" lon="11.788628579056374"><ele>4.0</ele><time>2026-03-22T13:17:54.999Z</time></trkpt><trkpt lat="44.88563289636047" lon="11.788842986774794"><ele>3.6666666666666665</ele><time>2026-03-22T13:17:55.999Z</time></trkpt><trkpt lat="44.88568395493471" lon="11.789047049181718"><ele>3.333333333333333</ele><time>2026-03-22T13:17:56.999Z</time></trkpt><trkpt lat="44.88573427690086" lon="11.789254580411122"><ele>3.0</ele><time>2026-03-22T13:17:57.999Z</time></trkpt><trkpt lat="44.88579253509796" lon="11.789459886250523"><ele>2.6666666666666665</ele><time>2026-03-22T13:17:58.999Z</time></trkpt><trkpt lat="44.88583026150509" lon="11.78967941188732"><ele>2.333333333333333</ele><time>2026-03-22T13:17:59.999Z</time></trkpt><trkpt lat="44.88586789763615" lon="11.789897917865268"><ele>2.0</ele><time>2026-03-22T13:18:01Z</time></trkpt><trkpt lat="44.885903260490124" lon="11.790119835797228"><ele>2.333333333333333</ele><time>2026-03-22T13:18:02.001Z</time></trkpt><trkpt lat="44.88593991447162" lon="11.790345152677398"><ele>2.6666666666666665</ele><time>2026-03-22T13:18:03.001Z</time></trkpt><trkpt lat="44.88597755764197" lon="11.790564222597249"><ele>3.0</ele><time>2026-03-22T13:18:04.001Z</time></trkpt><trkpt lat="44.88602870879048" lon="11.790762717618295"><ele>3.0</ele><time>2026-03-22T13:18:05.001Z</time></trkpt><trkpt lat="44.886091144904135" lon="11.790953125088581"><ele>3.0</ele><time>2026-03-22T13:18:06.001Z</time></trkpt><trkpt lat="44.886167152382335" lon="11.791143213355898"><ele>3.0</ele><time>2026-03-22T13:18:07.001Z</time></trkpt><trkpt lat="44.88626193936963" lon="11.791327477931617"><ele>3.333333333333333</ele><time>2026-03-22T13:18:08Z</time></trkpt><trkpt lat="44.88638472413471" lon="11.791531820515456"><ele>3.6666666666666665</ele><time>2026-03-22T13:18:09Z</time></trkpt><trkpt lat="44.88653164760545" lon="11.7917580544883"><ele>4.0</ele><time>2026-03-22T13:18:10Z</time></trkpt><trkpt lat="44.886687470124116" lon="11.79200313173249"><ele>3.0</ele><time>2026-03-22T13:18:11.001Z</time></trkpt><trkpt lat="44.88683922830472" lon="11.792281760238494"><ele>2.0</ele><time>2026-03-22T13:18:12.001Z</time></trkpt><trkpt lat="44.88699965342066" lon="11.792554046273821"><ele>2.0</ele><time>2026-03-22T13:18:13.001Z</time></trkpt><trkpt lat="44.88714550198466" lon="11.792819843717334"><ele>2.0</ele><time>2026-03-22T13:18:14.001Z</time></trkpt><trkpt lat="44.887288011965786" lon="11.793085403705348"><ele>2.0</ele><time>2026-03-22T13:18:15.001Z</time></trkpt><trkpt lat="44.88745258279917" lon="11.793329086550553"><ele>2.0</ele><time>2026-03-22T13:18:16.001Z</time></trkpt><trkpt lat="44.88763144332987" lon="11.793561562717255"><ele>2.0</ele><time>2026-03-22T13:18:17.001Z</time></trkpt><trkpt lat="44.88780323112872" lon="11.793800986672334"><ele>2.0</ele><time>2026-03-22T13:18:18.001Z</time></trkpt><trkpt lat="44.88797749051556" lon="11.794031550359172"><ele>2.0</ele><time>2026-03-22T13:18:19.001Z</time></trkpt><trkpt lat="44.88815103687023" lon="11.794254151254195"><ele>2.0</ele><time>2026-03-22T13:18:20Z</time></trkpt><trkpt lat="44.88831634283463" lon="11.794473046331206"><ele>2.0</ele><time>2026-03-22T13:18:21Z</time></trkpt><trkpt lat="44.88847118716442" lon="11.794689208258566"><ele>2.0</ele><time>2026-03-22T13:18:22Z</time></trkpt><trkpt lat="44.88861832328623" lon="11.794917147310779"><ele>2.0</ele><time>2026-03-22T13:18:23Z</time></trkpt><trkpt lat="44.888760957011826" lon="11.795155418037005"><ele>2.333333333333333</ele><time>2026-03-22T13:18:24Z</time></trkpt><trkpt lat="44.88888972927119" lon="11.795398209027825"><ele>2.6666666666666665</ele><time>2026-03-22T13:18:25Z</time></trkpt><trkpt lat="44.88901175374129" lon="11.795657197621997"><ele>3.0</ele><time>2026-03-22T13:18:26Z</time></trkpt><trkpt lat="44.88912006869722" lon="11.795931537839873"><ele>3.0</ele><time>2026-03-22T13:18:27Z</time></trkpt><trkpt lat="44.88921673169906" lon="11.7962099898563"><ele>3.0</ele><time>2026-03-22T13:18:28Z</time></trkpt><trkpt lat="44.88929291648703" lon="11.79649034405825"><ele>3.0</ele><time>2026-03-22T13:18:29Z</time></trkpt><trkpt lat="44.88936345214628" lon="11.796752424146172"><ele>3.666666666666667</ele><time>2026-03-22T13:18:30Z</time></trkpt><trkpt lat="44.88942938365701" lon="11.796997241852413"><ele>4.333333333333334</ele><time>2026-03-22T13:18:31Z</time></trkpt><trkpt lat="44.88949104645427" lon="11.797232028681584"><ele>5.0</ele><time>2026-03-22T13:18:32Z</time></trkpt><trkpt lat="44.88954841582364" lon="11.797461495943159"><ele>4.666666666666667</ele><time>2026-03-22T13:18:33Z</time></trkpt><trkpt lat="44.889606035804874" lon="11.797697211425378"><ele>4.333333333333333</ele><time>2026-03-22T13:18:34Z</time></trkpt><trkpt lat="44.88966126083714" lon="11.797938268471464"><ele>4.0</ele><time>2026-03-22T13:18:35Z</time></trkpt><trkpt lat="44.88968293006566" lon="11.798184375508866"><ele>4.0</ele><time>2026-03-22T13:18:36Z</time></trkpt><trkpt lat="44.88970878694783" lon="11.798430378879656"><ele>4.0</ele><time>2026-03-22T13:18:37Z</time></trkpt><trkpt lat="44.88972579914658" lon="11.798669859916322"><ele>4.0</ele><time>2026-03-22T13:18:38Z</time></trkpt><trkpt lat="44.88972975278318" lon="11.798916416692762"><ele>4.0</ele><time>2026-03-22T13:18:39Z</time></trkpt><trkpt lat="44.889746598920794" lon="11.799165441946434"><ele>4.0</ele><time>2026-03-22T13:18:40Z</time></trkpt><trkpt lat="44.889733902716564" lon="11.799411004785426"><ele>4.0</ele><time>2026-03-22T13:18:41Z</time></trkpt><trkpt lat="44.88971191754108" lon="11.799653069913683"><ele>4.0</ele><time>2026-03-22T13:18:42Z</time></trkpt><trkpt lat="44.889689145499766" lon="11.799893890492772"><ele>4.0</ele><time>2026-03-22T13:18:43Z</time></trkpt><trkpt lat="44.889644144933285" lon="11.800131779230362"><ele>4.0</ele><time>2026-03-22T13:18:44Z</time></trkpt><trkpt lat="44.88965097437176" lon="11.800376696048218"><ele>3.6666666666666665</ele><time>2026-03-22T13:18:45Z</time></trkpt><trkpt lat="44.8896323762697" lon="11.800615576519375"><ele>3.333333333333333</ele><time>2026-03-22T13:18:46Z</time></trkpt><trkpt lat="44.889612782529014" lon="11.800855399384417"><ele>3.0</ele><time>2026-03-22T13:18:47Z</time></trkpt><trkpt lat="44.889592715029686" lon="11.80109838979519"><ele>2.6666666666666665</ele><time>2026-03-22T13:18:48Z</time></trkpt><trkpt lat="44.889550346125645" lon="11.801336243015488"><ele>2.333333333333333</ele><time>2026-03-22T13:18:49Z</time></trkpt><trkpt lat="44.88953111610163" lon="11.801576070067663"><ele>2.0</ele><time>2026-03-22T13:18:50Z</time></trkpt><trkpt lat="44.88951212808479" lon="11.801812880273962"><ele>2.333333333333333</ele><time>2026-03-22T13:18:51Z</time></trkpt><trkpt lat="44.88949477277765" lon="11.802050402463976"><ele>2.6666666666666665</ele><time>2026-03-22T13:18:52Z</time></trkpt><trkpt lat="44.889477410865915" lon="11.802282719234201"><ele>3.0</ele><time>2026-03-22T13:18:53Z</time></trkpt><trkpt lat="44.88949142192507" lon="11.802519355373462"><ele>2.6666666666666665</ele><time>2026-03-22T13:18:54Z</time></trkpt><trkpt lat="44.88947218149397" lon="11.802748508477794"><ele>2.333333333333333</ele><time>2026-03-22T13:18:55Z</time></trkpt><trkpt lat="44.88945033653314" lon="11.80297798635219"><ele>2.0</ele><time>2026-03-22T13:18:56Z</time></trkpt><trkpt lat="44.88942946487217" lon="11.803207398973278"><ele>2.0</ele><time>2026-03-22T13:18:57Z</time></trkpt><trkpt lat="44.88938505675261" lon="11.80343187902794"><ele>2.0</ele><time>2026-03-22T13:18:58Z</time></trkpt><trkpt lat="44.889366460409555" lon="11.803662835362458"><ele>2.0</ele><time>2026-03-22T13:18:59Z</time></trkpt><trkpt lat="44.889347663602294" lon="11.8038962813558"><ele>1.6666666666666665</ele><time>2026-03-22T13:19:00Z</time></trkpt><trkpt lat="44.889328803081824" lon="11.804127439093898"><ele>1.3333333333333333</ele><time>2026-03-22T13:19:01Z</time></trkpt><trkpt lat="44.889309551166725" lon="11.804359611332067"><ele>1.0</ele><time>2026-03-22T13:19:02Z</time></trkpt><trkpt lat="44.889290418330795" lon="11.804596860322027"><ele>1.0</ele><time>2026-03-22T13:19:03Z</time></trkpt><trkpt lat="44.88927111812027" lon="11.80483108351334"><ele>1.0</ele><time>2026-03-22T13:19:04Z</time></trkpt><trkpt lat="44.8892518761548" lon="11.805064599908157"><ele>1.0</ele><time>2026-03-22T13:19:05Z</time></trkpt><trkpt lat="44.88923291733933" lon="11.805294680003826"><ele>1.3333333333333333</ele><time>2026-03-22T13:19:06Z</time></trkpt><trkpt lat="44.889213546947246" lon="11.80552975643338"><ele>1.6666666666666665</ele><time>2026-03-22T13:19:07Z</time></trkpt><trkpt lat="44.88919494462576" lon="11.805762762851524"><ele>2.0</ele><time>2026-03-22T13:19:08Z</time></trkpt><trkpt lat="44.88920950427013" lon="11.806002340827222"><ele>2.0</ele><time>2026-03-22T13:19:09Z</time></trkpt><trkpt lat="44.88918735581185" lon="11.806240489767191"><ele>2.0</ele><time>2026-03-22T13:19:10Z</time></trkpt><trkpt lat="44.889172567014164" lon="11.806487052683197"><ele>2.0</ele><time>2026-03-22T13:19:11Z</time></trkpt><trkpt lat="44.88915099590309" lon="11.806731568756755"><ele>2.0</ele><time>2026-03-22T13:19:12Z</time></trkpt><trkpt lat="44.88909679593814" lon="11.806978099980252"><ele>2.0</ele><time>2026-03-22T13:19:13Z</time></trkpt><trkpt lat="44.88910764746447" lon="11.807238747390157"><ele>2.0</ele><time>2026-03-22T13:19:14Z</time></trkpt><trkpt lat="44.889083840213516" lon="11.807494552136221"><ele>1.6666666666666665</ele><time>2026-03-22T13:19:15Z</time></trkpt><trkpt lat="44.889063494791934" lon="11.807751283973204"><ele>1.3333333333333333</ele><time>2026-03-22T13:19:16Z</time></trkpt><trkpt lat="44.88904466421586" lon="11.808008287211807"><ele>1.0</ele><time>2026-03-22T13:19:17Z</time></trkpt><trkpt lat="44.88902293070791" lon="11.808266740203232"><ele>1.0</ele><time>2026-03-22T13:19:18Z</time></trkpt><trkpt lat="44.888973195401064" lon="11.808518051378565"><ele>1.0</ele><time>2026-03-22T13:19:19Z</time></trkpt><trkpt lat="44.88895482938119" lon="11.80877292689782"><ele>1.0</ele><time>2026-03-22T13:19:20Z</time></trkpt><trkpt lat="44.88894009345137" lon="11.809026849282512"><ele>1.0</ele><time>2026-03-22T13:19:21Z</time></trkpt><trkpt lat="44.88893352561996" lon="11.809281737579768"><ele>1.0</ele><time>2026-03-22T13:19:22Z</time></trkpt><trkpt lat="44.88893221243304" lon="11.809530219999992"><ele>1.0</ele><time>2026-03-22T13:19:23Z</time></trkpt><trkpt lat="44.88893397679403" lon="11.809766924064444"><ele>1.25</ele><time>2026-03-22T13:19:24Z</time></trkpt><trkpt lat="44.88894876061279" lon="11.809986449442464"><ele>1.5</ele><time>2026-03-22T13:19:25Z</time></trkpt><trkpt lat="44.88894230225385" lon="11.810192613199225"><ele>1.75</ele><time>2026-03-22T13:19:26Z</time></trkpt><trkpt lat="44.88893223755962" lon="11.8103848584956"><ele>2.0</ele><time>2026-03-22T13:19:27Z</time></trkpt><trkpt lat="44.8889213862254" lon="11.810557556251508"><ele>2.2</ele><time>2026-03-22T13:19:28Z</time></trkpt><trkpt lat="44.88890909644982" lon="11.810717736741648"><ele>2.4000000000000004</ele><time>2026-03-22T13:19:29Z</time></trkpt><trkpt lat="44.888907997086896" lon="11.810872126238793"><ele>2.5999999999999996</ele><time>2026-03-22T13:19:30Z</time></trkpt><trkpt lat="44.88890007357427" lon="11.811003644968867"><ele>2.8</ele><time>2026-03-22T13:19:31Z</time></trkpt><trkpt lat="44.888907911196924" lon="11.811112427933585"><ele>3.0</ele><time>2026-03-22T13:19:32Z</time></trkpt><trkpt lat="44.888909761482985" lon="11.811223054709911"><ele>2.8333333333333335</ele><time>2026-03-22T13:19:33Z</time></trkpt><trkpt lat="44.88889718148648" lon="11.811347390852292"><ele>2.6666666666666665</ele><time>2026-03-22T13:19:34Z</time></trkpt><trkpt lat="44.88887594627445" lon="11.811480718893463"><ele>2.5</ele><time>2026-03-22T13:19:35Z</time></trkpt><trkpt lat="44.88886051533443" lon="11.811611370636752"><ele>2.333333333333333</ele><time>2026-03-22T13:19:36Z</time></trkpt><trkpt lat="44.88886281527747" lon="11.811734070432944"><ele>2.1666666666666665</ele><time>2026-03-22T13:19:37Z</time></trkpt><trkpt lat="44.88889890291936" lon="11.81183910829127"><ele>2.0</ele><time>2026-03-22T13:19:38Z</time></trkpt><trkpt lat="44.88897425658417" lon="11.811928386246475"><ele>2.0</ele><time>2026-03-22T13:19:39Z</time></trkpt><trkpt lat="44.8890643803457" lon="11.811974745752448"><ele>2.0</ele><time>2026-03-22T13:19:39.999Z</time></trkpt><trkpt lat="44.88917529110518" lon="11.811961419702063"><ele>2.0</ele><time>2026-03-22T13:19:40.999Z</time></trkpt><trkpt lat="44.88928607232982" lon="11.811892684557586"><ele>2.0</ele><time>2026-03-22T13:19:41.999Z</time></trkpt><trkpt lat="44.889382882213205" lon="11.811792271657232"><ele>2.0</ele><time>2026-03-22T13:19:42.999Z</time></trkpt><trkpt lat="44.889476244191435" lon="11.811697941180636"><ele>2.25</ele><time>2026-03-22T13:19:43.999Z</time></trkpt><trkpt lat="44.88959899131383" lon="11.811642791157725"><ele>2.5</ele><time>2026-03-22T13:19:44.999Z</time></trkpt><trkpt lat="44.889731135950605" lon="11.811611709283715"><ele>2.75</ele><time>2026-03-22T13:19:45.999Z</time></trkpt><trkpt lat="44.88989002670285" lon="11.811592326156577"><ele>3.0</ele><time>2026-03-22T13:19:46.999Z</time></trkpt><trkpt lat="44.89005965435214" lon="11.811584091747617"><ele>3.0</ele><time>2026-03-22T13:19:47.999Z</time></trkpt><trkpt lat="44.89024114507303" lon="11.811568134268118"><ele>3.0</ele><time>2026-03-22T13:19:48.999Z</time></trkpt><trkpt lat="44.8904344336602" lon="11.811553516083977"><ele>3.0</ele><time>2026-03-22T13:19:49.999Z</time></trkpt><trkpt lat="44.89062765513951" lon="11.811539053012645"><ele>3.0</ele><time>2026-03-22T13:19:50.999Z</time></trkpt><trkpt lat="44.890828187176744" lon="11.81152465995594"><ele>3.0</ele><time>2026-03-22T13:19:51.999Z</time></trkpt><trkpt lat="44.89103021529353" lon="11.811509126382184"><ele>3.0</ele><time>2026-03-22T13:19:52.999Z</time></trkpt><trkpt lat="44.89123579789124" lon="11.8114910000324"><ele>2.3333333333333335</ele><time>2026-03-22T13:19:53.999Z</time></trkpt><trkpt lat="44.89144389415243" lon="11.811474799185943"><ele>1.6666666666666665</ele><time>2026-03-22T13:19:54.999Z</time></trkpt><trkpt lat="44.89164064024427" lon="11.811452092673456"><ele>1.0</ele><time>2026-03-22T13:19:55.999Z</time></trkpt><trkpt lat="44.89182322781364" lon="11.811433882923977"><ele>1.0</ele><time>2026-03-22T13:19:56.999Z</time></trkpt><trkpt lat="44.89199785703805" lon="11.81141721788285"><ele>1.0</ele><time>2026-03-22T13:19:57.999Z</time></trkpt><trkpt lat="44.8921632137777" lon="11.811399752949285"><ele>1.0</ele><time>2026-03-22T13:19:58.999Z</time></trkpt><trkpt lat="44.89232057779562" lon="11.811383089528292"><ele>1.0</ele><time>2026-03-22T13:19:59.999Z</time></trkpt><trkpt lat="44.892479937063534" lon="11.811359485797098"><ele>1.0</ele><time>2026-03-22T13:20:00.999Z</time></trkpt><trkpt lat="44.892631489005" lon="11.811333653175803"><ele>1.0</ele><time>2026-03-22T13:20:01.999Z</time></trkpt><trkpt lat="44.8927780698874" lon="11.811303309131263"><ele>0.75</ele><time>2026-03-22T13:20:02.999Z</time></trkpt><trkpt lat="44.89291155774624" lon="11.811274549562253"><ele>0.5</ele><time>2026-03-22T13:20:03.999Z</time></trkpt><trkpt lat="44.89305729469142" lon="11.81124393496084"><ele>0.25</ele><time>2026-03-22T13:20:04.999Z</time></trkpt><trkpt lat="44.89321771054303" lon="11.811193124406609"><ele>0.0</ele><time>2026-03-22T13:20:05.999Z</time></trkpt><trkpt lat="44.89338241691146" lon="11.811145757661738"><ele>0.3333333333333333</ele><time>2026-03-22T13:20:07Z</time></trkpt><trkpt lat="44.89355888538356" lon="11.811095975387557"><ele>0.6666666666666666</ele><time>2026-03-22T13:20:08.001Z</time></trkpt><trkpt lat="44.89372801190408" lon="11.81103940242707"><ele>1.0</ele><time>2026-03-22T13:20:09.001Z</time></trkpt><trkpt lat="44.89391033611987" lon="11.810981063562302"><ele>1.0</ele><time>2026-03-22T13:20:10Z</time></trkpt><trkpt lat="44.89410228567575" lon="11.810916424718984"><ele>1.0</ele><time>2026-03-22T13:20:11.001Z</time></trkpt><trkpt lat="44.89430381327889" lon="11.81085388050574"><ele>1.0</ele><time>2026-03-22T13:20:12.001Z</time></trkpt><trkpt lat="44.89450770682471" lon="11.81077790047431"><ele>1.0</ele><time>2026-03-22T13:20:13.001Z</time></trkpt><trkpt lat="44.89471489025001" lon="11.810709459780014"><ele>1.0</ele><time>2026-03-22T13:20:14Z</time></trkpt><trkpt lat="44.89492571615517" lon="11.810641471038888"><ele>1.0</ele><time>2026-03-22T13:20:15Z</time></trkpt><trkpt lat="44.89514791167362" lon="11.810559662456985"><ele>1.0</ele><time>2026-03-22T13:20:16Z</time></trkpt><trkpt lat="44.89538187354961" lon="11.810474512213295"><ele>1.0</ele><time>2026-03-22T13:20:17.001Z</time></trkpt><trkpt lat="44.895623125540666" lon="11.810406119140925"><ele>1.0</ele><time>2026-03-22T13:20:18.001Z</time></trkpt><trkpt lat="44.895862673768846" lon="11.810345433943368"><ele>1.0</ele><time>2026-03-22T13:20:19Z</time></trkpt><trkpt lat="44.89609943483077" lon="11.810273149470248"><ele>1.0</ele><time>2026-03-22T13:20:20.001Z</time></trkpt><trkpt lat="44.896330722263016" lon="11.810209836270714"><ele>1.0</ele><time>2026-03-22T13:20:21.001Z</time></trkpt><trkpt lat="44.89656808694714" lon="11.810155659542396"><ele>1.0</ele><time>2026-03-22T13:20:22.001Z</time></trkpt><trkpt lat="44.89680547305285" lon="11.810114114323438"><ele>1.0</ele><time>2026-03-22T13:20:23.001Z</time></trkpt><trkpt lat="44.89704824183668" lon="11.810081654450714"><ele>1.0</ele><time>2026-03-22T13:20:24.001Z</time></trkpt><trkpt lat="44.897295641907924" lon="11.81006375339076"><ele>1.0</ele><time>2026-03-22T13:20:25.001Z</time></trkpt><trkpt lat="44.89754649306413" lon="11.810058111536005"><ele>1.0</ele><time>2026-03-22T13:20:26.001Z</time></trkpt><trkpt lat="44.89780029250377" lon="11.810050308536635"><ele>1.0</ele><time>2026-03-22T13:20:27.001Z</time></trkpt><trkpt lat="44.89806042976143" lon="11.810042354531499"><ele>1.0</ele><time>2026-03-22T13:20:28.001Z</time></trkpt><trkpt lat="44.89832123326398" lon="11.81003431071224"><ele>1.0</ele><time>2026-03-22T13:20:29.001Z</time></trkpt><trkpt lat="44.89858421639693" lon="11.810025596158024"><ele>1.0</ele><time>2026-03-22T13:20:30.001Z</time></trkpt><trkpt lat="44.898844806173344" lon="11.810016447276048"><ele>1.0</ele><time>2026-03-22T13:20:31.001Z</time></trkpt><trkpt lat="44.89909897828461" lon="11.81000214482453"><ele>0.5</ele><time>2026-03-22T13:20:32.001Z</time></trkpt><trkpt lat="44.899356434851754" lon="11.809993290018584"><ele>0.0</ele><time>2026-03-22T13:20:33.001Z</time></trkpt><trkpt lat="44.89962005249546" lon="11.8099839652012"><ele>0.0</ele><time>2026-03-22T13:20:34.001Z</time></trkpt><trkpt lat="44.89986871634506" lon="11.809965181013764"><ele>0.0</ele><time>2026-03-22T13:20:35.001Z</time></trkpt><trkpt lat="44.9001171572847" lon="11.809964244185819"><ele>0.5</ele><time>2026-03-22T13:20:36.001Z</time></trkpt><trkpt lat="44.9003703866899" lon="11.80995567201236"><ele>1.0</ele><time>2026-03-22T13:20:37.001Z</time></trkpt><trkpt lat="44.90061567814501" lon="11.809947894638343"><ele>1.0</ele><time>2026-03-22T13:20:38.001Z</time></trkpt><trkpt lat="44.90085404045353" lon="11.809941405421592"><ele>1.0</ele><time>2026-03-22T13:20:39.001Z</time></trkpt><trkpt lat="44.90107265953323" lon="11.809937159923567"><ele>1.0</ele><time>2026-03-22T13:20:40.001Z</time></trkpt><trkpt lat="44.901284408551845" lon="11.809933915798169"><ele>1.0</ele><time>2026-03-22T13:20:41.001Z</time></trkpt><trkpt lat="44.901484734647966" lon="11.809934414950348"><ele>1.0</ele><time>2026-03-22T13:20:42.001Z</time></trkpt><trkpt lat="44.90168308669148" lon="11.809943975348787"><ele>0.6666666666666666</ele><time>2026-03-22T13:20:43.001Z</time></trkpt><trkpt lat="44.90187763546192" lon="11.80996944581377"><ele>0.3333333333333333</ele><time>2026-03-22T13:20:44.001Z</time></trkpt><trkpt lat="44.90207519682673" lon="11.80999557806745"><ele>0.0</ele><time>2026-03-22T13:20:45Z</time></trkpt><trkpt lat="44.902270593132016" lon="11.810040487714874"><ele>0.0</ele><time>2026-03-22T13:20:46Z</time></trkpt><trkpt lat="44.902459185696294" lon="11.81010153918389"><ele>0.0</ele><time>2026-03-22T13:20:47Z</time></trkpt><trkpt lat="44.902637412720935" lon="11.810170951173781"><ele>0.0</ele><time>2026-03-22T13:20:48Z</time></trkpt><trkpt lat="44.90280386035941" lon="11.810241430830434"><ele>0.25</ele><time>2026-03-22T13:20:49Z</time></trkpt><trkpt lat="44.90295612071086" lon="11.810318310612244"><ele>0.5</ele><time>2026-03-22T13:20:50Z</time></trkpt><trkpt lat="44.90308980726452" lon="11.81038845622152"><ele>0.75</ele><time>2026-03-22T13:20:51Z</time></trkpt><trkpt lat="44.90320744284749" lon="11.810457002436781"><ele>1.0</ele><time>2026-03-22T13:20:52Z</time></trkpt><trkpt lat="44.90330215229572" lon="11.81052503226777"><ele>1.0</ele><time>2026-03-22T13:20:53Z</time></trkpt><trkpt lat="44.903384029505894" lon="11.810597050489585"><ele>1.0</ele><time>2026-03-22T13:20:54Z</time></trkpt><trkpt lat="44.90345061582118" lon="11.810674222744966"><ele>1.0</ele><time>2026-03-22T13:20:55Z</time></trkpt><trkpt lat="44.90351894975454" lon="11.810771298460025"><ele>1.0</ele><time>2026-03-22T13:20:56Z</time></trkpt><trkpt lat="44.90358134239129" lon="11.810876646639093"><ele>1.0</ele><time>2026-03-22T13:20:57Z</time></trkpt><trkpt lat="44.90365316523076" lon="11.810963600795692"><ele>1.0</ele><time>2026-03-22T13:20:58Z</time></trkpt><trkpt lat="44.90374122002022" lon="11.811015810534958"><ele>1.0</ele><time>2026-03-22T13:20:59Z</time></trkpt><trkpt lat="44.90383078986604" lon="11.811008439122734"><ele>1.0</ele><time>2026-03-22T13:21:00Z</time></trkpt><trkpt lat="44.90391170913322" lon="11.81095330555431"><ele>1.0</ele><time>2026-03-22T13:21:01Z</time></trkpt><trkpt lat="44.90397182463401" lon="11.810851061076432"><ele>1.0</ele><time>2026-03-22T13:21:02Z</time></trkpt><trkpt lat="44.90399144228089" lon="11.810709421434384"><ele>1.0</ele><time>2026-03-22T13:21:03Z</time></trkpt><trkpt lat="44.903970512305484" lon="11.810554551137358"><ele>1.0</ele><time>2026-03-22T13:21:04Z</time></trkpt><trkpt lat="44.90395616071024" lon="11.81039596814963"><ele>1.0</ele><time>2026-03-22T13:21:05Z</time></trkpt><trkpt lat="44.903976733894694" lon="11.810227906057701"><ele>1.0</ele><time>2026-03-22T13:21:06Z</time></trkpt><trkpt lat="44.90404007292934" lon="11.810063042212228"><ele>1.0</ele><time>2026-03-22T13:21:07Z</time></trkpt><trkpt lat="44.904139481023165" lon="11.809887561049841"><ele>1.0</ele><time>2026-03-22T13:21:08Z</time></trkpt><trkpt lat="44.90423762224309" lon="11.809691720405661"><ele>1.0</ele><time>2026-03-22T13:21:09Z</time></trkpt><trkpt lat="44.90433053730961" lon="11.809466192645518"><ele>2.3333333333333335</ele><time>2026-03-22T13:21:10Z</time></trkpt><trkpt lat="44.90441764821938" lon="11.809218261256186"><ele>3.666666666666667</ele><time>2026-03-22T13:21:11Z</time></trkpt><trkpt lat="44.90450437599439" lon="11.808951592089027"><ele>5.0</ele><time>2026-03-22T13:21:12Z</time></trkpt><trkpt lat="44.904591892542946" lon="11.808682872270087"><ele>4.333333333333334</ele><time>2026-03-22T13:21:13Z</time></trkpt><trkpt lat="44.904678133815146" lon="11.808408902213154"><ele>3.666666666666667</ele><time>2026-03-22T13:21:14Z</time></trkpt><trkpt lat="44.90475898650269" lon="11.808137304714906"><ele>3.0</ele><time>2026-03-22T13:21:15Z</time></trkpt><trkpt lat="44.90483386205378" lon="11.807886172633824"><ele>3.0</ele><time>2026-03-22T13:21:16Z</time></trkpt><trkpt lat="44.904908413172905" lon="11.807627901721219"><ele>3.0</ele><time>2026-03-22T13:21:17Z</time></trkpt><trkpt lat="44.904985770538985" lon="11.807373229349126"><ele>3.0</ele><time>2026-03-22T13:21:18Z</time></trkpt><trkpt lat="44.90506532839508" lon="11.807106964940385"><ele>2.3333333333333335</ele><time>2026-03-22T13:21:19Z</time></trkpt><trkpt lat="44.90513611828286" lon="11.806842258814944"><ele>1.6666666666666665</ele><time>2026-03-22T13:21:20Z</time></trkpt><trkpt lat="44.905211017540694" lon="11.806586724716976"><ele>1.0</ele><time>2026-03-22T13:21:21Z</time></trkpt><trkpt lat="44.905283964526504" lon="11.80633293630484"><ele>1.0</ele><time>2026-03-22T13:21:22Z</time></trkpt><trkpt lat="44.90534798470303" lon="11.806072343579812"><ele>1.0</ele><time>2026-03-22T13:21:23Z</time></trkpt><trkpt lat="44.905410894581074" lon="11.805829874003903"><ele>1.0</ele><time>2026-03-22T13:21:24Z</time></trkpt><trkpt lat="44.905464816602866" lon="11.805580211095815"><ele>1.0</ele><time>2026-03-22T13:21:25Z</time></trkpt><trkpt lat="44.90552040549235" lon="11.805333543667025"><ele>1.0</ele><time>2026-03-22T13:21:26Z</time></trkpt><trkpt lat="44.90556917461191" lon="11.80507736409713"><ele>1.0</ele><time>2026-03-22T13:21:27Z</time></trkpt><trkpt lat="44.90561612315901" lon="11.80482398200108"><ele>1.0</ele><time>2026-03-22T13:21:28Z</time></trkpt><trkpt lat="44.905659253402554" lon="11.804571764494392"><ele>1.0</ele><time>2026-03-22T13:21:29Z</time></trkpt><trkpt lat="44.905695088640535" lon="11.804307269816267"><ele>1.0</ele><time>2026-03-22T13:21:30Z</time></trkpt><trkpt lat="44.905724939435146" lon="11.804041470449214"><ele>1.0</ele><time>2026-03-22T13:21:31Z</time></trkpt><trkpt lat="44.905756168751" lon="11.803787955325726"><ele>1.0</ele><time>2026-03-22T13:21:32Z</time></trkpt><trkpt lat="44.90578342459765" lon="11.803536014265724"><ele>1.0</ele><time>2026-03-22T13:21:33Z</time></trkpt><trkpt lat="44.905814500622185" lon="11.803283415417727"><ele>1.0</ele><time>2026-03-22T13:21:34Z</time></trkpt><trkpt lat="44.90583032441832" lon="11.80303248365199"><ele>1.0</ele><time>2026-03-22T13:21:35Z</time></trkpt><trkpt lat="44.90584107094439" lon="11.802789243017614"><ele>1.0</ele><time>2026-03-22T13:21:36Z</time></trkpt><trkpt lat="44.90584864440947" lon="11.802549119709456"><ele>1.0</ele><time>2026-03-22T13:21:37Z</time></trkpt><trkpt lat="44.905852991299696" lon="11.802309354224587"><ele>1.0</ele><time>2026-03-22T13:21:38Z</time></trkpt><trkpt lat="44.90585266867848" lon="11.802060350346423"><ele>1.0</ele><time>2026-03-22T13:21:39Z</time></trkpt><trkpt lat="44.905852171555715" lon="11.80183337648204"><ele>1.0</ele><time>2026-03-22T13:21:40Z</time></trkpt><trkpt lat="44.90585448384435" lon="11.801608113001626"><ele>1.0</ele><time>2026-03-22T13:21:41Z</time></trkpt><trkpt lat="44.90585369322602" lon="11.801386955978852"><ele>1.0</ele><time>2026-03-22T13:21:42Z</time></trkpt><trkpt lat="44.90585547318361" lon="11.801166316161407"><ele>1.3333333333333333</ele><time>2026-03-22T13:21:43Z</time></trkpt><trkpt lat="44.90585804547416" lon="11.800933347725213"><ele>1.6666666666666665</ele><time>2026-03-22T13:21:44Z</time></trkpt><trkpt lat="44.90586625853857" lon="11.80069782488109"><ele>2.0</ele><time>2026-03-22T13:21:45Z</time></trkpt><trkpt lat="44.905876055497224" lon="11.800466266117217"><ele>2.0</ele><time>2026-03-22T13:21:46Z</time></trkpt><trkpt lat="44.9058779433338" lon="11.800234370371076"><ele>2.0</ele><time>2026-03-22T13:21:47Z</time></trkpt><trkpt lat="44.905880401826685" lon="11.800009511463472"><ele>2.0</ele><time>2026-03-22T13:21:48Z</time></trkpt><trkpt lat="44.90588309528416" lon="11.799773876704013"><ele>2.333333333333333</ele><time>2026-03-22T13:21:49Z</time></trkpt><trkpt lat="44.90588489903216" lon="11.799538183266813"><ele>2.6666666666666665</ele><time>2026-03-22T13:21:50Z</time></trkpt><trkpt lat="44.90589187560727" lon="11.799305589857669"><ele>3.0</ele><time>2026-03-22T13:21:51Z</time></trkpt><trkpt lat="44.90590541007303" lon="11.799081889423771"><ele>3.0</ele><time>2026-03-22T13:21:52Z</time></trkpt><trkpt lat="44.905932505344076" lon="11.798868840857208"><ele>3.0</ele><time>2026-03-22T13:21:53Z</time></trkpt><trkpt lat="44.90597773426056" lon="11.798668995837124"><ele>3.0</ele><time>2026-03-22T13:21:54Z</time></trkpt><trkpt lat="44.906037429064405" lon="11.798460579270092"><ele>2.6666666666666665</ele><time>2026-03-22T13:21:55Z</time></trkpt><trkpt lat="44.906100057974115" lon="11.798260059046287"><ele>2.333333333333333</ele><time>2026-03-22T13:21:56Z</time></trkpt><trkpt lat="44.90617850073763" lon="11.798067841488697"><ele>2.0</ele><time>2026-03-22T13:21:57Z</time></trkpt><trkpt lat="44.906277844439764" lon="11.797900523524117"><ele>2.0</ele><time>2026-03-22T13:21:58Z</time></trkpt><trkpt lat="44.90638435401665" lon="11.797740339887932"><ele>2.0</ele><time>2026-03-22T13:21:59Z</time></trkpt><trkpt lat="44.90649349287895" lon="11.797598649188622"><ele>2.0</ele><time>2026-03-22T13:22:00Z</time></trkpt><trkpt lat="44.90662015956675" lon="11.797464780206239"><ele>1.3333333333333333</ele><time>2026-03-22T13:22:01Z</time></trkpt><trkpt lat="44.90676297248462" lon="11.797360837315672"><ele>0.6666666666666666</ele><time>2026-03-22T13:22:02Z</time></trkpt><trkpt lat="44.90690712509396" lon="11.797275254389326"><ele>0.0</ele><time>2026-03-22T13:22:03Z</time></trkpt><trkpt lat="44.907045551331684" lon="11.797212466890338"><ele>0.0</ele><time>2026-03-22T13:22:04Z</time></trkpt><trkpt lat="44.907173207381646" lon="11.797165308006926"><ele>0.0</ele><time>2026-03-22T13:22:04.999Z</time></trkpt><trkpt lat="44.90730763812752" lon="11.797135790517817"><ele>0.0</ele><time>2026-03-22T13:22:05.999Z</time></trkpt><trkpt lat="44.90744975953981" lon="11.797098699614564"><ele>0.0</ele><time>2026-03-22T13:22:06.999Z</time></trkpt><trkpt lat="44.9075970896185" lon="11.797070193976186"><ele>0.0</ele><time>2026-03-22T13:22:07.999Z</time></trkpt><trkpt lat="44.90774382006275" lon="11.797037715009445"><ele>0.0</ele><time>2026-03-22T13:22:08.999Z</time></trkpt><trkpt lat="44.90788556527224" lon="11.797003819530932"><ele>0.0</ele><time>2026-03-22T13:22:09.999Z</time></trkpt><trkpt lat="44.908026587273795" lon="11.79697125830722"><ele>0.0</ele><time>2026-03-22T13:22:10.999Z</time></trkpt><trkpt lat="44.90817313339687" lon="11.796936819154585"><ele>0.0</ele><time>2026-03-22T13:22:11.999Z</time></trkpt><trkpt lat="44.90832642772571" lon="11.796896447703562"><ele>0.0</ele><time>2026-03-22T13:22:13Z</time></trkpt><trkpt lat="44.90848358772128" lon="11.796842890926156"><ele>0.0</ele><time>2026-03-22T13:22:14.001Z</time></trkpt><trkpt lat="44.90864114638916" lon="11.796773525082523"><ele>0.3333333333333333</ele><time>2026-03-22T13:22:15.001Z</time></trkpt><trkpt lat="44.90880368539441" lon="11.796690200903521"><ele>0.6666666666666666</ele><time>2026-03-22T13:22:16Z</time></trkpt><trkpt lat="44.90894957566687" lon="11.796595343743203"><ele>1.0</ele><time>2026-03-22T13:22:17Z</time></trkpt><trkpt lat="44.90908226754388" lon="11.796490374133878"><ele>1.0</ele><time>2026-03-22T13:22:18Z</time></trkpt><trkpt lat="44.909223388907684" lon="11.796357192840105"><ele>1.0</ele><time>2026-03-22T13:22:19.001Z</time></trkpt><trkpt lat="44.909363042769016" lon="11.796218422819663"><ele>1.0</ele><time>2026-03-22T13:22:20Z</time></trkpt><trkpt lat="44.909503801083524" lon="11.796048097310036"><ele>0.6666666666666666</ele><time>2026-03-22T13:22:21Z</time></trkpt><trkpt lat="44.90964149830424" lon="11.79585528688811"><ele>0.3333333333333333</ele><time>2026-03-22T13:22:22Z</time></trkpt><trkpt lat="44.90977041630166" lon="11.795645123751344"><ele>0.0</ele><time>2026-03-22T13:22:23Z</time></trkpt><trkpt lat="44.90988759116435" lon="11.795428256275796"><ele>0.0</ele><time>2026-03-22T13:22:24Z</time></trkpt><trkpt lat="44.90999675583379" lon="11.795181206436656"><ele>0.0</ele><time>2026-03-22T13:22:25.001Z</time></trkpt><trkpt lat="44.91011339199712" lon="11.794898089033314"><ele>0.0</ele><time>2026-03-22T13:22:26Z</time></trkpt><trkpt lat="44.910233403774974" lon="11.79460116241625"><ele>1.0</ele><time>2026-03-22T13:22:27Z</time></trkpt><trkpt lat="44.91035004491989" lon="11.794298396257485"><ele>2.0</ele><time>2026-03-22T13:22:28Z</time></trkpt><trkpt lat="44.91045996824919" lon="11.794005182684325"><ele>2.0</ele><time>2026-03-22T13:22:29Z</time></trkpt><trkpt lat="44.91056345416963" lon="11.793722760442067"><ele>2.0</ele><time>2026-03-22T13:22:30Z</time></trkpt><trkpt lat="44.910655520356514" lon="11.793440384433046"><ele>2.0</ele><time>2026-03-22T13:22:31Z</time></trkpt><trkpt lat="44.910754907406194" lon="11.793169903441694"><ele>1.6666666666666665</ele><time>2026-03-22T13:22:32Z</time></trkpt><trkpt lat="44.91085161577797" lon="11.79290367625392"><ele>1.3333333333333333</ele><time>2026-03-22T13:22:33Z</time></trkpt><trkpt lat="44.91094686481669" lon="11.792634890849223"><ele>1.0</ele><time>2026-03-22T13:22:34Z</time></trkpt><trkpt lat="44.91102141614251" lon="11.792358596964984"><ele>1.0</ele><time>2026-03-22T13:22:35Z</time></trkpt><trkpt lat="44.911080526005556" lon="11.792071123012494"><ele>1.0</ele><time>2026-03-22T13:22:36Z</time></trkpt><trkpt lat="44.911125115665946" lon="11.791768679432916"><ele>1.0</ele><time>2026-03-22T13:22:37Z</time></trkpt><trkpt lat="44.9111583640451" lon="11.791455782001384"><ele>1.0</ele><time>2026-03-22T13:22:38Z</time></trkpt><trkpt lat="44.91116646821954" lon="11.791132726344044"><ele>1.0</ele><time>2026-03-22T13:22:39Z</time></trkpt><trkpt lat="44.91114548407418" lon="11.790790746815263"><ele>1.0</ele><time>2026-03-22T13:22:40Z</time></trkpt><trkpt lat="44.9110989361225" lon="11.790408828744845"><ele>1.0</ele><time>2026-03-22T13:22:41Z</time></trkpt><trkpt lat="44.911049275831424" lon="11.790012613640446"><ele>1.5</ele><time>2026-03-22T13:22:42Z</time></trkpt><trkpt lat="44.91100437025565" lon="11.78960333780078"><ele>2.0</ele><time>2026-03-22T13:22:43Z</time></trkpt><trkpt lat="44.910964081210494" lon="11.789190810036878"><ele>2.0</ele><time>2026-03-22T13:22:44Z</time></trkpt><trkpt lat="44.91092393779757" lon="11.78878330523344"><ele>2.0</ele><time>2026-03-22T13:22:45Z</time></trkpt><trkpt lat="44.91087824549398" lon="11.788381702961098"><ele>2.0</ele><time>2026-03-22T13:22:46Z</time></trkpt><trkpt lat="44.910831808963714" lon="11.787987441077089"><ele>2.0</ele><time>2026-03-22T13:22:47Z</time></trkpt><trkpt lat="44.91078510423052" lon="11.78760833727456"><ele>2.0</ele><time>2026-03-22T13:22:48Z</time></trkpt><trkpt lat="44.91074099427129" lon="11.787251578818333"><ele>2.0</ele><time>2026-03-22T13:22:49Z</time></trkpt><trkpt lat="44.9107045045776" lon="11.78690823346016"><ele>2.0</ele><time>2026-03-22T13:22:50Z</time></trkpt><trkpt lat="44.910693883682036" lon="11.786579618371645"><ele>2.0</ele><time>2026-03-22T13:22:51Z</time></trkpt><trkpt lat="44.910707184690374" lon="11.786250716589631"><ele>1.0</ele><time>2026-03-22T13:22:52Z</time></trkpt><trkpt lat="44.91073586280619" lon="11.785914508784263"><ele>0.0</ele><time>2026-03-22T13:22:53Z</time></trkpt><trkpt lat="44.910786039043934" lon="11.785593797263651"><ele>0.0</ele><time>2026-03-22T13:22:54Z</time></trkpt><trkpt lat="44.91085227791827" lon="11.785276072565852"><ele>0.0</ele><time>2026-03-22T13:22:55Z</time></trkpt><trkpt lat="44.91094115472497" lon="11.784965230104364"><ele>0.0</ele><time>2026-03-22T13:22:56Z</time></trkpt><trkpt lat="44.91104014281299" lon="11.784657124482672"><ele>0.0</ele><time>2026-03-22T13:22:57Z</time></trkpt><trkpt lat="44.91115676402173" lon="11.784366370077429"><ele>0.0</ele><time>2026-03-22T13:22:58Z</time></trkpt><trkpt lat="44.91130196566018" lon="11.78408373843513"><ele>0.0</ele><time>2026-03-22T13:22:59Z</time></trkpt><trkpt lat="44.91147525487228" lon="11.783825728400661"><ele>0.0</ele><time>2026-03-22T13:23:00Z</time></trkpt><trkpt lat="44.91167151020354" lon="11.783575134700234"><ele>0.0</ele><time>2026-03-22T13:23:01Z</time></trkpt><trkpt lat="44.911866469981504" lon="11.783318254253942"><ele>1.0</ele><time>2026-03-22T13:23:02Z</time></trkpt><trkpt lat="44.91207079299585" lon="11.783043989517775"><ele>2.0</ele><time>2026-03-22T13:23:03Z</time></trkpt><trkpt lat="44.91227565618292" lon="11.78277084844791"><ele>2.0</ele><time>2026-03-22T13:23:04Z</time></trkpt><trkpt lat="44.91248783166662" lon="11.782479731632186"><ele>2.0</ele><time>2026-03-22T13:23:05Z</time></trkpt><trkpt lat="44.912706871576056" lon="11.782189498105582"><ele>1.5</ele><time>2026-03-22T13:23:06Z</time></trkpt><trkpt lat="44.91293366684621" lon="11.781907713877569"><ele>1.0</ele><time>2026-03-22T13:23:07Z</time></trkpt><trkpt lat="44.91315621939975" lon="11.781616328247152"><ele>1.0</ele><time>2026-03-22T13:23:08Z</time></trkpt><trkpt lat="44.9133848735598" lon="11.781309826319498"><ele>1.0</ele><time>2026-03-22T13:23:09Z</time></trkpt><trkpt lat="44.913615832877596" lon="11.780998458132217"><ele>0.5</ele><time>2026-03-22T13:23:10Z</time></trkpt><trkpt lat="44.913854366624165" lon="11.780684998673882"><ele>0.0</ele><time>2026-03-22T13:23:11Z</time></trkpt><trkpt lat="44.9140887621566" lon="11.780367695271394"><ele>0.5</ele><time>2026-03-22T13:23:12Z</time></trkpt><trkpt lat="44.91432972912371" lon="11.780051190927464"><ele>1.0</ele><time>2026-03-22T13:23:13Z</time></trkpt><trkpt lat="44.914568179974665" lon="11.779734449432008"><ele>1.0</ele><time>2026-03-22T13:23:14Z</time></trkpt><trkpt lat="44.914808000133036" lon="11.779417261557793"><ele>1.0</ele><time>2026-03-22T13:23:15Z</time></trkpt><trkpt lat="44.915042404287526" lon="11.779100587159334"><ele>1.0</ele><time>2026-03-22T13:23:16Z</time></trkpt><trkpt lat="44.915280525920394" lon="11.778784908965042"><ele>1.0</ele><time>2026-03-22T13:23:17Z</time></trkpt><trkpt lat="44.91551714338753" lon="11.778476599286876"><ele>1.0</ele><time>2026-03-22T13:23:18Z</time></trkpt><trkpt lat="44.91575650220797" lon="11.778156141889264"><ele>1.0</ele><time>2026-03-22T13:23:19Z</time></trkpt><trkpt lat="44.915998455037496" lon="11.7778339373332"><ele>1.5</ele><time>2026-03-22T13:23:20Z</time></trkpt><trkpt lat="44.91623348108926" lon="11.777517564647834"><ele>2.0</ele><time>2026-03-22T13:23:21Z</time></trkpt><trkpt lat="44.91646886281534" lon="11.777206280304187"><ele>2.0</ele><time>2026-03-22T13:23:22Z</time></trkpt><trkpt lat="44.91670419055608" lon="11.776895237484915"><ele>2.0</ele><time>2026-03-22T13:23:23Z</time></trkpt><trkpt lat="44.916941856153954" lon="11.776570856779548"><ele>2.0</ele><time>2026-03-22T13:23:24Z</time></trkpt><trkpt lat="44.91718639562354" lon="11.776240801486669"><ele>2.0</ele><time>2026-03-22T13:23:25Z</time></trkpt><trkpt lat="44.91743253692105" lon="11.775913024322596"><ele>2.0</ele><time>2026-03-22T13:23:26Z</time></trkpt><trkpt lat="44.91767817079794" lon="11.77558226862619"><ele>2.0</ele><time>2026-03-22T13:23:27Z</time></trkpt><trkpt lat="44.91793244604302" lon="11.775257896231533"><ele>1.5</ele><time>2026-03-22T13:23:27.999Z</time></trkpt><trkpt lat="44.918174217056766" lon="11.774937785949179"><ele>1.0</ele><time>2026-03-22T13:23:28.999Z</time></trkpt><trkpt lat="44.918407130653854" lon="11.774632030938411"><ele>2.0</ele><time>2026-03-22T13:23:29.999Z</time></trkpt><trkpt lat="44.918632189356366" lon="11.77433761899282"><ele>3.0</ele><time>2026-03-22T13:23:30.999Z</time></trkpt><trkpt lat="44.918837279573665" lon="11.774064335391914"><ele>3.0</ele><time>2026-03-22T13:23:31.999Z</time></trkpt><trkpt lat="44.919030686232816" lon="11.773801140296374"><ele>3.0</ele><time>2026-03-22T13:23:32.999Z</time></trkpt><trkpt lat="44.919208936268305" lon="11.773570037062095"><ele>3.333333333333333</ele><time>2026-03-22T13:23:33.999Z</time></trkpt><trkpt lat="44.91937461920309" lon="11.773340721178267"><ele>3.6666666666666665</ele><time>2026-03-22T13:23:34.999Z</time></trkpt><trkpt lat="44.919531740504425" lon="11.773135031580182"><ele>4.0</ele><time>2026-03-22T13:23:35.999Z</time></trkpt><trkpt lat="44.91968273744974" lon="11.772951024043248"><ele>4.0</ele><time>2026-03-22T13:23:36.999Z</time></trkpt><trkpt lat="44.91982477947937" lon="11.772756070227818"><ele>4.0</ele><time>2026-03-22T13:23:37.999Z</time></trkpt><trkpt lat="44.91997277015552" lon="11.772558799385264"><ele>4.0</ele><time>2026-03-22T13:23:38.999Z</time></trkpt><trkpt lat="44.920134346025854" lon="11.772378623138872"><ele>3.0</ele><time>2026-03-22T13:23:39.999Z</time></trkpt><trkpt lat="44.92032110469429" lon="11.772237822246417"><ele>2.0</ele><time>2026-03-22T13:23:40.999Z</time></trkpt><trkpt lat="44.920528827477554" lon="11.77212277347595"><ele>1.0</ele><time>2026-03-22T13:23:41.999Z</time></trkpt><trkpt lat="44.920766300262244" lon="11.772022293235187"><ele>1.0</ele><time>2026-03-22T13:23:42.999Z</time></trkpt><trkpt lat="44.921006475208216" lon="11.771921828028713"><ele>1.0</ele><time>2026-03-22T13:23:43.999Z</time></trkpt><trkpt lat="44.92125966776444" lon="11.771821048255674"><ele>1.0</ele><time>2026-03-22T13:23:44.999Z</time></trkpt><trkpt lat="44.9215223935817" lon="11.771698481387133"><ele>1.0</ele><time>2026-03-22T13:23:45.999Z</time></trkpt><trkpt lat="44.92178913811686" lon="11.771567807460263"><ele>1.0</ele><time>2026-03-22T13:23:46.999Z</time></trkpt><trkpt lat="44.922068622642755" lon="11.77144314369944"><ele>1.0</ele><time>2026-03-22T13:23:47.999Z</time></trkpt><trkpt lat="44.92234343243959" lon="11.771312305017652"><ele>0.5</ele><time>2026-03-22T13:23:48.999Z</time></trkpt><trkpt lat="44.92262156937832" lon="11.77118603633538"><ele>0.0</ele><time>2026-03-22T13:23:49.999Z</time></trkpt><trkpt lat="44.922909358843484" lon="11.771051737063425"><ele>1.0</ele><time>2026-03-22T13:23:50.999Z</time></trkpt><trkpt lat="44.923196444118354" lon="11.770915811495357"><ele>2.0</ele><time>2026-03-22T13:23:51.999Z</time></trkpt><trkpt lat="44.923481929860635" lon="11.7707817833598"><ele>2.0</ele><time>2026-03-22T13:23:52.999Z</time></trkpt><trkpt lat="44.923765293356546" lon="11.770653288361455"><ele>2.0</ele><time>2026-03-22T13:23:53.999Z</time></trkpt><trkpt lat="44.924049169005315" lon="11.77052517146518"><ele>2.5</ele><time>2026-03-22T13:23:54.999Z</time></trkpt><trkpt lat="44.92433348220788" lon="11.77039091467866"><ele>3.0</ele><time>2026-03-22T13:23:55.999Z</time></trkpt><trkpt lat="44.92461762252583" lon="11.77025597102602"><ele>3.0</ele><time>2026-03-22T13:23:56.999Z</time></trkpt><trkpt lat="44.92489778101925" lon="11.770120231042894"><ele>3.0</ele><time>2026-03-22T13:23:57.999Z</time></trkpt><trkpt lat="44.92517052341359" lon="11.76998505590166"><ele>3.0</ele><time>2026-03-22T13:23:58.999Z</time></trkpt><trkpt lat="44.92542272544153" lon="11.769867651434687"><ele>3.0</ele><time>2026-03-22T13:23:59.999Z</time></trkpt><trkpt lat="44.925645068424345" lon="11.769767181542274"><ele>3.0</ele><time>2026-03-22T13:24:00.999Z</time></trkpt><trkpt lat="44.92584779619712" lon="11.769678929258635"><ele>3.0</ele><time>2026-03-22T13:24:01.999Z</time></trkpt><trkpt lat="44.92603509668293" lon="11.769599537669999"><ele>3.0</ele><time>2026-03-22T13:24:02.999Z</time></trkpt><trkpt lat="44.92622877090887" lon="11.769497690321897"><ele>2.6666666666666665</ele><time>2026-03-22T13:24:03.999Z</time></trkpt><trkpt lat="44.92642113946174" lon="11.769375171188644"><ele>2.333333333333333</ele><time>2026-03-22T13:24:04.999Z</time></trkpt><trkpt lat="44.926603833251704" lon="11.769195315692388"><ele>2.0</ele><time>2026-03-22T13:24:05.999Z</time></trkpt><trkpt lat="44.92679322829745" lon="11.768979282030024"><ele>2.0</ele><time>2026-03-22T13:24:06.999Z</time></trkpt><trkpt lat="44.92700740100943" lon="11.76875761845629"><ele>2.0</ele><time>2026-03-22T13:24:07.999Z</time></trkpt><trkpt lat="44.92722617665604" lon="11.768544086206388"><ele>2.0</ele><time>2026-03-22T13:24:08.999Z</time></trkpt><trkpt lat="44.92745064702099" lon="11.76832382146863"><ele>2.0</ele><time>2026-03-22T13:24:09.999Z</time></trkpt><trkpt lat="44.92767973250044" lon="11.768103362438008"><ele>2.0</ele><time>2026-03-22T13:24:10.999Z</time></trkpt><trkpt lat="44.92791212509967" lon="11.767880561235268"><ele>2.0</ele><time>2026-03-22T13:24:11.999Z</time></trkpt><trkpt lat="44.9281487933972" lon="11.767662343815877"><ele>2.0</ele><time>2026-03-22T13:24:12.999Z</time></trkpt><trkpt lat="44.928382578259566" lon="11.767438260602614"><ele>2.0</ele><time>2026-03-22T13:24:13.999Z</time></trkpt><trkpt lat="44.928618053930265" lon="11.76722310313498"><ele>2.5</ele><time>2026-03-22T13:24:14.999Z</time></trkpt><trkpt lat="44.9288523014424" lon="11.766999842939809"><ele>3.0</ele><time>2026-03-22T13:24:15.999Z</time></trkpt><trkpt lat="44.92908471534376" lon="11.766774692854138"><ele>3.0</ele><time>2026-03-22T13:24:16.999Z</time></trkpt><trkpt lat="44.929319162995846" lon="11.766552203412559"><ele>3.0</ele><time>2026-03-22T13:24:17.999Z</time></trkpt><trkpt lat="44.92955060192713" lon="11.766337758915885"><ele>3.0</ele><time>2026-03-22T13:24:19.001Z</time></trkpt><trkpt lat="44.92977428077308" lon="11.766132483984347"><ele>3.0</ele><time>2026-03-22T13:24:20Z</time></trkpt><trkpt lat="44.93000869589313" lon="11.765942275289168"><ele>2.5</ele><time>2026-03-22T13:24:21Z</time></trkpt><trkpt lat="44.93024312076875" lon="11.76575621225581"><ele>2.0</ele><time>2026-03-22T13:24:22.001Z</time></trkpt><trkpt lat="44.93047571212099" lon="11.765586823469798"><ele>2.0</ele><time>2026-03-22T13:24:23Z</time></trkpt><trkpt lat="44.93069512018324" lon="11.765442876022542"><ele>2.0</ele><time>2026-03-22T13:24:24Z</time></trkpt><trkpt lat="44.93089637040293" lon="11.765325424093872"><ele>2.0</ele><time>2026-03-22T13:24:25Z</time></trkpt><trkpt lat="44.93108576026299" lon="11.765217588798317"><ele>2.0</ele><time>2026-03-22T13:24:26Z</time></trkpt><trkpt lat="44.93126796909317" lon="11.765125942582149"><ele>2.0</ele><time>2026-03-22T13:24:27Z</time></trkpt><trkpt lat="44.9314493627874" lon="11.765030405376942"><ele>2.0</ele><time>2026-03-22T13:24:28Z</time></trkpt><trkpt lat="44.93162887350635" lon="11.764943119134417"><ele>2.0</ele><time>2026-03-22T13:24:29Z</time></trkpt><trkpt lat="44.93180571040702" lon="11.764877683709798"><ele>2.0</ele><time>2026-03-22T13:24:30Z</time></trkpt><trkpt lat="44.93197545869713" lon="11.764815959647748"><ele>2.0</ele><time>2026-03-22T13:24:31Z</time></trkpt><trkpt lat="44.932154016688585" lon="11.764756040589043"><ele>2.0</ele><time>2026-03-22T13:24:32Z</time></trkpt><trkpt lat="44.932336433018996" lon="11.76468171426949"><ele>2.0</ele><time>2026-03-22T13:24:33Z</time></trkpt><trkpt lat="44.93251893742296" lon="11.764635097317976"><ele>2.0</ele><time>2026-03-22T13:24:34Z</time></trkpt><trkpt lat="44.932693498472005" lon="11.76459448990663"><ele>2.0</ele><time>2026-03-22T13:24:35Z</time></trkpt><trkpt lat="44.93286866436231" lon="11.764558680128642"><ele>2.0</ele><time>2026-03-22T13:24:36Z</time></trkpt><trkpt lat="44.93304056022689" lon="11.764519945791493"><ele>2.0</ele><time>2026-03-22T13:24:37Z</time></trkpt><trkpt lat="44.93323266822058" lon="11.764485977840653"><ele>2.0</ele><time>2026-03-22T13:24:38Z</time></trkpt><trkpt lat="44.93344520003859" lon="11.764455619246855"><ele>2.0</ele><time>2026-03-22T13:24:39Z</time></trkpt><trkpt lat="44.93367111297967" lon="11.764423115802545"><ele>2.0</ele><time>2026-03-22T13:24:40Z</time></trkpt><trkpt lat="44.93390577613481" lon="11.764406925083135"><ele>2.0</ele><time>2026-03-22T13:24:41Z</time></trkpt><trkpt lat="44.93413971680148" lon="11.764410251423916"><ele>2.0</ele><time>2026-03-22T13:24:42Z</time></trkpt><trkpt lat="44.93435814995806" lon="11.764428104932579"><ele>2.0</ele><time>2026-03-22T13:24:43Z</time></trkpt><trkpt lat="44.93455662359318" lon="11.764441460051597"><ele>2.0</ele><time>2026-03-22T13:24:44Z</time></trkpt><trkpt lat="44.93473195953535" lon="11.76443965639137"><ele>2.0</ele><time>2026-03-22T13:24:45Z</time></trkpt><trkpt lat="44.93489843087657" lon="11.764446631092863"><ele>2.0</ele><time>2026-03-22T13:24:46Z</time></trkpt><trkpt lat="44.93505842260417" lon="11.764445468327066"><ele>2.0</ele><time>2026-03-22T13:24:47Z</time></trkpt><trkpt lat="44.93522898810211" lon="11.764438437456755"><ele>2.0</ele><time>2026-03-22T13:24:48Z</time></trkpt><trkpt lat="44.9354028620727" lon="11.764433698352532"><ele>2.0</ele><time>2026-03-22T13:24:49Z</time></trkpt><trkpt lat="44.935578673205626" lon="11.764431611222742"><ele>2.0</ele><time>2026-03-22T13:24:50Z</time></trkpt><trkpt lat="44.93575751341184" lon="11.76443246061106"><ele>2.6666666666666665</ele><time>2026-03-22T13:24:51Z</time></trkpt><trkpt lat="44.93595151361199" lon="11.764412274134282"><ele>3.333333333333333</ele><time>2026-03-22T13:24:52Z</time></trkpt><trkpt lat="44.936183074091815" lon="11.764389416469388"><ele>4.0</ele><time>2026-03-22T13:24:53Z</time></trkpt><trkpt lat="44.93641847990554" lon="11.76439528464429"><ele>4.0</ele><time>2026-03-22T13:24:54Z</time></trkpt><trkpt lat="44.93667365603337" lon="11.764412293582108"><ele>4.0</ele><time>2026-03-22T13:24:55Z</time></trkpt><trkpt lat="44.9369408564868" lon="11.764420627505007"><ele>4.0</ele><time>2026-03-22T13:24:56Z</time></trkpt><trkpt lat="44.937214666218736" lon="11.764417809060468"><ele>4.0</ele><time>2026-03-22T13:24:57Z</time></trkpt><trkpt lat="44.93749457278599" lon="11.764409109778686"><ele>3.0</ele><time>2026-03-22T13:24:58Z</time></trkpt><trkpt lat="44.93777404693947" lon="11.764399310050223"><ele>2.0</ele><time>2026-03-22T13:24:59Z</time></trkpt><trkpt lat="44.938049407166" lon="11.764400259667173"><ele>2.0</ele><time>2026-03-22T13:25:00Z</time></trkpt><trkpt lat="44.938322940188556" lon="11.764399751120914"><ele>2.0</ele><time>2026-03-22T13:25:01Z</time></trkpt><trkpt lat="44.93858991389716" lon="11.764413606523766"><ele>1.5</ele><time>2026-03-22T13:25:02Z</time></trkpt><trkpt lat="44.93885247306791" lon="11.764427841768088"><ele>1.0</ele><time>2026-03-22T13:25:03Z</time></trkpt><trkpt lat="44.939102299781865" lon="11.764449771502012"><ele>1.0</ele><time>2026-03-22T13:25:04Z</time></trkpt><trkpt lat="44.939337440012345" lon="11.764472523720748"><ele>1.0</ele><time>2026-03-22T13:25:05Z</time></trkpt><trkpt lat="44.93957202576857" lon="11.764500023452912"><ele>1.0</ele><time>2026-03-22T13:25:06Z</time></trkpt><trkpt lat="44.9398056530269" lon="11.764526841836137"><ele>1.0</ele><time>2026-03-22T13:25:07Z</time></trkpt><trkpt lat="44.94003620281468" lon="11.76455184094559"><ele>2.0</ele><time>2026-03-22T13:25:08Z</time></trkpt><trkpt lat="44.94026701127505" lon="11.764573454690478"><ele>3.0</ele><time>2026-03-22T13:25:09Z</time></trkpt><trkpt lat="44.94049223913175" lon="11.764595711696389"><ele>3.0</ele><time>2026-03-22T13:25:10Z</time></trkpt><trkpt lat="44.940710432510244" lon="11.76459626721365"><ele>3.0</ele><time>2026-03-22T13:25:11Z</time></trkpt><trkpt lat="44.9409150342865" lon="11.764582760864215"><ele>3.0</ele><time>2026-03-22T13:25:12Z</time></trkpt><trkpt lat="44.94111824974926" lon="11.764546437072974"><ele>3.0</ele><time>2026-03-22T13:25:13Z</time></trkpt><trkpt lat="44.94130784112048" lon="11.764475363750988"><ele>3.0</ele><time>2026-03-22T13:25:14Z</time></trkpt><trkpt lat="44.941493815040225" lon="11.764388677324686"><ele>3.0</ele><time>2026-03-22T13:25:15Z</time></trkpt><trkpt lat="44.94167291656416" lon="11.764268239668034"><ele>2.6666666666666665</ele><time>2026-03-22T13:25:16Z</time></trkpt><trkpt lat="44.94184106558729" lon="11.764111537146185"><ele>2.333333333333333</ele><time>2026-03-22T13:25:17Z</time></trkpt><trkpt lat="44.94201032595169" lon="11.763952167196907"><ele>2.0</ele><time>2026-03-22T13:25:18Z</time></trkpt><trkpt lat="44.94218101060603" lon="11.763820690888394"><ele>2.0</ele><time>2026-03-22T13:25:19Z</time></trkpt><trkpt lat="44.942326901149116" lon="11.763611823895811"><ele>2.0</ele><time>2026-03-22T13:25:20Z</time></trkpt><trkpt lat="44.94246651238399" lon="11.76339908088568"><ele>2.0</ele><time>2026-03-22T13:25:21Z</time></trkpt><trkpt lat="44.94258237235412" lon="11.763163400250427"><ele>2.333333333333333</ele><time>2026-03-22T13:25:22Z</time></trkpt><trkpt lat="44.94268776198649" lon="11.762905596190825"><ele>2.6666666666666665</ele><time>2026-03-22T13:25:23Z</time></trkpt><trkpt lat="44.94278748604389" lon="11.762643526210242"><ele>3.0</ele><time>2026-03-22T13:25:24Z</time></trkpt><trkpt lat="44.94288115362481" lon="11.762379802703522"><ele>3.0</ele><time>2026-03-22T13:25:24.997Z</time></trkpt><trkpt lat="44.9429681382917" lon="11.762105600034301"><ele>3.0</ele><time>2026-03-22T13:25:25.995Z</time></trkpt><trkpt lat="44.9430435718585" lon="11.76182661467445"><ele>3.0</ele><time>2026-03-22T13:25:26.992Z</time></trkpt><trkpt lat="44.94311332838152" lon="11.761548815655535"><ele>3.0</ele><time>2026-03-22T13:25:27.99Z</time></trkpt><trkpt lat="44.9431777086225" lon="11.761271155913402"><ele>3.0</ele><time>2026-03-22T13:25:28.988Z</time></trkpt><trkpt lat="44.94323358712545" lon="11.760996885407588"><ele>3.0</ele><time>2026-03-22T13:25:29.986Z</time></trkpt><trkpt lat="44.943287018238784" lon="11.76072709763444"><ele>3.0</ele><time>2026-03-22T13:25:30.985Z</time></trkpt><trkpt lat="44.9433426456933" lon="11.760476863001442"><ele>3.0</ele><time>2026-03-22T13:25:31.983Z</time></trkpt><trkpt lat="44.94340001555637" lon="11.760253619536563"><ele>3.0</ele><time>2026-03-22T13:25:32.982Z</time></trkpt><trkpt lat="44.943474936465336" lon="11.760032771738782"><ele>3.333333333333333</ele><time>2026-03-22T13:25:33.98Z</time></trkpt><trkpt lat="44.94356930675704" lon="11.759815137379036"><ele>3.6666666666666665</ele><time>2026-03-22T13:25:34.979Z</time></trkpt><trkpt lat="44.943674350426384" lon="11.759593468309115"><ele>4.0</ele><time>2026-03-22T13:25:35.977Z</time></trkpt><trkpt lat="44.94378060130464" lon="11.759362899489439"><ele>3.333333333333333</ele><time>2026-03-22T13:25:36.976Z</time></trkpt><trkpt lat="44.94388224054844" lon="11.759133411294444"><ele>2.6666666666666665</ele><time>2026-03-22T13:25:37.975Z</time></trkpt><trkpt lat="44.94398299374224" lon="11.758911398295918"><ele>2.0</ele><time>2026-03-22T13:25:38.974Z</time></trkpt><trkpt lat="44.94408915842783" lon="11.758688496394962"><ele>2.0</ele><time>2026-03-22T13:25:39.973Z</time></trkpt><trkpt lat="44.94421044529632" lon="11.758475598451897"><ele>2.0</ele><time>2026-03-22T13:25:40.972Z</time></trkpt><trkpt lat="44.94434458955522" lon="11.758264563744309"><ele>2.0</ele><time>2026-03-22T13:25:41.971Z</time></trkpt><trkpt lat="44.9444783694805" lon="11.758043008362053"><ele>2.0</ele><time>2026-03-22T13:25:42.971Z</time></trkpt><trkpt lat="44.944615054391846" lon="11.757832340848168"><ele>2.0</ele><time>2026-03-22T13:25:43.97Z</time></trkpt><trkpt lat="44.94474835471159" lon="11.757632644533206"><ele>2.0</ele><time>2026-03-22T13:25:44.969Z</time></trkpt><trkpt lat="44.94487524793548" lon="11.757437843255943"><ele>2.0</ele><time>2026-03-22T13:25:45.968Z</time></trkpt><trkpt lat="44.94499775668935" lon="11.757249914760045"><ele>2.0</ele><time>2026-03-22T13:25:46.968Z</time></trkpt><trkpt lat="44.94511545874049" lon="11.757079626955859"><ele>2.0</ele><time>2026-03-22T13:25:47.967Z</time></trkpt><trkpt lat="44.94522280241472" lon="11.75692352765136"><ele>2.4000000000000004</ele><time>2026-03-22T13:25:48.967Z</time></trkpt><trkpt lat="44.94531476233043" lon="11.756790542139136"><ele>2.8000000000000003</ele><time>2026-03-22T13:25:49.966Z</time></trkpt><trkpt lat="44.94539914473543" lon="11.75668169865032"><ele>3.2</ele><time>2026-03-22T13:25:50.966Z</time></trkpt><trkpt lat="44.94547000714339" lon="11.756600952670645"><ele>3.6</ele><time>2026-03-22T13:25:51.965Z</time></trkpt><trkpt lat="44.94554254616975" lon="11.756530784244152"><ele>4.0</ele><time>2026-03-22T13:25:52.965Z</time></trkpt><trkpt lat="44.9456142127617" lon="11.75648202027338"><ele>4.0</ele><time>2026-03-22T13:25:53.964Z</time></trkpt><trkpt lat="44.945682279028" lon="11.756462382433323"><ele>4.0</ele><time>2026-03-22T13:25:54.964Z</time></trkpt><trkpt lat="44.94579502320081" lon="11.756527163072944"><ele>4.0</ele><time>2026-03-22T13:25:56.963Z</time></trkpt><trkpt lat="44.94585173780679" lon="11.756627139811188"><ele>4.0</ele><time>2026-03-22T13:25:57.963Z</time></trkpt><trkpt lat="44.94591558932948" lon="11.756765043231066"><ele>4.0</ele><time>2026-03-22T13:25:58.963Z</time></trkpt><trkpt lat="44.9459791006484" lon="11.75692057975121"><ele>4.0</ele><time>2026-03-22T13:25:59.962Z</time></trkpt><trkpt lat="44.94604625717687" lon="11.757086209022576"><ele>4.0</ele><time>2026-03-22T13:26:00.962Z</time></trkpt><trkpt lat="44.94611796580966" lon="11.757252474745092"><ele>4.0</ele><time>2026-03-22T13:26:01.962Z</time></trkpt><trkpt lat="44.94620237202343" lon="11.757422686084812"><ele>4.0</ele><time>2026-03-22T13:26:02.961Z</time></trkpt><trkpt lat="44.946281740401936" lon="11.757591510653699"><ele>4.0</ele><time>2026-03-22T13:26:03.961Z</time></trkpt><trkpt lat="44.94635667865789" lon="11.75774756434668"><ele>4.0</ele><time>2026-03-22T13:26:04.961Z</time></trkpt><trkpt lat="44.94643293497058" lon="11.75790661350686"><ele>4.0</ele><time>2026-03-22T13:26:05.961Z</time></trkpt><trkpt lat="44.946506689516056" lon="11.758064317829271"><ele>4.0</ele><time>2026-03-22T13:26:06.961Z</time></trkpt><trkpt lat="44.946570285576044" lon="11.758233621700517"><ele>4.0</ele><time>2026-03-22T13:26:07.96Z</time></trkpt><trkpt lat="44.9466255234971" lon="11.758400063118463"><ele>4.0</ele><time>2026-03-22T13:26:08.96Z</time></trkpt><trkpt lat="44.946693060193184" lon="11.758581244972431"><ele>4.0</ele><time>2026-03-22T13:26:09.96Z</time></trkpt><trkpt lat="44.94676997121254" lon="11.758775493420428"><ele>4.0</ele><time>2026-03-22T13:26:10.96Z</time></trkpt><trkpt lat="44.94684797378718" lon="11.758974481037049"><ele>4.0</ele><time>2026-03-22T13:26:11.96Z</time></trkpt><trkpt lat="44.94692285284042" lon="11.759184887923665"><ele>4.0</ele><time>2026-03-22T13:26:12.96Z</time></trkpt><trkpt lat="44.946992797126484" lon="11.759398895746118"><ele>4.0</ele><time>2026-03-22T13:26:13.96Z</time></trkpt><trkpt lat="44.94704955958871" lon="11.759599213659566"><ele>4.0</ele><time>2026-03-22T13:26:14.959Z</time></trkpt><trkpt lat="44.9470902206837" lon="11.759783383855297"><ele>4.0</ele><time>2026-03-22T13:26:15.959Z</time></trkpt><trkpt lat="44.94712738353919" lon="11.759949687645596"><ele>4.0</ele><time>2026-03-22T13:26:16.959Z</time></trkpt><trkpt lat="44.94714388604598" lon="11.760114067127887"><ele>4.0</ele><time>2026-03-22T13:26:17.959Z</time></trkpt><trkpt lat="44.947166079191085" lon="11.760259844507365"><ele>4.0</ele><time>2026-03-22T13:26:18.959Z</time></trkpt><trkpt lat="44.94718960581285" lon="11.760397448767206"><ele>4.0</ele><time>2026-03-22T13:26:19.959Z</time></trkpt><trkpt lat="44.947230557788146" lon="11.760521034513042"><ele>4.0</ele><time>2026-03-22T13:26:20.959Z</time></trkpt><trkpt lat="44.94712984567017" lon="11.760626749400366"><ele>4.0</ele><time>2026-03-22T13:26:21.959Z</time></trkpt><trkpt lat="44.947112726776105" lon="11.760766330446382"><ele>4.0</ele><time>2026-03-22T13:26:23.958Z</time></trkpt><trkpt lat="44.947108230509826" lon="11.760877776634114"><ele>4.0</ele><time>2026-03-22T13:26:25.96Z</time></trkpt><trkpt lat="44.94736567623431" lon="11.760932547939015"><ele>4.0</ele><time>2026-03-22T13:26:27.959Z</time></trkpt><trkpt lat="44.947452921356735" lon="11.760917888629873"><ele>4.0</ele><time>2026-03-22T13:26:28.96Z</time></trkpt><trkpt lat="44.947565677189935" lon="11.760882056192136"><ele>4.0</ele><time>2026-03-22T13:26:29.96Z</time></trkpt><trkpt lat="44.9476853639435" lon="11.760833652409712"><ele>4.0</ele><time>2026-03-22T13:26:30.959Z</time></trkpt><trkpt lat="44.94780897904602" lon="11.760778277560643"><ele>4.0</ele><time>2026-03-22T13:26:31.959Z</time></trkpt><trkpt lat="44.94793475921321" lon="11.760747378391672"><ele>4.0</ele><time>2026-03-22T13:26:32.959Z</time></trkpt><trkpt lat="44.94805333772236" lon="11.760704357265578"><ele>4.0</ele><time>2026-03-22T13:26:33.96Z</time></trkpt><trkpt lat="44.94817006547202" lon="11.760680638989466"><ele>4.0</ele><time>2026-03-22T13:26:34.959Z</time></trkpt><trkpt lat="44.948278177797754" lon="11.760668614771886"><ele>4.0</ele><time>2026-03-22T13:26:35.959Z</time></trkpt><trkpt lat="44.948400249687815" lon="11.760670241902044"><ele>4.0</ele><time>2026-03-22T13:26:36.959Z</time></trkpt><trkpt lat="44.94854364330293" lon="11.760693837893504"><ele>4.0</ele><time>2026-03-22T13:26:37.959Z</time></trkpt><trkpt lat="44.94869460658928" lon="11.760712031405822"><ele>4.0</ele><time>2026-03-22T13:26:38.959Z</time></trkpt><trkpt lat="44.948853256578424" lon="11.760716433148614"><ele>4.0</ele><time>2026-03-22T13:26:39.959Z</time></trkpt><trkpt lat="44.94901416751789" lon="11.76069299814528"><ele>4.0</ele><time>2026-03-22T13:26:40.959Z</time></trkpt><trkpt lat="44.94916973066424" lon="11.76065930499855"><ele>4.0</ele><time>2026-03-22T13:26:41.959Z</time></trkpt><trkpt lat="44.94930591015915" lon="11.760639393962467"><ele>4.0</ele><time>2026-03-22T13:26:42.959Z</time></trkpt><trkpt lat="44.949428475852635" lon="11.76063681989205"><ele>4.0</ele><time>2026-03-22T13:26:43.959Z</time></trkpt><trkpt lat="44.94954241486539" lon="11.760651132845002"><ele>4.0</ele><time>2026-03-22T13:26:44.959Z</time></trkpt><trkpt lat="44.94964839742523" lon="11.760693129563089"><ele>4.0</ele><time>2026-03-22T13:26:45.959Z</time></trkpt><trkpt lat="44.94973986234919" lon="11.760753680831014"><ele>4.0</ele><time>2026-03-22T13:26:46.959Z</time></trkpt><trkpt lat="44.9498118711954" lon="11.760861435555864"><ele>4.0</ele><time>2026-03-22T13:26:47.959Z</time></trkpt><trkpt lat="44.94988766132222" lon="11.760991207293237"><ele>4.0</ele><time>2026-03-22T13:26:48.959Z</time></trkpt><trkpt lat="44.94995554170248" lon="11.761138937376131"><ele>4.0</ele><time>2026-03-22T13:26:49.959Z</time></trkpt><trkpt lat="44.95001305078456" lon="11.761316195605403"><ele>4.0</ele><time>2026-03-22T13:26:50.959Z</time></trkpt><trkpt lat="44.95001779180398" lon="11.761514515319279"><ele>4.0</ele><time>2026-03-22T13:26:51.959Z</time></trkpt><trkpt lat="44.95001337336404" lon="11.76173865482493"><ele>4.0</ele><time>2026-03-22T13:26:52.958Z</time></trkpt><trkpt lat="44.95000623977241" lon="11.761976385629904"><ele>3.6666666666666665</ele><time>2026-03-22T13:26:53.958Z</time></trkpt><trkpt lat="44.9500046302011" lon="11.762228124498993"><ele>3.333333333333333</ele><time>2026-03-22T13:26:54.958Z</time></trkpt><trkpt lat="44.95001258919277" lon="11.762475066287834"><ele>3.0</ele><time>2026-03-22T13:26:55.958Z</time></trkpt><trkpt lat="44.95004332908599" lon="11.76269032201194"><ele>3.0</ele><time>2026-03-22T13:26:56.958Z</time></trkpt><trkpt lat="44.95003990502519" lon="11.762890159732633"><ele>3.0</ele><time>2026-03-22T13:26:57.958Z</time></trkpt><trkpt lat="44.950055518777326" lon="11.76306130631844"><ele>3.0</ele><time>2026-03-22T13:26:58.958Z</time></trkpt><trkpt lat="44.950078179802624" lon="11.763227680119945"><ele>3.0</ele><time>2026-03-22T13:26:59.958Z</time></trkpt><trkpt lat="44.95010664004508" lon="11.76339442810887"><ele>2.6666666666666665</ele><time>2026-03-22T13:27:00.958Z</time></trkpt><trkpt lat="44.950147796240955" lon="11.763576356286265"><ele>2.333333333333333</ele><time>2026-03-22T13:27:01.958Z</time></trkpt><trkpt lat="44.950219007708654" lon="11.763783619543643"><ele>2.0</ele><time>2026-03-22T13:27:02.958Z</time></trkpt><trkpt lat="44.950319001546" lon="11.76401533928393"><ele>2.0</ele><time>2026-03-22T13:27:03.958Z</time></trkpt><trkpt lat="44.95043515723763" lon="11.764269370583941"><ele>2.0</ele><time>2026-03-22T13:27:04.958Z</time></trkpt><trkpt lat="44.950564013801184" lon="11.764528279674979"><ele>2.0</ele><time>2026-03-22T13:27:05.958Z</time></trkpt><trkpt lat="44.9507033008509" lon="11.764797154550887"><ele>2.5</ele><time>2026-03-22T13:27:06.958Z</time></trkpt><trkpt lat="44.95085470965361" lon="11.765063864377673"><ele>3.0</ele><time>2026-03-22T13:27:07.958Z</time></trkpt><trkpt lat="44.95102151164322" lon="11.765322167087689"><ele>3.0</ele><time>2026-03-22T13:27:08.958Z</time></trkpt><trkpt lat="44.95119438387471" lon="11.765567202637422"><ele>3.0</ele><time>2026-03-22T13:27:09.958Z</time></trkpt><trkpt lat="44.9513900269868" lon="11.765800808300824"><ele>3.0</ele><time>2026-03-22T13:27:10.958Z</time></trkpt><trkpt lat="44.95159634340953" lon="11.766014200800122"><ele>3.0</ele><time>2026-03-22T13:27:11.958Z</time></trkpt><trkpt lat="44.95180370917385" lon="11.766221574555786"><ele>3.0</ele><time>2026-03-22T13:27:12.958Z</time></trkpt><trkpt lat="44.95199437124984" lon="11.766410771186647"><ele>3.0</ele><time>2026-03-22T13:27:13.958Z</time></trkpt><trkpt lat="44.952169952088354" lon="11.766590006824101"><ele>3.0</ele><time>2026-03-22T13:27:14.958Z</time></trkpt><trkpt lat="44.95231903331115" lon="11.766779782519688"><ele>3.0</ele><time>2026-03-22T13:27:15.958Z</time></trkpt><trkpt lat="44.95244732687974" lon="11.76698319458721"><ele>3.0</ele><time>2026-03-22T13:27:16.958Z</time></trkpt><trkpt lat="44.95256275023799" lon="11.767216806831266"><ele>3.0</ele><time>2026-03-22T13:27:17.958Z</time></trkpt><trkpt lat="44.95266542833963" lon="11.76748021179862"><ele>3.0</ele><time>2026-03-22T13:27:18.958Z</time></trkpt><trkpt lat="44.95275238730178" lon="11.767775946642383"><ele>3.0</ele><time>2026-03-22T13:27:19.958Z</time></trkpt><trkpt lat="44.95283817315198" lon="11.768084574782952"><ele>3.0</ele><time>2026-03-22T13:27:20.958Z</time></trkpt><trkpt lat="44.9529169859973" lon="11.768405227851805"><ele>3.0</ele><time>2026-03-22T13:27:21.958Z</time></trkpt><trkpt lat="44.9529947366689" lon="11.76873083363941"><ele>3.0</ele><time>2026-03-22T13:27:22.958Z</time></trkpt><trkpt lat="44.95306809338243" lon="11.769047405727228"><ele>3.0</ele><time>2026-03-22T13:27:23.958Z</time></trkpt><trkpt lat="44.95313966490448" lon="11.7693682325809"><ele>3.0</ele><time>2026-03-22T13:27:24.958Z</time></trkpt><trkpt lat="44.95321427346148" lon="11.769667297244995"><ele>3.0</ele><time>2026-03-22T13:27:25.958Z</time></trkpt><trkpt lat="44.953285663114784" lon="11.769967072947654"><ele>3.0</ele><time>2026-03-22T13:27:26.958Z</time></trkpt><trkpt lat="44.95333504388718" lon="11.770264492875958"><ele>2.6666666666666665</ele><time>2026-03-22T13:27:27.957Z</time></trkpt><trkpt lat="44.95340669841889" lon="11.770542981192246"><ele>2.333333333333333</ele><time>2026-03-22T13:27:28.957Z</time></trkpt><trkpt lat="44.95349310557868" lon="11.770819884129738"><ele>2.0</ele><time>2026-03-22T13:27:29.957Z</time></trkpt><trkpt lat="44.95361137380752" lon="11.771091908873098"><ele>2.0</ele><time>2026-03-22T13:27:30.957Z</time></trkpt><trkpt lat="44.95374675757784" lon="11.771368803775399"><ele>2.0</ele><time>2026-03-22T13:27:31.957Z</time></trkpt><trkpt lat="44.953889242194506" lon="11.771656715728628"><ele>2.0</ele><time>2026-03-22T13:27:32.957Z</time></trkpt><trkpt lat="44.95403771064429" lon="11.771955939421796"><ele>2.0</ele><time>2026-03-22T13:27:33.957Z</time></trkpt><trkpt lat="44.95418764909295" lon="11.77226247833645"><ele>2.5</ele><time>2026-03-22T13:27:34.957Z</time></trkpt><trkpt lat="44.954339482832204" lon="11.772574284492638"><ele>3.0</ele><time>2026-03-22T13:27:35.957Z</time></trkpt><trkpt lat="44.95448506528577" lon="11.772884521558005"><ele>3.0</ele><time>2026-03-22T13:27:36.957Z</time></trkpt><trkpt lat="44.954639069976864" lon="11.77318620302545"><ele>3.0</ele><time>2026-03-22T13:27:37.957Z</time></trkpt><trkpt lat="44.95479006135359" lon="11.773493269015724"><ele>3.0</ele><time>2026-03-22T13:27:38.957Z</time></trkpt><trkpt lat="44.95494048078073" lon="11.773797464464572"><ele>3.0</ele><time>2026-03-22T13:27:39.957Z</time></trkpt><trkpt lat="44.95508742141155" lon="11.774103642091715"><ele>2.5</ele><time>2026-03-22T13:27:40.957Z</time></trkpt><trkpt lat="44.955233370040595" lon="11.774418100026969"><ele>2.0</ele><time>2026-03-22T13:27:41.957Z</time></trkpt><trkpt lat="44.95538241100048" lon="11.774727390913174"><ele>2.0</ele><time>2026-03-22T13:27:42.957Z</time></trkpt><trkpt lat="44.955534857260595" lon="11.775037696721894"><ele>2.0</ele><time>2026-03-22T13:27:43.957Z</time></trkpt><trkpt lat="44.955688767985784" lon="11.775347005356242"><ele>2.0</ele><time>2026-03-22T13:27:44.957Z</time></trkpt><trkpt lat="44.95584562865932" lon="11.775654060260168"><ele>2.0</ele><time>2026-03-22T13:27:45.957Z</time></trkpt><trkpt lat="44.95599961015296" lon="11.775964562560493"><ele>1.5</ele><time>2026-03-22T13:27:46.957Z</time></trkpt><trkpt lat="44.95616633052541" lon="11.77626669768916"><ele>1.0</ele><time>2026-03-22T13:27:47.957Z</time></trkpt><trkpt lat="44.95633311009108" lon="11.77657464876726"><ele>1.5</ele><time>2026-03-22T13:27:48.957Z</time></trkpt><trkpt lat="44.956491672836805" lon="11.776876119524117"><ele>2.0</ele><time>2026-03-22T13:27:49.957Z</time></trkpt><trkpt lat="44.9566559448826" lon="11.777175311600573"><ele>1.5</ele><time>2026-03-22T13:27:50.957Z</time></trkpt><trkpt lat="44.95681712545734" lon="11.777473131440201"><ele>1.0</ele><time>2026-03-22T13:27:51.957Z</time></trkpt><trkpt lat="44.956981382058764" lon="11.777751822825499"><ele>0.5</ele><time>2026-03-22T13:27:52.957Z</time></trkpt><trkpt lat="44.957137018753286" lon="11.778032240293443"><ele>0.0</ele><time>2026-03-22T13:27:53.957Z</time></trkpt><trkpt lat="44.957285435370906" lon="11.778313069588403"><ele>0.5</ele><time>2026-03-22T13:27:54.957Z</time></trkpt><trkpt lat="44.95743844982195" lon="11.778592835782714"><ele>1.0</ele><time>2026-03-22T13:27:55.957Z</time></trkpt><trkpt lat="44.9575927459921" lon="11.778873077936709"><ele>1.0</ele><time>2026-03-22T13:27:56.957Z</time></trkpt><trkpt lat="44.95774568430569" lon="11.779150199074143"><ele>1.0</ele><time>2026-03-22T13:27:57.957Z</time></trkpt><trkpt lat="44.95789951870929" lon="11.779436122363512"><ele>1.0</ele><time>2026-03-22T13:27:58.957Z</time></trkpt><trkpt lat="44.958057209821185" lon="11.779714245763218"><ele>1.0</ele><time>2026-03-22T13:27:59.957Z</time></trkpt><trkpt lat="44.95820862047844" lon="11.779988239264776"><ele>1.5</ele><time>2026-03-22T13:28:00.957Z</time></trkpt><trkpt lat="44.95835597224518" lon="11.78024848043736"><ele>2.0</ele><time>2026-03-22T13:28:01.957Z</time></trkpt><trkpt lat="44.95849691333961" lon="11.780498611504312"><ele>2.5</ele><time>2026-03-22T13:28:02.957Z</time></trkpt><trkpt lat="44.95863279239144" lon="11.780750325108642"><ele>3.0</ele><time>2026-03-22T13:28:03.957Z</time></trkpt><trkpt lat="44.95876227961236" lon="11.781018142285001"><ele>3.0</ele><time>2026-03-22T13:28:04.957Z</time></trkpt><trkpt lat="44.958880015334756" lon="11.781299483662613"><ele>3.0</ele><time>2026-03-22T13:28:05.956Z</time></trkpt><trkpt lat="44.958990379155594" lon="11.781612498291011"><ele>2.5</ele><time>2026-03-22T13:28:06.956Z</time></trkpt><trkpt lat="44.95908681238727" lon="11.781950417140616"><ele>2.0</ele><time>2026-03-22T13:28:07.956Z</time></trkpt><trkpt lat="44.95918078979178" lon="11.782293596177247"><ele>4.0</ele><time>2026-03-22T13:28:08.956Z</time></trkpt><trkpt lat="44.95926905683054" lon="11.78265957539042"><ele>6.0</ele><time>2026-03-22T13:28:09.956Z</time></trkpt><trkpt lat="44.9593589883181" lon="11.783045131061309"><ele>6.5</ele><time>2026-03-22T13:28:10.956Z</time></trkpt><trkpt lat="44.959452507373186" lon="11.783435482078112"><ele>7.0</ele><time>2026-03-22T13:28:11.956Z</time></trkpt><trkpt lat="44.959542170673416" lon="11.783819496010821"><ele>7.0</ele><time>2026-03-22T13:28:12.956Z</time></trkpt><trkpt lat="44.95962977764359" lon="11.784193858936513"><ele>7.0</ele><time>2026-03-22T13:28:13.956Z</time></trkpt><trkpt lat="44.95971502487308" lon="11.78454500111697"><ele>6.0</ele><time>2026-03-22T13:28:14.956Z</time></trkpt><trkpt lat="44.959806289998255" lon="11.784884219253222"><ele>5.0</ele><time>2026-03-22T13:28:15.956Z</time></trkpt><trkpt lat="44.95990947580806" lon="11.785217077391708"><ele>6.0</ele><time>2026-03-22T13:28:16.956Z</time></trkpt><trkpt lat="44.96003521758912" lon="11.785540418994884"><ele>7.0</ele><time>2026-03-22T13:28:17.956Z</time></trkpt><trkpt lat="44.96017351161524" lon="11.785865932918538"><ele>5.0</ele><time>2026-03-22T13:28:18.956Z</time></trkpt><trkpt lat="44.96032284308357" lon="11.786193812957665"><ele>3.0</ele><time>2026-03-22T13:28:19.956Z</time></trkpt><trkpt lat="44.96047854920686" lon="11.786519967932815"><ele>2.0</ele><time>2026-03-22T13:28:20.956Z</time></trkpt><trkpt lat="44.96063870675202" lon="11.786845112143853"><ele>1.0</ele><time>2026-03-22T13:28:21.956Z</time></trkpt><trkpt lat="44.96080519736553" lon="11.787172593931036"><ele>3.0</ele><time>2026-03-22T13:28:22.956Z</time></trkpt><trkpt lat="44.96096618069702" lon="11.78750337768439"><ele>5.0</ele><time>2026-03-22T13:28:23.956Z</time></trkpt><trkpt lat="44.961118449289565" lon="11.78782792027552"><ele>5.0</ele><time>2026-03-22T13:28:24.956Z</time></trkpt><trkpt lat="44.96126478098432" lon="11.788133622603079"><ele>5.0</ele><time>2026-03-22T13:28:25.956Z</time></trkpt><trkpt lat="44.96140544113729" lon="11.788423799880675"><ele>6.0</ele><time>2026-03-22T13:28:26.956Z</time></trkpt><trkpt lat="44.96155227075851" lon="11.788705891335512"><ele>7.0</ele><time>2026-03-22T13:28:27.956Z</time></trkpt><trkpt lat="44.96170748811276" lon="11.788976237144352"><ele>7.0</ele><time>2026-03-22T13:28:28.956Z</time></trkpt><trkpt lat="44.96187981919292" lon="11.789239328033876"><ele>7.0</ele><time>2026-03-22T13:28:29.956Z</time></trkpt><trkpt lat="44.96206217897377" lon="11.789498333012824"><ele>4.0</ele><time>2026-03-22T13:28:30.958Z</time></trkpt><trkpt lat="44.96226498524288" lon="11.789757421838436"><ele>1.0</ele><time>2026-03-22T13:28:31.957Z</time></trkpt><trkpt lat="44.96248481815325" lon="11.790015095012832"><ele>1.5</ele><time>2026-03-22T13:28:32.957Z</time></trkpt><trkpt lat="44.962706065630854" lon="11.79027006736011"><ele>2.0</ele><time>2026-03-22T13:28:33.958Z</time></trkpt><trkpt lat="44.962935647669916" lon="11.790527307034761"><ele>2.0</ele><time>2026-03-22T13:28:34.957Z</time></trkpt><trkpt lat="44.9631623468438" lon="11.79078831032899"><ele>2.0</ele><time>2026-03-22T13:28:35.957Z</time></trkpt><trkpt lat="44.96338017723197" lon="11.791048757320139"><ele>2.5</ele><time>2026-03-22T13:28:36.957Z</time></trkpt><trkpt lat="44.963596800040506" lon="11.791301414693018"><ele>3.0</ele><time>2026-03-22T13:28:37.957Z</time></trkpt><trkpt lat="44.96381067927573" lon="11.791552415276763"><ele>3.0</ele><time>2026-03-22T13:28:38.957Z</time></trkpt><trkpt lat="44.96402398226814" lon="11.791802175644667"><ele>3.0</ele><time>2026-03-22T13:28:39.957Z</time></trkpt><trkpt lat="44.96423293178124" lon="11.792044348534297"><ele>3.0</ele><time>2026-03-22T13:28:40.957Z</time></trkpt><trkpt lat="44.964436641067515" lon="11.7922820648829"><ele>3.0</ele><time>2026-03-22T13:28:41.957Z</time></trkpt><trkpt lat="44.96464075122569" lon="11.79251277985101"><ele>3.0</ele><time>2026-03-22T13:28:42.957Z</time></trkpt><trkpt lat="44.96484014935761" lon="11.792749773647884"><ele>3.0</ele><time>2026-03-22T13:28:43.957Z</time></trkpt><trkpt lat="44.965039312950765" lon="11.792985802968149"><ele>3.0</ele><time>2026-03-22T13:28:44.957Z</time></trkpt><trkpt lat="44.96524300311394" lon="11.793225431028278"><ele>3.0</ele><time>2026-03-22T13:28:45.957Z</time></trkpt><trkpt lat="44.965440453718145" lon="11.793459471646909"><ele>2.5</ele><time>2026-03-22T13:28:46.957Z</time></trkpt><trkpt lat="44.965613978410055" lon="11.79368258037981"><ele>2.0</ele><time>2026-03-22T13:28:47.957Z</time></trkpt><trkpt lat="44.965781218530445" lon="11.793893586111082"><ele>2.0</ele><time>2026-03-22T13:28:48.957Z</time></trkpt><trkpt lat="44.965929977610664" lon="11.7940727850042"><ele>2.0</ele><time>2026-03-22T13:28:49.957Z</time></trkpt><trkpt lat="44.9660776522854" lon="11.794248277678586"><ele>2.0</ele><time>2026-03-22T13:28:50.956Z</time></trkpt><trkpt lat="44.96622871320099" lon="11.794425831223231"><ele>1.6666666666666665</ele><time>2026-03-22T13:28:51.956Z</time></trkpt><trkpt lat="44.96638800825676" lon="11.794608358897296"><ele>1.3333333333333333</ele><time>2026-03-22T13:28:52.956Z</time></trkpt><trkpt lat="44.96655759458578" lon="11.794795078049827"><ele>1.0</ele><time>2026-03-22T13:28:53.956Z</time></trkpt><trkpt lat="44.96672079551954" lon="11.794973070056878"><ele>1.3333333333333333</ele><time>2026-03-22T13:28:54.956Z</time></trkpt><trkpt lat="44.966869710432725" lon="11.795145838092175"><ele>1.6666666666666665</ele><time>2026-03-22T13:28:55.956Z</time></trkpt><trkpt lat="44.96700851551449" lon="11.795308396879246"><ele>2.0</ele><time>2026-03-22T13:28:56.956Z</time></trkpt><trkpt lat="44.96724923193798" lon="11.79567221973697"><ele>2.0</ele><time>2026-03-22T13:28:58.956Z</time></trkpt><trkpt lat="44.96735895317903" lon="11.795855841600783"><ele>2.0</ele><time>2026-03-22T13:28:59.956Z</time></trkpt><trkpt lat="44.967462502420375" lon="11.796059742550876"><ele>2.0</ele><time>2026-03-22T13:29:00.956Z</time></trkpt><trkpt lat="44.96755475880766" lon="11.796253278764809"><ele>2.333333333333333</ele><time>2026-03-22T13:29:01.956Z</time></trkpt><trkpt lat="44.967638044795926" lon="11.796453071180014"><ele>2.6666666666666665</ele><time>2026-03-22T13:29:02.956Z</time></trkpt><trkpt lat="44.96771777610564" lon="11.796647701013264"><ele>3.0</ele><time>2026-03-22T13:29:03.956Z</time></trkpt><trkpt lat="44.96779740750836" lon="11.79684943118896"><ele>3.333333333333333</ele><time>2026-03-22T13:29:04.956Z</time></trkpt><trkpt lat="44.96786826424168" lon="11.797046754673811"><ele>3.6666666666666665</ele><time>2026-03-22T13:29:05.956Z</time></trkpt><trkpt lat="44.96796199626525" lon="11.797244167114124"><ele>4.0</ele><time>2026-03-22T13:29:06.956Z</time></trkpt><trkpt lat="44.968037632879266" lon="11.797450881226927"><ele>4.0</ele><time>2026-03-22T13:29:07.956Z</time></trkpt><trkpt lat="44.96813375666487" lon="11.797666644478237"><ele>4.0</ele><time>2026-03-22T13:29:08.956Z</time></trkpt><trkpt lat="44.96822052604073" lon="11.79788142651438"><ele>4.0</ele><time>2026-03-22T13:29:09.956Z</time></trkpt><trkpt lat="44.96829767726041" lon="11.798112503409207"><ele>3.6666666666666665</ele><time>2026-03-22T13:29:10.956Z</time></trkpt><trkpt lat="44.968388635697984" lon="11.798342254689198"><ele>3.333333333333333</ele><time>2026-03-22T13:29:11.956Z</time></trkpt><trkpt lat="44.968478346090045" lon="11.798568853553938"><ele>3.0</ele><time>2026-03-22T13:29:12.956Z</time></trkpt><trkpt lat="44.96856162999426" lon="11.798779219788981"><ele>2.6666666666666665</ele><time>2026-03-22T13:29:13.956Z</time></trkpt><trkpt lat="44.968638618506375" lon="11.798974830157311"><ele>2.333333333333333</ele><time>2026-03-22T13:29:14.956Z</time></trkpt><trkpt lat="44.968716671020225" lon="11.79917312675995"><ele>2.0</ele><time>2026-03-22T13:29:15.956Z</time></trkpt><trkpt lat="44.968792975644206" lon="11.799366754947345"><ele>2.0</ele><time>2026-03-22T13:29:16.956Z</time></trkpt><trkpt lat="44.96886764025295" lon="11.799555280980018"><ele>2.0</ele><time>2026-03-22T13:29:17.956Z</time></trkpt><trkpt lat="44.968939655449816" lon="11.799731896762355"><ele>2.0</ele><time>2026-03-22T13:29:18.956Z</time></trkpt><trkpt lat="44.96901328671239" lon="11.799905788573705"><ele>2.0</ele><time>2026-03-22T13:29:19.956Z</time></trkpt><trkpt lat="44.969094897301744" lon="11.80008018772601"><ele>2.0</ele><time>2026-03-22T13:29:20.956Z</time></trkpt><trkpt lat="44.969184148565276" lon="11.80024843317717"><ele>2.0</ele><time>2026-03-22T13:29:21.956Z</time></trkpt><trkpt lat="44.96927340901213" lon="11.800407613728506"><ele>2.0</ele><time>2026-03-22T13:29:22.956Z</time></trkpt><trkpt lat="44.96936559449581" lon="11.800534037508708"><ele>2.0</ele><time>2026-03-22T13:29:23.956Z</time></trkpt><trkpt lat="44.969448514798515" lon="11.800692266014423"><ele>2.0</ele><time>2026-03-22T13:29:24.956Z</time></trkpt><trkpt lat="44.9695359613702" lon="11.800854654673845"><ele>2.0</ele><time>2026-03-22T13:29:25.956Z</time></trkpt><trkpt lat="44.96962808040292" lon="11.801023351523765"><ele>2.0</ele><time>2026-03-22T13:29:26.956Z</time></trkpt><trkpt lat="44.969733580391576" lon="11.801199747173115"><ele>2.0</ele><time>2026-03-22T13:29:27.956Z</time></trkpt><trkpt lat="44.96984326793937" lon="11.801379638351849"><ele>2.0</ele><time>2026-03-22T13:29:28.956Z</time></trkpt><trkpt lat="44.96995835565482" lon="11.801564893992204"><ele>2.0</ele><time>2026-03-22T13:29:29.955Z</time></trkpt><trkpt lat="44.97007343033155" lon="11.801751944809746"><ele>2.0</ele><time>2026-03-22T13:29:30.955Z</time></trkpt><trkpt lat="44.970193960974115" lon="11.801941706175135"><ele>2.0</ele><time>2026-03-22T13:29:31.955Z</time></trkpt><trkpt lat="44.97031200237963" lon="11.802130938944195"><ele>2.0</ele><time>2026-03-22T13:29:32.955Z</time></trkpt><trkpt lat="44.97043675429104" lon="11.802322554674369"><ele>2.0</ele><time>2026-03-22T13:29:33.955Z</time></trkpt><trkpt lat="44.970556545419306" lon="11.802518427667005"><ele>2.0</ele><time>2026-03-22T13:29:34.955Z</time></trkpt><trkpt lat="44.97067957904468" lon="11.802715953577236"><ele>2.0</ele><time>2026-03-22T13:29:35.955Z</time></trkpt><trkpt lat="44.97079873393215" lon="11.80291293750566"><ele>1.6666666666666665</ele><time>2026-03-22T13:29:36.955Z</time></trkpt><trkpt lat="44.97091541083278" lon="11.803114337477263"><ele>1.3333333333333333</ele><time>2026-03-22T13:29:37.955Z</time></trkpt><trkpt lat="44.97103079847226" lon="11.803296671510626"><ele>1.0</ele><time>2026-03-22T13:29:38.955Z</time></trkpt><trkpt lat="44.97115045447987" lon="11.803475325364214"><ele>1.0</ele><time>2026-03-22T13:29:39.955Z</time></trkpt><trkpt lat="44.971273983326924" lon="11.803641000900623"><ele>1.0</ele><time>2026-03-22T13:29:40.955Z</time></trkpt><trkpt lat="44.97139970756125" lon="11.803808776252891"><ele>1.0</ele><time>2026-03-22T13:29:41.955Z</time></trkpt><trkpt lat="44.97153371608157" lon="11.803965506363971"><ele>1.0</ele><time>2026-03-22T13:29:42.955Z</time></trkpt><trkpt lat="44.97167011063733" lon="11.804117651442791"><ele>1.0</ele><time>2026-03-22T13:29:43.955Z</time></trkpt><trkpt lat="44.97180360575113" lon="11.804263224797108"><ele>1.0</ele><time>2026-03-22T13:29:44.955Z</time></trkpt><trkpt lat="44.971938755154355" lon="11.804399626128603"><ele>1.75</ele><time>2026-03-22T13:29:45.955Z</time></trkpt><trkpt lat="44.972078925766134" lon="11.80452397623329"><ele>2.5</ele><time>2026-03-22T13:29:46.955Z</time></trkpt><trkpt lat="44.972203893455934" lon="11.804630193116779"><ele>3.25</ele><time>2026-03-22T13:29:47.955Z</time></trkpt><trkpt lat="44.97232149700918" lon="11.80472978402673"><ele>4.0</ele><time>2026-03-22T13:29:48.955Z</time></trkpt><trkpt lat="44.97243355320643" lon="11.804834553620676"><ele>4.0</ele><time>2026-03-22T13:29:49.955Z</time></trkpt><trkpt lat="44.9725426010995" lon="11.80494217121652"><ele>4.0</ele><time>2026-03-22T13:29:50.955Z</time></trkpt><trkpt lat="44.97264330737541" lon="11.805072494590268"><ele>4.0</ele><time>2026-03-22T13:29:51.955Z</time></trkpt><trkpt lat="44.97271544049746" lon="11.805241392251078"><ele>4.0</ele><time>2026-03-22T13:29:52.955Z</time></trkpt><trkpt lat="44.97276926439506" lon="11.805414904635757"><ele>4.0</ele><time>2026-03-22T13:29:53.955Z</time></trkpt><trkpt lat="44.97281304518394" lon="11.805604613089796"><ele>4.0</ele><time>2026-03-22T13:29:54.955Z</time></trkpt><trkpt lat="44.972843630533944" lon="11.805808665733185"><ele>4.0</ele><time>2026-03-22T13:29:55.955Z</time></trkpt><trkpt lat="44.97286132213197" lon="11.806028394403548"><ele>4.0</ele><time>2026-03-22T13:29:56.955Z</time></trkpt><trkpt lat="44.97287720877863" lon="11.80626729183689"><ele>4.0</ele><time>2026-03-22T13:29:57.955Z</time></trkpt><trkpt lat="44.97289091213265" lon="11.806510964377209"><ele>4.0</ele><time>2026-03-22T13:29:58.955Z</time></trkpt><trkpt lat="44.972905468521645" lon="11.80676980538311"><ele>4.0</ele><time>2026-03-22T13:29:59.955Z</time></trkpt><trkpt lat="44.97291837328505" lon="11.807032878991912"><ele>4.0</ele><time>2026-03-22T13:30:00.955Z</time></trkpt><trkpt lat="44.972924946609645" lon="11.807293719015576"><ele>4.0</ele><time>2026-03-22T13:30:01.955Z</time></trkpt><trkpt lat="44.972951292313" lon="11.807560411260813"><ele>4.0</ele><time>2026-03-22T13:30:02.955Z</time></trkpt><trkpt lat="44.972937732030466" lon="11.807815027229518"><ele>3.6666666666666665</ele><time>2026-03-22T13:30:03.955Z</time></trkpt><trkpt lat="44.97293205576024" lon="11.808062221100608"><ele>3.333333333333333</ele><time>2026-03-22T13:30:04.955Z</time></trkpt><trkpt lat="44.97292832866458" lon="11.808282836262451"><ele>3.0</ele><time>2026-03-22T13:30:05.955Z</time></trkpt><trkpt lat="44.97289894862185" lon="11.808493923988138"><ele>2.75</ele><time>2026-03-22T13:30:06.955Z</time></trkpt><trkpt lat="44.97287740893966" lon="11.808701819101206"><ele>2.5</ele><time>2026-03-22T13:30:07.955Z</time></trkpt><trkpt lat="44.97281768678712" lon="11.808887804779616"><ele>2.25</ele><time>2026-03-22T13:30:08.954Z</time></trkpt><trkpt lat="44.97273503359606" lon="11.809062892640105"><ele>2.0</ele><time>2026-03-22T13:30:09.954Z</time></trkpt><trkpt lat="44.97262218499565" lon="11.809200576504631"><ele>2.0</ele><time>2026-03-22T13:30:10.954Z</time></trkpt><trkpt lat="44.97247841839603" lon="11.80931233162899"><ele>2.0</ele><time>2026-03-22T13:30:11.954Z</time></trkpt><trkpt lat="44.97230653911126" lon="11.809409027551528"><ele>2.0</ele><time>2026-03-22T13:30:12.954Z</time></trkpt><trkpt lat="44.97212214628762" lon="11.809491505313023"><ele>1.6666666666666665</ele><time>2026-03-22T13:30:13.954Z</time></trkpt><trkpt lat="44.97192413876759" lon="11.80957020059747"><ele>1.3333333333333333</ele><time>2026-03-22T13:30:14.954Z</time></trkpt><trkpt lat="44.97172506283827" lon="11.809639757935207"><ele>1.0</ele><time>2026-03-22T13:30:15.954Z</time></trkpt><trkpt lat="44.97151881131531" lon="11.809705107676534"><ele>2.0</ele><time>2026-03-22T13:30:16.954Z</time></trkpt><trkpt lat="44.97130209461272" lon="11.809766000728523"><ele>3.0</ele><time>2026-03-22T13:30:17.954Z</time></trkpt><trkpt lat="44.97107949271954" lon="11.809834913906124"><ele>4.0</ele><time>2026-03-22T13:30:18.954Z</time></trkpt><trkpt lat="44.970857991449954" lon="11.809920947702034"><ele>3.5</ele><time>2026-03-22T13:30:19.954Z</time></trkpt><trkpt lat="44.97064273702332" lon="11.810017086399169"><ele>3.0</ele><time>2026-03-22T13:30:20.954Z</time></trkpt><trkpt lat="44.97042456260626" lon="11.810138582638332"><ele>2.5</ele><time>2026-03-22T13:30:21.954Z</time></trkpt><trkpt lat="44.9702154508697" lon="11.810280561146593"><ele>2.0</ele><time>2026-03-22T13:30:22.954Z</time></trkpt><trkpt lat="44.970012863258574" lon="11.81045799716312"><ele>1.5</ele><time>2026-03-22T13:30:23.954Z</time></trkpt><trkpt lat="44.969829679827804" lon="11.810664667459028"><ele>1.0</ele><time>2026-03-22T13:30:24.954Z</time></trkpt><trkpt lat="44.96967023861431" lon="11.810893126289637"><ele>2.0</ele><time>2026-03-22T13:30:25.954Z</time></trkpt><trkpt lat="44.969528362461816" lon="11.811144104041956"><ele>3.0</ele><time>2026-03-22T13:30:26.954Z</time></trkpt><trkpt lat="44.96938331801192" lon="11.811417742902584"><ele>3.0</ele><time>2026-03-22T13:30:27.954Z</time></trkpt><trkpt lat="44.96923426017682" lon="11.811703192531903"><ele>3.0</ele><time>2026-03-22T13:30:28.954Z</time></trkpt><trkpt lat="44.969088306711726" lon="11.811983760712838"><ele>2.0</ele><time>2026-03-22T13:30:29.954Z</time></trkpt><trkpt lat="44.96893336461831" lon="11.812284272384824"><ele>1.0</ele><time>2026-03-22T13:30:30.954Z</time></trkpt><trkpt lat="44.968777401965376" lon="11.812589920654972"><ele>1.5</ele><time>2026-03-22T13:30:31.954Z</time></trkpt><trkpt lat="44.96861846235275" lon="11.812893370639323"><ele>2.0</ele><time>2026-03-22T13:30:32.954Z</time></trkpt><trkpt lat="44.96846431900966" lon="11.813191599313424"><ele>2.0</ele><time>2026-03-22T13:30:33.954Z</time></trkpt><trkpt lat="44.96830935940371" lon="11.813493618610218"><ele>2.0</ele><time>2026-03-22T13:30:34.954Z</time></trkpt><trkpt lat="44.96814879973407" lon="11.81380519244102"><ele>2.0</ele><time>2026-03-22T13:30:35.954Z</time></trkpt><trkpt lat="44.967988487236376" lon="11.81411310722535"><ele>2.0</ele><time>2026-03-22T13:30:36.955Z</time></trkpt><trkpt lat="44.96783154416503" lon="11.814413726607974"><ele>1.5</ele><time>2026-03-22T13:30:37.956Z</time></trkpt><trkpt lat="44.96767722891855" lon="11.814713459054468"><ele>1.0</ele><time>2026-03-22T13:30:38.956Z</time></trkpt><trkpt lat="44.967528351784324" lon="11.815002832913132"><ele>0.5</ele><time>2026-03-22T13:30:39.956Z</time></trkpt><trkpt lat="44.96738313383804" lon="11.815285094348644"><ele>0.0</ele><time>2026-03-22T13:30:40.955Z</time></trkpt><trkpt lat="44.9672453984251" lon="11.815552811929557"><ele>0.0</ele><time>2026-03-22T13:30:41.955Z</time></trkpt><trkpt lat="44.96711244999503" lon="11.81580990222657"><ele>0.0</ele><time>2026-03-22T13:30:42.955Z</time></trkpt><trkpt lat="44.96698430314148" lon="11.816054382467227"><ele>0.0</ele><time>2026-03-22T13:30:43.956Z</time></trkpt><trkpt lat="44.966855248341766" lon="11.816281734119979"><ele>0.0</ele><time>2026-03-22T13:30:44.956Z</time></trkpt><trkpt lat="44.96671171471475" lon="11.816494305092135"><ele>0.0</ele><time>2026-03-22T13:30:45.955Z</time></trkpt><trkpt lat="44.96654880232199" lon="11.81671302262133"><ele>0.0</ele><time>2026-03-22T13:30:46.956Z</time></trkpt><trkpt lat="44.96636648376857" lon="11.816919641879734"><ele>0.0</ele><time>2026-03-22T13:30:47.956Z</time></trkpt><trkpt lat="44.966172289687705" lon="11.817133831789103"><ele>0.0</ele><time>2026-03-22T13:30:48.955Z</time></trkpt><trkpt lat="44.96598414593499" lon="11.817371943564375"><ele>0.5</ele><time>2026-03-22T13:30:49.956Z</time></trkpt><trkpt lat="44.96568882745776" lon="11.817462046103024"><ele>1.0</ele><time>2026-03-22T13:30:50.955Z</time></trkpt><trkpt lat="44.965441912310304" lon="11.817631636386226"><ele>0.5</ele><time>2026-03-22T13:30:51.955Z</time></trkpt><trkpt lat="44.96519450836627" lon="11.817807958508684"><ele>0.0</ele><time>2026-03-22T13:30:52.955Z</time></trkpt><trkpt lat="44.96494051117468" lon="11.817990825525435"><ele>0.0</ele><time>2026-03-22T13:30:53.955Z</time></trkpt><trkpt lat="44.96468194923505" lon="11.81817612250791"><ele>0.0</ele><time>2026-03-22T13:30:54.955Z</time></trkpt><trkpt lat="44.96442211562812" lon="11.818362235808857"><ele>0.0</ele><time>2026-03-22T13:30:55.955Z</time></trkpt><trkpt lat="44.96416597900509" lon="11.818545941928377"><ele>0.0</ele><time>2026-03-22T13:30:56.955Z</time></trkpt><trkpt lat="44.96390977356963" lon="11.818728123542618"><ele>0.0</ele><time>2026-03-22T13:30:57.955Z</time></trkpt><trkpt lat="44.96365669754925" lon="11.818911080290485"><ele>0.0</ele><time>2026-03-22T13:30:58.955Z</time></trkpt><trkpt lat="44.96340400678491" lon="11.81908766619629"><ele>0.0</ele><time>2026-03-22T13:30:59.955Z</time></trkpt><trkpt lat="44.96315200498628" lon="11.819269783088439"><ele>0.0</ele><time>2026-03-22T13:31:00.955Z</time></trkpt><trkpt lat="44.962898554744186" lon="11.819451411914393"><ele>0.0</ele><time>2026-03-22T13:31:01.955Z</time></trkpt><trkpt lat="44.962643362611786" lon="11.819629416649464"><ele>0.0</ele><time>2026-03-22T13:31:02.955Z</time></trkpt><trkpt lat="44.962390684719566" lon="11.81980671427244"><ele>0.0</ele><time>2026-03-22T13:31:03.955Z</time></trkpt><trkpt lat="44.96213973917574" lon="11.819981084177657"><ele>0.0</ele><time>2026-03-22T13:31:04.955Z</time></trkpt><trkpt lat="44.96189396051159" lon="11.820154293548486"><ele>0.0</ele><time>2026-03-22T13:31:05.955Z</time></trkpt><trkpt lat="44.96164679575524" lon="11.82032901039032"><ele>0.0</ele><time>2026-03-22T13:31:06.955Z</time></trkpt><trkpt lat="44.96140088456799" lon="11.820507950724998"><ele>0.0</ele><time>2026-03-22T13:31:07.955Z</time></trkpt><trkpt lat="44.961156727577126" lon="11.820680216432962"><ele>0.0</ele><time>2026-03-22T13:31:08.955Z</time></trkpt><trkpt lat="44.96092185988729" lon="11.820843108496362"><ele>0.0</ele><time>2026-03-22T13:31:09.955Z</time></trkpt><trkpt lat="44.9607044645765" lon="11.820998889583642"><ele>0.0</ele><time>2026-03-22T13:31:10.955Z</time></trkpt><trkpt lat="44.96050308091029" lon="11.82113861531284"><ele>0.0</ele><time>2026-03-22T13:31:11.955Z</time></trkpt><trkpt lat="44.960316985015844" lon="11.821270416614247"><ele>0.0</ele><time>2026-03-22T13:31:12.955Z</time></trkpt><trkpt lat="44.9601445047693" lon="11.821388230317723"><ele>0.0</ele><time>2026-03-22T13:31:13.955Z</time></trkpt><trkpt lat="44.959992253040554" lon="11.821492797587105"><ele>0.25</ele><time>2026-03-22T13:31:14.955Z</time></trkpt><trkpt lat="44.95985307374672" lon="11.821590745684132"><ele>0.5</ele><time>2026-03-22T13:31:15.955Z</time></trkpt><trkpt lat="44.95972583754506" lon="11.821686014270508"><ele>0.75</ele><time>2026-03-22T13:31:16.955Z</time></trkpt><trkpt lat="44.95960145727892" lon="11.821764150519234"><ele>1.0</ele><time>2026-03-22T13:31:17.955Z</time></trkpt><trkpt lat="44.959492054804116" lon="11.821835435558311"><ele>1.0</ele><time>2026-03-22T13:31:18.955Z</time></trkpt><trkpt lat="44.959391370654345" lon="11.821908490477837"><ele>1.0</ele><time>2026-03-22T13:31:19.955Z</time></trkpt><trkpt lat="44.95930191635033" lon="11.82198216669277"><ele>1.0</ele><time>2026-03-22T13:31:20.955Z</time></trkpt><trkpt lat="44.959223597719046" lon="11.82207911138811"><ele>1.0</ele><time>2026-03-22T13:31:21.955Z</time></trkpt><trkpt lat="44.959170973196336" lon="11.822207484423624"><ele>1.0</ele><time>2026-03-22T13:31:22.955Z</time></trkpt><trkpt lat="44.959147578537596" lon="11.822355415286369"><ele>0.75</ele><time>2026-03-22T13:31:23.955Z</time></trkpt><trkpt lat="44.95916898340574" lon="11.822520534143317"><ele>0.5</ele><time>2026-03-22T13:31:24.955Z</time></trkpt><trkpt lat="44.95922349459653" lon="11.822677209844953"><ele>0.25</ele><time>2026-03-22T13:31:25.955Z</time></trkpt><trkpt lat="44.95931936278211" lon="11.822834600488234"><ele>0.0</ele><time>2026-03-22T13:31:26.955Z</time></trkpt><trkpt lat="44.95943377474241" lon="11.823023279149243"><ele>0.0</ele><time>2026-03-22T13:31:27.955Z</time></trkpt><trkpt lat="44.95955867206344" lon="11.82322963271264"><ele>0.0</ele><time>2026-03-22T13:31:28.955Z</time></trkpt><trkpt lat="44.95969240675444" lon="11.823440255384075"><ele>0.0</ele><time>2026-03-22T13:31:29.954Z</time></trkpt><trkpt lat="44.959827108000184" lon="11.823663146412084"><ele>0.0</ele><time>2026-03-22T13:31:30.954Z</time></trkpt><trkpt lat="44.95996934011174" lon="11.82389371359687"><ele>0.0</ele><time>2026-03-22T13:31:31.954Z</time></trkpt><trkpt lat="44.96010777531806" lon="11.824135631438882"><ele>0.0</ele><time>2026-03-22T13:31:32.954Z</time></trkpt><trkpt lat="44.96024857270339" lon="11.82437800244586"><ele>0.0</ele><time>2026-03-22T13:31:33.954Z</time></trkpt><trkpt lat="44.96039278585289" lon="11.82461581242421"><ele>0.0</ele><time>2026-03-22T13:31:34.954Z</time></trkpt><trkpt lat="44.9605370028477" lon="11.824865225180835"><ele>0.0</ele><time>2026-03-22T13:31:35.954Z</time></trkpt><trkpt lat="44.960674319643836" lon="11.825107738497572"><ele>0.0</ele><time>2026-03-22T13:31:36.954Z</time></trkpt><trkpt lat="44.96080940978028" lon="11.825337348554172"><ele>0.0</ele><time>2026-03-22T13:31:37.954Z</time></trkpt><trkpt lat="44.9609377122663" lon="11.825558822375875"><ele>0.0</ele><time>2026-03-22T13:31:38.954Z</time></trkpt><trkpt lat="44.96106516298348" lon="11.82577574675467"><ele>0.0</ele><time>2026-03-22T13:31:39.954Z</time></trkpt><trkpt lat="44.9611871327749" lon="11.825988318256345"><ele>0.0</ele><time>2026-03-22T13:31:40.954Z</time></trkpt><trkpt lat="44.96131366179838" lon="11.826204102655854"><ele>0.3333333333333333</ele><time>2026-03-22T13:31:41.954Z</time></trkpt><trkpt lat="44.9614428712987" lon="11.826416132847115"><ele>0.6666666666666666</ele><time>2026-03-22T13:31:42.954Z</time></trkpt><trkpt lat="44.96157356934916" lon="11.826629170091776"><ele>1.0</ele><time>2026-03-22T13:31:43.954Z</time></trkpt><trkpt lat="44.961691160222045" lon="11.826839907092253"><ele>3.0</ele><time>2026-03-22T13:31:44.954Z</time></trkpt><trkpt lat="44.96180736337704" lon="11.827039217516656"><ele>5.0</ele><time>2026-03-22T13:31:45.954Z</time></trkpt><trkpt lat="44.961917596418374" lon="11.827226269681663"><ele>7.0</ele><time>2026-03-22T13:31:46.954Z</time></trkpt><trkpt lat="44.96202046622202" lon="11.827398287515013"><ele>7.0</ele><time>2026-03-22T13:31:47.954Z</time></trkpt><trkpt lat="44.96211029403995" lon="11.827556472864154"><ele>7.0</ele><time>2026-03-22T13:31:48.954Z</time></trkpt><trkpt lat="44.962198317614614" lon="11.827700848709883"><ele>7.0</ele><time>2026-03-22T13:31:49.954Z</time></trkpt><trkpt lat="44.96229090670159" lon="11.827843544037062"><ele>7.0</ele><time>2026-03-22T13:31:50.954Z</time></trkpt><trkpt lat="44.96238505277701" lon="11.827990388959446"><ele>6.0</ele><time>2026-03-22T13:31:51.954Z</time></trkpt><trkpt lat="44.96247952209718" lon="11.828136173887126"><ele>5.0</ele><time>2026-03-22T13:31:52.954Z</time></trkpt><trkpt lat="44.96256998800613" lon="11.828277722786797"><ele>4.0</ele><time>2026-03-22T13:31:53.954Z</time></trkpt><trkpt lat="44.96265403229871" lon="11.828411248729388"><ele>3.0</ele><time>2026-03-22T13:31:54.954Z</time></trkpt><trkpt lat="44.96273366709054" lon="11.82853584619108"><ele>2.75</ele><time>2026-03-22T13:31:55.954Z</time></trkpt><trkpt lat="44.962811211088685" lon="11.828664393885491"><ele>2.5</ele><time>2026-03-22T13:31:56.954Z</time></trkpt><trkpt lat="44.962893204832014" lon="11.828788372982201"><ele>2.25</ele><time>2026-03-22T13:31:57.954Z</time></trkpt><trkpt lat="44.962979279475846" lon="11.828919169075741"><ele>2.0</ele><time>2026-03-22T13:31:58.954Z</time></trkpt><trkpt lat="44.96306105124975" lon="11.82905601059946"><ele>2.0</ele><time>2026-03-22T13:31:59.954Z</time></trkpt><trkpt lat="44.96315132099859" lon="11.829204039894083"><ele>2.0</ele><time>2026-03-22T13:32:00.954Z</time></trkpt><trkpt lat="44.96324545563148" lon="11.829363795158374"><ele>2.0</ele><time>2026-03-22T13:32:01.954Z</time></trkpt><trkpt lat="44.96333362219482" lon="11.829522366535523"><ele>2.0</ele><time>2026-03-22T13:32:02.954Z</time></trkpt><trkpt lat="44.963426053036436" lon="11.829680398744868"><ele>1.5</ele><time>2026-03-22T13:32:03.954Z</time></trkpt><trkpt lat="44.96349861139286" lon="11.829852163884926"><ele>1.0</ele><time>2026-03-22T13:32:04.954Z</time></trkpt><trkpt lat="44.96355524608396" lon="11.830035078362135"><ele>0.5</ele><time>2026-03-22T13:32:05.954Z</time></trkpt><trkpt lat="44.96358721207899" lon="11.830221777609223"><ele>0.0</ele><time>2026-03-22T13:32:06.954Z</time></trkpt><trkpt lat="44.963607017716996" lon="11.83040476290129"><ele>0.0</ele><time>2026-03-22T13:32:07.954Z</time></trkpt><trkpt lat="44.963637842700244" lon="11.83057934651458"><ele>0.0</ele><time>2026-03-22T13:32:08.953Z</time></trkpt><trkpt lat="44.963663683394394" lon="11.830745336351487"><ele>0.0</ele><time>2026-03-22T13:32:09.953Z</time></trkpt><trkpt lat="44.963688960883076" lon="11.830918800910284"><ele>0.0</ele><time>2026-03-22T13:32:10.953Z</time></trkpt><trkpt lat="44.96371232296054" lon="11.831081292759714"><ele>0.25</ele><time>2026-03-22T13:32:11.953Z</time></trkpt><trkpt lat="44.96370880965031" lon="11.831259730155086"><ele>0.5</ele><time>2026-03-22T13:32:12.953Z</time></trkpt><trkpt lat="44.96373408463658" lon="11.831434788832945"><ele>0.75</ele><time>2026-03-22T13:32:13.953Z</time></trkpt><trkpt lat="44.96376117417942" lon="11.831612185755985"><ele>1.0</ele><time>2026-03-22T13:32:14.953Z</time></trkpt><trkpt lat="44.96379122179925" lon="11.831792227971302"><ele>1.25</ele><time>2026-03-22T13:32:15.953Z</time></trkpt><trkpt lat="44.96382065632614" lon="11.83196993213815"><ele>1.5</ele><time>2026-03-22T13:32:16.953Z</time></trkpt><trkpt lat="44.963849011203145" lon="11.832147724747516"><ele>1.75</ele><time>2026-03-22T13:32:17.953Z</time></trkpt><trkpt lat="44.963877733633716" lon="11.832332565049557"><ele>2.0</ele><time>2026-03-22T13:32:18.953Z</time></trkpt><trkpt lat="44.963908163283776" lon="11.832521624952635"><ele>1.75</ele><time>2026-03-22T13:32:19.953Z</time></trkpt><trkpt lat="44.963905280185095" lon="11.832724196802781"><ele>1.5</ele><time>2026-03-22T13:32:20.953Z</time></trkpt><trkpt lat="44.9639243640215" lon="11.832923104239955"><ele>1.25</ele><time>2026-03-22T13:32:21.953Z</time></trkpt><trkpt lat="44.963940159580225" lon="11.8331273973289"><ele>1.0</ele><time>2026-03-22T13:32:22.953Z</time></trkpt><trkpt lat="44.963946682250544" lon="11.833332465249628"><ele>1.0</ele><time>2026-03-22T13:32:23.953Z</time></trkpt><trkpt lat="44.96394937975604" lon="11.833537656715613"><ele>1.0</ele><time>2026-03-22T13:32:24.953Z</time></trkpt><trkpt lat="44.9639512819367" lon="11.833736570499841"><ele>1.0</ele><time>2026-03-22T13:32:25.953Z</time></trkpt><trkpt lat="44.9639578931048" lon="11.83393292783132"><ele>1.0</ele><time>2026-03-22T13:32:26.953Z</time></trkpt><trkpt lat="44.963934104665356" lon="11.83412491636216"><ele>1.25</ele><time>2026-03-22T13:32:27.953Z</time></trkpt><trkpt lat="44.9639341670741" lon="11.834316428042522"><ele>1.5</ele><time>2026-03-22T13:32:28.953Z</time></trkpt><trkpt lat="44.9639371753738" lon="11.83450748014006"><ele>1.75</ele><time>2026-03-22T13:32:29.953Z</time></trkpt><trkpt lat="44.96393805247202" lon="11.83469682494644"><ele>2.0</ele><time>2026-03-22T13:32:30.953Z</time></trkpt><trkpt lat="44.96394547921679" lon="11.834887025914282"><ele>2.0</ele><time>2026-03-22T13:32:31.953Z</time></trkpt><trkpt lat="44.963936312895754" lon="11.83507487042863"><ele>2.0</ele><time>2026-03-22T13:32:32.953Z</time></trkpt><trkpt lat="44.9639255887179" lon="11.835263927546475"><ele>2.0</ele><time>2026-03-22T13:32:33.953Z</time></trkpt><trkpt lat="44.96392520696093" lon="11.835456591511967"><ele>2.0</ele><time>2026-03-22T13:32:34.953Z</time></trkpt><trkpt lat="44.963923300148565" lon="11.835644815467083"><ele>1.75</ele><time>2026-03-22T13:32:35.953Z</time></trkpt><trkpt lat="44.96391598087855" lon="11.835837039314459"><ele>1.5</ele><time>2026-03-22T13:32:36.953Z</time></trkpt><trkpt lat="44.96391158125595" lon="11.8360303889336"><ele>1.25</ele><time>2026-03-22T13:32:37.953Z</time></trkpt><trkpt lat="44.963911014029044" lon="11.836227866481941"><ele>1.0</ele><time>2026-03-22T13:32:38.953Z</time></trkpt><trkpt lat="44.96390583398635" lon="11.836422048636265"><ele>1.0</ele><time>2026-03-22T13:32:39.953Z</time></trkpt><trkpt lat="44.96384978581395" lon="11.83660440977928"><ele>1.0</ele><time>2026-03-22T13:32:40.953Z</time></trkpt><trkpt lat="44.96388280859179" lon="11.836796219781649"><ele>1.0</ele><time>2026-03-22T13:32:41.953Z</time></trkpt><trkpt lat="44.96387027515102" lon="11.836984291982946"><ele>1.0</ele><time>2026-03-22T13:32:42.954Z</time></trkpt><trkpt lat="44.96386113476503" lon="11.837173141055231"><ele>1.0</ele><time>2026-03-22T13:32:43.954Z</time></trkpt><trkpt lat="44.96385651541428" lon="11.83736435680399"><ele>1.0</ele><time>2026-03-22T13:32:44.954Z</time></trkpt><trkpt lat="44.96386240047627" lon="11.837552518055995"><ele>1.0</ele><time>2026-03-22T13:32:45.954Z</time></trkpt><trkpt lat="44.96386228922347" lon="11.837748597775706"><ele>1.0</ele><time>2026-03-22T13:32:46.954Z</time></trkpt><trkpt lat="44.96387125509874" lon="11.837936501650669"><ele>1.25</ele><time>2026-03-22T13:32:47.954Z</time></trkpt><trkpt lat="44.963771100403676" lon="11.838118990073102"><ele>1.5</ele><time>2026-03-22T13:32:48.954Z</time></trkpt><trkpt lat="44.96377017544037" lon="11.83830142807055"><ele>1.75</ele><time>2026-03-22T13:32:49.954Z</time></trkpt><trkpt lat="44.963768910552524" lon="11.838480479988645"><ele>2.0</ele><time>2026-03-22T13:32:50.954Z</time></trkpt><trkpt lat="44.96376965299398" lon="11.838668444215852"><ele>2.0</ele><time>2026-03-22T13:32:51.954Z</time></trkpt><trkpt lat="44.963768026110145" lon="11.838852611831785"><ele>2.0</ele><time>2026-03-22T13:32:52.954Z</time></trkpt><trkpt lat="44.96376523482619" lon="11.839037295524914"><ele>2.0</ele><time>2026-03-22T13:32:53.954Z</time></trkpt><trkpt lat="44.9637589060256" lon="11.83922525282737"><ele>2.0</ele><time>2026-03-22T13:32:54.954Z</time></trkpt><trkpt lat="44.96375106940456" lon="11.839409775182864"><ele>2.0</ele><time>2026-03-22T13:32:55.953Z</time></trkpt><trkpt lat="44.96374119312154" lon="11.839595474334974"><ele>2.0</ele><time>2026-03-22T13:32:56.953Z</time></trkpt><trkpt lat="44.96374582283143" lon="11.83978379456956"><ele>2.0</ele><time>2026-03-22T13:32:57.953Z</time></trkpt><trkpt lat="44.96371842575436" lon="11.8399613107296"><ele>2.0</ele><time>2026-03-22T13:32:58.953Z</time></trkpt><trkpt lat="44.96370039019521" lon="11.840141378427889"><ele>1.75</ele><time>2026-03-22T13:32:59.953Z</time></trkpt><trkpt lat="44.96368566004844" lon="11.840317995093072"><ele>1.5</ele><time>2026-03-22T13:33:00.953Z</time></trkpt><trkpt lat="44.96366915690671" lon="11.840489414635787"><ele>1.25</ele><time>2026-03-22T13:33:01.953Z</time></trkpt><trkpt lat="44.9636578064376" lon="11.840656702558475"><ele>1.0</ele><time>2026-03-22T13:33:02.953Z</time></trkpt><trkpt lat="44.963646518299086" lon="11.840823680702261"><ele>1.0</ele><time>2026-03-22T13:33:03.953Z</time></trkpt><trkpt lat="44.96362905492811" lon="11.84098511814881"><ele>1.0</ele><time>2026-03-22T13:33:04.953Z</time></trkpt><trkpt lat="44.9636130578832" lon="11.841148023382788"><ele>1.0</ele><time>2026-03-22T13:33:05.953Z</time></trkpt><trkpt lat="44.96360243464208" lon="11.841315454887775"><ele>1.0</ele><time>2026-03-22T13:33:06.953Z</time></trkpt><trkpt lat="44.96358931937147" lon="11.841480083856792"><ele>1.0</ele><time>2026-03-22T13:33:07.953Z</time></trkpt><trkpt lat="44.963586446637144" lon="11.841641571666454"><ele>1.0</ele><time>2026-03-22T13:33:08.953Z</time></trkpt><trkpt lat="44.963578125918374" lon="11.841803948890606"><ele>1.0</ele><time>2026-03-22T13:33:09.953Z</time></trkpt><trkpt lat="44.963587515302265" lon="11.841959292978363"><ele>1.0</ele><time>2026-03-22T13:33:10.953Z</time></trkpt><trkpt lat="44.96362521252559" lon="11.84210389072233"><ele>1.0</ele><time>2026-03-22T13:33:11.953Z</time></trkpt><trkpt lat="44.96369252648175" lon="11.842203148297873"><ele>1.0</ele><time>2026-03-22T13:33:12.953Z</time></trkpt><trkpt lat="44.96379841022728" lon="11.842305821017577"><ele>1.0</ele><time>2026-03-22T13:33:13.953Z</time></trkpt><trkpt lat="44.963936013347805" lon="11.842384004169759"><ele>1.0</ele><time>2026-03-22T13:33:14.953Z</time></trkpt><trkpt lat="44.964074402249345" lon="11.842443078960079"><ele>1.0</ele><time>2026-03-22T13:33:15.953Z</time></trkpt><trkpt lat="44.96420817400026" lon="11.842491216529304"><ele>1.0</ele><time>2026-03-22T13:33:16.953Z</time></trkpt><trkpt lat="44.96432638541228" lon="11.842547484239542"><ele>1.0</ele><time>2026-03-22T13:33:17.953Z</time></trkpt><trkpt lat="44.9644397578228" lon="11.842609530514025"><ele>1.0</ele><time>2026-03-22T13:33:18.953Z</time></trkpt><trkpt lat="44.96455349023877" lon="11.842684555793673"><ele>1.0</ele><time>2026-03-22T13:33:19.953Z</time></trkpt><trkpt lat="44.96466446464537" lon="11.842758447948954"><ele>1.0</ele><time>2026-03-22T13:33:20.953Z</time></trkpt><trkpt lat="44.96477042517937" lon="11.842834667235286"><ele>1.0</ele><time>2026-03-22T13:33:21.953Z</time></trkpt><trkpt lat="44.96486957847044" lon="11.842910146476816"><ele>1.0</ele><time>2026-03-22T13:33:22.953Z</time></trkpt><trkpt lat="44.96497070078197" lon="11.842992294519593"><ele>1.0</ele><time>2026-03-22T13:33:23.953Z</time></trkpt><trkpt lat="44.965076825565326" lon="11.843071654468373"><ele>1.0</ele><time>2026-03-22T13:33:24.953Z</time></trkpt><trkpt lat="44.965182279430955" lon="11.843157088347164"><ele>1.0</ele><time>2026-03-22T13:33:25.953Z</time></trkpt><trkpt lat="44.965287599635744" lon="11.843244070622426"><ele>1.0</ele><time>2026-03-22T13:33:26.953Z</time></trkpt><trkpt lat="44.96540305297821" lon="11.84332737224779"><ele>1.0</ele><time>2026-03-22T13:33:27.953Z</time></trkpt><trkpt lat="44.96554968965765" lon="11.843424146029443"><ele>1.0</ele><time>2026-03-22T13:33:28.953Z</time></trkpt><trkpt lat="44.965725960158935" lon="11.843555355393207"><ele>1.0</ele><time>2026-03-22T13:33:29.952Z</time></trkpt><trkpt lat="44.965923136942266" lon="11.843713316583603"><ele>1.0</ele><time>2026-03-22T13:33:30.952Z</time></trkpt><trkpt lat="44.96610554859543" lon="11.843867288115046"><ele>1.0</ele><time>2026-03-22T13:33:31.952Z</time></trkpt><trkpt lat="44.96628498612739" lon="11.844010981868127"><ele>1.0</ele><time>2026-03-22T13:33:32.952Z</time></trkpt><trkpt lat="44.96646416738468" lon="11.84416854105259"><ele>1.0</ele><time>2026-03-22T13:33:33.952Z</time></trkpt><trkpt lat="44.966637784465384" lon="11.844344457316453"><ele>1.0</ele><time>2026-03-22T13:33:34.952Z</time></trkpt><trkpt lat="44.96680663625298" lon="11.844540416328655"><ele>1.0</ele><time>2026-03-22T13:33:35.952Z</time></trkpt><trkpt lat="44.96696159119036" lon="11.844768889684277"><ele>1.0</ele><time>2026-03-22T13:33:36.952Z</time></trkpt><trkpt lat="44.96709722342622" lon="11.84501931650124"><ele>0.5</ele><time>2026-03-22T13:33:37.952Z</time></trkpt><trkpt lat="44.967219282122635" lon="11.845288824337901"><ele>0.0</ele><time>2026-03-22T13:33:38.952Z</time></trkpt><trkpt lat="44.9673018006072" lon="11.84559726560031"><ele>0.0</ele><time>2026-03-22T13:33:39.952Z</time></trkpt><trkpt lat="44.967376645068825" lon="11.845900004623655"><ele>0.0</ele><time>2026-03-22T13:33:40.952Z</time></trkpt><trkpt lat="44.9674286356003" lon="11.846218936319607"><ele>0.5</ele><time>2026-03-22T13:33:41.952Z</time></trkpt><trkpt lat="44.96745456039343" lon="11.846563482495334"><ele>1.0</ele><time>2026-03-22T13:33:42.952Z</time></trkpt><trkpt lat="44.967456260456316" lon="11.84689903099536"><ele>1.0</ele><time>2026-03-22T13:33:43.952Z</time></trkpt><trkpt lat="44.96744191094904" lon="11.84724174341234"><ele>1.0</ele><time>2026-03-22T13:33:44.952Z</time></trkpt><trkpt lat="44.967422308993086" lon="11.847586737802894"><ele>1.0</ele><time>2026-03-22T13:33:45.952Z</time></trkpt><trkpt lat="44.96740214236412" lon="11.847945977405837"><ele>1.0</ele><time>2026-03-22T13:33:46.952Z</time></trkpt><trkpt lat="44.96738659935065" lon="11.84830857520283"><ele>0.5</ele><time>2026-03-22T13:33:47.952Z</time></trkpt><trkpt lat="44.967374749796484" lon="11.848673966836971"><ele>0.0</ele><time>2026-03-22T13:33:48.952Z</time></trkpt><trkpt lat="44.967367282843895" lon="11.849038112076245"><ele>0.0</ele><time>2026-03-22T13:33:49.952Z</time></trkpt><trkpt lat="44.9673629511687" lon="11.849399775208678"><ele>0.0</ele><time>2026-03-22T13:33:50.952Z</time></trkpt><trkpt lat="44.967358650325856" lon="11.849759763970178"><ele>0.0</ele><time>2026-03-22T13:33:51.952Z</time></trkpt><trkpt lat="44.9673512069199" lon="11.850116919331091"><ele>0.0</ele><time>2026-03-22T13:33:52.952Z</time></trkpt><trkpt lat="44.96733805691909" lon="11.85046925858074"><ele>0.0</ele><time>2026-03-22T13:33:53.952Z</time></trkpt><trkpt lat="44.96731983158595" lon="11.850822704651378"><ele>0.0</ele><time>2026-03-22T13:33:54.952Z</time></trkpt><trkpt lat="44.96730103094682" lon="11.851179548487714"><ele>0.0</ele><time>2026-03-22T13:33:55.952Z</time></trkpt><trkpt lat="44.967282344311016" lon="11.851534228506694"><ele>0.0</ele><time>2026-03-22T13:33:56.952Z</time></trkpt><trkpt lat="44.967264119526135" lon="11.851880142380226"><ele>0.5</ele><time>2026-03-22T13:33:57.952Z</time></trkpt><trkpt lat="44.96724588389808" lon="11.852226262080377"><ele>1.0</ele><time>2026-03-22T13:33:58.952Z</time></trkpt><trkpt lat="44.96722821082953" lon="11.852566527514753"><ele>1.5</ele><time>2026-03-22T13:33:59.952Z</time></trkpt><trkpt lat="44.9672150460155" lon="11.852914763219081"><ele>2.0</ele><time>2026-03-22T13:34:00.952Z</time></trkpt><trkpt lat="44.96721056264744" lon="11.853250627515314"><ele>2.0</ele><time>2026-03-22T13:34:01.952Z</time></trkpt><trkpt lat="44.96722168957538" lon="11.853579126500534"><ele>2.0</ele><time>2026-03-22T13:34:02.952Z</time></trkpt><trkpt lat="44.96726681503842" lon="11.853897809383717"><ele>2.0</ele><time>2026-03-22T13:34:03.952Z</time></trkpt><trkpt lat="44.967289141408926" lon="11.854216422591945"><ele>2.0</ele><time>2026-03-22T13:34:04.952Z</time></trkpt><trkpt lat="44.96733292157478" lon="11.854524511159845"><ele>2.0</ele><time>2026-03-22T13:34:05.952Z</time></trkpt><trkpt lat="44.96738947754114" lon="11.854836188923148"><ele>1.5</ele><time>2026-03-22T13:34:06.952Z</time></trkpt><trkpt lat="44.96747582718614" lon="11.855156548200352"><ele>1.0</ele><time>2026-03-22T13:34:07.952Z</time></trkpt><trkpt lat="44.96756752826829" lon="11.855483108949283"><ele>1.0</ele><time>2026-03-22T13:34:08.952Z</time></trkpt><trkpt lat="44.96764912655532" lon="11.855827405977346"><ele>1.0</ele><time>2026-03-22T13:34:09.951Z</time></trkpt><trkpt lat="44.967728476787805" lon="11.856172088763458"><ele>1.0</ele><time>2026-03-22T13:34:10.951Z</time></trkpt><trkpt lat="44.9678149730072" lon="11.856524319488852"><ele>1.0</ele><time>2026-03-22T13:34:11.951Z</time></trkpt><trkpt lat="44.967896020174145" lon="11.85688415025265"><ele>1.0</ele><time>2026-03-22T13:34:12.951Z</time></trkpt><trkpt lat="44.96797829125999" lon="11.85723887211179"><ele>1.0</ele><time>2026-03-22T13:34:13.951Z</time></trkpt><trkpt lat="44.96803671500846" lon="11.857605040812569"><ele>1.5</ele><time>2026-03-22T13:34:14.951Z</time></trkpt><trkpt lat="44.9680877268618" lon="11.857972132965784"><ele>2.0</ele><time>2026-03-22T13:34:15.951Z</time></trkpt><trkpt lat="44.968140212845874" lon="11.858342159423488"><ele>2.0</ele><time>2026-03-22T13:34:16.951Z</time></trkpt><trkpt lat="44.96819892835903" lon="11.858712965393428"><ele>2.0</ele><time>2026-03-22T13:34:17.951Z</time></trkpt><trkpt lat="44.968250951838236" lon="11.85907793886334"><ele>1.5</ele><time>2026-03-22T13:34:18.951Z</time></trkpt><trkpt lat="44.968316437654266" lon="11.859439631649028"><ele>1.0</ele><time>2026-03-22T13:34:19.951Z</time></trkpt><trkpt lat="44.968394374043584" lon="11.859791210850172"><ele>0.0</ele><time>2026-03-22T13:34:20.951Z</time></trkpt><trkpt lat="44.9684792675701" lon="11.86014798438986"><ele>-1.0</ele><time>2026-03-22T13:34:21.951Z</time></trkpt><trkpt lat="44.968588201899315" lon="11.860508509430423"><ele>-1.0</ele><time>2026-03-22T13:34:22.951Z</time></trkpt><trkpt lat="44.96870010347791" lon="11.860869717587798"><ele>-1.0</ele><time>2026-03-22T13:34:23.951Z</time></trkpt><trkpt lat="44.96880460657609" lon="11.861247598971765"><ele>-1.0</ele><time>2026-03-22T13:34:24.951Z</time></trkpt><trkpt lat="44.96892025901824" lon="11.861621651355145"><ele>-1.0</ele><time>2026-03-22T13:34:25.951Z</time></trkpt><trkpt lat="44.96903309095023" lon="11.862001068051711"><ele>-0.5</ele><time>2026-03-22T13:34:26.951Z</time></trkpt><trkpt lat="44.96913827457986" lon="11.86237481192042"><ele>0.0</ele><time>2026-03-22T13:34:27.951Z</time></trkpt><trkpt lat="44.96924989715902" lon="11.862747675755351"><ele>0.0</ele><time>2026-03-22T13:34:28.951Z</time></trkpt><trkpt lat="44.96937135940588" lon="11.863117853736503"><ele>0.0</ele><time>2026-03-22T13:34:29.951Z</time></trkpt><trkpt lat="44.96949287990348" lon="11.863485934459684"><ele>0.0</ele><time>2026-03-22T13:34:30.951Z</time></trkpt><trkpt lat="44.969602623294215" lon="11.863862136782116"><ele>0.0</ele><time>2026-03-22T13:34:31.951Z</time></trkpt><trkpt lat="44.96970252938835" lon="11.864222803583651"><ele>0.5</ele><time>2026-03-22T13:34:32.951Z</time></trkpt><trkpt lat="44.96981867854147" lon="11.86458086329789"><ele>1.0</ele><time>2026-03-22T13:34:33.951Z</time></trkpt><trkpt lat="44.96993103100054" lon="11.86492667915049"><ele>3.0</ele><time>2026-03-22T13:34:34.951Z</time></trkpt><trkpt lat="44.97004485784459" lon="11.86526742863053"><ele>5.0</ele><time>2026-03-22T13:34:35.951Z</time></trkpt><trkpt lat="44.97014358203618" lon="11.865588923255107"><ele>5.0</ele><time>2026-03-22T13:34:36.951Z</time></trkpt><trkpt lat="44.97022433305788" lon="11.865890687867694"><ele>5.0</ele><time>2026-03-22T13:34:37.951Z</time></trkpt><trkpt lat="44.9702781666659" lon="11.866194864911018"><ele>4.666666666666667</ele><time>2026-03-22T13:34:38.951Z</time></trkpt><trkpt lat="44.97030668062447" lon="11.866497579795595"><ele>4.333333333333333</ele><time>2026-03-22T13:34:39.951Z</time></trkpt><trkpt lat="44.97033243336455" lon="11.866797444804671"><ele>4.0</ele><time>2026-03-22T13:34:40.951Z</time></trkpt><trkpt lat="44.970344835529474" lon="11.867081927970597"><ele>4.0</ele><time>2026-03-22T13:34:41.951Z</time></trkpt><trkpt lat="44.970385223141164" lon="11.867353151709333"><ele>4.0</ele><time>2026-03-22T13:34:42.951Z</time></trkpt><trkpt lat="44.97045129864328" lon="11.867621980297864"><ele>4.0</ele><time>2026-03-22T13:34:43.951Z</time></trkpt><trkpt lat="44.97053497286526" lon="11.867881820635716"><ele>3.333333333333333</ele><time>2026-03-22T13:34:44.951Z</time></trkpt><trkpt lat="44.97063366708256" lon="11.86812767577539"><ele>2.6666666666666665</ele><time>2026-03-22T13:34:45.951Z</time></trkpt><trkpt lat="44.97071840223073" lon="11.868357450628915"><ele>2.0</ele><time>2026-03-22T13:34:46.951Z</time></trkpt><trkpt lat="44.97078455503354" lon="11.86858895905131"><ele>2.0</ele><time>2026-03-22T13:34:47.951Z</time></trkpt><trkpt lat="44.97079958476154" lon="11.86885211778195"><ele>2.0</ele><time>2026-03-22T13:34:48.952Z</time></trkpt><trkpt lat="44.9707965796787" lon="11.869125486278095"><ele>2.0</ele><time>2026-03-22T13:34:49.953Z</time></trkpt><trkpt lat="44.97076649573703" lon="11.869388838508842"><ele>1.6666666666666665</ele><time>2026-03-22T13:34:50.953Z</time></trkpt><trkpt lat="44.97070720111995" lon="11.86966216493635"><ele>1.3333333333333333</ele><time>2026-03-22T13:34:51.952Z</time></trkpt><trkpt lat="44.97062630029831" lon="11.869961603723953"><ele>1.0</ele><time>2026-03-22T13:34:52.952Z</time></trkpt><trkpt lat="44.970542788067554" lon="11.870278701563633"><ele>1.0</ele><time>2026-03-22T13:34:53.952Z</time></trkpt><trkpt lat="44.97045758151531" lon="11.870602232771972"><ele>1.0</ele><time>2026-03-22T13:34:54.952Z</time></trkpt><trkpt lat="44.97037230072492" lon="11.870926045861125"><ele>1.5</ele><time>2026-03-22T13:34:55.952Z</time></trkpt><trkpt lat="44.97028342040693" lon="11.871263526437534"><ele>2.0</ele><time>2026-03-22T13:34:56.952Z</time></trkpt><trkpt lat="44.97019838061724" lon="11.871586424798084"><ele>3.0</ele><time>2026-03-22T13:34:57.952Z</time></trkpt><trkpt lat="44.97012963379061" lon="11.871907503560214"><ele>4.0</ele><time>2026-03-22T13:34:58.952Z</time></trkpt><trkpt lat="44.97004403679392" lon="11.872216671171179"><ele>3.0</ele><time>2026-03-22T13:34:59.952Z</time></trkpt><trkpt lat="44.969965946675345" lon="11.872523492022182"><ele>2.0</ele><time>2026-03-22T13:35:00.952Z</time></trkpt><trkpt lat="44.9699056532343" lon="11.872834609556032"><ele>1.5</ele><time>2026-03-22T13:35:01.952Z</time></trkpt><trkpt lat="44.96985704720089" lon="11.873155129762408"><ele>1.0</ele><time>2026-03-22T13:35:02.952Z</time></trkpt><trkpt lat="44.96982678467372" lon="11.873502132090762"><ele>0.5</ele><time>2026-03-22T13:35:03.952Z</time></trkpt><trkpt lat="44.96980605661112" lon="11.873865583829247"><ele>0.0</ele><time>2026-03-22T13:35:04.952Z</time></trkpt><trkpt lat="44.96979096162764" lon="11.874238242283807"><ele>0.0</ele><time>2026-03-22T13:35:05.952Z</time></trkpt><trkpt lat="44.96977668405522" lon="11.874614558862273"><ele>0.0</ele><time>2026-03-22T13:35:06.952Z</time></trkpt><trkpt lat="44.969756281734895" lon="11.874988498137919"><ele>0.5</ele><time>2026-03-22T13:35:07.952Z</time></trkpt><trkpt lat="44.96972997144941" lon="11.875362443717247"><ele>1.0</ele><time>2026-03-22T13:35:08.952Z</time></trkpt><trkpt lat="44.96970947386538" lon="11.875731169508644"><ele>2.5</ele><time>2026-03-22T13:35:09.952Z</time></trkpt><trkpt lat="44.96969241083776" lon="11.876097696874046"><ele>4.0</ele><time>2026-03-22T13:35:10.952Z</time></trkpt><trkpt lat="44.969675569066816" lon="11.876450714278628"><ele>5.0</ele><time>2026-03-22T13:35:11.952Z</time></trkpt><trkpt lat="44.96966662644558" lon="11.87679876253936"><ele>6.0</ele><time>2026-03-22T13:35:12.952Z</time></trkpt><trkpt lat="44.96965660774281" lon="11.87713070978644"><ele>6.0</ele><time>2026-03-22T13:35:13.952Z</time></trkpt><trkpt lat="44.96965032026801" lon="11.87744729368674"><ele>6.0</ele><time>2026-03-22T13:35:14.952Z</time></trkpt><trkpt lat="44.969646804705846" lon="11.877746243839756"><ele>6.0</ele><time>2026-03-22T13:35:15.952Z</time></trkpt><trkpt lat="44.96964401080752" lon="11.878037210606948"><ele>5.333333333333333</ele><time>2026-03-22T13:35:16.952Z</time></trkpt><trkpt lat="44.96962941457315" lon="11.878323124827741"><ele>4.666666666666666</ele><time>2026-03-22T13:35:17.952Z</time></trkpt><trkpt lat="44.96959541561905" lon="11.878603244515627"><ele>4.0</ele><time>2026-03-22T13:35:18.952Z</time></trkpt><trkpt lat="44.96953510986149" lon="11.87888814327878"><ele>3.0</ele><time>2026-03-22T13:35:19.952Z</time></trkpt><trkpt lat="44.969429407558515" lon="11.879169012197567"><ele>2.0</ele><time>2026-03-22T13:35:20.952Z</time></trkpt><trkpt lat="44.9692977818824" lon="11.879449719382563"><ele>1.5</ele><time>2026-03-22T13:35:21.951Z</time></trkpt><trkpt lat="44.96915205136502" lon="11.879734167299642"><ele>1.0</ele><time>2026-03-22T13:35:22.951Z</time></trkpt><trkpt lat="44.96901169980943" lon="11.880020941680637"><ele>1.0</ele><time>2026-03-22T13:35:23.951Z</time></trkpt><trkpt lat="44.96887494424946" lon="11.880301032858247"><ele>1.0</ele><time>2026-03-22T13:35:24.951Z</time></trkpt><trkpt lat="44.96873971596403" lon="11.880569386855903"><ele>1.0</ele><time>2026-03-22T13:35:25.951Z</time></trkpt><trkpt lat="44.96860715803701" lon="11.880819602061289"><ele>1.0</ele><time>2026-03-22T13:35:26.951Z</time></trkpt><trkpt lat="44.96848135729225" lon="11.881057899804729"><ele>1.0</ele><time>2026-03-22T13:35:27.951Z</time></trkpt><trkpt lat="44.96835236908942" lon="11.881278536060709"><ele>0.6666666666666666</ele><time>2026-03-22T13:35:28.951Z</time></trkpt><trkpt lat="44.96821845338632" lon="11.881497331833678"><ele>0.3333333333333333</ele><time>2026-03-22T13:35:29.951Z</time></trkpt><trkpt lat="44.96808183198445" lon="11.881723234042848"><ele>0.0</ele><time>2026-03-22T13:35:30.951Z</time></trkpt><trkpt lat="44.96795206032897" lon="11.881957976871092"><ele>-0.6666666666666666</ele><time>2026-03-22T13:35:31.951Z</time></trkpt><trkpt lat="44.9678279181684" lon="11.882197654478704"><ele>-1.3333333333333333</ele><time>2026-03-22T13:35:32.951Z</time></trkpt><trkpt lat="44.96771024921807" lon="11.882447644622513"><ele>-2.0</ele><time>2026-03-22T13:35:33.951Z</time></trkpt><trkpt lat="44.967596147535644" lon="11.882703637941292"><ele>-2.0</ele><time>2026-03-22T13:35:34.951Z</time></trkpt><trkpt lat="44.96748498005594" lon="11.88294260125818"><ele>-2.0</ele><time>2026-03-22T13:35:35.951Z</time></trkpt><trkpt lat="44.96738062421018" lon="11.883173450131618"><ele>-2.0</ele><time>2026-03-22T13:35:36.951Z</time></trkpt><trkpt lat="44.96728431422522" lon="11.883380285245435"><ele>-2.0</ele><time>2026-03-22T13:35:37.951Z</time></trkpt><trkpt lat="44.96719476710856" lon="11.883579904641831"><ele>-2.0</ele><time>2026-03-22T13:35:38.951Z</time></trkpt><trkpt lat="44.96710638595133" lon="11.88378289683636"><ele>-2.0</ele><time>2026-03-22T13:35:39.951Z</time></trkpt><trkpt lat="44.967014694542634" lon="11.883985971992239"><ele>-2.0</ele><time>2026-03-22T13:35:40.951Z</time></trkpt><trkpt lat="44.96692187315698" lon="11.884188866676404"><ele>-2.0</ele><time>2026-03-22T13:35:41.951Z</time></trkpt><trkpt lat="44.96682471379455" lon="11.884397009761686"><ele>-2.0</ele><time>2026-03-22T13:35:42.951Z</time></trkpt><trkpt lat="44.9667213545036" lon="11.884623157758034"><ele>-1.0</ele><time>2026-03-22T13:35:43.951Z</time></trkpt><trkpt lat="44.966608893314124" lon="11.884865859177967"><ele>0.0</ele><time>2026-03-22T13:35:44.951Z</time></trkpt><trkpt lat="44.96649322196811" lon="11.885123174151486"><ele>1.0</ele><time>2026-03-22T13:35:45.951Z</time></trkpt><trkpt lat="44.96637412705768" lon="11.885386667138325"><ele>1.0</ele><time>2026-03-22T13:35:46.951Z</time></trkpt><trkpt lat="44.96625378549705" lon="11.88565963890791"><ele>1.0</ele><time>2026-03-22T13:35:47.951Z</time></trkpt><trkpt lat="44.966131845657245" lon="11.885933143205841"><ele>1.0</ele><time>2026-03-22T13:35:48.951Z</time></trkpt><trkpt lat="44.966011080125675" lon="11.886203744339241"><ele>1.0</ele><time>2026-03-22T13:35:49.951Z</time></trkpt><trkpt lat="44.965897792937234" lon="11.886462770016276"><ele>1.0</ele><time>2026-03-22T13:35:50.951Z</time></trkpt><trkpt lat="44.96578995720873" lon="11.88670896566548"><ele>1.0</ele><time>2026-03-22T13:35:51.951Z</time></trkpt><trkpt lat="44.965692637035396" lon="11.886927778406095"><ele>1.0</ele><time>2026-03-22T13:35:52.951Z</time></trkpt><trkpt lat="44.96559695617411" lon="11.887127063724574"><ele>1.0</ele><time>2026-03-22T13:35:53.951Z</time></trkpt><trkpt lat="44.965503132897" lon="11.887306743107798"><ele>1.0</ele><time>2026-03-22T13:35:54.951Z</time></trkpt><trkpt lat="44.965402692552416" lon="11.887446055720984"><ele>1.0</ele><time>2026-03-22T13:35:55.951Z</time></trkpt><trkpt lat="44.96530033043499" lon="11.887564282817888"><ele>1.0</ele><time>2026-03-22T13:35:56.951Z</time></trkpt><trkpt lat="44.9651948933604" lon="11.887661636930282"><ele>1.0</ele><time>2026-03-22T13:35:57.951Z</time></trkpt><trkpt lat="44.965098910411974" lon="11.887740962824433"><ele>0.8</ele><time>2026-03-22T13:35:58.951Z</time></trkpt><trkpt lat="44.96500776537746" lon="11.887793378322746"><ele>0.6000000000000001</ele><time>2026-03-22T13:35:59.951Z</time></trkpt><trkpt lat="44.96491729675104" lon="11.887841280256533"><ele>0.4</ele><time>2026-03-22T13:36:00.95Z</time></trkpt><trkpt lat="44.96482575358753" lon="11.887880454749245"><ele>0.2</ele><time>2026-03-22T13:36:01.95Z</time></trkpt><trkpt lat="44.964734406997806" lon="11.88791229067304"><ele>0.0</ele><time>2026-03-22T13:36:02.95Z</time></trkpt><trkpt lat="44.96463105800151" lon="11.88795214980072"><ele>0.0</ele><time>2026-03-22T13:36:03.95Z</time></trkpt><trkpt lat="44.96451017908139" lon="11.887964870634075"><ele>0.0</ele><time>2026-03-22T13:36:04.95Z</time></trkpt><trkpt lat="44.96437128818589" lon="11.887949739837543"><ele>0.0</ele><time>2026-03-22T13:36:05.95Z</time></trkpt><trkpt lat="44.964209491607456" lon="11.887915848356636"><ele>0.0</ele><time>2026-03-22T13:36:06.95Z</time></trkpt><trkpt lat="44.96402686664841" lon="11.88788358682371"><ele>0.0</ele><time>2026-03-22T13:36:07.95Z</time></trkpt><trkpt lat="44.963844516788434" lon="11.887851004284892"><ele>0.0</ele><time>2026-03-22T13:36:08.95Z</time></trkpt><trkpt lat="44.96364962504852" lon="11.887817093406435"><ele>0.0</ele><time>2026-03-22T13:36:09.95Z</time></trkpt><trkpt lat="44.963439398806194" lon="11.887777465058656"><ele>0.0</ele><time>2026-03-22T13:36:10.95Z</time></trkpt><trkpt lat="44.96322317565897" lon="11.8877424633995"><ele>0.0</ele><time>2026-03-22T13:36:11.95Z</time></trkpt><trkpt lat="44.96299753693375" lon="11.887705449477464"><ele>0.0</ele><time>2026-03-22T13:36:12.95Z</time></trkpt><trkpt lat="44.962767687090164" lon="11.887666647797928"><ele>0.0</ele><time>2026-03-22T13:36:13.95Z</time></trkpt><trkpt lat="44.962539018555255" lon="11.887625748660346"><ele>0.0</ele><time>2026-03-22T13:36:14.95Z</time></trkpt><trkpt lat="44.96230802191221" lon="11.88758078933251"><ele>0.0</ele><time>2026-03-22T13:36:15.95Z</time></trkpt><trkpt lat="44.962077155035786" lon="11.887533535344692"><ele>0.0</ele><time>2026-03-22T13:36:16.95Z</time></trkpt><trkpt lat="44.96184751424232" lon="11.887490668470583"><ele>0.0</ele><time>2026-03-22T13:36:17.95Z</time></trkpt><trkpt lat="44.96161368578486" lon="11.887450582739842"><ele>0.0</ele><time>2026-03-22T13:36:18.95Z</time></trkpt><trkpt lat="44.96137999879224" lon="11.887404693454071"><ele>0.0</ele><time>2026-03-22T13:36:19.95Z</time></trkpt><trkpt lat="44.96114042464437" lon="11.88736508239599"><ele>0.0</ele><time>2026-03-22T13:36:20.95Z</time></trkpt><trkpt lat="44.960911395868656" lon="11.887215574245003"><ele>-1.0</ele><time>2026-03-22T13:36:21.95Z</time></trkpt><trkpt lat="44.96066670956673" lon="11.887171458554283"><ele>-2.0</ele><time>2026-03-22T13:36:22.95Z</time></trkpt><trkpt lat="44.9604299492532" lon="11.887129675928255"><ele>-2.0</ele><time>2026-03-22T13:36:23.95Z</time></trkpt><trkpt lat="44.96018416712362" lon="11.887086301155385"><ele>-2.0</ele><time>2026-03-22T13:36:24.95Z</time></trkpt><trkpt lat="44.959934072716884" lon="11.887042165368035"><ele>-1.5</ele><time>2026-03-22T13:36:25.95Z</time></trkpt><trkpt lat="44.95968070201622" lon="11.886997260481174"><ele>-1.0</ele><time>2026-03-22T13:36:26.95Z</time></trkpt><trkpt lat="44.95943041318859" lon="11.886952293862041"><ele>-1.5</ele><time>2026-03-22T13:36:27.95Z</time></trkpt><trkpt lat="44.95916566128973" lon="11.886904728817344"><ele>-2.0</ele><time>2026-03-22T13:36:28.95Z</time></trkpt><trkpt lat="44.95890663241582" lon="11.886858191968335"><ele>-2.0</ele><time>2026-03-22T13:36:29.95Z</time></trkpt><trkpt lat="44.958638769154405" lon="11.88680953132173"><ele>-2.0</ele><time>2026-03-22T13:36:30.95Z</time></trkpt><trkpt lat="44.95837306563583" lon="11.886760574236149"><ele>-1.5</ele><time>2026-03-22T13:36:31.95Z</time></trkpt><trkpt lat="44.958103817219055" lon="11.886711309296864"><ele>-1.0</ele><time>2026-03-22T13:36:32.95Z</time></trkpt><trkpt lat="44.957840941966346" lon="11.886664532738545"><ele>-1.0</ele><time>2026-03-22T13:36:33.95Z</time></trkpt><trkpt lat="44.957581888442505" lon="11.886618047598164"><ele>-1.0</ele><time>2026-03-22T13:36:34.95Z</time></trkpt><trkpt lat="44.95732595319311" lon="11.88657047578639"><ele>-1.0</ele><time>2026-03-22T13:36:35.95Z</time></trkpt><trkpt lat="44.95708056054094" lon="11.886526662616722"><ele>-1.0</ele><time>2026-03-22T13:36:36.95Z</time></trkpt><trkpt lat="44.95684316143556" lon="11.886485298992959"><ele>-1.0</ele><time>2026-03-22T13:36:37.95Z</time></trkpt><trkpt lat="44.95660661003354" lon="11.886444147047287"><ele>-1.0</ele><time>2026-03-22T13:36:38.95Z</time></trkpt><trkpt lat="44.95636299816247" lon="11.886401766822834"><ele>-1.0</ele><time>2026-03-22T13:36:39.949Z</time></trkpt><trkpt lat="44.95612242547305" lon="11.886359915319334"><ele>-1.0</ele><time>2026-03-22T13:36:40.949Z</time></trkpt><trkpt lat="44.95588285285654" lon="11.886318123504463"><ele>-1.3333333333333333</ele><time>2026-03-22T13:36:41.949Z</time></trkpt><trkpt lat="44.95565063438382" lon="11.886277390694314"><ele>-1.6666666666666665</ele><time>2026-03-22T13:36:42.949Z</time></trkpt><trkpt lat="44.95543969373009" lon="11.88624039015559"><ele>-2.0</ele><time>2026-03-22T13:36:43.949Z</time></trkpt><trkpt lat="44.95523377677252" lon="11.886204270813785"><ele>-2.0</ele><time>2026-03-22T13:36:44.949Z</time></trkpt><trkpt lat="44.95504658512549" lon="11.886171435928416"><ele>-2.0</ele><time>2026-03-22T13:36:45.949Z</time></trkpt><trkpt lat="44.954873681011335" lon="11.886140894522581"><ele>-2.0</ele><time>2026-03-22T13:36:46.949Z</time></trkpt><trkpt lat="44.95472776705807" lon="11.886115174710476"><ele>-1.4000000000000001</ele><time>2026-03-22T13:36:47.949Z</time></trkpt><trkpt lat="44.954596479677654" lon="11.886092033056297"><ele>-0.8000000000000002</ele><time>2026-03-22T13:36:48.949Z</time></trkpt><trkpt lat="44.95448454952634" lon="11.886096226881328"><ele>-0.19999999999999996</ele><time>2026-03-22T13:36:49.949Z</time></trkpt><trkpt lat="44.95439270774962" lon="11.886082248823376"><ele>0.4</ele><time>2026-03-22T13:36:50.949Z</time></trkpt><trkpt lat="44.9543293585056" lon="11.886081785698734"><ele>1.0</ele><time>2026-03-22T13:36:51.949Z</time></trkpt><trkpt lat="44.954218009483874" lon="11.88610795319705"><ele>1.0</ele><time>2026-03-22T13:36:53.949Z</time></trkpt><trkpt lat="44.95414695340071" lon="11.886199930148068"><ele>1.0</ele><time>2026-03-22T13:36:55.95Z</time></trkpt><trkpt lat="44.954173854483265" lon="11.88636406768784"><ele>1.0</ele><time>2026-03-22T13:36:57.951Z</time></trkpt><trkpt lat="44.954239834567716" lon="11.886471099148762"><ele>1.0</ele><time>2026-03-22T13:36:58.951Z</time></trkpt><trkpt lat="44.95432876838669" lon="11.886572793764985"><ele>1.0</ele><time>2026-03-22T13:36:59.951Z</time></trkpt><trkpt lat="44.95442939516599" lon="11.886704677883776"><ele>0.3333333333333333</ele><time>2026-03-22T13:37:00.95Z</time></trkpt><trkpt lat="44.95451550123695" lon="11.886864814718873"><ele>-0.3333333333333333</ele><time>2026-03-22T13:37:01.95Z</time></trkpt><trkpt lat="44.95457071052287" lon="11.88706293431556"><ele>-1.0</ele><time>2026-03-22T13:37:02.95Z</time></trkpt><trkpt lat="44.95461517542517" lon="11.887294906699104"><ele>-1.0</ele><time>2026-03-22T13:37:03.95Z</time></trkpt><trkpt lat="44.954637740985795" lon="11.887540185432531"><ele>-1.0</ele><time>2026-03-22T13:37:04.95Z</time></trkpt><trkpt lat="44.95463377899253" lon="11.887802057674095"><ele>-1.0</ele><time>2026-03-22T13:37:05.95Z</time></trkpt><trkpt lat="44.954618770873395" lon="11.888087986340926"><ele>-1.0</ele><time>2026-03-22T13:37:06.951Z</time></trkpt><trkpt lat="44.954603053190866" lon="11.888391041591053"><ele>-1.0</ele><time>2026-03-22T13:37:07.951Z</time></trkpt><trkpt lat="44.9545857506679" lon="11.888710557921543"><ele>-1.0</ele><time>2026-03-22T13:37:08.951Z</time></trkpt><trkpt lat="44.954567157595406" lon="11.88904674776658"><ele>-1.5</ele><time>2026-03-22T13:37:09.951Z</time></trkpt><trkpt lat="44.9545475568097" lon="11.889397430705378"><ele>-2.0</ele><time>2026-03-22T13:37:10.951Z</time></trkpt><trkpt lat="44.954527207326784" lon="11.889761508696987"><ele>-2.5</ele><time>2026-03-22T13:37:11.951Z</time></trkpt><trkpt lat="44.95450660704544" lon="11.890130073886304"><ele>-3.0</ele><time>2026-03-22T13:37:12.951Z</time></trkpt><trkpt lat="44.95448563645915" lon="11.890505264201503"><ele>-3.0</ele><time>2026-03-22T13:37:13.951Z</time></trkpt><trkpt lat="44.954464997325275" lon="11.890874524472071"><ele>-3.0</ele><time>2026-03-22T13:37:14.951Z</time></trkpt><trkpt lat="44.95444419206369" lon="11.891234460657728"><ele>-2.5</ele><time>2026-03-22T13:37:15.951Z</time></trkpt><trkpt lat="44.95442398350945" lon="11.891591107818762"><ele>-2.0</ele><time>2026-03-22T13:37:16.951Z</time></trkpt><trkpt lat="44.954404048959226" lon="11.89194291990473"><ele>-2.0</ele><time>2026-03-22T13:37:17.951Z</time></trkpt><trkpt lat="44.95438406000387" lon="11.892279872125078"><ele>-2.0</ele><time>2026-03-22T13:37:18.951Z</time></trkpt><trkpt lat="44.954364620630365" lon="11.89261046857108"><ele>-2.0</ele><time>2026-03-22T13:37:19.951Z</time></trkpt><trkpt lat="44.95434616877997" lon="11.892924270599917"><ele>-2.0</ele><time>2026-03-22T13:37:20.951Z</time></trkpt><trkpt lat="44.95432817052014" lon="11.89323035866387"><ele>-2.0</ele><time>2026-03-22T13:37:21.95Z</time></trkpt><trkpt lat="44.954309765159785" lon="11.893543370067228"><ele>-2.0</ele><time>2026-03-22T13:37:22.95Z</time></trkpt><trkpt lat="44.954291418100524" lon="11.893855389939437"><ele>-2.0</ele><time>2026-03-22T13:37:23.95Z</time></trkpt><trkpt lat="44.95427388913845" lon="11.894167314289987"><ele>-2.0</ele><time>2026-03-22T13:37:24.95Z</time></trkpt><trkpt lat="44.95425773430098" lon="11.894460064455336"><ele>-2.333333333333333</ele><time>2026-03-22T13:37:25.95Z</time></trkpt><trkpt lat="44.954242596427" lon="11.894742421254275"><ele>-2.6666666666666665</ele><time>2026-03-22T13:37:26.95Z</time></trkpt><trkpt lat="44.95422761732885" lon="11.895012129444712"><ele>-3.0</ele><time>2026-03-22T13:37:27.95Z</time></trkpt><trkpt lat="44.95421651465965" lon="11.895286410351863"><ele>-3.0</ele><time>2026-03-22T13:37:28.95Z</time></trkpt><trkpt lat="44.95422991288184" lon="11.895563622852688"><ele>-3.0</ele><time>2026-03-22T13:37:29.95Z</time></trkpt><trkpt lat="44.954286989770445" lon="11.895830832160604"><ele>-3.0</ele><time>2026-03-22T13:37:30.95Z</time></trkpt><trkpt lat="44.95437554885256" lon="11.896088433578996"><ele>-2.6666666666666665</ele><time>2026-03-22T13:37:31.95Z</time></trkpt><trkpt lat="44.95446972306803" lon="11.8963624655727"><ele>-2.333333333333333</ele><time>2026-03-22T13:37:32.95Z</time></trkpt><trkpt lat="44.954552014982" lon="11.89664842490686"><ele>-2.0</ele><time>2026-03-22T13:37:33.95Z</time></trkpt><trkpt lat="44.95465190026591" lon="11.896933469775506"><ele>-2.0</ele><time>2026-03-22T13:37:34.95Z</time></trkpt><trkpt lat="44.954751278931006" lon="11.897216269266481"><ele>-2.0</ele><time>2026-03-22T13:37:35.95Z</time></trkpt><trkpt lat="44.95484850095815" lon="11.897482198497737"><ele>-2.0</ele><time>2026-03-22T13:37:36.95Z</time></trkpt><trkpt lat="44.954949920174094" lon="11.897740508920602"><ele>-2.0</ele><time>2026-03-22T13:37:37.95Z</time></trkpt><trkpt lat="44.955079650175364" lon="11.897977528375986"><ele>-2.0</ele><time>2026-03-22T13:37:38.95Z</time></trkpt><trkpt lat="44.955232392182985" lon="11.898209799563526"><ele>-2.0</ele><time>2026-03-22T13:37:39.95Z</time></trkpt><trkpt lat="44.95539299082483" lon="11.898437213176472"><ele>-2.0</ele><time>2026-03-22T13:37:40.95Z</time></trkpt><trkpt lat="44.95556301275841" lon="11.898671146339561"><ele>-2.0</ele><time>2026-03-22T13:37:41.95Z</time></trkpt><trkpt lat="44.955734612261004" lon="11.898893255877828"><ele>-2.5</ele><time>2026-03-22T13:37:42.95Z</time></trkpt><trkpt lat="44.95589974107285" lon="11.899119720289514"><ele>-3.0</ele><time>2026-03-22T13:37:43.95Z</time></trkpt><trkpt lat="44.956064290930755" lon="11.89933406905075"><ele>-3.0</ele><time>2026-03-22T13:37:44.95Z</time></trkpt><trkpt lat="44.956221113119774" lon="11.899542122999124"><ele>-3.0</ele><time>2026-03-22T13:37:45.95Z</time></trkpt><trkpt lat="44.956371595773554" lon="11.899738479311102"><ele>-3.0</ele><time>2026-03-22T13:37:46.95Z</time></trkpt><trkpt lat="44.95651016920918" lon="11.899930690755323"><ele>-2.6666666666666665</ele><time>2026-03-22T13:37:47.95Z</time></trkpt><trkpt lat="44.95664233356467" lon="11.900117387821318"><ele>-2.333333333333333</ele><time>2026-03-22T13:37:48.95Z</time></trkpt><trkpt lat="44.956773316250086" lon="11.900295275265261"><ele>-2.0</ele><time>2026-03-22T13:37:49.95Z</time></trkpt><trkpt lat="44.95689781710989" lon="11.900467719073399"><ele>-2.0</ele><time>2026-03-22T13:37:50.95Z</time></trkpt><trkpt lat="44.957025780819706" lon="11.90063459679365"><ele>-2.0</ele><time>2026-03-22T13:37:51.95Z</time></trkpt><trkpt lat="44.95714571126551" lon="11.90080714198577"><ele>-2.0</ele><time>2026-03-22T13:37:52.95Z</time></trkpt><trkpt lat="44.95726119804165" lon="11.900974312635114"><ele>-1.5</ele><time>2026-03-22T13:37:53.95Z</time></trkpt><trkpt lat="44.95737020743859" lon="11.901127793423909"><ele>-1.0</ele><time>2026-03-22T13:37:54.95Z</time></trkpt><trkpt lat="44.95747154961607" lon="11.901265763102874"><ele>-0.5</ele><time>2026-03-22T13:37:55.95Z</time></trkpt><trkpt lat="44.95756245119247" lon="11.901381751507738"><ele>0.0</ele><time>2026-03-22T13:37:56.95Z</time></trkpt><trkpt lat="44.957643008348946" lon="11.901492374544818"><ele>0.0</ele><time>2026-03-22T13:37:57.95Z</time></trkpt><trkpt lat="44.95771645917266" lon="11.901595002594421"><ele>0.0</ele><time>2026-03-22T13:37:58.95Z</time></trkpt><trkpt lat="44.95777892393268" lon="11.9016832769391"><ele>0.0</ele><time>2026-03-22T13:37:59.95Z</time></trkpt><trkpt lat="44.9578366389355" lon="11.901762894236125"><ele>0.0</ele><time>2026-03-22T13:38:00.949Z</time></trkpt><trkpt lat="44.957886227876074" lon="11.90183486754168"><ele>0.0</ele><time>2026-03-22T13:38:01.949Z</time></trkpt><trkpt lat="44.95797607792059" lon="11.901949215286653"><ele>0.2</ele><time>2026-03-22T13:38:03.949Z</time></trkpt><trkpt lat="44.95805755798998" lon="11.902047954804237"><ele>0.4</ele><time>2026-03-22T13:38:05.949Z</time></trkpt><trkpt lat="44.95812471733047" lon="11.902145789317196"><ele>0.6000000000000001</ele><time>2026-03-22T13:38:07.949Z</time></trkpt><trkpt lat="44.958185448989205" lon="11.902240026647583"><ele>0.8</ele><time>2026-03-22T13:38:08.949Z</time></trkpt><trkpt lat="44.95826522379697" lon="11.902366151514656"><ele>1.0</ele><time>2026-03-22T13:38:09.949Z</time></trkpt><trkpt lat="44.9583612179304" lon="11.902539629598698"><ele>0.6666666666666666</ele><time>2026-03-22T13:38:10.949Z</time></trkpt><trkpt lat="44.95846794472567" lon="11.902714396367179"><ele>0.3333333333333333</ele><time>2026-03-22T13:38:11.949Z</time></trkpt><trkpt lat="44.95859401725772" lon="11.902905153576802"><ele>0.0</ele><time>2026-03-22T13:38:12.949Z</time></trkpt><trkpt lat="44.95873376305951" lon="11.903102795266934"><ele>0.0</ele><time>2026-03-22T13:38:13.949Z</time></trkpt><trkpt lat="44.95888869301364" lon="11.903311972980323"><ele>0.0</ele><time>2026-03-22T13:38:14.949Z</time></trkpt><trkpt lat="44.95904891396833" lon="11.903527316304361"><ele>0.0</ele><time>2026-03-22T13:38:15.949Z</time></trkpt><trkpt lat="44.95921397197797" lon="11.903752542593999"><ele>0.0</ele><time>2026-03-22T13:38:16.949Z</time></trkpt><trkpt lat="44.95938660222733" lon="11.903986314170139"><ele>0.0</ele><time>2026-03-22T13:38:17.949Z</time></trkpt><trkpt lat="44.95956707611688" lon="11.904228742856041"><ele>1.0</ele><time>2026-03-22T13:38:18.949Z</time></trkpt><trkpt lat="44.95975188593484" lon="11.904473844485882"><ele>2.0</ele><time>2026-03-22T13:38:19.949Z</time></trkpt><trkpt lat="44.95993948591171" lon="11.904719143406574"><ele>1.0</ele><time>2026-03-22T13:38:20.949Z</time></trkpt><trkpt lat="44.96011308968234" lon="11.904982783420015"><ele>0.0</ele><time>2026-03-22T13:38:21.949Z</time></trkpt><trkpt lat="44.960292657865665" lon="11.905224516312366"><ele>0.0</ele><time>2026-03-22T13:38:22.949Z</time></trkpt><trkpt lat="44.960468815535954" lon="11.905462518095899"><ele>0.0</ele><time>2026-03-22T13:38:23.949Z</time></trkpt><trkpt lat="44.96063988737796" lon="11.905695631204468"><ele>0.0</ele><time>2026-03-22T13:38:24.949Z</time></trkpt><trkpt lat="44.960801252745306" lon="11.905935405732661"><ele>0.0</ele><time>2026-03-22T13:38:25.949Z</time></trkpt><trkpt lat="44.960951267311614" lon="11.906191137091351"><ele>0.0</ele><time>2026-03-22T13:38:26.949Z</time></trkpt><trkpt lat="44.96109649690494" lon="11.906455076478611"><ele>0.0</ele><time>2026-03-22T13:38:27.949Z</time></trkpt><trkpt lat="44.96124052938742" lon="11.906723883462606"><ele>0.0</ele><time>2026-03-22T13:38:28.949Z</time></trkpt><trkpt lat="44.96138564839399" lon="11.90699758740677"><ele>0.0</ele><time>2026-03-22T13:38:29.949Z</time></trkpt><trkpt lat="44.961528425791904" lon="11.907266644442169"><ele>0.0</ele><time>2026-03-22T13:38:30.949Z</time></trkpt><trkpt lat="44.96166299415562" lon="11.907520230916592"><ele>0.0</ele><time>2026-03-22T13:38:31.949Z</time></trkpt><trkpt lat="44.96179689112284" lon="11.907772552196763"><ele>0.0</ele><time>2026-03-22T13:38:32.949Z</time></trkpt><trkpt lat="44.96192551226341" lon="11.908014931465889"><ele>0.0</ele><time>2026-03-22T13:38:33.949Z</time></trkpt><trkpt lat="44.9620465741815" lon="11.908243065817327"><ele>0.0</ele><time>2026-03-22T13:38:34.949Z</time></trkpt><trkpt lat="44.96216548773863" lon="11.908467151707152"><ele>0.0</ele><time>2026-03-22T13:38:35.949Z</time></trkpt><trkpt lat="44.96229895549208" lon="11.908679879749451"><ele>0.0</ele><time>2026-03-22T13:38:36.949Z</time></trkpt><trkpt lat="44.962417083194744" lon="11.908904999826921"><ele>0.0</ele><time>2026-03-22T13:38:37.949Z</time></trkpt><trkpt lat="44.96251533208953" lon="11.909132170475129"><ele>0.0</ele><time>2026-03-22T13:38:38.949Z</time></trkpt><trkpt lat="44.96261520101582" lon="11.909340141014212"><ele>0.3333333333333333</ele><time>2026-03-22T13:38:39.948Z</time></trkpt><trkpt lat="44.96270892073305" lon="11.90955265990519"><ele>0.6666666666666666</ele><time>2026-03-22T13:38:40.948Z</time></trkpt><trkpt lat="44.96279777246021" lon="11.909773392383837"><ele>1.0</ele><time>2026-03-22T13:38:41.948Z</time></trkpt><trkpt lat="44.96288022548161" lon="11.910007055422607"><ele>1.0</ele><time>2026-03-22T13:38:42.948Z</time></trkpt><trkpt lat="44.962959946915525" lon="11.91026597171854"><ele>1.0</ele><time>2026-03-22T13:38:43.948Z</time></trkpt><trkpt lat="44.96303701642324" lon="11.910545494116581"><ele>1.0</ele><time>2026-03-22T13:38:44.948Z</time></trkpt><trkpt lat="44.96311342297906" lon="11.91084653612853"><ele>1.0</ele><time>2026-03-22T13:38:45.948Z</time></trkpt><trkpt lat="44.96318842112057" lon="11.911169317649934"><ele>1.0</ele><time>2026-03-22T13:38:46.948Z</time></trkpt><trkpt lat="44.96326761699563" lon="11.911511470376253"><ele>1.0</ele><time>2026-03-22T13:38:47.948Z</time></trkpt><trkpt lat="44.96334999059573" lon="11.91186436586084"><ele>1.0</ele><time>2026-03-22T13:38:48.948Z</time></trkpt><trkpt lat="44.963432153572505" lon="11.912220059701347"><ele>0.0</ele><time>2026-03-22T13:38:49.948Z</time></trkpt><trkpt lat="44.963513537815196" lon="11.91257765713305"><ele>-1.0</ele><time>2026-03-22T13:38:50.948Z</time></trkpt><trkpt lat="44.963596074494774" lon="11.91294031832135"><ele>-1.0</ele><time>2026-03-22T13:38:51.948Z</time></trkpt><trkpt lat="44.963699510420994" lon="11.913287080871918"><ele>-1.0</ele><time>2026-03-22T13:38:52.948Z</time></trkpt><trkpt lat="44.963779956680234" lon="11.913644323396898"><ele>-1.0</ele><time>2026-03-22T13:38:53.948Z</time></trkpt><trkpt lat="44.96386092043378" lon="11.914010204846509"><ele>-1.0</ele><time>2026-03-22T13:38:54.948Z</time></trkpt><trkpt lat="44.96394233636321" lon="11.914367449952712"><ele>-1.0</ele><time>2026-03-22T13:38:55.948Z</time></trkpt><trkpt lat="44.96400272559718" lon="11.914735315317643"><ele>-1.0</ele><time>2026-03-22T13:38:56.948Z</time></trkpt><trkpt lat="44.96408410907075" lon="11.9150940684883"><ele>-1.0</ele><time>2026-03-22T13:38:57.948Z</time></trkpt><trkpt lat="44.964166346688835" lon="11.915455701585506"><ele>-1.0</ele><time>2026-03-22T13:38:58.948Z</time></trkpt><trkpt lat="44.964249315064095" lon="11.915820548132027"><ele>-1.0</ele><time>2026-03-22T13:38:59.948Z</time></trkpt><trkpt lat="44.96433385034337" lon="11.916192285015317"><ele>-1.0</ele><time>2026-03-22T13:39:00.949Z</time></trkpt><trkpt lat="44.964418607183006" lon="11.916563572859278"><ele>-0.5</ele><time>2026-03-22T13:39:01.949Z</time></trkpt><trkpt lat="44.96450455357765" lon="11.916933327829932"><ele>0.0</ele><time>2026-03-22T13:39:02.949Z</time></trkpt><trkpt lat="44.96458985640474" lon="11.917297007489791"><ele>0.5</ele><time>2026-03-22T13:39:03.949Z</time></trkpt><trkpt lat="44.964690694200165" lon="11.917654165793422"><ele>1.0</ele><time>2026-03-22T13:39:04.949Z</time></trkpt><trkpt lat="44.96475900244655" lon="11.918022802387599"><ele>1.0</ele><time>2026-03-22T13:39:05.949Z</time></trkpt><trkpt lat="44.9648398696274" lon="11.918388875961535"><ele>1.0</ele><time>2026-03-22T13:39:06.948Z</time></trkpt><trkpt lat="44.96491984283719" lon="11.918749100902135"><ele>1.0</ele><time>2026-03-22T13:39:07.949Z</time></trkpt><trkpt lat="44.96499668850331" lon="11.919106996598112"><ele>1.0</ele><time>2026-03-22T13:39:08.949Z</time></trkpt><trkpt lat="44.96507736928254" lon="11.919463790234149"><ele>0.5</ele><time>2026-03-22T13:39:09.949Z</time></trkpt><trkpt lat="44.96515968113886" lon="11.919827055719479"><ele>0.0</ele><time>2026-03-22T13:39:10.949Z</time></trkpt><trkpt lat="44.96524018519006" lon="11.920184724707555"><ele>0.0</ele><time>2026-03-22T13:39:11.949Z</time></trkpt><trkpt lat="44.96531472897732" lon="11.920538424352268"><ele>0.0</ele><time>2026-03-22T13:39:12.948Z</time></trkpt><trkpt lat="44.96540241282993" lon="11.920885818236556"><ele>-0.5</ele><time>2026-03-22T13:39:13.949Z</time></trkpt><trkpt lat="44.965486915563346" lon="11.921246892576752"><ele>-1.0</ele><time>2026-03-22T13:39:14.949Z</time></trkpt><trkpt lat="44.965564304947904" lon="11.921595815437454"><ele>-0.5</ele><time>2026-03-22T13:39:15.949Z</time></trkpt><trkpt lat="44.96565561448382" lon="11.92194031775338"><ele>0.0</ele><time>2026-03-22T13:39:16.949Z</time></trkpt><trkpt lat="44.96573843682732" lon="11.922283282515533"><ele>-0.5</ele><time>2026-03-22T13:39:17.949Z</time></trkpt><trkpt lat="44.9658153804797" lon="11.922627173196105"><ele>-1.0</ele><time>2026-03-22T13:39:18.949Z</time></trkpt><trkpt lat="44.9658890971341" lon="11.922962937815326"><ele>-1.5</ele><time>2026-03-22T13:39:19.949Z</time></trkpt><trkpt lat="44.96596096405802" lon="11.923300091320872"><ele>-2.0</ele><time>2026-03-22T13:39:20.949Z</time></trkpt><trkpt lat="44.966035459061" lon="11.923626265242952"><ele>-2.0</ele><time>2026-03-22T13:39:21.949Z</time></trkpt><trkpt lat="44.96611659424534" lon="11.923942419869512"><ele>-2.0</ele><time>2026-03-22T13:39:22.949Z</time></trkpt><trkpt lat="44.96619248396533" lon="11.924251387430342"><ele>-1.5</ele><time>2026-03-22T13:39:23.949Z</time></trkpt><trkpt lat="44.966266679292175" lon="11.924554454282532"><ele>-1.0</ele><time>2026-03-22T13:39:24.949Z</time></trkpt><trkpt lat="44.966334923236374" lon="11.924868024065459"><ele>0.0</ele><time>2026-03-22T13:39:25.949Z</time></trkpt><trkpt lat="44.96638294553031" lon="11.925191541422516"><ele>1.0</ele><time>2026-03-22T13:39:26.949Z</time></trkpt><trkpt lat="44.96640399425345" lon="11.925526135091319"><ele>1.0</ele><time>2026-03-22T13:39:27.948Z</time></trkpt><trkpt lat="44.96640524896073" lon="11.925871326950675"><ele>1.0</ele><time>2026-03-22T13:39:28.948Z</time></trkpt><trkpt lat="44.96639695288893" lon="11.926212436995236"><ele>0.5</ele><time>2026-03-22T13:39:29.948Z</time></trkpt><trkpt lat="44.96637748010117" lon="11.926559995090749"><ele>0.0</ele><time>2026-03-22T13:39:30.948Z</time></trkpt><trkpt lat="44.96635808538378" lon="11.926900005646221"><ele>0.0</ele><time>2026-03-22T13:39:31.948Z</time></trkpt><trkpt lat="44.966325364855365" lon="11.92723458547194"><ele>0.0</ele><time>2026-03-22T13:39:32.948Z</time></trkpt><trkpt lat="44.96628288193788" lon="11.927569698966668"><ele>0.5</ele><time>2026-03-22T13:39:33.948Z</time></trkpt><trkpt lat="44.966224227106096" lon="11.927910244054228"><ele>1.0</ele><time>2026-03-22T13:39:34.948Z</time></trkpt><trkpt lat="44.96614824011246" lon="11.92824898466547"><ele>1.0</ele><time>2026-03-22T13:39:35.948Z</time></trkpt><trkpt lat="44.96606195210068" lon="11.92858318629697"><ele>1.0</ele><time>2026-03-22T13:39:36.948Z</time></trkpt><trkpt lat="44.96596299230371" lon="11.928915534909633"><ele>0.5</ele><time>2026-03-22T13:39:37.948Z</time></trkpt><trkpt lat="44.96586390490144" lon="11.929243454166404"><ele>0.0</ele><time>2026-03-22T13:39:38.948Z</time></trkpt><trkpt lat="44.96575163181741" lon="11.929563565206944"><ele>0.0</ele><time>2026-03-22T13:39:39.948Z</time></trkpt><trkpt lat="44.96563379399479" lon="11.929875393032459"><ele>0.0</ele><time>2026-03-22T13:39:40.948Z</time></trkpt><trkpt lat="44.96549996646674" lon="11.930170893978465"><ele>-0.5</ele><time>2026-03-22T13:39:41.948Z</time></trkpt><trkpt lat="44.96535788564122" lon="11.930458576716312"><ele>-1.0</ele><time>2026-03-22T13:39:42.948Z</time></trkpt><trkpt lat="44.96521177057024" lon="11.930724811703678"><ele>-0.5</ele><time>2026-03-22T13:39:43.948Z</time></trkpt><trkpt lat="44.96506508832026" lon="11.930986310621996"><ele>0.0</ele><time>2026-03-22T13:39:44.948Z</time></trkpt><trkpt lat="44.964924313714626" lon="11.931258917597404"><ele>0.0</ele><time>2026-03-22T13:39:45.948Z</time></trkpt><trkpt lat="44.96479749057798" lon="11.93154496329388"><ele>0.0</ele><time>2026-03-22T13:39:46.948Z</time></trkpt><trkpt lat="44.96467845158677" lon="11.931837966188201"><ele>0.0</ele><time>2026-03-22T13:39:47.948Z</time></trkpt><trkpt lat="44.96456501267177" lon="11.932135869144824"><ele>0.0</ele><time>2026-03-22T13:39:48.948Z</time></trkpt><trkpt lat="44.964464753079106" lon="11.932443156722117"><ele>0.5</ele><time>2026-03-22T13:39:49.948Z</time></trkpt><trkpt lat="44.96438834979575" lon="11.93274925489436"><ele>1.0</ele><time>2026-03-22T13:39:50.948Z</time></trkpt><trkpt lat="44.96433681268333" lon="11.933061100022854"><ele>1.0</ele><time>2026-03-22T13:39:51.948Z</time></trkpt><trkpt lat="44.96431274551057" lon="11.933375000745539"><ele>1.0</ele><time>2026-03-22T13:39:52.948Z</time></trkpt><trkpt lat="44.9643200066067" lon="11.933711861945865"><ele>1.0</ele><time>2026-03-22T13:39:53.948Z</time></trkpt><trkpt lat="44.96433922194488" lon="11.934056359935175"><ele>1.0</ele><time>2026-03-22T13:39:54.948Z</time></trkpt><trkpt lat="44.964360966484406" lon="11.934408075230026"><ele>1.0</ele><time>2026-03-22T13:39:55.948Z</time></trkpt><trkpt lat="44.964380012999875" lon="11.934744524171911"><ele>1.0</ele><time>2026-03-22T13:39:56.948Z</time></trkpt><trkpt lat="44.9644150287396" lon="11.935066533661232"><ele>0.5</ele><time>2026-03-22T13:39:57.948Z</time></trkpt><trkpt lat="44.96446349307261" lon="11.935394348987764"><ele>0.0</ele><time>2026-03-22T13:39:58.948Z</time></trkpt><trkpt lat="44.96452311677709" lon="11.935729368632867"><ele>0.0</ele><time>2026-03-22T13:39:59.948Z</time></trkpt><trkpt lat="44.964592823615504" lon="11.936073562633982"><ele>0.0</ele><time>2026-03-22T13:40:00.948Z</time></trkpt><trkpt lat="44.96467086711491" lon="11.936423813359175"><ele>0.0</ele><time>2026-03-22T13:40:01.948Z</time></trkpt><trkpt lat="44.9647462126831" lon="11.936773973248455"><ele>0.0</ele><time>2026-03-22T13:40:02.948Z</time></trkpt><trkpt lat="44.96481916332038" lon="11.937122564170771"><ele>0.0</ele><time>2026-03-22T13:40:03.948Z</time></trkpt><trkpt lat="44.964896447308625" lon="11.93747251110863"><ele>0.0</ele><time>2026-03-22T13:40:04.948Z</time></trkpt><trkpt lat="44.96496627670991" lon="11.937822733052448"><ele>0.0</ele><time>2026-03-22T13:40:05.948Z</time></trkpt><trkpt lat="44.965038393724846" lon="11.938174093880857"><ele>0.0</ele><time>2026-03-22T13:40:06.947Z</time></trkpt><trkpt lat="44.96510838304739" lon="11.938532042513712"><ele>0.0</ele><time>2026-03-22T13:40:07.947Z</time></trkpt><trkpt lat="44.965174445755125" lon="11.93888614375051"><ele>0.0</ele><time>2026-03-22T13:40:08.947Z</time></trkpt><trkpt lat="44.96523013359073" lon="11.939249586268414"><ele>-0.5</ele><time>2026-03-22T13:40:09.947Z</time></trkpt><trkpt lat="44.96527739532236" lon="11.939621857989229"><ele>-1.0</ele><time>2026-03-22T13:40:10.947Z</time></trkpt><trkpt lat="44.965291000837006" lon="11.93999942217571"><ele>-0.5</ele><time>2026-03-22T13:40:11.947Z</time></trkpt><trkpt lat="44.96531984905947" lon="11.940368698704718"><ele>0.0</ele><time>2026-03-22T13:40:12.947Z</time></trkpt><trkpt lat="44.96536395958022" lon="11.94073959226458"><ele>0.0</ele><time>2026-03-22T13:40:13.947Z</time></trkpt><trkpt lat="44.96539069760189" lon="11.941109122740396"><ele>0.0</ele><time>2026-03-22T13:40:14.947Z</time></trkpt><trkpt lat="44.965413793685364" lon="11.941471294225714"><ele>0.5</ele><time>2026-03-22T13:40:15.947Z</time></trkpt><trkpt lat="44.965437117740876" lon="11.94181653058922"><ele>1.0</ele><time>2026-03-22T13:40:16.947Z</time></trkpt><trkpt lat="44.965458836845976" lon="11.942159095693297"><ele>1.0</ele><time>2026-03-22T13:40:17.947Z</time></trkpt><trkpt lat="44.96547728247153" lon="11.942503916354697"><ele>1.0</ele><time>2026-03-22T13:40:18.947Z</time></trkpt><trkpt lat="44.96546143165222" lon="11.94284683419355"><ele>1.0</ele><time>2026-03-22T13:40:19.947Z</time></trkpt><trkpt lat="44.96543459632646" lon="11.943192827602171"><ele>1.0</ele><time>2026-03-22T13:40:20.947Z</time></trkpt><trkpt lat="44.96539402885226" lon="11.94354327359942"><ele>0.5</ele><time>2026-03-22T13:40:21.947Z</time></trkpt><trkpt lat="44.96534644478301" lon="11.943891994133303"><ele>0.0</ele><time>2026-03-22T13:40:22.947Z</time></trkpt><trkpt lat="44.96529285486093" lon="11.944247299280141"><ele>-0.5</ele><time>2026-03-22T13:40:23.947Z</time></trkpt><trkpt lat="44.96523333493948" lon="11.944603723651127"><ele>-1.0</ele><time>2026-03-22T13:40:24.947Z</time></trkpt><trkpt lat="44.96517212912475" lon="11.944957857378064"><ele>-0.5</ele><time>2026-03-22T13:40:25.947Z</time></trkpt><trkpt lat="44.965112901513294" lon="11.945311630614311"><ele>0.0</ele><time>2026-03-22T13:40:26.947Z</time></trkpt><trkpt lat="44.96505926521017" lon="11.945656292260963"><ele>-0.5</ele><time>2026-03-22T13:40:27.947Z</time></trkpt><trkpt lat="44.965012621446334" lon="11.945997447643894"><ele>-1.0</ele><time>2026-03-22T13:40:28.947Z</time></trkpt><trkpt lat="44.96498083280099" lon="11.946324554577565"><ele>-1.0</ele><time>2026-03-22T13:40:29.947Z</time></trkpt><trkpt lat="44.964980999782085" lon="11.946645396896624"><ele>-1.0</ele><time>2026-03-22T13:40:30.947Z</time></trkpt><trkpt lat="44.96500488933547" lon="11.946968753899142"><ele>-1.0</ele><time>2026-03-22T13:40:31.947Z</time></trkpt><trkpt lat="44.96505850646048" lon="11.947295445114028"><ele>-1.0</ele><time>2026-03-22T13:40:32.947Z</time></trkpt><trkpt lat="44.965135162230794" lon="11.947620118680659"><ele>-1.0</ele><time>2026-03-22T13:40:33.947Z</time></trkpt><trkpt lat="44.965188964915455" lon="11.947948295361865"><ele>-1.0</ele><time>2026-03-22T13:40:34.947Z</time></trkpt><trkpt lat="44.965260937556685" lon="11.948267687027622"><ele>0.0</ele><time>2026-03-22T13:40:35.947Z</time></trkpt><trkpt lat="44.96533839136606" lon="11.948579039310692"><ele>1.0</ele><time>2026-03-22T13:40:36.947Z</time></trkpt><trkpt lat="44.965419696507624" lon="11.948878070368117"><ele>1.0</ele><time>2026-03-22T13:40:37.947Z</time></trkpt><trkpt lat="44.965500144734406" lon="11.949163266556411"><ele>1.0</ele><time>2026-03-22T13:40:38.947Z</time></trkpt><trkpt lat="44.96557044758052" lon="11.949436727441007"><ele>1.0</ele><time>2026-03-22T13:40:39.947Z</time></trkpt><trkpt lat="44.965641724584856" lon="11.949710187615066"><ele>1.6666666666666665</ele><time>2026-03-22T13:40:40.947Z</time></trkpt><trkpt lat="44.96565772050139" lon="11.949989498413217"><ele>2.3333333333333335</ele><time>2026-03-22T13:40:41.947Z</time></trkpt><trkpt lat="44.96565903665087" lon="11.950285458752465"><ele>3.0</ele><time>2026-03-22T13:40:42.947Z</time></trkpt><trkpt lat="44.96564677061827" lon="11.950601102858364"><ele>2.0</ele><time>2026-03-22T13:40:43.947Z</time></trkpt><trkpt lat="44.965633441666945" lon="11.950936945516808"><ele>1.0</ele><time>2026-03-22T13:40:44.947Z</time></trkpt><trkpt lat="44.965623433461225" lon="11.951278997261122"><ele>1.0</ele><time>2026-03-22T13:40:45.946Z</time></trkpt><trkpt lat="44.96562405611138" lon="11.951627929562958"><ele>1.0</ele><time>2026-03-22T13:40:46.946Z</time></trkpt><trkpt lat="44.96563326867996" lon="11.951970315187378"><ele>0.0</ele><time>2026-03-22T13:40:47.946Z</time></trkpt><trkpt lat="44.965653282313696" lon="11.952318077806591"><ele>-1.0</ele><time>2026-03-22T13:40:48.946Z</time></trkpt><trkpt lat="44.96567547482078" lon="11.952662751854943"><ele>-1.5</ele><time>2026-03-22T13:40:49.946Z</time></trkpt><trkpt lat="44.96570099732985" lon="11.953007193034855"><ele>-2.0</ele><time>2026-03-22T13:40:50.946Z</time></trkpt><trkpt lat="44.96574577814791" lon="11.953341306274039"><ele>-2.0</ele><time>2026-03-22T13:40:51.946Z</time></trkpt><trkpt lat="44.96580743367015" lon="11.95366899470313"><ele>-2.0</ele><time>2026-03-22T13:40:52.946Z</time></trkpt><trkpt lat="44.96587816891335" lon="11.953996584452211"><ele>-1.0</ele><time>2026-03-22T13:40:53.946Z</time></trkpt><trkpt lat="44.96595358178192" lon="11.954323691439956"><ele>0.0</ele><time>2026-03-22T13:40:54.946Z</time></trkpt><trkpt lat="44.96605195318603" lon="11.954644339806356"><ele>0.0</ele><time>2026-03-22T13:40:55.946Z</time></trkpt><trkpt lat="44.96614294543282" lon="11.954965093119542"><ele>0.0</ele><time>2026-03-22T13:40:56.946Z</time></trkpt><trkpt lat="44.966259112051716" lon="11.955273253249622"><ele>0.5</ele><time>2026-03-22T13:40:57.946Z</time></trkpt><trkpt lat="44.966384018970004" lon="11.955579836628056"><ele>1.0</ele><time>2026-03-22T13:40:58.946Z</time></trkpt><trkpt lat="44.966512163422095" lon="11.95588420225844"><ele>1.0</ele><time>2026-03-22T13:40:59.946Z</time></trkpt><trkpt lat="44.966634568829775" lon="11.956191255027582"><ele>1.0</ele><time>2026-03-22T13:41:00.946Z</time></trkpt><trkpt lat="44.96676219585929" lon="11.956499264446894"><ele>1.0</ele><time>2026-03-22T13:41:01.946Z</time></trkpt><trkpt lat="44.96688861560976" lon="11.956801945366326"><ele>1.0</ele><time>2026-03-22T13:41:02.946Z</time></trkpt><trkpt lat="44.96701531443401" lon="11.957095597343104"><ele>1.0</ele><time>2026-03-22T13:41:03.946Z</time></trkpt><trkpt lat="44.967139237799465" lon="11.95737392077597"><ele>1.0</ele><time>2026-03-22T13:41:04.946Z</time></trkpt><trkpt lat="44.967259340869774" lon="11.957644892413917"><ele>0.0</ele><time>2026-03-22T13:41:05.946Z</time></trkpt><trkpt lat="44.967383492879904" lon="11.957908654231689"><ele>-1.0</ele><time>2026-03-22T13:41:06.947Z</time></trkpt><trkpt lat="44.96751338431249" lon="11.958184706400637"><ele>-1.0</ele><time>2026-03-22T13:41:07.947Z</time></trkpt><trkpt lat="44.967654208154514" lon="11.95848913190157"><ele>-1.0</ele><time>2026-03-22T13:41:08.947Z</time></trkpt><trkpt lat="44.96779751514455" lon="11.958820270943553"><ele>-1.0</ele><time>2026-03-22T13:41:09.947Z</time></trkpt><trkpt lat="44.96794911208428" lon="11.959162946059507"><ele>-1.0</ele><time>2026-03-22T13:41:10.947Z</time></trkpt><trkpt lat="44.96810680692046" lon="11.959511531386433"><ele>-1.0</ele><time>2026-03-22T13:41:11.947Z</time></trkpt><trkpt lat="44.96826445004301" lon="11.959873008024882"><ele>-1.0</ele><time>2026-03-22T13:41:12.947Z</time></trkpt><trkpt lat="44.968421200037156" lon="11.960237985087803"><ele>-1.0</ele><time>2026-03-22T13:41:13.947Z</time></trkpt><trkpt lat="44.968572832328135" lon="11.96059970852046"><ele>-1.0</ele><time>2026-03-22T13:41:14.947Z</time></trkpt><trkpt lat="44.968731714407326" lon="11.96094981219458"><ele>-0.5</ele><time>2026-03-22T13:41:15.947Z</time></trkpt><trkpt lat="44.968886393575076" lon="11.961293253819274"><ele>0.0</ele><time>2026-03-22T13:41:16.947Z</time></trkpt><trkpt lat="44.969029133094956" lon="11.961632308160182"><ele>0.0</ele><time>2026-03-22T13:41:17.947Z</time></trkpt><trkpt lat="44.96917561844535" lon="11.961954634110182"><ele>0.0</ele><time>2026-03-22T13:41:18.947Z</time></trkpt><trkpt lat="44.969315695341464" lon="11.962253473740816"><ele>0.5</ele><time>2026-03-22T13:41:19.947Z</time></trkpt><trkpt lat="44.969449742334156" lon="11.962555124899966"><ele>1.0</ele><time>2026-03-22T13:41:20.947Z</time></trkpt><trkpt lat="44.969573504795484" lon="11.9628505024879"><ele>1.0</ele><time>2026-03-22T13:41:21.947Z</time></trkpt><trkpt lat="44.96969452505722" lon="11.963133837647252"><ele>1.0</ele><time>2026-03-22T13:41:22.947Z</time></trkpt><trkpt lat="44.969788217742995" lon="11.963431182352656"><ele>1.0</ele><time>2026-03-22T13:41:23.947Z</time></trkpt><trkpt lat="44.96986075714667" lon="11.963732806059017"><ele>1.0</ele><time>2026-03-22T13:41:24.947Z</time></trkpt><trkpt lat="44.96991417824024" lon="11.964021685533147"><ele>1.0</ele><time>2026-03-22T13:41:25.947Z</time></trkpt><trkpt lat="44.96996247328094" lon="11.964301959025844"><ele>1.0</ele><time>2026-03-22T13:41:26.947Z</time></trkpt><trkpt lat="44.970027602993454" lon="11.964574059478714"><ele>1.0</ele><time>2026-03-22T13:41:27.947Z</time></trkpt><trkpt lat="44.97011063878028" lon="11.96483011722877"><ele>1.0</ele><time>2026-03-22T13:41:28.947Z</time></trkpt><trkpt lat="44.970248675089465" lon="11.965054248102813"><ele>1.3333333333333333</ele><time>2026-03-22T13:41:29.947Z</time></trkpt><trkpt lat="44.97041062017565" lon="11.965254884266248"><ele>1.6666666666666665</ele><time>2026-03-22T13:41:30.947Z</time></trkpt><trkpt lat="44.97057970524246" lon="11.965468108953496"><ele>2.0</ele><time>2026-03-22T13:41:31.947Z</time></trkpt><trkpt lat="44.97074401691625" lon="11.965705841793996"><ele>1.5</ele><time>2026-03-22T13:41:32.947Z</time></trkpt><trkpt lat="44.97088515209046" lon="11.965959356240457"><ele>1.0</ele><time>2026-03-22T13:41:33.947Z</time></trkpt><trkpt lat="44.97099339178879" lon="11.966246569235844"><ele>1.0</ele><time>2026-03-22T13:41:34.947Z</time></trkpt><trkpt lat="44.97108905595913" lon="11.966545704064997"><ele>1.0</ele><time>2026-03-22T13:41:35.947Z</time></trkpt><trkpt lat="44.97117700773675" lon="11.966848620870945"><ele>1.0</ele><time>2026-03-22T13:41:36.947Z</time></trkpt><trkpt lat="44.97124604934251" lon="11.967145590879102"><ele>1.0</ele><time>2026-03-22T13:41:37.947Z</time></trkpt><trkpt lat="44.971298473078654" lon="11.967436071220911"><ele>1.0</ele><time>2026-03-22T13:41:38.947Z</time></trkpt><trkpt lat="44.97132519954158" lon="11.967721292556153"><ele>0.6666666666666666</ele><time>2026-03-22T13:41:39.947Z</time></trkpt><trkpt lat="44.971340026999464" lon="11.968013604750467"><ele>0.3333333333333333</ele><time>2026-03-22T13:41:40.947Z</time></trkpt><trkpt lat="44.97135151142926" lon="11.968308811356124"><ele>0.0</ele><time>2026-03-22T13:41:41.947Z</time></trkpt><trkpt lat="44.97137316729906" lon="11.968601402159491"><ele>0.0</ele><time>2026-03-22T13:41:42.947Z</time></trkpt><trkpt lat="44.971392818537154" lon="11.968892530106189"><ele>0.0</ele><time>2026-03-22T13:41:43.947Z</time></trkpt><trkpt lat="44.971428145881305" lon="11.969173215303417"><ele>0.0</ele><time>2026-03-22T13:41:44.947Z</time></trkpt><trkpt lat="44.97147958243476" lon="11.969438356824485"><ele>0.3333333333333333</ele><time>2026-03-22T13:41:45.947Z</time></trkpt><trkpt lat="44.97153550403127" lon="11.96970862496815"><ele>0.6666666666666666</ele><time>2026-03-22T13:41:46.947Z</time></trkpt><trkpt lat="44.97160032143107" lon="11.969978322766186"><ele>1.0</ele><time>2026-03-22T13:41:47.947Z</time></trkpt><trkpt lat="44.971667293833235" lon="11.970236928996224"><ele>1.0</ele><time>2026-03-22T13:41:48.947Z</time></trkpt><trkpt lat="44.971732258321666" lon="11.970499721922657"><ele>1.0</ele><time>2026-03-22T13:41:49.947Z</time></trkpt><trkpt lat="44.97178619704967" lon="11.970752246052815"><ele>1.0</ele><time>2026-03-22T13:41:50.947Z</time></trkpt><trkpt lat="44.97184467912753" lon="11.970990836128726"><ele>1.0</ele><time>2026-03-22T13:41:51.947Z</time></trkpt><trkpt lat="44.97189587878964" lon="11.971229998606326"><ele>1.0</ele><time>2026-03-22T13:41:52.947Z</time></trkpt><trkpt lat="44.97194618421301" lon="11.971468488546266"><ele>1.0</ele><time>2026-03-22T13:41:53.947Z</time></trkpt><trkpt lat="44.97200067713044" lon="11.971706906452281"><ele>1.0</ele><time>2026-03-22T13:41:54.947Z</time></trkpt><trkpt lat="44.97206813705492" lon="11.97195095518026"><ele>1.0</ele><time>2026-03-22T13:41:55.947Z</time></trkpt><trkpt lat="44.97212992465656" lon="11.972193892858792"><ele>1.0</ele><time>2026-03-22T13:41:56.947Z</time></trkpt><trkpt lat="44.97218480330225" lon="11.972445432083447"><ele>0.6666666666666666</ele><time>2026-03-22T13:41:57.947Z</time></trkpt><trkpt lat="44.97223907306309" lon="11.972691055567022"><ele>0.3333333333333333</ele><time>2026-03-22T13:41:58.946Z</time></trkpt><trkpt lat="44.972293700754314" lon="11.97295094491127"><ele>0.0</ele><time>2026-03-22T13:41:59.946Z</time></trkpt><trkpt lat="44.972352108278976" lon="11.973206774004431"><ele>0.3333333333333333</ele><time>2026-03-22T13:42:00.946Z</time></trkpt><trkpt lat="44.9724160750294" lon="11.973462668057241"><ele>0.6666666666666666</ele><time>2026-03-22T13:42:01.946Z</time></trkpt><trkpt lat="44.972483188601544" lon="11.973706848086263"><ele>1.0</ele><time>2026-03-22T13:42:02.946Z</time></trkpt><trkpt lat="44.972551776752745" lon="11.973951214634381"><ele>1.0</ele><time>2026-03-22T13:42:03.946Z</time></trkpt><trkpt lat="44.97262627347492" lon="11.974191074852735"><ele>1.0</ele><time>2026-03-22T13:42:04.946Z</time></trkpt><trkpt lat="44.972716016427356" lon="11.974427323899453"><ele>1.0</ele><time>2026-03-22T13:42:05.946Z</time></trkpt><trkpt lat="44.97280660117604" lon="11.974665713109546"><ele>1.0</ele><time>2026-03-22T13:42:06.946Z</time></trkpt><trkpt lat="44.97289942598029" lon="11.97490048307847"><ele>1.0</ele><time>2026-03-22T13:42:07.946Z</time></trkpt><trkpt lat="44.97299179317475" lon="11.975127562974047"><ele>1.0</ele><time>2026-03-22T13:42:08.946Z</time></trkpt><trkpt lat="44.97308783772871" lon="11.975350681442277"><ele>0.3333333333333333</ele><time>2026-03-22T13:42:09.946Z</time></trkpt><trkpt lat="44.97318345426377" lon="11.97556131223176"><ele>-0.3333333333333333</ele><time>2026-03-22T13:42:10.946Z</time></trkpt><trkpt lat="44.97327231840112" lon="11.975767774729627"><ele>-1.0</ele><time>2026-03-22T13:42:11.946Z</time></trkpt><trkpt lat="44.973355838374765" lon="11.975969370946109"><ele>-1.0</ele><time>2026-03-22T13:42:12.946Z</time></trkpt><trkpt lat="44.97344124507565" lon="11.976163848994561"><ele>-1.0</ele><time>2026-03-22T13:42:13.946Z</time></trkpt><trkpt lat="44.97353136186287" lon="11.976362787037106"><ele>-1.0</ele><time>2026-03-22T13:42:14.946Z</time></trkpt><trkpt lat="44.97363009878939" lon="11.976548516416756"><ele>-1.0</ele><time>2026-03-22T13:42:15.946Z</time></trkpt><trkpt lat="44.97374231584669" lon="11.976723384170919"><ele>-1.0</ele><time>2026-03-22T13:42:16.946Z</time></trkpt><trkpt lat="44.97386866264137" lon="11.97689116859212"><ele>-1.0</ele><time>2026-03-22T13:42:17.946Z</time></trkpt><trkpt lat="44.97400685065076" lon="11.977042239374367"><ele>-1.0</ele><time>2026-03-22T13:42:18.946Z</time></trkpt><trkpt lat="44.9741399391934" lon="11.977211208487718"><ele>-1.0</ele><time>2026-03-22T13:42:19.946Z</time></trkpt><trkpt lat="44.97427915585104" lon="11.977386549273907"><ele>-1.0</ele><time>2026-03-22T13:42:20.946Z</time></trkpt><trkpt lat="44.97442851268205" lon="11.9775607879009"><ele>-1.0</ele><time>2026-03-22T13:42:21.946Z</time></trkpt><trkpt lat="44.974581037347775" lon="11.977732348062712"><ele>-1.0</ele><time>2026-03-22T13:42:22.946Z</time></trkpt><trkpt lat="44.97471873942003" lon="11.977908139294158"><ele>-1.0</ele><time>2026-03-22T13:42:23.946Z</time></trkpt><trkpt lat="44.97486312975428" lon="11.978077517840337"><ele>-1.0</ele><time>2026-03-22T13:42:24.946Z</time></trkpt><trkpt lat="44.975004602691165" lon="11.978247107380597"><ele>-1.0</ele><time>2026-03-22T13:42:25.946Z</time></trkpt><trkpt lat="44.9751435346181" lon="11.978411831696919"><ele>-1.0</ele><time>2026-03-22T13:42:26.946Z</time></trkpt><trkpt lat="44.97528467827423" lon="11.978579098564971"><ele>-0.3333333333333333</ele><time>2026-03-22T13:42:27.946Z</time></trkpt><trkpt lat="44.97542827267046" lon="11.97873994558424"><ele>0.3333333333333333</ele><time>2026-03-22T13:42:28.946Z</time></trkpt><trkpt lat="44.97556144863463" lon="11.978901158941417"><ele>1.0</ele><time>2026-03-22T13:42:29.946Z</time></trkpt><trkpt lat="44.97568974146512" lon="11.979061376436091"><ele>1.0</ele><time>2026-03-22T13:42:30.946Z</time></trkpt><trkpt lat="44.975824191053995" lon="11.979221049623554"><ele>1.0</ele><time>2026-03-22T13:42:31.946Z</time></trkpt><trkpt lat="44.975928335712396" lon="11.97939554421083"><ele>1.0</ele><time>2026-03-22T13:42:32.946Z</time></trkpt><trkpt lat="44.97605786687635" lon="11.97955512034305"><ele>1.0</ele><time>2026-03-22T13:42:33.946Z</time></trkpt><trkpt lat="44.97618096893702" lon="11.97971740999336"><ele>1.0</ele><time>2026-03-22T13:42:34.946Z</time></trkpt><trkpt lat="44.976309027195974" lon="11.979877861956206"><ele>1.0</ele><time>2026-03-22T13:42:35.946Z</time></trkpt><trkpt lat="44.976429279442364" lon="11.980043454583031"><ele>1.0</ele><time>2026-03-22T13:42:36.946Z</time></trkpt><trkpt lat="44.97654401155814" lon="11.98021570914116"><ele>1.0</ele><time>2026-03-22T13:42:37.945Z</time></trkpt><trkpt lat="44.97662817192286" lon="11.980409922534907"><ele>1.0</ele><time>2026-03-22T13:42:38.945Z</time></trkpt><trkpt lat="44.9767077224001" lon="11.98061368053647"><ele>1.0</ele><time>2026-03-22T13:42:39.945Z</time></trkpt><trkpt lat="44.9767839989107" lon="11.980822270087554"><ele>1.0</ele><time>2026-03-22T13:42:40.945Z</time></trkpt><trkpt lat="44.97686218755215" lon="11.981031779135918"><ele>1.0</ele><time>2026-03-22T13:42:41.945Z</time></trkpt><trkpt lat="44.9769499125389" lon="11.981230215955927"><ele>1.0</ele><time>2026-03-22T13:42:42.945Z</time></trkpt><trkpt lat="44.97702081071403" lon="11.981435931611474"><ele>1.0</ele><time>2026-03-22T13:42:43.945Z</time></trkpt><trkpt lat="44.97709798677782" lon="11.981636453697794"><ele>1.0</ele><time>2026-03-22T13:42:44.945Z</time></trkpt><trkpt lat="44.97717489351907" lon="11.98184182382828"><ele>1.0</ele><time>2026-03-22T13:42:45.945Z</time></trkpt><trkpt lat="44.977237944531694" lon="11.982053883237558"><ele>1.0</ele><time>2026-03-22T13:42:46.945Z</time></trkpt><trkpt lat="44.97730873010492" lon="11.982246986938206"><ele>1.0</ele><time>2026-03-22T13:42:47.945Z</time></trkpt><trkpt lat="44.97737388384257" lon="11.98242400102604"><ele>1.0</ele><time>2026-03-22T13:42:48.945Z</time></trkpt><trkpt lat="44.97743431921226" lon="11.982590040294735"><ele>1.0</ele><time>2026-03-22T13:42:49.945Z</time></trkpt><trkpt lat="44.977488118131724" lon="11.98274379837414"><ele>1.0</ele><time>2026-03-22T13:42:50.945Z</time></trkpt><trkpt lat="44.977523777020345" lon="11.982884450397725"><ele>1.0</ele><time>2026-03-22T13:42:51.945Z</time></trkpt><trkpt lat="44.97754369596775" lon="11.98303488877278"><ele>1.0</ele><time>2026-03-22T13:42:52.945Z</time></trkpt><trkpt lat="44.97755298074023" lon="11.983187832254144"><ele>1.0</ele><time>2026-03-22T13:42:53.945Z</time></trkpt><trkpt lat="44.977540215381666" lon="11.983348261644261"><ele>1.0</ele><time>2026-03-22T13:42:54.945Z</time></trkpt><trkpt lat="44.97751582390992" lon="11.983521794749858"><ele>1.0</ele><time>2026-03-22T13:42:55.945Z</time></trkpt><trkpt lat="44.977486383807026" lon="11.983715617388158"><ele>1.0</ele><time>2026-03-22T13:42:56.945Z</time></trkpt><trkpt lat="44.97745162192818" lon="11.983934345464714"><ele>1.0</ele><time>2026-03-22T13:42:57.945Z</time></trkpt><trkpt lat="44.97741163068752" lon="11.984185977578553"><ele>1.0</ele><time>2026-03-22T13:42:58.945Z</time></trkpt><trkpt lat="44.97736677032565" lon="11.984468247138308"><ele>1.0</ele><time>2026-03-22T13:42:59.945Z</time></trkpt><trkpt lat="44.97732258109994" lon="11.984751503351045"><ele>1.0</ele><time>2026-03-22T13:43:00.945Z</time></trkpt><trkpt lat="44.9772775402219" lon="11.985040319439062"><ele>1.0</ele><time>2026-03-22T13:43:01.945Z</time></trkpt><trkpt lat="44.97723142026296" lon="11.985331730848625"><ele>1.0</ele><time>2026-03-22T13:43:02.945Z</time></trkpt><trkpt lat="44.977182541117195" lon="11.985631897091393"><ele>1.0</ele><time>2026-03-22T13:43:03.945Z</time></trkpt><trkpt lat="44.9771338417059" lon="11.985930959660426"><ele>1.0</ele><time>2026-03-22T13:43:04.945Z</time></trkpt><trkpt lat="44.977086136243614" lon="11.986229162958809"><ele>0.6666666666666666</ele><time>2026-03-22T13:43:05.945Z</time></trkpt><trkpt lat="44.977040430087335" lon="11.98651999077332"><ele>0.3333333333333333</ele><time>2026-03-22T13:43:06.945Z</time></trkpt><trkpt lat="44.976995993376846" lon="11.986802740863938"><ele>0.0</ele><time>2026-03-22T13:43:07.945Z</time></trkpt><trkpt lat="44.97695207078301" lon="11.987082219931585"><ele>0.0</ele><time>2026-03-22T13:43:08.945Z</time></trkpt><trkpt lat="44.9769072765863" lon="11.987367245035085"><ele>0.0</ele><time>2026-03-22T13:43:09.945Z</time></trkpt><trkpt lat="44.97686331707112" lon="11.987646958978857"><ele>0.0</ele><time>2026-03-22T13:43:10.945Z</time></trkpt><trkpt lat="44.97682153749302" lon="11.987909847798427"><ele>0.0</ele><time>2026-03-22T13:43:11.945Z</time></trkpt><trkpt lat="44.97677333977606" lon="11.988176686689062"><ele>0.0</ele><time>2026-03-22T13:43:12.946Z</time></trkpt><trkpt lat="44.976718833419746" lon="11.988428018419897"><ele>0.0</ele><time>2026-03-22T13:43:13.945Z</time></trkpt><trkpt lat="44.97666295583163" lon="11.98865357839683"><ele>0.2</ele><time>2026-03-22T13:43:14.945Z</time></trkpt><trkpt lat="44.97660611435962" lon="11.988818612423394"><ele>0.4</ele><time>2026-03-22T13:43:15.945Z</time></trkpt><trkpt lat="44.97654724942003" lon="11.988956269431922"><ele>0.6000000000000001</ele><time>2026-03-22T13:43:16.946Z</time></trkpt><trkpt lat="44.97648859130956" lon="11.989082140635071"><ele>0.8</ele><time>2026-03-22T13:43:17.946Z</time></trkpt><trkpt lat="44.97643702277888" lon="11.989189514442682"><ele>1.0</ele><time>2026-03-22T13:43:18.946Z</time></trkpt><trkpt lat="44.97638404482578" lon="11.989297922172318"><ele>1.1666666666666665</ele><time>2026-03-22T13:43:19.945Z</time></trkpt><trkpt lat="44.97634075215772" lon="11.98938215140203"><ele>1.3333333333333333</ele><time>2026-03-22T13:43:20.945Z</time></trkpt><trkpt lat="44.976298118657176" lon="11.989463812746544"><ele>1.5</ele><time>2026-03-22T13:43:21.945Z</time></trkpt><trkpt lat="44.97625602849129" lon="11.98954116760548"><ele>1.6666666666666665</ele><time>2026-03-22T13:43:22.946Z</time></trkpt><trkpt lat="44.976213193297184" lon="11.989619891748927"><ele>1.8333333333333333</ele><time>2026-03-22T13:43:23.946Z</time></trkpt><trkpt lat="44.97617387904067" lon="11.989689535302364"><ele>2.0</ele><time>2026-03-22T13:43:24.945Z</time></trkpt><trkpt lat="44.97609478222844" lon="11.98982763524776"><ele>2.0</ele><time>2026-03-22T13:43:26.946Z</time></trkpt><trkpt lat="44.976012516500134" lon="11.989969561669493"><ele>2.0</ele><time>2026-03-22T13:43:28.946Z</time></trkpt><trkpt lat="44.9759705685615" lon="11.99004193100046"><ele>2.0</ele><time>2026-03-22T13:43:29.946Z</time></trkpt><trkpt lat="44.975927362659135" lon="11.99011647022983"><ele>2.0</ele><time>2026-03-22T13:43:30.946Z</time></trkpt><trkpt lat="44.97590285297056" lon="11.990209258546413"><ele>2.0</ele><time>2026-03-22T13:43:31.946Z</time></trkpt><trkpt lat="44.97582885345222" lon="11.990334684295552"><ele>1.8</ele><time>2026-03-22T13:43:33.946Z</time></trkpt><trkpt lat="44.97576213520374" lon="11.990456045641652"><ele>1.6</ele><time>2026-03-22T13:43:35.945Z</time></trkpt><trkpt lat="44.975673015027105" lon="11.990552348195376"><ele>1.4000000000000001</ele><time>2026-03-22T13:43:37.945Z</time></trkpt><trkpt lat="44.975611048455676" lon="11.99065991590964"><ele>1.2000000000000002</ele><time>2026-03-22T13:43:39.945Z</time></trkpt><trkpt lat="44.975556253026824" lon="11.99075503520213"><ele>1.0</ele><time>2026-03-22T13:43:41.945Z</time></trkpt><trkpt lat="44.97550134660513" lon="11.990850347140482"><ele>0.8333333333333333</ele><time>2026-03-22T13:43:43.945Z</time></trkpt><trkpt lat="44.97543328420338" lon="11.990968550150214"><ele>0.6666666666666666</ele><time>2026-03-22T13:43:45.945Z</time></trkpt><trkpt lat="44.975391812371335" lon="11.991040573819507"><ele>0.5</ele><time>2026-03-22T13:43:46.945Z</time></trkpt><trkpt lat="44.975350003185184" lon="11.991113183337468"><ele>0.3333333333333333</ele><time>2026-03-22T13:43:47.945Z</time></trkpt><trkpt lat="44.97530115274743" lon="11.99119802131071"><ele>0.16666666666666666</ele><time>2026-03-22T13:43:48.945Z</time></trkpt><trkpt lat="44.9752467602431" lon="11.991292484214878"><ele>0.0</ele><time>2026-03-22T13:43:49.945Z</time></trkpt><trkpt lat="44.97518567348683" lon="11.991397537435352"><ele>0.0</ele><time>2026-03-22T13:43:50.945Z</time></trkpt><trkpt lat="44.97512758028115" lon="11.991496968584206"><ele>0.0</ele><time>2026-03-22T13:43:51.945Z</time></trkpt><trkpt lat="44.975067525921375" lon="11.991599756379546"><ele>0.0</ele><time>2026-03-22T13:43:52.945Z</time></trkpt><trkpt lat="44.975017365414" lon="11.99168561007224"><ele>0.0</ele><time>2026-03-22T13:43:53.945Z</time></trkpt><trkpt lat="44.974966852947524" lon="11.991772066229004"><ele>0.0</ele><time>2026-03-22T13:43:54.945Z</time></trkpt><trkpt lat="44.97491791246974" lon="11.991855831759862"><ele>0.0</ele><time>2026-03-22T13:43:55.945Z</time></trkpt><trkpt lat="44.97486892867628" lon="11.991939671422832"><ele>0.0</ele><time>2026-03-22T13:43:56.945Z</time></trkpt><trkpt lat="44.97480824290035" lon="11.992043539907701"><ele>0.0</ele><time>2026-03-22T13:43:57.945Z</time></trkpt><trkpt lat="44.974727089135364" lon="11.99218244095804"><ele>0.0</ele><time>2026-03-22T13:43:58.945Z</time></trkpt><trkpt lat="44.97462963487101" lon="11.992349241831175"><ele>0.0</ele><time>2026-03-22T13:43:59.945Z</time></trkpt><trkpt lat="44.97452132302404" lon="11.992534728677459"><ele>0.0</ele><time>2026-03-22T13:44:00.945Z</time></trkpt><trkpt lat="44.97441346864751" lon="11.992758581457803"><ele>0.0</ele><time>2026-03-22T13:44:01.945Z</time></trkpt><trkpt lat="44.9742794572591" lon="11.992987388306265"><ele>0.0</ele><time>2026-03-22T13:44:02.945Z</time></trkpt><trkpt lat="44.97413227401606" lon="11.993245978620184"><ele>-0.5</ele><time>2026-03-22T13:44:03.945Z</time></trkpt><trkpt lat="44.9739655938541" lon="11.993502267150916"><ele>-1.0</ele><time>2026-03-22T13:44:04.945Z</time></trkpt><trkpt lat="44.973806005001904" lon="11.993780115089775"><ele>-1.0</ele><time>2026-03-22T13:44:05.946Z</time></trkpt><trkpt lat="44.97364450645892" lon="11.994061287784936"><ele>-1.0</ele><time>2026-03-22T13:44:06.947Z</time></trkpt><trkpt lat="44.973480432721914" lon="11.99434694536888"><ele>-1.0</ele><time>2026-03-22T13:44:07.948Z</time></trkpt><trkpt lat="44.973315354718004" lon="11.994637290188425"><ele>-1.0</ele><time>2026-03-22T13:44:08.949Z</time></trkpt><trkpt lat="44.9731564121727" lon="11.994927745398059"><ele>-0.5</ele><time>2026-03-22T13:44:09.95Z</time></trkpt><trkpt lat="44.97298808351842" lon="11.995224299963724"><ele>0.0</ele><time>2026-03-22T13:44:10.95Z</time></trkpt><trkpt lat="44.97281559877148" lon="11.995512942751715"><ele>0.0</ele><time>2026-03-22T13:44:11.951Z</time></trkpt><trkpt lat="44.972646911968454" lon="11.995796406998013"><ele>0.0</ele><time>2026-03-22T13:44:12.952Z</time></trkpt><trkpt lat="44.972483712416135" lon="11.996073600084422"><ele>0.0</ele><time>2026-03-22T13:44:13.952Z</time></trkpt><trkpt lat="44.97232247406354" lon="11.99635647228276"><ele>0.0</ele><time>2026-03-22T13:44:14.953Z</time></trkpt><trkpt lat="44.97216852147296" lon="11.996648410628973"><ele>0.0</ele><time>2026-03-22T13:44:15.954Z</time></trkpt><trkpt lat="44.97202053552611" lon="11.996950755033344"><ele>0.0</ele><time>2026-03-22T13:44:16.954Z</time></trkpt><trkpt lat="44.97188364467106" lon="11.997247544918263"><ele>-0.5</ele><time>2026-03-22T13:44:17.955Z</time></trkpt><trkpt lat="44.971749126815155" lon="11.997540369293619"><ele>-1.0</ele><time>2026-03-22T13:44:18.955Z</time></trkpt><trkpt lat="44.97161743936723" lon="11.997823667160928"><ele>-1.0</ele><time>2026-03-22T13:44:19.955Z</time></trkpt><trkpt lat="44.971484770061046" lon="11.998099487636383"><ele>-1.0</ele><time>2026-03-22T13:44:20.956Z</time></trkpt><trkpt lat="44.97134728076141" lon="11.998371826152587"><ele>0.0</ele><time>2026-03-22T13:44:21.956Z</time></trkpt><trkpt lat="44.97120388397227" lon="11.998644220628245"><ele>1.0</ele><time>2026-03-22T13:44:22.956Z</time></trkpt><trkpt lat="44.971061258115576" lon="11.998911689536335"><ele>0.6666666666666666</ele><time>2026-03-22T13:44:23.957Z</time></trkpt><trkpt lat="44.97092244074006" lon="11.999168306109853"><ele>0.3333333333333333</ele><time>2026-03-22T13:44:24.957Z</time></trkpt><trkpt lat="44.97079130588964" lon="11.99941072043977"><ele>0.0</ele><time>2026-03-22T13:44:25.957Z</time></trkpt><trkpt lat="44.970673902375935" lon="11.999623935542413"><ele>-0.3333333333333333</ele><time>2026-03-22T13:44:26.958Z</time></trkpt><trkpt lat="44.97056384818494" lon="11.999813502536888"><ele>-0.6666666666666666</ele><time>2026-03-22T13:44:27.958Z</time></trkpt><trkpt lat="44.970452269233114" lon="11.99996493789345"><ele>-1.0</ele><time>2026-03-22T13:44:28.958Z</time></trkpt><trkpt lat="44.97031970766554" lon="12.000062663599678"><ele>-1.0</ele><time>2026-03-22T13:44:29.958Z</time></trkpt><trkpt lat="44.970164812678746" lon="12.000153001353251"><ele>-1.0</ele><time>2026-03-22T13:44:30.958Z</time></trkpt><trkpt lat="44.97000039961343" lon="12.000239730746642"><ele>-1.0</ele><time>2026-03-22T13:44:31.959Z</time></trkpt><trkpt lat="44.96983327876906" lon="12.000322573326773"><ele>-0.6666666666666666</ele><time>2026-03-22T13:44:32.959Z</time></trkpt><trkpt lat="44.96966975145996" lon="12.000403714871256"><ele>-0.3333333333333333</ele><time>2026-03-22T13:44:33.959Z</time></trkpt><trkpt lat="44.969508274478514" lon="12.000491169565128"><ele>0.0</ele><time>2026-03-22T13:44:34.959Z</time></trkpt><trkpt lat="44.9693510753973" lon="12.00063702071155"><ele>0.0</ele><time>2026-03-22T13:44:35.959Z</time></trkpt><trkpt lat="44.96919524671578" lon="12.00080721136594"><ele>0.0</ele><time>2026-03-22T13:44:36.959Z</time></trkpt><trkpt lat="44.969046231591875" lon="12.000982886106591"><ele>0.0</ele><time>2026-03-22T13:44:37.959Z</time></trkpt><trkpt lat="44.96890667432047" lon="12.001192225350184"><ele>-0.3333333333333333</ele><time>2026-03-22T13:44:38.96Z</time></trkpt><trkpt lat="44.9687996261068" lon="12.00144394801406"><ele>-0.6666666666666666</ele><time>2026-03-22T13:44:39.96Z</time></trkpt><trkpt lat="44.96870117302731" lon="12.001724299873699"><ele>-1.0</ele><time>2026-03-22T13:44:40.96Z</time></trkpt><trkpt lat="44.96861209793322" lon="12.002014036800322"><ele>-1.0</ele><time>2026-03-22T13:44:41.96Z</time></trkpt><trkpt lat="44.96854050661423" lon="12.00231743943991"><ele>-1.0</ele><time>2026-03-22T13:44:42.96Z</time></trkpt><trkpt lat="44.96849770875042" lon="12.002632728186276"><ele>-0.5</ele><time>2026-03-22T13:44:43.96Z</time></trkpt><trkpt lat="44.968448663142205" lon="12.002956376068797"><ele>0.0</ele><time>2026-03-22T13:44:44.96Z</time></trkpt><trkpt lat="44.96839985193666" lon="12.003287478497631"><ele>0.5</ele><time>2026-03-22T13:44:45.96Z</time></trkpt><trkpt lat="44.96835276350452" lon="12.003616249627735"><ele>1.0</ele><time>2026-03-22T13:44:46.96Z</time></trkpt><trkpt lat="44.9683099862053" lon="12.003951017504475"><ele>0.5</ele><time>2026-03-22T13:44:47.96Z</time></trkpt><trkpt lat="44.96824399212656" lon="12.004290877512467"><ele>0.0</ele><time>2026-03-22T13:44:48.96Z</time></trkpt><trkpt lat="44.968192117721074" lon="12.004639283999785"><ele>0.0</ele><time>2026-03-22T13:44:49.96Z</time></trkpt><trkpt lat="44.96813955137477" lon="12.004992335418244"><ele>0.0</ele><time>2026-03-22T13:44:50.96Z</time></trkpt><trkpt lat="44.96808623373464" lon="12.005350429403258"><ele>0.0</ele><time>2026-03-22T13:44:51.96Z</time></trkpt><trkpt lat="44.96803384506952" lon="12.005709366997635"><ele>0.0</ele><time>2026-03-22T13:44:52.96Z</time></trkpt><trkpt lat="44.96800119932642" lon="12.006069453127608"><ele>-1.0</ele><time>2026-03-22T13:44:53.96Z</time></trkpt><trkpt lat="44.967952939442405" lon="12.006418646126216"><ele>-2.0</ele><time>2026-03-22T13:44:54.96Z</time></trkpt><trkpt lat="44.96790432272268" lon="12.006764889909293"><ele>-2.5</ele><time>2026-03-22T13:44:55.96Z</time></trkpt><trkpt lat="44.967853417282306" lon="12.007107832224456"><ele>-3.0</ele><time>2026-03-22T13:44:56.96Z</time></trkpt><trkpt lat="44.96780604134025" lon="12.00745482948045"><ele>-2.5</ele><time>2026-03-22T13:44:57.961Z</time></trkpt><trkpt lat="44.967755497195995" lon="12.007801177971396"><ele>-2.0</ele><time>2026-03-22T13:44:58.961Z</time></trkpt><trkpt lat="44.96770740041037" lon="12.008150025550197"><ele>-2.0</ele><time>2026-03-22T13:44:59.961Z</time></trkpt><trkpt lat="44.96765556142181" lon="12.00849324056253"><ele>-2.0</ele><time>2026-03-22T13:45:00.961Z</time></trkpt><trkpt lat="44.9676025932431" lon="12.008834329673697"><ele>-2.5</ele><time>2026-03-22T13:45:01.961Z</time></trkpt><trkpt lat="44.967551079001765" lon="12.009172361164616"><ele>-3.0</ele><time>2026-03-22T13:45:02.961Z</time></trkpt><trkpt lat="44.96749373727495" lon="12.009510475832405"><ele>-3.0</ele><time>2026-03-22T13:45:03.961Z</time></trkpt><trkpt lat="44.96744249062802" lon="12.009845440289086"><ele>-3.0</ele><time>2026-03-22T13:45:04.961Z</time></trkpt><trkpt lat="44.9673926200158" lon="12.010173804413997"><ele>-3.0</ele><time>2026-03-22T13:45:05.961Z</time></trkpt><trkpt lat="44.96733947070319" lon="12.010498710302342"><ele>-3.0</ele><time>2026-03-22T13:45:06.961Z</time></trkpt><trkpt lat="44.96728945078241" lon="12.010831054767491"><ele>-3.0</ele><time>2026-03-22T13:45:07.961Z</time></trkpt><trkpt lat="44.96724466556752" lon="12.011156758708516"><ele>-3.0</ele><time>2026-03-22T13:45:08.961Z</time></trkpt><trkpt lat="44.967193993865564" lon="12.011465646729595"><ele>-2.6666666666666665</ele><time>2026-03-22T13:45:09.961Z</time></trkpt><trkpt lat="44.967142435952105" lon="12.011767020326092"><ele>-2.333333333333333</ele><time>2026-03-22T13:45:10.961Z</time></trkpt><trkpt lat="44.967099038910305" lon="12.012066858458642"><ele>-2.0</ele><time>2026-03-22T13:45:11.961Z</time></trkpt><trkpt lat="44.96705507924655" lon="12.012345189268752"><ele>-2.333333333333333</ele><time>2026-03-22T13:45:12.961Z</time></trkpt><trkpt lat="44.967012113432915" lon="12.012610305024534"><ele>-2.6666666666666665</ele><time>2026-03-22T13:45:13.961Z</time></trkpt><trkpt lat="44.96697177835171" lon="12.01285932531965"><ele>-3.0</ele><time>2026-03-22T13:45:14.961Z</time></trkpt><trkpt lat="44.96693382149623" lon="12.013089967812494"><ele>-3.0</ele><time>2026-03-22T13:45:15.961Z</time></trkpt><trkpt lat="44.96690025393161" lon="12.01329321323922"><ele>-3.0</ele><time>2026-03-22T13:45:16.961Z</time></trkpt><trkpt lat="44.96687864883405" lon="12.013477511988075"><ele>-3.0</ele><time>2026-03-22T13:45:17.96Z</time></trkpt><trkpt lat="44.96685975492732" lon="12.013642774823307"><ele>-3.0</ele><time>2026-03-22T13:45:18.961Z</time></trkpt><trkpt lat="44.96684087458916" lon="12.013793527285975"><ele>-3.0</ele><time>2026-03-22T13:45:19.961Z</time></trkpt><trkpt lat="44.96682045748152" lon="12.013937423357666"><ele>-3.0</ele><time>2026-03-22T13:45:20.961Z</time></trkpt><trkpt lat="44.96680360095337" lon="12.014058105152925"><ele>-3.0</ele><time>2026-03-22T13:45:21.961Z</time></trkpt><trkpt lat="44.966791250649386" lon="12.014157995156484"><ele>-3.0</ele><time>2026-03-22T13:45:22.961Z</time></trkpt><trkpt lat="44.966746140184526" lon="12.014306501075241"><ele>-3.0</ele><time>2026-03-22T13:45:24.962Z</time></trkpt><trkpt lat="44.96665023038229" lon="12.014348422056965"><ele>-2.8</ele><time>2026-03-22T13:45:26.962Z</time></trkpt><trkpt lat="44.9665653034695" lon="12.014320366562352"><ele>-2.5999999999999996</ele><time>2026-03-22T13:45:27.962Z</time></trkpt><trkpt lat="44.96645774073679" lon="12.014313256858193"><ele>-2.4000000000000004</ele><time>2026-03-22T13:45:28.961Z</time></trkpt><trkpt lat="44.96634590671888" lon="12.014333508320354"><ele>-2.2</ele><time>2026-03-22T13:45:29.961Z</time></trkpt><trkpt lat="44.9662257505809" lon="12.014362383923542"><ele>-2.0</ele><time>2026-03-22T13:45:30.961Z</time></trkpt><trkpt lat="44.9660972315117" lon="12.014417107179803"><ele>-2.0</ele><time>2026-03-22T13:45:31.962Z</time></trkpt><trkpt lat="44.96596908378396" lon="12.01447163081796"><ele>-2.0</ele><time>2026-03-22T13:45:32.962Z</time></trkpt><trkpt lat="44.96584415083728" lon="12.014521362809273"><ele>-2.0</ele><time>2026-03-22T13:45:33.962Z</time></trkpt><trkpt lat="44.96571184456854" lon="12.014563118124531"><ele>-2.0</ele><time>2026-03-22T13:45:34.962Z</time></trkpt><trkpt lat="44.96556021776879" lon="12.01460256779495"><ele>-1.6666666666666665</ele><time>2026-03-22T13:45:35.962Z</time></trkpt><trkpt lat="44.9653767828211" lon="12.014649501402804"><ele>-1.3333333333333333</ele><time>2026-03-22T13:45:36.962Z</time></trkpt><trkpt lat="44.96518560536998" lon="12.01469577778224"><ele>-1.0</ele><time>2026-03-22T13:45:37.962Z</time></trkpt><trkpt lat="44.96498819851376" lon="12.014737510203469"><ele>-1.0</ele><time>2026-03-22T13:45:38.962Z</time></trkpt><trkpt lat="44.964781611550386" lon="12.014781410046051"><ele>-1.0</ele><time>2026-03-22T13:45:39.962Z</time></trkpt><trkpt lat="44.964569326079534" lon="12.014832071604225"><ele>-1.0</ele><time>2026-03-22T13:45:40.962Z</time></trkpt><trkpt lat="44.96434552372292" lon="12.014882525848389"><ele>-1.0</ele><time>2026-03-22T13:45:41.961Z</time></trkpt><trkpt lat="44.964114986186765" lon="12.014940561663778"><ele>-1.0</ele><time>2026-03-22T13:45:42.961Z</time></trkpt><trkpt lat="44.96388524439089" lon="12.01499107239071"><ele>-1.0</ele><time>2026-03-22T13:45:43.961Z</time></trkpt><trkpt lat="44.9636467419759" lon="12.015046267610144"><ele>-1.0</ele><time>2026-03-22T13:45:44.961Z</time></trkpt><trkpt lat="44.96340752513382" lon="12.015091035119353"><ele>-2.5</ele><time>2026-03-22T13:45:45.961Z</time></trkpt><trkpt lat="44.96317337619677" lon="12.015145506944213"><ele>-4.0</ele><time>2026-03-22T13:45:46.961Z</time></trkpt><trkpt lat="44.96293738581509" lon="12.01520279267064"><ele>-4.0</ele><time>2026-03-22T13:45:47.961Z</time></trkpt><trkpt lat="44.96270392729475" lon="12.01525076147833"><ele>-4.0</ele><time>2026-03-22T13:45:48.961Z</time></trkpt><trkpt lat="44.96247015333935" lon="12.015294772195173"><ele>-4.0</ele><time>2026-03-22T13:45:49.961Z</time></trkpt><trkpt lat="44.96223055413715" lon="12.015325421622817"><ele>-4.0</ele><time>2026-03-22T13:45:50.961Z</time></trkpt><trkpt lat="44.96198598340108" lon="12.015340010544298"><ele>-4.0</ele><time>2026-03-22T13:45:51.961Z</time></trkpt><trkpt lat="44.96173755670923" lon="12.015349173228424"><ele>-4.0</ele><time>2026-03-22T13:45:52.961Z</time></trkpt><trkpt lat="44.96148401358918" lon="12.015346434444233"><ele>-4.0</ele><time>2026-03-22T13:45:53.961Z</time></trkpt><trkpt lat="44.96123079826903" lon="12.015350941879746"><ele>-4.0</ele><time>2026-03-22T13:45:54.961Z</time></trkpt><trkpt lat="44.960979029117546" lon="12.015354664629424"><ele>-4.0</ele><time>2026-03-22T13:45:55.961Z</time></trkpt><trkpt lat="44.96072309395676" lon="12.015364822202816"><ele>-4.0</ele><time>2026-03-22T13:45:56.961Z</time></trkpt><trkpt lat="44.9604725047698" lon="12.015381014477018"><ele>-4.0</ele><time>2026-03-22T13:45:57.961Z</time></trkpt><trkpt lat="44.960222683352676" lon="12.015387088767948"><ele>-4.0</ele><time>2026-03-22T13:45:58.961Z</time></trkpt><trkpt lat="44.95996962612476" lon="12.015272282968946"><ele>-4.0</ele><time>2026-03-22T13:45:59.961Z</time></trkpt><trkpt lat="44.95971362601464" lon="12.015281228961058"><ele>-4.0</ele><time>2026-03-22T13:46:00.961Z</time></trkpt><trkpt lat="44.959458629098066" lon="12.015290691221812"><ele>-4.0</ele><time>2026-03-22T13:46:01.961Z</time></trkpt><trkpt lat="44.95920084778415" lon="12.015300256798913"><ele>-4.0</ele><time>2026-03-22T13:46:02.961Z</time></trkpt><trkpt lat="44.95894109130104" lon="12.015309895677381"><ele>-3.5</ele><time>2026-03-22T13:46:03.961Z</time></trkpt><trkpt lat="44.95868294799493" lon="12.01531947469112"><ele>-3.0</ele><time>2026-03-22T13:46:04.961Z</time></trkpt><trkpt lat="44.95842784863524" lon="12.015328139722866"><ele>-3.0</ele><time>2026-03-22T13:46:05.961Z</time></trkpt><trkpt lat="44.95816915800454" lon="12.015336842910731"><ele>-3.0</ele><time>2026-03-22T13:46:06.961Z</time></trkpt><trkpt lat="44.95791511148385" lon="12.015345389848267"><ele>-3.0</ele><time>2026-03-22T13:46:07.961Z</time></trkpt><trkpt lat="44.957661554868395" lon="12.015353920308563"><ele>-3.0</ele><time>2026-03-22T13:46:08.961Z</time></trkpt><trkpt lat="44.957408818691974" lon="12.015362423158203"><ele>-3.0</ele><time>2026-03-22T13:46:09.961Z</time></trkpt><trkpt lat="44.9571548078419" lon="12.015371649381372"><ele>-3.0</ele><time>2026-03-22T13:46:10.961Z</time></trkpt><trkpt lat="44.9569001442541" lon="12.015381465472894"><ele>-4.0</ele><time>2026-03-22T13:46:11.961Z</time></trkpt><trkpt lat="44.95664085175551" lon="12.015391266414587"><ele>-5.0</ele><time>2026-03-22T13:46:12.961Z</time></trkpt><trkpt lat="44.956376923071005" lon="12.015399571863352"><ele>-5.0</ele><time>2026-03-22T13:46:13.961Z</time></trkpt><trkpt lat="44.95611149400814" lon="12.01540792645115"><ele>-5.0</ele><time>2026-03-22T13:46:14.961Z</time></trkpt><trkpt lat="44.955842396342746" lon="12.015416394557233"><ele>-5.5</ele><time>2026-03-22T13:46:15.961Z</time></trkpt><trkpt lat="44.95556736514724" lon="12.01542504939319"><ele>-6.0</ele><time>2026-03-22T13:46:16.961Z</time></trkpt><trkpt lat="44.95529477440399" lon="12.015433627423837"><ele>-5.0</ele><time>2026-03-22T13:46:17.961Z</time></trkpt><trkpt lat="44.955007125450045" lon="12.015442679310842"><ele>-4.0</ele><time>2026-03-22T13:46:18.961Z</time></trkpt><trkpt lat="44.954724486959684" lon="12.015451573526516"><ele>-4.0</ele><time>2026-03-22T13:46:19.961Z</time></trkpt><trkpt lat="44.954443402913206" lon="12.015460755320916"><ele>-4.0</ele><time>2026-03-22T13:46:20.961Z</time></trkpt><trkpt lat="44.954165118549206" lon="12.015471018182023"><ele>-4.0</ele><time>2026-03-22T13:46:21.961Z</time></trkpt><trkpt lat="44.9538777955466" lon="12.015481614373389"><ele>-4.0</ele><time>2026-03-22T13:46:22.961Z</time></trkpt><trkpt lat="44.953597052524934" lon="12.015491967899711"><ele>-4.0</ele><time>2026-03-22T13:46:23.961Z</time></trkpt><trkpt lat="44.9533230280418" lon="12.015502073662875"><ele>-4.0</ele><time>2026-03-22T13:46:24.961Z</time></trkpt><trkpt lat="44.9530577042273" lon="12.015511610064781"><ele>-4.0</ele><time>2026-03-22T13:46:25.961Z</time></trkpt><trkpt lat="44.95280293935517" lon="12.01552003139083"><ele>-4.0</ele><time>2026-03-22T13:46:26.961Z</time></trkpt><trkpt lat="44.95255844531963" lon="12.01552811321098"><ele>-4.5</ele><time>2026-03-22T13:46:27.961Z</time></trkpt><trkpt lat="44.95232043161654" lon="12.015535657312347"><ele>-5.0</ele><time>2026-03-22T13:46:28.961Z</time></trkpt><trkpt lat="44.95208561947115" lon="12.01554292865928"><ele>-5.0</ele><time>2026-03-22T13:46:29.961Z</time></trkpt><trkpt lat="44.951843674361825" lon="12.015550420889051"><ele>-5.0</ele><time>2026-03-22T13:46:30.96Z</time></trkpt><trkpt lat="44.95159792195021" lon="12.015558031018758"><ele>-5.5</ele><time>2026-03-22T13:46:31.96Z</time></trkpt><trkpt lat="44.95134433249513" lon="12.015565885744744"><ele>-6.0</ele><time>2026-03-22T13:46:32.96Z</time></trkpt><trkpt lat="44.95108574171067" lon="12.01557475831242"><ele>-5.5</ele><time>2026-03-22T13:46:33.96Z</time></trkpt><trkpt lat="44.950826671365746" lon="12.015585323157573"><ele>-5.0</ele><time>2026-03-22T13:46:34.96Z</time></trkpt><trkpt lat="44.950566149656204" lon="12.015595947187371"><ele>-5.0</ele><time>2026-03-22T13:46:35.96Z</time></trkpt><trkpt lat="44.95030669809358" lon="12.015606527575494"><ele>-5.0</ele><time>2026-03-22T13:46:36.96Z</time></trkpt><trkpt lat="44.950044031061495" lon="12.01561709309518"><ele>-4.5</ele><time>2026-03-22T13:46:37.96Z</time></trkpt><trkpt lat="44.949782814115096" lon="12.015624475032336"><ele>-4.0</ele><time>2026-03-22T13:46:38.96Z</time></trkpt><trkpt lat="44.94953022835564" lon="12.015631613054081"><ele>-4.0</ele><time>2026-03-22T13:46:39.96Z</time></trkpt><trkpt lat="44.94931740964922" lon="12.015637627247095"><ele>-4.0</ele><time>2026-03-22T13:46:40.96Z</time></trkpt><trkpt lat="44.949119113430115" lon="12.015643230902853"><ele>-4.0</ele><time>2026-03-22T13:46:41.96Z</time></trkpt><trkpt lat="44.94893148437693" lon="12.015648533036053"><ele>-4.333333333333333</ele><time>2026-03-22T13:46:42.96Z</time></trkpt><trkpt lat="44.94873205374895" lon="12.015654168663147"><ele>-4.666666666666667</ele><time>2026-03-22T13:46:43.96Z</time></trkpt><trkpt lat="44.948517490825544" lon="12.015684169927393"><ele>-5.0</ele><time>2026-03-22T13:46:44.96Z</time></trkpt><trkpt lat="44.94828958443213" lon="12.01569065325461"><ele>-5.5</ele><time>2026-03-22T13:46:45.96Z</time></trkpt><trkpt lat="44.94805440575962" lon="12.015700162818817"><ele>-6.0</ele><time>2026-03-22T13:46:46.96Z</time></trkpt><trkpt lat="44.94781905735163" lon="12.015709233056409"><ele>-6.0</ele><time>2026-03-22T13:46:47.96Z</time></trkpt><trkpt lat="44.947590940159415" lon="12.015716399977215"><ele>-6.0</ele><time>2026-03-22T13:46:48.96Z</time></trkpt><trkpt lat="44.94738124209376" lon="12.015724653761497"><ele>-6.0</ele><time>2026-03-22T13:46:49.96Z</time></trkpt><trkpt lat="44.9471912933096" lon="12.015732384694635"><ele>-5.666666666666667</ele><time>2026-03-22T13:46:50.96Z</time></trkpt><trkpt lat="44.9470115036565" lon="12.015735578199116"><ele>-5.333333333333334</ele><time>2026-03-22T13:46:51.96Z</time></trkpt><trkpt lat="44.94683478747895" lon="12.015743493261661"><ele>-5.0</ele><time>2026-03-22T13:46:52.96Z</time></trkpt><trkpt lat="44.94664327258724" lon="12.015760360398176"><ele>-4.666666666666667</ele><time>2026-03-22T13:46:53.96Z</time></trkpt><trkpt lat="44.94644486797663" lon="12.015765070509236"><ele>-4.333333333333333</ele><time>2026-03-22T13:46:54.96Z</time></trkpt><trkpt lat="44.94624453107901" lon="12.01577553111439"><ele>-4.0</ele><time>2026-03-22T13:46:55.96Z</time></trkpt><trkpt lat="44.946066755548976" lon="12.01577842157158"><ele>-4.0</ele><time>2026-03-22T13:46:56.96Z</time></trkpt><trkpt lat="44.945900096449726" lon="12.015781983740387"><ele>-4.0</ele><time>2026-03-22T13:46:57.96Z</time></trkpt><trkpt lat="44.945739888873334" lon="12.01580136846017"><ele>-4.0</ele><time>2026-03-22T13:46:58.96Z</time></trkpt><trkpt lat="44.94559733770633" lon="12.015824188750653"><ele>-4.0</ele><time>2026-03-22T13:46:59.96Z</time></trkpt><trkpt lat="44.94547019514458" lon="12.01584103003687"><ele>-4.0</ele><time>2026-03-22T13:47:00.96Z</time></trkpt><trkpt lat="44.945341671284694" lon="12.015874677954296"><ele>-4.0</ele><time>2026-03-22T13:47:01.96Z</time></trkpt><trkpt lat="44.94522679032289" lon="12.01594872486659"><ele>-4.0</ele><time>2026-03-22T13:47:02.96Z</time></trkpt><trkpt lat="44.94511026299524" lon="12.0160733296737"><ele>-4.0</ele><time>2026-03-22T13:47:03.96Z</time></trkpt><trkpt lat="44.9449953539946" lon="12.01625394688399"><ele>-4.0</ele><time>2026-03-22T13:47:04.96Z</time></trkpt><trkpt lat="44.94486991867632" lon="12.01647294659255"><ele>-4.0</ele><time>2026-03-22T13:47:05.96Z</time></trkpt><trkpt lat="44.944743023476434" lon="12.016718716839675"><ele>-4.0</ele><time>2026-03-22T13:47:06.96Z</time></trkpt><trkpt lat="44.94461048418859" lon="12.016973513195696"><ele>-4.0</ele><time>2026-03-22T13:47:07.96Z</time></trkpt><trkpt lat="44.944480762343424" lon="12.0172054545349"><ele>-4.0</ele><time>2026-03-22T13:47:08.96Z</time></trkpt><trkpt lat="44.944360045036845" lon="12.01743021176077"><ele>-4.333333333333333</ele><time>2026-03-22T13:47:09.96Z</time></trkpt><trkpt lat="44.94425358386465" lon="12.017632937170402"><ele>-4.666666666666667</ele><time>2026-03-22T13:47:10.96Z</time></trkpt><trkpt lat="44.94415046405865" lon="12.017823110524231"><ele>-5.0</ele><time>2026-03-22T13:47:11.96Z</time></trkpt><trkpt lat="44.94404718187361" lon="12.018015493883043"><ele>-5.0</ele><time>2026-03-22T13:47:12.96Z</time></trkpt><trkpt lat="44.9439373283016" lon="12.0182099363174"><ele>-5.0</ele><time>2026-03-22T13:47:13.96Z</time></trkpt><trkpt lat="44.94383122305944" lon="12.018399178369961"><ele>-5.0</ele><time>2026-03-22T13:47:14.96Z</time></trkpt><trkpt lat="44.94370287706217" lon="12.01858957350972"><ele>-4.666666666666667</ele><time>2026-03-22T13:47:15.96Z</time></trkpt><trkpt lat="44.94355577454811" lon="12.01877030187152"><ele>-4.333333333333333</ele><time>2026-03-22T13:47:16.96Z</time></trkpt><trkpt lat="44.943379956357546" lon="12.018935559859484"><ele>-4.0</ele><time>2026-03-22T13:47:17.96Z</time></trkpt><trkpt lat="44.943189326646454" lon="12.019090815350193"><ele>-4.333333333333333</ele><time>2026-03-22T13:47:18.959Z</time></trkpt><trkpt lat="44.94298550241347" lon="12.019221264501017"><ele>-4.666666666666667</ele><time>2026-03-22T13:47:19.959Z</time></trkpt><trkpt lat="44.942786773079376" lon="12.019345583070534"><ele>-5.0</ele><time>2026-03-22T13:47:20.959Z</time></trkpt><trkpt lat="44.94260517679844" lon="12.019461736682773"><ele>-5.333333333333334</ele><time>2026-03-22T13:47:21.959Z</time></trkpt><trkpt lat="44.94244041339223" lon="12.019565327276668"><ele>-5.666666666666667</ele><time>2026-03-22T13:47:22.959Z</time></trkpt><trkpt lat="44.94230663625224" lon="12.019662538981288"><ele>-6.0</ele><time>2026-03-22T13:47:23.959Z</time></trkpt><trkpt lat="44.94219983455365" lon="12.01977490095577"><ele>-6.0</ele><time>2026-03-22T13:47:24.96Z</time></trkpt><trkpt lat="44.94210365649574" lon="12.019933802573783"><ele>-6.0</ele><time>2026-03-22T13:47:25.96Z</time></trkpt><trkpt lat="44.94202791586333" lon="12.020142490901044"><ele>-6.0</ele><time>2026-03-22T13:47:26.96Z</time></trkpt><trkpt lat="44.94197257865767" lon="12.02040062078319"><ele>-6.333333333333334</ele><time>2026-03-22T13:47:27.96Z</time></trkpt><trkpt lat="44.9419217104979" lon="12.020682170884662"><ele>-6.666666666666667</ele><time>2026-03-22T13:47:28.96Z</time></trkpt><trkpt lat="44.94187086019633" lon="12.020968192177037"><ele>-7.0</ele><time>2026-03-22T13:47:29.96Z</time></trkpt><trkpt lat="44.94181503040842" lon="12.02126119026308"><ele>-7.0</ele><time>2026-03-22T13:47:30.96Z</time></trkpt><trkpt lat="44.94175789339802" lon="12.02155928283546"><ele>-7.0</ele><time>2026-03-22T13:47:31.961Z</time></trkpt><trkpt lat="44.94169861080492" lon="12.02186345192677"><ele>-7.0</ele><time>2026-03-22T13:47:32.961Z</time></trkpt><trkpt lat="44.94164145271949" lon="12.022162215178335"><ele>-7.0</ele><time>2026-03-22T13:47:33.961Z</time></trkpt><trkpt lat="44.941582005650716" lon="12.022440845760498"><ele>-7.0</ele><time>2026-03-22T13:47:34.961Z</time></trkpt><trkpt lat="44.941529443578794" lon="12.022694549251906"><ele>-7.0</ele><time>2026-03-22T13:47:35.961Z</time></trkpt><trkpt lat="44.94147644567407" lon="12.022926994331295"><ele>-6.666666666666667</ele><time>2026-03-22T13:47:36.96Z</time></trkpt><trkpt lat="44.94143616934561" lon="12.023143916398185"><ele>-6.333333333333334</ele><time>2026-03-22T13:47:37.961Z</time></trkpt><trkpt lat="44.941381820009" lon="12.023348323064118"><ele>-6.0</ele><time>2026-03-22T13:47:38.961Z</time></trkpt><trkpt lat="44.94130729217794" lon="12.023526387472764"><ele>-6.0</ele><time>2026-03-22T13:47:39.961Z</time></trkpt><trkpt lat="44.94120664346499" lon="12.023680361755197"><ele>-6.0</ele><time>2026-03-22T13:47:40.961Z</time></trkpt><trkpt lat="44.941068575087215" lon="12.023793357634528"><ele>-6.0</ele><time>2026-03-22T13:47:41.961Z</time></trkpt><trkpt lat="44.9409184460491" lon="12.023877696048128"><ele>-5.666666666666667</ele><time>2026-03-22T13:47:42.961Z</time></trkpt><trkpt lat="44.94074599399254" lon="12.023904505731446"><ele>-5.333333333333334</ele><time>2026-03-22T13:47:43.961Z</time></trkpt><trkpt lat="44.94056050427893" lon="12.023914692937774"><ele>-5.0</ele><time>2026-03-22T13:47:44.961Z</time></trkpt><trkpt lat="44.94034897851712" lon="12.023939601547857"><ele>-5.0</ele><time>2026-03-22T13:47:45.961Z</time></trkpt><trkpt lat="44.94013315591429" lon="12.023973040196301"><ele>-5.0</ele><time>2026-03-22T13:47:46.961Z</time></trkpt><trkpt lat="44.93990828541636" lon="12.02401132448136"><ele>-5.0</ele><time>2026-03-22T13:47:47.961Z</time></trkpt><trkpt lat="44.93967947644173" lon="12.024049655382166"><ele>-5.0</ele><time>2026-03-22T13:47:48.961Z</time></trkpt><trkpt lat="44.93944181023344" lon="12.02409453430952"><ele>-5.0</ele><time>2026-03-22T13:47:49.961Z</time></trkpt><trkpt lat="44.93920124472374" lon="12.024147593433304"><ele>-5.0</ele><time>2026-03-22T13:47:50.961Z</time></trkpt><trkpt lat="44.93896177245588" lon="12.024198720617594"><ele>-5.0</ele><time>2026-03-22T13:47:51.961Z</time></trkpt><trkpt lat="44.93872175130617" lon="12.024245658685235"><ele>-5.0</ele><time>2026-03-22T13:47:52.961Z</time></trkpt><trkpt lat="44.938483003439586" lon="12.02427738380538"><ele>-5.0</ele><time>2026-03-22T13:47:53.961Z</time></trkpt><trkpt lat="44.93824037328159" lon="12.024322207345229"><ele>-5.5</ele><time>2026-03-22T13:47:54.96Z</time></trkpt><trkpt lat="44.93799900399948" lon="12.02437922742625"><ele>-6.0</ele><time>2026-03-22T13:47:55.96Z</time></trkpt><trkpt lat="44.93775846722309" lon="12.024417506239237"><ele>-5.666666666666667</ele><time>2026-03-22T13:47:56.96Z</time></trkpt><trkpt lat="44.9375295564443" lon="12.024452122969059"><ele>-5.333333333333334</ele><time>2026-03-22T13:47:57.96Z</time></trkpt><trkpt lat="44.937319201971825" lon="12.024490691613874"><ele>-5.0</ele><time>2026-03-22T13:47:58.96Z</time></trkpt><trkpt lat="44.93711197385272" lon="12.024515839344494"><ele>-5.0</ele><time>2026-03-22T13:47:59.96Z</time></trkpt><trkpt lat="44.93692186851701" lon="12.024564563611788"><ele>-5.0</ele><time>2026-03-22T13:48:00.96Z</time></trkpt><trkpt lat="44.936735438292516" lon="12.024609671701123"><ele>-5.0</ele><time>2026-03-22T13:48:01.96Z</time></trkpt><trkpt lat="44.93654762205418" lon="12.02467313738159"><ele>-5.0</ele><time>2026-03-22T13:48:02.96Z</time></trkpt><trkpt lat="44.93636025475319" lon="12.024782326036805"><ele>-5.0</ele><time>2026-03-22T13:48:03.96Z</time></trkpt><trkpt lat="44.9361870153281" lon="12.024919844550725"><ele>-5.0</ele><time>2026-03-22T13:48:04.96Z</time></trkpt><trkpt lat="44.93603694342211" lon="12.02509325812237"><ele>-5.333333333333334</ele><time>2026-03-22T13:48:05.96Z</time></trkpt><trkpt lat="44.93588412719859" lon="12.025281703221047"><ele>-5.666666666666667</ele><time>2026-03-22T13:48:06.96Z</time></trkpt><trkpt lat="44.93573447529933" lon="12.025469228555808"><ele>-6.0</ele><time>2026-03-22T13:48:07.96Z</time></trkpt><trkpt lat="44.93561610304929" lon="12.02562136622873"><ele>-6.0</ele><time>2026-03-22T13:48:08.96Z</time></trkpt><trkpt lat="44.935511492490846" lon="12.02577536901057"><ele>-6.0</ele><time>2026-03-22T13:48:09.96Z</time></trkpt><trkpt lat="44.93543793825281" lon="12.02594182823505"><ele>-6.0</ele><time>2026-03-22T13:48:10.96Z</time></trkpt><trkpt lat="44.93539096838525" lon="12.026138198089665"><ele>-6.0</ele><time>2026-03-22T13:48:11.96Z</time></trkpt><trkpt lat="44.93537128070183" lon="12.026373876631618"><ele>-5.333333333333333</ele><time>2026-03-22T13:48:12.96Z</time></trkpt><trkpt lat="44.93539211756792" lon="12.026627401607936"><ele>-4.666666666666666</ele><time>2026-03-22T13:48:13.96Z</time></trkpt><trkpt lat="44.935433191740884" lon="12.02692251440747"><ele>-4.0</ele><time>2026-03-22T13:48:14.96Z</time></trkpt><trkpt lat="44.9354687064752" lon="12.027226293748193"><ele>-4.666666666666666</ele><time>2026-03-22T13:48:15.96Z</time></trkpt><trkpt lat="44.93548332806218" lon="12.027507920944629"><ele>-5.333333333333333</ele><time>2026-03-22T13:48:16.96Z</time></trkpt><trkpt lat="44.93550334003939" lon="12.027793298281498"><ele>-6.0</ele><time>2026-03-22T13:48:17.96Z</time></trkpt><trkpt lat="44.93550902460047" lon="12.028079610669016"><ele>-6.333333333333334</ele><time>2026-03-22T13:48:18.96Z</time></trkpt><trkpt lat="44.93549148308756" lon="12.028350585477925"><ele>-6.666666666666667</ele><time>2026-03-22T13:48:19.96Z</time></trkpt><trkpt lat="44.93544306202838" lon="12.028609489441584"><ele>-7.0</ele><time>2026-03-22T13:48:20.96Z</time></trkpt><trkpt lat="44.93537833871695" lon="12.028861325706634"><ele>-7.0</ele><time>2026-03-22T13:48:21.96Z</time></trkpt><trkpt lat="44.93528162685736" lon="12.029100075041557"><ele>-7.0</ele><time>2026-03-22T13:48:22.96Z</time></trkpt><trkpt lat="44.93515776797624" lon="12.02933768162361"><ele>-7.0</ele><time>2026-03-22T13:48:23.96Z</time></trkpt><trkpt lat="44.93501136404521" lon="12.02956292863084"><ele>-7.0</ele><time>2026-03-22T13:48:24.96Z</time></trkpt><trkpt lat="44.934856734667" lon="12.029786607406429"><ele>-7.0</ele><time>2026-03-22T13:48:25.96Z</time></trkpt><trkpt lat="44.93470615785761" lon="12.030006350302353"><ele>-7.0</ele><time>2026-03-22T13:48:26.96Z</time></trkpt><trkpt lat="44.934574361022115" lon="12.030216599449929"><ele>-7.0</ele><time>2026-03-22T13:48:27.96Z</time></trkpt><trkpt lat="44.934449997905574" lon="12.030407048283728"><ele>-7.0</ele><time>2026-03-22T13:48:28.96Z</time></trkpt><trkpt lat="44.93433385262889" lon="12.030596054320755"><ele>-7.0</ele><time>2026-03-22T13:48:29.96Z</time></trkpt><trkpt lat="44.93423884338344" lon="12.030787288994471"><ele>-6.666666666666667</ele><time>2026-03-22T13:48:30.96Z</time></trkpt><trkpt lat="44.93415940149691" lon="12.030991630996041"><ele>-6.333333333333334</ele><time>2026-03-22T13:48:31.96Z</time></trkpt><trkpt lat="44.9340923508978" lon="12.031209782241076"><ele>-6.0</ele><time>2026-03-22T13:48:32.96Z</time></trkpt><trkpt lat="44.934057837358665" lon="12.0314486463777"><ele>-5.666666666666667</ele><time>2026-03-22T13:48:33.96Z</time></trkpt><trkpt lat="44.93403888908001" lon="12.031710150312119"><ele>-5.333333333333334</ele><time>2026-03-22T13:48:34.96Z</time></trkpt><trkpt lat="44.934048969147184" lon="12.03198485608794"><ele>-5.0</ele><time>2026-03-22T13:48:35.96Z</time></trkpt><trkpt lat="44.934064154254905" lon="12.032248507414888"><ele>-5.0</ele><time>2026-03-22T13:48:36.96Z</time></trkpt><trkpt lat="44.93407508088373" lon="12.03251772088434"><ele>-5.0</ele><time>2026-03-22T13:48:37.96Z</time></trkpt><trkpt lat="44.93408930336674" lon="12.032803988566409"><ele>-5.0</ele><time>2026-03-22T13:48:38.96Z</time></trkpt><trkpt lat="44.93409530465065" lon="12.033085724544355"><ele>-4.666666666666667</ele><time>2026-03-22T13:48:39.96Z</time></trkpt><trkpt lat="44.93410683491756" lon="12.03336476743178"><ele>-4.333333333333333</ele><time>2026-03-22T13:48:40.96Z</time></trkpt><trkpt lat="44.93411716678576" lon="12.033633497524438"><ele>-4.0</ele><time>2026-03-22T13:48:41.96Z</time></trkpt><trkpt lat="44.934104504025534" lon="12.033895633059878"><ele>-3.6666666666666665</ele><time>2026-03-22T13:48:42.959Z</time></trkpt><trkpt lat="44.93407599148394" lon="12.034165966776415"><ele>-3.333333333333333</ele><time>2026-03-22T13:48:43.959Z</time></trkpt><trkpt lat="44.93401736201055" lon="12.034427540043684"><ele>-3.0</ele><time>2026-03-22T13:48:44.959Z</time></trkpt><trkpt lat="44.93392370708485" lon="12.034694884836917"><ele>-3.0</ele><time>2026-03-22T13:48:45.959Z</time></trkpt><trkpt lat="44.93379757171002" lon="12.03494149935622"><ele>-3.0</ele><time>2026-03-22T13:48:46.959Z</time></trkpt><trkpt lat="44.93365504739661" lon="12.035185450842743"><ele>-3.0</ele><time>2026-03-22T13:48:47.959Z</time></trkpt><trkpt lat="44.933504542086126" lon="12.035447597724845"><ele>-4.5</ele><time>2026-03-22T13:48:48.959Z</time></trkpt><trkpt lat="44.93336680723613" lon="12.035714486638888"><ele>-6.0</ele><time>2026-03-22T13:48:49.959Z</time></trkpt><trkpt lat="44.93324271704742" lon="12.035973711564317"><ele>-6.0</ele><time>2026-03-22T13:48:50.959Z</time></trkpt><trkpt lat="44.93311812917449" lon="12.036207150371993"><ele>-6.0</ele><time>2026-03-22T13:48:51.959Z</time></trkpt><trkpt lat="44.933001713433754" lon="12.036436833683398"><ele>-6.0</ele><time>2026-03-22T13:48:52.959Z</time></trkpt><trkpt lat="44.93289754461592" lon="12.036654591727505"><ele>-6.0</ele><time>2026-03-22T13:48:53.959Z</time></trkpt><trkpt lat="44.932795321119244" lon="12.036867579875548"><ele>-6.0</ele><time>2026-03-22T13:48:54.959Z</time></trkpt><trkpt lat="44.93268923667613" lon="12.037060195517041"><ele>-6.0</ele><time>2026-03-22T13:48:55.959Z</time></trkpt><trkpt lat="44.93257304619467" lon="12.037248147897426"><ele>-6.0</ele><time>2026-03-22T13:48:56.959Z</time></trkpt><trkpt lat="44.93244390984646" lon="12.037424101158214"><ele>-6.0</ele><time>2026-03-22T13:48:57.959Z</time></trkpt><trkpt lat="44.932284426226346" lon="12.037572906985359"><ele>-6.0</ele><time>2026-03-22T13:48:58.959Z</time></trkpt><trkpt lat="44.932094833067495" lon="12.037684320011632"><ele>-6.333333333333334</ele><time>2026-03-22T13:48:59.959Z</time></trkpt><trkpt lat="44.931886204053846" lon="12.037755598580228"><ele>-6.666666666666667</ele><time>2026-03-22T13:49:00.959Z</time></trkpt><trkpt lat="44.93166467415995" lon="12.037786607230709"><ele>-7.0</ele><time>2026-03-22T13:49:01.959Z</time></trkpt><trkpt lat="44.93143472752402" lon="12.037810947071979"><ele>-7.0</ele><time>2026-03-22T13:49:02.959Z</time></trkpt><trkpt lat="44.93119397717744" lon="12.037831769237586"><ele>-7.0</ele><time>2026-03-22T13:49:03.959Z</time></trkpt><trkpt lat="44.930956844202065" lon="12.03786216444334"><ele>-7.0</ele><time>2026-03-22T13:49:04.959Z</time></trkpt><trkpt lat="44.930726608043706" lon="12.037887850160038"><ele>-7.0</ele><time>2026-03-22T13:49:05.959Z</time></trkpt><trkpt lat="44.9305001732186" lon="12.03791444877062"><ele>-7.0</ele><time>2026-03-22T13:49:06.959Z</time></trkpt><trkpt lat="44.93027122784485" lon="12.037949815147106"><ele>-7.0</ele><time>2026-03-22T13:49:07.959Z</time></trkpt><trkpt lat="44.93004170867651" lon="12.037980516008675"><ele>-6.5</ele><time>2026-03-22T13:49:08.959Z</time></trkpt><trkpt lat="44.92981306283277" lon="12.038015114784468"><ele>-6.0</ele><time>2026-03-22T13:49:09.959Z</time></trkpt><trkpt lat="44.92958834743374" lon="12.038049567480183"><ele>-6.0</ele><time>2026-03-22T13:49:10.959Z</time></trkpt><trkpt lat="44.92935779714619" lon="12.03807315047207"><ele>-6.0</ele><time>2026-03-22T13:49:11.959Z</time></trkpt><trkpt lat="44.92915169698355" lon="12.038095124483744"><ele>-6.0</ele><time>2026-03-22T13:49:12.959Z</time></trkpt><trkpt lat="44.928952350879044" lon="12.03812318652164"><ele>-6.0</ele><time>2026-03-22T13:49:13.959Z</time></trkpt><trkpt lat="44.928781585311064" lon="12.038144957260304"><ele>-6.0</ele><time>2026-03-22T13:49:14.959Z</time></trkpt><trkpt lat="44.92861924341699" lon="12.03817596499856"><ele>-6.0</ele><time>2026-03-22T13:49:15.959Z</time></trkpt><trkpt lat="44.92847130909583" lon="12.0382411980933"><ele>-6.333333333333334</ele><time>2026-03-22T13:49:16.959Z</time></trkpt><trkpt lat="44.92831400935038" lon="12.038303793751675"><ele>-6.666666666666667</ele><time>2026-03-22T13:49:17.959Z</time></trkpt><trkpt lat="44.92817623818056" lon="12.038426279592711"><ele>-7.0</ele><time>2026-03-22T13:49:18.959Z</time></trkpt><trkpt lat="44.928040855629455" lon="12.038585672099302"><ele>-7.0</ele><time>2026-03-22T13:49:19.959Z</time></trkpt><trkpt lat="44.92792566965552" lon="12.03877007886762"><ele>-7.0</ele><time>2026-03-22T13:49:20.959Z</time></trkpt><trkpt lat="44.927837319336874" lon="12.039001402624594"><ele>-7.0</ele><time>2026-03-22T13:49:21.959Z</time></trkpt><trkpt lat="44.92777225314631" lon="12.039251378890377"><ele>-7.0</ele><time>2026-03-22T13:49:22.959Z</time></trkpt><trkpt lat="44.92773668353135" lon="12.039528314932861"><ele>-7.0</ele><time>2026-03-22T13:49:23.959Z</time></trkpt><trkpt lat="44.92772833351695" lon="12.03983251486421"><ele>-7.0</ele><time>2026-03-22T13:49:24.959Z</time></trkpt><trkpt lat="44.92774335356271" lon="12.040144277597474"><ele>-6.5</ele><time>2026-03-22T13:49:25.959Z</time></trkpt><trkpt lat="44.92778938379285" lon="12.040491488329895"><ele>-6.0</ele><time>2026-03-22T13:49:26.959Z</time></trkpt><trkpt lat="44.92780592494814" lon="12.040851541101269"><ele>-6.0</ele><time>2026-03-22T13:49:27.959Z</time></trkpt><trkpt lat="44.92782389658042" lon="12.041204620319597"><ele>-6.0</ele><time>2026-03-22T13:49:28.959Z</time></trkpt><trkpt lat="44.927822176041694" lon="12.041558959141152"><ele>-6.5</ele><time>2026-03-22T13:49:29.959Z</time></trkpt><trkpt lat="44.92783169728227" lon="12.041911972917745"><ele>-7.0</ele><time>2026-03-22T13:49:30.96Z</time></trkpt><trkpt lat="44.92783352615324" lon="12.042266272510009"><ele>-7.0</ele><time>2026-03-22T13:49:31.959Z</time></trkpt><trkpt lat="44.9278355731863" lon="12.042615782097434"><ele>-7.0</ele><time>2026-03-22T13:49:32.959Z</time></trkpt><trkpt lat="44.92783738839821" lon="12.042968591830352"><ele>-7.0</ele><time>2026-03-22T13:49:33.96Z</time></trkpt><trkpt lat="44.92783130126211" lon="12.043323613424553"><ele>-7.0</ele><time>2026-03-22T13:49:34.96Z</time></trkpt><trkpt lat="44.92783797864315" lon="12.043675742992264"><ele>-7.0</ele><time>2026-03-22T13:49:35.96Z</time></trkpt><trkpt lat="44.927839510599874" lon="12.044027436475648"><ele>-7.0</ele><time>2026-03-22T13:49:36.96Z</time></trkpt><trkpt lat="44.92783801762559" lon="12.04437793502286"><ele>-6.5</ele><time>2026-03-22T13:49:37.959Z</time></trkpt><trkpt lat="44.92784160947223" lon="12.044725316001765"><ele>-6.0</ele><time>2026-03-22T13:49:38.959Z</time></trkpt><trkpt lat="44.92784099709953" lon="12.045054135395016"><ele>-6.0</ele><time>2026-03-22T13:49:39.96Z</time></trkpt><trkpt lat="44.92784407593006" lon="12.045372724648884"><ele>-6.0</ele><time>2026-03-22T13:49:40.959Z</time></trkpt><trkpt lat="44.92785019255942" lon="12.045672161400057"><ele>-6.0</ele><time>2026-03-22T13:49:41.959Z</time></trkpt><trkpt lat="44.927851484417424" lon="12.045947996786603"><ele>-6.0</ele><time>2026-03-22T13:49:42.959Z</time></trkpt><trkpt lat="44.92785025693821" lon="12.046199539205636"><ele>-6.0</ele><time>2026-03-22T13:49:43.96Z</time></trkpt><trkpt lat="44.92784444713252" lon="12.046437818020218"><ele>-6.0</ele><time>2026-03-22T13:49:44.96Z</time></trkpt><trkpt lat="44.92785821902463" lon="12.04664628305645"><ele>-6.0</ele><time>2026-03-22T13:49:45.96Z</time></trkpt><trkpt lat="44.92786030112736" lon="12.04684751188356"><ele>-6.0</ele><time>2026-03-22T13:49:46.96Z</time></trkpt><trkpt lat="44.92786208262513" lon="12.047028411373939"><ele>-6.0</ele><time>2026-03-22T13:49:47.96Z</time></trkpt><trkpt lat="44.92786298544934" lon="12.047178687624415"><ele>-6.0</ele><time>2026-03-22T13:49:48.96Z</time></trkpt><trkpt lat="44.92785960413119" lon="12.047316005933432"><ele>-6.0</ele><time>2026-03-22T13:49:49.96Z</time></trkpt><trkpt lat="44.927859615453606" lon="12.047426091152495"><ele>-6.0</ele><time>2026-03-22T13:49:50.96Z</time></trkpt><trkpt lat="44.92785863382258" lon="12.04758050590821"><ele>-6.0</ele><time>2026-03-22T13:49:52.959Z</time></trkpt><trkpt lat="44.927860661821505" lon="12.047679209068765"><ele>-6.0</ele><time>2026-03-22T13:49:54.959Z</time></trkpt><trkpt lat="44.92793296226247" lon="12.047662668819825"><ele>-6.0</ele><time>2026-03-22T13:49:56.959Z</time></trkpt><trkpt lat="44.92801083861421" lon="12.047662265540563"><ele>-6.0</ele><time>2026-03-22T13:49:57.959Z</time></trkpt><trkpt lat="44.92813666469084" lon="12.047661613965085"><ele>-5.666666666666667</ele><time>2026-03-22T13:49:58.959Z</time></trkpt><trkpt lat="44.92829440824859" lon="12.04766079710066"><ele>-5.333333333333334</ele><time>2026-03-22T13:49:59.959Z</time></trkpt><trkpt lat="44.92844144311837" lon="12.047682074658777"><ele>-5.0</ele><time>2026-03-22T13:50:00.959Z</time></trkpt><trkpt lat="44.928612172651846" lon="12.047664618942717"><ele>-5.0</ele><time>2026-03-22T13:50:01.959Z</time></trkpt><trkpt lat="44.928794003187456" lon="12.047659814680586"><ele>-5.0</ele><time>2026-03-22T13:50:02.959Z</time></trkpt><trkpt lat="44.92899836181278" lon="12.04765081683394"><ele>-5.0</ele><time>2026-03-22T13:50:03.959Z</time></trkpt><trkpt lat="44.92920697387032" lon="12.047640275340697"><ele>-5.666666666666667</ele><time>2026-03-22T13:50:04.959Z</time></trkpt><trkpt lat="44.92942350327789" lon="12.047640100905637"><ele>-6.333333333333334</ele><time>2026-03-22T13:50:05.959Z</time></trkpt><trkpt lat="44.929641331831384" lon="12.047654509952936"><ele>-7.0</ele><time>2026-03-22T13:50:06.959Z</time></trkpt><trkpt lat="44.9298596366133" lon="12.04767923561383"><ele>-6.5</ele><time>2026-03-22T13:50:07.959Z</time></trkpt><trkpt lat="44.93007569020798" lon="12.047724596298387"><ele>-6.0</ele><time>2026-03-22T13:50:08.959Z</time></trkpt><trkpt lat="44.93030663135199" lon="12.047810812956547"><ele>-6.0</ele><time>2026-03-22T13:50:09.959Z</time></trkpt><trkpt lat="44.93052817615784" lon="12.047918258678115"><ele>-6.0</ele><time>2026-03-22T13:50:10.959Z</time></trkpt><trkpt lat="44.930749585338866" lon="12.048065558157365"><ele>-6.0</ele><time>2026-03-22T13:50:11.959Z</time></trkpt><trkpt lat="44.93098436629338" lon="12.04819765046662"><ele>-6.0</ele><time>2026-03-22T13:50:12.959Z</time></trkpt><trkpt lat="44.931216008372346" lon="12.048323680382005"><ele>-6.0</ele><time>2026-03-22T13:50:13.959Z</time></trkpt><trkpt lat="44.93144456246639" lon="12.04844803021161"><ele>-6.0</ele><time>2026-03-22T13:50:14.959Z</time></trkpt><trkpt lat="44.93166209446746" lon="12.048565312334956"><ele>-5.666666666666667</ele><time>2026-03-22T13:50:15.959Z</time></trkpt><trkpt lat="44.93186212970787" lon="12.048652718654681"><ele>-5.333333333333334</ele><time>2026-03-22T13:50:16.959Z</time></trkpt><trkpt lat="44.93207129725065" lon="12.048696309347413"><ele>-5.0</ele><time>2026-03-22T13:50:17.959Z</time></trkpt><trkpt lat="44.93227862246027" lon="12.048737726882445"><ele>-5.0</ele><time>2026-03-22T13:50:18.959Z</time></trkpt><trkpt lat="44.93247368951776" lon="12.048734871298956"><ele>-5.0</ele><time>2026-03-22T13:50:19.959Z</time></trkpt><trkpt lat="44.93267439283268" lon="12.048691866960318"><ele>-5.0</ele><time>2026-03-22T13:50:20.959Z</time></trkpt><trkpt lat="44.9328861204237" lon="12.048609375066912"><ele>-5.333333333333334</ele><time>2026-03-22T13:50:21.959Z</time></trkpt><trkpt lat="44.93308419110276" lon="12.048487630723535"><ele>-5.666666666666667</ele><time>2026-03-22T13:50:22.959Z</time></trkpt><trkpt lat="44.93326998711271" lon="12.04831145424613"><ele>-6.0</ele><time>2026-03-22T13:50:23.959Z</time></trkpt><trkpt lat="44.933450183360286" lon="12.048107299326096"><ele>-6.0</ele><time>2026-03-22T13:50:24.959Z</time></trkpt><trkpt lat="44.93364142703569" lon="12.047892501669006"><ele>-6.0</ele><time>2026-03-22T13:50:25.959Z</time></trkpt><trkpt lat="44.933832868107295" lon="12.047669395427171"><ele>-6.0</ele><time>2026-03-22T13:50:26.959Z</time></trkpt><trkpt lat="44.934011140547014" lon="12.047461290232187"><ele>-6.0</ele><time>2026-03-22T13:50:27.959Z</time></trkpt><trkpt lat="44.9341871993313" lon="12.047261041425287"><ele>-6.0</ele><time>2026-03-22T13:50:28.959Z</time></trkpt><trkpt lat="44.93434678573289" lon="12.047048808105005"><ele>-6.0</ele><time>2026-03-22T13:50:29.959Z</time></trkpt><trkpt lat="44.93450967400508" lon="12.046860805692633"><ele>-6.0</ele><time>2026-03-22T13:50:30.959Z</time></trkpt><trkpt lat="44.93468311539952" lon="12.04670282717535"><ele>-6.0</ele><time>2026-03-22T13:50:31.959Z</time></trkpt><trkpt lat="44.934841174039185" lon="12.046528122627503"><ele>-6.0</ele><time>2026-03-22T13:50:32.959Z</time></trkpt><trkpt lat="44.9350181122397" lon="12.046375013497505"><ele>-6.0</ele><time>2026-03-22T13:50:33.959Z</time></trkpt><trkpt lat="44.93520932815616" lon="12.046249357598294"><ele>-5.5</ele><time>2026-03-22T13:50:34.959Z</time></trkpt><trkpt lat="44.935429499950914" lon="12.046183407048874"><ele>-5.0</ele><time>2026-03-22T13:50:35.959Z</time></trkpt><trkpt lat="44.935653639987876" lon="12.046163455900931"><ele>-5.0</ele><time>2026-03-22T13:50:36.959Z</time></trkpt><trkpt lat="44.935888250302895" lon="12.046175561079416"><ele>-5.0</ele><time>2026-03-22T13:50:37.959Z</time></trkpt><trkpt lat="44.93612291559132" lon="12.046185753183698"><ele>-5.0</ele><time>2026-03-22T13:50:38.959Z</time></trkpt><trkpt lat="44.93637679181755" lon="12.04618763304668"><ele>-5.0</ele><time>2026-03-22T13:50:39.958Z</time></trkpt><trkpt lat="44.936626492228065" lon="12.046187876571631"><ele>-4.5</ele><time>2026-03-22T13:50:40.958Z</time></trkpt><trkpt lat="44.93687311568592" lon="12.046183514378082"><ele>-4.0</ele><time>2026-03-22T13:50:41.958Z</time></trkpt><trkpt lat="44.93711191814013" lon="12.04618528829428"><ele>-4.0</ele><time>2026-03-22T13:50:42.958Z</time></trkpt><trkpt lat="44.93734422331976" lon="12.046180754328244"><ele>-4.0</ele><time>2026-03-22T13:50:43.958Z</time></trkpt><trkpt lat="44.93756672561169" lon="12.046172735705328"><ele>-4.666666666666666</ele><time>2026-03-22T13:50:44.958Z</time></trkpt><trkpt lat="44.937782825895795" lon="12.046167621026312"><ele>-5.333333333333333</ele><time>2026-03-22T13:50:45.958Z</time></trkpt><trkpt lat="44.93798731018207" lon="12.046169857616599"><ele>-6.0</ele><time>2026-03-22T13:50:46.958Z</time></trkpt><trkpt lat="44.938187686136075" lon="12.046162638414309"><ele>-6.0</ele><time>2026-03-22T13:50:47.958Z</time></trkpt><trkpt lat="44.93838293720705" lon="12.046149924045904"><ele>-6.0</ele><time>2026-03-22T13:50:48.958Z</time></trkpt><trkpt lat="44.938562961495364" lon="12.04614800093883"><ele>-6.0</ele><time>2026-03-22T13:50:49.958Z</time></trkpt><trkpt lat="44.93872799454815" lon="12.046137630163553"><ele>-6.0</ele><time>2026-03-22T13:50:50.958Z</time></trkpt><trkpt lat="44.9388768514685" lon="12.046129101185546"><ele>-6.0</ele><time>2026-03-22T13:50:51.958Z</time></trkpt><trkpt lat="44.939009092155096" lon="12.046140264761124"><ele>-6.0</ele><time>2026-03-22T13:50:52.958Z</time></trkpt><trkpt lat="44.93913593375642" lon="12.046195417812358"><ele>-6.0</ele><time>2026-03-22T13:50:53.958Z</time></trkpt><trkpt lat="44.93924663706693" lon="12.046322077980816"><ele>-6.0</ele><time>2026-03-22T13:50:54.958Z</time></trkpt><trkpt lat="44.93933366329725" lon="12.046512189992923"><ele>-6.0</ele><time>2026-03-22T13:50:55.958Z</time></trkpt><trkpt lat="44.93938992807668" lon="12.046729917363304"><ele>-6.0</ele><time>2026-03-22T13:50:56.958Z</time></trkpt><trkpt lat="44.939457449628506" lon="12.04696301537494"><ele>-6.0</ele><time>2026-03-22T13:50:57.958Z</time></trkpt><trkpt lat="44.939501506308666" lon="12.0472225807206"><ele>-6.0</ele><time>2026-03-22T13:50:58.958Z</time></trkpt><trkpt lat="44.939594752335324" lon="12.047490271602914"><ele>-6.0</ele><time>2026-03-22T13:50:59.958Z</time></trkpt><trkpt lat="44.93968896024876" lon="12.047764058886989"><ele>-6.0</ele><time>2026-03-22T13:51:00.958Z</time></trkpt><trkpt lat="44.939780605795555" lon="12.0480317726932"><ele>-6.0</ele><time>2026-03-22T13:51:01.958Z</time></trkpt><trkpt lat="44.93988112440699" lon="12.048313291241822"><ele>-6.0</ele><time>2026-03-22T13:51:02.958Z</time></trkpt><trkpt lat="44.939985247262904" lon="12.04860531611341"><ele>-6.0</ele><time>2026-03-22T13:51:03.958Z</time></trkpt><trkpt lat="44.94009028854447" lon="12.04890530253388"><ele>-6.0</ele><time>2026-03-22T13:51:04.958Z</time></trkpt><trkpt lat="44.94019455939351" lon="12.049203089093998"><ele>-6.5</ele><time>2026-03-22T13:51:05.958Z</time></trkpt><trkpt lat="44.940298985464786" lon="12.049501777536808"><ele>-7.0</ele><time>2026-03-22T13:51:06.958Z</time></trkpt><trkpt lat="44.940398699507305" lon="12.049787282055611"><ele>-7.0</ele><time>2026-03-22T13:51:07.958Z</time></trkpt><trkpt lat="44.94050596605596" lon="12.050047586247581"><ele>-7.0</ele><time>2026-03-22T13:51:08.958Z</time></trkpt><trkpt lat="44.94059203655885" lon="12.050304238349222"><ele>-7.0</ele><time>2026-03-22T13:51:09.958Z</time></trkpt><trkpt lat="44.94067199295517" lon="12.050548201618478"><ele>-7.0</ele><time>2026-03-22T13:51:10.958Z</time></trkpt><trkpt lat="44.940736506832955" lon="12.050768928598306"><ele>-7.0</ele><time>2026-03-22T13:51:11.958Z</time></trkpt><trkpt lat="44.94081548801619" lon="12.050976578417483"><ele>-7.0</ele><time>2026-03-22T13:51:12.958Z</time></trkpt><trkpt lat="44.940911526696034" lon="12.051160605965032"><ele>-6.333333333333334</ele><time>2026-03-22T13:51:13.958Z</time></trkpt><trkpt lat="44.94103999099995" lon="12.051329562871992"><ele>-5.666666666666667</ele><time>2026-03-22T13:51:14.958Z</time></trkpt><trkpt lat="44.94118616689312" lon="12.05145545806595"><ele>-5.0</ele><time>2026-03-22T13:51:15.958Z</time></trkpt><trkpt lat="44.94137105868946" lon="12.051546717331819"><ele>-5.0</ele><time>2026-03-22T13:51:16.958Z</time></trkpt><trkpt lat="44.94158481033127" lon="12.051623583285444"><ele>-5.0</ele><time>2026-03-22T13:51:17.958Z</time></trkpt><trkpt lat="44.94179807464206" lon="12.051687912932882"><ele>-5.0</ele><time>2026-03-22T13:51:18.958Z</time></trkpt><trkpt lat="44.942040305719445" lon="12.051767533515426"><ele>-5.5</ele><time>2026-03-22T13:51:19.958Z</time></trkpt><trkpt lat="44.94229657600041" lon="12.0518506078966"><ele>-6.0</ele><time>2026-03-22T13:51:20.958Z</time></trkpt><trkpt lat="44.94255507468364" lon="12.051937571225105"><ele>-6.0</ele><time>2026-03-22T13:51:21.958Z</time></trkpt><trkpt lat="44.942819375224936" lon="12.05202186473259"><ele>-6.0</ele><time>2026-03-22T13:51:22.958Z</time></trkpt><trkpt lat="44.943097151680064" lon="12.05210482978164"><ele>-6.0</ele><time>2026-03-22T13:51:23.958Z</time></trkpt><trkpt lat="44.94337151212133" lon="12.0521978996281"><ele>-6.0</ele><time>2026-03-22T13:51:24.958Z</time></trkpt><trkpt lat="44.94364823468532" lon="12.05228028128946"><ele>-5.5</ele><time>2026-03-22T13:51:25.958Z</time></trkpt><trkpt lat="44.943921099873506" lon="12.052371472609735"><ele>-5.0</ele><time>2026-03-22T13:51:26.957Z</time></trkpt><trkpt lat="44.944189973205695" lon="12.052465876902179"><ele>-4.5</ele><time>2026-03-22T13:51:27.957Z</time></trkpt><trkpt lat="44.9444464312194" lon="12.052554361847914"><ele>-4.0</ele><time>2026-03-22T13:51:28.957Z</time></trkpt><trkpt lat="44.944688392608" lon="12.052644954932985"><ele>-4.0</ele><time>2026-03-22T13:51:29.957Z</time></trkpt><trkpt lat="44.94490937489131" lon="12.05273097508845"><ele>-4.0</ele><time>2026-03-22T13:51:30.957Z</time></trkpt><trkpt lat="44.94511245473859" lon="12.052812790038375"><ele>-4.0</ele><time>2026-03-22T13:51:31.957Z</time></trkpt><trkpt lat="44.94530606197062" lon="12.052880463680507"><ele>-4.0</ele><time>2026-03-22T13:51:32.957Z</time></trkpt><trkpt lat="44.94550264997621" lon="12.052940442248588"><ele>-4.0</ele><time>2026-03-22T13:51:33.957Z</time></trkpt><trkpt lat="44.9457027975963" lon="12.052970019281734"><ele>-4.0</ele><time>2026-03-22T13:51:34.957Z</time></trkpt><trkpt lat="44.94591276387356" lon="12.052947551146842"><ele>-4.0</ele><time>2026-03-22T13:51:35.957Z</time></trkpt><trkpt lat="44.94613583811701" lon="12.05289658048417"><ele>-4.0</ele><time>2026-03-22T13:51:36.959Z</time></trkpt><trkpt lat="44.94636617161937" lon="12.052838609017474"><ele>-4.0</ele><time>2026-03-22T13:51:37.959Z</time></trkpt><trkpt lat="44.94659902676743" lon="12.052789176139067"><ele>-4.0</ele><time>2026-03-22T13:51:38.959Z</time></trkpt><trkpt lat="44.9468293908097" lon="12.05273964110082"><ele>-4.5</ele><time>2026-03-22T13:51:39.958Z</time></trkpt><trkpt lat="44.94705274472395" lon="12.052669407758154"><ele>-5.0</ele><time>2026-03-22T13:51:40.959Z</time></trkpt><trkpt lat="44.947277752251736" lon="12.052638784567593"><ele>-5.0</ele><time>2026-03-22T13:51:41.959Z</time></trkpt><trkpt lat="44.94748590201026" lon="12.052592063187209"><ele>-5.0</ele><time>2026-03-22T13:51:42.958Z</time></trkpt><trkpt lat="44.947656275851884" lon="12.052518123357148"><ele>-5.0</ele><time>2026-03-22T13:51:43.958Z</time></trkpt><trkpt lat="44.947811167986465" lon="12.052438494818492"><ele>-5.0</ele><time>2026-03-22T13:51:44.958Z</time></trkpt><trkpt lat="44.94794662263674" lon="12.052311701423491"><ele>-5.0</ele><time>2026-03-22T13:51:45.958Z</time></trkpt><trkpt lat="44.948095515341066" lon="12.052118763928581"><ele>-5.0</ele><time>2026-03-22T13:51:46.959Z</time></trkpt><trkpt lat="44.948256105307856" lon="12.051886431364913"><ele>-4.5</ele><time>2026-03-22T13:51:47.959Z</time></trkpt><trkpt lat="44.94841936459804" lon="12.051649456370841"><ele>-4.0</ele><time>2026-03-22T13:51:48.959Z</time></trkpt><trkpt lat="44.94858829853745" lon="12.051404244122422"><ele>-4.0</ele><time>2026-03-22T13:51:49.958Z</time></trkpt><trkpt lat="44.94875577333473" lon="12.051160016418557"><ele>-4.0</ele><time>2026-03-22T13:51:50.958Z</time></trkpt><trkpt lat="44.94892011504701" lon="12.050919834040766"><ele>-3.5</ele><time>2026-03-22T13:51:51.958Z</time></trkpt><trkpt lat="44.94907856556624" lon="12.050687867423258"><ele>-3.0</ele><time>2026-03-22T13:51:52.958Z</time></trkpt><trkpt lat="44.9492323713834" lon="12.0504600254435"><ele>-3.666666666666667</ele><time>2026-03-22T13:51:53.958Z</time></trkpt><trkpt lat="44.94936416171483" lon="12.050264801813853"><ele>-4.333333333333334</ele><time>2026-03-22T13:51:54.958Z</time></trkpt><trkpt lat="44.94948975190431" lon="12.050078764954044"><ele>-5.0</ele><time>2026-03-22T13:51:55.958Z</time></trkpt><trkpt lat="44.94962790062763" lon="12.049941730277292"><ele>-5.0</ele><time>2026-03-22T13:51:56.958Z</time></trkpt><trkpt lat="44.94974753498874" lon="12.04979228540939"><ele>-5.0</ele><time>2026-03-22T13:51:57.958Z</time></trkpt><trkpt lat="44.94988767031562" lon="12.049663162862627"><ele>-5.0</ele><time>2026-03-22T13:51:58.958Z</time></trkpt><trkpt lat="44.950058271627086" lon="12.04956091303155"><ele>-4.333333333333334</ele><time>2026-03-22T13:51:59.958Z</time></trkpt><trkpt lat="44.95024727792767" lon="12.049508378791092"><ele>-3.666666666666667</ele><time>2026-03-22T13:52:00.958Z</time></trkpt><trkpt lat="44.95045297610646" lon="12.049515762506626"><ele>-3.0</ele><time>2026-03-22T13:52:01.958Z</time></trkpt><trkpt lat="44.950672913460714" lon="12.049540683148672"><ele>-4.0</ele><time>2026-03-22T13:52:02.958Z</time></trkpt><trkpt lat="44.95090178107976" lon="12.049556223641863"><ele>-5.0</ele><time>2026-03-22T13:52:03.958Z</time></trkpt><trkpt lat="44.951136866370405" lon="12.049565913670435"><ele>-5.0</ele><time>2026-03-22T13:52:04.958Z</time></trkpt><trkpt lat="44.95137354806644" lon="12.049575437358694"><ele>-5.0</ele><time>2026-03-22T13:52:05.958Z</time></trkpt><trkpt lat="44.95160767714226" lon="12.049575400229203"><ele>-4.5</ele><time>2026-03-22T13:52:06.958Z</time></trkpt><trkpt lat="44.95184123849116" lon="12.049577308320542"><ele>-4.0</ele><time>2026-03-22T13:52:07.958Z</time></trkpt><trkpt lat="44.95207102358458" lon="12.049588152179602"><ele>-4.0</ele><time>2026-03-22T13:52:08.958Z</time></trkpt><trkpt lat="44.95229632721561" lon="12.04959949799366"><ele>-4.0</ele><time>2026-03-22T13:52:09.958Z</time></trkpt><trkpt lat="44.95251012550636" lon="12.04961288504243"><ele>-4.0</ele><time>2026-03-22T13:52:10.958Z</time></trkpt><trkpt lat="44.95271938466265" lon="12.0496220016727"><ele>-4.333333333333333</ele><time>2026-03-22T13:52:11.958Z</time></trkpt><trkpt lat="44.952931382849364" lon="12.049621554869434"><ele>-4.666666666666667</ele><time>2026-03-22T13:52:12.958Z</time></trkpt><trkpt lat="44.95314791910164" lon="12.049627373920236"><ele>-5.0</ele><time>2026-03-22T13:52:13.957Z</time></trkpt><trkpt lat="44.953362242518125" lon="12.049639132310233"><ele>-4.0</ele><time>2026-03-22T13:52:14.957Z</time></trkpt><trkpt lat="44.9535878657232" lon="12.049634726675373"><ele>-3.0</ele><time>2026-03-22T13:52:15.957Z</time></trkpt><trkpt lat="44.95381960099379" lon="12.049600347365732"><ele>-3.0</ele><time>2026-03-22T13:52:16.957Z</time></trkpt><trkpt lat="44.95405237926687" lon="12.049544170652654"><ele>-3.0</ele><time>2026-03-22T13:52:17.957Z</time></trkpt><trkpt lat="44.95429559027094" lon="12.049476765106702"><ele>-4.5</ele><time>2026-03-22T13:52:18.957Z</time></trkpt><trkpt lat="44.954541202488066" lon="12.049413944354598"><ele>-6.0</ele><time>2026-03-22T13:52:19.957Z</time></trkpt><trkpt lat="44.95479184639545" lon="12.04934604815429"><ele>-5.0</ele><time>2026-03-22T13:52:20.957Z</time></trkpt><trkpt lat="44.955046282101584" lon="12.049272038372445"><ele>-4.0</ele><time>2026-03-22T13:52:21.957Z</time></trkpt><trkpt lat="44.95530164635987" lon="12.04919945796351"><ele>-4.0</ele><time>2026-03-22T13:52:22.957Z</time></trkpt><trkpt lat="44.9555600655923" lon="12.049128950560625"><ele>-4.0</ele><time>2026-03-22T13:52:23.957Z</time></trkpt><trkpt lat="44.955822764585776" lon="12.049054837119215"><ele>-4.0</ele><time>2026-03-22T13:52:24.957Z</time></trkpt><trkpt lat="44.956083990870795" lon="12.048982326188133"><ele>-4.0</ele><time>2026-03-22T13:52:25.957Z</time></trkpt><trkpt lat="44.9563424168402" lon="12.048897751285411"><ele>-4.0</ele><time>2026-03-22T13:52:26.957Z</time></trkpt><trkpt lat="44.95659930417561" lon="12.048818699076786"><ele>-4.0</ele><time>2026-03-22T13:52:27.957Z</time></trkpt><trkpt lat="44.95686279682086" lon="12.048742899950463"><ele>-4.5</ele><time>2026-03-22T13:52:28.957Z</time></trkpt><trkpt lat="44.957104828793554" lon="12.048671483941051"><ele>-5.0</ele><time>2026-03-22T13:52:29.957Z</time></trkpt><trkpt lat="44.95735106078733" lon="12.04858414955269"><ele>-5.0</ele><time>2026-03-22T13:52:30.957Z</time></trkpt><trkpt lat="44.95760385314555" lon="12.048511292827394"><ele>-5.0</ele><time>2026-03-22T13:52:31.957Z</time></trkpt><trkpt lat="44.95785678607752" lon="12.048436029999552"><ele>-5.0</ele><time>2026-03-22T13:52:32.957Z</time></trkpt><trkpt lat="44.958109994985804" lon="12.048361220619185"><ele>-5.0</ele><time>2026-03-22T13:52:33.957Z</time></trkpt><trkpt lat="44.95837073137176" lon="12.04828826646202"><ele>-4.5</ele><time>2026-03-22T13:52:34.957Z</time></trkpt><trkpt lat="44.95862766787821" lon="12.048218036069754"><ele>-4.0</ele><time>2026-03-22T13:52:35.957Z</time></trkpt><trkpt lat="44.95887676965255" lon="12.048134931274571"><ele>-4.0</ele><time>2026-03-22T13:52:36.957Z</time></trkpt><trkpt lat="44.959123782119704" lon="12.048068393715264"><ele>-4.0</ele><time>2026-03-22T13:52:37.957Z</time></trkpt><trkpt lat="44.959372333338216" lon="12.047994378850218"><ele>-4.0</ele><time>2026-03-22T13:52:38.957Z</time></trkpt><trkpt lat="44.95962505228068" lon="12.047918734260154"><ele>-4.0</ele><time>2026-03-22T13:52:39.957Z</time></trkpt><trkpt lat="44.95986745966287" lon="12.04785083801933"><ele>-3.5</ele><time>2026-03-22T13:52:40.957Z</time></trkpt><trkpt lat="44.960097293978265" lon="12.047775608523454"><ele>-3.0</ele><time>2026-03-22T13:52:41.957Z</time></trkpt><trkpt lat="44.96032517353259" lon="12.04772202125807"><ele>-3.0</ele><time>2026-03-22T13:52:42.957Z</time></trkpt><trkpt lat="44.960551260989504" lon="12.047654485332194"><ele>-3.0</ele><time>2026-03-22T13:52:43.957Z</time></trkpt><trkpt lat="44.9607531977623" lon="12.047590246347749"><ele>-3.0</ele><time>2026-03-22T13:52:44.957Z</time></trkpt><trkpt lat="44.9609389596605" lon="12.047542194833623"><ele>-2.6666666666666665</ele><time>2026-03-22T13:52:45.957Z</time></trkpt><trkpt lat="44.96111332598678" lon="12.047489184384606"><ele>-2.333333333333333</ele><time>2026-03-22T13:52:46.957Z</time></trkpt><trkpt lat="44.961277231464884" lon="12.047451421303416"><ele>-2.0</ele><time>2026-03-22T13:52:47.957Z</time></trkpt><trkpt lat="44.96142899196559" lon="12.047405487619887"><ele>-2.0</ele><time>2026-03-22T13:52:48.957Z</time></trkpt><trkpt lat="44.96157328048822" lon="12.047373853351457"><ele>-2.0</ele><time>2026-03-22T13:52:49.957Z</time></trkpt><trkpt lat="44.96170673282785" lon="12.047327000604783"><ele>-2.0</ele><time>2026-03-22T13:52:50.957Z</time></trkpt><trkpt lat="44.96182744322223" lon="12.047279960368442"><ele>-2.0</ele><time>2026-03-22T13:52:51.957Z</time></trkpt><trkpt lat="44.96194096574483" lon="12.047246536970382"><ele>-1.6666666666666665</ele><time>2026-03-22T13:52:52.957Z</time></trkpt><trkpt lat="44.9620407174103" lon="12.047215871690517"><ele>-1.3333333333333333</ele><time>2026-03-22T13:52:53.957Z</time></trkpt><trkpt lat="44.962127831813945" lon="12.047181330002017"><ele>-1.0</ele><time>2026-03-22T13:52:54.957Z</time></trkpt><trkpt lat="44.96219073255567" lon="12.047166666981434"><ele>-0.6666666666666666</ele><time>2026-03-22T13:52:55.957Z</time></trkpt><trkpt lat="44.962277699923455" lon="12.047129352670659"><ele>-0.3333333333333333</ele><time>2026-03-22T13:52:57.957Z</time></trkpt><trkpt lat="44.962356267757286" lon="12.047156676679945"><ele>0.0</ele><time>2026-03-22T13:52:59.957Z</time></trkpt><trkpt lat="44.9623812146458" lon="12.04733738931834"><ele>-0.25</ele><time>2026-03-22T13:53:01.956Z</time></trkpt><trkpt lat="44.962407025277386" lon="12.047474978081432"><ele>-0.5</ele><time>2026-03-22T13:53:02.956Z</time></trkpt><trkpt lat="44.962438065689334" lon="12.04763553740721"><ele>-0.75</ele><time>2026-03-22T13:53:03.956Z</time></trkpt><trkpt lat="44.962477123789505" lon="12.047831742281728"><ele>-1.0</ele><time>2026-03-22T13:53:04.956Z</time></trkpt><trkpt lat="44.96251572805288" lon="12.04804375090497"><ele>-1.0</ele><time>2026-03-22T13:53:05.956Z</time></trkpt><trkpt lat="44.962560662231745" lon="12.048281884700494"><ele>-1.0</ele><time>2026-03-22T13:53:06.956Z</time></trkpt><trkpt lat="44.96257121740813" lon="12.048566427556892"><ele>-1.0</ele><time>2026-03-22T13:53:07.956Z</time></trkpt><trkpt lat="44.962627816383545" lon="12.04886558064653"><ele>-0.5</ele><time>2026-03-22T13:53:08.956Z</time></trkpt><trkpt lat="44.96268675377333" lon="12.049176969426837"><ele>0.0</ele><time>2026-03-22T13:53:09.956Z</time></trkpt><trkpt lat="44.96274805172365" lon="12.049500829970544"><ele>0.0</ele><time>2026-03-22T13:53:10.956Z</time></trkpt><trkpt lat="44.962811308068545" lon="12.049837919806247"><ele>0.0</ele><time>2026-03-22T13:53:11.956Z</time></trkpt><trkpt lat="44.96287707388707" lon="12.050185221035425"><ele>-1.0</ele><time>2026-03-22T13:53:12.956Z</time></trkpt><trkpt lat="44.962944801788694" lon="12.050542204449195"><ele>-2.0</ele><time>2026-03-22T13:53:13.956Z</time></trkpt><trkpt lat="44.96301246492733" lon="12.050898846501195"><ele>-2.5</ele><time>2026-03-22T13:53:14.956Z</time></trkpt><trkpt lat="44.963081526707974" lon="12.051262860570601"><ele>-3.0</ele><time>2026-03-22T13:53:15.956Z</time></trkpt><trkpt lat="44.96314955507441" lon="12.05162423297391"><ele>-3.5</ele><time>2026-03-22T13:53:16.956Z</time></trkpt><trkpt lat="44.9632158966463" lon="12.051982054004252"><ele>-4.0</ele><time>2026-03-22T13:53:17.956Z</time></trkpt><trkpt lat="44.963280272964106" lon="12.052335566259107"><ele>-4.5</ele><time>2026-03-22T13:53:18.956Z</time></trkpt><trkpt lat="44.963347027054574" lon="12.05268801222548"><ele>-5.0</ele><time>2026-03-22T13:53:19.956Z</time></trkpt><trkpt lat="44.96341344295955" lon="12.053038194205142"><ele>-3.5</ele><time>2026-03-22T13:53:20.956Z</time></trkpt><trkpt lat="44.96348020836764" lon="12.053388667866342"><ele>-2.0</ele><time>2026-03-22T13:53:21.956Z</time></trkpt><trkpt lat="44.96354691785307" lon="12.053739885309904"><ele>-2.0</ele><time>2026-03-22T13:53:22.956Z</time></trkpt><trkpt lat="44.9636136112877" lon="12.054093043675328"><ele>-2.0</ele><time>2026-03-22T13:53:23.956Z</time></trkpt><trkpt lat="44.96368091367242" lon="12.05444797986514"><ele>-2.5</ele><time>2026-03-22T13:53:24.956Z</time></trkpt><trkpt lat="44.96374879918268" lon="12.054801050780744"><ele>-3.0</ele><time>2026-03-22T13:53:25.956Z</time></trkpt><trkpt lat="44.96384723078718" lon="12.05513982941416"><ele>-3.0</ele><time>2026-03-22T13:53:26.956Z</time></trkpt><trkpt lat="44.9639122665068" lon="12.055478663325227"><ele>-3.0</ele><time>2026-03-22T13:53:27.956Z</time></trkpt><trkpt lat="44.96397215735968" lon="12.05578564900612"><ele>-3.0</ele><time>2026-03-22T13:53:28.956Z</time></trkpt><trkpt lat="44.964022211818055" lon="12.05606531663451"><ele>-3.0</ele><time>2026-03-22T13:53:29.956Z</time></trkpt><trkpt lat="44.96406857628042" lon="12.056315503366562"><ele>-3.0</ele><time>2026-03-22T13:53:30.956Z</time></trkpt><trkpt lat="44.964102898609674" lon="12.056553731877067"><ele>-2.6666666666666665</ele><time>2026-03-22T13:53:31.956Z</time></trkpt><trkpt lat="44.96413424534816" lon="12.05681347143096"><ele>-2.333333333333333</ele><time>2026-03-22T13:53:32.956Z</time></trkpt><trkpt lat="44.96415104196493" lon="12.057100428347267"><ele>-2.0</ele><time>2026-03-22T13:53:33.956Z</time></trkpt><trkpt lat="44.964152268622236" lon="12.057406627352307"><ele>-1.5</ele><time>2026-03-22T13:53:34.956Z</time></trkpt><trkpt lat="44.9641174325195" lon="12.05772534291429"><ele>-1.0</ele><time>2026-03-22T13:53:35.956Z</time></trkpt><trkpt lat="44.964046029902384" lon="12.05804742643396"><ele>-2.0</ele><time>2026-03-22T13:53:36.956Z</time></trkpt><trkpt lat="44.96396319976895" lon="12.058378718709768"><ele>-3.0</ele><time>2026-03-22T13:53:37.956Z</time></trkpt><trkpt lat="44.963857424435325" lon="12.058706206697817"><ele>-3.0</ele><time>2026-03-22T13:53:38.956Z</time></trkpt><trkpt lat="44.96368352114005" lon="12.058986621849488"><ele>-3.0</ele><time>2026-03-22T13:53:39.956Z</time></trkpt><trkpt lat="44.96359766771556" lon="12.05929825274872"><ele>-2.6666666666666665</ele><time>2026-03-22T13:53:40.956Z</time></trkpt><trkpt lat="44.9635140270477" lon="12.05960010869072"><ele>-2.333333333333333</ele><time>2026-03-22T13:53:41.956Z</time></trkpt><trkpt lat="44.963433836441716" lon="12.059887923001535"><ele>-2.0</ele><time>2026-03-22T13:53:42.957Z</time></trkpt><trkpt lat="44.9633599492081" lon="12.06015311371905"><ele>-2.0</ele><time>2026-03-22T13:53:43.957Z</time></trkpt><trkpt lat="44.96329176227403" lon="12.060396885981978"><ele>-2.0</ele><time>2026-03-22T13:53:44.957Z</time></trkpt><trkpt lat="44.9632292471782" lon="12.060619329152397"><ele>-2.0</ele><time>2026-03-22T13:53:45.957Z</time></trkpt><trkpt lat="44.963168630806386" lon="12.06083501621019"><ele>-2.0</ele><time>2026-03-22T13:53:46.957Z</time></trkpt><trkpt lat="44.96310667265293" lon="12.061055477657542"><ele>-2.0</ele><time>2026-03-22T13:53:47.957Z</time></trkpt><trkpt lat="44.9630453591302" lon="12.06127364549179"><ele>-2.0</ele><time>2026-03-22T13:53:48.957Z</time></trkpt><trkpt lat="44.96298723588173" lon="12.061498710598856"><ele>-2.333333333333333</ele><time>2026-03-22T13:53:49.958Z</time></trkpt><trkpt lat="44.96295706544905" lon="12.06174284162851"><ele>-2.6666666666666665</ele><time>2026-03-22T13:53:50.958Z</time></trkpt><trkpt lat="44.962926187118136" lon="12.061992185777145"><ele>-3.0</ele><time>2026-03-22T13:53:51.957Z</time></trkpt><trkpt lat="44.96293183234934" lon="12.062277398598068"><ele>-3.0</ele><time>2026-03-22T13:53:52.957Z</time></trkpt><trkpt lat="44.96296198124246" lon="12.062599409367241"><ele>-3.0</ele><time>2026-03-22T13:53:53.957Z</time></trkpt><trkpt lat="44.96299664410249" lon="12.062953243548383"><ele>-4.0</ele><time>2026-03-22T13:53:54.957Z</time></trkpt><trkpt lat="44.963031008940504" lon="12.063318198417566"><ele>-5.0</ele><time>2026-03-22T13:53:55.957Z</time></trkpt><trkpt lat="44.96306582599741" lon="12.063699384352576"><ele>-5.0</ele><time>2026-03-22T13:53:56.957Z</time></trkpt><trkpt lat="44.96309767569834" lon="12.064078917443632"><ele>-5.0</ele><time>2026-03-22T13:53:57.957Z</time></trkpt><trkpt lat="44.96312082613803" lon="12.064459819584908"><ele>-4.0</ele><time>2026-03-22T13:53:58.957Z</time></trkpt><trkpt lat="44.963128240897696" lon="12.06484690601098"><ele>-3.0</ele><time>2026-03-22T13:53:59.957Z</time></trkpt><trkpt lat="44.963170846681614" lon="12.06522983052601"><ele>-3.0</ele><time>2026-03-22T13:54:00.957Z</time></trkpt><trkpt lat="44.96318071316885" lon="12.065616726488807"><ele>-3.0</ele><time>2026-03-22T13:54:01.957Z</time></trkpt><trkpt lat="44.96322041221473" lon="12.065993485408853"><ele>-3.5</ele><time>2026-03-22T13:54:02.957Z</time></trkpt><trkpt lat="44.96324049492307" lon="12.066363127976626"><ele>-4.0</ele><time>2026-03-22T13:54:03.957Z</time></trkpt><trkpt lat="44.963264148778414" lon="12.066718747498644"><ele>-4.0</ele><time>2026-03-22T13:54:04.957Z</time></trkpt><trkpt lat="44.96328352051025" lon="12.067059585626959"><ele>-4.0</ele><time>2026-03-22T13:54:05.957Z</time></trkpt><trkpt lat="44.963307236140984" lon="12.067394034940154"><ele>-4.0</ele><time>2026-03-22T13:54:06.957Z</time></trkpt><trkpt lat="44.96333339295117" lon="12.067735459075916"><ele>-4.0</ele><time>2026-03-22T13:54:07.957Z</time></trkpt><trkpt lat="44.9633827586986" lon="12.068072529888921"><ele>-3.5</ele><time>2026-03-22T13:54:08.957Z</time></trkpt><trkpt lat="44.963446804052104" lon="12.068410105281664"><ele>-3.0</ele><time>2026-03-22T13:54:09.957Z</time></trkpt><trkpt lat="44.96352409329859" lon="12.06874495936582"><ele>-3.0</ele><time>2026-03-22T13:54:10.957Z</time></trkpt><trkpt lat="44.96361431225656" lon="12.069078934059462"><ele>-3.0</ele><time>2026-03-22T13:54:11.957Z</time></trkpt><trkpt lat="44.963709307279636" lon="12.069411298134112"><ele>-2.5</ele><time>2026-03-22T13:54:12.957Z</time></trkpt><trkpt lat="44.96380260803376" lon="12.069751073157013"><ele>-2.0</ele><time>2026-03-22T13:54:13.957Z</time></trkpt><trkpt lat="44.96389451051467" lon="12.070106016425797"><ele>-1.0</ele><time>2026-03-22T13:54:14.957Z</time></trkpt><trkpt lat="44.963972566896054" lon="12.070469674691434"><ele>0.0</ele><time>2026-03-22T13:54:15.957Z</time></trkpt><trkpt lat="44.96404528714175" lon="12.070843002984457"><ele>0.0</ele><time>2026-03-22T13:54:16.956Z</time></trkpt><trkpt lat="44.964111644621745" lon="12.071211678315512"><ele>0.0</ele><time>2026-03-22T13:54:17.956Z</time></trkpt><trkpt lat="44.96416129172333" lon="12.071557828309444"><ele>0.5</ele><time>2026-03-22T13:54:18.956Z</time></trkpt><trkpt lat="44.964182314456494" lon="12.071902466072531"><ele>1.0</ele><time>2026-03-22T13:54:19.956Z</time></trkpt><trkpt lat="44.964173746820634" lon="12.072255287096676"><ele>0.5</ele><time>2026-03-22T13:54:20.956Z</time></trkpt><trkpt lat="44.96414501905594" lon="12.072603701100979"><ele>0.0</ele><time>2026-03-22T13:54:21.956Z</time></trkpt><trkpt lat="44.9641239401137" lon="12.072966644376486"><ele>-0.5</ele><time>2026-03-22T13:54:22.956Z</time></trkpt><trkpt lat="44.96408277780514" lon="12.073335004553547"><ele>-1.0</ele><time>2026-03-22T13:54:23.956Z</time></trkpt><trkpt lat="44.96408117487145" lon="12.073710841771438"><ele>-1.0</ele><time>2026-03-22T13:54:24.956Z</time></trkpt><trkpt lat="44.96408511117979" lon="12.07409798255265"><ele>-1.0</ele><time>2026-03-22T13:54:25.956Z</time></trkpt><trkpt lat="44.96410602215178" lon="12.074483551893291"><ele>-1.0</ele><time>2026-03-22T13:54:26.956Z</time></trkpt><trkpt lat="44.964112352618564" lon="12.074873061506747"><ele>-1.0</ele><time>2026-03-22T13:54:27.956Z</time></trkpt><trkpt lat="44.96410163437538" lon="12.07526832477111"><ele>-2.0</ele><time>2026-03-22T13:54:28.956Z</time></trkpt><trkpt lat="44.96410722125649" lon="12.075658365569996"><ele>-3.0</ele><time>2026-03-22T13:54:29.956Z</time></trkpt><trkpt lat="44.96411333261412" lon="12.076060329040406"><ele>-3.0</ele><time>2026-03-22T13:54:30.956Z</time></trkpt><trkpt lat="44.96411867440311" lon="12.07646219312033"><ele>-3.0</ele><time>2026-03-22T13:54:31.956Z</time></trkpt><trkpt lat="44.9641239526996" lon="12.076868684021163"><ele>-3.0</ele><time>2026-03-22T13:54:32.956Z</time></trkpt><trkpt lat="44.964146885186615" lon="12.077282526673605"><ele>-3.0</ele><time>2026-03-22T13:54:33.956Z</time></trkpt><trkpt lat="44.96415022351746" lon="12.077695857890863"><ele>-2.5</ele><time>2026-03-22T13:54:34.956Z</time></trkpt><trkpt lat="44.96415705772137" lon="12.078113715225829"><ele>-2.0</ele><time>2026-03-22T13:54:35.956Z</time></trkpt><trkpt lat="44.96416463203001" lon="12.078530867487308"><ele>-1.5</ele><time>2026-03-22T13:54:36.956Z</time></trkpt><trkpt lat="44.964149960491255" lon="12.078946489198602"><ele>-1.0</ele><time>2026-03-22T13:54:37.956Z</time></trkpt><trkpt lat="44.96415514329459" lon="12.079358892283809"><ele>-1.0</ele><time>2026-03-22T13:54:38.956Z</time></trkpt><trkpt lat="44.96416028004283" lon="12.079767630683241"><ele>-1.0</ele><time>2026-03-22T13:54:39.956Z</time></trkpt><trkpt lat="44.96416370513053" lon="12.08016727723324"><ele>-1.0</ele><time>2026-03-22T13:54:40.956Z</time></trkpt><trkpt lat="44.96416443971164" lon="12.08056190179973"><ele>-1.0</ele><time>2026-03-22T13:54:41.956Z</time></trkpt><trkpt lat="44.96416515926993" lon="12.080948456083913"><ele>-0.5</ele><time>2026-03-22T13:54:42.956Z</time></trkpt><trkpt lat="44.964164075184016" lon="12.081332064382094"><ele>0.0</ele><time>2026-03-22T13:54:43.956Z</time></trkpt><trkpt lat="44.96416230422497" lon="12.081719624893257"><ele>0.0</ele><time>2026-03-22T13:54:44.956Z</time></trkpt><trkpt lat="44.96416141098667" lon="12.082112375891958"><ele>0.0</ele><time>2026-03-22T13:54:45.956Z</time></trkpt><trkpt lat="44.96415926306562" lon="12.08250690582537"><ele>0.0</ele><time>2026-03-22T13:54:46.956Z</time></trkpt><trkpt lat="44.96415663064925" lon="12.082900592026943"><ele>0.0</ele><time>2026-03-22T13:54:47.956Z</time></trkpt><trkpt lat="44.96415430591415" lon="12.083287733358487"><ele>0.0</ele><time>2026-03-22T13:54:48.956Z</time></trkpt><trkpt lat="44.96415123335391" lon="12.083669273942503"><ele>0.0</ele><time>2026-03-22T13:54:49.956Z</time></trkpt><trkpt lat="44.96414790306749" lon="12.084045596253075"><ele>-0.5</ele><time>2026-03-22T13:54:50.956Z</time></trkpt><trkpt lat="44.964143674297006" lon="12.084408891918509"><ele>-1.0</ele><time>2026-03-22T13:54:51.956Z</time></trkpt><trkpt lat="44.96413931471881" lon="12.084766700457449"><ele>-1.5</ele><time>2026-03-22T13:54:52.956Z</time></trkpt><trkpt lat="44.96413412053748" lon="12.085120939595924"><ele>-2.0</ele><time>2026-03-22T13:54:53.956Z</time></trkpt><trkpt lat="44.96412784777242" lon="12.085476009392396"><ele>-2.5</ele><time>2026-03-22T13:54:54.956Z</time></trkpt><trkpt lat="44.96412143950892" lon="12.085838749172003"><ele>-3.0</ele><time>2026-03-22T13:54:55.956Z</time></trkpt><trkpt lat="44.9641154934107" lon="12.08620663592704"><ele>-3.0</ele><time>2026-03-22T13:54:56.956Z</time></trkpt><trkpt lat="44.964110077216745" lon="12.086575292721887"><ele>-3.0</ele><time>2026-03-22T13:54:57.956Z</time></trkpt><trkpt lat="44.96410399401121" lon="12.086948204023864"><ele>-3.0</ele><time>2026-03-22T13:54:58.956Z</time></trkpt><trkpt lat="44.96409845194037" lon="12.087315239523743"><ele>-3.0</ele><time>2026-03-22T13:54:59.956Z</time></trkpt><trkpt lat="44.96409311723337" lon="12.087671349703745"><ele>-3.0</ele><time>2026-03-22T13:55:00.956Z</time></trkpt><trkpt lat="44.96408751777747" lon="12.088011122951222"><ele>-3.0</ele><time>2026-03-22T13:55:01.956Z</time></trkpt><trkpt lat="44.9640770863327" lon="12.088323708586367"><ele>-3.0</ele><time>2026-03-22T13:55:02.956Z</time></trkpt><trkpt lat="44.96405850796312" lon="12.088614541846125"><ele>-3.0</ele><time>2026-03-22T13:55:03.955Z</time></trkpt><trkpt lat="44.964022572921216" lon="12.088906005515488"><ele>-3.0</ele><time>2026-03-22T13:55:04.955Z</time></trkpt><trkpt lat="44.963962299690316" lon="12.089193646482968"><ele>-3.333333333333333</ele><time>2026-03-22T13:55:05.955Z</time></trkpt><trkpt lat="44.96386539253687" lon="12.089446374242279"><ele>-3.6666666666666665</ele><time>2026-03-22T13:55:06.955Z</time></trkpt><trkpt lat="44.963729775273045" lon="12.089663958830156"><ele>-4.0</ele><time>2026-03-22T13:55:07.955Z</time></trkpt><trkpt lat="44.963571614004195" lon="12.089878049490796"><ele>-4.0</ele><time>2026-03-22T13:55:08.955Z</time></trkpt><trkpt lat="44.963402520529385" lon="12.090101170533721"><ele>-4.0</ele><time>2026-03-22T13:55:09.955Z</time></trkpt><trkpt lat="44.96323041221931" lon="12.090327018186867"><ele>-3.5</ele><time>2026-03-22T13:55:10.955Z</time></trkpt><trkpt lat="44.96305935388798" lon="12.09055180153305"><ele>-3.0</ele><time>2026-03-22T13:55:11.955Z</time></trkpt><trkpt lat="44.962883461128726" lon="12.090785536126168"><ele>-3.0</ele><time>2026-03-22T13:55:12.955Z</time></trkpt><trkpt lat="44.96270713498362" lon="12.09102360952244"><ele>-3.0</ele><time>2026-03-22T13:55:13.955Z</time></trkpt><trkpt lat="44.96253053740298" lon="12.091262066941118"><ele>-3.5</ele><time>2026-03-22T13:55:14.955Z</time></trkpt><trkpt lat="44.96235296031875" lon="12.091504389211806"><ele>-4.0</ele><time>2026-03-22T13:55:15.955Z</time></trkpt><trkpt lat="44.96218139428695" lon="12.091744195031696"><ele>-4.0</ele><time>2026-03-22T13:55:16.955Z</time></trkpt><trkpt lat="44.96201070338295" lon="12.091995391023671"><ele>-4.0</ele><time>2026-03-22T13:55:17.955Z</time></trkpt><trkpt lat="44.96184447757592" lon="12.092254378960941"><ele>-3.5</ele><time>2026-03-22T13:55:18.955Z</time></trkpt><trkpt lat="44.96168322864391" lon="12.092518861302686"><ele>-3.0</ele><time>2026-03-22T13:55:19.955Z</time></trkpt><trkpt lat="44.961525904873" lon="12.092790695872475"><ele>-3.0</ele><time>2026-03-22T13:55:20.955Z</time></trkpt><trkpt lat="44.96137440696361" lon="12.093064995800031"><ele>-3.0</ele><time>2026-03-22T13:55:21.955Z</time></trkpt><trkpt lat="44.96122719296354" lon="12.093340448138406"><ele>-3.5</ele><time>2026-03-22T13:55:22.955Z</time></trkpt><trkpt lat="44.961086142990034" lon="12.093629442265957"><ele>-4.0</ele><time>2026-03-22T13:55:23.955Z</time></trkpt><trkpt lat="44.96094916543248" lon="12.093922056634442"><ele>-4.0</ele><time>2026-03-22T13:55:24.955Z</time></trkpt><trkpt lat="44.96081001149466" lon="12.094223028800997"><ele>-4.0</ele><time>2026-03-22T13:55:25.955Z</time></trkpt><trkpt lat="44.960667748068765" lon="12.094532840307538"><ele>-4.0</ele><time>2026-03-22T13:55:26.955Z</time></trkpt><trkpt lat="44.960524481206185" lon="12.094845287720442"><ele>-4.0</ele><time>2026-03-22T13:55:27.955Z</time></trkpt><trkpt lat="44.96038084503236" lon="12.09516075531383"><ele>-4.0</ele><time>2026-03-22T13:55:28.955Z</time></trkpt><trkpt lat="44.96024021444528" lon="12.09547191935324"><ele>-4.0</ele><time>2026-03-22T13:55:29.955Z</time></trkpt><trkpt lat="44.96010134727684" lon="12.095779181568819"><ele>-4.0</ele><time>2026-03-22T13:55:30.955Z</time></trkpt><trkpt lat="44.9599644927903" lon="12.09608199070047"><ele>-4.0</ele><time>2026-03-22T13:55:31.955Z</time></trkpt><trkpt lat="44.959830301387484" lon="12.09637890763718"><ele>-4.0</ele><time>2026-03-22T13:55:32.955Z</time></trkpt><trkpt lat="44.95969530214791" lon="12.096669979405398"><ele>-4.0</ele><time>2026-03-22T13:55:33.955Z</time></trkpt><trkpt lat="44.959541702696676" lon="12.096941994530372"><ele>-4.0</ele><time>2026-03-22T13:55:34.955Z</time></trkpt><trkpt lat="44.95938746229223" lon="12.097211114478117"><ele>-4.0</ele><time>2026-03-22T13:55:35.955Z</time></trkpt><trkpt lat="44.9592372752104" lon="12.09748081075132"><ele>-3.5</ele><time>2026-03-22T13:55:36.955Z</time></trkpt><trkpt lat="44.95909495040416" lon="12.097757804571152"><ele>-3.0</ele><time>2026-03-22T13:55:37.955Z</time></trkpt><trkpt lat="44.95897045606228" lon="12.098051358796269"><ele>-3.0</ele><time>2026-03-22T13:55:38.955Z</time></trkpt><trkpt lat="44.95885008551633" lon="12.098362196667887"><ele>-3.0</ele><time>2026-03-22T13:55:39.955Z</time></trkpt><trkpt lat="44.958731869210624" lon="12.098680206350975"><ele>-3.0</ele><time>2026-03-22T13:55:40.955Z</time></trkpt><trkpt lat="44.958617455859475" lon="12.09900363489469"><ele>-3.0</ele><time>2026-03-22T13:55:41.955Z</time></trkpt><trkpt lat="44.958496514958895" lon="12.099321492263497"><ele>-3.0</ele><time>2026-03-22T13:55:42.955Z</time></trkpt><trkpt lat="44.95837621831367" lon="12.09964085019195"><ele>-3.0</ele><time>2026-03-22T13:55:43.955Z</time></trkpt><trkpt lat="44.958258938851806" lon="12.099953510721498"><ele>-3.0</ele><time>2026-03-22T13:55:44.955Z</time></trkpt><trkpt lat="44.958141446346" lon="12.100265928527538"><ele>-3.0</ele><time>2026-03-22T13:55:45.955Z</time></trkpt><trkpt lat="44.958027003810216" lon="12.10057452391263"><ele>-3.5</ele><time>2026-03-22T13:55:46.955Z</time></trkpt><trkpt lat="44.95791086498642" lon="12.10088512647734"><ele>-4.0</ele><time>2026-03-22T13:55:47.955Z</time></trkpt><trkpt lat="44.95777893773347" lon="12.101192714368326"><ele>-4.0</ele><time>2026-03-22T13:55:48.956Z</time></trkpt><trkpt lat="44.95764342960852" lon="12.101500254449189"><ele>-4.0</ele><time>2026-03-22T13:55:49.956Z</time></trkpt><trkpt lat="44.95750387433576" lon="12.101807920316002"><ele>-3.5</ele><time>2026-03-22T13:55:50.956Z</time></trkpt><trkpt lat="44.9573603508267" lon="12.102113847986345"><ele>-3.0</ele><time>2026-03-22T13:55:51.956Z</time></trkpt><trkpt lat="44.95721859124038" lon="12.10241397307101"><ele>-1.5</ele><time>2026-03-22T13:55:52.956Z</time></trkpt><trkpt lat="44.957077446761666" lon="12.10271197893435"><ele>0.0</ele><time>2026-03-22T13:55:53.956Z</time></trkpt><trkpt lat="44.9569351551949" lon="12.103009781403193"><ele>0.5</ele><time>2026-03-22T13:55:54.956Z</time></trkpt><trkpt lat="44.9567897619441" lon="12.103297335918109"><ele>1.0</ele><time>2026-03-22T13:55:55.956Z</time></trkpt><trkpt lat="44.95665099575262" lon="12.103585332310864"><ele>-0.5</ele><time>2026-03-22T13:55:56.956Z</time></trkpt><trkpt lat="44.956522742070824" lon="12.103886377635513"><ele>-2.0</ele><time>2026-03-22T13:55:57.956Z</time></trkpt><trkpt lat="44.95640235487833" lon="12.104188920352465"><ele>-2.0</ele><time>2026-03-22T13:55:58.957Z</time></trkpt><trkpt lat="44.956279388354886" lon="12.104484628467448"><ele>-2.0</ele><time>2026-03-22T13:55:59.957Z</time></trkpt><trkpt lat="44.95615816898638" lon="12.104773488938626"><ele>-2.0</ele><time>2026-03-22T13:56:00.957Z</time></trkpt><trkpt lat="44.95602892516413" lon="12.105061095445816"><ele>-2.0</ele><time>2026-03-22T13:56:01.956Z</time></trkpt><trkpt lat="44.95589246231405" lon="12.105343216897483"><ele>-2.0</ele><time>2026-03-22T13:56:02.956Z</time></trkpt><trkpt lat="44.95575025628296" lon="12.105620340901499"><ele>-2.0</ele><time>2026-03-22T13:56:03.956Z</time></trkpt><trkpt lat="44.955606062971285" lon="12.105898135760658"><ele>-2.5</ele><time>2026-03-22T13:56:04.956Z</time></trkpt><trkpt lat="44.95546425672117" lon="12.106178055850883"><ele>-3.0</ele><time>2026-03-22T13:56:05.956Z</time></trkpt><trkpt lat="44.955327359633365" lon="12.106456735340853"><ele>-3.0</ele><time>2026-03-22T13:56:06.956Z</time></trkpt><trkpt lat="44.9551996376719" lon="12.106742514923278"><ele>-3.0</ele><time>2026-03-22T13:56:07.956Z</time></trkpt><trkpt lat="44.95508312560103" lon="12.10704273583419"><ele>-3.0</ele><time>2026-03-22T13:56:08.956Z</time></trkpt><trkpt lat="44.954964378161065" lon="12.10733881521808"><ele>-3.0</ele><time>2026-03-22T13:56:09.956Z</time></trkpt><trkpt lat="44.95484078328208" lon="12.10764058584196"><ele>-3.0</ele><time>2026-03-22T13:56:10.956Z</time></trkpt><trkpt lat="44.9547035220861" lon="12.107938802569128"><ele>-3.0</ele><time>2026-03-22T13:56:11.956Z</time></trkpt><trkpt lat="44.95455433894657" lon="12.108227569954382"><ele>-3.0</ele><time>2026-03-22T13:56:12.956Z</time></trkpt><trkpt lat="44.95439618818643" lon="12.108508843495866"><ele>-3.0</ele><time>2026-03-22T13:56:13.956Z</time></trkpt><trkpt lat="44.954234044651194" lon="12.108783902289156"><ele>-3.0</ele><time>2026-03-22T13:56:14.956Z</time></trkpt><trkpt lat="44.9540737756786" lon="12.109068701967171"><ele>-3.0</ele><time>2026-03-22T13:56:15.956Z</time></trkpt><trkpt lat="44.95391389601739" lon="12.109360582166678"><ele>-4.5</ele><time>2026-03-22T13:56:16.956Z</time></trkpt><trkpt lat="44.953751571905585" lon="12.10964899598455"><ele>-6.0</ele><time>2026-03-22T13:56:17.956Z</time></trkpt><trkpt lat="44.95359311145692" lon="12.10993728761505"><ele>-6.0</ele><time>2026-03-22T13:56:18.956Z</time></trkpt><trkpt lat="44.95343663370025" lon="12.110212966609195"><ele>-6.0</ele><time>2026-03-22T13:56:19.956Z</time></trkpt><trkpt lat="44.953282217136966" lon="12.11047451872997"><ele>-5.5</ele><time>2026-03-22T13:56:20.956Z</time></trkpt><trkpt lat="44.95312324421556" lon="12.11072631983477"><ele>-5.0</ele><time>2026-03-22T13:56:21.956Z</time></trkpt><trkpt lat="44.95295988483371" lon="12.110951648201008"><ele>-4.0</ele><time>2026-03-22T13:56:22.956Z</time></trkpt><trkpt lat="44.95277119125479" lon="12.111156949537756"><ele>-3.0</ele><time>2026-03-22T13:56:23.956Z</time></trkpt><trkpt lat="44.95256902408375" lon="12.111356458647487"><ele>-3.5</ele><time>2026-03-22T13:56:24.956Z</time></trkpt><trkpt lat="44.95236005160404" lon="12.111552368800993"><ele>-4.0</ele><time>2026-03-22T13:56:25.955Z</time></trkpt><trkpt lat="44.95215062368561" lon="12.111750169678475"><ele>-2.5</ele><time>2026-03-22T13:56:26.955Z</time></trkpt><trkpt lat="44.95195244381925" lon="12.111949229452044"><ele>-1.0</ele><time>2026-03-22T13:56:27.955Z</time></trkpt><trkpt lat="44.95176137405054" lon="12.11214244099715"><ele>-1.5</ele><time>2026-03-22T13:56:28.955Z</time></trkpt><trkpt lat="44.95156277394979" lon="12.112335336198045"><ele>-2.0</ele><time>2026-03-22T13:56:29.955Z</time></trkpt><trkpt lat="44.9513566991448" lon="12.112511328609312"><ele>-2.0</ele><time>2026-03-22T13:56:30.955Z</time></trkpt><trkpt lat="44.95113988916089" lon="12.112666998045214"><ele>-2.0</ele><time>2026-03-22T13:56:31.955Z</time></trkpt><trkpt lat="44.9509114336869" lon="12.11281651170054"><ele>-3.5</ele><time>2026-03-22T13:56:32.955Z</time></trkpt><trkpt lat="44.950683995428555" lon="12.112947726907162"><ele>-5.0</ele><time>2026-03-22T13:56:33.955Z</time></trkpt><trkpt lat="44.95046036291514" lon="12.113079053305997"><ele>-5.0</ele><time>2026-03-22T13:56:34.955Z</time></trkpt><trkpt lat="44.950237659389735" lon="12.113187023956913"><ele>-5.0</ele><time>2026-03-22T13:56:35.955Z</time></trkpt><trkpt lat="44.950012624323826" lon="12.113283206897657"><ele>-3.0</ele><time>2026-03-22T13:56:36.955Z</time></trkpt><trkpt lat="44.949782407649145" lon="12.113367817615416"><ele>-1.0</ele><time>2026-03-22T13:56:37.955Z</time></trkpt><trkpt lat="44.94953477641156" lon="12.113282740815244"><ele>-1.0</ele><time>2026-03-22T13:56:38.955Z</time></trkpt><trkpt lat="44.949299929995476" lon="12.113323016891464"><ele>-1.0</ele><time>2026-03-22T13:56:39.955Z</time></trkpt><trkpt lat="44.94906694877904" lon="12.11335526247334"><ele>-1.3333333333333333</ele><time>2026-03-22T13:56:40.955Z</time></trkpt><trkpt lat="44.94884193384588" lon="12.113388256661475"><ele>-1.6666666666666665</ele><time>2026-03-22T13:56:41.955Z</time></trkpt><trkpt lat="44.948625912412446" lon="12.11342554109464"><ele>-2.0</ele><time>2026-03-22T13:56:42.955Z</time></trkpt><trkpt lat="44.948417413715184" lon="12.11347697926019"><ele>-2.333333333333333</ele><time>2026-03-22T13:56:43.955Z</time></trkpt><trkpt lat="44.948219815502064" lon="12.11353915482542"><ele>-2.6666666666666665</ele><time>2026-03-22T13:56:44.955Z</time></trkpt><trkpt lat="44.948017492972134" lon="12.11361232986443"><ele>-3.0</ele><time>2026-03-22T13:56:45.955Z</time></trkpt><trkpt lat="44.94781297102086" lon="12.113708343744237"><ele>-3.0</ele><time>2026-03-22T13:56:46.955Z</time></trkpt><trkpt lat="44.947633226519294" lon="12.11382936863559"><ele>-3.0</ele><time>2026-03-22T13:56:47.955Z</time></trkpt><trkpt lat="44.947455609459695" lon="12.11397333534551"><ele>-3.0</ele><time>2026-03-22T13:56:48.955Z</time></trkpt><trkpt lat="44.947282303071226" lon="12.114121468391625"><ele>-2.6666666666666665</ele><time>2026-03-22T13:56:49.955Z</time></trkpt><trkpt lat="44.94710423998603" lon="12.114273666950465"><ele>-2.333333333333333</ele><time>2026-03-22T13:56:50.955Z</time></trkpt><trkpt lat="44.946930444575905" lon="12.11442221798527"><ele>-2.0</ele><time>2026-03-22T13:56:51.955Z</time></trkpt><trkpt lat="44.94676220800801" lon="12.114566017378516"><ele>-2.0</ele><time>2026-03-22T13:56:52.955Z</time></trkpt><trkpt lat="44.94659929261771" lon="12.114705268615628"><ele>-2.0</ele><time>2026-03-22T13:56:53.955Z</time></trkpt><trkpt lat="44.94644916438955" lon="12.114833590020917"><ele>-2.0</ele><time>2026-03-22T13:56:54.955Z</time></trkpt><trkpt lat="44.94630825305609" lon="12.114952996822897"><ele>-2.0</ele><time>2026-03-22T13:56:55.955Z</time></trkpt><trkpt lat="44.9461713104343" lon="12.11506652169802"><ele>-2.0</ele><time>2026-03-22T13:56:56.955Z</time></trkpt><trkpt lat="44.946027117984926" lon="12.115177448436324"><ele>-2.0</ele><time>2026-03-22T13:56:57.955Z</time></trkpt><trkpt lat="44.94587468496141" lon="12.115277406347953"><ele>-2.333333333333333</ele><time>2026-03-22T13:56:58.955Z</time></trkpt><trkpt lat="44.94571154051794" lon="12.115369113199629"><ele>-2.6666666666666665</ele><time>2026-03-22T13:56:59.955Z</time></trkpt><trkpt lat="44.94554132681353" lon="12.11545654663486"><ele>-3.0</ele><time>2026-03-22T13:57:00.955Z</time></trkpt><trkpt lat="44.94536894476479" lon="12.115540060180033"><ele>-3.0</ele><time>2026-03-22T13:57:01.955Z</time></trkpt><trkpt lat="44.94519805944575" lon="12.115622208035324"><ele>-3.0</ele><time>2026-03-22T13:57:02.955Z</time></trkpt><trkpt lat="44.94502679355451" lon="12.115704165707925"><ele>-3.0</ele><time>2026-03-22T13:57:03.955Z</time></trkpt><trkpt lat="44.944862030731905" lon="12.115784403610457"><ele>-3.0</ele><time>2026-03-22T13:57:04.955Z</time></trkpt><trkpt lat="44.944703047392416" lon="12.115861825590931"><ele>-3.0</ele><time>2026-03-22T13:57:05.955Z</time></trkpt><trkpt lat="44.944561577981574" lon="12.115934191658322"><ele>-3.0</ele><time>2026-03-22T13:57:06.955Z</time></trkpt><trkpt lat="44.944426777600896" lon="12.11600742319704"><ele>-3.0</ele><time>2026-03-22T13:57:07.955Z</time></trkpt><trkpt lat="44.94430531085659" lon="12.116078020164098"><ele>-3.0</ele><time>2026-03-22T13:57:08.955Z</time></trkpt><trkpt lat="44.944193881009724" lon="12.116154465671153"><ele>-3.0</ele><time>2026-03-22T13:57:09.955Z</time></trkpt><trkpt lat="44.94409242497485" lon="12.116248178028622"><ele>-3.0</ele><time>2026-03-22T13:57:10.955Z</time></trkpt><trkpt lat="44.9439953212915" lon="12.116374465788079"><ele>-3.25</ele><time>2026-03-22T13:57:11.955Z</time></trkpt><trkpt lat="44.9439124709535" lon="12.116503208875276"><ele>-3.5</ele><time>2026-03-22T13:57:12.955Z</time></trkpt><trkpt lat="44.94383621792484" lon="12.116636377284683"><ele>-3.75</ele><time>2026-03-22T13:57:13.954Z</time></trkpt><trkpt lat="44.94375846839325" lon="12.116775158368881"><ele>-4.0</ele><time>2026-03-22T13:57:14.954Z</time></trkpt><trkpt lat="44.94367562471929" lon="12.116926610568491"><ele>-4.0</ele><time>2026-03-22T13:57:15.954Z</time></trkpt><trkpt lat="44.94358973157546" lon="12.117084636672022"><ele>-4.0</ele><time>2026-03-22T13:57:16.954Z</time></trkpt><trkpt lat="44.943517552170114" lon="12.117250478094833"><ele>-4.0</ele><time>2026-03-22T13:57:17.954Z</time></trkpt><trkpt lat="44.94341307524226" lon="12.117388705801309"><ele>-4.0</ele><time>2026-03-22T13:57:18.954Z</time></trkpt><trkpt lat="44.94331875498004" lon="12.117517266382915"><ele>-3.25</ele><time>2026-03-22T13:57:19.954Z</time></trkpt><trkpt lat="44.94322912307964" lon="12.117638358090717"><ele>-2.5</ele><time>2026-03-22T13:57:20.954Z</time></trkpt><trkpt lat="44.94314866398401" lon="12.117758445520243"><ele>-1.75</ele><time>2026-03-22T13:57:21.954Z</time></trkpt><trkpt lat="44.94307219031049" lon="12.11788251224525"><ele>-1.0</ele><time>2026-03-22T13:57:22.954Z</time></trkpt><trkpt lat="44.9429970782806" lon="12.118020637920976"><ele>-1.0</ele><time>2026-03-22T13:57:23.954Z</time></trkpt><trkpt lat="44.94290945046774" lon="12.118138677414098"><ele>-1.0</ele><time>2026-03-22T13:57:24.954Z</time></trkpt><trkpt lat="44.94284122329323" lon="12.11825723859001"><ele>-1.0</ele><time>2026-03-22T13:57:25.954Z</time></trkpt><trkpt lat="44.94278302420819" lon="12.118360407287701"><ele>-1.0</ele><time>2026-03-22T13:57:26.954Z</time></trkpt><trkpt lat="44.942733332243364" lon="12.118448495455407"><ele>-1.0</ele><time>2026-03-22T13:57:27.954Z</time></trkpt><trkpt lat="44.9426783789874" lon="12.1185459100297"><ele>-0.6000000000000001</ele><time>2026-03-22T13:57:29.954Z</time></trkpt><trkpt lat="44.9426325893104" lon="12.118627081646409"><ele>-0.20000000000000007</ele><time>2026-03-22T13:57:32.954Z</time></trkpt><trkpt lat="44.94273270894356" lon="12.118813419307145"><ele>0.20000000000000007</ele><time>2026-03-22T13:57:34.954Z</time></trkpt><trkpt lat="44.94279532088841" lon="12.118878266739385"><ele>0.6000000000000001</ele><time>2026-03-22T13:57:35.954Z</time></trkpt><trkpt lat="44.94284620828842" lon="12.118943510826703"><ele>1.0</ele><time>2026-03-22T13:57:36.954Z</time></trkpt><trkpt lat="44.94290947800826" lon="12.119014824747625"><ele>0.8</ele><time>2026-03-22T13:57:37.954Z</time></trkpt><trkpt lat="44.94297378626785" lon="12.119101295949438"><ele>0.6000000000000001</ele><time>2026-03-22T13:57:38.954Z</time></trkpt><trkpt lat="44.94301515096861" lon="12.119231052609006"><ele>0.4</ele><time>2026-03-22T13:57:39.954Z</time></trkpt><trkpt lat="44.94306542938683" lon="12.119359030828356"><ele>0.2</ele><time>2026-03-22T13:57:40.954Z</time></trkpt><trkpt lat="44.943111287285234" lon="12.11948621003596"><ele>0.0</ele><time>2026-03-22T13:57:41.954Z</time></trkpt><trkpt lat="44.94314351791591" lon="12.11961630058808"><ele>0.0</ele><time>2026-03-22T13:57:42.954Z</time></trkpt><trkpt lat="44.9431647947507" lon="12.119760134469303"><ele>0.0</ele><time>2026-03-22T13:57:43.954Z</time></trkpt><trkpt lat="44.94318021078107" lon="12.119917791472654"><ele>0.0</ele><time>2026-03-22T13:57:44.954Z</time></trkpt><trkpt lat="44.943174481402245" lon="12.120068022205029"><ele>0.0</ele><time>2026-03-22T13:57:45.954Z</time></trkpt><trkpt lat="44.94315323209669" lon="12.120222275638904"><ele>0.0</ele><time>2026-03-22T13:57:46.954Z</time></trkpt><trkpt lat="44.94311343809488" lon="12.120376952750794"><ele>0.0</ele><time>2026-03-22T13:57:47.954Z</time></trkpt><trkpt lat="44.94305960390707" lon="12.120532358199556"><ele>0.0</ele><time>2026-03-22T13:57:48.954Z</time></trkpt><trkpt lat="44.94301313383231" lon="12.120740722314363"><ele>0.0</ele><time>2026-03-22T13:57:49.954Z</time></trkpt><trkpt lat="44.94293310346837" lon="12.120909956211745"><ele>0.0</ele><time>2026-03-22T13:57:50.954Z</time></trkpt><trkpt lat="44.942862550104216" lon="12.121080448454096"><ele>0.5</ele><time>2026-03-22T13:57:51.954Z</time></trkpt><trkpt lat="44.9427946742179" lon="12.121252490998252"><ele>1.0</ele><time>2026-03-22T13:57:52.954Z</time></trkpt><trkpt lat="44.942728099060176" lon="12.121416739684369"><ele>1.5</ele><time>2026-03-22T13:57:53.954Z</time></trkpt><trkpt lat="44.94266820727396" lon="12.121576696055902"><ele>2.0</ele><time>2026-03-22T13:57:54.955Z</time></trkpt><trkpt lat="44.942611191409895" lon="12.121727076990712"><ele>2.0</ele><time>2026-03-22T13:57:55.955Z</time></trkpt><trkpt lat="44.942549552738384" lon="12.121863348486787"><ele>2.0</ele><time>2026-03-22T13:57:56.955Z</time></trkpt><trkpt lat="44.94245680493604" lon="12.121998579747329"><ele>2.0</ele><time>2026-03-22T13:57:57.955Z</time></trkpt><trkpt lat="44.94235419521894" lon="12.122153705401692"><ele>2.0</ele><time>2026-03-22T13:57:58.955Z</time></trkpt><trkpt lat="44.94223691210103" lon="12.122310561992457"><ele>1.6666666666666665</ele><time>2026-03-22T13:57:59.955Z</time></trkpt><trkpt lat="44.942095582321585" lon="12.122451750207736"><ele>1.3333333333333333</ele><time>2026-03-22T13:58:00.955Z</time></trkpt><trkpt lat="44.94193183037531" lon="12.122593003858183"><ele>1.0</ele><time>2026-03-22T13:58:01.955Z</time></trkpt><trkpt lat="44.9417501892632" lon="12.122742516601306"><ele>0.0</ele><time>2026-03-22T13:58:02.955Z</time></trkpt><trkpt lat="44.94155802889256" lon="12.12289920534405"><ele>-1.0</ele><time>2026-03-22T13:58:03.956Z</time></trkpt><trkpt lat="44.9413574302604" lon="12.123063544085289"><ele>0.5</ele><time>2026-03-22T13:58:04.955Z</time></trkpt><trkpt lat="44.941149883924304" lon="12.123234262001517"><ele>2.0</ele><time>2026-03-22T13:58:05.955Z</time></trkpt><trkpt lat="44.94093908500831" lon="12.123407655337093"><ele>1.5</ele><time>2026-03-22T13:58:06.955Z</time></trkpt><trkpt lat="44.94071995203154" lon="12.123586392870221"><ele>1.0</ele><time>2026-03-22T13:58:07.955Z</time></trkpt><trkpt lat="44.940499485690175" lon="12.123765616154799"><ele>1.0</ele><time>2026-03-22T13:58:08.955Z</time></trkpt><trkpt lat="44.940274562430204" lon="12.123948932238777"><ele>1.0</ele><time>2026-03-22T13:58:09.955Z</time></trkpt><trkpt lat="44.94004964071567" lon="12.12413275801082"><ele>0.5</ele><time>2026-03-22T13:58:10.955Z</time></trkpt><trkpt lat="44.93982656434371" lon="12.124314252201854"><ele>0.0</ele><time>2026-03-22T13:58:11.954Z</time></trkpt><trkpt lat="44.93960468986126" lon="12.124494071044202"><ele>0.0</ele><time>2026-03-22T13:58:12.954Z</time></trkpt><trkpt lat="44.939383769706836" lon="12.124671704193739"><ele>0.0</ele><time>2026-03-22T13:58:13.954Z</time></trkpt><trkpt lat="44.93916569054439" lon="12.124847053028255"><ele>0.5</ele><time>2026-03-22T13:58:14.954Z</time></trkpt><trkpt lat="44.938957058204004" lon="12.125014806095434"><ele>1.0</ele><time>2026-03-22T13:58:15.954Z</time></trkpt><trkpt lat="44.938754078737915" lon="12.125179675218988"><ele>1.0</ele><time>2026-03-22T13:58:16.954Z</time></trkpt><trkpt lat="44.93860201945427" lon="12.125443441018744"><ele>1.0</ele><time>2026-03-22T13:58:17.954Z</time></trkpt><trkpt lat="44.938426856601446" lon="12.125586113120914"><ele>1.0</ele><time>2026-03-22T13:58:18.954Z</time></trkpt><trkpt lat="44.9382589082565" lon="12.125717695277833"><ele>2.0</ele><time>2026-03-22T13:58:19.954Z</time></trkpt><trkpt lat="44.93808459003695" lon="12.125833198482164"><ele>3.0</ele><time>2026-03-22T13:58:20.954Z</time></trkpt><trkpt lat="44.93789905124953" lon="12.125933102905813"><ele>4.0</ele><time>2026-03-22T13:58:21.954Z</time></trkpt><trkpt lat="44.93770364969604" lon="12.125992210777417"><ele>3.6666666666666665</ele><time>2026-03-22T13:58:22.954Z</time></trkpt><trkpt lat="44.937499794517144" lon="12.126025086707621"><ele>3.333333333333333</ele><time>2026-03-22T13:58:23.954Z</time></trkpt><trkpt lat="44.937295990383674" lon="12.126026632293033"><ele>3.0</ele><time>2026-03-22T13:58:24.954Z</time></trkpt><trkpt lat="44.9370960197466" lon="12.125999423640785"><ele>3.0</ele><time>2026-03-22T13:58:25.954Z</time></trkpt><trkpt lat="44.93690214352297" lon="12.12592970923449"><ele>3.0</ele><time>2026-03-22T13:58:26.954Z</time></trkpt><trkpt lat="44.93671971113955" lon="12.12581105504059"><ele>3.0</ele><time>2026-03-22T13:58:27.954Z</time></trkpt><trkpt lat="44.93655694015191" lon="12.12564909171221"><ele>2.3333333333333335</ele><time>2026-03-22T13:58:28.954Z</time></trkpt><trkpt lat="44.93642253743418" lon="12.125457984098079"><ele>1.6666666666666665</ele><time>2026-03-22T13:58:29.954Z</time></trkpt><trkpt lat="44.93629828279309" lon="12.125288338101546"><ele>1.0</ele><time>2026-03-22T13:58:30.954Z</time></trkpt><trkpt lat="44.936166196366656" lon="12.12516555295603"><ele>1.0</ele><time>2026-03-22T13:58:31.954Z</time></trkpt><trkpt lat="44.936003561280096" lon="12.125111212224907"><ele>1.0</ele><time>2026-03-22T13:58:32.954Z</time></trkpt><trkpt lat="44.93580802235289" lon="12.125093352384882"><ele>1.0</ele><time>2026-03-22T13:58:33.954Z</time></trkpt><trkpt lat="44.93557361304197" lon="12.125072186359262"><ele>1.0</ele><time>2026-03-22T13:58:34.954Z</time></trkpt><trkpt lat="44.935333943627064" lon="12.125050380370961"><ele>1.0</ele><time>2026-03-22T13:58:35.954Z</time></trkpt><trkpt lat="44.93510783910267" lon="12.124939530336205"><ele>1.5</ele><time>2026-03-22T13:58:36.954Z</time></trkpt><trkpt lat="44.93487412023153" lon="12.124930930489008"><ele>2.0</ele><time>2026-03-22T13:58:37.954Z</time></trkpt><trkpt lat="44.93463434477805" lon="12.124929399442873"><ele>2.0</ele><time>2026-03-22T13:58:38.954Z</time></trkpt><trkpt lat="44.9344195735292" lon="12.124929886185226"><ele>2.0</ele><time>2026-03-22T13:58:39.954Z</time></trkpt><trkpt lat="44.93422718029056" lon="12.12492897469546"><ele>2.0</ele><time>2026-03-22T13:58:40.954Z</time></trkpt><trkpt lat="44.93404602686815" lon="12.124931680226734"><ele>2.0</ele><time>2026-03-22T13:58:41.954Z</time></trkpt><trkpt lat="44.93386565608429" lon="12.124945763752939"><ele>2.0</ele><time>2026-03-22T13:58:42.954Z</time></trkpt><trkpt lat="44.93369496490226" lon="12.124985020957908"><ele>2.0</ele><time>2026-03-22T13:58:43.954Z</time></trkpt><trkpt lat="44.9335050199063" lon="12.125090555849825"><ele>2.333333333333333</ele><time>2026-03-22T13:58:44.954Z</time></trkpt><trkpt lat="44.9333187409673" lon="12.125251601575288"><ele>2.6666666666666665</ele><time>2026-03-22T13:58:45.954Z</time></trkpt><trkpt lat="44.933161872900826" lon="12.125410880791858"><ele>3.0</ele><time>2026-03-22T13:58:46.954Z</time></trkpt><trkpt lat="44.93299331927699" lon="12.125597489607467"><ele>3.0</ele><time>2026-03-22T13:58:47.954Z</time></trkpt><trkpt lat="44.93283830737701" lon="12.125794386566247"><ele>3.0</ele><time>2026-03-22T13:58:48.954Z</time></trkpt><trkpt lat="44.93268272405482" lon="12.125963035161657"><ele>3.0</ele><time>2026-03-22T13:58:49.954Z</time></trkpt><trkpt lat="44.93254939841257" lon="12.12611795018507"><ele>2.0</ele><time>2026-03-22T13:58:50.954Z</time></trkpt><trkpt lat="44.932425446922636" lon="12.126265667162576"><ele>1.0</ele><time>2026-03-22T13:58:51.954Z</time></trkpt><trkpt lat="44.93230388225649" lon="12.12639373601586"><ele>0.0</ele><time>2026-03-22T13:58:52.954Z</time></trkpt><trkpt lat="44.93220898334554" lon="12.126542206253736"><ele>0.6666666666666666</ele><time>2026-03-22T13:58:53.954Z</time></trkpt><trkpt lat="44.932116230349074" lon="12.126723766310176"><ele>1.3333333333333333</ele><time>2026-03-22T13:58:54.954Z</time></trkpt><trkpt lat="44.93203278745878" lon="12.12694059875304"><ele>2.0</ele><time>2026-03-22T13:58:55.954Z</time></trkpt><trkpt lat="44.93197358056796" lon="12.127182201292815"><ele>1.6666666666666665</ele><time>2026-03-22T13:58:56.954Z</time></trkpt><trkpt lat="44.931886428370824" lon="12.127446804632251"><ele>1.3333333333333333</ele><time>2026-03-22T13:58:57.954Z</time></trkpt><trkpt lat="44.93183319432837" lon="12.127737259717623"><ele>1.0</ele><time>2026-03-22T13:58:58.953Z</time></trkpt><trkpt lat="44.93180098533377" lon="12.12804125073923"><ele>1.5</ele><time>2026-03-22T13:58:59.953Z</time></trkpt><trkpt lat="44.93178134103263" lon="12.128367142634795"><ele>2.0</ele><time>2026-03-22T13:59:00.953Z</time></trkpt><trkpt lat="44.931779715628146" lon="12.12868851428697"><ele>2.0</ele><time>2026-03-22T13:59:01.953Z</time></trkpt><trkpt lat="44.93180253287899" lon="12.129014950575066"><ele>2.0</ele><time>2026-03-22T13:59:02.953Z</time></trkpt><trkpt lat="44.93183943986314" lon="12.12935019324311"><ele>3.0</ele><time>2026-03-22T13:59:03.953Z</time></trkpt><trkpt lat="44.931887775396035" lon="12.129693534163225"><ele>4.0</ele><time>2026-03-22T13:59:04.953Z</time></trkpt><trkpt lat="44.93194119887542" lon="12.13002661449447"><ele>4.0</ele><time>2026-03-22T13:59:05.953Z</time></trkpt><trkpt lat="44.93199306958211" lon="12.130345700999008"><ele>4.0</ele><time>2026-03-22T13:59:06.953Z</time></trkpt><trkpt lat="44.9320383189388" lon="12.130653372527695"><ele>3.333333333333333</ele><time>2026-03-22T13:59:07.953Z</time></trkpt><trkpt lat="44.93207393060207" lon="12.130951338737937"><ele>2.6666666666666665</ele><time>2026-03-22T13:59:08.953Z</time></trkpt><trkpt lat="44.932092871114136" lon="12.131264220949552"><ele>2.0</ele><time>2026-03-22T13:59:09.953Z</time></trkpt><trkpt lat="44.93209683894689" lon="12.131587700238695"><ele>2.0</ele><time>2026-03-22T13:59:10.953Z</time></trkpt><trkpt lat="44.93208794734736" lon="12.131907124365494"><ele>2.0</ele><time>2026-03-22T13:59:11.953Z</time></trkpt><trkpt lat="44.932072116351186" lon="12.132228524566562"><ele>1.6666666666666665</ele><time>2026-03-22T13:59:12.953Z</time></trkpt><trkpt lat="44.932044835410814" lon="12.13254333565887"><ele>1.3333333333333333</ele><time>2026-03-22T13:59:13.953Z</time></trkpt><trkpt lat="44.932002306579825" lon="12.132843797641456"><ele>1.0</ele><time>2026-03-22T13:59:14.953Z</time></trkpt><trkpt lat="44.93193358221405" lon="12.133119453014498"><ele>1.0</ele><time>2026-03-22T13:59:15.953Z</time></trkpt><trkpt lat="44.931831204294106" lon="12.133391061919234"><ele>1.0</ele><time>2026-03-22T13:59:16.953Z</time></trkpt><trkpt lat="44.93170710572596" lon="12.133649208052095"><ele>1.0</ele><time>2026-03-22T13:59:17.953Z</time></trkpt><trkpt lat="44.931569164048845" lon="12.13390910259381"><ele>2.0</ele><time>2026-03-22T13:59:18.953Z</time></trkpt><trkpt lat="44.931425653947755" lon="12.134170607888892"><ele>3.0</ele><time>2026-03-22T13:59:19.953Z</time></trkpt><trkpt lat="44.931274614047574" lon="12.134443847781897"><ele>3.0</ele><time>2026-03-22T13:59:20.953Z</time></trkpt><trkpt lat="44.93111930245906" lon="12.13472409663064"><ele>3.0</ele><time>2026-03-22T13:59:21.953Z</time></trkpt><trkpt lat="44.93096405810434" lon="12.134999136444279"><ele>2.0</ele><time>2026-03-22T13:59:22.953Z</time></trkpt><trkpt lat="44.93080127234589" lon="12.135272286217553"><ele>1.0</ele><time>2026-03-22T13:59:23.953Z</time></trkpt><trkpt lat="44.9306375035875" lon="12.135542384040534"><ele>1.5</ele><time>2026-03-22T13:59:24.953Z</time></trkpt><trkpt lat="44.93047001385516" lon="12.135812519583414"><ele>2.0</ele><time>2026-03-22T13:59:25.953Z</time></trkpt><trkpt lat="44.93031492749054" lon="12.136091465605926"><ele>2.0</ele><time>2026-03-22T13:59:26.953Z</time></trkpt><trkpt lat="44.93018438569155" lon="12.136379534926325"><ele>2.0</ele><time>2026-03-22T13:59:27.953Z</time></trkpt><trkpt lat="44.93006727321739" lon="12.13664762421322"><ele>2.333333333333333</ele><time>2026-03-22T13:59:28.953Z</time></trkpt><trkpt lat="44.9299544929465" lon="12.136903693876578"><ele>2.6666666666666665</ele><time>2026-03-22T13:59:29.953Z</time></trkpt><trkpt lat="44.92982851423445" lon="12.13711849660236"><ele>3.0</ele><time>2026-03-22T13:59:30.953Z</time></trkpt><trkpt lat="44.929680691666704" lon="12.137304185997614"><ele>3.0</ele><time>2026-03-22T13:59:31.953Z</time></trkpt><trkpt lat="44.929510679308756" lon="12.13748803319833"><ele>3.0</ele><time>2026-03-22T13:59:32.953Z</time></trkpt><trkpt lat="44.92933508618012" lon="12.137681356295742"><ele>3.0</ele><time>2026-03-22T13:59:33.953Z</time></trkpt><trkpt lat="44.92915478188243" lon="12.137877164662195"><ele>2.6666666666666665</ele><time>2026-03-22T13:59:34.953Z</time></trkpt><trkpt lat="44.92898262262916" lon="12.138064003169914"><ele>2.333333333333333</ele><time>2026-03-22T13:59:35.953Z</time></trkpt><trkpt lat="44.928814617620745" lon="12.138247983235862"><ele>2.0</ele><time>2026-03-22T13:59:36.953Z</time></trkpt><trkpt lat="44.92865452925428" lon="12.138433603535939"><ele>1.6666666666666665</ele><time>2026-03-22T13:59:37.953Z</time></trkpt><trkpt lat="44.92850242394303" lon="12.138641836441478"><ele>1.3333333333333333</ele><time>2026-03-22T13:59:38.953Z</time></trkpt><trkpt lat="44.92836080758527" lon="12.13886597753373"><ele>1.0</ele><time>2026-03-22T13:59:39.953Z</time></trkpt><trkpt lat="44.92822556776976" lon="12.139098540012402"><ele>1.0</ele><time>2026-03-22T13:59:40.953Z</time></trkpt><trkpt lat="44.92809983095431" lon="12.13933753297707"><ele>1.0</ele><time>2026-03-22T13:59:41.953Z</time></trkpt><trkpt lat="44.927980187063596" lon="12.13958623921499"><ele>1.0</ele><time>2026-03-22T13:59:42.953Z</time></trkpt><trkpt lat="44.92787052398854" lon="12.13983154927843"><ele>0.6666666666666666</ele><time>2026-03-22T13:59:43.953Z</time></trkpt><trkpt lat="44.92778052645313" lon="12.14010398354857"><ele>0.3333333333333333</ele><time>2026-03-22T13:59:44.953Z</time></trkpt><trkpt lat="44.927651908573516" lon="12.140379252973117"><ele>0.0</ele><time>2026-03-22T13:59:45.953Z</time></trkpt><trkpt lat="44.927536234053264" lon="12.140673659032629"><ele>1.0</ele><time>2026-03-22T13:59:46.952Z</time></trkpt><trkpt lat="44.927468637374396" lon="12.140993465897045"><ele>2.0</ele><time>2026-03-22T13:59:47.952Z</time></trkpt><trkpt lat="44.92737703139073" lon="12.141287568154304"><ele>2.333333333333333</ele><time>2026-03-22T13:59:48.952Z</time></trkpt><trkpt lat="44.927308570899946" lon="12.141578358911168"><ele>2.6666666666666665</ele><time>2026-03-22T13:59:49.952Z</time></trkpt><trkpt lat="44.92726329498136" lon="12.141849531433909"><ele>3.0</ele><time>2026-03-22T13:59:50.952Z</time></trkpt><trkpt lat="44.927240602480275" lon="12.14212401705984"><ele>3.0</ele><time>2026-03-22T13:59:51.952Z</time></trkpt><trkpt lat="44.9272539281702" lon="12.142413593696272"><ele>3.0</ele><time>2026-03-22T13:59:52.952Z</time></trkpt><trkpt lat="44.92728192361957" lon="12.14272225705589"><ele>3.0</ele><time>2026-03-22T13:59:53.952Z</time></trkpt><trkpt lat="44.92732097200635" lon="12.143039485879743"><ele>2.6666666666666665</ele><time>2026-03-22T13:59:54.952Z</time></trkpt><trkpt lat="44.927364953826604" lon="12.143345192436279"><ele>2.333333333333333</ele><time>2026-03-22T13:59:55.952Z</time></trkpt><trkpt lat="44.927421298824285" lon="12.143649773193365"><ele>2.0</ele><time>2026-03-22T13:59:56.952Z</time></trkpt><trkpt lat="44.92748775828936" lon="12.1439508154057"><ele>1.6666666666666665</ele><time>2026-03-22T13:59:57.952Z</time></trkpt><trkpt lat="44.92756060180606" lon="12.144247363943657"><ele>1.3333333333333333</ele><time>2026-03-22T13:59:58.952Z</time></trkpt><trkpt lat="44.92764739668514" lon="12.144537404125277"><ele>1.0</ele><time>2026-03-22T13:59:59.952Z</time></trkpt><trkpt lat="44.927751518928254" lon="12.144823876333543"><ele>1.0</ele><time>2026-03-22T14:00:00.954Z</time></trkpt><trkpt lat="44.927872614489274" lon="12.145098113438733"><ele>1.0</ele><time>2026-03-22T14:00:01.954Z</time></trkpt><trkpt lat="44.928014103695915" lon="12.145357243423609"><ele>1.0</ele><time>2026-03-22T14:00:02.954Z</time></trkpt><trkpt lat="44.928177753243965" lon="12.145614102385702"><ele>1.0</ele><time>2026-03-22T14:00:03.954Z</time></trkpt><trkpt lat="44.928359394292826" lon="12.145863861557794"><ele>3.0</ele><time>2026-03-22T14:00:04.954Z</time></trkpt><trkpt lat="44.92853950048137" lon="12.146107403714614"><ele>5.0</ele><time>2026-03-22T14:00:05.954Z</time></trkpt><trkpt lat="44.92871931268259" lon="12.146351150030574"><ele>4.5</ele><time>2026-03-22T14:00:06.954Z</time></trkpt><trkpt lat="44.92889097510471" lon="12.146591542757395"><ele>4.0</ele><time>2026-03-22T14:00:07.954Z</time></trkpt><trkpt lat="44.92905174546076" lon="12.146831524735722"><ele>4.0</ele><time>2026-03-22T14:00:08.954Z</time></trkpt><trkpt lat="44.929204444435214" lon="12.147089753553844"><ele>4.0</ele><time>2026-03-22T14:00:09.954Z</time></trkpt><trkpt lat="44.92934149137048" lon="12.147342758704447"><ele>3.6666666666666665</ele><time>2026-03-22T14:00:10.954Z</time></trkpt><trkpt lat="44.92946327725263" lon="12.147600602275967"><ele>3.333333333333333</ele><time>2026-03-22T14:00:11.954Z</time></trkpt><trkpt lat="44.929577572188684" lon="12.147868900792757"><ele>3.0</ele><time>2026-03-22T14:00:12.954Z</time></trkpt><trkpt lat="44.9296747033105" lon="12.148140557493479"><ele>3.333333333333333</ele><time>2026-03-22T14:00:13.954Z</time></trkpt><trkpt lat="44.92976235403184" lon="12.14840693077263"><ele>3.6666666666666665</ele><time>2026-03-22T14:00:14.954Z</time></trkpt><trkpt lat="44.929820203922766" lon="12.148682773626495"><ele>4.0</ele><time>2026-03-22T14:00:15.954Z</time></trkpt><trkpt lat="44.929843167676964" lon="12.148969843549423"><ele>5.0</ele><time>2026-03-22T14:00:16.954Z</time></trkpt><trkpt lat="44.929827318279166" lon="12.149272277256081"><ele>6.0</ele><time>2026-03-22T14:00:17.954Z</time></trkpt><trkpt lat="44.929796522604704" lon="12.14958495936938"><ele>7.0</ele><time>2026-03-22T14:00:18.954Z</time></trkpt><trkpt lat="44.929751325562094" lon="12.149909981920839"><ele>9.5</ele><time>2026-03-22T14:00:19.954Z</time></trkpt><trkpt lat="44.92970662647892" lon="12.150244074935374"><ele>12.0</ele><time>2026-03-22T14:00:20.954Z</time></trkpt><trkpt lat="44.92965576509424" lon="12.150577794872287"><ele>11.5</ele><time>2026-03-22T14:00:21.954Z</time></trkpt><trkpt lat="44.92960578280567" lon="12.150913141157469"><ele>11.0</ele><time>2026-03-22T14:00:22.954Z</time></trkpt><trkpt lat="44.929553326734805" lon="12.151248478718523"><ele>10.5</ele><time>2026-03-22T14:00:23.954Z</time></trkpt><trkpt lat="44.92950783541973" lon="12.151593761260996"><ele>10.0</ele><time>2026-03-22T14:00:24.954Z</time></trkpt><trkpt lat="44.92946869251685" lon="12.151941630028384"><ele>10.0</ele><time>2026-03-22T14:00:25.954Z</time></trkpt><trkpt lat="44.92943880799713" lon="12.152287748128355"><ele>10.0</ele><time>2026-03-22T14:00:26.954Z</time></trkpt><trkpt lat="44.92940581102656" lon="12.152624262849422"><ele>10.5</ele><time>2026-03-22T14:00:27.954Z</time></trkpt><trkpt lat="44.929367003512816" lon="12.152960689469829"><ele>11.0</ele><time>2026-03-22T14:00:28.954Z</time></trkpt><trkpt lat="44.92930267307862" lon="12.153280525918138"><ele>11.0</ele><time>2026-03-22T14:00:29.954Z</time></trkpt><trkpt lat="44.92923246217136" lon="12.15358385340098"><ele>11.0</ele><time>2026-03-22T14:00:30.954Z</time></trkpt><trkpt lat="44.929159709119745" lon="12.153877231594365"><ele>11.0</ele><time>2026-03-22T14:00:31.954Z</time></trkpt><trkpt lat="44.92909456442486" lon="12.154170272339908"><ele>10.0</ele><time>2026-03-22T14:00:32.954Z</time></trkpt><trkpt lat="44.92902582826475" lon="12.154446705615921"><ele>9.0</ele><time>2026-03-22T14:00:33.954Z</time></trkpt><trkpt lat="44.928966031569445" lon="12.154713961783878"><ele>8.0</ele><time>2026-03-22T14:00:34.954Z</time></trkpt><trkpt lat="44.928915711467" lon="12.154989417363389"><ele>8.0</ele><time>2026-03-22T14:00:35.953Z</time></trkpt><trkpt lat="44.92888053453664" lon="12.155288670548758"><ele>8.0</ele><time>2026-03-22T14:00:36.953Z</time></trkpt><trkpt lat="44.92885173937235" lon="12.15560230692345"><ele>8.0</ele><time>2026-03-22T14:00:37.953Z</time></trkpt><trkpt lat="44.9288333162113" lon="12.155933818560214"><ele>8.5</ele><time>2026-03-22T14:00:38.953Z</time></trkpt><trkpt lat="44.928828007873044" lon="12.156273877143947"><ele>9.0</ele><time>2026-03-22T14:00:39.953Z</time></trkpt><trkpt lat="44.92883619707221" lon="12.156615125475419"><ele>7.0</ele><time>2026-03-22T14:00:40.953Z</time></trkpt><trkpt lat="44.92885241207935" lon="12.156972767444337"><ele>5.0</ele><time>2026-03-22T14:00:41.953Z</time></trkpt><trkpt lat="44.92888273497837" lon="12.15733384901535"><ele>4.0</ele><time>2026-03-22T14:00:42.953Z</time></trkpt><trkpt lat="44.928917730176515" lon="12.157700824258024"><ele>3.0</ele><time>2026-03-22T14:00:43.953Z</time></trkpt><trkpt lat="44.92895527765079" lon="12.158064946632738"><ele>2.0</ele><time>2026-03-22T14:00:44.953Z</time></trkpt><trkpt lat="44.928993848357365" lon="12.158426074761113"><ele>1.0</ele><time>2026-03-22T14:00:45.953Z</time></trkpt><trkpt lat="44.92902616049378" lon="12.158775574978437"><ele>0.5</ele><time>2026-03-22T14:00:46.953Z</time></trkpt><trkpt lat="44.929056524595545" lon="12.15911174640626"><ele>0.0</ele><time>2026-03-22T14:00:47.953Z</time></trkpt><trkpt lat="44.92909576101669" lon="12.15943542000685"><ele>0.0</ele><time>2026-03-22T14:00:48.953Z</time></trkpt><trkpt lat="44.92914391758924" lon="12.159756636191146"><ele>0.0</ele><time>2026-03-22T14:00:49.953Z</time></trkpt><trkpt lat="44.929204556991344" lon="12.160073460102794"><ele>1.0</ele><time>2026-03-22T14:00:50.953Z</time></trkpt><trkpt lat="44.929284630141424" lon="12.160385976938962"><ele>2.0</ele><time>2026-03-22T14:00:51.953Z</time></trkpt><trkpt lat="44.9293653984412" lon="12.160694027050424"><ele>2.5</ele><time>2026-03-22T14:00:52.953Z</time></trkpt><trkpt lat="44.929455513653934" lon="12.160991486282361"><ele>3.0</ele><time>2026-03-22T14:00:53.953Z</time></trkpt><trkpt lat="44.929567351754514" lon="12.161281435980875"><ele>1.6666666666666667</ele><time>2026-03-22T14:00:54.953Z</time></trkpt><trkpt lat="44.92969208607212" lon="12.16154348348276"><ele>0.33333333333333337</ele><time>2026-03-22T14:00:55.953Z</time></trkpt><trkpt lat="44.929815465245824" lon="12.161786733786668"><ele>-1.0</ele><time>2026-03-22T14:00:56.953Z</time></trkpt><trkpt lat="44.92994982977486" lon="12.162021547437314"><ele>-0.6666666666666666</ele><time>2026-03-22T14:00:57.953Z</time></trkpt><trkpt lat="44.93008539304278" lon="12.162250805964153"><ele>-0.3333333333333333</ele><time>2026-03-22T14:00:58.953Z</time></trkpt><trkpt lat="44.93021667253456" lon="12.162468382689955"><ele>0.0</ele><time>2026-03-22T14:00:59.953Z</time></trkpt><trkpt lat="44.93034865664634" lon="12.162682325831412"><ele>0.0</ele><time>2026-03-22T14:01:00.953Z</time></trkpt><trkpt lat="44.930474660242275" lon="12.162874431760889"><ele>0.0</ele><time>2026-03-22T14:01:01.953Z</time></trkpt><trkpt lat="44.93058400347428" lon="12.163052818073673"><ele>0.0</ele><time>2026-03-22T14:01:02.953Z</time></trkpt><trkpt lat="44.93068121634047" lon="12.163226684763703"><ele>-0.3333333333333333</ele><time>2026-03-22T14:01:03.953Z</time></trkpt><trkpt lat="44.930769028669204" lon="12.163420698872248"><ele>-0.6666666666666666</ele><time>2026-03-22T14:01:04.953Z</time></trkpt><trkpt lat="44.93082963334377" lon="12.163647887317715"><ele>-1.0</ele><time>2026-03-22T14:01:05.953Z</time></trkpt><trkpt lat="44.93088468534312" lon="12.163898609374"><ele>-0.5</ele><time>2026-03-22T14:01:06.953Z</time></trkpt><trkpt lat="44.930890229840124" lon="12.164197541370845"><ele>0.0</ele><time>2026-03-22T14:01:07.953Z</time></trkpt><trkpt lat="44.93089549637175" lon="12.164536133218457"><ele>-1.5</ele><time>2026-03-22T14:01:08.953Z</time></trkpt><trkpt lat="44.93090005018234" lon="12.164904481289176"><ele>-3.0</ele><time>2026-03-22T14:01:09.953Z</time></trkpt><trkpt lat="44.930904602055996" lon="12.165292354554504"><ele>-3.0</ele><time>2026-03-22T14:01:10.953Z</time></trkpt><trkpt lat="44.930908066716604" lon="12.16569374889796"><ele>-3.0</ele><time>2026-03-22T14:01:11.953Z</time></trkpt><trkpt lat="44.93091074111506" lon="12.166103873150066"><ele>-3.0</ele><time>2026-03-22T14:01:12.953Z</time></trkpt><trkpt lat="44.930910086399166" lon="12.16652143667632"><ele>-3.0</ele><time>2026-03-22T14:01:13.953Z</time></trkpt><trkpt lat="44.93090708406235" lon="12.166939961483267"><ele>-2.5</ele><time>2026-03-22T14:01:14.953Z</time></trkpt><trkpt lat="44.930916528627364" lon="12.16735955432078"><ele>-2.0</ele><time>2026-03-22T14:01:15.953Z</time></trkpt><trkpt lat="44.93090638663641" lon="12.167779491501072"><ele>-3.0</ele><time>2026-03-22T14:01:16.953Z</time></trkpt><trkpt lat="44.93089238408801" lon="12.168197584398309"><ele>-4.0</ele><time>2026-03-22T14:01:17.953Z</time></trkpt><trkpt lat="44.93088189665804" lon="12.16861796360365"><ele>-4.0</ele><time>2026-03-22T14:01:18.953Z</time></trkpt><trkpt lat="44.93086528285062" lon="12.169039327145649"><ele>-4.0</ele><time>2026-03-22T14:01:19.953Z</time></trkpt><trkpt lat="44.93085213537776" lon="12.169457699961846"><ele>-3.5</ele><time>2026-03-22T14:01:20.953Z</time></trkpt><trkpt lat="44.93084110439943" lon="12.169867202452085"><ele>-3.0</ele><time>2026-03-22T14:01:21.953Z</time></trkpt><trkpt lat="44.93083293150699" lon="12.17025981984904"><ele>-3.0</ele><time>2026-03-22T14:01:22.953Z</time></trkpt><trkpt lat="44.93082906183768" lon="12.170624428730726"><ele>-3.0</ele><time>2026-03-22T14:01:23.952Z</time></trkpt><trkpt lat="44.93081804359811" lon="12.170960943090966"><ele>-3.0</ele><time>2026-03-22T14:01:24.952Z</time></trkpt><trkpt lat="44.9308107188972" lon="12.171272106944514"><ele>-3.0</ele><time>2026-03-22T14:01:25.952Z</time></trkpt><trkpt lat="44.930806550392475" lon="12.17158896159576"><ele>-3.0</ele><time>2026-03-22T14:01:26.952Z</time></trkpt><trkpt lat="44.930791506087694" lon="12.171900269006603"><ele>-3.333333333333333</ele><time>2026-03-22T14:01:27.952Z</time></trkpt><trkpt lat="44.93075666339181" lon="12.172209690778313"><ele>-3.6666666666666665</ele><time>2026-03-22T14:01:28.952Z</time></trkpt><trkpt lat="44.9306835621811" lon="12.172507470764707"><ele>-4.0</ele><time>2026-03-22T14:01:29.952Z</time></trkpt><trkpt lat="44.930597227905515" lon="12.172807520507202"><ele>-4.0</ele><time>2026-03-22T14:01:30.952Z</time></trkpt><trkpt lat="44.93049149957876" lon="12.173124047167796"><ele>-4.0</ele><time>2026-03-22T14:01:31.952Z</time></trkpt><trkpt lat="44.930393044596265" lon="12.173459630356334"><ele>-3.5</ele><time>2026-03-22T14:01:32.952Z</time></trkpt><trkpt lat="44.93026470408949" lon="12.173782517113157"><ele>-3.0</ele><time>2026-03-22T14:01:33.952Z</time></trkpt><trkpt lat="44.930143768803" lon="12.174112698730834"><ele>-2.5</ele><time>2026-03-22T14:01:34.952Z</time></trkpt><trkpt lat="44.93002457933113" lon="12.17444402178561"><ele>-2.0</ele><time>2026-03-22T14:01:35.952Z</time></trkpt><trkpt lat="44.92990530250689" lon="12.174769685883183"><ele>-3.5</ele><time>2026-03-22T14:01:36.952Z</time></trkpt><trkpt lat="44.92979174521177" lon="12.175092450438651"><ele>-5.0</ele><time>2026-03-22T14:01:37.952Z</time></trkpt><trkpt lat="44.929669271350456" lon="12.175424064794381"><ele>-5.0</ele><time>2026-03-22T14:01:38.952Z</time></trkpt><trkpt lat="44.92955775451932" lon="12.17575154153713"><ele>-5.0</ele><time>2026-03-22T14:01:39.952Z</time></trkpt><trkpt lat="44.9294378939523" lon="12.176079122656704"><ele>-5.0</ele><time>2026-03-22T14:01:40.952Z</time></trkpt><trkpt lat="44.92931371815022" lon="12.176408862099809"><ele>-5.0</ele><time>2026-03-22T14:01:41.952Z</time></trkpt><trkpt lat="44.92918326737581" lon="12.176735813943072"><ele>-4.5</ele><time>2026-03-22T14:01:42.952Z</time></trkpt><trkpt lat="44.92904714356475" lon="12.177055993783819"><ele>-4.0</ele><time>2026-03-22T14:01:43.952Z</time></trkpt><trkpt lat="44.92891153918436" lon="12.177381738336738"><ele>-4.0</ele><time>2026-03-22T14:01:44.952Z</time></trkpt><trkpt lat="44.92877060621339" lon="12.177709881030435"><ele>-4.0</ele><time>2026-03-22T14:01:45.952Z</time></trkpt><trkpt lat="44.928629628167" lon="12.178037001000167"><ele>-3.5</ele><time>2026-03-22T14:01:46.952Z</time></trkpt><trkpt lat="44.92849358686092" lon="12.178359407791326"><ele>-3.0</ele><time>2026-03-22T14:01:47.952Z</time></trkpt><trkpt lat="44.928359024441114" lon="12.178681112203167"><ele>-2.5</ele><time>2026-03-22T14:01:48.952Z</time></trkpt><trkpt lat="44.92822460153527" lon="12.179001202584374"><ele>-2.0</ele><time>2026-03-22T14:01:49.952Z</time></trkpt><trkpt lat="44.92809491010659" lon="12.1793076028906"><ele>-2.0</ele><time>2026-03-22T14:01:50.952Z</time></trkpt><trkpt lat="44.92797462193387" lon="12.179603564859502"><ele>-2.0</ele><time>2026-03-22T14:01:51.952Z</time></trkpt><trkpt lat="44.92785405125595" lon="12.179880614189925"><ele>-1.6666666666666665</ele><time>2026-03-22T14:01:52.952Z</time></trkpt><trkpt lat="44.92774573923889" lon="12.180140591199464"><ele>-1.3333333333333333</ele><time>2026-03-22T14:01:53.952Z</time></trkpt><trkpt lat="44.92763079483951" lon="12.180394309541075"><ele>-1.0</ele><time>2026-03-22T14:01:54.952Z</time></trkpt><trkpt lat="44.92751882079441" lon="12.180660626103162"><ele>-1.5</ele><time>2026-03-22T14:01:55.952Z</time></trkpt><trkpt lat="44.92740891048262" lon="12.180929017517366"><ele>-2.0</ele><time>2026-03-22T14:01:56.952Z</time></trkpt><trkpt lat="44.92728936727494" lon="12.181209714576802"><ele>-2.0</ele><time>2026-03-22T14:01:57.952Z</time></trkpt><trkpt lat="44.92718122994882" lon="12.181526300724647"><ele>-2.0</ele><time>2026-03-22T14:01:58.952Z</time></trkpt><trkpt lat="44.92708558520359" lon="12.1818684024181"><ele>-4.0</ele><time>2026-03-22T14:01:59.952Z</time></trkpt><trkpt lat="44.92689159592915" lon="12.182583793025396"><ele>-4.0</ele><time>2026-03-22T14:02:01.952Z</time></trkpt><trkpt lat="44.92679476956145" lon="12.182951760262743"><ele>-4.0</ele><time>2026-03-22T14:02:02.952Z</time></trkpt><trkpt lat="44.92669511971062" lon="12.183317264146607"><ele>-3.0</ele><time>2026-03-22T14:02:03.952Z</time></trkpt><trkpt lat="44.92659414031639" lon="12.183684010832506"><ele>-2.0</ele><time>2026-03-22T14:02:04.952Z</time></trkpt><trkpt lat="44.9265014127602" lon="12.18404658140936"><ele>-1.5</ele><time>2026-03-22T14:02:05.952Z</time></trkpt><trkpt lat="44.92640218713297" lon="12.184402862088746"><ele>-1.0</ele><time>2026-03-22T14:02:06.953Z</time></trkpt><trkpt lat="44.92631058708512" lon="12.184755356643015"><ele>0.0</ele><time>2026-03-22T14:02:07.953Z</time></trkpt><trkpt lat="44.92622069286895" lon="12.185101637631115"><ele>1.0</ele><time>2026-03-22T14:02:08.953Z</time></trkpt><trkpt lat="44.92613158719749" lon="12.185441967911657"><ele>1.0</ele><time>2026-03-22T14:02:09.953Z</time></trkpt><trkpt lat="44.92603983524689" lon="12.185781840901996"><ele>1.0</ele><time>2026-03-22T14:02:10.953Z</time></trkpt><trkpt lat="44.92595473318589" lon="12.186127405271536"><ele>0.5</ele><time>2026-03-22T14:02:11.953Z</time></trkpt><trkpt lat="44.925853322350775" lon="12.186462445680347"><ele>0.0</ele><time>2026-03-22T14:02:12.953Z</time></trkpt><trkpt lat="44.92575961301037" lon="12.186803361755691"><ele>0.0</ele><time>2026-03-22T14:02:13.953Z</time></trkpt><trkpt lat="44.925668075597635" lon="12.187130682506947"><ele>0.0</ele><time>2026-03-22T14:02:14.953Z</time></trkpt><trkpt lat="44.92558446802493" lon="12.187431976617209"><ele>0.6666666666666666</ele><time>2026-03-22T14:02:15.953Z</time></trkpt><trkpt lat="44.925501880445836" lon="12.187697934584024"><ele>1.3333333333333333</ele><time>2026-03-22T14:02:16.953Z</time></trkpt><trkpt lat="44.92543142266297" lon="12.187947907607285"><ele>2.0</ele><time>2026-03-22T14:02:17.953Z</time></trkpt><trkpt lat="44.92536237012836" lon="12.188184227694387"><ele>2.0</ele><time>2026-03-22T14:02:18.953Z</time></trkpt><trkpt lat="44.925295165834484" lon="12.188429613880915"><ele>2.0</ele><time>2026-03-22T14:02:19.953Z</time></trkpt><trkpt lat="44.92522304532175" lon="12.188687936020594"><ele>2.0</ele><time>2026-03-22T14:02:20.953Z</time></trkpt><trkpt lat="44.92516057668962" lon="12.188971009980719"><ele>1.6666666666666665</ele><time>2026-03-22T14:02:21.953Z</time></trkpt><trkpt lat="44.92510075236428" lon="12.189263316043633"><ele>1.3333333333333333</ele><time>2026-03-22T14:02:22.953Z</time></trkpt><trkpt lat="44.92505106137692" lon="12.189584286910955"><ele>1.0</ele><time>2026-03-22T14:02:23.953Z</time></trkpt><trkpt lat="44.925009238331135" lon="12.189916156412405"><ele>1.0</ele><time>2026-03-22T14:02:24.953Z</time></trkpt><trkpt lat="44.92495519614278" lon="12.190275866813346"><ele>1.0</ele><time>2026-03-22T14:02:25.953Z</time></trkpt><trkpt lat="44.92491012808263" lon="12.190626712575751"><ele>0.0</ele><time>2026-03-22T14:02:26.953Z</time></trkpt><trkpt lat="44.924880169722684" lon="12.190948143420462"><ele>-1.0</ele><time>2026-03-22T14:02:27.953Z</time></trkpt><trkpt lat="44.92485572113106" lon="12.191283218921109"><ele>1.0</ele><time>2026-03-22T14:02:28.953Z</time></trkpt><trkpt lat="44.92482661484958" lon="12.191628133076797"><ele>3.0</ele><time>2026-03-22T14:02:29.953Z</time></trkpt><trkpt lat="44.92479029092618" lon="12.19196880807109"><ele>3.0</ele><time>2026-03-22T14:02:30.953Z</time></trkpt><trkpt lat="44.924755371228926" lon="12.192302345171337"><ele>3.0</ele><time>2026-03-22T14:02:31.953Z</time></trkpt><trkpt lat="44.924728618464115" lon="12.19264127588984"><ele>3.0</ele><time>2026-03-22T14:02:32.953Z</time></trkpt><trkpt lat="44.92472076091709" lon="12.192984186709527"><ele>3.0</ele><time>2026-03-22T14:02:33.953Z</time></trkpt><trkpt lat="44.92473114108353" lon="12.193319274058947"><ele>3.5</ele><time>2026-03-22T14:02:34.953Z</time></trkpt><trkpt lat="44.92475407907321" lon="12.193661752932064"><ele>4.0</ele><time>2026-03-22T14:02:35.953Z</time></trkpt><trkpt lat="44.924767963677525" lon="12.194012951743153"><ele>3.0</ele><time>2026-03-22T14:02:36.953Z</time></trkpt><trkpt lat="44.924755948616074" lon="12.194373659885313"><ele>2.0</ele><time>2026-03-22T14:02:37.953Z</time></trkpt><trkpt lat="44.92475616585418" lon="12.194743427855837"><ele>3.0</ele><time>2026-03-22T14:02:38.953Z</time></trkpt><trkpt lat="44.924755674981434" lon="12.195124022714065"><ele>4.0</ele><time>2026-03-22T14:02:39.953Z</time></trkpt><trkpt lat="44.92475468148035" lon="12.195506991769802"><ele>3.5</ele><time>2026-03-22T14:02:40.953Z</time></trkpt><trkpt lat="44.92475598825443" lon="12.19589864317409"><ele>3.0</ele><time>2026-03-22T14:02:41.953Z</time></trkpt><trkpt lat="44.92475763265849" lon="12.196290422520843"><ele>2.0</ele><time>2026-03-22T14:02:42.953Z</time></trkpt><trkpt lat="44.92475927820405" lon="12.19668247370443"><ele>1.0</ele><time>2026-03-22T14:02:43.953Z</time></trkpt><trkpt lat="44.92476094427557" lon="12.197079415455482"><ele>1.5</ele><time>2026-03-22T14:02:44.953Z</time></trkpt><trkpt lat="44.924763163916325" lon="12.19747062176954"><ele>2.0</ele><time>2026-03-22T14:02:45.953Z</time></trkpt><trkpt lat="44.92477014594747" lon="12.19786477131889"><ele>3.0</ele><time>2026-03-22T14:02:46.953Z</time></trkpt><trkpt lat="44.9247856512779" lon="12.198255830461502"><ele>4.0</ele><time>2026-03-22T14:02:47.953Z</time></trkpt><trkpt lat="44.924803777273105" lon="12.19864050845381"><ele>3.0</ele><time>2026-03-22T14:02:48.952Z</time></trkpt><trkpt lat="44.92482401064941" lon="12.199024354669238"><ele>2.0</ele><time>2026-03-22T14:02:49.952Z</time></trkpt><trkpt lat="44.92486002433382" lon="12.199406152809221"><ele>2.0</ele><time>2026-03-22T14:02:50.952Z</time></trkpt><trkpt lat="44.92488747528117" lon="12.19979259838705"><ele>2.0</ele><time>2026-03-22T14:02:51.952Z</time></trkpt><trkpt lat="44.9249164714022" lon="12.200171537939042"><ele>2.0</ele><time>2026-03-22T14:02:52.952Z</time></trkpt><trkpt lat="44.924960545882364" lon="12.200552637284"><ele>2.0</ele><time>2026-03-22T14:02:53.952Z</time></trkpt><trkpt lat="44.925018896179985" lon="12.200933878981576"><ele>2.0</ele><time>2026-03-22T14:02:54.952Z</time></trkpt><trkpt lat="44.925082027285775" lon="12.201317875404982"><ele>2.0</ele><time>2026-03-22T14:02:55.952Z</time></trkpt><trkpt lat="44.92514351357678" lon="12.201691479135885"><ele>2.0</ele><time>2026-03-22T14:02:56.952Z</time></trkpt><trkpt lat="44.9251973262782" lon="12.2020647968429"><ele>2.0</ele><time>2026-03-22T14:02:57.952Z</time></trkpt><trkpt lat="44.92525709328578" lon="12.202446027377295"><ele>1.5</ele><time>2026-03-22T14:02:58.952Z</time></trkpt><trkpt lat="44.92531716273108" lon="12.202815065456543"><ele>1.0</ele><time>2026-03-22T14:02:59.952Z</time></trkpt><trkpt lat="44.92537400854086" lon="12.20319375074448"><ele>2.5</ele><time>2026-03-22T14:03:00.952Z</time></trkpt><trkpt lat="44.92542806839693" lon="12.203579498383592"><ele>4.0</ele><time>2026-03-22T14:03:01.951Z</time></trkpt><trkpt lat="44.92547452624808" lon="12.203975032428717"><ele>2.0</ele><time>2026-03-22T14:03:02.951Z</time></trkpt><trkpt lat="44.92551027426282" lon="12.204371857028887"><ele>0.0</ele><time>2026-03-22T14:03:03.951Z</time></trkpt><trkpt lat="44.925537663481535" lon="12.204767921758014"><ele>1.5</ele><time>2026-03-22T14:03:04.951Z</time></trkpt><trkpt lat="44.925567967513295" lon="12.205163398024313"><ele>3.0</ele><time>2026-03-22T14:03:05.951Z</time></trkpt><trkpt lat="44.92559317533257" lon="12.205556296379907"><ele>3.0</ele><time>2026-03-22T14:03:06.951Z</time></trkpt><trkpt lat="44.9256062282397" lon="12.20594944243988"><ele>3.0</ele><time>2026-03-22T14:03:07.951Z</time></trkpt><trkpt lat="44.92561534137566" lon="12.206347383256373"><ele>4.5</ele><time>2026-03-22T14:03:08.951Z</time></trkpt><trkpt lat="44.925615921024686" lon="12.20674232911918"><ele>6.0</ele><time>2026-03-22T14:03:09.951Z</time></trkpt><trkpt lat="44.92560434663998" lon="12.207142229160178"><ele>6.5</ele><time>2026-03-22T14:03:10.951Z</time></trkpt><trkpt lat="44.925588701502704" lon="12.207540821454606"><ele>7.0</ele><time>2026-03-22T14:03:11.951Z</time></trkpt><trkpt lat="44.92556948005283" lon="12.207936911419166"><ele>5.0</ele><time>2026-03-22T14:03:12.951Z</time></trkpt><trkpt lat="44.92551908079988" lon="12.208321356373512"><ele>3.0</ele><time>2026-03-22T14:03:13.951Z</time></trkpt><trkpt lat="44.9254645290183" lon="12.208708242443223"><ele>3.0</ele><time>2026-03-22T14:03:14.951Z</time></trkpt><trkpt lat="44.925410409318246" lon="12.209090943294465"><ele>3.0</ele><time>2026-03-22T14:03:15.951Z</time></trkpt><trkpt lat="44.925356959552694" lon="12.209468060931977"><ele>2.0</ele><time>2026-03-22T14:03:16.951Z</time></trkpt><trkpt lat="44.92530418699416" lon="12.209838179574303"><ele>1.0</ele><time>2026-03-22T14:03:17.951Z</time></trkpt><trkpt lat="44.92525310123029" lon="12.210191448073076"><ele>1.0</ele><time>2026-03-22T14:03:18.951Z</time></trkpt><trkpt lat="44.92520361206972" lon="12.210534266604808"><ele>1.0</ele><time>2026-03-22T14:03:19.951Z</time></trkpt><trkpt lat="44.925155787116445" lon="12.210873634827562"><ele>1.0</ele><time>2026-03-22T14:03:20.951Z</time></trkpt><trkpt lat="44.92510867429449" lon="12.21120794973898"><ele>1.0</ele><time>2026-03-22T14:03:21.951Z</time></trkpt><trkpt lat="44.92506295365574" lon="12.211529053846624"><ele>1.6666666666666665</ele><time>2026-03-22T14:03:22.951Z</time></trkpt><trkpt lat="44.92502061789848" lon="12.211819957437086"><ele>2.3333333333333335</ele><time>2026-03-22T14:03:23.951Z</time></trkpt><trkpt lat="44.92498235458287" lon="12.212082877795256"><ele>3.0</ele><time>2026-03-22T14:03:24.951Z</time></trkpt><trkpt lat="44.92494732924731" lon="12.212325709419728"><ele>3.333333333333333</ele><time>2026-03-22T14:03:25.951Z</time></trkpt><trkpt lat="44.92494757429302" lon="12.212554453024756"><ele>3.6666666666666665</ele><time>2026-03-22T14:03:26.951Z</time></trkpt><trkpt lat="44.92490407345357" lon="12.212758166419333"><ele>4.0</ele><time>2026-03-22T14:03:27.95Z</time></trkpt><trkpt lat="44.924836539238775" lon="12.212937739094794"><ele>4.0</ele><time>2026-03-22T14:03:28.95Z</time></trkpt><trkpt lat="44.92475575274503" lon="12.213116273193707"><ele>4.0</ele><time>2026-03-22T14:03:29.95Z</time></trkpt><trkpt lat="44.924584612952096" lon="12.213185350771646"><ele>4.0</ele><time>2026-03-22T14:03:30.95Z</time></trkpt><trkpt lat="44.92450948442963" lon="12.213400223524626"><ele>3.6666666666666665</ele><time>2026-03-22T14:03:31.95Z</time></trkpt><trkpt lat="44.92447580025188" lon="12.213632231482842"><ele>3.333333333333333</ele><time>2026-03-22T14:03:32.95Z</time></trkpt><trkpt lat="44.924474201936675" lon="12.213870643138941"><ele>3.0</ele><time>2026-03-22T14:03:33.95Z</time></trkpt><trkpt lat="44.92451767034968" lon="12.214107223214018"><ele>3.0</ele><time>2026-03-22T14:03:34.95Z</time></trkpt><trkpt lat="44.92457134056574" lon="12.21432292239155"><ele>3.0</ele><time>2026-03-22T14:03:35.95Z</time></trkpt><trkpt lat="44.924594957811856" lon="12.21453398275672"><ele>3.0</ele><time>2026-03-22T14:03:36.95Z</time></trkpt><trkpt lat="44.92457748798484" lon="12.214737190848531"><ele>2.6666666666666665</ele><time>2026-03-22T14:03:37.95Z</time></trkpt><trkpt lat="44.92454949903897" lon="12.21498548024018"><ele>2.333333333333333</ele><time>2026-03-22T14:03:38.95Z</time></trkpt><trkpt lat="44.92451151031316" lon="12.215251810298348"><ele>2.0</ele><time>2026-03-22T14:03:39.95Z</time></trkpt><trkpt lat="44.924463517965115" lon="12.215530284085501"><ele>1.3333333333333333</ele><time>2026-03-22T14:03:40.95Z</time></trkpt><trkpt lat="44.924409606672825" lon="12.215812834419967"><ele>0.6666666666666666</ele><time>2026-03-22T14:03:41.95Z</time></trkpt><trkpt lat="44.9243509561889" lon="12.216095770675802"><ele>0.0</ele><time>2026-03-22T14:03:42.95Z</time></trkpt><trkpt lat="44.924288407246216" lon="12.216371829708228"><ele>0.6666666666666666</ele><time>2026-03-22T14:03:43.95Z</time></trkpt><trkpt lat="44.924214358992465" lon="12.216640961264922"><ele>1.3333333333333333</ele><time>2026-03-22T14:03:44.95Z</time></trkpt><trkpt lat="44.92413034274875" lon="12.21689828365584"><ele>2.0</ele><time>2026-03-22T14:03:45.95Z</time></trkpt><trkpt lat="44.92405205887529" lon="12.217160313080562"><ele>2.6666666666666665</ele><time>2026-03-22T14:03:46.95Z</time></trkpt><trkpt lat="44.92392884793519" lon="12.217385095444449"><ele>3.333333333333333</ele><time>2026-03-22T14:03:47.95Z</time></trkpt><trkpt lat="44.92381945279733" lon="12.217598464797508"><ele>4.0</ele><time>2026-03-22T14:03:48.95Z</time></trkpt><trkpt lat="44.92374129858216" lon="12.217844421615437"><ele>4.0</ele><time>2026-03-22T14:03:49.95Z</time></trkpt><trkpt lat="44.92368395989616" lon="12.218119832354652"><ele>4.0</ele><time>2026-03-22T14:03:50.95Z</time></trkpt><trkpt lat="44.92365491928233" lon="12.218420797196318"><ele>4.0</ele><time>2026-03-22T14:03:51.95Z</time></trkpt><trkpt lat="44.92360431662111" lon="12.218733583978867"><ele>3.0</ele><time>2026-03-22T14:03:52.95Z</time></trkpt><trkpt lat="44.923543837705736" lon="12.219053963875378"><ele>2.0</ele><time>2026-03-22T14:03:53.95Z</time></trkpt><trkpt lat="44.9234718776909" lon="12.219385607431418"><ele>2.0</ele><time>2026-03-22T14:03:54.95Z</time></trkpt><trkpt lat="44.92339880076286" lon="12.219716524179825"><ele>2.0</ele><time>2026-03-22T14:03:55.95Z</time></trkpt><trkpt lat="44.92332461900022" lon="12.220052782213363"><ele>2.0</ele><time>2026-03-22T14:03:56.95Z</time></trkpt><trkpt lat="44.92324354262869" lon="12.220384328553369"><ele>2.0</ele><time>2026-03-22T14:03:57.95Z</time></trkpt><trkpt lat="44.923164901922206" lon="12.220703804467183"><ele>2.5</ele><time>2026-03-22T14:03:58.95Z</time></trkpt><trkpt lat="44.92307454619471" lon="12.221021250911596"><ele>3.0</ele><time>2026-03-22T14:03:59.95Z</time></trkpt><trkpt lat="44.92298674951212" lon="12.221325031923731"><ele>2.0</ele><time>2026-03-22T14:04:00.95Z</time></trkpt><trkpt lat="44.922896990653726" lon="12.221619614270299"><ele>1.0</ele><time>2026-03-22T14:04:01.95Z</time></trkpt><trkpt lat="44.92281005877745" lon="12.221914209203213"><ele>1.0</ele><time>2026-03-22T14:04:02.95Z</time></trkpt><trkpt lat="44.92272733059639" lon="12.222201548204088"><ele>1.0</ele><time>2026-03-22T14:04:03.95Z</time></trkpt><trkpt lat="44.92265260315315" lon="12.222463424256942"><ele>1.0</ele><time>2026-03-22T14:04:04.95Z</time></trkpt><trkpt lat="44.922579155234274" lon="12.222711828225538"><ele>1.0</ele><time>2026-03-22T14:04:05.95Z</time></trkpt><trkpt lat="44.92250821801681" lon="12.222949320146977"><ele>1.0</ele><time>2026-03-22T14:04:06.95Z</time></trkpt><trkpt lat="44.92244058386581" lon="12.223189627774847"><ele>1.0</ele><time>2026-03-22T14:04:07.95Z</time></trkpt><trkpt lat="44.92237783206492" lon="12.223414973393249"><ele>1.0</ele><time>2026-03-22T14:04:08.95Z</time></trkpt><trkpt lat="44.92232150447882" lon="12.223621246114625"><ele>1.0</ele><time>2026-03-22T14:04:09.95Z</time></trkpt><trkpt lat="44.92225794828659" lon="12.223819598086004"><ele>1.0</ele><time>2026-03-22T14:04:10.949Z</time></trkpt><trkpt lat="44.922192972958065" lon="12.224030052318831"><ele>1.3333333333333333</ele><time>2026-03-22T14:04:11.949Z</time></trkpt><trkpt lat="44.922114605673364" lon="12.224243076646022"><ele>1.6666666666666665</ele><time>2026-03-22T14:04:12.951Z</time></trkpt><trkpt lat="44.922037939125545" lon="12.224440773416443"><ele>2.0</ele><time>2026-03-22T14:04:13.951Z</time></trkpt><trkpt lat="44.92196613782098" lon="12.224622270376866"><ele>2.0</ele><time>2026-03-22T14:04:14.951Z</time></trkpt><trkpt lat="44.921902589136515" lon="12.224787072809876"><ele>2.0</ele><time>2026-03-22T14:04:15.951Z</time></trkpt><trkpt lat="44.92185008242447" lon="12.224937310042908"><ele>2.0</ele><time>2026-03-22T14:04:16.95Z</time></trkpt><trkpt lat="44.92181054633038" lon="12.225087794658348"><ele>2.0</ele><time>2026-03-22T14:04:17.95Z</time></trkpt><trkpt lat="44.921791529687155" lon="12.225245156679186"><ele>2.0</ele><time>2026-03-22T14:04:18.95Z</time></trkpt><trkpt lat="44.92179560865885" lon="12.22541235270197"><ele>2.0</ele><time>2026-03-22T14:04:19.95Z</time></trkpt><trkpt lat="44.92181449286402" lon="12.22559796974641"><ele>2.0</ele><time>2026-03-22T14:04:20.95Z</time></trkpt><trkpt lat="44.92184316501243" lon="12.225799271017337"><ele>2.0</ele><time>2026-03-22T14:04:21.951Z</time></trkpt><trkpt lat="44.92189162807958" lon="12.225995490007842"><ele>2.0</ele><time>2026-03-22T14:04:22.951Z</time></trkpt><trkpt lat="44.92195419311945" lon="12.226202139804816"><ele>2.0</ele><time>2026-03-22T14:04:23.951Z</time></trkpt><trkpt lat="44.92200469420886" lon="12.226400785732157"><ele>2.0</ele><time>2026-03-22T14:04:24.95Z</time></trkpt><trkpt lat="44.92205567976741" lon="12.226594331823774"><ele>0.75</ele><time>2026-03-22T14:04:25.951Z</time></trkpt><trkpt lat="44.92210187838851" lon="12.22676796420818"><ele>-0.5</ele><time>2026-03-22T14:04:26.951Z</time></trkpt><trkpt lat="44.92215185237188" lon="12.226922892818912"><ele>-1.75</ele><time>2026-03-22T14:04:27.951Z</time></trkpt><trkpt lat="44.92219331906012" lon="12.227058605139872"><ele>-3.0</ele><time>2026-03-22T14:04:28.951Z</time></trkpt><trkpt lat="44.92224124111239" lon="12.227179333042747"><ele>-3.0</ele><time>2026-03-22T14:04:29.95Z</time></trkpt><trkpt lat="44.92229042570881" lon="12.22729087805596"><ele>-3.0</ele><time>2026-03-22T14:04:30.95Z</time></trkpt><trkpt lat="44.922334985073995" lon="12.227392781912418"><ele>-3.0</ele><time>2026-03-22T14:04:31.95Z</time></trkpt><trkpt lat="44.92238663866523" lon="12.227488484025455"><ele>-3.0</ele><time>2026-03-22T14:04:32.95Z</time></trkpt><trkpt lat="44.92244647825532" lon="12.227593636064853"><ele>-3.0</ele><time>2026-03-22T14:04:33.95Z</time></trkpt><trkpt lat="44.922513459572585" lon="12.227709481627393"><ele>-3.0</ele><time>2026-03-22T14:04:34.95Z</time></trkpt><trkpt lat="44.922580577942355" lon="12.227824866021624"><ele>-3.0</ele><time>2026-03-22T14:04:35.95Z</time></trkpt><trkpt lat="44.92263172034084" lon="12.227932081361512"><ele>-3.0</ele><time>2026-03-22T14:04:36.95Z</time></trkpt><trkpt lat="44.922664633294204" lon="12.228037198452595"><ele>-3.0</ele><time>2026-03-22T14:04:37.95Z</time></trkpt><trkpt lat="44.922670758254924" lon="12.228135368529143"><ele>-3.0</ele><time>2026-03-22T14:04:38.95Z</time></trkpt><trkpt lat="44.922652992163684" lon="12.228245749824385"><ele>-3.0</ele><time>2026-03-22T14:04:39.95Z</time></trkpt><trkpt lat="44.922607370803064" lon="12.228346611093974"><ele>-2.4</ele><time>2026-03-22T14:04:40.95Z</time></trkpt><trkpt lat="44.92255050222747" lon="12.22846030179606"><ele>-1.7999999999999998</ele><time>2026-03-22T14:04:41.95Z</time></trkpt><trkpt lat="44.922497713533616" lon="12.22858700795016"><ele>-1.2</ele><time>2026-03-22T14:04:42.95Z</time></trkpt><trkpt lat="44.922445321278005" lon="12.228719523319576"><ele>-0.6</ele><time>2026-03-22T14:04:43.95Z</time></trkpt><trkpt lat="44.9223959335757" lon="12.228851127021374"><ele>0.0</ele><time>2026-03-22T14:04:44.95Z</time></trkpt><trkpt lat="44.92234723333525" lon="12.228975203228503"><ele>-0.16666666666666666</ele><time>2026-03-22T14:04:45.95Z</time></trkpt><trkpt lat="44.922310434481254" lon="12.229081883180562"><ele>-0.3333333333333333</ele><time>2026-03-22T14:04:46.95Z</time></trkpt><trkpt lat="44.922276771864766" lon="12.229189897400975"><ele>-0.5</ele><time>2026-03-22T14:04:47.95Z</time></trkpt><trkpt lat="44.922240568362035" lon="12.229294903418122"><ele>-0.6666666666666666</ele><time>2026-03-22T14:04:48.95Z</time></trkpt><trkpt lat="44.92220652747533" lon="12.229412005245027"><ele>-0.8333333333333333</ele><time>2026-03-22T14:04:49.95Z</time></trkpt><trkpt lat="44.92217638068718" lon="12.229511703670433"><ele>-1.0</ele><time>2026-03-22T14:04:50.95Z</time></trkpt><trkpt lat="44.92206085675872" lon="12.229551387910229"><ele>-1.0</ele><time>2026-03-22T14:04:51.95Z</time></trkpt><trkpt lat="44.922027601131965" lon="12.229628024132852"><ele>-1.0</ele><time>2026-03-22T14:04:52.95Z</time></trkpt><trkpt lat="44.921986876583475" lon="12.22971059797469"><ele>-1.0</ele><time>2026-03-22T14:04:53.95Z</time></trkpt><trkpt lat="44.92191695278167" lon="12.229824915153248"><ele>-1.0</ele><time>2026-03-22T14:04:55.95Z</time></trkpt><trkpt lat="44.921871811545174" lon="12.229900354034779"><ele>-1.0</ele><time>2026-03-22T14:05:01.95Z</time></trkpt><trkpt lat="44.92210855161632" lon="12.229813117279445"><ele>-1.0</ele><time>2026-03-22T14:05:02.95Z</time></trkpt><trkpt lat="44.922153835658" lon="12.22974112208237"><ele>-1.0</ele><time>2026-03-22T14:05:03.95Z</time></trkpt><trkpt lat="44.9222046492217" lon="12.229569497207482"><ele>-1.0</ele><time>2026-03-22T14:05:04.95Z</time></trkpt><trkpt lat="44.9222530214664" lon="12.229385313329816"><ele>-1.0</ele><time>2026-03-22T14:05:05.95Z</time></trkpt><trkpt lat="44.92231287380098" lon="12.229184886693433"><ele>-1.0</ele><time>2026-03-22T14:05:06.95Z</time></trkpt><trkpt lat="44.92238477292027" lon="12.228987705250162"><ele>-1.0</ele><time>2026-03-22T14:05:07.95Z</time></trkpt><trkpt lat="44.92245762100419" lon="12.228801947149288"><ele>-1.0</ele><time>2026-03-22T14:05:08.95Z</time></trkpt><trkpt lat="44.92251826680257" lon="12.228639587338696"><ele>-1.0</ele><time>2026-03-22T14:05:09.95Z</time></trkpt><trkpt lat="44.92253266314781" lon="12.228459974880831"><ele>-1.4</ele><time>2026-03-22T14:05:10.95Z</time></trkpt><trkpt lat="44.922584495194116" lon="12.228334228652438"><ele>-1.8</ele><time>2026-03-22T14:05:11.95Z</time></trkpt><trkpt lat="44.92264888809282" lon="12.228237114292515"><ele>-2.1999999999999997</ele><time>2026-03-22T14:05:12.95Z</time></trkpt><trkpt lat="44.922682575330626" lon="12.228149035192013"><ele>-2.6</ele><time>2026-03-22T14:05:13.95Z</time></trkpt><trkpt lat="44.92271198617813" lon="12.228061731472351"><ele>-3.0</ele><time>2026-03-22T14:05:14.95Z</time></trkpt><trkpt lat="44.922663380140555" lon="12.227903956439947"><ele>-3.0</ele><time>2026-03-22T14:05:16.949Z</time></trkpt><trkpt lat="44.922610843548995" lon="12.227774746464664"><ele>-3.0</ele><time>2026-03-22T14:05:17.949Z</time></trkpt><trkpt lat="44.922530361952" lon="12.227601897898097"><ele>-3.0</ele><time>2026-03-22T14:05:18.949Z</time></trkpt><trkpt lat="44.922428332969375" lon="12.227450231022257"><ele>-3.0</ele><time>2026-03-22T14:05:19.949Z</time></trkpt><trkpt lat="44.922323086746154" lon="12.227295426307823"><ele>-3.0</ele><time>2026-03-22T14:05:20.949Z</time></trkpt><trkpt lat="44.922255594709085" lon="12.227054781391551"><ele>-3.0</ele><time>2026-03-22T14:05:21.949Z</time></trkpt><trkpt lat="44.92217014672037" lon="12.226825510078385"><ele>-3.0</ele><time>2026-03-22T14:05:22.949Z</time></trkpt><trkpt lat="44.92209738112376" lon="12.226572797069919"><ele>-1.3333333333333335</ele><time>2026-03-22T14:05:23.949Z</time></trkpt><trkpt lat="44.92203325188401" lon="12.226316765347685"><ele>0.33333333333333326</ele><time>2026-03-22T14:05:24.949Z</time></trkpt><trkpt lat="44.921975412403896" lon="12.226064115165595"><ele>2.0</ele><time>2026-03-22T14:05:25.949Z</time></trkpt><trkpt lat="44.92192578353768" lon="12.225828099317948"><ele>2.25</ele><time>2026-03-22T14:05:26.949Z</time></trkpt><trkpt lat="44.921887844099736" lon="12.225620705178113"><ele>2.5</ele><time>2026-03-22T14:05:27.949Z</time></trkpt><trkpt lat="44.92186709629195" lon="12.225431448796709"><ele>2.75</ele><time>2026-03-22T14:05:28.949Z</time></trkpt><trkpt lat="44.9218594155467" lon="12.225241181142877"><ele>3.0</ele><time>2026-03-22T14:05:29.949Z</time></trkpt><trkpt lat="44.921876140063" lon="12.225039917205505"><ele>3.0</ele><time>2026-03-22T14:05:30.949Z</time></trkpt><trkpt lat="44.92192831724331" lon="12.224833795616762"><ele>3.0</ele><time>2026-03-22T14:05:31.949Z</time></trkpt><trkpt lat="44.92200455165204" lon="12.22462751723689"><ele>3.0</ele><time>2026-03-22T14:05:32.949Z</time></trkpt><trkpt lat="44.92209397716128" lon="12.224403151928971"><ele>2.6666666666666665</ele><time>2026-03-22T14:05:33.949Z</time></trkpt><trkpt lat="44.92217722970275" lon="12.224164257417078"><ele>2.333333333333333</ele><time>2026-03-22T14:05:34.949Z</time></trkpt><trkpt lat="44.92226016249294" lon="12.223930977003612"><ele>2.0</ele><time>2026-03-22T14:05:35.949Z</time></trkpt><trkpt lat="44.92233518658273" lon="12.223683239403803"><ele>1.6666666666666665</ele><time>2026-03-22T14:05:36.949Z</time></trkpt><trkpt lat="44.92241058392749" lon="12.223417603643211"><ele>1.3333333333333333</ele><time>2026-03-22T14:05:37.949Z</time></trkpt><trkpt lat="44.92248909338489" lon="12.223126188563038"><ele>1.0</ele><time>2026-03-22T14:05:38.949Z</time></trkpt><trkpt lat="44.922580659151905" lon="12.222819428056516"><ele>1.0</ele><time>2026-03-22T14:05:39.949Z</time></trkpt><trkpt lat="44.92265751819227" lon="12.22248539861082"><ele>1.0</ele><time>2026-03-22T14:05:40.949Z</time></trkpt><trkpt lat="44.92275421425025" lon="12.222148522577083"><ele>1.0</ele><time>2026-03-22T14:05:41.949Z</time></trkpt><trkpt lat="44.92286706851305" lon="12.22181446292747"><ele>1.0</ele><time>2026-03-22T14:05:42.949Z</time></trkpt><trkpt lat="44.92296256609973" lon="12.221466058273357"><ele>2.0</ele><time>2026-03-22T14:05:43.949Z</time></trkpt><trkpt lat="44.923062713368225" lon="12.22111500359852"><ele>3.0</ele><time>2026-03-22T14:05:44.949Z</time></trkpt><trkpt lat="44.92315969485624" lon="12.220761919316388"><ele>2.5</ele><time>2026-03-22T14:05:45.949Z</time></trkpt><trkpt lat="44.9232500956106" lon="12.22040526872839"><ele>2.0</ele><time>2026-03-22T14:05:46.949Z</time></trkpt><trkpt lat="44.92333479909966" lon="12.220047264919057"><ele>2.0</ele><time>2026-03-22T14:05:47.949Z</time></trkpt><trkpt lat="44.92341957665804" lon="12.219692491410465"><ele>2.0</ele><time>2026-03-22T14:05:48.949Z</time></trkpt><trkpt lat="44.92350372734123" lon="12.219344591459935"><ele>2.0</ele><time>2026-03-22T14:05:49.949Z</time></trkpt><trkpt lat="44.92358555462388" lon="12.21900773545118"><ele>2.0</ele><time>2026-03-22T14:05:50.949Z</time></trkpt><trkpt lat="44.92365548187226" lon="12.218682336848083"><ele>2.6666666666666665</ele><time>2026-03-22T14:05:51.949Z</time></trkpt><trkpt lat="44.92371118593183" lon="12.218364070834655"><ele>3.333333333333333</ele><time>2026-03-22T14:05:52.949Z</time></trkpt><trkpt lat="44.92376049052718" lon="12.218066156486042"><ele>4.0</ele><time>2026-03-22T14:05:53.949Z</time></trkpt><trkpt lat="44.92381316416942" lon="12.217796897122692"><ele>4.0</ele><time>2026-03-22T14:05:54.949Z</time></trkpt><trkpt lat="44.92389015163007" lon="12.217563139727828"><ele>4.0</ele><time>2026-03-22T14:05:55.949Z</time></trkpt><trkpt lat="44.92398887408372" lon="12.217334839566902"><ele>4.0</ele><time>2026-03-22T14:05:56.949Z</time></trkpt><trkpt lat="44.924112465676316" lon="12.217111883828707"><ele>3.333333333333333</ele><time>2026-03-22T14:05:57.949Z</time></trkpt><trkpt lat="44.924225816575465" lon="12.216865434444802"><ele>2.6666666666666665</ele><time>2026-03-22T14:05:58.949Z</time></trkpt><trkpt lat="44.92432005389662" lon="12.216595854707537"><ele>2.0</ele><time>2026-03-22T14:05:59.949Z</time></trkpt><trkpt lat="44.924397784549654" lon="12.216298578580464"><ele>1.0</ele><time>2026-03-22T14:06:00.949Z</time></trkpt><trkpt lat="44.92446636846965" lon="12.215989294521574"><ele>0.0</ele><time>2026-03-22T14:06:01.949Z</time></trkpt><trkpt lat="44.924529149105226" lon="12.215670300445687"><ele>1.0</ele><time>2026-03-22T14:06:02.949Z</time></trkpt><trkpt lat="44.92458076951825" lon="12.21535100420687"><ele>2.0</ele><time>2026-03-22T14:06:03.948Z</time></trkpt><trkpt lat="44.92463081170009" lon="12.21503840035361"><ele>2.333333333333333</ele><time>2026-03-22T14:06:04.948Z</time></trkpt><trkpt lat="44.924666577599986" lon="12.214745239746028"><ele>2.6666666666666665</ele><time>2026-03-22T14:06:05.948Z</time></trkpt><trkpt lat="44.92467539349495" lon="12.21448700412262"><ele>3.0</ele><time>2026-03-22T14:06:06.948Z</time></trkpt><trkpt lat="44.92464865010624" lon="12.214266648935151"><ele>3.0</ele><time>2026-03-22T14:06:07.948Z</time></trkpt><trkpt lat="44.924592283354315" lon="12.21405902930151"><ele>3.0</ele><time>2026-03-22T14:06:08.948Z</time></trkpt><trkpt lat="44.92453714015424" lon="12.213839169777758"><ele>3.0</ele><time>2026-03-22T14:06:09.948Z</time></trkpt><trkpt lat="44.92452895840792" lon="12.21359670853031"><ele>3.333333333333333</ele><time>2026-03-22T14:06:10.948Z</time></trkpt><trkpt lat="44.92457828418145" lon="12.21335398075531"><ele>3.6666666666666665</ele><time>2026-03-22T14:06:11.948Z</time></trkpt><trkpt lat="44.924678914468345" lon="12.213127302793023"><ele>4.0</ele><time>2026-03-22T14:06:12.948Z</time></trkpt><trkpt lat="44.924804676515166" lon="12.21293391066054"><ele>4.0</ele><time>2026-03-22T14:06:13.948Z</time></trkpt><trkpt lat="44.92493318221399" lon="12.212732452718775"><ele>4.0</ele><time>2026-03-22T14:06:14.948Z</time></trkpt><trkpt lat="44.925020689060766" lon="12.212499106905952"><ele>4.0</ele><time>2026-03-22T14:06:15.948Z</time></trkpt><trkpt lat="44.92506813406603" lon="12.21222777241212"><ele>2.0</ele><time>2026-03-22T14:06:16.948Z</time></trkpt><trkpt lat="44.92509441445545" lon="12.211895435994686"><ele>0.0</ele><time>2026-03-22T14:06:17.948Z</time></trkpt><trkpt lat="44.9251273104076" lon="12.211542610439993"><ele>0.5</ele><time>2026-03-22T14:06:18.949Z</time></trkpt><trkpt lat="44.92517921674598" lon="12.211194010131624"><ele>1.0</ele><time>2026-03-22T14:06:19.949Z</time></trkpt><trkpt lat="44.92523544375016" lon="12.210833836503825"><ele>1.0</ele><time>2026-03-22T14:06:20.949Z</time></trkpt><trkpt lat="44.92529024582109" lon="12.2104711030766"><ele>1.0</ele><time>2026-03-22T14:06:21.95Z</time></trkpt><trkpt lat="44.92534404559061" lon="12.210101675637686"><ele>2.0</ele><time>2026-03-22T14:06:22.949Z</time></trkpt><trkpt lat="44.92538987397017" lon="12.209724906415227"><ele>3.0</ele><time>2026-03-22T14:06:23.949Z</time></trkpt><trkpt lat="44.92545264749775" lon="12.209343922264653"><ele>3.0</ele><time>2026-03-22T14:06:24.95Z</time></trkpt><trkpt lat="44.925507274922296" lon="12.208966081688395"><ele>3.0</ele><time>2026-03-22T14:06:25.949Z</time></trkpt><trkpt lat="44.925564385261474" lon="12.20859627650096"><ele>3.0</ele><time>2026-03-22T14:06:26.949Z</time></trkpt><trkpt lat="44.9256139841862" lon="12.208237551979211"><ele>3.0</ele><time>2026-03-22T14:06:27.949Z</time></trkpt><trkpt lat="44.92564844757479" lon="12.207885250512216"><ele>4.5</ele><time>2026-03-22T14:06:28.95Z</time></trkpt><trkpt lat="44.92566944025865" lon="12.207515466918926"><ele>6.0</ele><time>2026-03-22T14:06:29.95Z</time></trkpt><trkpt lat="44.92567882033373" lon="12.207133280812782"><ele>6.0</ele><time>2026-03-22T14:06:30.95Z</time></trkpt><trkpt lat="44.92567966594876" lon="12.20674649283359"><ele>6.0</ele><time>2026-03-22T14:06:31.949Z</time></trkpt><trkpt lat="44.92568115698351" lon="12.206363223086306"><ele>4.5</ele><time>2026-03-22T14:06:32.949Z</time></trkpt><trkpt lat="44.92567412740971" lon="12.205976478972099"><ele>3.0</ele><time>2026-03-22T14:06:33.949Z</time></trkpt><trkpt lat="44.925663137909844" lon="12.205590843026153"><ele>3.0</ele><time>2026-03-22T14:06:34.949Z</time></trkpt><trkpt lat="44.92563225954894" lon="12.205191572205589"><ele>3.0</ele><time>2026-03-22T14:06:35.949Z</time></trkpt><trkpt lat="44.92560956492253" lon="12.204805827091715"><ele>1.5</ele><time>2026-03-22T14:06:36.949Z</time></trkpt><trkpt lat="44.92558013979316" lon="12.20441837019943"><ele>0.0</ele><time>2026-03-22T14:06:37.949Z</time></trkpt><trkpt lat="44.925545801659204" lon="12.204033702030406"><ele>2.0</ele><time>2026-03-22T14:06:38.949Z</time></trkpt><trkpt lat="44.925503937939595" lon="12.203646269536481"><ele>4.0</ele><time>2026-03-22T14:06:39.949Z</time></trkpt><trkpt lat="44.92545592683508" lon="12.203259759006176"><ele>2.5</ele><time>2026-03-22T14:06:40.949Z</time></trkpt><trkpt lat="44.92539500289678" lon="12.202876991495973"><ele>1.0</ele><time>2026-03-22T14:06:41.949Z</time></trkpt><trkpt lat="44.92533035661414" lon="12.202497453430237"><ele>1.5</ele><time>2026-03-22T14:06:42.949Z</time></trkpt><trkpt lat="44.92526659831429" lon="12.202120224205288"><ele>2.0</ele><time>2026-03-22T14:06:43.949Z</time></trkpt><trkpt lat="44.92520737816622" lon="12.201754153023863"><ele>1.5</ele><time>2026-03-22T14:06:44.949Z</time></trkpt><trkpt lat="44.925147776417916" lon="12.201390632419645"><ele>1.0</ele><time>2026-03-22T14:06:45.949Z</time></trkpt><trkpt lat="44.92508759909476" lon="12.201027125855509"><ele>1.5</ele><time>2026-03-22T14:06:46.949Z</time></trkpt><trkpt lat="44.92503505544718" lon="12.200658216901953"><ele>2.0</ele><time>2026-03-22T14:06:47.949Z</time></trkpt><trkpt lat="44.92498635173732" lon="12.200284596274848"><ele>2.0</ele><time>2026-03-22T14:06:48.949Z</time></trkpt><trkpt lat="44.924945804859945" lon="12.199904799231028"><ele>2.0</ele><time>2026-03-22T14:06:49.949Z</time></trkpt><trkpt lat="44.92491421600126" lon="12.199517995416478"><ele>2.0</ele><time>2026-03-22T14:06:50.948Z</time></trkpt><trkpt lat="44.92489414663447" lon="12.19912601863094"><ele>2.0</ele><time>2026-03-22T14:06:51.948Z</time></trkpt><trkpt lat="44.924869450426236" lon="12.198729784437372"><ele>2.0</ele><time>2026-03-22T14:06:52.948Z</time></trkpt><trkpt lat="44.924855810587765" lon="12.198332350224014"><ele>2.0</ele><time>2026-03-22T14:06:53.948Z</time></trkpt><trkpt lat="44.92484284801637" lon="12.197928391670564"><ele>2.0</ele><time>2026-03-22T14:06:54.948Z</time></trkpt><trkpt lat="44.92483129967451" lon="12.197524648881837"><ele>2.0</ele><time>2026-03-22T14:06:55.948Z</time></trkpt><trkpt lat="44.92482552898153" lon="12.197120317681478"><ele>1.5</ele><time>2026-03-22T14:06:56.948Z</time></trkpt><trkpt lat="44.92482465690477" lon="12.196714754340533"><ele>1.0</ele><time>2026-03-22T14:06:57.948Z</time></trkpt><trkpt lat="44.924825685334234" lon="12.196312760312258"><ele>2.0</ele><time>2026-03-22T14:06:58.948Z</time></trkpt><trkpt lat="44.924826192769714" lon="12.195910330134701"><ele>3.0</ele><time>2026-03-22T14:06:59.948Z</time></trkpt><trkpt lat="44.92482940959005" lon="12.195507383440352"><ele>3.5</ele><time>2026-03-22T14:07:00.948Z</time></trkpt><trkpt lat="44.924827785971026" lon="12.195109540419695"><ele>4.0</ele><time>2026-03-22T14:07:01.948Z</time></trkpt><trkpt lat="44.924825399911015" lon="12.194713540115089"><ele>4.0</ele><time>2026-03-22T14:07:02.948Z</time></trkpt><trkpt lat="44.92482096531419" lon="12.194320507678256"><ele>4.0</ele><time>2026-03-22T14:07:03.948Z</time></trkpt><trkpt lat="44.92481965993768" lon="12.193936713359497"><ele>4.0</ele><time>2026-03-22T14:07:04.948Z</time></trkpt><trkpt lat="44.92480361633875" lon="12.193568583737262"><ele>4.0</ele><time>2026-03-22T14:07:05.948Z</time></trkpt><trkpt lat="44.92477868374635" lon="12.193236613771688"><ele>3.6666666666666665</ele><time>2026-03-22T14:07:06.948Z</time></trkpt><trkpt lat="44.9247664892784" lon="12.192925950778568"><ele>3.333333333333333</ele><time>2026-03-22T14:07:07.948Z</time></trkpt><trkpt lat="44.92477460130179" lon="12.192618042868864"><ele>3.0</ele><time>2026-03-22T14:07:08.948Z</time></trkpt><trkpt lat="44.924799877232495" lon="12.192288864971063"><ele>3.0</ele><time>2026-03-22T14:07:09.948Z</time></trkpt><trkpt lat="44.92483447827208" lon="12.19194530121315"><ele>3.0</ele><time>2026-03-22T14:07:10.948Z</time></trkpt><trkpt lat="44.92487146836465" lon="12.191585273339"><ele>1.0</ele><time>2026-03-22T14:07:11.948Z</time></trkpt><trkpt lat="44.924906322729115" lon="12.191228841462545"><ele>-1.0</ele><time>2026-03-22T14:07:12.948Z</time></trkpt><trkpt lat="44.924944368588015" lon="12.190887388027397"><ele>0.0</ele><time>2026-03-22T14:07:13.948Z</time></trkpt><trkpt lat="44.92498105740551" lon="12.190560465616416"><ele>1.0</ele><time>2026-03-22T14:07:14.948Z</time></trkpt><trkpt lat="44.92501862189112" lon="12.19024449079253"><ele>1.0</ele><time>2026-03-22T14:07:15.948Z</time></trkpt><trkpt lat="44.92505765225817" lon="12.189937186943984"><ele>1.0</ele><time>2026-03-22T14:07:16.948Z</time></trkpt><trkpt lat="44.92507720713612" lon="12.189645094869656"><ele>1.0</ele><time>2026-03-22T14:07:17.948Z</time></trkpt><trkpt lat="44.92511540022936" lon="12.189375959258056"><ele>0.6666666666666666</ele><time>2026-03-22T14:07:18.948Z</time></trkpt><trkpt lat="44.925161347007275" lon="12.189108488963216"><ele>0.3333333333333333</ele><time>2026-03-22T14:07:19.948Z</time></trkpt><trkpt lat="44.9252369200321" lon="12.188835510009053"><ele>0.0</ele><time>2026-03-22T14:07:20.948Z</time></trkpt><trkpt lat="44.925301222850365" lon="12.188532175629087"><ele>1.0</ele><time>2026-03-22T14:07:21.948Z</time></trkpt><trkpt lat="44.925396619962164" lon="12.188213112990956"><ele>2.0</ele><time>2026-03-22T14:07:22.948Z</time></trkpt><trkpt lat="44.92547876334463" lon="12.187872473243441"><ele>2.0</ele><time>2026-03-22T14:07:23.948Z</time></trkpt><trkpt lat="44.92557699616998" lon="12.187527820825474"><ele>2.0</ele><time>2026-03-22T14:07:24.948Z</time></trkpt><trkpt lat="44.92567814639024" lon="12.187177420157964"><ele>1.0</ele><time>2026-03-22T14:07:25.948Z</time></trkpt><trkpt lat="44.925782769805274" lon="12.186808040364063"><ele>0.0</ele><time>2026-03-22T14:07:26.948Z</time></trkpt><trkpt lat="44.925893937603995" lon="12.18643073109124"><ele>0.5</ele><time>2026-03-22T14:07:27.948Z</time></trkpt><trkpt lat="44.925998387078636" lon="12.186042094346448"><ele>1.0</ele><time>2026-03-22T14:07:28.948Z</time></trkpt><trkpt lat="44.9261068493237" lon="12.185645832796663"><ele>1.0</ele><time>2026-03-22T14:07:29.948Z</time></trkpt><trkpt lat="44.926217920149995" lon="12.185245877922753"><ele>1.0</ele><time>2026-03-22T14:07:30.948Z</time></trkpt><trkpt lat="44.92632052774871" lon="12.184842243973065"><ele>0.0</ele><time>2026-03-22T14:07:31.948Z</time></trkpt><trkpt lat="44.92643382432024" lon="12.184430147496395"><ele>-1.0</ele><time>2026-03-22T14:07:32.948Z</time></trkpt><trkpt lat="44.92654629163" lon="12.184018841591836"><ele>-1.5</ele><time>2026-03-22T14:07:33.948Z</time></trkpt><trkpt lat="44.926657472094334" lon="12.183615562561618"><ele>-2.0</ele><time>2026-03-22T14:07:34.948Z</time></trkpt><trkpt lat="44.92676739521347" lon="12.183212017159052"><ele>-3.0</ele><time>2026-03-22T14:07:35.948Z</time></trkpt><trkpt lat="44.926875806472104" lon="12.182823863518008"><ele>-4.0</ele><time>2026-03-22T14:07:36.948Z</time></trkpt><trkpt lat="44.9269721450233" lon="12.182448548263425"><ele>-3.0</ele><time>2026-03-22T14:07:37.947Z</time></trkpt><trkpt lat="44.92705286157496" lon="12.18210937551528"><ele>-2.0</ele><time>2026-03-22T14:07:38.947Z</time></trkpt><trkpt lat="44.92713056574601" lon="12.18179135208623"><ele>-2.0</ele><time>2026-03-22T14:07:39.947Z</time></trkpt><trkpt lat="44.9272145548102" lon="12.181498256792958"><ele>-2.0</ele><time>2026-03-22T14:07:40.947Z</time></trkpt><trkpt lat="44.927315251987906" lon="12.181208172856577"><ele>-2.0</ele><time>2026-03-22T14:07:41.947Z</time></trkpt><trkpt lat="44.92743935553224" lon="12.180918278468528"><ele>-2.0</ele><time>2026-03-22T14:07:42.947Z</time></trkpt><trkpt lat="44.92756933728272" lon="12.180618498766815"><ele>-1.5</ele><time>2026-03-22T14:07:43.947Z</time></trkpt><trkpt lat="44.92771488657909" lon="12.180312757545614"><ele>-1.0</ele><time>2026-03-22T14:07:44.947Z</time></trkpt><trkpt lat="44.927853860380196" lon="12.179998451716429"><ele>-1.5</ele><time>2026-03-22T14:07:45.947Z</time></trkpt><trkpt lat="44.927990393337005" lon="12.179684861455517"><ele>-2.0</ele><time>2026-03-22T14:07:46.947Z</time></trkpt><trkpt lat="44.92812269906319" lon="12.179372270989788"><ele>-2.0</ele><time>2026-03-22T14:07:47.947Z</time></trkpt><trkpt lat="44.928259468926385" lon="12.179062959711555"><ele>-2.0</ele><time>2026-03-22T14:07:48.947Z</time></trkpt><trkpt lat="44.928401154516905" lon="12.178754485374332"><ele>-2.5</ele><time>2026-03-22T14:07:49.947Z</time></trkpt><trkpt lat="44.92854678693408" lon="12.178425792212035"><ele>-3.0</ele><time>2026-03-22T14:07:50.947Z</time></trkpt><trkpt lat="44.92868559286592" lon="12.178101476449141"><ele>-3.5</ele><time>2026-03-22T14:07:51.947Z</time></trkpt><trkpt lat="44.92882199602634" lon="12.17777610443241"><ele>-4.0</ele><time>2026-03-22T14:07:52.947Z</time></trkpt><trkpt lat="44.92896541374509" lon="12.177431198728058"><ele>-4.5</ele><time>2026-03-22T14:07:53.947Z</time></trkpt><trkpt lat="44.92910662039923" lon="12.177095105177203"><ele>-5.0</ele><time>2026-03-22T14:07:54.947Z</time></trkpt><trkpt lat="44.929247865164044" lon="12.176755408478044"><ele>-5.0</ele><time>2026-03-22T14:07:55.947Z</time></trkpt><trkpt lat="44.92939594296057" lon="12.176412748292908"><ele>-5.0</ele><time>2026-03-22T14:07:56.947Z</time></trkpt><trkpt lat="44.92953419858116" lon="12.176058779593788"><ele>-5.0</ele><time>2026-03-22T14:07:57.947Z</time></trkpt><trkpt lat="44.929667266422804" lon="12.175697065800456"><ele>-5.0</ele><time>2026-03-22T14:07:58.947Z</time></trkpt><trkpt lat="44.92979798622934" lon="12.175326393467282"><ele>-5.0</ele><time>2026-03-22T14:07:59.947Z</time></trkpt><trkpt lat="44.92992719330607" lon="12.174964022106137"><ele>-5.0</ele><time>2026-03-22T14:08:00.947Z</time></trkpt><trkpt lat="44.930055718761736" lon="12.17460489123363"><ele>-4.0</ele><time>2026-03-22T14:08:01.947Z</time></trkpt><trkpt lat="44.93017869163907" lon="12.17426360573829"><ele>-3.0</ele><time>2026-03-22T14:08:02.947Z</time></trkpt><trkpt lat="44.93029625885554" lon="12.173944134889727"><ele>-3.0</ele><time>2026-03-22T14:08:03.947Z</time></trkpt><trkpt lat="44.93040771390328" lon="12.173639224916004"><ele>-3.0</ele><time>2026-03-22T14:08:04.947Z</time></trkpt><trkpt lat="44.930510393419695" lon="12.173356811789956"><ele>-3.333333333333333</ele><time>2026-03-22T14:08:05.947Z</time></trkpt><trkpt lat="44.930604033989425" lon="12.17308708918392"><ele>-3.6666666666666665</ele><time>2026-03-22T14:08:06.947Z</time></trkpt><trkpt lat="44.930691585946235" lon="12.17281849137235"><ele>-4.0</ele><time>2026-03-22T14:08:07.947Z</time></trkpt><trkpt lat="44.93076809103989" lon="12.172546223437474"><ele>-4.0</ele><time>2026-03-22T14:08:08.947Z</time></trkpt><trkpt lat="44.93082962904582" lon="12.172255971723601"><ele>-4.0</ele><time>2026-03-22T14:08:09.947Z</time></trkpt><trkpt lat="44.9308672750391" lon="12.171932128943967"><ele>-4.0</ele><time>2026-03-22T14:08:10.947Z</time></trkpt><trkpt lat="44.93088523754973" lon="12.17157467700846"><ele>-3.5</ele><time>2026-03-22T14:08:11.947Z</time></trkpt><trkpt lat="44.9308884875858" lon="12.171190454685851"><ele>-3.0</ele><time>2026-03-22T14:08:12.947Z</time></trkpt><trkpt lat="44.930894265628915" lon="12.170790080661613"><ele>-3.0</ele><time>2026-03-22T14:08:13.947Z</time></trkpt><trkpt lat="44.930900037169664" lon="12.17038191224329"><ele>-3.0</ele><time>2026-03-22T14:08:14.947Z</time></trkpt><trkpt lat="44.93090768936803" lon="12.169973156554912"><ele>-4.5</ele><time>2026-03-22T14:08:15.947Z</time></trkpt><trkpt lat="44.93092019713321" lon="12.169571435067345"><ele>-6.0</ele><time>2026-03-22T14:08:16.947Z</time></trkpt><trkpt lat="44.930925115892656" lon="12.169179620610386"><ele>-5.5</ele><time>2026-03-22T14:08:17.947Z</time></trkpt><trkpt lat="44.93093341012587" lon="12.168777554190356"><ele>-5.0</ele><time>2026-03-22T14:08:18.947Z</time></trkpt><trkpt lat="44.930938471337214" lon="12.168382166492417"><ele>-4.5</ele><time>2026-03-22T14:08:19.947Z</time></trkpt><trkpt lat="44.930948314865155" lon="12.167985072583798"><ele>-4.0</ele><time>2026-03-22T14:08:20.947Z</time></trkpt><trkpt lat="44.9309588053328" lon="12.16759346471013"><ele>-3.0</ele><time>2026-03-22T14:08:21.947Z</time></trkpt><trkpt lat="44.93096809223555" lon="12.167209424034079"><ele>-2.0</ele><time>2026-03-22T14:08:22.947Z</time></trkpt><trkpt lat="44.93097474724434" lon="12.166828470362683"><ele>-2.5</ele><time>2026-03-22T14:08:23.947Z</time></trkpt><trkpt lat="44.930981279832515" lon="12.166451440289052"><ele>-3.0</ele><time>2026-03-22T14:08:24.949Z</time></trkpt><trkpt lat="44.93098378557849" lon="12.166086516265436"><ele>-3.0</ele><time>2026-03-22T14:08:25.948Z</time></trkpt><trkpt lat="44.930981683491446" lon="12.16573796957741"><ele>-3.0</ele><time>2026-03-22T14:08:26.948Z</time></trkpt><trkpt lat="44.930976961072936" lon="12.165402325803889"><ele>-3.0</ele><time>2026-03-22T14:08:27.948Z</time></trkpt><trkpt lat="44.93097241367312" lon="12.165076879448472"><ele>-3.0</ele><time>2026-03-22T14:08:28.948Z</time></trkpt><trkpt lat="44.930969662316365" lon="12.164756666658366"><ele>-3.0</ele><time>2026-03-22T14:08:29.948Z</time></trkpt><trkpt lat="44.93097163651363" lon="12.164457252850136"><ele>-3.0</ele><time>2026-03-22T14:08:30.948Z</time></trkpt><trkpt lat="44.930965520848886" lon="12.16418382158455"><ele>-3.0</ele><time>2026-03-22T14:08:31.949Z</time></trkpt><trkpt lat="44.930962044768044" lon="12.16394142170309"><ele>-3.0</ele><time>2026-03-22T14:08:32.949Z</time></trkpt><trkpt lat="44.93093625655154" lon="12.163723336121045"><ele>-3.0</ele><time>2026-03-22T14:08:33.948Z</time></trkpt><trkpt lat="44.93087666738749" lon="12.163497495208093"><ele>-3.0</ele><time>2026-03-22T14:08:34.948Z</time></trkpt><trkpt lat="44.930779573014476" lon="12.163253458357557"><ele>-1.5</ele><time>2026-03-22T14:08:35.948Z</time></trkpt><trkpt lat="44.93064397625677" lon="12.163003611749403"><ele>0.0</ele><time>2026-03-22T14:08:36.948Z</time></trkpt><trkpt lat="44.930474597975916" lon="12.162757820328768"><ele>0.0</ele><time>2026-03-22T14:08:37.949Z</time></trkpt><trkpt lat="44.93029701434289" lon="12.162513231051282"><ele>0.0</ele><time>2026-03-22T14:08:38.949Z</time></trkpt><trkpt lat="44.93013490432259" lon="12.162252395611135"><ele>-0.5</ele><time>2026-03-22T14:08:39.948Z</time></trkpt><trkpt lat="44.92998279006512" lon="12.16198646919894"><ele>-1.0</ele><time>2026-03-22T14:08:40.948Z</time></trkpt><trkpt lat="44.92983142954787" lon="12.161710462517384"><ele>1.0</ele><time>2026-03-22T14:08:41.948Z</time></trkpt><trkpt lat="44.9296909656266" lon="12.161416064923609"><ele>3.0</ele><time>2026-03-22T14:08:42.948Z</time></trkpt><trkpt lat="44.92956143729245" lon="12.161104759022935"><ele>3.0</ele><time>2026-03-22T14:08:43.948Z</time></trkpt><trkpt lat="44.9294412036781" lon="12.160763640796175"><ele>3.0</ele><time>2026-03-22T14:08:44.948Z</time></trkpt><trkpt lat="44.92933416243496" lon="12.160412608742636"><ele>2.5</ele><time>2026-03-22T14:08:45.948Z</time></trkpt><trkpt lat="44.92923274826317" lon="12.160043282985692"><ele>2.0</ele><time>2026-03-22T14:08:46.948Z</time></trkpt><trkpt lat="44.92915705825665" lon="12.159661995347887"><ele>1.5</ele><time>2026-03-22T14:08:47.948Z</time></trkpt><trkpt lat="44.92910120894177" lon="12.159265364185382"><ele>1.0</ele><time>2026-03-22T14:08:48.948Z</time></trkpt><trkpt lat="44.92905304707099" lon="12.158868101059026"><ele>1.0</ele><time>2026-03-22T14:08:49.948Z</time></trkpt><trkpt lat="44.92901890263609" lon="12.158470879258637"><ele>1.0</ele><time>2026-03-22T14:08:50.948Z</time></trkpt><trkpt lat="44.92899109101657" lon="12.158074190688245"><ele>2.0</ele><time>2026-03-22T14:08:51.948Z</time></trkpt><trkpt lat="44.92896442159516" lon="12.157702205836907"><ele>3.0</ele><time>2026-03-22T14:08:52.948Z</time></trkpt><trkpt lat="44.92893163145319" lon="12.157352593204296"><ele>4.0</ele><time>2026-03-22T14:08:53.948Z</time></trkpt><trkpt lat="44.92890079139482" lon="12.157020016947891"><ele>5.0</ele><time>2026-03-22T14:08:54.948Z</time></trkpt><trkpt lat="44.92887484486449" lon="12.15670360520515"><ele>6.333333333333334</ele><time>2026-03-22T14:08:55.948Z</time></trkpt><trkpt lat="44.92886103859298" lon="12.156391548541292"><ele>7.666666666666667</ele><time>2026-03-22T14:08:56.948Z</time></trkpt><trkpt lat="44.92885913947707" lon="12.156076278711557"><ele>9.0</ele><time>2026-03-22T14:08:57.948Z</time></trkpt><trkpt lat="44.92885621426268" lon="12.155784591826333"><ele>8.666666666666666</ele><time>2026-03-22T14:08:58.948Z</time></trkpt><trkpt lat="44.92886809330325" lon="12.155502015115589"><ele>8.333333333333332</ele><time>2026-03-22T14:08:59.948Z</time></trkpt><trkpt lat="44.92888098712275" lon="12.15523490806792"><ele>8.0</ele><time>2026-03-22T14:09:00.948Z</time></trkpt><trkpt lat="44.92892237729422" lon="12.154960977308225"><ele>7.0</ele><time>2026-03-22T14:09:01.948Z</time></trkpt><trkpt lat="44.928986104370516" lon="12.154671748002245"><ele>6.0</ele><time>2026-03-22T14:09:02.948Z</time></trkpt><trkpt lat="44.92906458115559" lon="12.1543587112256"><ele>6.5</ele><time>2026-03-22T14:09:03.948Z</time></trkpt><trkpt lat="44.929128429170376" lon="12.154023610253935"><ele>7.0</ele><time>2026-03-22T14:09:04.948Z</time></trkpt><trkpt lat="44.92920470786076" lon="12.153695184813971"><ele>7.5</ele><time>2026-03-22T14:09:05.948Z</time></trkpt><trkpt lat="44.92928094141582" lon="12.1533684776636"><ele>8.0</ele><time>2026-03-22T14:09:06.948Z</time></trkpt><trkpt lat="44.92937072923311" lon="12.153038157270602"><ele>8.0</ele><time>2026-03-22T14:09:07.948Z</time></trkpt><trkpt lat="44.92942007431698" lon="12.152692827006915"><ele>8.0</ele><time>2026-03-22T14:09:08.948Z</time></trkpt><trkpt lat="44.92946498465653" lon="12.152336376270116"><ele>9.0</ele><time>2026-03-22T14:09:09.948Z</time></trkpt><trkpt lat="44.9295135547509" lon="12.151982447164059"><ele>10.0</ele><time>2026-03-22T14:09:10.948Z</time></trkpt><trkpt lat="44.92954958042938" lon="12.151630068009107"><ele>10.5</ele><time>2026-03-22T14:09:11.948Z</time></trkpt><trkpt lat="44.92958105554219" lon="12.15127649010547"><ele>11.0</ele><time>2026-03-22T14:09:12.948Z</time></trkpt><trkpt lat="44.929628270344395" lon="12.150929943598904"><ele>11.5</ele><time>2026-03-22T14:09:13.948Z</time></trkpt><trkpt lat="44.92967999381034" lon="12.150585913998459"><ele>12.0</ele><time>2026-03-22T14:09:14.948Z</time></trkpt><trkpt lat="44.9297338739973" lon="12.15024899870623"><ele>12.0</ele><time>2026-03-22T14:09:15.948Z</time></trkpt><trkpt lat="44.929783947153716" lon="12.149940649867993"><ele>12.0</ele><time>2026-03-22T14:09:16.948Z</time></trkpt><trkpt lat="44.92983347503492" lon="12.149665944667474"><ele>12.0</ele><time>2026-03-22T14:09:17.948Z</time></trkpt><trkpt lat="44.929855066369306" lon="12.149386069800896"><ele>10.333333333333334</ele><time>2026-03-22T14:09:18.948Z</time></trkpt><trkpt lat="44.92987964346356" lon="12.149110249972617"><ele>8.666666666666668</ele><time>2026-03-22T14:09:19.948Z</time></trkpt><trkpt lat="44.92988728291022" lon="12.148831244565502"><ele>7.0</ele><time>2026-03-22T14:09:20.948Z</time></trkpt><trkpt lat="44.929843301163416" lon="12.148544346145528"><ele>6.0</ele><time>2026-03-22T14:09:21.948Z</time></trkpt><trkpt lat="44.92977653469164" lon="12.148258162981573"><ele>5.0</ele><time>2026-03-22T14:09:22.948Z</time></trkpt><trkpt lat="44.92967562043973" lon="12.147971742534624"><ele>4.0</ele><time>2026-03-22T14:09:23.948Z</time></trkpt><trkpt lat="44.92955139456781" lon="12.147690740323254"><ele>3.5</ele><time>2026-03-22T14:09:24.948Z</time></trkpt><trkpt lat="44.929421262719494" lon="12.147407578268039"><ele>3.0</ele><time>2026-03-22T14:09:25.948Z</time></trkpt><trkpt lat="44.92927027028633" lon="12.147125804118781"><ele>3.5</ele><time>2026-03-22T14:09:26.947Z</time></trkpt><trkpt lat="44.929105419534864" lon="12.146847920499635"><ele>4.0</ele><time>2026-03-22T14:09:27.947Z</time></trkpt><trkpt lat="44.92892997888283" lon="12.146574476147487"><ele>4.5</ele><time>2026-03-22T14:09:28.947Z</time></trkpt><trkpt lat="44.9287511502794" lon="12.14631079137006"><ele>5.0</ele><time>2026-03-22T14:09:29.947Z</time></trkpt><trkpt lat="44.92858832071581" lon="12.146074110017382"><ele>5.0</ele><time>2026-03-22T14:09:30.947Z</time></trkpt><trkpt lat="44.92843070049112" lon="12.145850927340598"><ele>5.0</ele><time>2026-03-22T14:09:31.947Z</time></trkpt><trkpt lat="44.928282233463044" lon="12.145640632548725"><ele>5.0</ele><time>2026-03-22T14:09:32.947Z</time></trkpt><trkpt lat="44.92813592677493" lon="12.145419494093215"><ele>3.666666666666667</ele><time>2026-03-22T14:09:33.947Z</time></trkpt><trkpt lat="44.92799793425959" lon="12.145180557059719"><ele>2.3333333333333335</ele><time>2026-03-22T14:09:34.947Z</time></trkpt><trkpt lat="44.92787058517886" lon="12.144921004940628"><ele>1.0</ele><time>2026-03-22T14:09:35.947Z</time></trkpt><trkpt lat="44.92776095632262" lon="12.144629207551974"><ele>1.0</ele><time>2026-03-22T14:09:36.947Z</time></trkpt><trkpt lat="44.92766441783967" lon="12.144322749304278"><ele>1.0</ele><time>2026-03-22T14:09:37.947Z</time></trkpt><trkpt lat="44.92758590656488" lon="12.143992289581602"><ele>1.5</ele><time>2026-03-22T14:09:38.947Z</time></trkpt><trkpt lat="44.927520504699146" lon="12.14364683242398"><ele>2.0</ele><time>2026-03-22T14:09:39.947Z</time></trkpt><trkpt lat="44.92745941066549" lon="12.14329251469396"><ele>2.5</ele><time>2026-03-22T14:09:40.947Z</time></trkpt><trkpt lat="44.92740594899468" lon="12.142934937850185"><ele>3.0</ele><time>2026-03-22T14:09:41.947Z</time></trkpt><trkpt lat="44.92737122566257" lon="12.14257696026653"><ele>3.0</ele><time>2026-03-22T14:09:42.947Z</time></trkpt><trkpt lat="44.92734693874778" lon="12.14222549694903"><ele>3.0</ele><time>2026-03-22T14:09:43.947Z</time></trkpt><trkpt lat="44.92734789678457" lon="12.141900056841346"><ele>3.0</ele><time>2026-03-22T14:09:44.947Z</time></trkpt><trkpt lat="44.92738671916777" lon="12.1415926367355"><ele>3.0</ele><time>2026-03-22T14:09:45.947Z</time></trkpt><trkpt lat="44.92745904017341" lon="12.141289250637264"><ele>3.0</ele><time>2026-03-22T14:09:46.947Z</time></trkpt><trkpt lat="44.92754933527405" lon="12.140979789205344"><ele>3.0</ele><time>2026-03-22T14:09:47.947Z</time></trkpt><trkpt lat="44.92764124086123" lon="12.140667552472605"><ele>3.0</ele><time>2026-03-22T14:09:48.947Z</time></trkpt><trkpt lat="44.92774291189689" lon="12.140358149921303"><ele>3.0</ele><time>2026-03-22T14:09:49.947Z</time></trkpt><trkpt lat="44.92785165394993" lon="12.140053713211683"><ele>3.0</ele><time>2026-03-22T14:09:50.947Z</time></trkpt><trkpt lat="44.927975507250125" lon="12.139753188657805"><ele>2.0</ele><time>2026-03-22T14:09:51.947Z</time></trkpt><trkpt lat="44.92809259426064" lon="12.139441214015918"><ele>1.0</ele><time>2026-03-22T14:09:52.947Z</time></trkpt><trkpt lat="44.928208660161964" lon="12.139123379264262"><ele>1.0</ele><time>2026-03-22T14:09:53.947Z</time></trkpt><trkpt lat="44.928392684935005" lon="12.138850882579444"><ele>1.0</ele><time>2026-03-22T14:09:54.947Z</time></trkpt><trkpt lat="44.928554980426895" lon="12.138566228657917"><ele>1.0</ele><time>2026-03-22T14:09:55.947Z</time></trkpt><trkpt lat="44.92874928930926" lon="12.138313589930302"><ele>1.0</ele><time>2026-03-22T14:09:56.947Z</time></trkpt><trkpt lat="44.92895303979839" lon="12.138078590341388"><ele>1.5</ele><time>2026-03-22T14:09:57.947Z</time></trkpt><trkpt lat="44.92916923874264" lon="12.137861804455055"><ele>2.0</ele><time>2026-03-22T14:09:58.947Z</time></trkpt><trkpt lat="44.92937945060757" lon="12.137642528741578"><ele>2.5</ele><time>2026-03-22T14:09:59.947Z</time></trkpt><trkpt lat="44.929578846744015" lon="12.137421083999248"><ele>3.0</ele><time>2026-03-22T14:10:00.947Z</time></trkpt><trkpt lat="44.92976864912235" lon="12.137194370693425"><ele>3.0</ele><time>2026-03-22T14:10:01.947Z</time></trkpt><trkpt lat="44.92992876964146" lon="12.13696035721854"><ele>3.0</ele><time>2026-03-22T14:10:02.947Z</time></trkpt><trkpt lat="44.93007022861009" lon="12.13670020176788"><ele>2.5</ele><time>2026-03-22T14:10:03.947Z</time></trkpt><trkpt lat="44.930192512173726" lon="12.136422541819547"><ele>2.0</ele><time>2026-03-22T14:10:04.947Z</time></trkpt><trkpt lat="44.93032187346796" lon="12.136136719440442"><ele>2.0</ele><time>2026-03-22T14:10:05.947Z</time></trkpt><trkpt lat="44.9304664754012" lon="12.135855599289574"><ele>2.0</ele><time>2026-03-22T14:10:06.947Z</time></trkpt><trkpt lat="44.93063348833138" lon="12.135583702144446"><ele>2.0</ele><time>2026-03-22T14:10:07.947Z</time></trkpt><trkpt lat="44.93080728121793" lon="12.13530401956415"><ele>2.0</ele><time>2026-03-22T14:10:08.947Z</time></trkpt><trkpt lat="44.93097865271093" lon="12.135023051911759"><ele>2.5</ele><time>2026-03-22T14:10:09.947Z</time></trkpt><trkpt lat="44.93114055378776" lon="12.134744008222155"><ele>3.0</ele><time>2026-03-22T14:10:10.947Z</time></trkpt><trkpt lat="44.93129690989611" lon="12.134467254263779"><ele>3.0</ele><time>2026-03-22T14:10:11.947Z</time></trkpt><trkpt lat="44.93144421852611" lon="12.134204507635864"><ele>3.0</ele><time>2026-03-22T14:10:12.947Z</time></trkpt><trkpt lat="44.93158439022259" lon="12.133955675222689"><ele>3.0</ele><time>2026-03-22T14:10:13.946Z</time></trkpt><trkpt lat="44.931719077951776" lon="12.133720260387198"><ele>3.0</ele><time>2026-03-22T14:10:14.946Z</time></trkpt><trkpt lat="44.93183595090221" lon="12.133494661030845"><ele>3.0</ele><time>2026-03-22T14:10:15.946Z</time></trkpt><trkpt lat="44.931939291585714" lon="12.133270057098485"><ele>2.3333333333333335</ele><time>2026-03-22T14:10:16.946Z</time></trkpt><trkpt lat="44.932019903237936" lon="12.133023405313802"><ele>1.6666666666666665</ele><time>2026-03-22T14:10:17.946Z</time></trkpt><trkpt lat="44.932077438318906" lon="12.132742323093073"><ele>1.0</ele><time>2026-03-22T14:10:18.946Z</time></trkpt><trkpt lat="44.932106628670134" lon="12.132437670521938"><ele>1.5</ele><time>2026-03-22T14:10:19.946Z</time></trkpt><trkpt lat="44.9321237459353" lon="12.132114381249485"><ele>2.0</ele><time>2026-03-22T14:10:20.946Z</time></trkpt><trkpt lat="44.9321338065663" lon="12.131777673949301"><ele>1.0</ele><time>2026-03-22T14:10:21.946Z</time></trkpt><trkpt lat="44.93213643816414" lon="12.131436779493857"><ele>0.0</ele><time>2026-03-22T14:10:22.946Z</time></trkpt><trkpt lat="44.93212556637483" lon="12.131090454619041"><ele>0.0</ele><time>2026-03-22T14:10:23.946Z</time></trkpt><trkpt lat="44.93209387685318" lon="12.130737821292733"><ele>0.0</ele><time>2026-03-22T14:10:24.946Z</time></trkpt><trkpt lat="44.93204415148614" lon="12.130386934415355"><ele>2.0</ele><time>2026-03-22T14:10:25.946Z</time></trkpt><trkpt lat="44.93198932164259" lon="12.130047735349134"><ele>4.0</ele><time>2026-03-22T14:10:26.946Z</time></trkpt><trkpt lat="44.93193394610956" lon="12.129714802904516"><ele>4.0</ele><time>2026-03-22T14:10:27.946Z</time></trkpt><trkpt lat="44.93188785220148" lon="12.12937829611304"><ele>4.0</ele><time>2026-03-22T14:10:28.946Z</time></trkpt><trkpt lat="44.93185372480924" lon="12.12904554463879"><ele>3.0</ele><time>2026-03-22T14:10:29.946Z</time></trkpt><trkpt lat="44.9318373045295" lon="12.128716067224278"><ele>2.0</ele><time>2026-03-22T14:10:30.947Z</time></trkpt><trkpt lat="44.931838593490134" lon="12.12840286798876"><ele>1.6666666666666665</ele><time>2026-03-22T14:10:31.948Z</time></trkpt><trkpt lat="44.93185244459263" lon="12.128092927199921"><ele>1.3333333333333333</ele><time>2026-03-22T14:10:32.948Z</time></trkpt><trkpt lat="44.931880349610935" lon="12.127783587069922"><ele>1.0</ele><time>2026-03-22T14:10:33.947Z</time></trkpt><trkpt lat="44.931935521654054" lon="12.127480335447293"><ele>1.3333333333333333</ele><time>2026-03-22T14:10:34.947Z</time></trkpt><trkpt lat="44.93201518945163" lon="12.127181235574616"><ele>1.6666666666666665</ele><time>2026-03-22T14:10:35.947Z</time></trkpt><trkpt lat="44.93210537277641" lon="12.12690056340897"><ele>2.0</ele><time>2026-03-22T14:10:36.947Z</time></trkpt><trkpt lat="44.93220311801999" lon="12.126663924756604"><ele>2.333333333333333</ele><time>2026-03-22T14:10:37.947Z</time></trkpt><trkpt lat="44.9323134608476" lon="12.126475140831984"><ele>2.6666666666666665</ele><time>2026-03-22T14:10:38.947Z</time></trkpt><trkpt lat="44.93244730076087" lon="12.12630752292269"><ele>3.0</ele><time>2026-03-22T14:10:39.948Z</time></trkpt><trkpt lat="44.93260764884939" lon="12.126126601963518"><ele>3.0</ele><time>2026-03-22T14:10:40.948Z</time></trkpt><trkpt lat="44.932785810668534" lon="12.125938550174721"><ele>3.0</ele><time>2026-03-22T14:10:41.948Z</time></trkpt><trkpt lat="44.93297696046593" lon="12.125735283679099"><ele>3.0</ele><time>2026-03-22T14:10:42.947Z</time></trkpt><trkpt lat="44.93315267025389" lon="12.125545611414303"><ele>3.0</ele><time>2026-03-22T14:10:43.947Z</time></trkpt><trkpt lat="44.93331269636014" lon="12.12537606337301"><ele>3.0</ele><time>2026-03-22T14:10:44.947Z</time></trkpt><trkpt lat="44.93346878422113" lon="12.125224198092312"><ele>2.6666666666666665</ele><time>2026-03-22T14:10:45.947Z</time></trkpt><trkpt lat="44.93364857336644" lon="12.125110017123676"><ele>2.333333333333333</ele><time>2026-03-22T14:10:46.947Z</time></trkpt><trkpt lat="44.93383887919631" lon="12.125031065675039"><ele>2.0</ele><time>2026-03-22T14:10:47.947Z</time></trkpt><trkpt lat="44.93404530933411" lon="12.124999203181922"><ele>2.0</ele><time>2026-03-22T14:10:48.947Z</time></trkpt><trkpt lat="44.934263019452" lon="12.125000901071612"><ele>2.0</ele><time>2026-03-22T14:10:49.947Z</time></trkpt><trkpt lat="44.934486926688855" lon="12.125000270527766"><ele>2.0</ele><time>2026-03-22T14:10:50.947Z</time></trkpt><trkpt lat="44.93471307251097" lon="12.12499494420332"><ele>2.0</ele><time>2026-03-22T14:10:51.947Z</time></trkpt><trkpt lat="44.93494878787008" lon="12.124992062210199"><ele>2.0</ele><time>2026-03-22T14:10:52.947Z</time></trkpt><trkpt lat="44.93518619080274" lon="12.125004822814443"><ele>1.5</ele><time>2026-03-22T14:10:53.947Z</time></trkpt><trkpt lat="44.93542082156027" lon="12.12501964308036"><ele>1.0</ele><time>2026-03-22T14:10:54.947Z</time></trkpt><trkpt lat="44.935664479555136" lon="12.125044035654927"><ele>1.0</ele><time>2026-03-22T14:10:55.946Z</time></trkpt><trkpt lat="44.93589403115277" lon="12.12508633099242"><ele>1.0</ele><time>2026-03-22T14:10:56.946Z</time></trkpt><trkpt lat="44.936098091229034" lon="12.125144080016396"><ele>1.0</ele><time>2026-03-22T14:10:57.946Z</time></trkpt><trkpt lat="44.93627402853518" lon="12.125229337514119"><ele>1.0</ele><time>2026-03-22T14:10:58.946Z</time></trkpt><trkpt lat="44.936406456011454" lon="12.125377125971173"><ele>1.0</ele><time>2026-03-22T14:10:59.946Z</time></trkpt><trkpt lat="44.9365315564336" lon="12.125542926019035"><ele>1.0</ele><time>2026-03-22T14:11:00.946Z</time></trkpt><trkpt lat="44.9366709409558" lon="12.125702683519533"><ele>1.6666666666666665</ele><time>2026-03-22T14:11:01.946Z</time></trkpt><trkpt lat="44.936827199793896" lon="12.125803364246693"><ele>2.3333333333333335</ele><time>2026-03-22T14:11:02.946Z</time></trkpt><trkpt lat="44.937001595890145" lon="12.125894001396443"><ele>3.0</ele><time>2026-03-22T14:11:03.946Z</time></trkpt><trkpt lat="44.93718431976008" lon="12.12595249462632"><ele>3.0</ele><time>2026-03-22T14:11:04.946Z</time></trkpt><trkpt lat="44.9373747482911" lon="12.125967686497113"><ele>3.0</ele><time>2026-03-22T14:11:05.946Z</time></trkpt><trkpt lat="44.93758108490318" lon="12.125949284889737"><ele>3.0</ele><time>2026-03-22T14:11:06.946Z</time></trkpt><trkpt lat="44.93779190080094" lon="12.125899955144494"><ele>3.0</ele><time>2026-03-22T14:11:07.946Z</time></trkpt><trkpt lat="44.938001230385225" lon="12.125828924997034"><ele>3.0</ele><time>2026-03-22T14:11:08.946Z</time></trkpt><trkpt lat="44.93820452092162" lon="12.125720966647394"><ele>3.0</ele><time>2026-03-22T14:11:09.946Z</time></trkpt><trkpt lat="44.938412950340265" lon="12.12558821974931"><ele>2.0</ele><time>2026-03-22T14:11:10.946Z</time></trkpt><trkpt lat="44.93861539896461" lon="12.125436004667845"><ele>1.0</ele><time>2026-03-22T14:11:11.946Z</time></trkpt><trkpt lat="44.93881163438308" lon="12.125262466381383"><ele>1.0</ele><time>2026-03-22T14:11:12.946Z</time></trkpt><trkpt lat="44.939012196009855" lon="12.12508882205185"><ele>1.0</ele><time>2026-03-22T14:11:13.946Z</time></trkpt><trkpt lat="44.93920441771589" lon="12.124930672925696"><ele>0.6666666666666666</ele><time>2026-03-22T14:11:14.946Z</time></trkpt><trkpt lat="44.939387548911164" lon="12.12478651728087"><ele>0.3333333333333333</ele><time>2026-03-22T14:11:15.946Z</time></trkpt><trkpt lat="44.939562453728605" lon="12.124651656319529"><ele>0.0</ele><time>2026-03-22T14:11:16.946Z</time></trkpt><trkpt lat="44.939724747342225" lon="12.124521430193601"><ele>0.0</ele><time>2026-03-22T14:11:17.946Z</time></trkpt><trkpt lat="44.93986937992854" lon="12.124405113007594"><ele>0.0</ele><time>2026-03-22T14:11:18.946Z</time></trkpt><trkpt lat="44.939991386508325" lon="12.124312268163036"><ele>0.0</ele><time>2026-03-22T14:11:19.946Z</time></trkpt><trkpt lat="44.94008534823846" lon="12.124242128348296"><ele>0.0</ele><time>2026-03-22T14:11:20.946Z</time></trkpt><trkpt lat="44.94015805048978" lon="12.124176369905477"><ele>0.2</ele><time>2026-03-22T14:11:21.946Z</time></trkpt><trkpt lat="44.94021517463485" lon="12.124104555749083"><ele>0.4</ele><time>2026-03-22T14:11:22.946Z</time></trkpt><trkpt lat="44.94024233122333" lon="12.124012428972863"><ele>0.6000000000000001</ele><time>2026-03-22T14:11:23.946Z</time></trkpt><trkpt lat="44.940169550852616" lon="12.123865671135697"><ele>0.8</ele><time>2026-03-22T14:11:25.946Z</time></trkpt><trkpt lat="44.94012733955367" lon="12.123764032398723"><ele>1.0</ele><time>2026-03-22T14:11:26.946Z</time></trkpt><trkpt lat="44.940077050434645" lon="12.123653859143374"><ele>1.0</ele><time>2026-03-22T14:11:27.946Z</time></trkpt><trkpt lat="44.94001863746013" lon="12.123533772789415"><ele>1.0</ele><time>2026-03-22T14:11:28.946Z</time></trkpt><trkpt lat="44.939961210526675" lon="12.12341571348317"><ele>1.0</ele><time>2026-03-22T14:11:29.946Z</time></trkpt><trkpt lat="44.93990549655945" lon="12.12330405444265"><ele>1.0</ele><time>2026-03-22T14:11:30.946Z</time></trkpt><trkpt lat="44.93985131272886" lon="12.12319703322208"><ele>1.0</ele><time>2026-03-22T14:11:31.946Z</time></trkpt><trkpt lat="44.93979252630782" lon="12.123081603265671"><ele>1.0</ele><time>2026-03-22T14:11:32.946Z</time></trkpt><trkpt lat="44.93973135528894" lon="12.122961231811841"><ele>1.0</ele><time>2026-03-22T14:11:33.946Z</time></trkpt><trkpt lat="44.939670254534505" lon="12.122830345173988"><ele>1.0</ele><time>2026-03-22T14:11:34.946Z</time></trkpt><trkpt lat="44.93960269343923" lon="12.122717219214456"><ele>1.0</ele><time>2026-03-22T14:11:35.946Z</time></trkpt><trkpt lat="44.93954346417821" lon="12.122608947929782"><ele>1.0</ele><time>2026-03-22T14:11:36.946Z</time></trkpt><trkpt lat="44.93950807717806" lon="12.122507364522304"><ele>1.0</ele><time>2026-03-22T14:11:37.946Z</time></trkpt><trkpt lat="44.93946197861929" lon="12.122432342799604"><ele>1.0</ele><time>2026-03-22T14:11:38.946Z</time></trkpt><trkpt lat="44.93944139798304" lon="12.122287699531304"><ele>1.0</ele><time>2026-03-22T14:11:39.946Z</time></trkpt><trkpt lat="44.939464162409045" lon="12.122131921890126"><ele>1.0</ele><time>2026-03-22T14:11:40.946Z</time></trkpt><trkpt lat="44.93951547764986" lon="12.121963513142282"><ele>1.0</ele><time>2026-03-22T14:11:41.946Z</time></trkpt><trkpt lat="44.939624981443664" lon="12.12185051216134"><ele>0.4</ele><time>2026-03-22T14:11:42.945Z</time></trkpt><trkpt lat="44.93968453096439" lon="12.12171928335684"><ele>-0.19999999999999996</ele><time>2026-03-22T14:11:43.945Z</time></trkpt><trkpt lat="44.93971997142737" lon="12.121585756978979"><ele>-0.8000000000000002</ele><time>2026-03-22T14:11:44.945Z</time></trkpt><trkpt lat="44.939728670612325" lon="12.12143851161319"><ele>-1.4000000000000001</ele><time>2026-03-22T14:11:45.945Z</time></trkpt><trkpt lat="44.93970193916979" lon="12.121289884262168"><ele>-2.0</ele><time>2026-03-22T14:11:46.945Z</time></trkpt><trkpt lat="44.939624214039156" lon="12.121134586539913"><ele>-2.6666666666666665</ele><time>2026-03-22T14:11:47.945Z</time></trkpt><trkpt lat="44.93949947934054" lon="12.120987714556117"><ele>-3.333333333333333</ele><time>2026-03-22T14:11:48.945Z</time></trkpt><trkpt lat="44.93934817981681" lon="12.120830922018156"><ele>-4.0</ele><time>2026-03-22T14:11:49.945Z</time></trkpt><trkpt lat="44.93918039464464" lon="12.120671427159367"><ele>-4.0</ele><time>2026-03-22T14:11:50.945Z</time></trkpt><trkpt lat="44.939011587922366" lon="12.120504933309807"><ele>-4.0</ele><time>2026-03-22T14:11:51.945Z</time></trkpt><trkpt lat="44.9388465816778" lon="12.120335841617754"><ele>-4.0</ele><time>2026-03-22T14:11:52.945Z</time></trkpt><trkpt lat="44.93867843526798" lon="12.120169639435693"><ele>-4.0</ele><time>2026-03-22T14:11:53.945Z</time></trkpt><trkpt lat="44.93852341901183" lon="12.119997845186514"><ele>-4.0</ele><time>2026-03-22T14:11:54.945Z</time></trkpt><trkpt lat="44.93836400005359" lon="12.119828964269814"><ele>-4.0</ele><time>2026-03-22T14:11:55.945Z</time></trkpt><trkpt lat="44.93820992982957" lon="12.119662164143692"><ele>-3.6666666666666665</ele><time>2026-03-22T14:11:56.945Z</time></trkpt><trkpt lat="44.93806856032628" lon="12.119511252080109"><ele>-3.333333333333333</ele><time>2026-03-22T14:11:57.945Z</time></trkpt><trkpt lat="44.937946262564914" lon="12.119378739628532"><ele>-3.0</ele><time>2026-03-22T14:11:58.945Z</time></trkpt><trkpt lat="44.937831285741225" lon="12.119262192420265"><ele>-3.0</ele><time>2026-03-22T14:11:59.945Z</time></trkpt><trkpt lat="44.9377284065954" lon="12.119162811400786"><ele>-3.0</ele><time>2026-03-22T14:12:00.945Z</time></trkpt><trkpt lat="44.937637399378005" lon="12.119076078361408"><ele>-3.0</ele><time>2026-03-22T14:12:01.945Z</time></trkpt><trkpt lat="44.93753251513312" lon="12.119057562100942"><ele>-3.0</ele><time>2026-03-22T14:12:02.945Z</time></trkpt><trkpt lat="44.93743352137545" lon="12.119090299972024"><ele>-3.0</ele><time>2026-03-22T14:12:03.945Z</time></trkpt><trkpt lat="44.93733357699324" lon="12.119203543390524"><ele>-3.0</ele><time>2026-03-22T14:12:04.945Z</time></trkpt><trkpt lat="44.937280676663434" lon="12.11931091707665"><ele>-3.0</ele><time>2026-03-22T14:12:05.945Z</time></trkpt><trkpt lat="44.93721697078823" lon="12.119362125777817"><ele>-3.0</ele><time>2026-03-22T14:12:06.945Z</time></trkpt><trkpt lat="44.9371488266029" lon="12.119395812560416"><ele>-3.0</ele><time>2026-03-22T14:12:07.945Z</time></trkpt><trkpt lat="44.93703966719502" lon="12.119439910547543"><ele>-3.0</ele><time>2026-03-22T14:12:09.945Z</time></trkpt><trkpt lat="44.93697729572446" lon="12.119456777439199"><ele>-3.0</ele><time>2026-03-22T14:12:10.945Z</time></trkpt><trkpt lat="44.93689409572698" lon="12.119455023073721"><ele>-3.0</ele><time>2026-03-22T14:12:11.945Z</time></trkpt><trkpt lat="44.9367870014204" lon="12.11939592975998"><ele>-3.0</ele><time>2026-03-22T14:12:12.945Z</time></trkpt><trkpt lat="44.93666732676529" lon="12.119287771624057"><ele>-3.0</ele><time>2026-03-22T14:12:13.945Z</time></trkpt><trkpt lat="44.93650864575265" lon="12.11917602467792"><ele>-3.0</ele><time>2026-03-22T14:12:14.945Z</time></trkpt><trkpt lat="44.9363436752522" lon="12.119059848436732"><ele>-3.333333333333333</ele><time>2026-03-22T14:12:15.945Z</time></trkpt><trkpt lat="44.93616575391887" lon="12.118934552033961"><ele>-3.6666666666666665</ele><time>2026-03-22T14:12:16.945Z</time></trkpt><trkpt lat="44.935974321538644" lon="12.118799740828875"><ele>-4.0</ele><time>2026-03-22T14:12:17.945Z</time></trkpt><trkpt lat="44.93576910125123" lon="12.118653520346953"><ele>-4.5</ele><time>2026-03-22T14:12:18.945Z</time></trkpt><trkpt lat="44.93555855326624" lon="12.118503460975026"><ele>-5.0</ele><time>2026-03-22T14:12:19.945Z</time></trkpt><trkpt lat="44.93533773710972" lon="12.118346083602214"><ele>-5.0</ele><time>2026-03-22T14:12:20.945Z</time></trkpt><trkpt lat="44.935113271971005" lon="12.118186105248526"><ele>-5.0</ele><time>2026-03-22T14:12:21.945Z</time></trkpt><trkpt lat="44.93488464234774" lon="12.118023160853445"><ele>-4.5</ele><time>2026-03-22T14:12:22.945Z</time></trkpt><trkpt lat="44.93465667573046" lon="12.117860817343253"><ele>-4.0</ele><time>2026-03-22T14:12:23.945Z</time></trkpt><trkpt lat="44.93442962246274" lon="12.11769954524663"><ele>-3.5</ele><time>2026-03-22T14:12:24.945Z</time></trkpt><trkpt lat="44.93420132141923" lon="12.11753738688222"><ele>-3.0</ele><time>2026-03-22T14:12:25.945Z</time></trkpt><trkpt lat="44.933978761868254" lon="12.11737930574367"><ele>-2.5</ele><time>2026-03-22T14:12:26.945Z</time></trkpt><trkpt lat="44.9337610326865" lon="12.117224656373747"><ele>-2.0</ele><time>2026-03-22T14:12:27.945Z</time></trkpt><trkpt lat="44.93355169762907" lon="12.117074667846781"><ele>-3.0</ele><time>2026-03-22T14:12:28.945Z</time></trkpt><trkpt lat="44.93334528478023" lon="12.116927036137488"><ele>-4.0</ele><time>2026-03-22T14:12:29.944Z</time></trkpt><trkpt lat="44.9331474515743" lon="12.116785540822894"><ele>-4.0</ele><time>2026-03-22T14:12:30.944Z</time></trkpt><trkpt lat="44.93296513828297" lon="12.116655145720268"><ele>-4.0</ele><time>2026-03-22T14:12:31.944Z</time></trkpt><trkpt lat="44.93278238667098" lon="12.116524437161347"><ele>-4.0</ele><time>2026-03-22T14:12:32.944Z</time></trkpt><trkpt lat="44.93259907216597" lon="12.116393325992012"><ele>-3.6666666666666665</ele><time>2026-03-22T14:12:33.944Z</time></trkpt><trkpt lat="44.93240695487206" lon="12.116256934643838"><ele>-3.333333333333333</ele><time>2026-03-22T14:12:34.944Z</time></trkpt><trkpt lat="44.93221476445606" lon="12.116120671023108"><ele>-3.0</ele><time>2026-03-22T14:12:35.944Z</time></trkpt><trkpt lat="44.93202679381387" lon="12.115986884222332"><ele>-3.0</ele><time>2026-03-22T14:12:36.946Z</time></trkpt><trkpt lat="44.93184493486256" lon="12.115855895292743"><ele>-3.0</ele><time>2026-03-22T14:12:37.946Z</time></trkpt><trkpt lat="44.931656278998155" lon="12.115721494989554"><ele>-3.0</ele><time>2026-03-22T14:12:38.946Z</time></trkpt><trkpt lat="44.93147015590217" lon="12.115590687521914"><ele>-3.5</ele><time>2026-03-22T14:12:39.946Z</time></trkpt><trkpt lat="44.93127270880685" lon="12.115451861356483"><ele>-4.0</ele><time>2026-03-22T14:12:40.946Z</time></trkpt><trkpt lat="44.93106468758193" lon="12.115305551978645"><ele>-4.0</ele><time>2026-03-22T14:12:41.946Z</time></trkpt><trkpt lat="44.930839134631135" lon="12.11514691172178"><ele>-4.0</ele><time>2026-03-22T14:12:42.946Z</time></trkpt><trkpt lat="44.93059477328991" lon="12.114975042842808"><ele>-4.0</ele><time>2026-03-22T14:12:43.946Z</time></trkpt><trkpt lat="44.93034358858026" lon="12.114798374852603"><ele>-4.0</ele><time>2026-03-22T14:12:44.946Z</time></trkpt><trkpt lat="44.93008953036634" lon="12.114619685794555"><ele>-4.0</ele><time>2026-03-22T14:12:45.946Z</time></trkpt><trkpt lat="44.92984538504218" lon="12.114447204801902"><ele>-4.0</ele><time>2026-03-22T14:12:46.946Z</time></trkpt><trkpt lat="44.92960484128614" lon="12.11427644080824"><ele>-4.0</ele><time>2026-03-22T14:12:47.946Z</time></trkpt><trkpt lat="44.92937380862129" lon="12.114112428736673"><ele>-4.0</ele><time>2026-03-22T14:12:48.946Z</time></trkpt><trkpt lat="44.92914548987517" lon="12.113950300258331"><ele>-2.5</ele><time>2026-03-22T14:12:49.946Z</time></trkpt><trkpt lat="44.928917769386466" lon="12.113788392937032"><ele>-1.0</ele><time>2026-03-22T14:12:50.946Z</time></trkpt><trkpt lat="44.92868647041683" lon="12.113645194947539"><ele>-1.0</ele><time>2026-03-22T14:12:51.946Z</time></trkpt><trkpt lat="44.92847496769774" lon="12.113449931534953"><ele>-1.0</ele><time>2026-03-22T14:12:52.946Z</time></trkpt><trkpt lat="44.92825511875929" lon="12.11326438907398"><ele>-1.0</ele><time>2026-03-22T14:12:53.946Z</time></trkpt><trkpt lat="44.92805049722509" lon="12.113033203478704"><ele>-1.0</ele><time>2026-03-22T14:12:54.946Z</time></trkpt><trkpt lat="44.92784469654726" lon="12.112771716935791"><ele>-1.0</ele><time>2026-03-22T14:12:55.946Z</time></trkpt><trkpt lat="44.92764414106742" lon="12.11248273733575"><ele>-1.0</ele><time>2026-03-22T14:12:56.946Z</time></trkpt><trkpt lat="44.9274454197332" lon="12.112184862060698"><ele>-1.0</ele><time>2026-03-22T14:12:57.946Z</time></trkpt><trkpt lat="44.92725292353277" lon="12.111879434900398"><ele>-1.0</ele><time>2026-03-22T14:12:58.946Z</time></trkpt><trkpt lat="44.9270626103675" lon="12.111573025272797"><ele>-1.0</ele><time>2026-03-22T14:12:59.946Z</time></trkpt><trkpt lat="44.92686517136162" lon="12.111260410315424"><ele>-1.0</ele><time>2026-03-22T14:13:00.946Z</time></trkpt><trkpt lat="44.926665127692935" lon="12.110948425543988"><ele>-2.0</ele><time>2026-03-22T14:13:01.946Z</time></trkpt><trkpt lat="44.926462491794325" lon="12.110635515307681"><ele>-3.0</ele><time>2026-03-22T14:13:02.946Z</time></trkpt><trkpt lat="44.926260787991474" lon="12.11032521723962"><ele>-3.0</ele><time>2026-03-22T14:13:03.946Z</time></trkpt><trkpt lat="44.92606319845076" lon="12.110016838962775"><ele>-3.0</ele><time>2026-03-22T14:13:04.946Z</time></trkpt><trkpt lat="44.925867359892294" lon="12.109714540241514"><ele>-2.5</ele><time>2026-03-22T14:13:05.946Z</time></trkpt><trkpt lat="44.92567436318384" lon="12.109408428898577"><ele>-2.0</ele><time>2026-03-22T14:13:06.946Z</time></trkpt><trkpt lat="44.92547961122151" lon="12.109108977648143"><ele>-2.0</ele><time>2026-03-22T14:13:07.946Z</time></trkpt><trkpt lat="44.9252862146271" lon="12.108814436668208"><ele>-2.0</ele><time>2026-03-22T14:13:08.946Z</time></trkpt><trkpt lat="44.925098722924176" lon="12.10852014303902"><ele>-1.0</ele><time>2026-03-22T14:13:09.946Z</time></trkpt><trkpt lat="44.92491474991142" lon="12.10823200141312"><ele>0.0</ele><time>2026-03-22T14:13:10.946Z</time></trkpt><trkpt lat="44.92472344425341" lon="12.107941610271764"><ele>0.0</ele><time>2026-03-22T14:13:11.946Z</time></trkpt><trkpt lat="44.92454338998784" lon="12.107658086206213"><ele>0.0</ele><time>2026-03-22T14:13:12.946Z</time></trkpt><trkpt lat="44.924354543618804" lon="12.107375482571246"><ele>-1.5</ele><time>2026-03-22T14:13:13.946Z</time></trkpt><trkpt lat="44.92417330206637" lon="12.107092280004665"><ele>-3.0</ele><time>2026-03-22T14:13:14.946Z</time></trkpt><trkpt lat="44.92398954220018" lon="12.106806837516233"><ele>-1.5</ele><time>2026-03-22T14:13:15.946Z</time></trkpt><trkpt lat="44.92379395637478" lon="12.10653248501067"><ele>0.0</ele><time>2026-03-22T14:13:16.946Z</time></trkpt><trkpt lat="44.92360152238798" lon="12.106248668867284"><ele>0.0</ele><time>2026-03-22T14:13:17.946Z</time></trkpt><trkpt lat="44.923413389768974" lon="12.105956704465845"><ele>0.0</ele><time>2026-03-22T14:13:18.946Z</time></trkpt><trkpt lat="44.923233897641204" lon="12.105663711864478"><ele>-1.0</ele><time>2026-03-22T14:13:19.946Z</time></trkpt><trkpt lat="44.92304967922195" lon="12.105375132766147"><ele>-2.0</ele><time>2026-03-22T14:13:20.946Z</time></trkpt><trkpt lat="44.92286154233325" lon="12.105087193433416"><ele>-1.5</ele><time>2026-03-22T14:13:21.946Z</time></trkpt><trkpt lat="44.922670961464796" lon="12.104802087419083"><ele>-1.0</ele><time>2026-03-22T14:13:22.946Z</time></trkpt><trkpt lat="44.92247782787178" lon="12.104517202908168"><ele>-1.0</ele><time>2026-03-22T14:13:23.945Z</time></trkpt><trkpt lat="44.92229422408579" lon="12.104232255745785"><ele>-1.0</ele><time>2026-03-22T14:13:24.945Z</time></trkpt><trkpt lat="44.92211472006492" lon="12.103954575205215"><ele>-1.0</ele><time>2026-03-22T14:13:25.945Z</time></trkpt><trkpt lat="44.9219404065484" lon="12.103686933787898"><ele>-1.0</ele><time>2026-03-22T14:13:26.945Z</time></trkpt><trkpt lat="44.92178083988815" lon="12.103428687078358"><ele>-1.3333333333333333</ele><time>2026-03-22T14:13:27.945Z</time></trkpt><trkpt lat="44.92163014420929" lon="12.103204633571947"><ele>-1.6666666666666665</ele><time>2026-03-22T14:13:28.945Z</time></trkpt><trkpt lat="44.92148973727998" lon="12.10298181745054"><ele>-2.0</ele><time>2026-03-22T14:13:29.945Z</time></trkpt><trkpt lat="44.92136030038528" lon="12.102778465274252"><ele>-2.0</ele><time>2026-03-22T14:13:30.945Z</time></trkpt><trkpt lat="44.921233932930896" lon="12.102582270414707"><ele>-2.0</ele><time>2026-03-22T14:13:31.945Z</time></trkpt><trkpt lat="44.92110366516382" lon="12.10237846169883"><ele>-2.0</ele><time>2026-03-22T14:13:32.945Z</time></trkpt><trkpt lat="44.920970592217564" lon="12.102170697841833"><ele>-2.333333333333333</ele><time>2026-03-22T14:13:33.945Z</time></trkpt><trkpt lat="44.92083851678615" lon="12.101973105187273"><ele>-2.6666666666666665</ele><time>2026-03-22T14:13:34.945Z</time></trkpt><trkpt lat="44.92070894051416" lon="12.101788628537012"><ele>-3.0</ele><time>2026-03-22T14:13:35.945Z</time></trkpt><trkpt lat="44.92056003141278" lon="12.101626535564654"><ele>-2.6666666666666665</ele><time>2026-03-22T14:13:36.945Z</time></trkpt><trkpt lat="44.920393534547514" lon="12.101514964316229"><ele>-2.333333333333333</ele><time>2026-03-22T14:13:37.945Z</time></trkpt><trkpt lat="44.920217452315455" lon="12.101439928141764"><ele>-2.0</ele><time>2026-03-22T14:13:38.945Z</time></trkpt><trkpt lat="44.92002232988407" lon="12.101407354274308"><ele>-2.0</ele><time>2026-03-22T14:13:39.945Z</time></trkpt><trkpt lat="44.91981465761082" lon="12.101425170956947"><ele>-2.0</ele><time>2026-03-22T14:13:40.945Z</time></trkpt><trkpt lat="44.919589772214906" lon="12.101476345859927"><ele>-2.0</ele><time>2026-03-22T14:13:41.945Z</time></trkpt><trkpt lat="44.91934910434298" lon="12.10152590019421"><ele>-2.0</ele><time>2026-03-22T14:13:42.945Z</time></trkpt><trkpt lat="44.91909738717165" lon="12.101565783117625"><ele>-2.0</ele><time>2026-03-22T14:13:43.945Z</time></trkpt><trkpt lat="44.91883970721244" lon="12.101602628755238"><ele>-3.0</ele><time>2026-03-22T14:13:44.945Z</time></trkpt><trkpt lat="44.91857148090877" lon="12.101618368677416"><ele>-4.0</ele><time>2026-03-22T14:13:45.945Z</time></trkpt><trkpt lat="44.91830722196995" lon="12.10161429776248"><ele>-4.5</ele><time>2026-03-22T14:13:46.945Z</time></trkpt><trkpt lat="44.918040934841564" lon="12.10160260801994"><ele>-5.0</ele><time>2026-03-22T14:13:47.945Z</time></trkpt><trkpt lat="44.91777487046295" lon="12.101581844959092"><ele>-3.0</ele><time>2026-03-22T14:13:48.945Z</time></trkpt><trkpt lat="44.91750358608913" lon="12.101539477327403"><ele>-1.0</ele><time>2026-03-22T14:13:49.945Z</time></trkpt><trkpt lat="44.91722876557029" lon="12.101484726583973"><ele>-1.0</ele><time>2026-03-22T14:13:50.945Z</time></trkpt><trkpt lat="44.9169560369016" lon="12.101415426736144"><ele>-1.0</ele><time>2026-03-22T14:13:51.945Z</time></trkpt><trkpt lat="44.91668514938783" lon="12.101333254528328"><ele>-2.0</ele><time>2026-03-22T14:13:52.945Z</time></trkpt><trkpt lat="44.916417137487855" lon="12.101247603415011"><ele>-3.0</ele><time>2026-03-22T14:13:53.945Z</time></trkpt><trkpt lat="44.916151824638455" lon="12.10115979599422"><ele>-3.5</ele><time>2026-03-22T14:13:54.945Z</time></trkpt><trkpt lat="44.91587974522212" lon="12.10106586521481"><ele>-4.0</ele><time>2026-03-22T14:13:55.945Z</time></trkpt><trkpt lat="44.91561211651517" lon="12.100941720397511"><ele>-4.0</ele><time>2026-03-22T14:13:56.945Z</time></trkpt><trkpt lat="44.91534578967474" lon="12.100803027712836"><ele>-4.0</ele><time>2026-03-22T14:13:57.945Z</time></trkpt><trkpt lat="44.91507979477146" lon="12.100653791850576"><ele>-3.0</ele><time>2026-03-22T14:13:58.945Z</time></trkpt><trkpt lat="44.91481596361683" lon="12.100496759322192"><ele>-2.0</ele><time>2026-03-22T14:13:59.945Z</time></trkpt><trkpt lat="44.91455182664355" lon="12.100329258880175"><ele>-2.0</ele><time>2026-03-22T14:14:00.945Z</time></trkpt><trkpt lat="44.91430188905935" lon="12.100150375994122"><ele>-2.0</ele><time>2026-03-22T14:14:01.945Z</time></trkpt><trkpt lat="44.91404878043333" lon="12.099983369006825"><ele>-2.0</ele><time>2026-03-22T14:14:02.945Z</time></trkpt><trkpt lat="44.91379867874997" lon="12.099814647112096"><ele>-2.0</ele><time>2026-03-22T14:14:03.945Z</time></trkpt><trkpt lat="44.91356765669608" lon="12.09964278825741"><ele>-2.0</ele><time>2026-03-22T14:14:04.945Z</time></trkpt><trkpt lat="44.91335396557916" lon="12.09947058650733"><ele>-2.0</ele><time>2026-03-22T14:14:05.945Z</time></trkpt><trkpt lat="44.91314702733337" lon="12.099307240094612"><ele>-2.0</ele><time>2026-03-22T14:14:06.945Z</time></trkpt><trkpt lat="44.91294872297137" lon="12.099134626991495"><ele>-2.0</ele><time>2026-03-22T14:14:07.945Z</time></trkpt><trkpt lat="44.912765717787245" lon="12.098951953395304"><ele>-2.333333333333333</ele><time>2026-03-22T14:14:08.945Z</time></trkpt><trkpt lat="44.912601834112444" lon="12.098774109652858"><ele>-2.6666666666666665</ele><time>2026-03-22T14:14:09.945Z</time></trkpt><trkpt lat="44.912474297207886" lon="12.098621688283082"><ele>-3.0</ele><time>2026-03-22T14:14:10.944Z</time></trkpt><trkpt lat="44.91235646971154" lon="12.098490858298355"><ele>-3.0</ele><time>2026-03-22T14:14:11.944Z</time></trkpt><trkpt lat="44.91225409525281" lon="12.098371151543812"><ele>-3.0</ele><time>2026-03-22T14:14:12.944Z</time></trkpt><trkpt lat="44.9121622826846" lon="12.09827684984548"><ele>-3.0</ele><time>2026-03-22T14:14:13.944Z</time></trkpt><trkpt lat="44.912055906968874" lon="12.098226561607866"><ele>-3.0</ele><time>2026-03-22T14:14:14.944Z</time></trkpt><trkpt lat="44.91193599616706" lon="12.098234235758337"><ele>-3.0</ele><time>2026-03-22T14:14:15.944Z</time></trkpt><trkpt lat="44.91179201427594" lon="12.098310978575187"><ele>-3.0</ele><time>2026-03-22T14:14:16.944Z</time></trkpt><trkpt lat="44.91162877303259" lon="12.09844367741176"><ele>-3.0</ele><time>2026-03-22T14:14:17.944Z</time></trkpt><trkpt lat="44.911425959096256" lon="12.098595432454035"><ele>-3.0</ele><time>2026-03-22T14:14:18.944Z</time></trkpt><trkpt lat="44.91121331121421" lon="12.098755424626566"><ele>-3.0</ele><time>2026-03-22T14:14:19.944Z</time></trkpt><trkpt lat="44.91097961233723" lon="12.098925728534024"><ele>-3.0</ele><time>2026-03-22T14:14:20.944Z</time></trkpt><trkpt lat="44.91073728790575" lon="12.099092568728906"><ele>-3.0</ele><time>2026-03-22T14:14:21.944Z</time></trkpt><trkpt lat="44.91045696702093" lon="12.099134287984828"><ele>-3.0</ele><time>2026-03-22T14:14:22.944Z</time></trkpt><trkpt lat="44.910210886394886" lon="12.099294501198372"><ele>-3.0</ele><time>2026-03-22T14:14:23.944Z</time></trkpt><trkpt lat="44.90996279978475" lon="12.099455508632376"><ele>-3.0</ele><time>2026-03-22T14:14:24.944Z</time></trkpt><trkpt lat="44.90970474054418" lon="12.09962340753561"><ele>-3.0</ele><time>2026-03-22T14:14:25.944Z</time></trkpt><trkpt lat="44.90943742864541" lon="12.099799601902856"><ele>-3.5</ele><time>2026-03-22T14:14:26.944Z</time></trkpt><trkpt lat="44.90917010983112" lon="12.099974732854655"><ele>-4.0</ele><time>2026-03-22T14:14:27.944Z</time></trkpt><trkpt lat="44.908899394053755" lon="12.100149565771881"><ele>-4.0</ele><time>2026-03-22T14:14:28.944Z</time></trkpt><trkpt lat="44.90863212600593" lon="12.100323900478054"><ele>-4.0</ele><time>2026-03-22T14:14:29.944Z</time></trkpt><trkpt lat="44.90836941393269" lon="12.100495541283143"><ele>-4.0</ele><time>2026-03-22T14:14:30.944Z</time></trkpt><trkpt lat="44.90812565531347" lon="12.100654799022301"><ele>-4.0</ele><time>2026-03-22T14:14:31.944Z</time></trkpt><trkpt lat="44.907884648038994" lon="12.10081050721139"><ele>-4.0</ele><time>2026-03-22T14:14:32.944Z</time></trkpt><trkpt lat="44.907645494718274" lon="12.100966910501194"><ele>-4.0</ele><time>2026-03-22T14:14:33.944Z</time></trkpt><trkpt lat="44.907409681760484" lon="12.101121926142131"><ele>-3.5</ele><time>2026-03-22T14:14:34.944Z</time></trkpt><trkpt lat="44.907174633710035" lon="12.101276438956736"><ele>-3.0</ele><time>2026-03-22T14:14:35.944Z</time></trkpt><trkpt lat="44.906925976602814" lon="12.101438910701312"><ele>-3.0</ele><time>2026-03-22T14:14:36.944Z</time></trkpt><trkpt lat="44.906685196515134" lon="12.101596169193078"><ele>-3.0</ele><time>2026-03-22T14:14:37.944Z</time></trkpt><trkpt lat="44.90644764226521" lon="12.101751322598497"><ele>-3.0</ele><time>2026-03-22T14:14:38.944Z</time></trkpt><trkpt lat="44.90621232011005" lon="12.101905016599911"><ele>-3.0</ele><time>2026-03-22T14:14:39.944Z</time></trkpt><trkpt lat="44.90598595477336" lon="12.10205273884161"><ele>-3.0</ele><time>2026-03-22T14:14:40.944Z</time></trkpt><trkpt lat="44.90576461921317" lon="12.102196672901787"><ele>-3.0</ele><time>2026-03-22T14:14:41.944Z</time></trkpt><trkpt lat="44.90554434736435" lon="12.102339915279762"><ele>-3.5</ele><time>2026-03-22T14:14:42.945Z</time></trkpt><trkpt lat="44.90533340569926" lon="12.102475742873319"><ele>-4.0</ele><time>2026-03-22T14:14:43.945Z</time></trkpt><trkpt lat="44.905127578344796" lon="12.102597633057641"><ele>-3.333333333333333</ele><time>2026-03-22T14:14:44.945Z</time></trkpt><trkpt lat="44.90492867497694" lon="12.102687010224642"><ele>-2.6666666666666665</ele><time>2026-03-22T14:14:45.945Z</time></trkpt><trkpt lat="44.90472454319804" lon="12.102747221785654"><ele>-2.0</ele><time>2026-03-22T14:14:46.944Z</time></trkpt><trkpt lat="44.904523713210615" lon="12.102774625177336"><ele>-2.0</ele><time>2026-03-22T14:14:47.944Z</time></trkpt><trkpt lat="44.90431985778751" lon="12.102789085237431"><ele>-2.0</ele><time>2026-03-22T14:14:48.945Z</time></trkpt><trkpt lat="44.90410916815989" lon="12.102802993338322"><ele>-2.0</ele><time>2026-03-22T14:14:49.945Z</time></trkpt><trkpt lat="44.90390494499731" lon="12.102816474610371"><ele>-2.0</ele><time>2026-03-22T14:14:50.945Z</time></trkpt><trkpt lat="44.90370501006069" lon="12.102829235602947"><ele>-2.0</ele><time>2026-03-22T14:14:51.945Z</time></trkpt><trkpt lat="44.90350407815361" lon="12.102842129629202"><ele>-2.0</ele><time>2026-03-22T14:14:52.945Z</time></trkpt><trkpt lat="44.903304409111925" lon="12.102854942615387"><ele>-2.333333333333333</ele><time>2026-03-22T14:14:53.945Z</time></trkpt><trkpt lat="44.90311526273769" lon="12.10286702123004"><ele>-2.6666666666666665</ele><time>2026-03-22T14:14:54.944Z</time></trkpt><trkpt lat="44.90293688903777" lon="12.10287837726446"><ele>-3.0</ele><time>2026-03-22T14:14:55.945Z</time></trkpt><trkpt lat="44.90276783662232" lon="12.102889635186378"><ele>-3.0</ele><time>2026-03-22T14:14:56.945Z</time></trkpt><trkpt lat="44.902597705880396" lon="12.10290082802593"><ele>-3.0</ele><time>2026-03-22T14:14:57.945Z</time></trkpt><trkpt lat="44.902422716141366" lon="12.102912062206512"><ele>-3.0</ele><time>2026-03-22T14:14:58.945Z</time></trkpt><trkpt lat="44.90224642938486" lon="12.102923990368218"><ele>-3.0</ele><time>2026-03-22T14:14:59.945Z</time></trkpt><trkpt lat="44.90206568901864" lon="12.102936341473868"><ele>-3.0</ele><time>2026-03-22T14:15:00.945Z</time></trkpt><trkpt lat="44.90188204123817" lon="12.102950539940231"><ele>-3.0</ele><time>2026-03-22T14:15:01.945Z</time></trkpt><trkpt lat="44.901689427529426" lon="12.10298400085526"><ele>-3.0</ele><time>2026-03-22T14:15:02.945Z</time></trkpt><trkpt lat="44.90148789916833" lon="12.103051307186538"><ele>-3.0</ele><time>2026-03-22T14:15:03.945Z</time></trkpt><trkpt lat="44.9012646191695" lon="12.103082236428603"><ele>-3.0</ele><time>2026-03-22T14:15:04.945Z</time></trkpt><trkpt lat="44.901037299805964" lon="12.103136248972865"><ele>-3.0</ele><time>2026-03-22T14:15:05.945Z</time></trkpt><trkpt lat="44.90081780614702" lon="12.103188402045221"><ele>-3.0</ele><time>2026-03-22T14:15:06.945Z</time></trkpt><trkpt lat="44.90061785481854" lon="12.103235911687904"><ele>-3.0</ele><time>2026-03-22T14:15:07.945Z</time></trkpt><trkpt lat="44.90044275110569" lon="12.103268651027948"><ele>-3.0</ele><time>2026-03-22T14:15:08.945Z</time></trkpt><trkpt lat="44.90027400995039" lon="12.103275338204277"><ele>-3.0</ele><time>2026-03-22T14:15:09.945Z</time></trkpt><trkpt lat="44.90010022261792" lon="12.103233867055799"><ele>-3.0</ele><time>2026-03-22T14:15:10.945Z</time></trkpt><trkpt lat="44.8999155322283" lon="12.103169595943248"><ele>-3.0</ele><time>2026-03-22T14:15:11.945Z</time></trkpt><trkpt lat="44.89971635912449" lon="12.103098951393946"><ele>-3.0</ele><time>2026-03-22T14:15:12.945Z</time></trkpt><trkpt lat="44.89950638914257" lon="12.10302504136129"><ele>-3.0</ele><time>2026-03-22T14:15:13.945Z</time></trkpt><trkpt lat="44.8992827324866" lon="12.103007218648493"><ele>-3.0</ele><time>2026-03-22T14:15:14.945Z</time></trkpt><trkpt lat="44.89906801058764" lon="12.102927648672814"><ele>-3.0</ele><time>2026-03-22T14:15:15.945Z</time></trkpt><trkpt lat="44.89884680609053" lon="12.102849918080645"><ele>-3.0</ele><time>2026-03-22T14:15:16.945Z</time></trkpt><trkpt lat="44.89862507966292" lon="12.10276556326944"><ele>-3.0</ele><time>2026-03-22T14:15:17.945Z</time></trkpt><trkpt lat="44.89840422933448" lon="12.102638065158448"><ele>-2.5</ele><time>2026-03-22T14:15:18.945Z</time></trkpt><trkpt lat="44.898169727205115" lon="12.102555495999853"><ele>-2.0</ele><time>2026-03-22T14:15:19.945Z</time></trkpt><trkpt lat="44.89793659390733" lon="12.102473408850514"><ele>-2.0</ele><time>2026-03-22T14:15:20.944Z</time></trkpt><trkpt lat="44.89770252587436" lon="12.102391099748033"><ele>-2.0</ele><time>2026-03-22T14:15:21.944Z</time></trkpt><trkpt lat="44.897467924505655" lon="12.102308606032404"><ele>-2.0</ele><time>2026-03-22T14:15:22.944Z</time></trkpt><trkpt lat="44.89723448519181" lon="12.102227147829694"><ele>-2.0</ele><time>2026-03-22T14:15:23.944Z</time></trkpt><trkpt lat="44.89701298799106" lon="12.102150080601053"><ele>-2.0</ele><time>2026-03-22T14:15:24.944Z</time></trkpt><trkpt lat="44.896813042149766" lon="12.102080511845477"><ele>-2.0</ele><time>2026-03-22T14:15:25.944Z</time></trkpt><trkpt lat="44.89664431186827" lon="12.10202180613963"><ele>-2.0</ele><time>2026-03-22T14:15:26.944Z</time></trkpt><trkpt lat="44.89650840196948" lon="12.101968755410388"><ele>-2.0</ele><time>2026-03-22T14:15:27.944Z</time></trkpt><trkpt lat="44.89638252707253" lon="12.101910722637218"><ele>-2.0</ele><time>2026-03-22T14:15:28.944Z</time></trkpt><trkpt lat="44.89626270168617" lon="12.101825264109003"><ele>-2.0</ele><time>2026-03-22T14:15:29.944Z</time></trkpt><trkpt lat="44.89617204960521" lon="12.101659415128905"><ele>-2.0</ele><time>2026-03-22T14:15:30.944Z</time></trkpt><trkpt lat="44.89611961644321" lon="12.101444118059405"><ele>-2.0</ele><time>2026-03-22T14:15:31.944Z</time></trkpt><trkpt lat="44.896105097199445" lon="12.101205283857295"><ele>-2.0</ele><time>2026-03-22T14:15:32.944Z</time></trkpt><trkpt lat="44.8961253095567" lon="12.100946328723364"><ele>-2.0</ele><time>2026-03-22T14:15:33.944Z</time></trkpt><trkpt lat="44.89614887351561" lon="12.100673977444288"><ele>-2.0</ele><time>2026-03-22T14:15:34.944Z</time></trkpt><trkpt lat="44.896171702931134" lon="12.100402015336307"><ele>-2.0</ele><time>2026-03-22T14:15:35.944Z</time></trkpt><trkpt lat="44.89619376906498" lon="12.10014007991772"><ele>-2.0</ele><time>2026-03-22T14:15:36.944Z</time></trkpt><trkpt lat="44.89621062248946" lon="12.099892475967252"><ele>-2.0</ele><time>2026-03-22T14:15:37.944Z</time></trkpt><trkpt lat="44.896231725782414" lon="12.099673557298471"><ele>-2.0</ele><time>2026-03-22T14:15:38.944Z</time></trkpt><trkpt lat="44.89624761178851" lon="12.099492415360922"><ele>-2.0</ele><time>2026-03-22T14:15:39.944Z</time></trkpt><trkpt lat="44.89625582450622" lon="12.099341290900911"><ele>-2.0</ele><time>2026-03-22T14:15:40.944Z</time></trkpt><trkpt lat="44.896255050085834" lon="12.09920564622794"><ele>-2.0</ele><time>2026-03-22T14:15:41.944Z</time></trkpt><trkpt lat="44.89622186462768" lon="12.099090797978908"><ele>-2.0</ele><time>2026-03-22T14:15:42.944Z</time></trkpt><trkpt lat="44.896147727623486" lon="12.099016000082337"><ele>-2.0</ele><time>2026-03-22T14:15:43.944Z</time></trkpt><trkpt lat="44.89604573437739" lon="12.098980896690373"><ele>-2.0</ele><time>2026-03-22T14:15:44.944Z</time></trkpt><trkpt lat="44.89593026728157" lon="12.098911885410699"><ele>-2.0</ele><time>2026-03-22T14:15:45.944Z</time></trkpt><trkpt lat="44.895799532162954" lon="12.098826674714122"><ele>-1.3333333333333333</ele><time>2026-03-22T14:15:46.944Z</time></trkpt><trkpt lat="44.89557916254739" lon="12.09891530942958"><ele>-0.6666666666666666</ele><time>2026-03-22T14:15:47.944Z</time></trkpt><trkpt lat="44.89537729553545" lon="12.098883899696318"><ele>0.0</ele><time>2026-03-22T14:15:48.944Z</time></trkpt><trkpt lat="44.89517080802584" lon="12.098847132535566"><ele>0.0</ele><time>2026-03-22T14:15:49.944Z</time></trkpt><trkpt lat="44.894959586005875" lon="12.098794489332084"><ele>0.0</ele><time>2026-03-22T14:15:50.944Z</time></trkpt><trkpt lat="44.894735535390964" lon="12.098736534754739"><ele>0.0</ele><time>2026-03-22T14:15:51.944Z</time></trkpt><trkpt lat="44.89450399306813" lon="12.098669930461103"><ele>0.0</ele><time>2026-03-22T14:15:52.944Z</time></trkpt><trkpt lat="44.89426879303599" lon="12.098588402642594"><ele>0.0</ele><time>2026-03-22T14:15:53.944Z</time></trkpt><trkpt lat="44.89402882308995" lon="12.098492917371749"><ele>-0.5</ele><time>2026-03-22T14:15:54.944Z</time></trkpt><trkpt lat="44.893788221935786" lon="12.098389637325162"><ele>-1.0</ele><time>2026-03-22T14:15:55.944Z</time></trkpt><trkpt lat="44.89354952200688" lon="12.098271677429334"><ele>-1.0</ele><time>2026-03-22T14:15:56.944Z</time></trkpt><trkpt lat="44.89331582106509" lon="12.098139443303413"><ele>-1.0</ele><time>2026-03-22T14:15:57.944Z</time></trkpt><trkpt lat="44.89308761002861" lon="12.09799104817559"><ele>-1.0</ele><time>2026-03-22T14:15:58.944Z</time></trkpt><trkpt lat="44.89286544823781" lon="12.097835573920822"><ele>-1.0</ele><time>2026-03-22T14:15:59.944Z</time></trkpt><trkpt lat="44.89265371671122" lon="12.097662060309984"><ele>-1.0</ele><time>2026-03-22T14:16:00.944Z</time></trkpt><trkpt lat="44.892446840395095" lon="12.097474287813794"><ele>-1.0</ele><time>2026-03-22T14:16:01.944Z</time></trkpt><trkpt lat="44.89224155083062" lon="12.09728091658922"><ele>-1.0</ele><time>2026-03-22T14:16:02.944Z</time></trkpt><trkpt lat="44.8920414822438" lon="12.09706667289967"><ele>-1.0</ele><time>2026-03-22T14:16:03.944Z</time></trkpt><trkpt lat="44.89184554469179" lon="12.096840478438859"><ele>-0.5</ele><time>2026-03-22T14:16:04.944Z</time></trkpt><trkpt lat="44.89165650847559" lon="12.09659737243712"><ele>0.0</ele><time>2026-03-22T14:16:05.944Z</time></trkpt><trkpt lat="44.89147356712851" lon="12.096337907810524"><ele>-1.0</ele><time>2026-03-22T14:16:06.944Z</time></trkpt><trkpt lat="44.89129192998556" lon="12.096068527810635"><ele>-2.0</ele><time>2026-03-22T14:16:07.943Z</time></trkpt><trkpt lat="44.891113484407235" lon="12.0957934970346"><ele>-2.5</ele><time>2026-03-22T14:16:08.943Z</time></trkpt><trkpt lat="44.89093505234658" lon="12.095515745668987"><ele>-3.0</ele><time>2026-03-22T14:16:09.943Z</time></trkpt><trkpt lat="44.89075768737654" lon="12.095232384552618"><ele>-2.5</ele><time>2026-03-22T14:16:10.943Z</time></trkpt><trkpt lat="44.89057913136164" lon="12.094959201287487"><ele>-2.0</ele><time>2026-03-22T14:16:11.943Z</time></trkpt><trkpt lat="44.890406608527364" lon="12.094690803982353"><ele>-2.0</ele><time>2026-03-22T14:16:12.943Z</time></trkpt><trkpt lat="44.890245769180346" lon="12.094428509478483"><ele>-2.0</ele><time>2026-03-22T14:16:13.943Z</time></trkpt><trkpt lat="44.890096119087104" lon="12.094170297551505"><ele>-1.6666666666666665</ele><time>2026-03-22T14:16:14.943Z</time></trkpt><trkpt lat="44.8899492533387" lon="12.093924930713191"><ele>-1.3333333333333333</ele><time>2026-03-22T14:16:15.943Z</time></trkpt><trkpt lat="44.889808616915396" lon="12.093699592178561"><ele>-1.0</ele><time>2026-03-22T14:16:16.943Z</time></trkpt><trkpt lat="44.88967023815623" lon="12.09349804687377"><ele>-1.0</ele><time>2026-03-22T14:16:17.943Z</time></trkpt><trkpt lat="44.8895433843298" lon="12.093314498627665"><ele>-1.0</ele><time>2026-03-22T14:16:18.943Z</time></trkpt><trkpt lat="44.88942425926033" lon="12.093149033212523"><ele>-1.0</ele><time>2026-03-22T14:16:19.943Z</time></trkpt><trkpt lat="44.8893014071177" lon="12.093010701094231"><ele>-1.0</ele><time>2026-03-22T14:16:20.943Z</time></trkpt><trkpt lat="44.889192876073324" lon="12.092898344414015"><ele>-1.0</ele><time>2026-03-22T14:16:21.943Z</time></trkpt><trkpt lat="44.889092632720285" lon="12.092802598061914"><ele>-1.0</ele><time>2026-03-22T14:16:22.943Z</time></trkpt><trkpt lat="44.889007694706166" lon="12.09272966464967"><ele>-1.0</ele><time>2026-03-22T14:16:23.943Z</time></trkpt><trkpt lat="44.888948593044574" lon="12.092668846050438"><ele>-1.0</ele><time>2026-03-22T14:16:24.943Z</time></trkpt><trkpt lat="44.88887958529655" lon="12.092551032721893"><ele>-1.1666666666666665</ele><time>2026-03-22T14:16:26.943Z</time></trkpt><trkpt lat="44.888824381984705" lon="12.092391108384257"><ele>-1.3333333333333333</ele><time>2026-03-22T14:16:28.943Z</time></trkpt><trkpt lat="44.88880766665036" lon="12.09227583100382"><ele>-1.5</ele><time>2026-03-22T14:16:29.943Z</time></trkpt><trkpt lat="44.888768727667035" lon="12.09217623320151"><ele>-1.6666666666666665</ele><time>2026-03-22T14:16:30.943Z</time></trkpt><trkpt lat="44.888708039607195" lon="12.092114141222666"><ele>-1.8333333333333333</ele><time>2026-03-22T14:16:31.943Z</time></trkpt><trkpt lat="44.88864412727728" lon="12.092090387050524"><ele>-2.0</ele><time>2026-03-22T14:16:32.943Z</time></trkpt><trkpt lat="44.88857575643971" lon="12.092102148322626"><ele>-1.9999999999999998</ele><time>2026-03-22T14:16:33.943Z</time></trkpt><trkpt lat="44.88850835675698" lon="12.092150766353162"><ele>-2.0</ele><time>2026-03-22T14:16:34.943Z</time></trkpt><trkpt lat="44.88845344884544" lon="12.092211571455728"><ele>-2.0</ele><time>2026-03-22T14:16:35.943Z</time></trkpt><trkpt lat="44.88839579349052" lon="12.092276642075676"><ele>-2.0</ele><time>2026-03-22T14:16:36.943Z</time></trkpt><trkpt lat="44.888324804342965" lon="12.092330213086097"><ele>-1.9999999999999998</ele><time>2026-03-22T14:16:37.943Z</time></trkpt><trkpt lat="44.88824964796939" lon="12.092366144228649"><ele>-2.0</ele><time>2026-03-22T14:16:38.943Z</time></trkpt><trkpt lat="44.88817285582201" lon="12.092371898716292"><ele>-2.0</ele><time>2026-03-22T14:16:39.943Z</time></trkpt><trkpt lat="44.88808331002882" lon="12.092357440109833"><ele>-2.0</ele><time>2026-03-22T14:16:40.943Z</time></trkpt><trkpt lat="44.887988625863294" lon="12.092340471947237"><ele>-2.0</ele><time>2026-03-22T14:16:41.943Z</time></trkpt><trkpt lat="44.88788029744185" lon="12.092323831795621"><ele>-2.0</ele><time>2026-03-22T14:16:42.943Z</time></trkpt><trkpt lat="44.88776517520415" lon="12.092313246809836"><ele>-2.0</ele><time>2026-03-22T14:16:43.943Z</time></trkpt><trkpt lat="44.88764821031951" lon="12.092312252091157"><ele>-1.5</ele><time>2026-03-22T14:16:44.943Z</time></trkpt><trkpt lat="44.88752563350403" lon="12.092311899254666"><ele>-1.0</ele><time>2026-03-22T14:16:45.943Z</time></trkpt><trkpt lat="44.887396576710344" lon="12.092324990821904"><ele>-0.5</ele><time>2026-03-22T14:16:46.943Z</time></trkpt><trkpt lat="44.887257713084615" lon="12.092348920036326"><ele>0.0</ele><time>2026-03-22T14:16:47.943Z</time></trkpt><trkpt lat="44.887114829659446" lon="12.092392018372331"><ele>0.0</ele><time>2026-03-22T14:16:48.944Z</time></trkpt><trkpt lat="44.88696757654169" lon="12.092446976473147"><ele>0.0</ele><time>2026-03-22T14:16:49.943Z</time></trkpt><trkpt lat="44.88682501058896" lon="12.092512344892604"><ele>0.0</ele><time>2026-03-22T14:16:50.943Z</time></trkpt><trkpt lat="44.886660674340305" lon="12.092493623902167"><ele>-0.3333333333333333</ele><time>2026-03-22T14:16:51.943Z</time></trkpt><trkpt lat="44.88650986509704" lon="12.092577244713937"><ele>-0.6666666666666666</ele><time>2026-03-22T14:16:52.943Z</time></trkpt><trkpt lat="44.88633888577958" lon="12.092687837142462"><ele>-1.0</ele><time>2026-03-22T14:16:53.943Z</time></trkpt><trkpt lat="44.88613987749391" lon="12.092830425496338"><ele>-1.0</ele><time>2026-03-22T14:16:54.944Z</time></trkpt><trkpt lat="44.88593150986398" lon="12.092984230062463"><ele>-1.0</ele><time>2026-03-22T14:16:55.944Z</time></trkpt><trkpt lat="44.8857155772273" lon="12.093143618669117"><ele>-2.0</ele><time>2026-03-22T14:16:56.944Z</time></trkpt><trkpt lat="44.88549285151061" lon="12.093312488604518"><ele>-3.0</ele><time>2026-03-22T14:16:57.944Z</time></trkpt><trkpt lat="44.88528149813683" lon="12.093485212289474"><ele>-2.5</ele><time>2026-03-22T14:16:58.944Z</time></trkpt><trkpt lat="44.88508681664316" lon="12.093658530814892"><ele>-2.0</ele><time>2026-03-22T14:16:59.944Z</time></trkpt><trkpt lat="44.884909377950606" lon="12.093843390125183"><ele>-2.0</ele><time>2026-03-22T14:17:00.943Z</time></trkpt><trkpt lat="44.88473614093432" lon="12.094012179589507"><ele>-2.0</ele><time>2026-03-22T14:17:01.944Z</time></trkpt><trkpt lat="44.88456009507931" lon="12.0941742659695"><ele>-2.0</ele><time>2026-03-22T14:17:02.944Z</time></trkpt><trkpt lat="44.884378724291466" lon="12.094310955719529"><ele>-2.0</ele><time>2026-03-22T14:17:03.944Z</time></trkpt><trkpt lat="44.88419919459644" lon="12.094425500126365"><ele>-2.0</ele><time>2026-03-22T14:17:04.944Z</time></trkpt><trkpt lat="44.88402130154245" lon="12.09451787981841"><ele>-2.0</ele><time>2026-03-22T14:17:05.944Z</time></trkpt><trkpt lat="44.88383590809492" lon="12.094574353883754"><ele>-2.0</ele><time>2026-03-22T14:17:06.944Z</time></trkpt><trkpt lat="44.883642823050565" lon="12.094594124912026"><ele>-2.0</ele><time>2026-03-22T14:17:07.944Z</time></trkpt><trkpt lat="44.88344056565563" lon="12.09457873434428"><ele>-2.0</ele><time>2026-03-22T14:17:08.944Z</time></trkpt><trkpt lat="44.88322678515003" lon="12.094533711241004"><ele>-2.0</ele><time>2026-03-22T14:17:09.943Z</time></trkpt><trkpt lat="44.88301739795079" lon="12.09445556433062"><ele>-2.0</ele><time>2026-03-22T14:17:10.943Z</time></trkpt><trkpt lat="44.88281924222077" lon="12.09435092741562"><ele>-2.0</ele><time>2026-03-22T14:17:11.943Z</time></trkpt><trkpt lat="44.88262320931328" lon="12.09421223737866"><ele>-3.5</ele><time>2026-03-22T14:17:12.943Z</time></trkpt><trkpt lat="44.882443080302735" lon="12.094031012380482"><ele>-5.0</ele><time>2026-03-22T14:17:13.943Z</time></trkpt><trkpt lat="44.882262424415245" lon="12.0938171719358"><ele>-5.0</ele><time>2026-03-22T14:17:14.943Z</time></trkpt><trkpt lat="44.88208557040128" lon="12.093592856907494"><ele>-5.0</ele><time>2026-03-22T14:17:15.943Z</time></trkpt><trkpt lat="44.8819320415017" lon="12.09334592787448"><ele>-4.5</ele><time>2026-03-22T14:17:16.943Z</time></trkpt><trkpt lat="44.88178469524271" lon="12.09308482484036"><ele>-4.0</ele><time>2026-03-22T14:17:17.943Z</time></trkpt><trkpt lat="44.88166945408665" lon="12.09280775504829"><ele>-4.0</ele><time>2026-03-22T14:17:18.943Z</time></trkpt><trkpt lat="44.88157061577373" lon="12.09250783585651"><ele>-4.0</ele><time>2026-03-22T14:17:19.943Z</time></trkpt><trkpt lat="44.88148653271224" lon="12.092195842388536"><ele>-3.5</ele><time>2026-03-22T14:17:20.943Z</time></trkpt><trkpt lat="44.881422088000804" lon="12.091857655442684"><ele>-3.0</ele><time>2026-03-22T14:17:21.943Z</time></trkpt><trkpt lat="44.88136949939481" lon="12.09150794592608"><ele>-3.0</ele><time>2026-03-22T14:17:22.943Z</time></trkpt><trkpt lat="44.88130994606947" lon="12.09115187786401"><ele>-3.0</ele><time>2026-03-22T14:17:23.943Z</time></trkpt><trkpt lat="44.88126711711066" lon="12.090801248477062"><ele>-3.5</ele><time>2026-03-22T14:17:24.943Z</time></trkpt><trkpt lat="44.88121658976098" lon="12.090444895889851"><ele>-4.0</ele><time>2026-03-22T14:17:25.943Z</time></trkpt><trkpt lat="44.8811942585953" lon="12.090082971716992"><ele>-4.5</ele><time>2026-03-22T14:17:26.943Z</time></trkpt><trkpt lat="44.881143663591004" lon="12.089728412579246"><ele>-5.0</ele><time>2026-03-22T14:17:27.943Z</time></trkpt><trkpt lat="44.881093737409145" lon="12.089371862420455"><ele>-5.0</ele><time>2026-03-22T14:17:28.943Z</time></trkpt><trkpt lat="44.88104210032635" lon="12.089014197204376"><ele>-5.0</ele><time>2026-03-22T14:17:29.943Z</time></trkpt><trkpt lat="44.88099326682951" lon="12.088666855683165"><ele>-5.0</ele><time>2026-03-22T14:17:30.943Z</time></trkpt><trkpt lat="44.88095048903748" lon="12.088346015736176"><ele>-5.0</ele><time>2026-03-22T14:17:31.943Z</time></trkpt><trkpt lat="44.88090954726441" lon="12.088048916599638"><ele>-5.0</ele><time>2026-03-22T14:17:32.943Z</time></trkpt><trkpt lat="44.88086679469085" lon="12.08775401653386"><ele>-4.666666666666667</ele><time>2026-03-22T14:17:33.943Z</time></trkpt><trkpt lat="44.88081577714966" lon="12.08746292747101"><ele>-4.333333333333333</ele><time>2026-03-22T14:17:34.943Z</time></trkpt><trkpt lat="44.880743373961124" lon="12.087177003120049"><ele>-4.0</ele><time>2026-03-22T14:17:35.943Z</time></trkpt><trkpt lat="44.8806450013813" lon="12.086897387417613"><ele>-4.0</ele><time>2026-03-22T14:17:36.943Z</time></trkpt><trkpt lat="44.88050740238693" lon="12.08662110303183"><ele>-4.0</ele><time>2026-03-22T14:17:37.943Z</time></trkpt><trkpt lat="44.88036569741545" lon="12.086353789944713"><ele>-4.0</ele><time>2026-03-22T14:17:38.943Z</time></trkpt><trkpt lat="44.88021612926559" lon="12.086092688831696"><ele>-4.0</ele><time>2026-03-22T14:17:39.943Z</time></trkpt><trkpt lat="44.88005527062101" lon="12.08585693425173"><ele>-4.0</ele><time>2026-03-22T14:17:40.943Z</time></trkpt><trkpt lat="44.879889399612104" lon="12.085635574764638"><ele>-4.0</ele><time>2026-03-22T14:17:41.943Z</time></trkpt><trkpt lat="44.87972005164705" lon="12.085434831063079"><ele>-4.0</ele><time>2026-03-22T14:17:42.943Z</time></trkpt><trkpt lat="44.87955342427487" lon="12.085253679155661"><ele>-4.0</ele><time>2026-03-22T14:17:43.943Z</time></trkpt><trkpt lat="44.879398558490244" lon="12.085068616894201"><ele>-4.0</ele><time>2026-03-22T14:17:44.943Z</time></trkpt><trkpt lat="44.879214655002606" lon="12.084930147847741"><ele>-4.0</ele><time>2026-03-22T14:17:45.943Z</time></trkpt><trkpt lat="44.87903332999069" lon="12.084788743617828"><ele>-3.333333333333333</ele><time>2026-03-22T14:17:46.943Z</time></trkpt><trkpt lat="44.87885240464307" lon="12.084640259616291"><ele>-2.6666666666666665</ele><time>2026-03-22T14:17:47.943Z</time></trkpt><trkpt lat="44.87864331481378" lon="12.084576991005694"><ele>-2.0</ele><time>2026-03-22T14:17:48.943Z</time></trkpt><trkpt lat="44.87846465336891" lon="12.084449931593516"><ele>-2.0</ele><time>2026-03-22T14:17:49.943Z</time></trkpt><trkpt lat="44.87827653110105" lon="12.084354083810725"><ele>-2.0</ele><time>2026-03-22T14:17:50.943Z</time></trkpt><trkpt lat="44.878074838194784" lon="12.084304518175454"><ele>-2.0</ele><time>2026-03-22T14:17:51.943Z</time></trkpt><trkpt lat="44.87786736040453" lon="12.084268659080703"><ele>-2.0</ele><time>2026-03-22T14:17:52.943Z</time></trkpt><trkpt lat="44.877656309068996" lon="12.084247916651618"><ele>-2.0</ele><time>2026-03-22T14:17:53.943Z</time></trkpt><trkpt lat="44.87744669645615" lon="12.08423640346617"><ele>-2.0</ele><time>2026-03-22T14:17:54.943Z</time></trkpt><trkpt lat="44.87723855845734" lon="12.08423065680336"><ele>-2.0</ele><time>2026-03-22T14:17:55.943Z</time></trkpt><trkpt lat="44.877039450515056" lon="12.08422818482717"><ele>-2.0</ele><time>2026-03-22T14:17:56.942Z</time></trkpt><trkpt lat="44.87684500435625" lon="12.084225115813057"><ele>-2.0</ele><time>2026-03-22T14:17:57.942Z</time></trkpt><trkpt lat="44.87664188347255" lon="12.084242719458903"><ele>-2.0</ele><time>2026-03-22T14:17:58.942Z</time></trkpt><trkpt lat="44.87644109065374" lon="12.084274517589584"><ele>-2.0</ele><time>2026-03-22T14:17:59.942Z</time></trkpt><trkpt lat="44.876238896158384" lon="12.084319740216444"><ele>-2.0</ele><time>2026-03-22T14:18:00.942Z</time></trkpt><trkpt lat="44.876042342569015" lon="12.084370187830238"><ele>-2.0</ele><time>2026-03-22T14:18:01.942Z</time></trkpt><trkpt lat="44.87585573662285" lon="12.084426414476292"><ele>-2.0</ele><time>2026-03-22T14:18:02.942Z</time></trkpt><trkpt lat="44.875653629478975" lon="12.08450262963445"><ele>-2.0</ele><time>2026-03-22T14:18:03.942Z</time></trkpt><trkpt lat="44.87546202318687" lon="12.084570723862768"><ele>-2.0</ele><time>2026-03-22T14:18:04.941Z</time></trkpt><trkpt lat="44.875266879086745" lon="12.084648605340082"><ele>-2.0</ele><time>2026-03-22T14:18:05.939Z</time></trkpt><trkpt lat="44.87507430365255" lon="12.084721669530822"><ele>-2.0</ele><time>2026-03-22T14:18:06.936Z</time></trkpt><trkpt lat="44.87489065660981" lon="12.084795120719681"><ele>-2.0</ele><time>2026-03-22T14:18:07.934Z</time></trkpt><trkpt lat="44.87470157725944" lon="12.084863543825467"><ele>-2.0</ele><time>2026-03-22T14:18:08.932Z</time></trkpt><trkpt lat="44.8745141097094" lon="12.084945720631607"><ele>-2.0</ele><time>2026-03-22T14:18:09.93Z</time></trkpt><trkpt lat="44.87431320262565" lon="12.085031842821111"><ele>-2.0</ele><time>2026-03-22T14:18:10.928Z</time></trkpt><trkpt lat="44.87410907926869" lon="12.085112420820545"><ele>-2.0</ele><time>2026-03-22T14:18:11.926Z</time></trkpt><trkpt lat="44.87390281340431" lon="12.085200275892266"><ele>-2.0</ele><time>2026-03-22T14:18:12.925Z</time></trkpt><trkpt lat="44.87369539349798" lon="12.085280917335874"><ele>-2.0</ele><time>2026-03-22T14:18:13.923Z</time></trkpt><trkpt lat="44.87349159833434" lon="12.085359010543792"><ele>-2.0</ele><time>2026-03-22T14:18:14.922Z</time></trkpt><trkpt lat="44.8732890169694" lon="12.085437687933517"><ele>-2.0</ele><time>2026-03-22T14:18:15.92Z</time></trkpt><trkpt lat="44.873085441825424" lon="12.085510167088067"><ele>-2.0</ele><time>2026-03-22T14:18:16.919Z</time></trkpt><trkpt lat="44.872875212608555" lon="12.085575756658333"><ele>-2.0</ele><time>2026-03-22T14:18:17.918Z</time></trkpt><trkpt lat="44.872658827966326" lon="12.085625863495995"><ele>-2.0</ele><time>2026-03-22T14:18:18.917Z</time></trkpt><trkpt lat="44.872435300130526" lon="12.085659303060355"><ele>-2.333333333333333</ele><time>2026-03-22T14:18:19.916Z</time></trkpt><trkpt lat="44.87222003421641" lon="12.085682761034683"><ele>-2.6666666666666665</ele><time>2026-03-22T14:18:20.915Z</time></trkpt><trkpt lat="44.87200799074027" lon="12.08569703493871"><ele>-3.0</ele><time>2026-03-22T14:18:21.914Z</time></trkpt><trkpt lat="44.87179962103772" lon="12.0856931376328"><ele>-2.6666666666666665</ele><time>2026-03-22T14:18:22.913Z</time></trkpt><trkpt lat="44.87159265499609" lon="12.08567907778347"><ele>-2.333333333333333</ele><time>2026-03-22T14:18:23.912Z</time></trkpt><trkpt lat="44.87137849913338" lon="12.085648815025097"><ele>-2.0</ele><time>2026-03-22T14:18:24.911Z</time></trkpt><trkpt lat="44.87116809039509" lon="12.085605359041566"><ele>-2.0</ele><time>2026-03-22T14:18:25.91Z</time></trkpt><trkpt lat="44.8709618987069" lon="12.085550396288617"><ele>-2.0</ele><time>2026-03-22T14:18:26.91Z</time></trkpt><trkpt lat="44.870754666392145" lon="12.085473601513154"><ele>-2.0</ele><time>2026-03-22T14:18:27.909Z</time></trkpt><trkpt lat="44.870553281700595" lon="12.08537776602192"><ele>-1.6666666666666665</ele><time>2026-03-22T14:18:28.909Z</time></trkpt><trkpt lat="44.87034964701297" lon="12.085276741268759"><ele>-1.3333333333333333</ele><time>2026-03-22T14:18:29.908Z</time></trkpt><trkpt lat="44.870151233724734" lon="12.08517170033243"><ele>-1.0</ele><time>2026-03-22T14:18:30.907Z</time></trkpt><trkpt lat="44.869953866253375" lon="12.085063753656458"><ele>-0.6666666666666666</ele><time>2026-03-22T14:18:31.907Z</time></trkpt><trkpt lat="44.86974969740282" lon="12.084959709777713"><ele>-0.3333333333333333</ele><time>2026-03-22T14:18:32.906Z</time></trkpt><trkpt lat="44.86953937285834" lon="12.084851490706365"><ele>0.0</ele><time>2026-03-22T14:18:33.906Z</time></trkpt><trkpt lat="44.869323225354975" lon="12.084728852386606"><ele>-0.5</ele><time>2026-03-22T14:18:34.906Z</time></trkpt><trkpt lat="44.869107911102006" lon="12.084610972962503"><ele>-1.0</ele><time>2026-03-22T14:18:35.905Z</time></trkpt><trkpt lat="44.86889782840055" lon="12.084489552796324"><ele>-1.0</ele><time>2026-03-22T14:18:36.905Z</time></trkpt><trkpt lat="44.868698008023124" lon="12.084381760307776"><ele>-1.0</ele><time>2026-03-22T14:18:37.904Z</time></trkpt><trkpt lat="44.86850352599659" lon="12.084274361300423"><ele>-1.0</ele><time>2026-03-22T14:18:38.904Z</time></trkpt><trkpt lat="44.86831025264808" lon="12.084167505974323"><ele>-2.0</ele><time>2026-03-22T14:18:39.904Z</time></trkpt><trkpt lat="44.86811531617921" lon="12.084055373889363"><ele>-3.0</ele><time>2026-03-22T14:18:40.903Z</time></trkpt><trkpt lat="44.86791765443475" lon="12.083947008612999"><ele>-4.0</ele><time>2026-03-22T14:18:41.903Z</time></trkpt><trkpt lat="44.86771519745529" lon="12.083831728720162"><ele>-3.6666666666666665</ele><time>2026-03-22T14:18:42.903Z</time></trkpt><trkpt lat="44.867513936456625" lon="12.083718302811146"><ele>-3.333333333333333</ele><time>2026-03-22T14:18:43.903Z</time></trkpt><trkpt lat="44.86731202740137" lon="12.083605336775237"><ele>-3.0</ele><time>2026-03-22T14:18:44.902Z</time></trkpt><trkpt lat="44.86709966213583" lon="12.083522041663938"><ele>-3.0</ele><time>2026-03-22T14:18:45.902Z</time></trkpt><trkpt lat="44.86688241884596" lon="12.083455162847024"><ele>-3.0</ele><time>2026-03-22T14:18:46.902Z</time></trkpt><trkpt lat="44.86665970420595" lon="12.083400666704623"><ele>-3.0</ele><time>2026-03-22T14:18:47.902Z</time></trkpt><trkpt lat="44.866432678395974" lon="12.083368055753725"><ele>-2.6666666666666665</ele><time>2026-03-22T14:18:48.902Z</time></trkpt><trkpt lat="44.86621274282887" lon="12.083329010593584"><ele>-2.333333333333333</ele><time>2026-03-22T14:18:49.901Z</time></trkpt><trkpt lat="44.8659920677712" lon="12.083290685901837"><ele>-2.0</ele><time>2026-03-22T14:18:50.901Z</time></trkpt><trkpt lat="44.86576714416419" lon="12.083255748212043"><ele>-2.0</ele><time>2026-03-22T14:18:51.901Z</time></trkpt><trkpt lat="44.865555109396944" lon="12.083216195935988"><ele>-2.0</ele><time>2026-03-22T14:18:52.901Z</time></trkpt><trkpt lat="44.86536238890826" lon="12.083125419195836"><ele>-2.0</ele><time>2026-03-22T14:18:53.901Z</time></trkpt><trkpt lat="44.86516740675257" lon="12.083091594687103"><ele>-1.3333333333333333</ele><time>2026-03-22T14:18:54.902Z</time></trkpt><trkpt lat="44.86497099276227" lon="12.083058110867007"><ele>-0.6666666666666666</ele><time>2026-03-22T14:18:55.902Z</time></trkpt><trkpt lat="44.864770082138634" lon="12.08302475986234"><ele>0.0</ele><time>2026-03-22T14:18:56.902Z</time></trkpt><trkpt lat="44.86456089312621" lon="12.08299628115042"><ele>0.0</ele><time>2026-03-22T14:18:57.902Z</time></trkpt><trkpt lat="44.86435397394256" lon="12.082999093197898"><ele>0.0</ele><time>2026-03-22T14:18:58.901Z</time></trkpt><trkpt lat="44.864151656376904" lon="12.08303387009271"><ele>0.0</ele><time>2026-03-22T14:18:59.901Z</time></trkpt><trkpt lat="44.86394596558718" lon="12.083097124239739"><ele>0.0</ele><time>2026-03-22T14:19:00.902Z</time></trkpt><trkpt lat="44.863721780715046" lon="12.083192531088164"><ele>0.0</ele><time>2026-03-22T14:19:01.901Z</time></trkpt><trkpt lat="44.86348118579961" lon="12.083325980612724"><ele>-0.5</ele><time>2026-03-22T14:19:02.901Z</time></trkpt><trkpt lat="44.863215776844584" lon="12.083469927556733"><ele>-1.0</ele><time>2026-03-22T14:19:03.902Z</time></trkpt><trkpt lat="44.86293394620578" lon="12.083620639952615"><ele>-1.0</ele><time>2026-03-22T14:19:04.902Z</time></trkpt><trkpt lat="44.862647118666935" lon="12.083773731304404"><ele>-1.0</ele><time>2026-03-22T14:19:05.901Z</time></trkpt><trkpt lat="44.86235468206951" lon="12.083929816454908"><ele>-0.5</ele><time>2026-03-22T14:19:06.901Z</time></trkpt><trkpt lat="44.8620639053155" lon="12.084085015658642"><ele>0.0</ele><time>2026-03-22T14:19:07.901Z</time></trkpt><trkpt lat="44.86177681022832" lon="12.084239660024213"><ele>0.0</ele><time>2026-03-22T14:19:08.901Z</time></trkpt><trkpt lat="44.86149669888117" lon="12.084391428422665"><ele>0.0</ele><time>2026-03-22T14:19:09.901Z</time></trkpt><trkpt lat="44.86123288483472" lon="12.084534368643729"><ele>0.0</ele><time>2026-03-22T14:19:10.901Z</time></trkpt><trkpt lat="44.86098246288997" lon="12.084667287261432"><ele>0.0</ele><time>2026-03-22T14:19:11.901Z</time></trkpt><trkpt lat="44.86073517425892" lon="12.08478193084751"><ele>-1.0</ele><time>2026-03-22T14:19:12.901Z</time></trkpt><trkpt lat="44.86049808629273" lon="12.084873080052173"><ele>-2.0</ele><time>2026-03-22T14:19:13.901Z</time></trkpt><trkpt lat="44.86027191162609" lon="12.084943153466114"><ele>-1.6666666666666665</ele><time>2026-03-22T14:19:14.901Z</time></trkpt><trkpt lat="44.860062666419736" lon="12.085005328440468"><ele>-1.3333333333333333</ele><time>2026-03-22T14:19:15.9Z</time></trkpt><trkpt lat="44.85987676238151" lon="12.085060216792344"><ele>-1.0</ele><time>2026-03-22T14:19:16.9Z</time></trkpt><trkpt lat="44.85970587973728" lon="12.08511030651005"><ele>-1.0</ele><time>2026-03-22T14:19:17.9Z</time></trkpt><trkpt lat="44.85955561671789" lon="12.085153583316474"><ele>-1.0</ele><time>2026-03-22T14:19:18.9Z</time></trkpt><trkpt lat="44.85941038882525" lon="12.085194447127785"><ele>-1.0</ele><time>2026-03-22T14:19:19.9Z</time></trkpt><trkpt lat="44.859252493553676" lon="12.085238875218261"><ele>-1.3333333333333333</ele><time>2026-03-22T14:19:20.9Z</time></trkpt><trkpt lat="44.85908619124681" lon="12.085285929452215"><ele>-1.6666666666666665</ele><time>2026-03-22T14:19:21.9Z</time></trkpt><trkpt lat="44.858895635254854" lon="12.085339777997195"><ele>-2.0</ele><time>2026-03-22T14:19:22.9Z</time></trkpt><trkpt lat="44.85867499830694" lon="12.08542350686751"><ele>-2.5</ele><time>2026-03-22T14:19:23.9Z</time></trkpt><trkpt lat="44.858450443871085" lon="12.085463809033957"><ele>-3.0</ele><time>2026-03-22T14:19:24.9Z</time></trkpt><trkpt lat="44.85821256848128" lon="12.085539023307845"><ele>-3.0</ele><time>2026-03-22T14:19:25.9Z</time></trkpt><trkpt lat="44.85796881388803" lon="12.085630070775219"><ele>-3.0</ele><time>2026-03-22T14:19:26.9Z</time></trkpt><trkpt lat="44.85772577674104" lon="12.085745201301975"><ele>-2.0</ele><time>2026-03-22T14:19:27.9Z</time></trkpt><trkpt lat="44.8574823078293" lon="12.085877652882303"><ele>-1.0</ele><time>2026-03-22T14:19:28.9Z</time></trkpt><trkpt lat="44.85723473422977" lon="12.086002783614813"><ele>-1.0</ele><time>2026-03-22T14:19:29.9Z</time></trkpt><trkpt lat="44.856982863987874" lon="12.086107816979588"><ele>-1.0</ele><time>2026-03-22T14:19:30.9Z</time></trkpt><trkpt lat="44.856741089763396" lon="12.086260862033388"><ele>-1.0</ele><time>2026-03-22T14:19:31.9Z</time></trkpt><trkpt lat="44.856516446838405" lon="12.086434231212774"><ele>-1.0</ele><time>2026-03-22T14:19:32.9Z</time></trkpt><trkpt lat="44.85631710555584" lon="12.086638852497115"><ele>-1.0</ele><time>2026-03-22T14:19:33.9Z</time></trkpt><trkpt lat="44.85612559093449" lon="12.086857183917004"><ele>-1.0</ele><time>2026-03-22T14:19:34.9Z</time></trkpt><trkpt lat="44.855934035944244" lon="12.087090148866972"><ele>-1.0</ele><time>2026-03-22T14:19:35.9Z</time></trkpt><trkpt lat="44.85575118371753" lon="12.08733599753643"><ele>-1.0</ele><time>2026-03-22T14:19:36.899Z</time></trkpt><trkpt lat="44.8555755389029" lon="12.087574383490098"><ele>-1.0</ele><time>2026-03-22T14:19:37.899Z</time></trkpt><trkpt lat="44.85540556687156" lon="12.087808670982987"><ele>-1.0</ele><time>2026-03-22T14:19:38.899Z</time></trkpt><trkpt lat="44.855234535760594" lon="12.088047574762975"><ele>-1.0</ele><time>2026-03-22T14:19:39.899Z</time></trkpt><trkpt lat="44.85510983756622" lon="12.088349590378202"><ele>-1.0</ele><time>2026-03-22T14:19:40.899Z</time></trkpt><trkpt lat="44.85497264587929" lon="12.088633564391243"><ele>-1.0</ele><time>2026-03-22T14:19:41.899Z</time></trkpt><trkpt lat="44.85485207373046" lon="12.088933165431992"><ele>-1.0</ele><time>2026-03-22T14:19:42.899Z</time></trkpt><trkpt lat="44.854745422679535" lon="12.089257910135391"><ele>-1.5</ele><time>2026-03-22T14:19:43.899Z</time></trkpt><trkpt lat="44.85464396519283" lon="12.08959897775612"><ele>-2.0</ele><time>2026-03-22T14:19:44.899Z</time></trkpt><trkpt lat="44.854539347044984" lon="12.089949313790106"><ele>-1.0</ele><time>2026-03-22T14:19:45.899Z</time></trkpt><trkpt lat="44.854431310614814" lon="12.090307854301692"><ele>0.0</ele><time>2026-03-22T14:19:46.899Z</time></trkpt><trkpt lat="44.85431552975869" lon="12.090664263042388"><ele>-0.5</ele><time>2026-03-22T14:19:47.899Z</time></trkpt><trkpt lat="44.85419202137742" lon="12.091015848388647"><ele>-1.0</ele><time>2026-03-22T14:19:48.899Z</time></trkpt><trkpt lat="44.854054984437674" lon="12.091358460109676"><ele>-2.0</ele><time>2026-03-22T14:19:49.899Z</time></trkpt><trkpt lat="44.853926469442314" lon="12.091699701596257"><ele>-3.0</ele><time>2026-03-22T14:19:50.899Z</time></trkpt><trkpt lat="44.85380157625992" lon="12.092032260438888"><ele>-3.0</ele><time>2026-03-22T14:19:51.899Z</time></trkpt><trkpt lat="44.853661755755724" lon="12.092352504925344"><ele>-3.0</ele><time>2026-03-22T14:19:52.899Z</time></trkpt><trkpt lat="44.85351620613248" lon="12.0926581993945"><ele>-2.5</ele><time>2026-03-22T14:19:53.899Z</time></trkpt><trkpt lat="44.853355928398756" lon="12.092952686141833"><ele>-2.0</ele><time>2026-03-22T14:19:54.899Z</time></trkpt><trkpt lat="44.85318145624867" lon="12.093228303315737"><ele>-2.0</ele><time>2026-03-22T14:19:55.899Z</time></trkpt><trkpt lat="44.85300466200171" lon="12.093499580062232"><ele>-2.0</ele><time>2026-03-22T14:19:56.899Z</time></trkpt><trkpt lat="44.852829134741405" lon="12.093772105295212"><ele>-2.0</ele><time>2026-03-22T14:19:57.899Z</time></trkpt><trkpt lat="44.85264749784043" lon="12.094041853704846"><ele>-2.0</ele><time>2026-03-22T14:19:58.899Z</time></trkpt><trkpt lat="44.85246398172258" lon="12.094312394714875"><ele>-1.5</ele><time>2026-03-22T14:19:59.899Z</time></trkpt><trkpt lat="44.85227986854343" lon="12.0945805880076"><ele>-1.0</ele><time>2026-03-22T14:20:00.899Z</time></trkpt><trkpt lat="44.85209505419601" lon="12.094854039135889"><ele>-1.0</ele><time>2026-03-22T14:20:01.899Z</time></trkpt><trkpt lat="44.85190607673609" lon="12.095118312396469"><ele>-1.0</ele><time>2026-03-22T14:20:02.899Z</time></trkpt><trkpt lat="44.85172862624242" lon="12.095376880238941"><ele>-1.0</ele><time>2026-03-22T14:20:03.899Z</time></trkpt><trkpt lat="44.85155760433019" lon="12.095627989832298"><ele>-1.0</ele><time>2026-03-22T14:20:04.899Z</time></trkpt><trkpt lat="44.85139153691175" lon="12.095857996649908"><ele>-1.0</ele><time>2026-03-22T14:20:05.899Z</time></trkpt><trkpt lat="44.85121989911176" lon="12.096079003871417"><ele>-1.0</ele><time>2026-03-22T14:20:06.898Z</time></trkpt><trkpt lat="44.85103180366499" lon="12.096282368257995"><ele>-0.5</ele><time>2026-03-22T14:20:07.898Z</time></trkpt><trkpt lat="44.85083100475309" lon="12.096476948153292"><ele>0.0</ele><time>2026-03-22T14:20:08.898Z</time></trkpt><trkpt lat="44.85061589670551" lon="12.096655467438604"><ele>0.0</ele><time>2026-03-22T14:20:09.898Z</time></trkpt><trkpt lat="44.85039188334678" lon="12.096829255563028"><ele>0.0</ele><time>2026-03-22T14:20:10.898Z</time></trkpt><trkpt lat="44.850163306366404" lon="12.096996892120844"><ele>0.0</ele><time>2026-03-22T14:20:11.898Z</time></trkpt><trkpt lat="44.849939488983516" lon="12.097167985420072"><ele>0.0</ele><time>2026-03-22T14:20:12.898Z</time></trkpt><trkpt lat="44.849718038058576" lon="12.097335518348435"><ele>-0.5</ele><time>2026-03-22T14:20:13.898Z</time></trkpt><trkpt lat="44.84949767257495" lon="12.0975064685261"><ele>-1.0</ele><time>2026-03-22T14:20:14.898Z</time></trkpt><trkpt lat="44.84927792808317" lon="12.097676179316531"><ele>-1.0</ele><time>2026-03-22T14:20:15.898Z</time></trkpt><trkpt lat="44.84906659064411" lon="12.097857298075398"><ele>-1.0</ele><time>2026-03-22T14:20:16.898Z</time></trkpt><trkpt lat="44.84886107570237" lon="12.098051911265383"><ele>-1.0</ele><time>2026-03-22T14:20:17.898Z</time></trkpt><trkpt lat="44.84865730009043" lon="12.098250716237366"><ele>-1.0</ele><time>2026-03-22T14:20:18.898Z</time></trkpt><trkpt lat="44.84846062207973" lon="12.098462548029834"><ele>-1.0</ele><time>2026-03-22T14:20:19.898Z</time></trkpt><trkpt lat="44.84827310602289" lon="12.098697988424135"><ele>-1.0</ele><time>2026-03-22T14:20:20.898Z</time></trkpt><trkpt lat="44.848097787633336" lon="12.09894219579471"><ele>-1.0</ele><time>2026-03-22T14:20:21.898Z</time></trkpt><trkpt lat="44.84793692164761" lon="12.099189479418454"><ele>-1.0</ele><time>2026-03-22T14:20:22.898Z</time></trkpt><trkpt lat="44.84779137493052" lon="12.099443127045658"><ele>-1.0</ele><time>2026-03-22T14:20:23.898Z</time></trkpt><trkpt lat="44.84765449651388" lon="12.099693089707866"><ele>-1.0</ele><time>2026-03-22T14:20:24.898Z</time></trkpt><trkpt lat="44.8475384010284" lon="12.099947500237464"><ele>-1.0</ele><time>2026-03-22T14:20:25.898Z</time></trkpt><trkpt lat="44.84743192778547" lon="12.100201302986118"><ele>-1.0</ele><time>2026-03-22T14:20:26.898Z</time></trkpt><trkpt lat="44.84734885297108" lon="12.100461553920193"><ele>-1.0</ele><time>2026-03-22T14:20:27.898Z</time></trkpt><trkpt lat="44.847289508523886" lon="12.100717854314029"><ele>-1.0</ele><time>2026-03-22T14:20:28.898Z</time></trkpt><trkpt lat="44.84726670850866" lon="12.100977134590448"><ele>-1.3333333333333333</ele><time>2026-03-22T14:20:29.898Z</time></trkpt><trkpt lat="44.84727163717314" lon="12.10123993948949"><ele>-1.6666666666666665</ele><time>2026-03-22T14:20:30.898Z</time></trkpt><trkpt lat="44.84730154498442" lon="12.101520624806756"><ele>-2.0</ele><time>2026-03-22T14:20:31.898Z</time></trkpt><trkpt lat="44.84734959668267" lon="12.101810603408216"><ele>-2.0</ele><time>2026-03-22T14:20:32.898Z</time></trkpt><trkpt lat="44.847416129532036" lon="12.102109977350375"><ele>-2.0</ele><time>2026-03-22T14:20:33.898Z</time></trkpt><trkpt lat="44.84749953072145" lon="12.10240061840615"><ele>-2.0</ele><time>2026-03-22T14:20:34.898Z</time></trkpt><trkpt lat="44.84760007304026" lon="12.102694279551844"><ele>-2.0</ele><time>2026-03-22T14:20:35.898Z</time></trkpt><trkpt lat="44.847701539390464" lon="12.102987879078265"><ele>-2.0</ele><time>2026-03-22T14:20:36.898Z</time></trkpt><trkpt lat="44.847803930773104" lon="12.103291983775899"><ele>-1.5</ele><time>2026-03-22T14:20:37.898Z</time></trkpt><trkpt lat="44.847916216643306" lon="12.103593660023892"><ele>-1.0</ele><time>2026-03-22T14:20:38.898Z</time></trkpt><trkpt lat="44.84803604985934" lon="12.103895601979533"><ele>-2.0</ele><time>2026-03-22T14:20:39.897Z</time></trkpt><trkpt lat="44.84815731760863" lon="12.104201964369235"><ele>-3.0</ele><time>2026-03-22T14:20:40.897Z</time></trkpt><trkpt lat="44.84826422235914" lon="12.10450568672181"><ele>-3.0</ele><time>2026-03-22T14:20:41.897Z</time></trkpt><trkpt lat="44.84835601776921" lon="12.10480179787278"><ele>-3.0</ele><time>2026-03-22T14:20:42.897Z</time></trkpt><trkpt lat="44.84843295645233" lon="12.105095012945993"><ele>-3.0</ele><time>2026-03-22T14:20:43.897Z</time></trkpt><trkpt lat="44.848490823898324" lon="12.105387832740409"><ele>-3.0</ele><time>2026-03-22T14:20:44.897Z</time></trkpt><trkpt lat="44.84845094888973" lon="12.105713035060909"><ele>-3.0</ele><time>2026-03-22T14:20:45.897Z</time></trkpt><trkpt lat="44.84846430610649" lon="12.106020861983211"><ele>-3.0</ele><time>2026-03-22T14:20:46.897Z</time></trkpt><trkpt lat="44.8484650388105" lon="12.106332175468822"><ele>-3.0</ele><time>2026-03-22T14:20:47.897Z</time></trkpt><trkpt lat="44.848460735070496" lon="12.106629000781052"><ele>-3.0</ele><time>2026-03-22T14:20:48.897Z</time></trkpt><trkpt lat="44.84844878834517" lon="12.10687713538808"><ele>-2.3333333333333335</ele><time>2026-03-22T14:20:49.897Z</time></trkpt><trkpt lat="44.84844115594205" lon="12.107095020967916"><ele>-1.6666666666666665</ele><time>2026-03-22T14:20:50.897Z</time></trkpt><trkpt lat="44.848358072490136" lon="12.1072737068126"><ele>-1.0</ele><time>2026-03-22T14:20:51.897Z</time></trkpt><trkpt lat="44.848263498127125" lon="12.107443645622144"><ele>-0.6666666666666666</ele><time>2026-03-22T14:20:52.897Z</time></trkpt><trkpt lat="44.84814564513184" lon="12.107617051490449"><ele>-0.3333333333333333</ele><time>2026-03-22T14:20:53.897Z</time></trkpt><trkpt lat="44.848007506509255" lon="12.107797801614781"><ele>0.0</ele><time>2026-03-22T14:20:54.897Z</time></trkpt><trkpt lat="44.84786312799773" lon="12.107971654675653"><ele>0.0</ele><time>2026-03-22T14:20:55.897Z</time></trkpt><trkpt lat="44.847710642381195" lon="12.108143201903918"><ele>0.0</ele><time>2026-03-22T14:20:56.897Z</time></trkpt><trkpt lat="44.84754239455454" lon="12.108309344303605"><ele>0.0</ele><time>2026-03-22T14:20:57.897Z</time></trkpt><trkpt lat="44.8473700278251" lon="12.108459411377094"><ele>0.0</ele><time>2026-03-22T14:20:58.897Z</time></trkpt><trkpt lat="44.84719024510652" lon="12.108591163158392"><ele>0.0</ele><time>2026-03-22T14:20:59.897Z</time></trkpt><trkpt lat="44.84701675562859" lon="12.108721464669621"><ele>0.0</ele><time>2026-03-22T14:21:00.899Z</time></trkpt><trkpt lat="44.84683775083507" lon="12.108810255102275"><ele>0.3333333333333333</ele><time>2026-03-22T14:21:01.898Z</time></trkpt><trkpt lat="44.84666419996265" lon="12.108878751938416"><ele>0.6666666666666666</ele><time>2026-03-22T14:21:02.898Z</time></trkpt><trkpt lat="44.8465052302605" lon="12.108915947969555"><ele>1.0</ele><time>2026-03-22T14:21:03.898Z</time></trkpt><trkpt lat="44.846346683662254" lon="12.108951810599713"><ele>1.0</ele><time>2026-03-22T14:21:04.898Z</time></trkpt><trkpt lat="44.846185058066034" lon="12.108981331881951"><ele>1.0</ele><time>2026-03-22T14:21:05.898Z</time></trkpt><trkpt lat="44.846002736489396" lon="12.10900353241932"><ele>1.0</ele><time>2026-03-22T14:21:06.898Z</time></trkpt><trkpt lat="44.845793686515634" lon="12.108985122494776"><ele>0.3333333333333333</ele><time>2026-03-22T14:21:07.898Z</time></trkpt><trkpt lat="44.84557826368802" lon="12.1089656184263"><ele>-0.3333333333333333</ele><time>2026-03-22T14:21:08.898Z</time></trkpt><trkpt lat="44.84535204494552" lon="12.108920387369151"><ele>-1.0</ele><time>2026-03-22T14:21:09.898Z</time></trkpt><trkpt lat="44.84512683783229" lon="12.108855666600098"><ele>-1.0</ele><time>2026-03-22T14:21:10.898Z</time></trkpt><trkpt lat="44.84489359446767" lon="12.10877385917878"><ele>-1.0</ele><time>2026-03-22T14:21:11.898Z</time></trkpt><trkpt lat="44.84465764084515" lon="12.108679830824189"><ele>-1.0</ele><time>2026-03-22T14:21:12.898Z</time></trkpt><trkpt lat="44.84442154122905" lon="12.108581951253068"><ele>-1.0</ele><time>2026-03-22T14:21:13.898Z</time></trkpt><trkpt lat="44.844194792980424" lon="12.108486657610452"><ele>-1.3333333333333333</ele><time>2026-03-22T14:21:14.898Z</time></trkpt><trkpt lat="44.8439840017505" lon="12.108397689244553"><ele>-1.6666666666666665</ele><time>2026-03-22T14:21:15.898Z</time></trkpt><trkpt lat="44.84378530981893" lon="12.108304435986758"><ele>-2.0</ele><time>2026-03-22T14:21:16.898Z</time></trkpt><trkpt lat="44.843597516696505" lon="12.108215073330152"><ele>-1.3333333333333333</ele><time>2026-03-22T14:21:17.898Z</time></trkpt><trkpt lat="44.843418710850095" lon="12.10813189414324"><ele>-0.6666666666666666</ele><time>2026-03-22T14:21:18.898Z</time></trkpt><trkpt lat="44.84324171773761" lon="12.108051919839902"><ele>0.0</ele><time>2026-03-22T14:21:19.898Z</time></trkpt><trkpt lat="44.84305750358063" lon="12.107982122539529"><ele>0.0</ele><time>2026-03-22T14:21:20.898Z</time></trkpt><trkpt lat="44.8428682599468" lon="12.107925978585063"><ele>0.0</ele><time>2026-03-22T14:21:21.898Z</time></trkpt><trkpt lat="44.842678108588814" lon="12.10787573105275"><ele>0.0</ele><time>2026-03-22T14:21:22.898Z</time></trkpt><trkpt lat="44.842492979927975" lon="12.107828352710367"><ele>0.3333333333333333</ele><time>2026-03-22T14:21:23.898Z</time></trkpt><trkpt lat="44.84230209461833" lon="12.10778083763758"><ele>0.6666666666666666</ele><time>2026-03-22T14:21:24.898Z</time></trkpt><trkpt lat="44.84212014595883" lon="12.107739655012931"><ele>1.0</ele><time>2026-03-22T14:21:25.898Z</time></trkpt><trkpt lat="44.84193381575759" lon="12.10769801598911"><ele>0.6666666666666666</ele><time>2026-03-22T14:21:26.898Z</time></trkpt><trkpt lat="44.84175446286662" lon="12.107665976503922"><ele>0.3333333333333333</ele><time>2026-03-22T14:21:27.898Z</time></trkpt><trkpt lat="44.84158294450039" lon="12.1076429589376"><ele>0.0</ele><time>2026-03-22T14:21:28.898Z</time></trkpt><trkpt lat="44.84140867893018" lon="12.107624419073128"><ele>0.0</ele><time>2026-03-22T14:21:29.898Z</time></trkpt><trkpt lat="44.84122780856432" lon="12.107606902524466"><ele>0.0</ele><time>2026-03-22T14:21:30.898Z</time></trkpt><trkpt lat="44.841045680330105" lon="12.107619131950724"><ele>0.0</ele><time>2026-03-22T14:21:31.898Z</time></trkpt><trkpt lat="44.84086264197788" lon="12.10760848620706"><ele>0.0</ele><time>2026-03-22T14:21:32.898Z</time></trkpt><trkpt lat="44.84067758507906" lon="12.107603091551315"><ele>0.0</ele><time>2026-03-22T14:21:33.898Z</time></trkpt><trkpt lat="44.840492535398035" lon="12.107602863550676"><ele>0.0</ele><time>2026-03-22T14:21:34.898Z</time></trkpt><trkpt lat="44.84031165914171" lon="12.107601662031819"><ele>0.0</ele><time>2026-03-22T14:21:35.898Z</time></trkpt><trkpt lat="44.84013525168604" lon="12.1075992188551"><ele>0.0</ele><time>2026-03-22T14:21:36.898Z</time></trkpt><trkpt lat="44.839957763446776" lon="12.107598630250449"><ele>0.0</ele><time>2026-03-22T14:21:37.898Z</time></trkpt><trkpt lat="44.83978343339883" lon="12.10757612132809"><ele>0.0</ele><time>2026-03-22T14:21:38.898Z</time></trkpt><trkpt lat="44.839615282988106" lon="12.107592205061543"><ele>0.0</ele><time>2026-03-22T14:21:39.898Z</time></trkpt><trkpt lat="44.83944299060887" lon="12.1075870878801"><ele>0.0</ele><time>2026-03-22T14:21:40.898Z</time></trkpt><trkpt lat="44.83927420113732" lon="12.107585507567483"><ele>0.0</ele><time>2026-03-22T14:21:41.898Z</time></trkpt><trkpt lat="44.83910387732655" lon="12.107563567291916"><ele>0.0</ele><time>2026-03-22T14:21:42.898Z</time></trkpt><trkpt lat="44.83893911089694" lon="12.107579894510405"><ele>0.0</ele><time>2026-03-22T14:21:43.898Z</time></trkpt><trkpt lat="44.83877772776859" lon="12.10755532504462"><ele>0.0</ele><time>2026-03-22T14:21:44.897Z</time></trkpt><trkpt lat="44.83861507086235" lon="12.107519322297255"><ele>0.0</ele><time>2026-03-22T14:21:45.897Z</time></trkpt><trkpt lat="44.838447853639074" lon="12.10747499818053"><ele>0.0</ele><time>2026-03-22T14:21:46.897Z</time></trkpt><trkpt lat="44.83828071980424" lon="12.107427709925942"><ele>0.0</ele><time>2026-03-22T14:21:47.897Z</time></trkpt><trkpt lat="44.83811419865397" lon="12.107375996530669"><ele>0.0</ele><time>2026-03-22T14:21:48.897Z</time></trkpt><trkpt lat="44.83794378153728" lon="12.10734473769785"><ele>0.0</ele><time>2026-03-22T14:21:49.897Z</time></trkpt><trkpt lat="44.837773832659465" lon="12.107299021176376"><ele>0.0</ele><time>2026-03-22T14:21:50.897Z</time></trkpt><trkpt lat="44.837603242918235" lon="12.107288669505978"><ele>0.0</ele><time>2026-03-22T14:21:51.897Z</time></trkpt><trkpt lat="44.83744280052746" lon="12.107308497923393"><ele>0.0</ele><time>2026-03-22T14:21:52.897Z</time></trkpt><trkpt lat="44.837286288181296" lon="12.107288507927294"><ele>0.0</ele><time>2026-03-22T14:21:53.897Z</time></trkpt><trkpt lat="44.83714215450583" lon="12.107305639970118"><ele>0.0</ele><time>2026-03-22T14:21:54.897Z</time></trkpt><trkpt lat="44.83699849243551" lon="12.107301718804917"><ele>0.0</ele><time>2026-03-22T14:21:55.897Z</time></trkpt><trkpt lat="44.83686076146036" lon="12.107302122797902"><ele>0.0</ele><time>2026-03-22T14:21:56.897Z</time></trkpt><trkpt lat="44.83673021035331" lon="12.107299091813237"><ele>0.0</ele><time>2026-03-22T14:21:57.897Z</time></trkpt><trkpt lat="44.836589397542866" lon="12.107300314929244"><ele>0.0</ele><time>2026-03-22T14:21:58.897Z</time></trkpt><trkpt lat="44.836446297890966" lon="12.107302222247156"><ele>0.0</ele><time>2026-03-22T14:21:59.897Z</time></trkpt><trkpt lat="44.83629768206016" lon="12.107311832883603"><ele>0.0</ele><time>2026-03-22T14:22:00.897Z</time></trkpt><trkpt lat="44.83615105123252" lon="12.107310295687943"><ele>0.0</ele><time>2026-03-22T14:22:01.897Z</time></trkpt><trkpt lat="44.83601074440912" lon="12.10729852395887"><ele>0.0</ele><time>2026-03-22T14:22:02.897Z</time></trkpt><trkpt lat="44.83587910301384" lon="12.107274090353295"><ele>0.0</ele><time>2026-03-22T14:22:03.897Z</time></trkpt><trkpt lat="44.83575143594222" lon="12.107252018225786"><ele>0.0</ele><time>2026-03-22T14:22:04.897Z</time></trkpt><trkpt lat="44.8356273925387" lon="12.107233190623942"><ele>-0.25</ele><time>2026-03-22T14:22:05.897Z</time></trkpt><trkpt lat="44.83551002479807" lon="12.107206845643251"><ele>-0.5</ele><time>2026-03-22T14:22:06.897Z</time></trkpt><trkpt lat="44.835397356934735" lon="12.107156724183966"><ele>-0.75</ele><time>2026-03-22T14:22:07.897Z</time></trkpt><trkpt lat="44.83528141539134" lon="12.107127251332429"><ele>-1.0</ele><time>2026-03-22T14:22:08.897Z</time></trkpt><trkpt lat="44.83516394350088" lon="12.107097562160295"><ele>-0.75</ele><time>2026-03-22T14:22:09.897Z</time></trkpt><trkpt lat="44.83504470731018" lon="12.107069540609075"><ele>-0.5</ele><time>2026-03-22T14:22:10.897Z</time></trkpt><trkpt lat="44.834929406321216" lon="12.107041722937787"><ele>-0.25</ele><time>2026-03-22T14:22:11.897Z</time></trkpt><trkpt lat="44.83482150958849" lon="12.107015102032749"><ele>0.0</ele><time>2026-03-22T14:22:12.897Z</time></trkpt><trkpt lat="44.834717763074174" lon="12.106988128735892"><ele>0.0</ele><time>2026-03-22T14:22:13.897Z</time></trkpt><trkpt lat="44.8346168323693" lon="12.106961889446028"><ele>0.0</ele><time>2026-03-22T14:22:14.897Z</time></trkpt><trkpt lat="44.834532046226045" lon="12.106940480299926"><ele>0.0</ele><time>2026-03-22T14:22:15.897Z</time></trkpt><trkpt lat="44.83445820084574" lon="12.106922091593054"><ele>0.0</ele><time>2026-03-22T14:22:16.897Z</time></trkpt><trkpt lat="44.834378373566715" lon="12.106921473177502"><ele>0.0</ele><time>2026-03-22T14:22:17.896Z</time></trkpt><trkpt lat="44.83431045992726" lon="12.106882714058468"><ele>0.0</ele><time>2026-03-22T14:22:18.896Z</time></trkpt><trkpt lat="44.834238398689145" lon="12.106862934138054"><ele>0.0</ele><time>2026-03-22T14:22:19.896Z</time></trkpt><trkpt lat="44.83415460885098" lon="12.106865378879325"><ele>0.0</ele><time>2026-03-22T14:22:20.896Z</time></trkpt><trkpt lat="44.834076871898645" lon="12.106838643816051"><ele>0.0</ele><time>2026-03-22T14:22:21.896Z</time></trkpt><trkpt lat="44.83401273177757" lon="12.106792785414415"><ele>0.0</ele><time>2026-03-22T14:22:22.896Z</time></trkpt><trkpt lat="44.83392103413722" lon="12.10670377532674"><ele>0.0</ele><time>2026-03-22T14:22:24.896Z</time></trkpt><trkpt lat="44.83392473667584" lon="12.106542839371203"><ele>0.25</ele><time>2026-03-22T14:22:26.896Z</time></trkpt><trkpt lat="44.83397407913285" lon="12.106407737020922"><ele>0.5</ele><time>2026-03-22T14:22:27.896Z</time></trkpt><trkpt lat="44.83403688134496" lon="12.106220537813044"><ele>0.75</ele><time>2026-03-22T14:22:28.896Z</time></trkpt><trkpt lat="44.8341048818331" lon="12.106033025854812"><ele>1.0</ele><time>2026-03-22T14:22:29.896Z</time></trkpt><trkpt lat="44.83417448592005" lon="12.105829968573838"><ele>1.0</ele><time>2026-03-22T14:22:30.896Z</time></trkpt><trkpt lat="44.83424752001287" lon="12.105610688038329"><ele>1.0</ele><time>2026-03-22T14:22:31.896Z</time></trkpt><trkpt lat="44.83432729480331" lon="12.10537898700283"><ele>1.0</ele><time>2026-03-22T14:22:32.896Z</time></trkpt><trkpt lat="44.83440675825603" lon="12.105142336271163"><ele>0.3333333333333333</ele><time>2026-03-22T14:22:33.896Z</time></trkpt><trkpt lat="44.83448611172968" lon="12.104906688705785"><ele>-0.3333333333333333</ele><time>2026-03-22T14:22:34.896Z</time></trkpt><trkpt lat="44.834562033931896" lon="12.104678156217284"><ele>-1.0</ele><time>2026-03-22T14:22:35.896Z</time></trkpt><trkpt lat="44.83463700870161" lon="12.104452538731298"><ele>-1.0</ele><time>2026-03-22T14:22:36.896Z</time></trkpt><trkpt lat="44.834706337966374" lon="12.104241931891012"><ele>-1.0</ele><time>2026-03-22T14:22:37.896Z</time></trkpt><trkpt lat="44.83477335212716" lon="12.104034218750193"><ele>-1.0</ele><time>2026-03-22T14:22:38.896Z</time></trkpt><trkpt lat="44.834836184198835" lon="12.103840647942047"><ele>-1.0</ele><time>2026-03-22T14:22:39.896Z</time></trkpt><trkpt lat="44.83489864629668" lon="12.103666022091033"><ele>-1.0</ele><time>2026-03-22T14:22:40.896Z</time></trkpt><trkpt lat="44.834950118712534" lon="12.103507538109007"><ele>-1.0</ele><time>2026-03-22T14:22:41.896Z</time></trkpt><trkpt lat="44.83499221310998" lon="12.103377115187547"><ele>-1.0</ele><time>2026-03-22T14:22:42.896Z</time></trkpt><trkpt lat="44.835019110261996" lon="12.103296245063603"><ele>-1.0</ele><time>2026-03-22T14:22:43.896Z</time></trkpt><trkpt lat="44.83505441132514" lon="12.10318187814297"><ele>-0.9999999999999999</ele><time>2026-03-22T14:22:45.896Z</time></trkpt><trkpt lat="44.83508039401913" lon="12.1030962781023"><ele>-1.0</ele><time>2026-03-22T14:22:48.896Z</time></trkpt><trkpt lat="44.835053205976166" lon="12.102982429516173"><ele>-1.0</ele><time>2026-03-22T14:23:02.895Z</time></trkpt><trkpt lat="44.835080688679135" lon="12.102894342929323"><ele>-1.0</ele><time>2026-03-22T14:23:04.895Z</time></trkpt><trkpt lat="44.83510440069717" lon="12.102809573070452"><ele>-0.9999999999999999</ele><time>2026-03-22T14:23:05.895Z</time></trkpt><trkpt lat="44.83516495213109" lon="12.102716694124574"><ele>-1.0</ele><time>2026-03-22T14:23:06.896Z</time></trkpt><trkpt lat="44.835186509955406" lon="12.102588137713656"><ele>-1.0</ele><time>2026-03-22T14:23:07.896Z</time></trkpt><trkpt lat="44.83520746997202" lon="12.102439745483963"><ele>-1.0</ele><time>2026-03-22T14:23:08.896Z</time></trkpt><trkpt lat="44.83522986804654" lon="12.102279192969759"><ele>-1.0</ele><time>2026-03-22T14:23:09.896Z</time></trkpt><trkpt lat="44.83525283920698" lon="12.102110596385376"><ele>-1.0</ele><time>2026-03-22T14:23:10.896Z</time></trkpt><trkpt lat="44.835275904772004" lon="12.101936447597808"><ele>-1.5</ele><time>2026-03-22T14:23:11.896Z</time></trkpt><trkpt lat="44.83530059262439" lon="12.101742928407049"><ele>-2.0</ele><time>2026-03-22T14:23:12.896Z</time></trkpt><trkpt lat="44.83532514486619" lon="12.10153837834131"><ele>-2.5</ele><time>2026-03-22T14:23:13.895Z</time></trkpt><trkpt lat="44.83534918519526" lon="12.101333817163137"><ele>-3.0</ele><time>2026-03-22T14:23:14.895Z</time></trkpt><trkpt lat="44.83537161735145" lon="12.10113382374795"><ele>-3.0</ele><time>2026-03-22T14:23:15.896Z</time></trkpt><trkpt lat="44.835395885234796" lon="12.100914664088306"><ele>-3.0</ele><time>2026-03-22T14:23:16.896Z</time></trkpt><trkpt lat="44.83541970746316" lon="12.100699534100649"><ele>-3.0</ele><time>2026-03-22T14:23:17.896Z</time></trkpt><trkpt lat="44.83540797529541" lon="12.100484360393557"><ele>-3.25</ele><time>2026-03-22T14:23:18.895Z</time></trkpt><trkpt lat="44.83542975084637" lon="12.100301874783584"><ele>-3.5</ele><time>2026-03-22T14:23:19.896Z</time></trkpt><trkpt lat="44.83544267095151" lon="12.100136354635271"><ele>-3.75</ele><time>2026-03-22T14:23:20.896Z</time></trkpt><trkpt lat="44.83543001058332" lon="12.099991325956156"><ele>-4.0</ele><time>2026-03-22T14:23:21.896Z</time></trkpt><trkpt lat="44.83541532151365" lon="12.099846480964233"><ele>-4.25</ele><time>2026-03-22T14:23:22.896Z</time></trkpt><trkpt lat="44.835333926434195" lon="12.099759178628073"><ele>-4.5</ele><time>2026-03-22T14:23:23.896Z</time></trkpt><trkpt lat="44.83523434755722" lon="12.099696135439112"><ele>-4.75</ele><time>2026-03-22T14:23:24.896Z</time></trkpt><trkpt lat="44.83511727078154" lon="12.099651058620895"><ele>-5.0</ele><time>2026-03-22T14:23:25.896Z</time></trkpt><trkpt lat="44.834986010477195" lon="12.099626643023912"><ele>-5.0</ele><time>2026-03-22T14:23:26.896Z</time></trkpt><trkpt lat="44.83482606981244" lon="12.09955344127913"><ele>-5.0</ele><time>2026-03-22T14:23:27.896Z</time></trkpt><trkpt lat="44.834658891435126" lon="12.09948157292593"><ele>-5.0</ele><time>2026-03-22T14:23:28.895Z</time></trkpt><trkpt lat="44.83448609779636" lon="12.099398203643224"><ele>-5.0</ele><time>2026-03-22T14:23:29.895Z</time></trkpt><trkpt lat="44.834323839349985" lon="12.099331726312165"><ele>-5.0</ele><time>2026-03-22T14:23:30.895Z</time></trkpt><trkpt lat="44.834158045062665" lon="12.09926634770739"><ele>-5.0</ele><time>2026-03-22T14:23:31.895Z</time></trkpt><trkpt lat="44.83400238082903" lon="12.099212441726966"><ele>-3.75</ele><time>2026-03-22T14:23:32.895Z</time></trkpt><trkpt lat="44.83385620974972" lon="12.099176871068876"><ele>-2.5</ele><time>2026-03-22T14:23:33.895Z</time></trkpt><trkpt lat="44.833716476039676" lon="12.099175853539064"><ele>-1.25</ele><time>2026-03-22T14:23:34.895Z</time></trkpt><trkpt lat="44.83358677999642" lon="12.0991601269273"><ele>0.0</ele><time>2026-03-22T14:23:35.895Z</time></trkpt><trkpt lat="44.83346784841935" lon="12.099138876594603"><ele>0.0</ele><time>2026-03-22T14:23:36.895Z</time></trkpt><trkpt lat="44.83337934304115" lon="12.099120540099198"><ele>0.0</ele><time>2026-03-22T14:23:37.895Z</time></trkpt><trkpt lat="44.83328706857964" lon="12.099118219296617"><ele>0.0</ele><time>2026-03-22T14:23:38.895Z</time></trkpt><trkpt lat="44.83319914241185" lon="12.099111355291805"><ele>0.0</ele><time>2026-03-22T14:23:39.895Z</time></trkpt><trkpt lat="44.833130599734496" lon="12.099098021115225"><ele>0.0</ele><time>2026-03-22T14:23:40.895Z</time></trkpt><trkpt lat="44.83306828471412" lon="12.09905668698396"><ele>0.0</ele><time>2026-03-22T14:23:41.895Z</time></trkpt><trkpt lat="44.83301167332832" lon="12.099009374853374"><ele>0.0</ele><time>2026-03-22T14:23:42.895Z</time></trkpt><trkpt lat="44.832975784359405" lon="12.098923558261918"><ele>0.0</ele><time>2026-03-22T14:23:43.895Z</time></trkpt><trkpt lat="44.833011696363826" lon="12.098786705528855"><ele>0.0</ele><time>2026-03-22T14:23:44.895Z</time></trkpt><trkpt lat="44.83303840557963" lon="12.098626095847452"><ele>0.0</ele><time>2026-03-22T14:23:45.895Z</time></trkpt><trkpt lat="44.833081386318156" lon="12.098424718120192"><ele>0.0</ele><time>2026-03-22T14:23:46.895Z</time></trkpt><trkpt lat="44.833131780207125" lon="12.098215713646546"><ele>0.6666666666666666</ele><time>2026-03-22T14:23:47.895Z</time></trkpt><trkpt lat="44.83318264917357" lon="12.097989721602055"><ele>1.3333333333333333</ele><time>2026-03-22T14:23:48.895Z</time></trkpt><trkpt lat="44.83323077183679" lon="12.097747187060614"><ele>2.0</ele><time>2026-03-22T14:23:49.895Z</time></trkpt><trkpt lat="44.833279008075124" lon="12.097492859270938"><ele>1.3333333333333333</ele><time>2026-03-22T14:23:50.895Z</time></trkpt><trkpt lat="44.833335109950085" lon="12.09723218994193"><ele>0.6666666666666666</ele><time>2026-03-22T14:23:51.895Z</time></trkpt><trkpt lat="44.83339058433744" lon="12.096981889009994"><ele>0.0</ele><time>2026-03-22T14:23:52.895Z</time></trkpt><trkpt lat="44.83343980248041" lon="12.096755274050961"><ele>0.0</ele><time>2026-03-22T14:23:53.895Z</time></trkpt><trkpt lat="44.83348412828056" lon="12.096543102861647"><ele>0.0</ele><time>2026-03-22T14:23:54.895Z</time></trkpt><trkpt lat="44.83352891504068" lon="12.09632491536052"><ele>0.0</ele><time>2026-03-22T14:23:55.895Z</time></trkpt><trkpt lat="44.8335693254007" lon="12.09610607658087"><ele>0.0</ele><time>2026-03-22T14:23:56.895Z</time></trkpt><trkpt lat="44.83360695311802" lon="12.095908950715216"><ele>0.0</ele><time>2026-03-22T14:23:57.895Z</time></trkpt><trkpt lat="44.833639812356274" lon="12.095702195111777"><ele>0.0</ele><time>2026-03-22T14:23:58.895Z</time></trkpt><trkpt lat="44.83368006705851" lon="12.095464063346073"><ele>0.0</ele><time>2026-03-22T14:23:59.895Z</time></trkpt><trkpt lat="44.83372403177419" lon="12.095208368074061"><ele>0.0</ele><time>2026-03-22T14:24:00.895Z</time></trkpt><trkpt lat="44.83376790408152" lon="12.094930331611868"><ele>0.0</ele><time>2026-03-22T14:24:01.894Z</time></trkpt><trkpt lat="44.83381326568708" lon="12.094641076783107"><ele>0.0</ele><time>2026-03-22T14:24:02.894Z</time></trkpt><trkpt lat="44.83386092235705" lon="12.094338648009966"><ele>0.0</ele><time>2026-03-22T14:24:03.894Z</time></trkpt><trkpt lat="44.833910662250304" lon="12.094031388160664"><ele>0.0</ele><time>2026-03-22T14:24:04.894Z</time></trkpt><trkpt lat="44.833960276846945" lon="12.093725601076885"><ele>1.0</ele><time>2026-03-22T14:24:05.894Z</time></trkpt><trkpt lat="44.83400878756159" lon="12.093412948299978"><ele>2.0</ele><time>2026-03-22T14:24:06.894Z</time></trkpt><trkpt lat="44.83405259577713" lon="12.093091639826643"><ele>2.0</ele><time>2026-03-22T14:24:07.894Z</time></trkpt><trkpt lat="44.83410199518367" lon="12.092755493639203"><ele>2.0</ele><time>2026-03-22T14:24:08.894Z</time></trkpt><trkpt lat="44.834156245430414" lon="12.092415703892138"><ele>1.0</ele><time>2026-03-22T14:24:09.894Z</time></trkpt><trkpt lat="44.83421047397657" lon="12.092076805873635"><ele>0.0</ele><time>2026-03-22T14:24:10.894Z</time></trkpt><trkpt lat="44.834266446272416" lon="12.09173107007346"><ele>0.5</ele><time>2026-03-22T14:24:11.894Z</time></trkpt><trkpt lat="44.834323380468156" lon="12.091381861588053"><ele>1.0</ele><time>2026-03-22T14:24:12.894Z</time></trkpt><trkpt lat="44.834379627021505" lon="12.091032753497066"><ele>1.5</ele><time>2026-03-22T14:24:13.894Z</time></trkpt><trkpt lat="44.83443622309002" lon="12.090679570497036"><ele>2.0</ele><time>2026-03-22T14:24:14.894Z</time></trkpt><trkpt lat="44.834498496090085" lon="12.09032739005926"><ele>2.0</ele><time>2026-03-22T14:24:15.894Z</time></trkpt><trkpt lat="44.83457197705696" lon="12.089976875871736"><ele>2.0</ele><time>2026-03-22T14:24:16.894Z</time></trkpt><trkpt lat="44.83464405192384" lon="12.089619999990653"><ele>1.5</ele><time>2026-03-22T14:24:17.894Z</time></trkpt><trkpt lat="44.83471822092502" lon="12.089275320180242"><ele>1.0</ele><time>2026-03-22T14:24:18.894Z</time></trkpt><trkpt lat="44.83478831608184" lon="12.088919997821737"><ele>-0.5</ele><time>2026-03-22T14:24:19.894Z</time></trkpt><trkpt lat="44.83486061235788" lon="12.08856692577304"><ele>-2.0</ele><time>2026-03-22T14:24:20.894Z</time></trkpt><trkpt lat="44.83493431712769" lon="12.08821844069645"><ele>-2.0</ele><time>2026-03-22T14:24:21.894Z</time></trkpt><trkpt lat="44.8350004353953" lon="12.087877416587633"><ele>-2.0</ele><time>2026-03-22T14:24:22.894Z</time></trkpt><trkpt lat="44.83504299548215" lon="12.087525264621538"><ele>-2.0</ele><time>2026-03-22T14:24:23.894Z</time></trkpt><trkpt lat="44.83507059662096" lon="12.08716558705573"><ele>-2.0</ele><time>2026-03-22T14:24:24.894Z</time></trkpt><trkpt lat="44.83509002014056" lon="12.086795510228725"><ele>-2.0</ele><time>2026-03-22T14:24:25.894Z</time></trkpt><trkpt lat="44.83509914957438" lon="12.086409178098885"><ele>-2.0</ele><time>2026-03-22T14:24:26.894Z</time></trkpt><trkpt lat="44.83510744259616" lon="12.086018039523994"><ele>-2.0</ele><time>2026-03-22T14:24:27.894Z</time></trkpt><trkpt lat="44.83511558474094" lon="12.085622357142872"><ele>-2.0</ele><time>2026-03-22T14:24:28.894Z</time></trkpt><trkpt lat="44.835127788887505" lon="12.085225814316269"><ele>-2.5</ele><time>2026-03-22T14:24:29.894Z</time></trkpt><trkpt lat="44.83514459695262" lon="12.084831220895314"><ele>-3.0</ele><time>2026-03-22T14:24:30.894Z</time></trkpt><trkpt lat="44.835162374497784" lon="12.084435899011035"><ele>-2.5</ele><time>2026-03-22T14:24:31.894Z</time></trkpt><trkpt lat="44.83517433212589" lon="12.084045956286374"><ele>-2.0</ele><time>2026-03-22T14:24:32.894Z</time></trkpt><trkpt lat="44.83518691186752" lon="12.08365916080801"><ele>-2.0</ele><time>2026-03-22T14:24:33.894Z</time></trkpt><trkpt lat="44.83520057569156" lon="12.083271827643214"><ele>-2.0</ele><time>2026-03-22T14:24:34.893Z</time></trkpt><trkpt lat="44.83521301695162" lon="12.082886461368847"><ele>-2.0</ele><time>2026-03-22T14:24:35.893Z</time></trkpt><trkpt lat="44.83522072493882" lon="12.082502581899396"><ele>-2.0</ele><time>2026-03-22T14:24:36.893Z</time></trkpt><trkpt lat="44.83522641175932" lon="12.082122242053353"><ele>-2.0</ele><time>2026-03-22T14:24:37.893Z</time></trkpt><trkpt lat="44.83523440087769" lon="12.081743805654382"><ele>-2.0</ele><time>2026-03-22T14:24:38.893Z</time></trkpt><trkpt lat="44.835248232420085" lon="12.08136299049324"><ele>-2.0</ele><time>2026-03-22T14:24:39.893Z</time></trkpt><trkpt lat="44.83525409999289" lon="12.080977206166196"><ele>-2.0</ele><time>2026-03-22T14:24:40.893Z</time></trkpt><trkpt lat="44.835270745625884" lon="12.08059593116375"><ele>-2.5</ele><time>2026-03-22T14:24:41.893Z</time></trkpt><trkpt lat="44.8352755271767" lon="12.080207129735358"><ele>-3.0</ele><time>2026-03-22T14:24:42.893Z</time></trkpt><trkpt lat="44.83528593681305" lon="12.079815276790509"><ele>-3.0</ele><time>2026-03-22T14:24:43.893Z</time></trkpt><trkpt lat="44.835295973075674" lon="12.079425615926061"><ele>-3.0</ele><time>2026-03-22T14:24:44.893Z</time></trkpt><trkpt lat="44.83530642340479" lon="12.079035386196761"><ele>-3.0</ele><time>2026-03-22T14:24:45.893Z</time></trkpt><trkpt lat="44.835317846983465" lon="12.078648567409406"><ele>-3.0</ele><time>2026-03-22T14:24:46.893Z</time></trkpt><trkpt lat="44.835327677425205" lon="12.078263135737071"><ele>-2.0</ele><time>2026-03-22T14:24:47.893Z</time></trkpt><trkpt lat="44.83533412298758" lon="12.077876597967204"><ele>-1.0</ele><time>2026-03-22T14:24:48.893Z</time></trkpt><trkpt lat="44.835340350530394" lon="12.077488195709877"><ele>-0.5</ele><time>2026-03-22T14:24:49.893Z</time></trkpt><trkpt lat="44.83534747673872" lon="12.077100441793698"><ele>0.0</ele><time>2026-03-22T14:24:50.893Z</time></trkpt><trkpt lat="44.83535782635892" lon="12.076716629284734"><ele>-0.5</ele><time>2026-03-22T14:24:51.893Z</time></trkpt><trkpt lat="44.835370144757945" lon="12.07633105385935"><ele>-1.0</ele><time>2026-03-22T14:24:52.893Z</time></trkpt><trkpt lat="44.83538219862412" lon="12.075948582061265"><ele>-1.0</ele><time>2026-03-22T14:24:53.893Z</time></trkpt><trkpt lat="44.83538524155017" lon="12.075562697147525"><ele>-1.0</ele><time>2026-03-22T14:24:54.893Z</time></trkpt><trkpt lat="44.83538598366491" lon="12.075176007896683"><ele>0.0</ele><time>2026-03-22T14:24:55.893Z</time></trkpt><trkpt lat="44.8353812723005" lon="12.074783564549973"><ele>1.0</ele><time>2026-03-22T14:24:56.893Z</time></trkpt><trkpt lat="44.83537593667626" lon="12.074391566260962"><ele>3.0</ele><time>2026-03-22T14:24:57.893Z</time></trkpt><trkpt lat="44.83536920173891" lon="12.073994243245412"><ele>5.0</ele><time>2026-03-22T14:24:58.893Z</time></trkpt><trkpt lat="44.83535479298009" lon="12.073599357509574"><ele>3.5</ele><time>2026-03-22T14:24:59.893Z</time></trkpt><trkpt lat="44.835323714640985" lon="12.073198335550806"><ele>2.0</ele><time>2026-03-22T14:25:00.893Z</time></trkpt><trkpt lat="44.835293450762606" lon="12.072793326249581"><ele>0.5</ele><time>2026-03-22T14:25:01.893Z</time></trkpt><trkpt lat="44.835257271751445" lon="12.072391028721565"><ele>-1.0</ele><time>2026-03-22T14:25:02.893Z</time></trkpt><trkpt lat="44.83522454169689" lon="12.071986445113476"><ele>-1.0</ele><time>2026-03-22T14:25:03.893Z</time></trkpt><trkpt lat="44.835190794524316" lon="12.071585847050834"><ele>-1.0</ele><time>2026-03-22T14:25:04.893Z</time></trkpt><trkpt lat="44.835156831240866" lon="12.07121142388531"><ele>-0.6666666666666666</ele><time>2026-03-22T14:25:05.893Z</time></trkpt><trkpt lat="44.83512393472266" lon="12.070887337794074"><ele>-0.3333333333333333</ele><time>2026-03-22T14:25:06.892Z</time></trkpt><trkpt lat="44.83509169590613" lon="12.070600757418127"><ele>0.0</ele><time>2026-03-22T14:25:07.892Z</time></trkpt><trkpt lat="44.8350967878283" lon="12.070334034412678"><ele>0.0</ele><time>2026-03-22T14:25:08.892Z</time></trkpt><trkpt lat="44.83512746445964" lon="12.070073786026308"><ele>0.0</ele><time>2026-03-22T14:25:09.892Z</time></trkpt><trkpt lat="44.83518619917333" lon="12.069801913561573"><ele>0.0</ele><time>2026-03-22T14:25:10.892Z</time></trkpt><trkpt lat="44.8352739101986" lon="12.069519664388661"><ele>-0.5</ele><time>2026-03-22T14:25:11.892Z</time></trkpt><trkpt lat="44.83537890806768" lon="12.069227448725645"><ele>-1.0</ele><time>2026-03-22T14:25:12.894Z</time></trkpt><trkpt lat="44.83548388342697" lon="12.068916885698012"><ele>-1.5</ele><time>2026-03-22T14:25:13.894Z</time></trkpt><trkpt lat="44.835587419238905" lon="12.068601009929553"><ele>-2.0</ele><time>2026-03-22T14:25:14.894Z</time></trkpt><trkpt lat="44.83569087746913" lon="12.068293052944043"><ele>-1.5</ele><time>2026-03-22T14:25:15.893Z</time></trkpt><trkpt lat="44.8357944071534" lon="12.06797649335147"><ele>-1.0</ele><time>2026-03-22T14:25:16.894Z</time></trkpt><trkpt lat="44.83589724972076" lon="12.067674106361993"><ele>-1.6666666666666665</ele><time>2026-03-22T14:25:17.894Z</time></trkpt><trkpt lat="44.83598456269642" lon="12.067403950156105"><ele>-2.3333333333333335</ele><time>2026-03-22T14:25:18.894Z</time></trkpt><trkpt lat="44.83606188965291" lon="12.067176139426557"><ele>-3.0</ele><time>2026-03-22T14:25:19.894Z</time></trkpt><trkpt lat="44.83613385724821" lon="12.066950341007306"><ele>-3.0</ele><time>2026-03-22T14:25:20.894Z</time></trkpt><trkpt lat="44.83619622626104" lon="12.06671636636336"><ele>-3.0</ele><time>2026-03-22T14:25:21.894Z</time></trkpt><trkpt lat="44.836229015531806" lon="12.066456794009875"><ele>-3.0</ele><time>2026-03-22T14:25:22.893Z</time></trkpt><trkpt lat="44.836215945587305" lon="12.066177802478583"><ele>-3.0</ele><time>2026-03-22T14:25:23.893Z</time></trkpt><trkpt lat="44.83616264641221" lon="12.065883057425149"><ele>-3.0</ele><time>2026-03-22T14:25:24.893Z</time></trkpt><trkpt lat="44.83609168219446" lon="12.065576453271113"><ele>-3.0</ele><time>2026-03-22T14:25:25.893Z</time></trkpt><trkpt lat="44.8360206771986" lon="12.065253738705783"><ele>-2.0</ele><time>2026-03-22T14:25:26.893Z</time></trkpt><trkpt lat="44.83594614860256" lon="12.064915637291206"><ele>-1.0</ele><time>2026-03-22T14:25:27.893Z</time></trkpt><trkpt lat="44.83587369134501" lon="12.064584340198598"><ele>-1.0</ele><time>2026-03-22T14:25:28.893Z</time></trkpt><trkpt lat="44.835798790041274" lon="12.06425843066026"><ele>-1.0</ele><time>2026-03-22T14:25:29.893Z</time></trkpt><trkpt lat="44.835725540204855" lon="12.0639319992743"><ele>-1.5</ele><time>2026-03-22T14:25:30.893Z</time></trkpt><trkpt lat="44.835645426054356" lon="12.063607001692757"><ele>-2.0</ele><time>2026-03-22T14:25:31.893Z</time></trkpt><trkpt lat="44.83557417238842" lon="12.063295572444856"><ele>-2.0</ele><time>2026-03-22T14:25:32.893Z</time></trkpt><trkpt lat="44.83551795829903" lon="12.062981364610973"><ele>-2.0</ele><time>2026-03-22T14:25:33.893Z</time></trkpt><trkpt lat="44.83547142461002" lon="12.062666060513882"><ele>-2.0</ele><time>2026-03-22T14:25:34.893Z</time></trkpt><trkpt lat="44.83545822472362" lon="12.06234751207351"><ele>-2.0</ele><time>2026-03-22T14:25:35.893Z</time></trkpt><trkpt lat="44.835474649648226" lon="12.062014184065886"><ele>-2.0</ele><time>2026-03-22T14:25:36.893Z</time></trkpt><trkpt lat="44.83551861836763" lon="12.061657974955079"><ele>-2.0</ele><time>2026-03-22T14:25:37.893Z</time></trkpt><trkpt lat="44.8355550728814" lon="12.06129560747397"><ele>-2.0</ele><time>2026-03-22T14:25:38.893Z</time></trkpt><trkpt lat="44.835577204810036" lon="12.06092559138253"><ele>-2.0</ele><time>2026-03-22T14:25:39.893Z</time></trkpt><trkpt lat="44.83559235502133" lon="12.060545094747756"><ele>-2.0</ele><time>2026-03-22T14:25:40.893Z</time></trkpt><trkpt lat="44.835605183724724" lon="12.060155655500326"><ele>-2.0</ele><time>2026-03-22T14:25:41.893Z</time></trkpt><trkpt lat="44.83561809443299" lon="12.05976100452663"><ele>-2.0</ele><time>2026-03-22T14:25:42.893Z</time></trkpt><trkpt lat="44.835628188241515" lon="12.059365898830427"><ele>-2.0</ele><time>2026-03-22T14:25:43.893Z</time></trkpt><trkpt lat="44.835640127631905" lon="12.058967961374345"><ele>-2.0</ele><time>2026-03-22T14:25:44.893Z</time></trkpt><trkpt lat="44.835656389630415" lon="12.058563997023516"><ele>-2.0</ele><time>2026-03-22T14:25:45.893Z</time></trkpt><trkpt lat="44.835673917288894" lon="12.058153432003587"><ele>-2.0</ele><time>2026-03-22T14:25:46.893Z</time></trkpt><trkpt lat="44.835700965768076" lon="12.057737083015954"><ele>-2.0</ele><time>2026-03-22T14:25:47.893Z</time></trkpt><trkpt lat="44.835732736495196" lon="12.057319300161014"><ele>-2.0</ele><time>2026-03-22T14:25:48.893Z</time></trkpt><trkpt lat="44.83576401321873" lon="12.056902930069082"><ele>-2.0</ele><time>2026-03-22T14:25:49.893Z</time></trkpt><trkpt lat="44.835798587311906" lon="12.056487238358077"><ele>-2.0</ele><time>2026-03-22T14:25:50.893Z</time></trkpt><trkpt lat="44.835839830551365" lon="12.056073476142165"><ele>-2.0</ele><time>2026-03-22T14:25:51.893Z</time></trkpt><trkpt lat="44.83587824382664" lon="12.055676117320173"><ele>-2.5</ele><time>2026-03-22T14:25:52.893Z</time></trkpt><trkpt lat="44.835910962858804" lon="12.055306726840476"><ele>-3.0</ele><time>2026-03-22T14:25:53.893Z</time></trkpt><trkpt lat="44.83592960607001" lon="12.054958560793537"><ele>-2.5</ele><time>2026-03-22T14:25:54.893Z</time></trkpt><trkpt lat="44.83593379617886" lon="12.05462385411106"><ele>-2.0</ele><time>2026-03-22T14:25:55.892Z</time></trkpt><trkpt lat="44.83590455665724" lon="12.054280361802089"><ele>-2.0</ele><time>2026-03-22T14:25:56.892Z</time></trkpt><trkpt lat="44.835851400300896" lon="12.053924746903508"><ele>-2.0</ele><time>2026-03-22T14:25:57.892Z</time></trkpt><trkpt lat="44.835791496482955" lon="12.05355804431931"><ele>-2.0</ele><time>2026-03-22T14:25:58.892Z</time></trkpt><trkpt lat="44.835734449595364" lon="12.053185103059095"><ele>-2.0</ele><time>2026-03-22T14:25:59.892Z</time></trkpt><trkpt lat="44.83568263610376" lon="12.052817038273758"><ele>-2.0</ele><time>2026-03-22T14:26:00.892Z</time></trkpt><trkpt lat="44.835634664157034" lon="12.052462136588039"><ele>-2.0</ele><time>2026-03-22T14:26:01.892Z</time></trkpt><trkpt lat="44.835568316107455" lon="12.052104344799341"><ele>-2.0</ele><time>2026-03-22T14:26:02.892Z</time></trkpt><trkpt lat="44.835489920962125" lon="12.051741780195576"><ele>-2.0</ele><time>2026-03-22T14:26:03.892Z</time></trkpt><trkpt lat="44.835393394557386" lon="12.051377330844286"><ele>-2.0</ele><time>2026-03-22T14:26:04.892Z</time></trkpt><trkpt lat="44.835284185437885" lon="12.051024810443547"><ele>-2.0</ele><time>2026-03-22T14:26:05.892Z</time></trkpt><trkpt lat="44.83517424000129" lon="12.050679933384178"><ele>-1.0</ele><time>2026-03-22T14:26:06.892Z</time></trkpt><trkpt lat="44.83506573515369" lon="12.050344067661449"><ele>0.0</ele><time>2026-03-22T14:26:07.892Z</time></trkpt><trkpt lat="44.8349468750384" lon="12.050010320435126"><ele>-0.5</ele><time>2026-03-22T14:26:08.892Z</time></trkpt><trkpt lat="44.834815779858836" lon="12.049686968754905"><ele>-1.0</ele><time>2026-03-22T14:26:09.892Z</time></trkpt><trkpt lat="44.83465939096943" lon="12.049359271922977"><ele>-1.0</ele><time>2026-03-22T14:26:10.892Z</time></trkpt><trkpt lat="44.83449901750718" lon="12.049040591863292"><ele>-1.0</ele><time>2026-03-22T14:26:11.892Z</time></trkpt><trkpt lat="44.834333620003186" lon="12.048708600766046"><ele>-1.0</ele><time>2026-03-22T14:26:12.892Z</time></trkpt><trkpt lat="44.834168294627084" lon="12.04838085028774"><ele>-1.0</ele><time>2026-03-22T14:26:13.892Z</time></trkpt><trkpt lat="44.83400481489611" lon="12.048045971226799"><ele>-1.5</ele><time>2026-03-22T14:26:14.892Z</time></trkpt><trkpt lat="44.8338399106321" lon="12.047705487265771"><ele>-2.0</ele><time>2026-03-22T14:26:15.892Z</time></trkpt><trkpt lat="44.83369645362941" lon="12.047346287355996"><ele>-2.0</ele><time>2026-03-22T14:26:16.892Z</time></trkpt><trkpt lat="44.83354298911477" lon="12.046992164917398"><ele>-2.0</ele><time>2026-03-22T14:26:17.892Z</time></trkpt><trkpt lat="44.83339575492069" lon="12.046637470028013"><ele>-1.5</ele><time>2026-03-22T14:26:18.892Z</time></trkpt><trkpt lat="44.83323570210861" lon="12.046285296355915"><ele>-1.0</ele><time>2026-03-22T14:26:19.892Z</time></trkpt><trkpt lat="44.83307031331549" lon="12.045942574948127"><ele>-1.0</ele><time>2026-03-22T14:26:20.892Z</time></trkpt><trkpt lat="44.832891607341644" lon="12.045605466817484"><ele>-1.0</ele><time>2026-03-22T14:26:21.892Z</time></trkpt><trkpt lat="44.83271047675473" lon="12.045279719316406"><ele>-1.5</ele><time>2026-03-22T14:26:22.892Z</time></trkpt><trkpt lat="44.83251802093476" lon="12.04495140293131"><ele>-2.0</ele><time>2026-03-22T14:26:23.892Z</time></trkpt><trkpt lat="44.83230898726553" lon="12.044629408571492"><ele>-2.0</ele><time>2026-03-22T14:26:24.892Z</time></trkpt><trkpt lat="44.83211190831023" lon="12.044311102617089"><ele>-2.0</ele><time>2026-03-22T14:26:25.892Z</time></trkpt><trkpt lat="44.83190951428301" lon="12.043994797693308"><ele>-2.0</ele><time>2026-03-22T14:26:26.892Z</time></trkpt><trkpt lat="44.831700915574025" lon="12.043672905167465"><ele>-2.0</ele><time>2026-03-22T14:26:27.892Z</time></trkpt><trkpt lat="44.83149321907007" lon="12.043347591130258"><ele>-2.5</ele><time>2026-03-22T14:26:28.891Z</time></trkpt><trkpt lat="44.831283544004314" lon="12.043021565241814"><ele>-3.0</ele><time>2026-03-22T14:26:29.891Z</time></trkpt><trkpt lat="44.831073068583365" lon="12.04270078778807"><ele>-2.0</ele><time>2026-03-22T14:26:30.891Z</time></trkpt><trkpt lat="44.830864376478985" lon="12.042384477030593"><ele>-1.0</ele><time>2026-03-22T14:26:31.891Z</time></trkpt><trkpt lat="44.830664627386" lon="12.042090103896715"><ele>-1.0</ele><time>2026-03-22T14:26:32.891Z</time></trkpt><trkpt lat="44.83047719305154" lon="12.041805510052246"><ele>-1.0</ele><time>2026-03-22T14:26:33.891Z</time></trkpt><trkpt lat="44.8302997560006" lon="12.041530445889475"><ele>-1.0</ele><time>2026-03-22T14:26:34.891Z</time></trkpt><trkpt lat="44.83013448933279" lon="12.041265924239275"><ele>-1.0</ele><time>2026-03-22T14:26:35.891Z</time></trkpt><trkpt lat="44.82998355342305" lon="12.040985752477415"><ele>-2.0</ele><time>2026-03-22T14:26:36.891Z</time></trkpt><trkpt lat="44.82984264614108" lon="12.040699712312447"><ele>-3.0</ele><time>2026-03-22T14:26:37.891Z</time></trkpt><trkpt lat="44.829721044486384" lon="12.040388823515368"><ele>-3.0</ele><time>2026-03-22T14:26:38.891Z</time></trkpt><trkpt lat="44.829619685557965" lon="12.040056827031197"><ele>-3.0</ele><time>2026-03-22T14:26:39.891Z</time></trkpt><trkpt lat="44.82949627866961" lon="12.039749155428009"><ele>-2.5</ele><time>2026-03-22T14:26:40.891Z</time></trkpt><trkpt lat="44.82941539489059" lon="12.039406187996462"><ele>-2.0</ele><time>2026-03-22T14:26:41.891Z</time></trkpt><trkpt lat="44.82932427706389" lon="12.039065704628579"><ele>-1.5</ele><time>2026-03-22T14:26:42.891Z</time></trkpt><trkpt lat="44.82921497663813" lon="12.038729858972479"><ele>-1.0</ele><time>2026-03-22T14:26:43.891Z</time></trkpt><trkpt lat="44.829092699755144" lon="12.038396624958995"><ele>-1.5</ele><time>2026-03-22T14:26:44.891Z</time></trkpt><trkpt lat="44.82895341577647" lon="12.038073039463004"><ele>-2.0</ele><time>2026-03-22T14:26:45.891Z</time></trkpt><trkpt lat="44.82880185427566" lon="12.037747924203526"><ele>-2.0</ele><time>2026-03-22T14:26:46.891Z</time></trkpt><trkpt lat="44.82864453552022" lon="12.037419941623433"><ele>-2.0</ele><time>2026-03-22T14:26:47.891Z</time></trkpt><trkpt lat="44.828489186781475" lon="12.03710497698671"><ele>-1.5</ele><time>2026-03-22T14:26:48.891Z</time></trkpt><trkpt lat="44.82835310654545" lon="12.036807591564381"><ele>-1.0</ele><time>2026-03-22T14:26:49.891Z</time></trkpt><trkpt lat="44.82821221781296" lon="12.036517615364257"><ele>-1.0</ele><time>2026-03-22T14:26:50.891Z</time></trkpt><trkpt lat="44.8280843744481" lon="12.036246750374664"><ele>-1.0</ele><time>2026-03-22T14:26:51.891Z</time></trkpt><trkpt lat="44.82794329591337" lon="12.035993056845024"><ele>-1.5</ele><time>2026-03-22T14:26:52.891Z</time></trkpt><trkpt lat="44.827784153261064" lon="12.035752891517532"><ele>-2.0</ele><time>2026-03-22T14:26:53.891Z</time></trkpt><trkpt lat="44.82759041629141" lon="12.035518629781864"><ele>-2.5</ele><time>2026-03-22T14:26:54.891Z</time></trkpt><trkpt lat="44.82737812092059" lon="12.035282799015853"><ele>-3.0</ele><time>2026-03-22T14:26:55.891Z</time></trkpt><trkpt lat="44.82715597775661" lon="12.035043187600794"><ele>-3.5</ele><time>2026-03-22T14:26:56.891Z</time></trkpt><trkpt lat="44.82693658628854" lon="12.03481122169853"><ele>-4.0</ele><time>2026-03-22T14:26:57.891Z</time></trkpt><trkpt lat="44.82672860848002" lon="12.034609848132662"><ele>-3.0</ele><time>2026-03-22T14:26:58.891Z</time></trkpt><trkpt lat="44.82651112230987" lon="12.034436752542351"><ele>-2.0</ele><time>2026-03-22T14:26:59.891Z</time></trkpt><trkpt lat="44.826271210552584" lon="12.034300083514346"><ele>-2.0</ele><time>2026-03-22T14:27:00.891Z</time></trkpt><trkpt lat="44.82601700604357" lon="12.034199212924426"><ele>-2.0</ele><time>2026-03-22T14:27:01.89Z</time></trkpt><trkpt lat="44.82576462933638" lon="12.034094850555087"><ele>-3.0</ele><time>2026-03-22T14:27:02.89Z</time></trkpt><trkpt lat="44.82551782311488" lon="12.033993329817559"><ele>-4.0</ele><time>2026-03-22T14:27:03.89Z</time></trkpt><trkpt lat="44.82526827428032" lon="12.033919233733"><ele>-3.5</ele><time>2026-03-22T14:27:04.89Z</time></trkpt><trkpt lat="44.82501779854496" lon="12.03386320627595"><ele>-3.0</ele><time>2026-03-22T14:27:05.89Z</time></trkpt><trkpt lat="44.82477351770477" lon="12.033839365388816"><ele>-3.0</ele><time>2026-03-22T14:27:06.89Z</time></trkpt><trkpt lat="44.82453178691169" lon="12.033824978782267"><ele>-3.0</ele><time>2026-03-22T14:27:07.89Z</time></trkpt><trkpt lat="44.824296035455795" lon="12.033821282804869"><ele>-2.5</ele><time>2026-03-22T14:27:08.89Z</time></trkpt><trkpt lat="44.82406372386098" lon="12.033825467396307"><ele>-2.0</ele><time>2026-03-22T14:27:09.89Z</time></trkpt><trkpt lat="44.82383431491869" lon="12.033852367446881"><ele>-2.0</ele><time>2026-03-22T14:27:10.89Z</time></trkpt><trkpt lat="44.82361655271946" lon="12.033911428351603"><ele>-2.0</ele><time>2026-03-22T14:27:11.89Z</time></trkpt><trkpt lat="44.8234068993373" lon="12.033994537590816"><ele>-2.0</ele><time>2026-03-22T14:27:12.89Z</time></trkpt><trkpt lat="44.82321293037089" lon="12.034082793225476"><ele>-2.333333333333333</ele><time>2026-03-22T14:27:13.89Z</time></trkpt><trkpt lat="44.82303166232441" lon="12.034189576322552"><ele>-2.6666666666666665</ele><time>2026-03-22T14:27:14.89Z</time></trkpt><trkpt lat="44.82287189085885" lon="12.03434192559856"><ele>-3.0</ele><time>2026-03-22T14:27:15.89Z</time></trkpt><trkpt lat="44.82271872793003" lon="12.034554403693067"><ele>-2.6666666666666665</ele><time>2026-03-22T14:27:16.89Z</time></trkpt><trkpt lat="44.82259093587422" lon="12.034783187546092"><ele>-2.333333333333333</ele><time>2026-03-22T14:27:17.89Z</time></trkpt><trkpt lat="44.822494729366234" lon="12.034997885818619"><ele>-2.0</ele><time>2026-03-22T14:27:18.891Z</time></trkpt><trkpt lat="44.822382117121826" lon="12.035209279452399"><ele>-1.0</ele><time>2026-03-22T14:27:19.891Z</time></trkpt><trkpt lat="44.82225073808235" lon="12.035401129089541"><ele>0.0</ele><time>2026-03-22T14:27:20.891Z</time></trkpt><trkpt lat="44.82209609218667" lon="12.035548222085803"><ele>1.0</ele><time>2026-03-22T14:27:21.891Z</time></trkpt><trkpt lat="44.821905852308696" lon="12.035626320051788"><ele>0.0</ele><time>2026-03-22T14:27:22.891Z</time></trkpt><trkpt lat="44.8216997588474" lon="12.03566920954987"><ele>-1.0</ele><time>2026-03-22T14:27:23.891Z</time></trkpt><trkpt lat="44.82147887433728" lon="12.035679475071506"><ele>-2.0</ele><time>2026-03-22T14:27:24.891Z</time></trkpt><trkpt lat="44.82125853911948" lon="12.035674470794884"><ele>-2.0</ele><time>2026-03-22T14:27:25.891Z</time></trkpt><trkpt lat="44.82105183636749" lon="12.035657845648693"><ele>-2.0</ele><time>2026-03-22T14:27:26.891Z</time></trkpt><trkpt lat="44.820861791895986" lon="12.035623109977234"><ele>-2.0</ele><time>2026-03-22T14:27:27.891Z</time></trkpt><trkpt lat="44.820676750462376" lon="12.035590627042337"><ele>-2.0</ele><time>2026-03-22T14:27:28.891Z</time></trkpt><trkpt lat="44.820491492236094" lon="12.035546886619057"><ele>-2.0</ele><time>2026-03-22T14:27:29.891Z</time></trkpt><trkpt lat="44.82030541798066" lon="12.0355008036407"><ele>-2.0</ele><time>2026-03-22T14:27:30.891Z</time></trkpt><trkpt lat="44.82012256815793" lon="12.035450785262283"><ele>-2.333333333333333</ele><time>2026-03-22T14:27:31.891Z</time></trkpt><trkpt lat="44.8199528773688" lon="12.035393137675571"><ele>-2.6666666666666665</ele><time>2026-03-22T14:27:32.891Z</time></trkpt><trkpt lat="44.819780631196785" lon="12.035327782617163"><ele>-3.0</ele><time>2026-03-22T14:27:33.891Z</time></trkpt><trkpt lat="44.81960562410476" lon="12.035251217747929"><ele>-3.0</ele><time>2026-03-22T14:27:34.891Z</time></trkpt><trkpt lat="44.819403864684325" lon="12.03516726320467"><ele>-3.0</ele><time>2026-03-22T14:27:35.891Z</time></trkpt><trkpt lat="44.819182203143406" lon="12.035052459644747"><ele>-3.0</ele><time>2026-03-22T14:27:36.891Z</time></trkpt><trkpt lat="44.8189604265036" lon="12.034895253638679"><ele>-3.0</ele><time>2026-03-22T14:27:37.891Z</time></trkpt><trkpt lat="44.81873000100472" lon="12.03472425023276"><ele>-3.0</ele><time>2026-03-22T14:27:38.891Z</time></trkpt><trkpt lat="44.818497699219996" lon="12.034546520098738"><ele>-2.0</ele><time>2026-03-22T14:27:39.891Z</time></trkpt><trkpt lat="44.818271564803574" lon="12.034360616751753"><ele>-1.0</ele><time>2026-03-22T14:27:40.89Z</time></trkpt><trkpt lat="44.81805195187596" lon="12.03417413256999"><ele>-2.0</ele><time>2026-03-22T14:27:41.89Z</time></trkpt><trkpt lat="44.8178461822613" lon="12.033991145213806"><ele>-3.0</ele><time>2026-03-22T14:27:42.89Z</time></trkpt><trkpt lat="44.81766438821381" lon="12.03378418399033"><ele>-2.3333333333333335</ele><time>2026-03-22T14:27:43.89Z</time></trkpt><trkpt lat="44.81747744004694" lon="12.03362429109977"><ele>-1.6666666666666665</ele><time>2026-03-22T14:27:44.89Z</time></trkpt><trkpt lat="44.817322606466675" lon="12.0334323032524"><ele>-1.0</ele><time>2026-03-22T14:27:45.89Z</time></trkpt><trkpt lat="44.81719155724613" lon="12.033203304192146"><ele>-1.0</ele><time>2026-03-22T14:27:46.89Z</time></trkpt><trkpt lat="44.81706342261337" lon="12.032991560399948"><ele>-1.0</ele><time>2026-03-22T14:27:47.89Z</time></trkpt><trkpt lat="44.81697187504282" lon="12.03278054347423"><ele>-1.0</ele><time>2026-03-22T14:27:48.89Z</time></trkpt><trkpt lat="44.81688433127651" lon="12.032591909506268"><ele>-1.0</ele><time>2026-03-22T14:27:49.89Z</time></trkpt><trkpt lat="44.81679958647434" lon="12.032422628696125"><ele>-1.0</ele><time>2026-03-22T14:27:50.89Z</time></trkpt><trkpt lat="44.81672049369174" lon="12.032259040690022"><ele>-1.0</ele><time>2026-03-22T14:27:51.89Z</time></trkpt><trkpt lat="44.81664490820579" lon="12.0321016395149"><ele>-1.0</ele><time>2026-03-22T14:27:52.89Z</time></trkpt><trkpt lat="44.816572052470704" lon="12.031944133486205"><ele>-1.0</ele><time>2026-03-22T14:27:53.89Z</time></trkpt><trkpt lat="44.81649155742804" lon="12.031785238003744"><ele>-1.0</ele><time>2026-03-22T14:27:54.89Z</time></trkpt><trkpt lat="44.81641579888375" lon="12.031633136056456"><ele>-1.0</ele><time>2026-03-22T14:27:55.89Z</time></trkpt><trkpt lat="44.816339145281404" lon="12.031484251994893"><ele>-1.0</ele><time>2026-03-22T14:27:56.89Z</time></trkpt><trkpt lat="44.81626005179072" lon="12.031325721364338"><ele>-1.3333333333333333</ele><time>2026-03-22T14:27:57.89Z</time></trkpt><trkpt lat="44.8161788909186" lon="12.031160197184342"><ele>-1.6666666666666665</ele><time>2026-03-22T14:27:58.89Z</time></trkpt><trkpt lat="44.8160881254543" lon="12.030982274023158"><ele>-2.0</ele><time>2026-03-22T14:27:59.89Z</time></trkpt><trkpt lat="44.81599491438924" lon="12.03077061207755"><ele>-1.6666666666666665</ele><time>2026-03-22T14:28:00.89Z</time></trkpt><trkpt lat="44.81591973482533" lon="12.030524986766004"><ele>-1.3333333333333333</ele><time>2026-03-22T14:28:01.89Z</time></trkpt><trkpt lat="44.8158635546205" lon="12.030228044016045"><ele>-1.0</ele><time>2026-03-22T14:28:02.89Z</time></trkpt><trkpt lat="44.81582784843667" lon="12.029885623447633"><ele>-1.0</ele><time>2026-03-22T14:28:03.89Z</time></trkpt><trkpt lat="44.81580029687345" lon="12.029516697825677"><ele>-1.0</ele><time>2026-03-22T14:28:04.89Z</time></trkpt><trkpt lat="44.81578157734287" lon="12.029170094606606"><ele>-1.0</ele><time>2026-03-22T14:28:05.89Z</time></trkpt><trkpt lat="44.81576454980655" lon="12.02881383306949"><ele>-1.0</ele><time>2026-03-22T14:28:06.89Z</time></trkpt><trkpt lat="44.81574158009718" lon="12.02845255963082"><ele>-0.5</ele><time>2026-03-22T14:28:07.89Z</time></trkpt><trkpt lat="44.81572455639038" lon="12.028075303570466"><ele>0.0</ele><time>2026-03-22T14:28:08.89Z</time></trkpt><trkpt lat="44.815707888991156" lon="12.027688381993459"><ele>-0.5</ele><time>2026-03-22T14:28:09.89Z</time></trkpt><trkpt lat="44.81569010556402" lon="12.027295440472972"><ele>-1.0</ele><time>2026-03-22T14:28:10.89Z</time></trkpt><trkpt lat="44.81567732286918" lon="12.02689846465262"><ele>-1.0</ele><time>2026-03-22T14:28:11.89Z</time></trkpt><trkpt lat="44.815657438575535" lon="12.02650201186585"><ele>-1.0</ele><time>2026-03-22T14:28:12.89Z</time></trkpt><trkpt lat="44.815635853530594" lon="12.02610404298025"><ele>-0.5</ele><time>2026-03-22T14:28:13.889Z</time></trkpt><trkpt lat="44.81561743124777" lon="12.025713253419683"><ele>0.0</ele><time>2026-03-22T14:28:14.889Z</time></trkpt><trkpt lat="44.81560188180817" lon="12.025328878620172"><ele>0.0</ele><time>2026-03-22T14:28:15.889Z</time></trkpt><trkpt lat="44.81558432071781" lon="12.024953327824084"><ele>0.0</ele><time>2026-03-22T14:28:16.889Z</time></trkpt><trkpt lat="44.815565421419244" lon="12.024585681121662"><ele>0.0</ele><time>2026-03-22T14:28:17.889Z</time></trkpt><trkpt lat="44.81554559279375" lon="12.024224636116696"><ele>0.0</ele><time>2026-03-22T14:28:18.889Z</time></trkpt><trkpt lat="44.81552451822738" lon="12.023865411178244"><ele>-0.5</ele><time>2026-03-22T14:28:19.889Z</time></trkpt><trkpt lat="44.81549068979152" lon="12.023501879901442"><ele>-1.0</ele><time>2026-03-22T14:28:20.889Z</time></trkpt><trkpt lat="44.81545319841224" lon="12.023131912082118"><ele>-1.0</ele><time>2026-03-22T14:28:21.889Z</time></trkpt><trkpt lat="44.81540820197988" lon="12.022773473534837"><ele>-1.0</ele><time>2026-03-22T14:28:22.889Z</time></trkpt><trkpt lat="44.81535594963058" lon="12.022429590288608"><ele>-1.0</ele><time>2026-03-22T14:28:23.889Z</time></trkpt><trkpt lat="44.81528706903391" lon="12.022089558630864"><ele>-1.0</ele><time>2026-03-22T14:28:24.889Z</time></trkpt><trkpt lat="44.81519309169874" lon="12.021745597457715"><ele>-1.0</ele><time>2026-03-22T14:28:25.889Z</time></trkpt><trkpt lat="44.815074427410906" lon="12.021395452695616"><ele>-1.0</ele><time>2026-03-22T14:28:26.889Z</time></trkpt><trkpt lat="44.814941350552765" lon="12.021048957461216"><ele>-0.5</ele><time>2026-03-22T14:28:27.889Z</time></trkpt><trkpt lat="44.81479832430846" lon="12.020698832223776"><ele>0.0</ele><time>2026-03-22T14:28:28.889Z</time></trkpt><trkpt lat="44.814656189789964" lon="12.020351020595903"><ele>0.0</ele><time>2026-03-22T14:28:29.889Z</time></trkpt><trkpt lat="44.81451484967282" lon="12.02000551747236"><ele>0.0</ele><time>2026-03-22T14:28:30.889Z</time></trkpt><trkpt lat="44.81437405952241" lon="12.019672946992277"><ele>0.0</ele><time>2026-03-22T14:28:31.889Z</time></trkpt><trkpt lat="44.81424065830584" lon="12.019350335976934"><ele>0.0</ele><time>2026-03-22T14:28:32.889Z</time></trkpt><trkpt lat="44.814108682083" lon="12.01903777431903"><ele>0.0</ele><time>2026-03-22T14:28:33.889Z</time></trkpt><trkpt lat="44.813979808347774" lon="12.0187398871085"><ele>0.0</ele><time>2026-03-22T14:28:34.889Z</time></trkpt><trkpt lat="44.81385117355672" lon="12.018449534931632"><ele>0.0</ele><time>2026-03-22T14:28:35.889Z</time></trkpt><trkpt lat="44.81372100838624" lon="12.018157115842008"><ele>0.0</ele><time>2026-03-22T14:28:36.889Z</time></trkpt><trkpt lat="44.813587386686876" lon="12.0178644814"><ele>0.5</ele><time>2026-03-22T14:28:37.889Z</time></trkpt><trkpt lat="44.8134544588394" lon="12.017568994348213"><ele>1.0</ele><time>2026-03-22T14:28:38.889Z</time></trkpt><trkpt lat="44.81331735559794" lon="12.017284179616638"><ele>1.0</ele><time>2026-03-22T14:28:39.889Z</time></trkpt><trkpt lat="44.81318416844145" lon="12.017017804680385"><ele>1.0</ele><time>2026-03-22T14:28:40.889Z</time></trkpt><trkpt lat="44.813058923906404" lon="12.016763373897044"><ele>1.3333333333333333</ele><time>2026-03-22T14:28:41.889Z</time></trkpt><trkpt lat="44.81293955080754" lon="12.016526794098462"><ele>1.6666666666666665</ele><time>2026-03-22T14:28:42.889Z</time></trkpt><trkpt lat="44.8128275947188" lon="12.016306933565447"><ele>2.0</ele><time>2026-03-22T14:28:43.889Z</time></trkpt><trkpt lat="44.81271847830313" lon="12.016110442719304"><ele>2.0</ele><time>2026-03-22T14:28:44.889Z</time></trkpt><trkpt lat="44.812619221970955" lon="12.01592678641285"><ele>2.0</ele><time>2026-03-22T14:28:45.889Z</time></trkpt><trkpt lat="44.8125314750758" lon="12.015752727424939"><ele>2.0</ele><time>2026-03-22T14:28:46.888Z</time></trkpt><trkpt lat="44.81246889135172" lon="12.015589530119026"><ele>2.0</ele><time>2026-03-22T14:28:47.888Z</time></trkpt><trkpt lat="44.812410671642745" lon="12.015420648994695"><ele>2.0</ele><time>2026-03-22T14:28:48.888Z</time></trkpt><trkpt lat="44.81236059161653" lon="12.015241161211778"><ele>2.0</ele><time>2026-03-22T14:28:49.888Z</time></trkpt><trkpt lat="44.81231122873251" lon="12.01505573557843"><ele>2.0</ele><time>2026-03-22T14:28:50.888Z</time></trkpt><trkpt lat="44.81227111648387" lon="12.014870505798141"><ele>2.0</ele><time>2026-03-22T14:28:51.888Z</time></trkpt><trkpt lat="44.81223422219231" lon="12.014700816352947"><ele>2.2</ele><time>2026-03-22T14:28:52.888Z</time></trkpt><trkpt lat="44.812208307024136" lon="12.014552407191646"><ele>2.4000000000000004</ele><time>2026-03-22T14:28:53.888Z</time></trkpt><trkpt lat="44.81218363509729" lon="12.014423548908423"><ele>2.5999999999999996</ele><time>2026-03-22T14:28:54.888Z</time></trkpt><trkpt lat="44.81215683993086" lon="12.014279937463137"><ele>2.8</ele><time>2026-03-22T14:28:55.888Z</time></trkpt><trkpt lat="44.81213787666566" lon="12.014113098728636"><ele>3.0</ele><time>2026-03-22T14:28:56.888Z</time></trkpt><trkpt lat="44.81211574099336" lon="12.013917878692167"><ele>2.3333333333333335</ele><time>2026-03-22T14:28:57.888Z</time></trkpt><trkpt lat="44.81210433912652" lon="12.013712667350928"><ele>1.6666666666666665</ele><time>2026-03-22T14:28:58.888Z</time></trkpt><trkpt lat="44.812103005784884" lon="12.01348742487797"><ele>1.0</ele><time>2026-03-22T14:28:59.888Z</time></trkpt><trkpt lat="44.81211964258314" lon="12.013228125547467"><ele>1.0</ele><time>2026-03-22T14:29:00.888Z</time></trkpt><trkpt lat="44.812159347714996" lon="12.012951507910863"><ele>1.0</ele><time>2026-03-22T14:29:01.888Z</time></trkpt><trkpt lat="44.81223108884686" lon="12.012668571824355"><ele>1.0</ele><time>2026-03-22T14:29:02.888Z</time></trkpt><trkpt lat="44.81233107111878" lon="12.012376803039922"><ele>1.0</ele><time>2026-03-22T14:29:03.888Z</time></trkpt><trkpt lat="44.812432042230355" lon="12.012094799932445"><ele>1.0</ele><time>2026-03-22T14:29:04.888Z</time></trkpt><trkpt lat="44.812532756255024" lon="12.011787341191392"><ele>1.0</ele><time>2026-03-22T14:29:05.888Z</time></trkpt><trkpt lat="44.81263337376383" lon="12.011482562027092"><ele>1.0</ele><time>2026-03-22T14:29:06.888Z</time></trkpt><trkpt lat="44.812733149837605" lon="12.011178395306645"><ele>0.5</ele><time>2026-03-22T14:29:07.888Z</time></trkpt><trkpt lat="44.812832027547" lon="12.010875578292982"><ele>0.0</ele><time>2026-03-22T14:29:08.888Z</time></trkpt><trkpt lat="44.81294139282479" lon="12.010591709459709"><ele>0.0</ele><time>2026-03-22T14:29:09.888Z</time></trkpt><trkpt lat="44.81305979083187" lon="12.010326790493515"><ele>0.0</ele><time>2026-03-22T14:29:10.888Z</time></trkpt><trkpt lat="44.81320484560356" lon="12.010074926352061"><ele>0.0</ele><time>2026-03-22T14:29:11.888Z</time></trkpt><trkpt lat="44.813377358996156" lon="12.009845483178832"><ele>0.0</ele><time>2026-03-22T14:29:12.888Z</time></trkpt><trkpt lat="44.813570208810354" lon="12.009632761590547"><ele>0.0</ele><time>2026-03-22T14:29:13.888Z</time></trkpt><trkpt lat="44.81376754635848" lon="12.009427142442359"><ele>0.0</ele><time>2026-03-22T14:29:14.888Z</time></trkpt><trkpt lat="44.81396494901972" lon="12.009229714077394"><ele>0.0</ele><time>2026-03-22T14:29:15.888Z</time></trkpt><trkpt lat="44.81415834451498" lon="12.0090442684627"><ele>0.0</ele><time>2026-03-22T14:29:16.888Z</time></trkpt><trkpt lat="44.814336329737664" lon="12.00886882934276"><ele>0.0</ele><time>2026-03-22T14:29:17.888Z</time></trkpt><trkpt lat="44.814504700423726" lon="12.00868020064447"><ele>0.0</ele><time>2026-03-22T14:29:18.888Z</time></trkpt><trkpt lat="44.814660649924576" lon="12.00847636884687"><ele>0.0</ele><time>2026-03-22T14:29:19.887Z</time></trkpt><trkpt lat="44.81479921817394" lon="12.008259553737913"><ele>0.0</ele><time>2026-03-22T14:29:20.887Z</time></trkpt><trkpt lat="44.81491697627147" lon="12.008038839362742"><ele>0.0</ele><time>2026-03-22T14:29:21.887Z</time></trkpt><trkpt lat="44.81502155952935" lon="12.007816097846018"><ele>0.0</ele><time>2026-03-22T14:29:22.887Z</time></trkpt><trkpt lat="44.81510566715446" lon="12.00760111102647"><ele>-0.6666666666666666</ele><time>2026-03-22T14:29:23.887Z</time></trkpt><trkpt lat="44.81518629166651" lon="12.007388159295829"><ele>-1.3333333333333333</ele><time>2026-03-22T14:29:24.889Z</time></trkpt><trkpt lat="44.81526108920912" lon="12.007165009015852"><ele>-2.0</ele><time>2026-03-22T14:29:25.889Z</time></trkpt><trkpt lat="44.81533382584637" lon="12.006939759345554"><ele>-2.0</ele><time>2026-03-22T14:29:26.889Z</time></trkpt><trkpt lat="44.81540557129862" lon="12.006720167860287"><ele>-2.0</ele><time>2026-03-22T14:29:27.889Z</time></trkpt><trkpt lat="44.81548070937304" lon="12.00650028695611"><ele>-2.0</ele><time>2026-03-22T14:29:28.889Z</time></trkpt><trkpt lat="44.81555354243799" lon="12.006273774598139"><ele>-1.6666666666666665</ele><time>2026-03-22T14:29:29.889Z</time></trkpt><trkpt lat="44.81561937189211" lon="12.006042856863873"><ele>-1.3333333333333333</ele><time>2026-03-22T14:29:30.889Z</time></trkpt><trkpt lat="44.815679969864675" lon="12.00581546644355"><ele>-1.0</ele><time>2026-03-22T14:29:31.889Z</time></trkpt><trkpt lat="44.81573776294197" lon="12.005589194625754"><ele>0.0</ele><time>2026-03-22T14:29:32.889Z</time></trkpt><trkpt lat="44.81579258490085" lon="12.005364239237686"><ele>1.0</ele><time>2026-03-22T14:29:33.889Z</time></trkpt><trkpt lat="44.8158392994429" lon="12.005139982686424"><ele>2.0</ele><time>2026-03-22T14:29:34.889Z</time></trkpt><trkpt lat="44.815885991947404" lon="12.004913963230118"><ele>2.0</ele><time>2026-03-22T14:29:35.889Z</time></trkpt><trkpt lat="44.815930555763835" lon="12.004687313234443"><ele>2.0</ele><time>2026-03-22T14:29:36.889Z</time></trkpt><trkpt lat="44.815975136734956" lon="12.004459634570921"><ele>2.0</ele><time>2026-03-22T14:29:37.888Z</time></trkpt><trkpt lat="44.81601443726903" lon="12.004226101706877"><ele>1.0</ele><time>2026-03-22T14:29:38.888Z</time></trkpt><trkpt lat="44.81604880527272" lon="12.00399014067192"><ele>0.0</ele><time>2026-03-22T14:29:39.888Z</time></trkpt><trkpt lat="44.81608616253049" lon="12.003751286841611"><ele>-1.0</ele><time>2026-03-22T14:29:40.888Z</time></trkpt><trkpt lat="44.81612651595031" lon="12.003515470327857"><ele>-0.6666666666666666</ele><time>2026-03-22T14:29:41.888Z</time></trkpt><trkpt lat="44.816168627014655" lon="12.003285650670671"><ele>-0.3333333333333333</ele><time>2026-03-22T14:29:42.888Z</time></trkpt><trkpt lat="44.816208795447096" lon="12.003061007236894"><ele>0.0</ele><time>2026-03-22T14:29:43.888Z</time></trkpt><trkpt lat="44.81624906402039" lon="12.002834450442725"><ele>0.0</ele><time>2026-03-22T14:29:44.888Z</time></trkpt><trkpt lat="44.816290601305155" lon="12.002609406284213"><ele>0.0</ele><time>2026-03-22T14:29:45.888Z</time></trkpt><trkpt lat="44.81632798089385" lon="12.00238549181651"><ele>0.0</ele><time>2026-03-22T14:29:46.888Z</time></trkpt><trkpt lat="44.81636424427175" lon="12.002153534707283"><ele>-0.3333333333333333</ele><time>2026-03-22T14:29:47.888Z</time></trkpt><trkpt lat="44.81640876367965" lon="12.001925685905405"><ele>-0.6666666666666666</ele><time>2026-03-22T14:29:48.888Z</time></trkpt><trkpt lat="44.816451204032305" lon="12.00169202509733"><ele>-1.0</ele><time>2026-03-22T14:29:49.888Z</time></trkpt><trkpt lat="44.81649771556512" lon="12.001451280581279"><ele>0.0</ele><time>2026-03-22T14:29:50.888Z</time></trkpt><trkpt lat="44.816536318012965" lon="12.001219838654803"><ele>1.0</ele><time>2026-03-22T14:29:51.888Z</time></trkpt><trkpt lat="44.816575597867654" lon="12.000994072743852"><ele>2.0</ele><time>2026-03-22T14:29:52.888Z</time></trkpt><trkpt lat="44.816614249969675" lon="12.000779581055378"><ele>2.333333333333333</ele><time>2026-03-22T14:29:53.888Z</time></trkpt><trkpt lat="44.81665658768485" lon="12.000567827259033"><ele>2.6666666666666665</ele><time>2026-03-22T14:29:54.888Z</time></trkpt><trkpt lat="44.816689807530715" lon="12.000358321902395"><ele>3.0</ele><time>2026-03-22T14:29:55.888Z</time></trkpt><trkpt lat="44.81672049548898" lon="12.000157111555593"><ele>3.0</ele><time>2026-03-22T14:29:56.888Z</time></trkpt><trkpt lat="44.81675613114361" lon="11.999964965107404"><ele>3.0</ele><time>2026-03-22T14:29:57.888Z</time></trkpt><trkpt lat="44.81678900824737" lon="11.999783985394458"><ele>3.0</ele><time>2026-03-22T14:29:58.888Z</time></trkpt><trkpt lat="44.816818361739166" lon="11.999606748759131"><ele>3.0</ele><time>2026-03-22T14:29:59.888Z</time></trkpt><trkpt lat="44.816826488618084" lon="11.999419462656213"><ele>3.0</ele><time>2026-03-22T14:30:00.888Z</time></trkpt><trkpt lat="44.816818399373034" lon="11.999209339796238"><ele>3.0</ele><time>2026-03-22T14:30:01.888Z</time></trkpt><trkpt lat="44.81680120438897" lon="11.998979867295391"><ele>3.0</ele><time>2026-03-22T14:30:02.888Z</time></trkpt><trkpt lat="44.81678685697623" lon="11.99872422581264"><ele>2.6666666666666665</ele><time>2026-03-22T14:30:03.888Z</time></trkpt><trkpt lat="44.81676445536238" lon="11.998442167306496"><ele>2.333333333333333</ele><time>2026-03-22T14:30:04.888Z</time></trkpt><trkpt lat="44.81673231322352" lon="11.998152847978881"><ele>2.0</ele><time>2026-03-22T14:30:05.888Z</time></trkpt><trkpt lat="44.816692853062854" lon="11.997844756648"><ele>1.5</ele><time>2026-03-22T14:30:06.888Z</time></trkpt><trkpt lat="44.81662675682535" lon="11.997529388089234"><ele>1.0</ele><time>2026-03-22T14:30:07.888Z</time></trkpt><trkpt lat="44.81658546282098" lon="11.997194580562079"><ele>1.0</ele><time>2026-03-22T14:30:08.887Z</time></trkpt><trkpt lat="44.81652744270601" lon="11.996866241497669"><ele>1.0</ele><time>2026-03-22T14:30:09.887Z</time></trkpt><trkpt lat="44.816454693731814" lon="11.996545741927807"><ele>0.5</ele><time>2026-03-22T14:30:10.887Z</time></trkpt><trkpt lat="44.8163638093052" lon="11.99623391876243"><ele>0.0</ele><time>2026-03-22T14:30:11.887Z</time></trkpt><trkpt lat="44.81625555390103" lon="11.995926273975007"><ele>-1.0</ele><time>2026-03-22T14:30:12.887Z</time></trkpt><trkpt lat="44.816142229623075" lon="11.995605972888123"><ele>-2.0</ele><time>2026-03-22T14:30:13.887Z</time></trkpt><trkpt lat="44.81602078432131" lon="11.99529234165363"><ele>-0.5</ele><time>2026-03-22T14:30:14.887Z</time></trkpt><trkpt lat="44.81590693773012" lon="11.994984434415267"><ele>1.0</ele><time>2026-03-22T14:30:15.887Z</time></trkpt><trkpt lat="44.815792638421534" lon="11.994686291216563"><ele>1.0</ele><time>2026-03-22T14:30:16.887Z</time></trkpt><trkpt lat="44.81568159421509" lon="11.994392394816453"><ele>1.0</ele><time>2026-03-22T14:30:17.887Z</time></trkpt><trkpt lat="44.81557921036467" lon="11.994101582680393"><ele>0.0</ele><time>2026-03-22T14:30:18.887Z</time></trkpt><trkpt lat="44.815463422157215" lon="11.993818485434383"><ele>-1.0</ele><time>2026-03-22T14:30:19.887Z</time></trkpt><trkpt lat="44.81531604155463" lon="11.993551628423642"><ele>-1.0</ele><time>2026-03-22T14:30:20.887Z</time></trkpt><trkpt lat="44.815165317389884" lon="11.993272009638709"><ele>-1.0</ele><time>2026-03-22T14:30:21.887Z</time></trkpt><trkpt lat="44.81500779598098" lon="11.99298243286283"><ele>-1.0</ele><time>2026-03-22T14:30:22.887Z</time></trkpt><trkpt lat="44.81486519605628" lon="11.992683343040802"><ele>-1.0</ele><time>2026-03-22T14:30:23.887Z</time></trkpt><trkpt lat="44.814719175448104" lon="11.992387325742737"><ele>-1.0</ele><time>2026-03-22T14:30:24.887Z</time></trkpt><trkpt lat="44.81458021799465" lon="11.992098863767213"><ele>-1.0</ele><time>2026-03-22T14:30:25.887Z</time></trkpt><trkpt lat="44.81444112741883" lon="11.991851313041515"><ele>-1.0</ele><time>2026-03-22T14:30:26.887Z</time></trkpt><trkpt lat="44.81429188258441" lon="11.991633117370665"><ele>-1.0</ele><time>2026-03-22T14:30:27.887Z</time></trkpt><trkpt lat="44.81414199402457" lon="11.991448467968976"><ele>-1.0</ele><time>2026-03-22T14:30:28.887Z</time></trkpt><trkpt lat="44.81399438444093" lon="11.991309425093112"><ele>-1.0</ele><time>2026-03-22T14:30:29.887Z</time></trkpt><trkpt lat="44.81386306644647" lon="11.991194568479779"><ele>-1.0</ele><time>2026-03-22T14:30:30.887Z</time></trkpt><trkpt lat="44.81373838367333" lon="11.99106597688142"><ele>-1.0</ele><time>2026-03-22T14:30:31.887Z</time></trkpt><trkpt lat="44.813631253633716" lon="11.990892157169924"><ele>-1.0</ele><time>2026-03-22T14:30:32.887Z</time></trkpt><trkpt lat="44.81355292252415" lon="11.990659594188418"><ele>-1.0</ele><time>2026-03-22T14:30:33.887Z</time></trkpt><trkpt lat="44.81347543618194" lon="11.990388300965611"><ele>-1.0</ele><time>2026-03-22T14:30:34.887Z</time></trkpt><trkpt lat="44.813392950860106" lon="11.990096273936384"><ele>-1.5</ele><time>2026-03-22T14:30:35.887Z</time></trkpt><trkpt lat="44.813296865101684" lon="11.989786085489651"><ele>-2.0</ele><time>2026-03-22T14:30:36.887Z</time></trkpt><trkpt lat="44.81319638927467" lon="11.989465405568435"><ele>-2.5</ele><time>2026-03-22T14:30:37.887Z</time></trkpt><trkpt lat="44.81309872438274" lon="11.98913919794992"><ele>-3.0</ele><time>2026-03-22T14:30:38.887Z</time></trkpt><trkpt lat="44.81300028903798" lon="11.988818885232941"><ele>-3.0</ele><time>2026-03-22T14:30:39.887Z</time></trkpt><trkpt lat="44.81290783763485" lon="11.988513754166261"><ele>-3.0</ele><time>2026-03-22T14:30:40.887Z</time></trkpt><trkpt lat="44.812823968794355" lon="11.988210142196927"><ele>-2.6666666666666665</ele><time>2026-03-22T14:30:41.886Z</time></trkpt><trkpt lat="44.8127434706113" lon="11.98791789499047"><ele>-2.333333333333333</ele><time>2026-03-22T14:30:42.886Z</time></trkpt><trkpt lat="44.81265986798074" lon="11.98762096085343"><ele>-2.0</ele><time>2026-03-22T14:30:43.886Z</time></trkpt><trkpt lat="44.81256872056241" lon="11.987316692964153"><ele>-1.5</ele><time>2026-03-22T14:30:44.886Z</time></trkpt><trkpt lat="44.812464635647146" lon="11.987010440795114"><ele>-1.0</ele><time>2026-03-22T14:30:45.886Z</time></trkpt><trkpt lat="44.81235232684477" lon="11.986702382603445"><ele>-0.5</ele><time>2026-03-22T14:30:46.886Z</time></trkpt><trkpt lat="44.81223302647492" lon="11.986392833636206"><ele>0.0</ele><time>2026-03-22T14:30:47.886Z</time></trkpt><trkpt lat="44.812110393233354" lon="11.986102131914562"><ele>-0.3333333333333333</ele><time>2026-03-22T14:30:48.886Z</time></trkpt><trkpt lat="44.81200234242405" lon="11.985829092922117"><ele>-0.6666666666666666</ele><time>2026-03-22T14:30:49.886Z</time></trkpt><trkpt lat="44.81190047520971" lon="11.985569323949257"><ele>-1.0</ele><time>2026-03-22T14:30:50.886Z</time></trkpt><trkpt lat="44.811787109832345" lon="11.985327855251896"><ele>-0.3333333333333333</ele><time>2026-03-22T14:30:51.886Z</time></trkpt><trkpt lat="44.811658009092255" lon="11.985096192941834"><ele>0.3333333333333333</ele><time>2026-03-22T14:30:52.886Z</time></trkpt><trkpt lat="44.811522984132296" lon="11.98488372427682"><ele>1.0</ele><time>2026-03-22T14:30:53.886Z</time></trkpt><trkpt lat="44.81140478184164" lon="11.984663740046015"><ele>1.0</ele><time>2026-03-22T14:30:54.886Z</time></trkpt><trkpt lat="44.81129853137308" lon="11.984424169199567"><ele>1.0</ele><time>2026-03-22T14:30:55.886Z</time></trkpt><trkpt lat="44.811208966901596" lon="11.984157494695209"><ele>1.0</ele><time>2026-03-22T14:30:56.886Z</time></trkpt><trkpt lat="44.81109309771172" lon="11.98389290727229"><ele>0.0</ele><time>2026-03-22T14:30:57.886Z</time></trkpt><trkpt lat="44.81095354540246" lon="11.983616368630924"><ele>-1.0</ele><time>2026-03-22T14:30:58.886Z</time></trkpt><trkpt lat="44.81080708617999" lon="11.98333163063865"><ele>-1.5</ele><time>2026-03-22T14:30:59.886Z</time></trkpt><trkpt lat="44.81066234404331" lon="11.983029958032747"><ele>-2.0</ele><time>2026-03-22T14:31:00.886Z</time></trkpt><trkpt lat="44.81051768450938" lon="11.982726808703417"><ele>-2.0</ele><time>2026-03-22T14:31:01.886Z</time></trkpt><trkpt lat="44.8103687544824" lon="11.982444278066902"><ele>-2.0</ele><time>2026-03-22T14:31:02.886Z</time></trkpt><trkpt lat="44.81020331021969" lon="11.982166177139224"><ele>-1.5</ele><time>2026-03-22T14:31:03.886Z</time></trkpt><trkpt lat="44.810034237699575" lon="11.981893712264204"><ele>-1.0</ele><time>2026-03-22T14:31:04.886Z</time></trkpt><trkpt lat="44.80986450559986" lon="11.981631629537798"><ele>-1.0</ele><time>2026-03-22T14:31:05.886Z</time></trkpt><trkpt lat="44.809692730794524" lon="11.981388916979279"><ele>-1.0</ele><time>2026-03-22T14:31:06.886Z</time></trkpt><trkpt lat="44.80951102549868" lon="11.981151709959548"><ele>-1.0</ele><time>2026-03-22T14:31:07.886Z</time></trkpt><trkpt lat="44.809326005777365" lon="11.980921311029848"><ele>-1.0</ele><time>2026-03-22T14:31:08.886Z</time></trkpt><trkpt lat="44.80915322152958" lon="11.980701481540827"><ele>-0.6666666666666666</ele><time>2026-03-22T14:31:09.886Z</time></trkpt><trkpt lat="44.80898643324318" lon="11.9804912086492"><ele>-0.3333333333333333</ele><time>2026-03-22T14:31:10.886Z</time></trkpt><trkpt lat="44.80882438469853" lon="11.980275561732553"><ele>0.0</ele><time>2026-03-22T14:31:11.886Z</time></trkpt><trkpt lat="44.80866746436848" lon="11.98006965704763"><ele>-0.3333333333333333</ele><time>2026-03-22T14:31:12.886Z</time></trkpt><trkpt lat="44.808506680852354" lon="11.97986801880105"><ele>-0.6666666666666666</ele><time>2026-03-22T14:31:13.886Z</time></trkpt><trkpt lat="44.80835009327445" lon="11.979668609535493"><ele>-1.0</ele><time>2026-03-22T14:31:14.885Z</time></trkpt><trkpt lat="44.808197817153165" lon="11.979443006083198"><ele>-1.0</ele><time>2026-03-22T14:31:15.885Z</time></trkpt><trkpt lat="44.8080373177738" lon="11.979209030604032"><ele>-1.0</ele><time>2026-03-22T14:31:16.885Z</time></trkpt><trkpt lat="44.8078770835291" lon="11.97894508700364"><ele>-0.5</ele><time>2026-03-22T14:31:17.885Z</time></trkpt><trkpt lat="44.807723655924825" lon="11.978676877626366"><ele>0.0</ele><time>2026-03-22T14:31:18.885Z</time></trkpt><trkpt lat="44.80758055035198" lon="11.97841487170071"><ele>-0.5</ele><time>2026-03-22T14:31:19.885Z</time></trkpt><trkpt lat="44.807434771440946" lon="11.978139681124752"><ele>-1.0</ele><time>2026-03-22T14:31:20.885Z</time></trkpt><trkpt lat="44.80729570869943" lon="11.977853210025597"><ele>-1.0</ele><time>2026-03-22T14:31:21.885Z</time></trkpt><trkpt lat="44.80716947545935" lon="11.977554880814475"><ele>-1.0</ele><time>2026-03-22T14:31:22.885Z</time></trkpt><trkpt lat="44.8070405276459" lon="11.97724399743595"><ele>-1.0</ele><time>2026-03-22T14:31:23.885Z</time></trkpt><trkpt lat="44.80692419871074" lon="11.976924834156534"><ele>-1.0</ele><time>2026-03-22T14:31:24.885Z</time></trkpt><trkpt lat="44.806811359853604" lon="11.976597903709177"><ele>-1.0</ele><time>2026-03-22T14:31:25.885Z</time></trkpt><trkpt lat="44.806693624934155" lon="11.976283688347916"><ele>-1.0</ele><time>2026-03-22T14:31:26.885Z</time></trkpt><trkpt lat="44.806587350270135" lon="11.975975109633485"><ele>-1.0</ele><time>2026-03-22T14:31:27.885Z</time></trkpt><trkpt lat="44.806466623550826" lon="11.97567412733983"><ele>-1.0</ele><time>2026-03-22T14:31:28.885Z</time></trkpt><trkpt lat="44.80633081406535" lon="11.97539747599015"><ele>-1.0</ele><time>2026-03-22T14:31:29.885Z</time></trkpt><trkpt lat="44.806191075225335" lon="11.975119987466238"><ele>-1.0</ele><time>2026-03-22T14:31:30.887Z</time></trkpt><trkpt lat="44.80604468071643" lon="11.974842028745392"><ele>0.0</ele><time>2026-03-22T14:31:31.887Z</time></trkpt><trkpt lat="44.80589115069372" lon="11.974566956809467"><ele>1.0</ele><time>2026-03-22T14:31:32.887Z</time></trkpt><trkpt lat="44.80572932027974" lon="11.974298637642205"><ele>0.0</ele><time>2026-03-22T14:31:33.886Z</time></trkpt><trkpt lat="44.805566206631" lon="11.974026837383208"><ele>-1.0</ele><time>2026-03-22T14:31:34.887Z</time></trkpt><trkpt lat="44.80539658603959" lon="11.973751635762033"><ele>-1.0</ele><time>2026-03-22T14:31:35.887Z</time></trkpt><trkpt lat="44.80522651364229" lon="11.973484786193113"><ele>-1.0</ele><time>2026-03-22T14:31:36.887Z</time></trkpt><trkpt lat="44.8050720947144" lon="11.973199921037748"><ele>-1.0</ele><time>2026-03-22T14:31:37.887Z</time></trkpt><trkpt lat="44.80492914716669" lon="11.972902417093412"><ele>-1.0</ele><time>2026-03-22T14:31:38.887Z</time></trkpt><trkpt lat="44.804770178641995" lon="11.972629290415291"><ele>-1.0</ele><time>2026-03-22T14:31:39.886Z</time></trkpt><trkpt lat="44.80459746291031" lon="11.972405517692925"><ele>-1.0</ele><time>2026-03-22T14:31:40.887Z</time></trkpt><trkpt lat="44.80443259017911" lon="11.972184470670802"><ele>-1.5</ele><time>2026-03-22T14:31:41.887Z</time></trkpt><trkpt lat="44.804237399767054" lon="11.971978235521687"><ele>-2.0</ele><time>2026-03-22T14:31:42.887Z</time></trkpt><trkpt lat="44.804049542316974" lon="11.97176923657111"><ele>-2.5</ele><time>2026-03-22T14:31:43.886Z</time></trkpt><trkpt lat="44.803864400722965" lon="11.97155424573065"><ele>-3.0</ele><time>2026-03-22T14:31:44.886Z</time></trkpt><trkpt lat="44.803659672239625" lon="11.971359259179986"><ele>-1.5</ele><time>2026-03-22T14:31:45.886Z</time></trkpt><trkpt lat="44.80345879940472" lon="11.971170437118431"><ele>0.0</ele><time>2026-03-22T14:31:46.886Z</time></trkpt><trkpt lat="44.803250131463095" lon="11.971009549181108"><ele>0.0</ele><time>2026-03-22T14:31:47.886Z</time></trkpt><trkpt lat="44.803040001696296" lon="11.970866514184095"><ele>0.0</ele><time>2026-03-22T14:31:48.886Z</time></trkpt><trkpt lat="44.802836545093804" lon="11.970726638991332"><ele>-1.0</ele><time>2026-03-22T14:31:49.886Z</time></trkpt><trkpt lat="44.8026353148291" lon="11.970606607973487"><ele>-2.0</ele><time>2026-03-22T14:31:50.886Z</time></trkpt><trkpt lat="44.80240746338398" lon="11.970500601557292"><ele>-2.0</ele><time>2026-03-22T14:31:51.886Z</time></trkpt><trkpt lat="44.802163724085105" lon="11.970404183407622"><ele>-2.0</ele><time>2026-03-22T14:31:52.886Z</time></trkpt><trkpt lat="44.80192085857436" lon="11.970305967352322"><ele>-1.0</ele><time>2026-03-22T14:31:53.886Z</time></trkpt><trkpt lat="44.80168435878372" lon="11.970200932680683"><ele>0.0</ele><time>2026-03-22T14:31:54.886Z</time></trkpt><trkpt lat="44.80145013020033" lon="11.97010241706606"><ele>-1.0</ele><time>2026-03-22T14:31:55.886Z</time></trkpt><trkpt lat="44.80122613317621" lon="11.970004524591582"><ele>-2.0</ele><time>2026-03-22T14:31:56.886Z</time></trkpt><trkpt lat="44.80099915343891" lon="11.969930254955035"><ele>-3.0</ele><time>2026-03-22T14:31:57.886Z</time></trkpt><trkpt lat="44.800759921332066" lon="11.969865793612389"><ele>-4.0</ele><time>2026-03-22T14:31:58.886Z</time></trkpt><trkpt lat="44.80050905893755" lon="11.969809647565755"><ele>-4.0</ele><time>2026-03-22T14:31:59.886Z</time></trkpt><trkpt lat="44.800262284603264" lon="11.969760403246324"><ele>-4.0</ele><time>2026-03-22T14:32:00.886Z</time></trkpt><trkpt lat="44.800027406893534" lon="11.969687543889188"><ele>-3.0</ele><time>2026-03-22T14:32:01.886Z</time></trkpt><trkpt lat="44.79980205899613" lon="11.969655132768859"><ele>-2.0</ele><time>2026-03-22T14:32:02.886Z</time></trkpt><trkpt lat="44.79960106459677" lon="11.969612360512428"><ele>-1.0</ele><time>2026-03-22T14:32:03.886Z</time></trkpt><trkpt lat="44.79943648305746" lon="11.969578751826164"><ele>-0.8</ele><time>2026-03-22T14:32:04.886Z</time></trkpt><trkpt lat="44.79930682004691" lon="11.969536230165318"><ele>-0.6000000000000001</ele><time>2026-03-22T14:32:05.886Z</time></trkpt><trkpt lat="44.799198673973066" lon="11.96951373042679"><ele>-0.4</ele><time>2026-03-22T14:32:06.886Z</time></trkpt><trkpt lat="44.79912336216572" lon="11.969499580367668"><ele>-0.2</ele><time>2026-03-22T14:32:07.886Z</time></trkpt><trkpt lat="44.799053991345765" lon="11.969490105241634"><ele>0.0</ele><time>2026-03-22T14:32:08.886Z</time></trkpt><trkpt lat="44.798974890534254" lon="11.969475864807265"><ele>0.0</ele><time>2026-03-22T14:32:09.886Z</time></trkpt><trkpt lat="44.79886853627536" lon="11.96946209234186"><ele>0.0</ele><time>2026-03-22T14:32:10.886Z</time></trkpt><trkpt lat="44.7987461633881" lon="11.969446072037773"><ele>0.0</ele><time>2026-03-22T14:32:11.886Z</time></trkpt><trkpt lat="44.79860611391613" lon="11.969427404945987"><ele>0.0</ele><time>2026-03-22T14:32:12.886Z</time></trkpt><trkpt lat="44.79845747502847" lon="11.96941083420071"><ele>0.5</ele><time>2026-03-22T14:32:13.886Z</time></trkpt><trkpt lat="44.798314642756665" lon="11.96939316361553"><ele>1.0</ele><time>2026-03-22T14:32:14.886Z</time></trkpt><trkpt lat="44.79818451443995" lon="11.969372751279154"><ele>1.5</ele><time>2026-03-22T14:32:15.886Z</time></trkpt><trkpt lat="44.798063825720675" lon="11.969356767938077"><ele>2.0</ele><time>2026-03-22T14:32:16.885Z</time></trkpt><trkpt lat="44.797952403739664" lon="11.969339099717855"><ele>1.9999999999999998</ele><time>2026-03-22T14:32:17.885Z</time></trkpt><trkpt lat="44.79785446710226" lon="11.969330013942153"><ele>2.0</ele><time>2026-03-22T14:32:18.885Z</time></trkpt><trkpt lat="44.79776715074601" lon="11.969324124061957"><ele>2.0</ele><time>2026-03-22T14:32:19.885Z</time></trkpt><trkpt lat="44.79770061111081" lon="11.969316516153677"><ele>2.0</ele><time>2026-03-22T14:32:20.885Z</time></trkpt><trkpt lat="44.79763569411323" lon="11.969308742482376"><ele>1.9999999999999998</ele><time>2026-03-22T14:32:21.885Z</time></trkpt><trkpt lat="44.79754733075606" lon="11.969280422488293"><ele>2.0</ele><time>2026-03-22T14:32:23.885Z</time></trkpt><trkpt lat="44.79748657563502" lon="11.969476736887835"><ele>2.2</ele><time>2026-03-22T14:32:24.885Z</time></trkpt><trkpt lat="44.79752671297767" lon="11.969615581035473"><ele>2.4000000000000004</ele><time>2026-03-22T14:32:25.885Z</time></trkpt><trkpt lat="44.79753777904333" lon="11.96976153596169"><ele>2.5999999999999996</ele><time>2026-03-22T14:32:26.885Z</time></trkpt><trkpt lat="44.7975512698044" lon="11.969909969800185"><ele>2.8</ele><time>2026-03-22T14:32:27.885Z</time></trkpt><trkpt lat="44.797562339939105" lon="11.970051505341175"><ele>3.0</ele><time>2026-03-22T14:32:28.885Z</time></trkpt><trkpt lat="44.79757145621138" lon="11.97018301242061"><ele>2.6</ele><time>2026-03-22T14:32:29.885Z</time></trkpt><trkpt lat="44.79758019554484" lon="11.97030230609347"><ele>2.1999999999999997</ele><time>2026-03-22T14:32:30.885Z</time></trkpt><trkpt lat="44.79758522876546" lon="11.970403748971295"><ele>1.8</ele><time>2026-03-22T14:32:31.885Z</time></trkpt><trkpt lat="44.797517382160095" lon="11.970560568564503"><ele>1.4</ele><time>2026-03-22T14:32:33.885Z</time></trkpt><trkpt lat="44.79752463329786" lon="11.970671952304818"><ele>1.0</ele><time>2026-03-22T14:32:35.885Z</time></trkpt><trkpt lat="44.79736426894596" lon="11.97072924616583"><ele>1.0</ele><time>2026-03-22T14:32:38.885Z</time></trkpt><trkpt lat="44.797243266045705" lon="11.970702348388102"><ele>1.0</ele><time>2026-03-22T14:32:39.885Z</time></trkpt><trkpt lat="44.79708969842171" lon="11.970684916389809"><ele>1.0</ele><time>2026-03-22T14:32:40.885Z</time></trkpt><trkpt lat="44.796936719957436" lon="11.97064889334383"><ele>1.0</ele><time>2026-03-22T14:32:41.885Z</time></trkpt><trkpt lat="44.79675670122206" lon="11.970612465043475"><ele>1.0</ele><time>2026-03-22T14:32:42.885Z</time></trkpt><trkpt lat="44.79658697993104" lon="11.97058168988673"><ele>1.0</ele><time>2026-03-22T14:32:43.885Z</time></trkpt><trkpt lat="44.796411629161945" lon="11.970563547926256"><ele>1.0</ele><time>2026-03-22T14:32:44.885Z</time></trkpt><trkpt lat="44.79622921005852" lon="11.970545300748313"><ele>1.0</ele><time>2026-03-22T14:32:45.885Z</time></trkpt><trkpt lat="44.796028774338886" lon="11.970539155943396"><ele>1.0</ele><time>2026-03-22T14:32:46.885Z</time></trkpt><trkpt lat="44.795809598760144" lon="11.970514732938462"><ele>1.0</ele><time>2026-03-22T14:32:47.885Z</time></trkpt><trkpt lat="44.79558529368236" lon="11.970452593831228"><ele>1.0</ele><time>2026-03-22T14:32:48.885Z</time></trkpt><trkpt lat="44.795352219250034" lon="11.970399920340837"><ele>1.0</ele><time>2026-03-22T14:32:49.884Z</time></trkpt><trkpt lat="44.79511540995052" lon="11.970346402778995"><ele>0.0</ele><time>2026-03-22T14:32:50.884Z</time></trkpt><trkpt lat="44.79486841812408" lon="11.970309635855665"><ele>-1.0</ele><time>2026-03-22T14:32:51.884Z</time></trkpt><trkpt lat="44.79462158254716" lon="11.970247818999704"><ele>-1.0</ele><time>2026-03-22T14:32:52.884Z</time></trkpt><trkpt lat="44.79437117245602" lon="11.97018885560144"><ele>-1.0</ele><time>2026-03-22T14:32:53.884Z</time></trkpt><trkpt lat="44.79412603635188" lon="11.970130224000592"><ele>-0.5</ele><time>2026-03-22T14:32:54.884Z</time></trkpt><trkpt lat="44.79388527326446" lon="11.970069520495066"><ele>0.0</ele><time>2026-03-22T14:32:55.884Z</time></trkpt><trkpt lat="44.79365190047756" lon="11.97000192775913"><ele>0.3333333333333333</ele><time>2026-03-22T14:32:56.884Z</time></trkpt><trkpt lat="44.793429512383554" lon="11.969931204583428"><ele>0.6666666666666666</ele><time>2026-03-22T14:32:57.884Z</time></trkpt><trkpt lat="44.79322224662539" lon="11.969844236196499"><ele>1.0</ele><time>2026-03-22T14:32:58.884Z</time></trkpt><trkpt lat="44.79302923745088" lon="11.969739816437263"><ele>1.0</ele><time>2026-03-22T14:32:59.884Z</time></trkpt><trkpt lat="44.79284514093508" lon="11.969598597247717"><ele>1.0</ele><time>2026-03-22T14:33:00.884Z</time></trkpt><trkpt lat="44.792650046766575" lon="11.969435880069282"><ele>1.0</ele><time>2026-03-22T14:33:01.884Z</time></trkpt><trkpt lat="44.79243800209087" lon="11.969269917015138"><ele>1.0</ele><time>2026-03-22T14:33:02.884Z</time></trkpt><trkpt lat="44.79222201889843" lon="11.969087306306193"><ele>1.0</ele><time>2026-03-22T14:33:03.884Z</time></trkpt><trkpt lat="44.79199372762759" lon="11.968928000871987"><ele>-0.5</ele><time>2026-03-22T14:33:04.884Z</time></trkpt><trkpt lat="44.79176767978269" lon="11.968772778764786"><ele>-2.0</ele><time>2026-03-22T14:33:05.884Z</time></trkpt><trkpt lat="44.791544363763926" lon="11.968640074446832"><ele>-2.0</ele><time>2026-03-22T14:33:06.884Z</time></trkpt><trkpt lat="44.79133865270808" lon="11.968472116791956"><ele>-2.0</ele><time>2026-03-22T14:33:07.884Z</time></trkpt><trkpt lat="44.79114162588967" lon="11.96828074950104"><ele>-1.5</ele><time>2026-03-22T14:33:08.884Z</time></trkpt><trkpt lat="44.79094916920509" lon="11.968067107425421"><ele>-1.0</ele><time>2026-03-22T14:33:09.884Z</time></trkpt><trkpt lat="44.79075504354483" lon="11.967836776866216"><ele>-1.0</ele><time>2026-03-22T14:33:10.884Z</time></trkpt><trkpt lat="44.79057470712493" lon="11.967592348628699"><ele>-1.0</ele><time>2026-03-22T14:33:11.884Z</time></trkpt><trkpt lat="44.790413893077535" lon="11.967343368273509"><ele>-0.5</ele><time>2026-03-22T14:33:12.884Z</time></trkpt><trkpt lat="44.790267767186364" lon="11.967078983577435"><ele>0.0</ele><time>2026-03-22T14:33:13.884Z</time></trkpt><trkpt lat="44.79015225868897" lon="11.966778233498433"><ele>1.5</ele><time>2026-03-22T14:33:14.884Z</time></trkpt><trkpt lat="44.79003188867808" lon="11.966467194005528"><ele>3.0</ele><time>2026-03-22T14:33:15.884Z</time></trkpt><trkpt lat="44.789907373870605" lon="11.966141387580548"><ele>3.0</ele><time>2026-03-22T14:33:16.884Z</time></trkpt><trkpt lat="44.78976378246657" lon="11.965813664619525"><ele>3.0</ele><time>2026-03-22T14:33:17.884Z</time></trkpt><trkpt lat="44.789642514395084" lon="11.96547222338549"><ele>3.0</ele><time>2026-03-22T14:33:18.884Z</time></trkpt><trkpt lat="44.78951229262899" lon="11.965137229155953"><ele>3.0</ele><time>2026-03-22T14:33:19.884Z</time></trkpt><trkpt lat="44.78939028862501" lon="11.964804063234194"><ele>2.5</ele><time>2026-03-22T14:33:20.884Z</time></trkpt><trkpt lat="44.78926055454591" lon="11.96447297605043"><ele>2.0</ele><time>2026-03-22T14:33:21.884Z</time></trkpt><trkpt lat="44.78914367455251" lon="11.96414457365486"><ele>1.5</ele><time>2026-03-22T14:33:22.883Z</time></trkpt><trkpt lat="44.78902592700595" lon="11.963811218510363"><ele>1.0</ele><time>2026-03-22T14:33:23.883Z</time></trkpt><trkpt lat="44.78891964257659" lon="11.963467925283162"><ele>2.0</ele><time>2026-03-22T14:33:24.883Z</time></trkpt><trkpt lat="44.788819198312154" lon="11.963123935104921"><ele>3.0</ele><time>2026-03-22T14:33:25.883Z</time></trkpt><trkpt lat="44.78872209370191" lon="11.962781329445495"><ele>3.5</ele><time>2026-03-22T14:33:26.883Z</time></trkpt><trkpt lat="44.788625837208826" lon="11.962438889262042"><ele>4.0</ele><time>2026-03-22T14:33:27.883Z</time></trkpt><trkpt lat="44.78853285593428" lon="11.96210205797238"><ele>4.5</ele><time>2026-03-22T14:33:28.883Z</time></trkpt><trkpt lat="44.788439740412436" lon="11.961773768714561"><ele>5.0</ele><time>2026-03-22T14:33:29.883Z</time></trkpt><trkpt lat="44.788340023498186" lon="11.961446694064836"><ele>5.0</ele><time>2026-03-22T14:33:30.883Z</time></trkpt><trkpt lat="44.788243485320756" lon="11.961116548289398"><ele>5.0</ele><time>2026-03-22T14:33:31.883Z</time></trkpt><trkpt lat="44.78814846371116" lon="11.960787237700089"><ele>4.5</ele><time>2026-03-22T14:33:32.883Z</time></trkpt><trkpt lat="44.78804867885462" lon="11.960457589178251"><ele>4.0</ele><time>2026-03-22T14:33:33.883Z</time></trkpt><trkpt lat="44.787953630708756" lon="11.960134342977053"><ele>2.5</ele><time>2026-03-22T14:33:34.883Z</time></trkpt><trkpt lat="44.787853067192195" lon="11.959817554005877"><ele>1.0</ele><time>2026-03-22T14:33:35.883Z</time></trkpt><trkpt lat="44.787753077421996" lon="11.95950293507323"><ele>2.5</ele><time>2026-03-22T14:33:36.885Z</time></trkpt><trkpt lat="44.78765510873235" lon="11.959192240464557"><ele>4.0</ele><time>2026-03-22T14:33:37.885Z</time></trkpt><trkpt lat="44.787550074854195" lon="11.958882036656462"><ele>4.0</ele><time>2026-03-22T14:33:38.885Z</time></trkpt><trkpt lat="44.78744217618075" lon="11.958579486233736"><ele>4.0</ele><time>2026-03-22T14:33:39.884Z</time></trkpt><trkpt lat="44.78733592845262" lon="11.958271105083016"><ele>3.0</ele><time>2026-03-22T14:33:40.884Z</time></trkpt><trkpt lat="44.78723882306862" lon="11.957955691410584"><ele>2.0</ele><time>2026-03-22T14:33:41.884Z</time></trkpt><trkpt lat="44.787135741797954" lon="11.95763570197001"><ele>1.5</ele><time>2026-03-22T14:33:42.885Z</time></trkpt><trkpt lat="44.78703061135505" lon="11.95732143250977"><ele>1.0</ele><time>2026-03-22T14:33:43.885Z</time></trkpt><trkpt lat="44.78691981582089" lon="11.957006186105486"><ele>1.5</ele><time>2026-03-22T14:33:44.885Z</time></trkpt><trkpt lat="44.78679867045287" lon="11.956690376772633"><ele>2.0</ele><time>2026-03-22T14:33:45.884Z</time></trkpt><trkpt lat="44.786669910162594" lon="11.956374255563029"><ele>2.0</ele><time>2026-03-22T14:33:46.884Z</time></trkpt><trkpt lat="44.7865248550172" lon="11.956063912673661"><ele>2.0</ele><time>2026-03-22T14:33:47.884Z</time></trkpt><trkpt lat="44.786374053125954" lon="11.955756426098532"><ele>1.5</ele><time>2026-03-22T14:33:48.884Z</time></trkpt><trkpt lat="44.78621580662621" lon="11.955451312412471"><ele>1.0</ele><time>2026-03-22T14:33:49.884Z</time></trkpt><trkpt lat="44.78604843180293" lon="11.955161722194733"><ele>2.0</ele><time>2026-03-22T14:33:50.884Z</time></trkpt><trkpt lat="44.78588301312894" lon="11.954873701072888"><ele>3.0</ele><time>2026-03-22T14:33:51.884Z</time></trkpt><trkpt lat="44.7857337326098" lon="11.954606583393058"><ele>3.0</ele><time>2026-03-22T14:33:52.884Z</time></trkpt><trkpt lat="44.78558417733425" lon="11.954362226915327"><ele>3.0</ele><time>2026-03-22T14:33:53.884Z</time></trkpt><trkpt lat="44.785448579313965" lon="11.954129182815269"><ele>3.0</ele><time>2026-03-22T14:33:54.884Z</time></trkpt><trkpt lat="44.785319844447265" lon="11.953913973389549"><ele>3.0</ele><time>2026-03-22T14:33:55.884Z</time></trkpt><trkpt lat="44.78519253645129" lon="11.953714537879655"><ele>3.0</ele><time>2026-03-22T14:33:56.884Z</time></trkpt><trkpt lat="44.785073491658565" lon="11.95350087214196"><ele>3.0</ele><time>2026-03-22T14:33:57.884Z</time></trkpt><trkpt lat="44.78494777777846" lon="11.953290536982466"><ele>2.6666666666666665</ele><time>2026-03-22T14:33:58.884Z</time></trkpt><trkpt lat="44.78482098191378" lon="11.953088204373753"><ele>2.333333333333333</ele><time>2026-03-22T14:33:59.884Z</time></trkpt><trkpt lat="44.784688836495384" lon="11.952874362603298"><ele>2.0</ele><time>2026-03-22T14:34:00.884Z</time></trkpt><trkpt lat="44.78454908444459" lon="11.95264746306846"><ele>2.0</ele><time>2026-03-22T14:34:01.884Z</time></trkpt><trkpt lat="44.78440758626222" lon="11.952398157230446"><ele>2.0</ele><time>2026-03-22T14:34:02.884Z</time></trkpt><trkpt lat="44.78425553807134" lon="11.952157284952412"><ele>2.5</ele><time>2026-03-22T14:34:03.884Z</time></trkpt><trkpt lat="44.784105452074805" lon="11.951908743541646"><ele>3.0</ele><time>2026-03-22T14:34:04.884Z</time></trkpt><trkpt lat="44.78396447875428" lon="11.951668936380646"><ele>4.0</ele><time>2026-03-22T14:34:05.884Z</time></trkpt><trkpt lat="44.78382548242933" lon="11.951441108739294"><ele>5.0</ele><time>2026-03-22T14:34:06.883Z</time></trkpt><trkpt lat="44.78369171327684" lon="11.95121325282855"><ele>6.0</ele><time>2026-03-22T14:34:07.883Z</time></trkpt><trkpt lat="44.78357412311765" lon="11.950991663259652"><ele>5.666666666666667</ele><time>2026-03-22T14:34:08.883Z</time></trkpt><trkpt lat="44.783444158078964" lon="11.950781806329775"><ele>5.333333333333334</ele><time>2026-03-22T14:34:09.883Z</time></trkpt><trkpt lat="44.783310809566316" lon="11.950573060133763"><ele>5.0</ele><time>2026-03-22T14:34:10.883Z</time></trkpt><trkpt lat="44.783165098457964" lon="11.95037510602605"><ele>5.0</ele><time>2026-03-22T14:34:11.883Z</time></trkpt><trkpt lat="44.78301761565834" lon="11.950195388909647"><ele>5.0</ele><time>2026-03-22T14:34:12.883Z</time></trkpt><trkpt lat="44.78286071850753" lon="11.950037013542426"><ele>5.0</ele><time>2026-03-22T14:34:13.883Z</time></trkpt><trkpt lat="44.782689440551046" lon="11.949905115592557"><ele>4.0</ele><time>2026-03-22T14:34:14.883Z</time></trkpt><trkpt lat="44.782510170030804" lon="11.94977830840126"><ele>3.0</ele><time>2026-03-22T14:34:15.883Z</time></trkpt><trkpt lat="44.78233190415723" lon="11.949658231239818"><ele>2.0</ele><time>2026-03-22T14:34:16.883Z</time></trkpt><trkpt lat="44.78215262343572" lon="11.949543757951282"><ele>2.0</ele><time>2026-03-22T14:34:17.883Z</time></trkpt><trkpt lat="44.781972288357" lon="11.949408402871722"><ele>2.0</ele><time>2026-03-22T14:34:18.883Z</time></trkpt><trkpt lat="44.78179748606611" lon="11.949260684738313"><ele>2.0</ele><time>2026-03-22T14:34:19.883Z</time></trkpt><trkpt lat="44.781619144307484" lon="11.949119239448622"><ele>2.333333333333333</ele><time>2026-03-22T14:34:20.883Z</time></trkpt><trkpt lat="44.78144926313228" lon="11.948964797007712"><ele>2.6666666666666665</ele><time>2026-03-22T14:34:21.883Z</time></trkpt><trkpt lat="44.7812871552758" lon="11.948795698495063"><ele>3.0</ele><time>2026-03-22T14:34:22.883Z</time></trkpt><trkpt lat="44.78113134482221" lon="11.948620498602143"><ele>2.6666666666666665</ele><time>2026-03-22T14:34:23.883Z</time></trkpt><trkpt lat="44.780986040032495" lon="11.9484357213779"><ele>2.333333333333333</ele><time>2026-03-22T14:34:24.883Z</time></trkpt><trkpt lat="44.78084278472813" lon="11.948252738283355"><ele>2.0</ele><time>2026-03-22T14:34:25.883Z</time></trkpt><trkpt lat="44.78070195579504" lon="11.948083012394093"><ele>2.0</ele><time>2026-03-22T14:34:26.883Z</time></trkpt><trkpt lat="44.78056927229013" lon="11.947923353022315"><ele>2.0</ele><time>2026-03-22T14:34:27.883Z</time></trkpt><trkpt lat="44.780442384650584" lon="11.947782827336273"><ele>2.0</ele><time>2026-03-22T14:34:28.883Z</time></trkpt><trkpt lat="44.78031358448564" lon="11.947651823702145"><ele>1.6666666666666665</ele><time>2026-03-22T14:34:29.883Z</time></trkpt><trkpt lat="44.780144094079105" lon="11.947537825677584"><ele>1.3333333333333333</ele><time>2026-03-22T14:34:30.883Z</time></trkpt><trkpt lat="44.77995940584697" lon="11.947443580657318"><ele>1.0</ele><time>2026-03-22T14:34:31.883Z</time></trkpt><trkpt lat="44.77975571197065" lon="11.947365379507513"><ele>1.0</ele><time>2026-03-22T14:34:32.883Z</time></trkpt><trkpt lat="44.779539166405414" lon="11.947319172390495"><ele>1.0</ele><time>2026-03-22T14:34:33.883Z</time></trkpt><trkpt lat="44.77933306309189" lon="11.947267004285802"><ele>1.0</ele><time>2026-03-22T14:34:34.883Z</time></trkpt><trkpt lat="44.779131312022564" lon="11.947202749729644"><ele>1.3333333333333333</ele><time>2026-03-22T14:34:35.883Z</time></trkpt><trkpt lat="44.778936500940766" lon="11.947125790045957"><ele>1.6666666666666665</ele><time>2026-03-22T14:34:36.883Z</time></trkpt><trkpt lat="44.77874128253514" lon="11.947035740947436"><ele>2.0</ele><time>2026-03-22T14:34:37.883Z</time></trkpt><trkpt lat="44.7785465836854" lon="11.946929105168747"><ele>2.0</ele><time>2026-03-22T14:34:38.883Z</time></trkpt><trkpt lat="44.77835501116377" lon="11.94678095632517"><ele>2.0</ele><time>2026-03-22T14:34:39.882Z</time></trkpt><trkpt lat="44.77815657650055" lon="11.946656388915219"><ele>2.0</ele><time>2026-03-22T14:34:40.882Z</time></trkpt><trkpt lat="44.77797027857184" lon="11.94652508535071"><ele>2.0</ele><time>2026-03-22T14:34:41.882Z</time></trkpt><trkpt lat="44.77779205774312" lon="11.946391600682558"><ele>2.0</ele><time>2026-03-22T14:34:42.882Z</time></trkpt><trkpt lat="44.77760868104809" lon="11.946256723520788"><ele>2.0</ele><time>2026-03-22T14:34:43.882Z</time></trkpt><trkpt lat="44.77742087168434" lon="11.946118888175652"><ele>2.0</ele><time>2026-03-22T14:34:44.882Z</time></trkpt><trkpt lat="44.77724285576798" lon="11.945982732061703"><ele>2.0</ele><time>2026-03-22T14:34:45.882Z</time></trkpt><trkpt lat="44.77708002785854" lon="11.945839471003675"><ele>2.0</ele><time>2026-03-22T14:34:46.882Z</time></trkpt><trkpt lat="44.77691976873933" lon="11.945681281113844"><ele>2.333333333333333</ele><time>2026-03-22T14:34:47.882Z</time></trkpt><trkpt lat="44.77676497206467" lon="11.945513328485664"><ele>2.6666666666666665</ele><time>2026-03-22T14:34:48.882Z</time></trkpt><trkpt lat="44.776615386873296" lon="11.945324264252106"><ele>3.0</ele><time>2026-03-22T14:34:49.882Z</time></trkpt><trkpt lat="44.77647213418192" lon="11.945113139586164"><ele>3.0</ele><time>2026-03-22T14:34:50.882Z</time></trkpt><trkpt lat="44.77633490788397" lon="11.944897437171605"><ele>3.0</ele><time>2026-03-22T14:34:51.882Z</time></trkpt><trkpt lat="44.77620206381032" lon="11.944670475452247"><ele>3.0</ele><time>2026-03-22T14:34:52.882Z</time></trkpt><trkpt lat="44.77606873688351" lon="11.94443602086318"><ele>2.3333333333333335</ele><time>2026-03-22T14:34:53.882Z</time></trkpt><trkpt lat="44.775946451258896" lon="11.944193780764529"><ele>1.6666666666666665</ele><time>2026-03-22T14:34:54.882Z</time></trkpt><trkpt lat="44.77582305782891" lon="11.943960390411231"><ele>1.0</ele><time>2026-03-22T14:34:55.882Z</time></trkpt><trkpt lat="44.77570315180418" lon="11.943737493279748"><ele>1.0</ele><time>2026-03-22T14:34:56.882Z</time></trkpt><trkpt lat="44.775581362879024" lon="11.943532350600336"><ele>1.0</ele><time>2026-03-22T14:34:57.882Z</time></trkpt><trkpt lat="44.77544010423763" lon="11.943351212999733"><ele>1.0</ele><time>2026-03-22T14:34:58.882Z</time></trkpt><trkpt lat="44.77529350578018" lon="11.943176369179191"><ele>1.0</ele><time>2026-03-22T14:34:59.882Z</time></trkpt><trkpt lat="44.775127282696204" lon="11.94303446196432"><ele>1.0</ele><time>2026-03-22T14:35:00.882Z</time></trkpt><trkpt lat="44.77495552055094" lon="11.942897563247005"><ele>1.0</ele><time>2026-03-22T14:35:01.882Z</time></trkpt><trkpt lat="44.77478652258266" lon="11.942762371589657"><ele>1.0</ele><time>2026-03-22T14:35:02.882Z</time></trkpt><trkpt lat="44.7746237961138" lon="11.94262850612422"><ele>1.0</ele><time>2026-03-22T14:35:03.882Z</time></trkpt><trkpt lat="44.774478301180515" lon="11.942506428621249"><ele>1.0</ele><time>2026-03-22T14:35:04.882Z</time></trkpt><trkpt lat="44.774337957787196" lon="11.942412168876295"><ele>1.0</ele><time>2026-03-22T14:35:05.882Z</time></trkpt><trkpt lat="44.77421564270954" lon="11.942305789633345"><ele>1.0</ele><time>2026-03-22T14:35:06.882Z</time></trkpt><trkpt lat="44.774104101826225" lon="11.94220447571404"><ele>1.0</ele><time>2026-03-22T14:35:07.882Z</time></trkpt><trkpt lat="44.77400282533944" lon="11.942114246075766"><ele>1.0</ele><time>2026-03-22T14:35:08.882Z</time></trkpt><trkpt lat="44.77392175197981" lon="11.942012638163689"><ele>0.9999999999999999</ele><time>2026-03-22T14:35:09.882Z</time></trkpt><trkpt lat="44.77383700009039" lon="11.941941202475174"><ele>1.0</ele><time>2026-03-22T14:35:10.882Z</time></trkpt><trkpt lat="44.773772391784505" lon="11.941864976593582"><ele>1.0</ele><time>2026-03-22T14:35:11.882Z</time></trkpt><trkpt lat="44.77372337339012" lon="11.941782527352702"><ele>1.0</ele><time>2026-03-22T14:35:12.882Z</time></trkpt><trkpt lat="44.773663520064815" lon="11.941738170558086"><ele>0.9999999999999999</ele><time>2026-03-22T14:35:13.881Z</time></trkpt><trkpt lat="44.77365787013666" lon="11.941596927448266"><ele>1.0</ele><time>2026-03-22T14:35:14.881Z</time></trkpt><trkpt lat="44.77362025439594" lon="11.941475710874585"><ele>1.0</ele><time>2026-03-22T14:35:15.881Z</time></trkpt><trkpt lat="44.77357905692247" lon="11.941346960817375"><ele>1.0</ele><time>2026-03-22T14:35:16.881Z</time></trkpt><trkpt lat="44.7735476909088" lon="11.941199291160403"><ele>1.0</ele><time>2026-03-22T14:35:17.881Z</time></trkpt><trkpt lat="44.773514923769596" lon="11.941030227378928"><ele>1.0</ele><time>2026-03-22T14:35:18.881Z</time></trkpt><trkpt lat="44.77352605094937" lon="11.940834494847941"><ele>1.6666666666666665</ele><time>2026-03-22T14:35:19.881Z</time></trkpt><trkpt lat="44.77355156982264" lon="11.940636636371595"><ele>2.3333333333333335</ele><time>2026-03-22T14:35:20.881Z</time></trkpt><trkpt lat="44.77361478157599" lon="11.940425486450343"><ele>3.0</ele><time>2026-03-22T14:35:21.881Z</time></trkpt><trkpt lat="44.77365459136999" lon="11.940210178575922"><ele>3.666666666666667</ele><time>2026-03-22T14:35:22.881Z</time></trkpt><trkpt lat="44.773699165808004" lon="11.939977282567957"><ele>4.333333333333334</ele><time>2026-03-22T14:35:23.881Z</time></trkpt><trkpt lat="44.773740065020334" lon="11.939740435635164"><ele>5.0</ele><time>2026-03-22T14:35:24.881Z</time></trkpt><trkpt lat="44.773777714326165" lon="11.939506256118456"><ele>5.0</ele><time>2026-03-22T14:35:25.881Z</time></trkpt><trkpt lat="44.77381315896134" lon="11.939286993183176"><ele>5.0</ele><time>2026-03-22T14:35:26.881Z</time></trkpt><trkpt lat="44.77384441424093" lon="11.939096246072538"><ele>5.0</ele><time>2026-03-22T14:35:27.881Z</time></trkpt><trkpt lat="44.773877956683855" lon="11.938931993288875"><ele>5.0</ele><time>2026-03-22T14:35:28.881Z</time></trkpt><trkpt lat="44.7738582015292" lon="11.938787126786547"><ele>5.0</ele><time>2026-03-22T14:35:29.881Z</time></trkpt><trkpt lat="44.773963944053506" lon="11.938661534366025"><ele>5.0</ele><time>2026-03-22T14:35:30.881Z</time></trkpt><trkpt lat="44.77405001310496" lon="11.93854942546501"><ele>5.0</ele><time>2026-03-22T14:35:31.881Z</time></trkpt><trkpt lat="44.77417535883265" lon="11.93845011122867"><ele>5.0</ele><time>2026-03-22T14:35:32.881Z</time></trkpt><trkpt lat="44.77431660318457" lon="11.938332252095826"><ele>4.0</ele><time>2026-03-22T14:35:33.881Z</time></trkpt><trkpt lat="44.774453664628375" lon="11.938199182634197"><ele>3.0</ele><time>2026-03-22T14:35:34.881Z</time></trkpt><trkpt lat="44.77459204481246" lon="11.938062368513242"><ele>2.0</ele><time>2026-03-22T14:35:35.881Z</time></trkpt><trkpt lat="44.774732727598675" lon="11.93792757503495"><ele>2.0</ele><time>2026-03-22T14:35:36.881Z</time></trkpt><trkpt lat="44.77485492660409" lon="11.93781162019511"><ele>2.0</ele><time>2026-03-22T14:35:37.881Z</time></trkpt><trkpt lat="44.77495005623589" lon="11.937720963539316"><ele>2.0</ele><time>2026-03-22T14:35:38.881Z</time></trkpt><trkpt lat="44.775023938703264" lon="11.937650361040358"><ele>2.0</ele><time>2026-03-22T14:35:39.881Z</time></trkpt><trkpt lat="44.775087693016424" lon="11.937568981738329"><ele>2.0</ele><time>2026-03-22T14:35:41.881Z</time></trkpt><trkpt lat="44.775149772179454" lon="11.937495757290375"><ele>1.75</ele><time>2026-03-22T14:35:43.882Z</time></trkpt><trkpt lat="44.77508743471842" lon="11.937352784826867"><ele>1.5</ele><time>2026-03-22T14:35:44.882Z</time></trkpt><trkpt lat="44.77502221475237" lon="11.937246052159624"><ele>1.25</ele><time>2026-03-22T14:35:45.882Z</time></trkpt><trkpt lat="44.77494286157978" lon="11.937109963304026"><ele>1.0</ele><time>2026-03-22T14:35:46.882Z</time></trkpt><trkpt lat="44.77485078995872" lon="11.936941618143162"><ele>1.0</ele><time>2026-03-22T14:35:47.882Z</time></trkpt><trkpt lat="44.774757545469726" lon="11.936771487985988"><ele>1.0</ele><time>2026-03-22T14:35:48.882Z</time></trkpt><trkpt lat="44.7746596013742" lon="11.936578258908016"><ele>1.0</ele><time>2026-03-22T14:35:49.883Z</time></trkpt><trkpt lat="44.7745545439747" lon="11.936373659212887"><ele>1.3333333333333333</ele><time>2026-03-22T14:35:50.883Z</time></trkpt><trkpt lat="44.77444591591162" lon="11.936166200429192"><ele>1.6666666666666665</ele><time>2026-03-22T14:35:51.882Z</time></trkpt><trkpt lat="44.774360998545816" lon="11.935936715487603"><ele>2.0</ele><time>2026-03-22T14:35:52.882Z</time></trkpt><trkpt lat="44.77426751441615" lon="11.935745348235878"><ele>2.333333333333333</ele><time>2026-03-22T14:35:53.882Z</time></trkpt><trkpt lat="44.77417595129742" lon="11.935564935086317"><ele>2.6666666666666665</ele><time>2026-03-22T14:35:54.882Z</time></trkpt><trkpt lat="44.77408202474925" lon="11.935379937179736"><ele>3.0</ele><time>2026-03-22T14:35:55.882Z</time></trkpt><trkpt lat="44.77398374550069" lon="11.93518686006693"><ele>2.6666666666666665</ele><time>2026-03-22T14:35:56.882Z</time></trkpt><trkpt lat="44.77388657938725" lon="11.934993686099423"><ele>2.333333333333333</ele><time>2026-03-22T14:35:57.882Z</time></trkpt><trkpt lat="44.77379117491055" lon="11.934803950860166"><ele>2.0</ele><time>2026-03-22T14:35:58.882Z</time></trkpt><trkpt lat="44.77369602003938" lon="11.934621349974659"><ele>2.0</ele><time>2026-03-22T14:35:59.882Z</time></trkpt><trkpt lat="44.77359549929136" lon="11.934434885600067"><ele>2.0</ele><time>2026-03-22T14:36:00.882Z</time></trkpt><trkpt lat="44.77349655252118" lon="11.93425559365017"><ele>2.0</ele><time>2026-03-22T14:36:01.882Z</time></trkpt><trkpt lat="44.773405241628836" lon="11.934071334315837"><ele>1.75</ele><time>2026-03-22T14:36:02.882Z</time></trkpt><trkpt lat="44.7733232569278" lon="11.9338938350818"><ele>1.5</ele><time>2026-03-22T14:36:03.882Z</time></trkpt><trkpt lat="44.773256829833315" lon="11.933722632104011"><ele>1.25</ele><time>2026-03-22T14:36:04.882Z</time></trkpt><trkpt lat="44.77320104674719" lon="11.933570519234275"><ele>1.0</ele><time>2026-03-22T14:36:05.882Z</time></trkpt><trkpt lat="44.773167875792346" lon="11.933415547250187"><ele>1.25</ele><time>2026-03-22T14:36:06.882Z</time></trkpt><trkpt lat="44.77316594347394" lon="11.933263064883088"><ele>1.5</ele><time>2026-03-22T14:36:07.882Z</time></trkpt><trkpt lat="44.77319875522642" lon="11.933118195673512"><ele>1.75</ele><time>2026-03-22T14:36:08.882Z</time></trkpt><trkpt lat="44.77328652265538" lon="11.93297798901153"><ele>2.0</ele><time>2026-03-22T14:36:09.882Z</time></trkpt><trkpt lat="44.77341127010892" lon="11.932848611295178"><ele>2.0</ele><time>2026-03-22T14:36:10.882Z</time></trkpt><trkpt lat="44.773568830190996" lon="11.932741070631497"><ele>2.0</ele><time>2026-03-22T14:36:11.882Z</time></trkpt><trkpt lat="44.77373684504486" lon="11.932600758921147"><ele>2.0</ele><time>2026-03-22T14:36:12.882Z</time></trkpt><trkpt lat="44.773907467912544" lon="11.932458269234065"><ele>2.0</ele><time>2026-03-22T14:36:13.882Z</time></trkpt><trkpt lat="44.774093653034534" lon="11.932302783238049"><ele>2.0</ele><time>2026-03-22T14:36:14.882Z</time></trkpt><trkpt lat="44.7742900386172" lon="11.932138752049527"><ele>2.0</ele><time>2026-03-22T14:36:15.882Z</time></trkpt><trkpt lat="44.774499631183524" lon="11.931963600400625"><ele>0.5</ele><time>2026-03-22T14:36:16.881Z</time></trkpt><trkpt lat="44.774717296810074" lon="11.93178091548972"><ele>-1.0</ele><time>2026-03-22T14:36:17.881Z</time></trkpt><trkpt lat="44.77493858403858" lon="11.931594435691371"><ele>-1.0</ele><time>2026-03-22T14:36:18.881Z</time></trkpt><trkpt lat="44.77516542953537" lon="11.931403271871558"><ele>-1.0</ele><time>2026-03-22T14:36:19.881Z</time></trkpt><trkpt lat="44.775392056165224" lon="11.931212292595436"><ele>-1.0</ele><time>2026-03-22T14:36:20.881Z</time></trkpt><trkpt lat="44.77561769124954" lon="11.931022505814393"><ele>-1.0</ele><time>2026-03-22T14:36:21.881Z</time></trkpt><trkpt lat="44.77584368239623" lon="11.93083251466886"><ele>0.5</ele><time>2026-03-22T14:36:22.881Z</time></trkpt><trkpt lat="44.776082933886755" lon="11.930633901114275"><ele>2.0</ele><time>2026-03-22T14:36:23.881Z</time></trkpt><trkpt lat="44.77633216437072" lon="11.930426985394941"><ele>2.0</ele><time>2026-03-22T14:36:24.881Z</time></trkpt><trkpt lat="44.776588645672035" lon="11.930213855200723"><ele>2.0</ele><time>2026-03-22T14:36:25.881Z</time></trkpt><trkpt lat="44.776844701542935" lon="11.929986073522013"><ele>0.0</ele><time>2026-03-22T14:36:26.881Z</time></trkpt><trkpt lat="44.77711701159198" lon="11.929772944916499"><ele>-2.0</ele><time>2026-03-22T14:36:27.881Z</time></trkpt><trkpt lat="44.7773826913271" lon="11.92955248150288"><ele>-2.0</ele><time>2026-03-22T14:36:28.881Z</time></trkpt><trkpt lat="44.77764825257223" lon="11.929336415552005"><ele>-2.0</ele><time>2026-03-22T14:36:29.881Z</time></trkpt><trkpt lat="44.77791521054008" lon="11.929124023122082"><ele>-2.0</ele><time>2026-03-22T14:36:30.881Z</time></trkpt><trkpt lat="44.778180466194584" lon="11.928908463765199"><ele>-2.0</ele><time>2026-03-22T14:36:31.881Z</time></trkpt><trkpt lat="44.778444596461526" lon="11.928695139695812"><ele>-1.5</ele><time>2026-03-22T14:36:32.881Z</time></trkpt><trkpt lat="44.77869583469242" lon="11.928491811159557"><ele>-1.0</ele><time>2026-03-22T14:36:33.881Z</time></trkpt><trkpt lat="44.77893641795984" lon="11.928293908111028"><ele>-1.0</ele><time>2026-03-22T14:36:34.881Z</time></trkpt><trkpt lat="44.779165295763164" lon="11.928099427169803"><ele>-1.0</ele><time>2026-03-22T14:36:35.881Z</time></trkpt><trkpt lat="44.77938738414211" lon="11.927915148470756"><ele>-1.0</ele><time>2026-03-22T14:36:36.881Z</time></trkpt><trkpt lat="44.77959146243763" lon="11.927742481501815"><ele>-1.0</ele><time>2026-03-22T14:36:37.881Z</time></trkpt><trkpt lat="44.77978531977024" lon="11.927586407351757"><ele>-1.0</ele><time>2026-03-22T14:36:38.881Z</time></trkpt><trkpt lat="44.77996898211693" lon="11.927432616184213"><ele>-1.0</ele><time>2026-03-22T14:36:39.881Z</time></trkpt><trkpt lat="44.78013488836588" lon="11.927295192412293"><ele>-1.0</ele><time>2026-03-22T14:36:40.881Z</time></trkpt><trkpt lat="44.78029176851049" lon="11.927167522171382"><ele>-1.0</ele><time>2026-03-22T14:36:41.881Z</time></trkpt><trkpt lat="44.78044874004892" lon="11.927035293530443"><ele>-1.0</ele><time>2026-03-22T14:36:42.881Z</time></trkpt><trkpt lat="44.780601243506595" lon="11.926914903497565"><ele>-1.0</ele><time>2026-03-22T14:36:43.881Z</time></trkpt><trkpt lat="44.78073802532291" lon="11.926797222342959"><ele>-1.0</ele><time>2026-03-22T14:36:44.881Z</time></trkpt><trkpt lat="44.780861429089676" lon="11.926691756822324"><ele>-1.0</ele><time>2026-03-22T14:36:45.881Z</time></trkpt><trkpt lat="44.780969243808826" lon="11.92658020037281"><ele>-1.0</ele><time>2026-03-22T14:36:46.881Z</time></trkpt><trkpt lat="44.781047254905154" lon="11.92643593519244"><ele>-1.0</ele><time>2026-03-22T14:36:47.881Z</time></trkpt><trkpt lat="44.78109047000061" lon="11.926243308467916"><ele>-1.0</ele><time>2026-03-22T14:36:48.88Z</time></trkpt><trkpt lat="44.7810999997474" lon="11.92601986177125"><ele>-1.0</ele><time>2026-03-22T14:36:49.88Z</time></trkpt><trkpt lat="44.78110498670609" lon="11.925771798156267"><ele>-1.0</ele><time>2026-03-22T14:36:50.88Z</time></trkpt><trkpt lat="44.78110316013708" lon="11.925506778031004"><ele>-1.3333333333333333</ele><time>2026-03-22T14:36:51.88Z</time></trkpt><trkpt lat="44.781086818309824" lon="11.92521872172019"><ele>-1.6666666666666665</ele><time>2026-03-22T14:36:52.88Z</time></trkpt><trkpt lat="44.78106813645023" lon="11.924925499594936"><ele>-2.0</ele><time>2026-03-22T14:36:53.88Z</time></trkpt><trkpt lat="44.78104617175932" lon="11.924633577365299"><ele>-2.333333333333333</ele><time>2026-03-22T14:36:54.88Z</time></trkpt><trkpt lat="44.78102399874937" lon="11.924350691494531"><ele>-2.6666666666666665</ele><time>2026-03-22T14:36:55.88Z</time></trkpt><trkpt lat="44.781008241111" lon="11.924080359250597"><ele>-3.0</ele><time>2026-03-22T14:36:56.88Z</time></trkpt><trkpt lat="44.78097984282964" lon="11.92382258894093"><ele>-2.3333333333333335</ele><time>2026-03-22T14:36:57.88Z</time></trkpt><trkpt lat="44.7809403921899" lon="11.923576107610998"><ele>-1.6666666666666665</ele><time>2026-03-22T14:36:58.88Z</time></trkpt><trkpt lat="44.78087784932464" lon="11.923331926168581"><ele>-1.0</ele><time>2026-03-22T14:36:59.88Z</time></trkpt><trkpt lat="44.78079454065729" lon="11.923085127643477"><ele>-0.6666666666666666</ele><time>2026-03-22T14:37:00.88Z</time></trkpt><trkpt lat="44.78071203667562" lon="11.92283749607785"><ele>-0.3333333333333333</ele><time>2026-03-22T14:37:01.88Z</time></trkpt><trkpt lat="44.78063095517112" lon="11.922604434354092"><ele>0.0</ele><time>2026-03-22T14:37:02.88Z</time></trkpt><trkpt lat="44.7805470207269" lon="11.922384286624103"><ele>0.0</ele><time>2026-03-22T14:37:03.88Z</time></trkpt><trkpt lat="44.780461038845544" lon="11.922145942008099"><ele>0.0</ele><time>2026-03-22T14:37:04.88Z</time></trkpt><trkpt lat="44.78037834543563" lon="11.921888338116228"><ele>0.0</ele><time>2026-03-22T14:37:05.88Z</time></trkpt><trkpt lat="44.78029098623632" lon="11.921625555018965"><ele>0.0</ele><time>2026-03-22T14:37:06.88Z</time></trkpt><trkpt lat="44.780234104086155" lon="11.921353007314577"><ele>0.0</ele><time>2026-03-22T14:37:07.88Z</time></trkpt><trkpt lat="44.78020903627302" lon="11.921061491567572"><ele>0.0</ele><time>2026-03-22T14:37:08.88Z</time></trkpt><trkpt lat="44.780209999450385" lon="11.920760955150918"><ele>0.0</ele><time>2026-03-22T14:37:09.88Z</time></trkpt><trkpt lat="44.78023918356056" lon="11.920454558608025"><ele>0.0</ele><time>2026-03-22T14:37:10.88Z</time></trkpt><trkpt lat="44.78029704274102" lon="11.920146934284855"><ele>0.0</ele><time>2026-03-22T14:37:11.88Z</time></trkpt><trkpt lat="44.78036857173379" lon="11.919832875009172"><ele>-0.5</ele><time>2026-03-22T14:37:12.88Z</time></trkpt><trkpt lat="44.78045261946891" lon="11.919514606375605"><ele>-1.0</ele><time>2026-03-22T14:37:13.88Z</time></trkpt><trkpt lat="44.780546014623255" lon="11.919191832130645"><ele>-1.5</ele><time>2026-03-22T14:37:14.88Z</time></trkpt><trkpt lat="44.780648226216776" lon="11.918864864281487"><ele>-2.0</ele><time>2026-03-22T14:37:15.88Z</time></trkpt><trkpt lat="44.78074830248552" lon="11.918543421218851"><ele>-1.0</ele><time>2026-03-22T14:37:16.88Z</time></trkpt><trkpt lat="44.78085055515995" lon="11.918229304647245"><ele>0.0</ele><time>2026-03-22T14:37:17.88Z</time></trkpt><trkpt lat="44.78096182783257" lon="11.917902216124581"><ele>-1.0</ele><time>2026-03-22T14:37:18.88Z</time></trkpt><trkpt lat="44.78109080280834" lon="11.917577972159059"><ele>-2.0</ele><time>2026-03-22T14:37:19.88Z</time></trkpt><trkpt lat="44.7812371379109" lon="11.917260896189116"><ele>-2.0</ele><time>2026-03-22T14:37:20.88Z</time></trkpt><trkpt lat="44.78138864915255" lon="11.91693987321121"><ele>-2.0</ele><time>2026-03-22T14:37:21.879Z</time></trkpt><trkpt lat="44.78154554610424" lon="11.916625604277357"><ele>-2.0</ele><time>2026-03-22T14:37:22.879Z</time></trkpt><trkpt lat="44.78168570466748" lon="11.916313563274226"><ele>-2.0</ele><time>2026-03-22T14:37:23.879Z</time></trkpt><trkpt lat="44.78182319830519" lon="11.916010383437019"><ele>-2.0</ele><time>2026-03-22T14:37:24.879Z</time></trkpt><trkpt lat="44.78195583677696" lon="11.915717713722271"><ele>-2.0</ele><time>2026-03-22T14:37:25.879Z</time></trkpt><trkpt lat="44.78208533859436" lon="11.91544297517343"><ele>-2.0</ele><time>2026-03-22T14:37:26.879Z</time></trkpt><trkpt lat="44.7822190369963" lon="11.915158875115523"><ele>-2.0</ele><time>2026-03-22T14:37:27.879Z</time></trkpt><trkpt lat="44.78237631053796" lon="11.914873301762382"><ele>-1.0</ele><time>2026-03-22T14:37:28.879Z</time></trkpt><trkpt lat="44.782540983884466" lon="11.914585913815008"><ele>0.0</ele><time>2026-03-22T14:37:29.879Z</time></trkpt><trkpt lat="44.78273357056967" lon="11.914317602597485"><ele>0.0</ele><time>2026-03-22T14:37:30.879Z</time></trkpt><trkpt lat="44.78292690794438" lon="11.914033192594214"><ele>0.0</ele><time>2026-03-22T14:37:31.879Z</time></trkpt><trkpt lat="44.78311915187395" lon="11.913757120080804"><ele>0.0</ele><time>2026-03-22T14:37:32.879Z</time></trkpt><trkpt lat="44.78330463933916" lon="11.913469586774838"><ele>0.0</ele><time>2026-03-22T14:37:33.879Z</time></trkpt><trkpt lat="44.78349190490267" lon="11.91318351123202"><ele>-1.0</ele><time>2026-03-22T14:37:34.879Z</time></trkpt><trkpt lat="44.78367600623683" lon="11.912893076109718"><ele>-2.0</ele><time>2026-03-22T14:37:35.879Z</time></trkpt><trkpt lat="44.78385741102859" lon="11.912587613427432"><ele>-1.5</ele><time>2026-03-22T14:37:36.879Z</time></trkpt><trkpt lat="44.78404089408477" lon="11.912269187408768"><ele>-1.0</ele><time>2026-03-22T14:37:37.879Z</time></trkpt><trkpt lat="44.78422066134884" lon="11.911945145831186"><ele>-2.0</ele><time>2026-03-22T14:37:38.879Z</time></trkpt><trkpt lat="44.78440266068877" lon="11.91161032369244"><ele>-3.0</ele><time>2026-03-22T14:37:39.879Z</time></trkpt><trkpt lat="44.78457934123157" lon="11.911263125020655"><ele>-3.0</ele><time>2026-03-22T14:37:40.879Z</time></trkpt><trkpt lat="44.78476053624017" lon="11.910908548971221"><ele>-3.0</ele><time>2026-03-22T14:37:41.879Z</time></trkpt><trkpt lat="44.78494980385463" lon="11.910540273205383"><ele>-3.0</ele><time>2026-03-22T14:37:42.879Z</time></trkpt><trkpt lat="44.78514797878694" lon="11.910171617528261"><ele>-3.0</ele><time>2026-03-22T14:37:43.879Z</time></trkpt><trkpt lat="44.785346781346725" lon="11.909797021387929"><ele>-2.5</ele><time>2026-03-22T14:37:44.879Z</time></trkpt><trkpt lat="44.785549021163995" lon="11.90941846156324"><ele>-2.0</ele><time>2026-03-22T14:37:45.879Z</time></trkpt><trkpt lat="44.78574514080063" lon="11.909045675752319"><ele>-1.5</ele><time>2026-03-22T14:37:46.879Z</time></trkpt><trkpt lat="44.785951643305495" lon="11.908668201268949"><ele>-1.0</ele><time>2026-03-22T14:37:47.879Z</time></trkpt><trkpt lat="44.78615934341929" lon="11.908298239038464"><ele>-1.0</ele><time>2026-03-22T14:37:48.88Z</time></trkpt><trkpt lat="44.78636037838256" lon="11.907935578433014"><ele>-1.0</ele><time>2026-03-22T14:37:49.88Z</time></trkpt><trkpt lat="44.786563156612516" lon="11.907578669639799"><ele>-1.0</ele><time>2026-03-22T14:37:50.88Z</time></trkpt><trkpt lat="44.78675866793212" lon="11.907222677208836"><ele>-1.0</ele><time>2026-03-22T14:37:51.88Z</time></trkpt><trkpt lat="44.78695448442028" lon="11.906873814571586"><ele>-0.5</ele><time>2026-03-22T14:37:52.88Z</time></trkpt><trkpt lat="44.78714055429552" lon="11.906526158527672"><ele>0.0</ele><time>2026-03-22T14:37:53.88Z</time></trkpt><trkpt lat="44.787318959734925" lon="11.906186008030911"><ele>-0.5</ele><time>2026-03-22T14:37:54.88Z</time></trkpt><trkpt lat="44.78749272959397" lon="11.905862464395101"><ele>-1.0</ele><time>2026-03-22T14:37:55.88Z</time></trkpt><trkpt lat="44.78765701272569" lon="11.905550242024338"><ele>-0.5</ele><time>2026-03-22T14:37:56.88Z</time></trkpt><trkpt lat="44.78781367290521" lon="11.90525350326862"><ele>0.0</ele><time>2026-03-22T14:37:57.88Z</time></trkpt><trkpt lat="44.7879697454124" lon="11.904977652267757"><ele>0.0</ele><time>2026-03-22T14:37:58.88Z</time></trkpt><trkpt lat="44.78812178100975" lon="11.904704366769328"><ele>0.0</ele><time>2026-03-22T14:37:59.88Z</time></trkpt><trkpt lat="44.78826569814011" lon="11.904445054241695"><ele>0.0</ele><time>2026-03-22T14:38:00.879Z</time></trkpt><trkpt lat="44.788403622534595" lon="11.904197090570507"><ele>0.0</ele><time>2026-03-22T14:38:01.879Z</time></trkpt><trkpt lat="44.78853301752011" lon="11.90394610030658"><ele>0.0</ele><time>2026-03-22T14:38:02.879Z</time></trkpt><trkpt lat="44.78865447711753" lon="11.903671026119408"><ele>0.0</ele><time>2026-03-22T14:38:03.879Z</time></trkpt><trkpt lat="44.788761130085554" lon="11.903381836552562"><ele>0.0</ele><time>2026-03-22T14:38:04.879Z</time></trkpt><trkpt lat="44.78887763119067" lon="11.90310236438225"><ele>0.0</ele><time>2026-03-22T14:38:05.879Z</time></trkpt><trkpt lat="44.78899893039581" lon="11.902824223569969"><ele>0.0</ele><time>2026-03-22T14:38:06.879Z</time></trkpt><trkpt lat="44.789140187554395" lon="11.902545808522818"><ele>-0.5</ele><time>2026-03-22T14:38:07.879Z</time></trkpt><trkpt lat="44.789283087246645" lon="11.902254803765146"><ele>-1.0</ele><time>2026-03-22T14:38:08.879Z</time></trkpt><trkpt lat="44.78943953551508" lon="11.90196401177309"><ele>-0.5</ele><time>2026-03-22T14:38:09.879Z</time></trkpt><trkpt lat="44.78958367382108" lon="11.90169678651804"><ele>0.0</ele><time>2026-03-22T14:38:10.879Z</time></trkpt><trkpt lat="44.78972550122999" lon="11.90143150238533"><ele>0.0</ele><time>2026-03-22T14:38:11.879Z</time></trkpt><trkpt lat="44.789866769810075" lon="11.901172226056213"><ele>0.0</ele><time>2026-03-22T14:38:12.879Z</time></trkpt><trkpt lat="44.79000306242114" lon="11.900932371161062"><ele>0.0</ele><time>2026-03-22T14:38:13.879Z</time></trkpt><trkpt lat="44.790138170673885" lon="11.900706938951513"><ele>0.0</ele><time>2026-03-22T14:38:14.879Z</time></trkpt><trkpt lat="44.79028260391924" lon="11.900492717342594"><ele>0.0</ele><time>2026-03-22T14:38:15.879Z</time></trkpt><trkpt lat="44.79041628843301" lon="11.900255736720423"><ele>0.0</ele><time>2026-03-22T14:38:16.879Z</time></trkpt><trkpt lat="44.79061429749278" lon="11.900085417546508"><ele>0.0</ele><time>2026-03-22T14:38:17.879Z</time></trkpt><trkpt lat="44.7908079891903" lon="11.899893229129367"><ele>-1.0</ele><time>2026-03-22T14:38:18.879Z</time></trkpt><trkpt lat="44.79101722117584" lon="11.89971030535411"><ele>-2.0</ele><time>2026-03-22T14:38:19.879Z</time></trkpt><trkpt lat="44.79122731618364" lon="11.89953151627486"><ele>-2.0</ele><time>2026-03-22T14:38:20.879Z</time></trkpt><trkpt lat="44.79143744265966" lon="11.899353725379596"><ele>-2.0</ele><time>2026-03-22T14:38:21.879Z</time></trkpt><trkpt lat="44.79164163976224" lon="11.899178424307864"><ele>-1.5</ele><time>2026-03-22T14:38:22.879Z</time></trkpt><trkpt lat="44.79183863730701" lon="11.899014301281364"><ele>-1.0</ele><time>2026-03-22T14:38:23.879Z</time></trkpt><trkpt lat="44.79202688181725" lon="11.898848364561735"><ele>-1.0</ele><time>2026-03-22T14:38:24.879Z</time></trkpt><trkpt lat="44.79219376589495" lon="11.898655413794357"><ele>-1.0</ele><time>2026-03-22T14:38:25.879Z</time></trkpt><trkpt lat="44.79234848689395" lon="11.898443093686154"><ele>-1.0</ele><time>2026-03-22T14:38:26.879Z</time></trkpt><trkpt lat="44.792506062494304" lon="11.898206411288548"><ele>-0.5</ele><time>2026-03-22T14:38:27.879Z</time></trkpt><trkpt lat="44.79266313164131" lon="11.897948762643976"><ele>0.0</ele><time>2026-03-22T14:38:28.879Z</time></trkpt><trkpt lat="44.792812531613315" lon="11.897661685414375"><ele>0.0</ele><time>2026-03-22T14:38:29.879Z</time></trkpt><trkpt lat="44.79295719056832" lon="11.897355350045556"><ele>0.0</ele><time>2026-03-22T14:38:30.879Z</time></trkpt><trkpt lat="44.79309986903355" lon="11.897035471793231"><ele>0.0</ele><time>2026-03-22T14:38:31.879Z</time></trkpt><trkpt lat="44.79325805128844" lon="11.89672703425267"><ele>0.0</ele><time>2026-03-22T14:38:32.879Z</time></trkpt><trkpt lat="44.79340867871157" lon="11.896416553332015"><ele>-0.5</ele><time>2026-03-22T14:38:33.879Z</time></trkpt><trkpt lat="44.79356809319993" lon="11.89610758614598"><ele>-1.0</ele><time>2026-03-22T14:38:34.878Z</time></trkpt><trkpt lat="44.7937248247933" lon="11.895800304280053"><ele>-1.5</ele><time>2026-03-22T14:38:35.878Z</time></trkpt><trkpt lat="44.79386997606478" lon="11.895492678409797"><ele>-2.0</ele><time>2026-03-22T14:38:36.878Z</time></trkpt><trkpt lat="44.794004884028176" lon="11.895184528369441"><ele>-0.5</ele><time>2026-03-22T14:38:37.878Z</time></trkpt><trkpt lat="44.794138272602645" lon="11.894885976179259"><ele>1.0</ele><time>2026-03-22T14:38:38.878Z</time></trkpt><trkpt lat="44.79426654386464" lon="11.894599639030673"><ele>1.0</ele><time>2026-03-22T14:38:39.878Z</time></trkpt><trkpt lat="44.794387904909804" lon="11.894333511992238"><ele>1.0</ele><time>2026-03-22T14:38:40.878Z</time></trkpt><trkpt lat="44.794505079924704" lon="11.894087319287642"><ele>1.0</ele><time>2026-03-22T14:38:41.878Z</time></trkpt><trkpt lat="44.79461626228647" lon="11.893858312974846"><ele>1.0</ele><time>2026-03-22T14:38:42.878Z</time></trkpt><trkpt lat="44.794731037503404" lon="11.893628781356574"><ele>1.0</ele><time>2026-03-22T14:38:43.878Z</time></trkpt><trkpt lat="44.79485555578408" lon="11.89339400416945"><ele>1.0</ele><time>2026-03-22T14:38:44.878Z</time></trkpt><trkpt lat="44.794988964743" lon="11.89316009327878"><ele>1.0</ele><time>2026-03-22T14:38:45.878Z</time></trkpt><trkpt lat="44.79512700161173" lon="11.89293816182141"><ele>1.0</ele><time>2026-03-22T14:38:46.878Z</time></trkpt><trkpt lat="44.7952445283245" lon="11.892717211154444"><ele>1.0</ele><time>2026-03-22T14:38:47.878Z</time></trkpt><trkpt lat="44.795357711906135" lon="11.892506486078162"><ele>1.0</ele><time>2026-03-22T14:38:48.878Z</time></trkpt><trkpt lat="44.79546735615875" lon="11.8923060391693"><ele>1.0</ele><time>2026-03-22T14:38:49.878Z</time></trkpt><trkpt lat="44.79557760861293" lon="11.892104389431521"><ele>1.0</ele><time>2026-03-22T14:38:50.878Z</time></trkpt><trkpt lat="44.79569180557713" lon="11.89188952146622"><ele>0.6666666666666666</ele><time>2026-03-22T14:38:51.878Z</time></trkpt><trkpt lat="44.79581229232031" lon="11.891667012671906"><ele>0.3333333333333333</ele><time>2026-03-22T14:38:52.878Z</time></trkpt><trkpt lat="44.79593708329129" lon="11.891434776401685"><ele>0.0</ele><time>2026-03-22T14:38:53.878Z</time></trkpt><trkpt lat="44.79606399650231" lon="11.891205249612398"><ele>-0.3333333333333333</ele><time>2026-03-22T14:38:54.878Z</time></trkpt><trkpt lat="44.79618555209212" lon="11.890975951762488"><ele>-0.6666666666666666</ele><time>2026-03-22T14:38:55.878Z</time></trkpt><trkpt lat="44.79629680810224" lon="11.890756254670274"><ele>-1.0</ele><time>2026-03-22T14:38:56.878Z</time></trkpt><trkpt lat="44.7963955818597" lon="11.890560575454682"><ele>-0.3333333333333333</ele><time>2026-03-22T14:38:57.878Z</time></trkpt><trkpt lat="44.79649192903542" lon="11.890381446440443"><ele>0.3333333333333333</ele><time>2026-03-22T14:38:58.878Z</time></trkpt><trkpt lat="44.79658819877663" lon="11.890217691737007"><ele>1.0</ele><time>2026-03-22T14:38:59.878Z</time></trkpt><trkpt lat="44.79668729381774" lon="11.890065711413422"><ele>1.4</ele><time>2026-03-22T14:39:00.878Z</time></trkpt><trkpt lat="44.79679097101387" lon="11.889934314585544"><ele>1.8</ele><time>2026-03-22T14:39:01.878Z</time></trkpt><trkpt lat="44.796893877879256" lon="11.889817762265151"><ele>2.1999999999999997</ele><time>2026-03-22T14:39:02.878Z</time></trkpt><trkpt lat="44.79697081869712" lon="11.889745598254162"><ele>2.6</ele><time>2026-03-22T14:39:03.878Z</time></trkpt><trkpt lat="44.797040104326" lon="11.88970383153946"><ele>3.0</ele><time>2026-03-22T14:39:04.878Z</time></trkpt><trkpt lat="44.79711883170942" lon="11.88970012595697"><ele>3.2</ele><time>2026-03-22T14:39:05.878Z</time></trkpt><trkpt lat="44.79718564284085" lon="11.889722860252618"><ele>3.4</ele><time>2026-03-22T14:39:06.877Z</time></trkpt><trkpt lat="44.79726298423347" lon="11.889781942524852"><ele>3.6000000000000005</ele><time>2026-03-22T14:39:07.877Z</time></trkpt><trkpt lat="44.79736033294911" lon="11.889859012084838"><ele>3.8000000000000003</ele><time>2026-03-22T14:39:08.877Z</time></trkpt><trkpt lat="44.7974814127982" lon="11.88995300149119"><ele>4.0</ele><time>2026-03-22T14:39:09.877Z</time></trkpt><trkpt lat="44.79761847832766" lon="11.890060380029237"><ele>3.333333333333333</ele><time>2026-03-22T14:39:10.877Z</time></trkpt><trkpt lat="44.79776685726979" lon="11.89017217384441"><ele>2.6666666666666665</ele><time>2026-03-22T14:39:11.877Z</time></trkpt><trkpt lat="44.79791009138217" lon="11.890274083446249"><ele>2.0</ele><time>2026-03-22T14:39:12.877Z</time></trkpt><trkpt lat="44.79804806800754" lon="11.890364141487856"><ele>2.0</ele><time>2026-03-22T14:39:13.877Z</time></trkpt><trkpt lat="44.79820520758597" lon="11.89044005815022"><ele>2.0</ele><time>2026-03-22T14:39:14.877Z</time></trkpt><trkpt lat="44.79835386406971" lon="11.890529517130393"><ele>2.0</ele><time>2026-03-22T14:39:15.877Z</time></trkpt><trkpt lat="44.798532522965274" lon="11.890630611964424"><ele>2.0</ele><time>2026-03-22T14:39:16.877Z</time></trkpt><trkpt lat="44.798736865081125" lon="11.890725522336933"><ele>2.0</ele><time>2026-03-22T14:39:17.877Z</time></trkpt><trkpt lat="44.798916587209575" lon="11.890818128057212"><ele>2.0</ele><time>2026-03-22T14:39:18.877Z</time></trkpt><trkpt lat="44.79908807891189" lon="11.89091795766831"><ele>1.6666666666666665</ele><time>2026-03-22T14:39:19.877Z</time></trkpt><trkpt lat="44.79923703656793" lon="11.891029715699904"><ele>1.3333333333333333</ele><time>2026-03-22T14:39:20.877Z</time></trkpt><trkpt lat="44.799360838284215" lon="11.891173102487619"><ele>1.0</ele><time>2026-03-22T14:39:21.877Z</time></trkpt><trkpt lat="44.79941869046886" lon="11.891440323266474"><ele>1.0</ele><time>2026-03-22T14:39:22.877Z</time></trkpt><trkpt lat="44.79954813595585" lon="11.891657509603908"><ele>1.0</ele><time>2026-03-22T14:39:23.877Z</time></trkpt><trkpt lat="44.79968240945683" lon="11.891882796732295"><ele>1.0</ele><time>2026-03-22T14:39:24.877Z</time></trkpt><trkpt lat="44.79982425961073" lon="11.892120796025772"><ele>1.0</ele><time>2026-03-22T14:39:25.877Z</time></trkpt><trkpt lat="44.799966374150905" lon="11.89235923891669"><ele>1.0</ele><time>2026-03-22T14:39:26.877Z</time></trkpt><trkpt lat="44.80010519482362" lon="11.892592155411428"><ele>1.0</ele><time>2026-03-22T14:39:27.877Z</time></trkpt><trkpt lat="44.8002331876192" lon="11.892806904659798"><ele>1.0</ele><time>2026-03-22T14:39:28.877Z</time></trkpt><trkpt lat="44.80035042845448" lon="11.893003613866146"><ele>1.0</ele><time>2026-03-22T14:39:29.877Z</time></trkpt><trkpt lat="44.80046070757668" lon="11.893185988303323"><ele>1.0</ele><time>2026-03-22T14:39:30.877Z</time></trkpt><trkpt lat="44.80056595241273" lon="11.893356481436918"><ele>1.5</ele><time>2026-03-22T14:39:31.877Z</time></trkpt><trkpt lat="44.80066131447642" lon="11.893510779548238"><ele>2.0</ele><time>2026-03-22T14:39:32.877Z</time></trkpt><trkpt lat="44.80073503236349" lon="11.893641227753532"><ele>2.5</ele><time>2026-03-22T14:39:33.877Z</time></trkpt><trkpt lat="44.800801148881014" lon="11.893758687535644"><ele>3.0</ele><time>2026-03-22T14:39:34.877Z</time></trkpt><trkpt lat="44.80087299740874" lon="11.893835923032228"><ele>3.0</ele><time>2026-03-22T14:39:35.877Z</time></trkpt><trkpt lat="44.8009355886055" lon="11.893901042021701"><ele>3.0</ele><time>2026-03-22T14:39:36.877Z</time></trkpt><trkpt lat="44.80099878018045" lon="11.893926541079786"><ele>3.0</ele><time>2026-03-22T14:39:37.877Z</time></trkpt><trkpt lat="44.801075593003986" lon="11.893897230988372"><ele>3.0</ele><time>2026-03-22T14:39:38.877Z</time></trkpt><trkpt lat="44.80116250641419" lon="11.89379018822603"><ele>3.0</ele><time>2026-03-22T14:39:39.876Z</time></trkpt><trkpt lat="44.80125526332748" lon="11.893628455134644"><ele>2.0</ele><time>2026-03-22T14:39:40.876Z</time></trkpt><trkpt lat="44.80138774550337" lon="11.893437401201092"><ele>1.0</ele><time>2026-03-22T14:39:41.876Z</time></trkpt><trkpt lat="44.801527886023436" lon="11.893238383527114"><ele>0.0</ele><time>2026-03-22T14:39:42.876Z</time></trkpt><trkpt lat="44.80167293446706" lon="11.893039522317881"><ele>0.0</ele><time>2026-03-22T14:39:43.876Z</time></trkpt><trkpt lat="44.80182139852454" lon="11.892825994585781"><ele>0.0</ele><time>2026-03-22T14:39:44.876Z</time></trkpt><trkpt lat="44.80197490588074" lon="11.892600532578356"><ele>0.0</ele><time>2026-03-22T14:39:45.876Z</time></trkpt><trkpt lat="44.802143516939104" lon="11.892373545446945"><ele>-0.5</ele><time>2026-03-22T14:39:46.876Z</time></trkpt><trkpt lat="44.802314407634654" lon="11.892134430321475"><ele>-1.0</ele><time>2026-03-22T14:39:47.876Z</time></trkpt><trkpt lat="44.802496296970304" lon="11.891904242504754"><ele>-0.5</ele><time>2026-03-22T14:39:48.876Z</time></trkpt><trkpt lat="44.80267628367101" lon="11.891672490921229"><ele>0.0</ele><time>2026-03-22T14:39:49.876Z</time></trkpt><trkpt lat="44.80285189811636" lon="11.89144824156988"><ele>0.0</ele><time>2026-03-22T14:39:50.876Z</time></trkpt><trkpt lat="44.8030231120809" lon="11.891232411604202"><ele>0.0</ele><time>2026-03-22T14:39:51.876Z</time></trkpt><trkpt lat="44.80318819803318" lon="11.891021460141989"><ele>0.0</ele><time>2026-03-22T14:39:52.876Z</time></trkpt><trkpt lat="44.803346174925686" lon="11.890819925265223"><ele>0.0</ele><time>2026-03-22T14:39:53.876Z</time></trkpt><trkpt lat="44.80348821261914" lon="11.890593189583024"><ele>0.0</ele><time>2026-03-22T14:39:54.878Z</time></trkpt><trkpt lat="44.803616941499826" lon="11.890338949950063"><ele>0.5</ele><time>2026-03-22T14:39:55.878Z</time></trkpt><trkpt lat="44.8037337789229" lon="11.890060101737554"><ele>1.0</ele><time>2026-03-22T14:39:56.878Z</time></trkpt><trkpt lat="44.803845996369624" lon="11.889776878787536"><ele>1.0</ele><time>2026-03-22T14:39:57.878Z</time></trkpt><trkpt lat="44.803942172224026" lon="11.889492985752069"><ele>1.0</ele><time>2026-03-22T14:39:58.878Z</time></trkpt><trkpt lat="44.804017750344336" lon="11.889200824019152"><ele>1.0</ele><time>2026-03-22T14:39:59.878Z</time></trkpt><trkpt lat="44.804085703289736" lon="11.8888934786246"><ele>1.5</ele><time>2026-03-22T14:40:00.878Z</time></trkpt><trkpt lat="44.80415020375248" lon="11.888580334228985"><ele>2.0</ele><time>2026-03-22T14:40:01.878Z</time></trkpt><trkpt lat="44.80422556556445" lon="11.8882768938983"><ele>2.5</ele><time>2026-03-22T14:40:02.878Z</time></trkpt><trkpt lat="44.80429977028378" lon="11.887974715088452"><ele>3.0</ele><time>2026-03-22T14:40:03.877Z</time></trkpt><trkpt lat="44.80436672552149" lon="11.887672475294957"><ele>1.0</ele><time>2026-03-22T14:40:04.878Z</time></trkpt><trkpt lat="44.80445018575423" lon="11.88736705892837"><ele>-1.0</ele><time>2026-03-22T14:40:05.878Z</time></trkpt><trkpt lat="44.80454896563564" lon="11.887072133243185"><ele>-1.0</ele><time>2026-03-22T14:40:06.878Z</time></trkpt><trkpt lat="44.80465183232866" lon="11.886793388040523"><ele>-1.0</ele><time>2026-03-22T14:40:07.878Z</time></trkpt><trkpt lat="44.80475855145185" lon="11.886526352890913"><ele>-1.0</ele><time>2026-03-22T14:40:08.878Z</time></trkpt><trkpt lat="44.80485491760324" lon="11.886313157276463"><ele>-1.0</ele><time>2026-03-22T14:40:09.878Z</time></trkpt><trkpt lat="44.80494644712332" lon="11.886132309370247"><ele>-1.0</ele><time>2026-03-22T14:40:10.878Z</time></trkpt><trkpt lat="44.8050177308934" lon="11.885954853896873"><ele>-1.0</ele><time>2026-03-22T14:40:11.878Z</time></trkpt><trkpt lat="44.805079252480255" lon="11.88579543134413"><ele>-1.0</ele><time>2026-03-22T14:40:12.878Z</time></trkpt><trkpt lat="44.805138670699115" lon="11.885640911908123"><ele>0.0</ele><time>2026-03-22T14:40:13.878Z</time></trkpt><trkpt lat="44.80520938061101" lon="11.885491000683528"><ele>1.0</ele><time>2026-03-22T14:40:14.878Z</time></trkpt><trkpt lat="44.80530021958301" lon="11.885316565739174"><ele>2.0</ele><time>2026-03-22T14:40:15.878Z</time></trkpt><trkpt lat="44.80543033859853" lon="11.885154674052322"><ele>1.3333333333333333</ele><time>2026-03-22T14:40:16.878Z</time></trkpt><trkpt lat="44.80556845350341" lon="11.884972693101023"><ele>0.6666666666666666</ele><time>2026-03-22T14:40:17.878Z</time></trkpt><trkpt lat="44.80571490067433" lon="11.884765965454958"><ele>0.0</ele><time>2026-03-22T14:40:18.878Z</time></trkpt><trkpt lat="44.80586330187955" lon="11.884534782132706"><ele>0.0</ele><time>2026-03-22T14:40:19.878Z</time></trkpt><trkpt lat="44.806006285992744" lon="11.884288676255373"><ele>0.0</ele><time>2026-03-22T14:40:20.878Z</time></trkpt><trkpt lat="44.80613793328158" lon="11.884027017362117"><ele>0.0</ele><time>2026-03-22T14:40:21.878Z</time></trkpt><trkpt lat="44.806258687100524" lon="11.88377180827209"><ele>0.0</ele><time>2026-03-22T14:40:22.878Z</time></trkpt><trkpt lat="44.80636296564336" lon="11.883518985575673"><ele>0.0</ele><time>2026-03-22T14:40:23.878Z</time></trkpt><trkpt lat="44.8064512882718" lon="11.883237152197408"><ele>0.0</ele><time>2026-03-22T14:40:24.878Z</time></trkpt><trkpt lat="44.80652077812353" lon="11.882919358625912"><ele>0.0</ele><time>2026-03-22T14:40:25.877Z</time></trkpt><trkpt lat="44.80658543498431" lon="11.882581807363469"><ele>0.5</ele><time>2026-03-22T14:40:26.877Z</time></trkpt><trkpt lat="44.80665935347651" lon="11.882231984650486"><ele>1.0</ele><time>2026-03-22T14:40:27.877Z</time></trkpt><trkpt lat="44.80673741940575" lon="11.881885080226281"><ele>1.0</ele><time>2026-03-22T14:40:28.877Z</time></trkpt><trkpt lat="44.80681341535453" lon="11.881538467100532"><ele>1.0</ele><time>2026-03-22T14:40:29.877Z</time></trkpt><trkpt lat="44.8068808002684" lon="11.88119859863007"><ele>1.5</ele><time>2026-03-22T14:40:30.877Z</time></trkpt><trkpt lat="44.80695090936772" lon="11.880871777859976"><ele>2.0</ele><time>2026-03-22T14:40:31.877Z</time></trkpt><trkpt lat="44.80701968395752" lon="11.880559746049759"><ele>2.0</ele><time>2026-03-22T14:40:32.877Z</time></trkpt><trkpt lat="44.807084778902244" lon="11.880264420616031"><ele>2.0</ele><time>2026-03-22T14:40:33.877Z</time></trkpt><trkpt lat="44.80714489616438" lon="11.879978473565291"><ele>2.0</ele><time>2026-03-22T14:40:34.877Z</time></trkpt><trkpt lat="44.80718913162156" lon="11.879702871887984"><ele>1.6666666666666665</ele><time>2026-03-22T14:40:35.877Z</time></trkpt><trkpt lat="44.80722406344163" lon="11.879432067067865"><ele>1.3333333333333333</ele><time>2026-03-22T14:40:36.877Z</time></trkpt><trkpt lat="44.80723771363205" lon="11.879156779001473"><ele>1.0</ele><time>2026-03-22T14:40:37.877Z</time></trkpt><trkpt lat="44.80724180477025" lon="11.878885398071938"><ele>1.0</ele><time>2026-03-22T14:40:38.877Z</time></trkpt><trkpt lat="44.80724282952464" lon="11.878616400782489"><ele>1.0</ele><time>2026-03-22T14:40:39.877Z</time></trkpt><trkpt lat="44.8072460514257" lon="11.878355765353398"><ele>1.0</ele><time>2026-03-22T14:40:40.877Z</time></trkpt><trkpt lat="44.80725045689751" lon="11.878118602898681"><ele>1.0</ele><time>2026-03-22T14:40:41.877Z</time></trkpt><trkpt lat="44.80725247011208" lon="11.877895636063702"><ele>1.0</ele><time>2026-03-22T14:40:42.877Z</time></trkpt><trkpt lat="44.80725648828609" lon="11.877682762405176"><ele>1.0</ele><time>2026-03-22T14:40:43.877Z</time></trkpt><trkpt lat="44.80725806482398" lon="11.877474441115679"><ele>1.25</ele><time>2026-03-22T14:40:44.877Z</time></trkpt><trkpt lat="44.80726014593911" lon="11.877282562263293"><ele>1.5</ele><time>2026-03-22T14:40:45.877Z</time></trkpt><trkpt lat="44.80725839298682" lon="11.877107320672948"><ele>1.75</ele><time>2026-03-22T14:40:46.877Z</time></trkpt><trkpt lat="44.80725756479948" lon="11.87694418132642"><ele>2.0</ele><time>2026-03-22T14:40:47.877Z</time></trkpt><trkpt lat="44.807250503380686" lon="11.876780937781355"><ele>2.0</ele><time>2026-03-22T14:40:48.877Z</time></trkpt><trkpt lat="44.80723527960334" lon="11.876603438990916"><ele>2.0</ele><time>2026-03-22T14:40:49.877Z</time></trkpt><trkpt lat="44.80720371471465" lon="11.876423347894942"><ele>2.0</ele><time>2026-03-22T14:40:50.877Z</time></trkpt><trkpt lat="44.80715921359786" lon="11.876247573129325"><ele>2.0</ele><time>2026-03-22T14:40:51.877Z</time></trkpt><trkpt lat="44.80711627432" lon="11.876086233459834"><ele>1.9999999999999998</ele><time>2026-03-22T14:40:52.877Z</time></trkpt><trkpt lat="44.807077400118075" lon="11.875945844019817"><ele>2.0</ele><time>2026-03-22T14:40:53.877Z</time></trkpt><trkpt lat="44.80704440900686" lon="11.87582005228274"><ele>2.0</ele><time>2026-03-22T14:40:54.877Z</time></trkpt><trkpt lat="44.807019532778824" lon="11.875698334751185"><ele>2.0</ele><time>2026-03-22T14:40:55.877Z</time></trkpt><trkpt lat="44.8070154953467" lon="11.87559045005268"><ele>1.9999999999999998</ele><time>2026-03-22T14:40:56.877Z</time></trkpt><trkpt lat="44.807014823112226" lon="11.875495583420493"><ele>2.0</ele><time>2026-03-22T14:40:57.877Z</time></trkpt><trkpt lat="44.807046067101275" lon="11.875383083453901"><ele>2.0</ele><time>2026-03-22T14:40:58.876Z</time></trkpt><trkpt lat="44.807088074930356" lon="11.875263147181137"><ele>2.0</ele><time>2026-03-22T14:40:59.876Z</time></trkpt><trkpt lat="44.80713579206843" lon="11.875160536229076"><ele>2.0</ele><time>2026-03-22T14:41:00.876Z</time></trkpt><trkpt lat="44.807182277955306" lon="11.87508223365768"><ele>2.0</ele><time>2026-03-22T14:41:01.876Z</time></trkpt><trkpt lat="44.80723323803774" lon="11.875025601960456"><ele>2.0</ele><time>2026-03-22T14:41:02.876Z</time></trkpt><trkpt lat="44.80736240715948" lon="11.874987790731844"><ele>2.333333333333333</ele><time>2026-03-22T14:41:04.876Z</time></trkpt><trkpt lat="44.807441652540206" lon="11.874988679928501"><ele>2.6666666666666665</ele><time>2026-03-22T14:41:05.876Z</time></trkpt><trkpt lat="44.80752533790982" lon="11.874965001437486"><ele>3.0</ele><time>2026-03-22T14:41:06.876Z</time></trkpt><trkpt lat="44.80759325250384" lon="11.874892343299909"><ele>3.333333333333333</ele><time>2026-03-22T14:41:07.876Z</time></trkpt><trkpt lat="44.80761933129105" lon="11.87477827123795"><ele>3.6666666666666665</ele><time>2026-03-22T14:41:08.876Z</time></trkpt><trkpt lat="44.807614297736194" lon="11.87466373785894"><ele>4.0</ele><time>2026-03-22T14:41:09.876Z</time></trkpt><trkpt lat="44.80759711680089" lon="11.874538151815242"><ele>4.0</ele><time>2026-03-22T14:41:10.876Z</time></trkpt><trkpt lat="44.80760173267297" lon="11.874402437433854"><ele>4.0</ele><time>2026-03-22T14:41:11.876Z</time></trkpt><trkpt lat="44.807637251083115" lon="11.874269133508086"><ele>4.0</ele><time>2026-03-22T14:41:12.876Z</time></trkpt><trkpt lat="44.807693508205574" lon="11.874136503225698"><ele>4.0</ele><time>2026-03-22T14:41:13.876Z</time></trkpt><trkpt lat="44.80777043875464" lon="11.874021637664727"><ele>4.0</ele><time>2026-03-22T14:41:14.876Z</time></trkpt><trkpt lat="44.80785722252168" lon="11.873922214793945"><ele>3.5</ele><time>2026-03-22T14:41:15.876Z</time></trkpt><trkpt lat="44.80796762429731" lon="11.873856817918705"><ele>3.0</ele><time>2026-03-22T14:41:16.876Z</time></trkpt><trkpt lat="44.80809867749993" lon="11.873834715904502"><ele>2.5</ele><time>2026-03-22T14:41:17.876Z</time></trkpt><trkpt lat="44.80824803875576" lon="11.873831013298176"><ele>2.0</ele><time>2026-03-22T14:41:18.876Z</time></trkpt><trkpt lat="44.80840086081766" lon="11.873851128020616"><ele>1.6666666666666665</ele><time>2026-03-22T14:41:19.876Z</time></trkpt><trkpt lat="44.80856561798823" lon="11.87389905320322"><ele>1.3333333333333333</ele><time>2026-03-22T14:41:20.876Z</time></trkpt><trkpt lat="44.808734103261905" lon="11.87397918913908"><ele>1.0</ele><time>2026-03-22T14:41:21.876Z</time></trkpt><trkpt lat="44.80889607119076" lon="11.874088760684057"><ele>1.0</ele><time>2026-03-22T14:41:22.876Z</time></trkpt><trkpt lat="44.80906438800862" lon="11.874234650718725"><ele>1.0</ele><time>2026-03-22T14:41:23.876Z</time></trkpt><trkpt lat="44.80922621369615" lon="11.874404624871389"><ele>1.0</ele><time>2026-03-22T14:41:24.876Z</time></trkpt><trkpt lat="44.80938577303393" lon="11.874590661580845"><ele>1.3333333333333333</ele><time>2026-03-22T14:41:25.876Z</time></trkpt><trkpt lat="44.80953307600984" lon="11.874773034880711"><ele>1.6666666666666665</ele><time>2026-03-22T14:41:26.876Z</time></trkpt><trkpt lat="44.80967254199391" lon="11.87495166514405"><ele>2.0</ele><time>2026-03-22T14:41:27.876Z</time></trkpt><trkpt lat="44.809805889359815" lon="11.875109564994313"><ele>2.0</ele><time>2026-03-22T14:41:28.876Z</time></trkpt><trkpt lat="44.8099326423996" lon="11.87525339017715"><ele>2.0</ele><time>2026-03-22T14:41:29.876Z</time></trkpt><trkpt lat="44.81005117145512" lon="11.875382580230003"><ele>2.0</ele><time>2026-03-22T14:41:30.876Z</time></trkpt><trkpt lat="44.81017618512545" lon="11.87548014602964"><ele>2.25</ele><time>2026-03-22T14:41:31.875Z</time></trkpt><trkpt lat="44.81030398481524" lon="11.875557177907044"><ele>2.5</ele><time>2026-03-22T14:41:32.875Z</time></trkpt><trkpt lat="44.81043421134553" lon="11.875612291446766"><ele>2.75</ele><time>2026-03-22T14:41:33.875Z</time></trkpt><trkpt lat="44.81057042270959" lon="11.875649877795553"><ele>3.0</ele><time>2026-03-22T14:41:34.875Z</time></trkpt><trkpt lat="44.81069650335706" lon="11.875666276643585"><ele>3.0</ele><time>2026-03-22T14:41:35.875Z</time></trkpt><trkpt lat="44.81081849688656" lon="11.875647847459327"><ele>3.0</ele><time>2026-03-22T14:41:36.875Z</time></trkpt><trkpt lat="44.810957948374146" lon="11.87560784270491"><ele>3.0</ele><time>2026-03-22T14:41:37.875Z</time></trkpt><trkpt lat="44.81109235014781" lon="11.875546059890631"><ele>3.0</ele><time>2026-03-22T14:41:38.875Z</time></trkpt><trkpt lat="44.81122732466121" lon="11.875461618267185"><ele>2.3333333333333335</ele><time>2026-03-22T14:41:39.875Z</time></trkpt><trkpt lat="44.811373679021024" lon="11.875352564704048"><ele>1.6666666666666665</ele><time>2026-03-22T14:41:40.875Z</time></trkpt><trkpt lat="44.81153676893172" lon="11.875235252099664"><ele>1.0</ele><time>2026-03-22T14:41:41.875Z</time></trkpt><trkpt lat="44.8116901319704" lon="11.875127853335155"><ele>1.0</ele><time>2026-03-22T14:41:42.875Z</time></trkpt><trkpt lat="44.81184598278181" lon="11.875032255182672"><ele>1.0</ele><time>2026-03-22T14:41:43.875Z</time></trkpt><trkpt lat="44.81199682942124" lon="11.874932620821912"><ele>1.0</ele><time>2026-03-22T14:41:44.875Z</time></trkpt><trkpt lat="44.812153372543136" lon="11.874829589021177"><ele>1.0</ele><time>2026-03-22T14:41:45.875Z</time></trkpt><trkpt lat="44.81231562009512" lon="11.8747168896634"><ele>1.0</ele><time>2026-03-22T14:41:46.875Z</time></trkpt><trkpt lat="44.81248846227389" lon="11.874592808515418"><ele>1.0</ele><time>2026-03-22T14:41:47.875Z</time></trkpt><trkpt lat="44.81268781574043" lon="11.87444903343314"><ele>1.0</ele><time>2026-03-22T14:41:48.875Z</time></trkpt><trkpt lat="44.812901623798375" lon="11.874286764250503"><ele>1.0</ele><time>2026-03-22T14:41:49.875Z</time></trkpt><trkpt lat="44.81312336384267" lon="11.874122677282676"><ele>1.0</ele><time>2026-03-22T14:41:50.875Z</time></trkpt><trkpt lat="44.81334759343197" lon="11.873987597754681"><ele>1.0</ele><time>2026-03-22T14:41:51.875Z</time></trkpt><trkpt lat="44.81358342729817" lon="11.87382909789593"><ele>2.0</ele><time>2026-03-22T14:41:52.875Z</time></trkpt><trkpt lat="44.81380787706224" lon="11.873665897086264"><ele>3.0</ele><time>2026-03-22T14:41:53.875Z</time></trkpt><trkpt lat="44.81401730507589" lon="11.873517145232066"><ele>2.3333333333333335</ele><time>2026-03-22T14:41:54.875Z</time></trkpt><trkpt lat="44.81421276588109" lon="11.873391488664584"><ele>1.6666666666666665</ele><time>2026-03-22T14:41:55.875Z</time></trkpt><trkpt lat="44.81438516255538" lon="11.873270255247458"><ele>1.0</ele><time>2026-03-22T14:41:56.875Z</time></trkpt><trkpt lat="44.81455837596447" lon="11.873143572491518"><ele>0.6666666666666666</ele><time>2026-03-22T14:41:57.875Z</time></trkpt><trkpt lat="44.81473796648806" lon="11.873014445073704"><ele>0.3333333333333333</ele><time>2026-03-22T14:41:58.875Z</time></trkpt><trkpt lat="44.81492532519175" lon="11.872887313100202"><ele>0.0</ele><time>2026-03-22T14:41:59.875Z</time></trkpt><trkpt lat="44.81511629922973" lon="11.872748366322721"><ele>0.0</ele><time>2026-03-22T14:42:00.875Z</time></trkpt><trkpt lat="44.815311976087315" lon="11.872613531665891"><ele>0.0</ele><time>2026-03-22T14:42:01.876Z</time></trkpt><trkpt lat="44.81551589190218" lon="11.872471251977766"><ele>0.0</ele><time>2026-03-22T14:42:02.875Z</time></trkpt><trkpt lat="44.815722966739756" lon="11.872319438443064"><ele>0.0</ele><time>2026-03-22T14:42:03.876Z</time></trkpt><trkpt lat="44.81593769127895" lon="11.87215338732412"><ele>0.0</ele><time>2026-03-22T14:42:04.875Z</time></trkpt><trkpt lat="44.81614872976515" lon="11.871982976124432"><ele>-0.5</ele><time>2026-03-22T14:42:05.875Z</time></trkpt><trkpt lat="44.8163650657057" lon="11.871817074139317"><ele>-1.0</ele><time>2026-03-22T14:42:06.876Z</time></trkpt><trkpt lat="44.81656901097656" lon="11.871669165290836"><ele>-1.0</ele><time>2026-03-22T14:42:07.875Z</time></trkpt><trkpt lat="44.81675156546242" lon="11.871532655585995"><ele>-1.0</ele><time>2026-03-22T14:42:08.875Z</time></trkpt><trkpt lat="44.81691853916771" lon="11.871390658611235"><ele>-1.0</ele><time>2026-03-22T14:42:09.875Z</time></trkpt><trkpt lat="44.81708251230195" lon="11.87126010978699"><ele>-0.6666666666666666</ele><time>2026-03-22T14:42:10.875Z</time></trkpt><trkpt lat="44.817236628147135" lon="11.871149936780414"><ele>-0.3333333333333333</ele><time>2026-03-22T14:42:11.875Z</time></trkpt><trkpt lat="44.817392565855265" lon="11.871024318451285"><ele>0.0</ele><time>2026-03-22T14:42:12.875Z</time></trkpt><trkpt lat="44.8175405288937" lon="11.87093470156311"><ele>0.0</ele><time>2026-03-22T14:42:13.875Z</time></trkpt><trkpt lat="44.81770181951785" lon="11.870871156936495"><ele>0.0</ele><time>2026-03-22T14:42:14.875Z</time></trkpt><trkpt lat="44.817876207544906" lon="11.870851032129577"><ele>0.0</ele><time>2026-03-22T14:42:15.875Z</time></trkpt><trkpt lat="44.81804143297066" lon="11.870851718611243"><ele>0.0</ele><time>2026-03-22T14:42:16.875Z</time></trkpt><trkpt lat="44.818211582072934" lon="11.870884294988214"><ele>0.0</ele><time>2026-03-22T14:42:17.875Z</time></trkpt><trkpt lat="44.81838889611977" lon="11.87093889925522"><ele>0.0</ele><time>2026-03-22T14:42:18.875Z</time></trkpt><trkpt lat="44.81856383558305" lon="11.871022390041244"><ele>-0.3333333333333333</ele><time>2026-03-22T14:42:19.875Z</time></trkpt><trkpt lat="44.81874777753325" lon="11.871070226456713"><ele>-0.6666666666666666</ele><time>2026-03-22T14:42:20.875Z</time></trkpt><trkpt lat="44.818920175740686" lon="11.871091821077172"><ele>-1.0</ele><time>2026-03-22T14:42:21.875Z</time></trkpt><trkpt lat="44.819079268121904" lon="11.87113805860826"><ele>-1.0</ele><time>2026-03-22T14:42:22.875Z</time></trkpt><trkpt lat="44.819252511541166" lon="11.871182507958125"><ele>-1.0</ele><time>2026-03-22T14:42:23.875Z</time></trkpt><trkpt lat="44.81942689507766" lon="11.871216738595685"><ele>-1.0</ele><time>2026-03-22T14:42:24.875Z</time></trkpt><trkpt lat="44.81959554965065" lon="11.871244036722313"><ele>-1.0</ele><time>2026-03-22T14:42:25.875Z</time></trkpt><trkpt lat="44.81974940406333" lon="11.871244884109496"><ele>-1.0</ele><time>2026-03-22T14:42:26.875Z</time></trkpt><trkpt lat="44.819902680243096" lon="11.871219568710718"><ele>-1.0</ele><time>2026-03-22T14:42:27.875Z</time></trkpt><trkpt lat="44.82005219168192" lon="11.871155252611242"><ele>-1.3333333333333333</ele><time>2026-03-22T14:42:28.875Z</time></trkpt><trkpt lat="44.82020406567242" lon="11.871032384515997"><ele>-1.6666666666666665</ele><time>2026-03-22T14:42:29.875Z</time></trkpt><trkpt lat="44.820347923178204" lon="11.870849668170203"><ele>-2.0</ele><time>2026-03-22T14:42:30.875Z</time></trkpt><trkpt lat="44.82050160153613" lon="11.870627851506926"><ele>-2.0</ele><time>2026-03-22T14:42:31.874Z</time></trkpt><trkpt lat="44.820673616596366" lon="11.870359938570177"><ele>-2.0</ele><time>2026-03-22T14:42:32.874Z</time></trkpt><trkpt lat="44.82086801151262" lon="11.870060571075118"><ele>-1.5</ele><time>2026-03-22T14:42:33.874Z</time></trkpt><trkpt lat="44.821069849037016" lon="11.86975803856894"><ele>-1.0</ele><time>2026-03-22T14:42:34.874Z</time></trkpt><trkpt lat="44.82126905519088" lon="11.869461839509434"><ele>-1.0</ele><time>2026-03-22T14:42:35.874Z</time></trkpt><trkpt lat="44.821478250192285" lon="11.869171871934423"><ele>-1.0</ele><time>2026-03-22T14:42:36.874Z</time></trkpt><trkpt lat="44.821696521302215" lon="11.868890086014705"><ele>0.0</ele><time>2026-03-22T14:42:37.874Z</time></trkpt><trkpt lat="44.8219207295871" lon="11.868610763940252"><ele>1.0</ele><time>2026-03-22T14:42:38.874Z</time></trkpt><trkpt lat="44.822148623071875" lon="11.8683316188956"><ele>1.0</ele><time>2026-03-22T14:42:39.874Z</time></trkpt><trkpt lat="44.82238057421875" lon="11.868050785840895"><ele>1.0</ele><time>2026-03-22T14:42:40.874Z</time></trkpt><trkpt lat="44.82260912521018" lon="11.867782932551622"><ele>1.0</ele><time>2026-03-22T14:42:41.874Z</time></trkpt><trkpt lat="44.82283715324328" lon="11.867537210795676"><ele>1.0</ele><time>2026-03-22T14:42:42.874Z</time></trkpt><trkpt lat="44.82305777696919" lon="11.867310392394458"><ele>1.0</ele><time>2026-03-22T14:42:43.874Z</time></trkpt><trkpt lat="44.82327206151182" lon="11.867092435474696"><ele>1.0</ele><time>2026-03-22T14:42:44.874Z</time></trkpt><trkpt lat="44.82346922559326" lon="11.866884330117989"><ele>0.5</ele><time>2026-03-22T14:42:45.874Z</time></trkpt><trkpt lat="44.82365141908727" lon="11.866666042089754"><ele>0.0</ele><time>2026-03-22T14:42:46.874Z</time></trkpt><trkpt lat="44.82381527121028" lon="11.866410750096431"><ele>0.0</ele><time>2026-03-22T14:42:47.874Z</time></trkpt><trkpt lat="44.823961154951334" lon="11.866113456443282"><ele>0.0</ele><time>2026-03-22T14:42:48.874Z</time></trkpt><trkpt lat="44.82410474824219" lon="11.865787239454523"><ele>0.0</ele><time>2026-03-22T14:42:49.874Z</time></trkpt><trkpt lat="44.82426083696248" lon="11.865455949990363"><ele>0.0</ele><time>2026-03-22T14:42:50.874Z</time></trkpt><trkpt lat="44.82441551730064" lon="11.865125763701556"><ele>-0.5</ele><time>2026-03-22T14:42:51.874Z</time></trkpt><trkpt lat="44.82456754977627" lon="11.864797875391407"><ele>-1.0</ele><time>2026-03-22T14:42:52.874Z</time></trkpt><trkpt lat="44.82471696346152" lon="11.86447787258725"><ele>-0.5</ele><time>2026-03-22T14:42:53.874Z</time></trkpt><trkpt lat="44.82485760417517" lon="11.864177993042906"><ele>0.0</ele><time>2026-03-22T14:42:54.874Z</time></trkpt><trkpt lat="44.82499100085829" lon="11.863902168241227"><ele>0.0</ele><time>2026-03-22T14:42:55.874Z</time></trkpt><trkpt lat="44.825116252976315" lon="11.863651210528179"><ele>0.0</ele><time>2026-03-22T14:42:56.874Z</time></trkpt><trkpt lat="44.82525283328734" lon="11.863418462142848"><ele>0.0</ele><time>2026-03-22T14:42:57.874Z</time></trkpt><trkpt lat="44.82541732122907" lon="11.863214924609304"><ele>0.0</ele><time>2026-03-22T14:42:58.874Z</time></trkpt><trkpt lat="44.825612975674716" lon="11.863039966558231"><ele>0.0</ele><time>2026-03-22T14:42:59.874Z</time></trkpt><trkpt lat="44.82584019620415" lon="11.862887837580844"><ele>0.0</ele><time>2026-03-22T14:43:00.874Z</time></trkpt><trkpt lat="44.82607287490879" lon="11.862742187602825"><ele>0.0</ele><time>2026-03-22T14:43:01.874Z</time></trkpt><trkpt lat="44.8263203469798" lon="11.862608025869687"><ele>0.0</ele><time>2026-03-22T14:43:02.874Z</time></trkpt><trkpt lat="44.826578087655896" lon="11.862485309858416"><ele>0.0</ele><time>2026-03-22T14:43:03.874Z</time></trkpt><trkpt lat="44.82681654660535" lon="11.862378492191217"><ele>0.0</ele><time>2026-03-22T14:43:04.873Z</time></trkpt><trkpt lat="44.82704163076643" lon="11.86227303771983"><ele>0.0</ele><time>2026-03-22T14:43:05.873Z</time></trkpt><trkpt lat="44.82727255586075" lon="11.862195266274265"><ele>0.0</ele><time>2026-03-22T14:43:06.873Z</time></trkpt><trkpt lat="44.82751797559657" lon="11.862176398706989"><ele>0.0</ele><time>2026-03-22T14:43:07.873Z</time></trkpt><trkpt lat="44.82777486561404" lon="11.862187186876458"><ele>-0.5</ele><time>2026-03-22T14:43:08.873Z</time></trkpt><trkpt lat="44.82804670143177" lon="11.862177527205843"><ele>-1.0</ele><time>2026-03-22T14:43:09.873Z</time></trkpt><trkpt lat="44.82832583429185" lon="11.862166212899718"><ele>-1.0</ele><time>2026-03-22T14:43:10.873Z</time></trkpt><trkpt lat="44.82859749131891" lon="11.862161008464959"><ele>-1.0</ele><time>2026-03-22T14:43:11.873Z</time></trkpt><trkpt lat="44.82887513695308" lon="11.862153669302266"><ele>-1.0</ele><time>2026-03-22T14:43:12.873Z</time></trkpt><trkpt lat="44.82915115168505" lon="11.862141994816005"><ele>-1.0</ele><time>2026-03-22T14:43:13.873Z</time></trkpt><trkpt lat="44.829426696764116" lon="11.862129844572962"><ele>-0.5</ele><time>2026-03-22T14:43:14.873Z</time></trkpt><trkpt lat="44.82969407182145" lon="11.86212227978268"><ele>0.0</ele><time>2026-03-22T14:43:15.873Z</time></trkpt><trkpt lat="44.82996801103468" lon="11.86210636734125"><ele>-1.0</ele><time>2026-03-22T14:43:16.873Z</time></trkpt><trkpt lat="44.830240900139685" lon="11.862083744912878"><ele>-2.0</ele><time>2026-03-22T14:43:17.873Z</time></trkpt><trkpt lat="44.83050881590948" lon="11.862056929584927"><ele>-2.0</ele><time>2026-03-22T14:43:18.873Z</time></trkpt><trkpt lat="44.83076728820148" lon="11.862023750756416"><ele>-2.0</ele><time>2026-03-22T14:43:19.873Z</time></trkpt><trkpt lat="44.83103718440544" lon="11.8619695949538"><ele>-2.0</ele><time>2026-03-22T14:43:20.873Z</time></trkpt><trkpt lat="44.83130736322305" lon="11.861894498540327"><ele>-2.0</ele><time>2026-03-22T14:43:21.873Z</time></trkpt><trkpt lat="44.83158258399255" lon="11.861805543972226"><ele>-1.0</ele><time>2026-03-22T14:43:22.873Z</time></trkpt><trkpt lat="44.83185182279087" lon="11.861722815896398"><ele>0.0</ele><time>2026-03-22T14:43:23.873Z</time></trkpt><trkpt lat="44.83211280782443" lon="11.861639591516706"><ele>0.0</ele><time>2026-03-22T14:43:24.873Z</time></trkpt><trkpt lat="44.832358143015966" lon="11.861571182798853"><ele>0.0</ele><time>2026-03-22T14:43:25.873Z</time></trkpt><trkpt lat="44.83258915716067" lon="11.861502950148566"><ele>0.0</ele><time>2026-03-22T14:43:26.873Z</time></trkpt><trkpt lat="44.832811387376054" lon="11.861428400099776"><ele>0.0</ele><time>2026-03-22T14:43:27.873Z</time></trkpt><trkpt lat="44.83301910887406" lon="11.86136955797589"><ele>0.0</ele><time>2026-03-22T14:43:28.873Z</time></trkpt><trkpt lat="44.83321948237946" lon="11.861343999872254"><ele>0.0</ele><time>2026-03-22T14:43:29.873Z</time></trkpt><trkpt lat="44.83340803824744" lon="11.861324302199815"><ele>0.0</ele><time>2026-03-22T14:43:30.873Z</time></trkpt><trkpt lat="44.833578689546506" lon="11.861320929048393"><ele>0.0</ele><time>2026-03-22T14:43:31.873Z</time></trkpt><trkpt lat="44.833750651908694" lon="11.861315279916164"><ele>0.0</ele><time>2026-03-22T14:43:32.873Z</time></trkpt><trkpt lat="44.83391808565567" lon="11.861285043841573"><ele>0.0</ele><time>2026-03-22T14:43:33.873Z</time></trkpt><trkpt lat="44.834074382480985" lon="11.861206738810823"><ele>0.0</ele><time>2026-03-22T14:43:34.873Z</time></trkpt><trkpt lat="44.83421697814197" lon="11.861090616586656"><ele>0.3333333333333333</ele><time>2026-03-22T14:43:35.873Z</time></trkpt><trkpt lat="44.83434768248722" lon="11.860940096571369"><ele>0.6666666666666666</ele><time>2026-03-22T14:43:36.873Z</time></trkpt><trkpt lat="44.834459895350484" lon="11.860780647251055"><ele>1.0</ele><time>2026-03-22T14:43:37.872Z</time></trkpt><trkpt lat="44.83456972897268" lon="11.860630701547276"><ele>1.0</ele><time>2026-03-22T14:43:38.872Z</time></trkpt><trkpt lat="44.83468304783751" lon="11.86048558377888"><ele>1.0</ele><time>2026-03-22T14:43:39.872Z</time></trkpt><trkpt lat="44.83480372625004" lon="11.860319032701977"><ele>1.0</ele><time>2026-03-22T14:43:40.872Z</time></trkpt><trkpt lat="44.83492433206643" lon="11.860170987149077"><ele>0.6666666666666666</ele><time>2026-03-22T14:43:41.872Z</time></trkpt><trkpt lat="44.835064754612084" lon="11.860018450972724"><ele>0.3333333333333333</ele><time>2026-03-22T14:43:42.872Z</time></trkpt><trkpt lat="44.83520062306291" lon="11.859880397381962"><ele>0.0</ele><time>2026-03-22T14:43:43.872Z</time></trkpt><trkpt lat="44.83534095862389" lon="11.859754143991886"><ele>0.0</ele><time>2026-03-22T14:43:44.872Z</time></trkpt><trkpt lat="44.8354736772364" lon="11.859633918231062"><ele>0.0</ele><time>2026-03-22T14:43:45.872Z</time></trkpt><trkpt lat="44.835626684821136" lon="11.859523314633696"><ele>0.0</ele><time>2026-03-22T14:43:46.872Z</time></trkpt><trkpt lat="44.83578458452394" lon="11.859422731533687"><ele>0.0</ele><time>2026-03-22T14:43:47.872Z</time></trkpt><trkpt lat="44.835947060416416" lon="11.859343102241509"><ele>0.0</ele><time>2026-03-22T14:43:48.872Z</time></trkpt><trkpt lat="44.83611218754831" lon="11.859280990861018"><ele>0.0</ele><time>2026-03-22T14:43:49.872Z</time></trkpt><trkpt lat="44.836270837556434" lon="11.8592423016618"><ele>0.25</ele><time>2026-03-22T14:43:50.872Z</time></trkpt><trkpt lat="44.83642059188025" lon="11.85920084508995"><ele>0.5</ele><time>2026-03-22T14:43:51.872Z</time></trkpt><trkpt lat="44.83656278080752" lon="11.859159305898752"><ele>0.75</ele><time>2026-03-22T14:43:52.872Z</time></trkpt><trkpt lat="44.83669974807849" lon="11.85911790638606"><ele>1.0</ele><time>2026-03-22T14:43:53.872Z</time></trkpt><trkpt lat="44.83682717365636" lon="11.859084360279743"><ele>0.9999999999999999</ele><time>2026-03-22T14:43:54.872Z</time></trkpt><trkpt lat="44.8369340900977" lon="11.859055775219812"><ele>1.0</ele><time>2026-03-22T14:43:55.872Z</time></trkpt><trkpt lat="44.83702465334593" lon="11.859039468319624"><ele>1.0</ele><time>2026-03-22T14:43:56.872Z</time></trkpt><trkpt lat="44.83710537534865" lon="11.859040859835806"><ele>1.0</ele><time>2026-03-22T14:43:57.872Z</time></trkpt><trkpt lat="44.837178254058074" lon="11.859061011535609"><ele>0.9999999999999999</ele><time>2026-03-22T14:43:58.872Z</time></trkpt><trkpt lat="44.8372529853493" lon="11.859104168714616"><ele>1.0</ele><time>2026-03-22T14:43:59.872Z</time></trkpt><trkpt lat="44.83733119041827" lon="11.859126935135547"><ele>0.9999999999999999</ele><time>2026-03-22T14:44:00.872Z</time></trkpt><trkpt lat="44.83741235392431" lon="11.859101974917817"><ele>1.0</ele><time>2026-03-22T14:44:01.872Z</time></trkpt><trkpt lat="44.83748251349089" lon="11.859036771106702"><ele>1.0</ele><time>2026-03-22T14:44:02.872Z</time></trkpt><trkpt lat="44.837535404659086" lon="11.858931349247104"><ele>1.0</ele><time>2026-03-22T14:44:03.872Z</time></trkpt><trkpt lat="44.837551715510315" lon="11.858804916975746"><ele>0.9999999999999999</ele><time>2026-03-22T14:44:04.872Z</time></trkpt><trkpt lat="44.8375221302288" lon="11.858677855317952"><ele>1.0</ele><time>2026-03-22T14:44:05.872Z</time></trkpt><trkpt lat="44.837453650663285" lon="11.85856478656914"><ele>1.0</ele><time>2026-03-22T14:44:06.873Z</time></trkpt><trkpt lat="44.83735905271607" lon="11.858505153831713"><ele>1.0</ele><time>2026-03-22T14:44:07.873Z</time></trkpt><trkpt lat="44.83730718336884" lon="11.858348475258335"><ele>1.0</ele><time>2026-03-22T14:44:08.873Z</time></trkpt><trkpt lat="44.837271403278606" lon="11.858178810269703"><ele>1.0</ele><time>2026-03-22T14:44:09.873Z</time></trkpt><trkpt lat="44.83725971187405" lon="11.857967274053662"><ele>0.3333333333333333</ele><time>2026-03-22T14:44:10.873Z</time></trkpt><trkpt lat="44.83726561536491" lon="11.857733985760362"><ele>-0.3333333333333333</ele><time>2026-03-22T14:44:11.873Z</time></trkpt><trkpt lat="44.837292366245755" lon="11.857479198896087"><ele>-1.0</ele><time>2026-03-22T14:44:12.873Z</time></trkpt><trkpt lat="44.83734371150773" lon="11.857213367341732"><ele>-1.3333333333333333</ele><time>2026-03-22T14:44:13.873Z</time></trkpt><trkpt lat="44.837417426883086" lon="11.8569272959156"><ele>-1.6666666666666665</ele><time>2026-03-22T14:44:14.873Z</time></trkpt><trkpt lat="44.83750786094392" lon="11.856640937111818"><ele>-2.0</ele><time>2026-03-22T14:44:15.873Z</time></trkpt><trkpt lat="44.83759791182887" lon="11.856342861112848"><ele>-1.5</ele><time>2026-03-22T14:44:16.873Z</time></trkpt><trkpt lat="44.837689938486704" lon="11.856032682691323"><ele>-1.0</ele><time>2026-03-22T14:44:17.873Z</time></trkpt><trkpt lat="44.837786931232856" lon="11.855710201983914"><ele>-1.0</ele><time>2026-03-22T14:44:18.873Z</time></trkpt><trkpt lat="44.83788857579902" lon="11.855376499175575"><ele>-1.0</ele><time>2026-03-22T14:44:19.873Z</time></trkpt><trkpt lat="44.8379909552909" lon="11.855040506925773"><ele>0.0</ele><time>2026-03-22T14:44:20.873Z</time></trkpt><trkpt lat="44.838102936821095" lon="11.854699713498785"><ele>1.0</ele><time>2026-03-22T14:44:21.873Z</time></trkpt><trkpt lat="44.83823351267266" lon="11.854368031132307"><ele>1.0</ele><time>2026-03-22T14:44:22.873Z</time></trkpt><trkpt lat="44.83838219966356" lon="11.854052838684684"><ele>1.0</ele><time>2026-03-22T14:44:23.873Z</time></trkpt><trkpt lat="44.83854808695646" lon="11.853752596696003"><ele>0.5</ele><time>2026-03-22T14:44:24.873Z</time></trkpt><trkpt lat="44.838725985749576" lon="11.853465716515284"><ele>0.0</ele><time>2026-03-22T14:44:25.873Z</time></trkpt><trkpt lat="44.83892109286105" lon="11.853196979555301"><ele>0.0</ele><time>2026-03-22T14:44:26.873Z</time></trkpt><trkpt lat="44.839131408137064" lon="11.852944314565287"><ele>0.0</ele><time>2026-03-22T14:44:27.873Z</time></trkpt><trkpt lat="44.83935762115982" lon="11.8527125625478"><ele>0.5</ele><time>2026-03-22T14:44:28.873Z</time></trkpt><trkpt lat="44.83958892333929" lon="11.852469627445792"><ele>1.0</ele><time>2026-03-22T14:44:29.873Z</time></trkpt><trkpt lat="44.83981858697643" lon="11.852223901368788"><ele>1.0</ele><time>2026-03-22T14:44:30.873Z</time></trkpt><trkpt lat="44.84004634048556" lon="11.851981945809333"><ele>1.0</ele><time>2026-03-22T14:44:31.873Z</time></trkpt><trkpt lat="44.84026730217001" lon="11.851733556426089"><ele>0.0</ele><time>2026-03-22T14:44:32.873Z</time></trkpt><trkpt lat="44.8404877276138" lon="11.851490646984395"><ele>-1.0</ele><time>2026-03-22T14:44:33.873Z</time></trkpt><trkpt lat="44.840703321733024" lon="11.85125844403046"><ele>-1.0</ele><time>2026-03-22T14:44:34.873Z</time></trkpt><trkpt lat="44.84091048834327" lon="11.851035522853373"><ele>-1.0</ele><time>2026-03-22T14:44:35.873Z</time></trkpt><trkpt lat="44.841104574758496" lon="11.850824311150532"><ele>-1.0</ele><time>2026-03-22T14:44:36.873Z</time></trkpt><trkpt lat="44.841290017671724" lon="11.850624734692136"><ele>-1.0</ele><time>2026-03-22T14:44:37.873Z</time></trkpt><trkpt lat="44.841458309848775" lon="11.850436350010238"><ele>-1.0</ele><time>2026-03-22T14:44:38.873Z</time></trkpt><trkpt lat="44.84160850586836" lon="11.850270564388163"><ele>-0.75</ele><time>2026-03-22T14:44:39.873Z</time></trkpt><trkpt lat="44.841741934324695" lon="11.850123670014959"><ele>-0.5</ele><time>2026-03-22T14:44:40.873Z</time></trkpt><trkpt lat="44.84184711078607" lon="11.850004327642752"><ele>-0.25</ele><time>2026-03-22T14:44:41.873Z</time></trkpt><trkpt lat="44.841932932418295" lon="11.849906645338677"><ele>0.0</ele><time>2026-03-22T14:44:42.873Z</time></trkpt><trkpt lat="44.842020620793114" lon="11.84983727518342"><ele>0.0</ele><time>2026-03-22T14:44:43.872Z</time></trkpt><trkpt lat="44.84209338092773" lon="11.849792176685453"><ele>0.0</ele><time>2026-03-22T14:44:44.872Z</time></trkpt><trkpt lat="44.84217478510586" lon="11.849777488616288"><ele>0.0</ele><time>2026-03-22T14:44:45.872Z</time></trkpt><trkpt lat="44.84226453846044" lon="11.849787438093355"><ele>0.0</ele><time>2026-03-22T14:44:46.872Z</time></trkpt><trkpt lat="44.842353951219245" lon="11.84978481603538"><ele>0.0</ele><time>2026-03-22T14:44:47.872Z</time></trkpt><trkpt lat="44.84242927416709" lon="11.849726595610404"><ele>0.0</ele><time>2026-03-22T14:44:48.872Z</time></trkpt><trkpt lat="44.84248100607955" lon="11.849619893650841"><ele>0.0</ele><time>2026-03-22T14:44:49.872Z</time></trkpt><trkpt lat="44.842478369526575" lon="11.849469025464368"><ele>0.0</ele><time>2026-03-22T14:44:50.872Z</time></trkpt><trkpt lat="44.84244218486917" lon="11.849312407421392"><ele>0.0</ele><time>2026-03-22T14:44:51.872Z</time></trkpt><trkpt lat="44.842410972234134" lon="11.849082969423065"><ele>0.0</ele><time>2026-03-22T14:44:52.872Z</time></trkpt><trkpt lat="44.84240348755127" lon="11.848851764189119"><ele>0.3333333333333333</ele><time>2026-03-22T14:44:53.872Z</time></trkpt><trkpt lat="44.84239614438042" lon="11.848606841218896"><ele>0.6666666666666666</ele><time>2026-03-22T14:44:54.872Z</time></trkpt><trkpt lat="44.842382346337914" lon="11.848333008321175"><ele>1.0</ele><time>2026-03-22T14:44:55.872Z</time></trkpt><trkpt lat="44.8423653968772" lon="11.848077865690243"><ele>1.6666666666666665</ele><time>2026-03-22T14:44:56.872Z</time></trkpt><trkpt lat="44.84235827798627" lon="11.847838980004289"><ele>2.3333333333333335</ele><time>2026-03-22T14:44:57.872Z</time></trkpt><trkpt lat="44.842357247377414" lon="11.847605492114969"><ele>3.0</ele><time>2026-03-22T14:44:58.872Z</time></trkpt><trkpt lat="44.84237198732017" lon="11.847376423785905"><ele>3.0</ele><time>2026-03-22T14:44:59.872Z</time></trkpt><trkpt lat="44.84240907294419" lon="11.847148178344074"><ele>3.0</ele><time>2026-03-22T14:45:00.872Z</time></trkpt><trkpt lat="44.84246739824132" lon="11.846930996210341"><ele>3.0</ele><time>2026-03-22T14:45:01.872Z</time></trkpt><trkpt lat="44.84253838280051" lon="11.846726180639052"><ele>3.0</ele><time>2026-03-22T14:45:02.872Z</time></trkpt><trkpt lat="44.84262599910691" lon="11.846540587828478"><ele>3.0</ele><time>2026-03-22T14:45:03.872Z</time></trkpt><trkpt lat="44.842718268472424" lon="11.846364588126159"><ele>3.0</ele><time>2026-03-22T14:45:04.872Z</time></trkpt><trkpt lat="44.84282463952861" lon="11.84621002751685"><ele>3.0</ele><time>2026-03-22T14:45:05.872Z</time></trkpt><trkpt lat="44.84293596399836" lon="11.84606279676595"><ele>3.0</ele><time>2026-03-22T14:45:06.872Z</time></trkpt><trkpt lat="44.84306236816969" lon="11.845920975019267"><ele>3.0</ele><time>2026-03-22T14:45:07.872Z</time></trkpt><trkpt lat="44.843193805711515" lon="11.845771285182602"><ele>3.0</ele><time>2026-03-22T14:45:08.872Z</time></trkpt><trkpt lat="44.843328219516444" lon="11.84562602393209"><ele>3.0</ele><time>2026-03-22T14:45:09.872Z</time></trkpt><trkpt lat="44.843462052307466" lon="11.845476506563612"><ele>3.0</ele><time>2026-03-22T14:45:10.872Z</time></trkpt><trkpt lat="44.84360067476493" lon="11.845332121863347"><ele>3.0</ele><time>2026-03-22T14:45:11.872Z</time></trkpt><trkpt lat="44.843747200524156" lon="11.84516674736569"><ele>3.0</ele><time>2026-03-22T14:45:12.872Z</time></trkpt><trkpt lat="44.84389878357386" lon="11.844994097802873"><ele>3.0</ele><time>2026-03-22T14:45:13.872Z</time></trkpt><trkpt lat="44.84406159613366" lon="11.844775404631955"><ele>3.5</ele><time>2026-03-22T14:45:14.872Z</time></trkpt><trkpt lat="44.84426370002256" lon="11.844545384364267"><ele>4.0</ele><time>2026-03-22T14:45:15.872Z</time></trkpt><trkpt lat="44.84448693863294" lon="11.844306999686529"><ele>3.5</ele><time>2026-03-22T14:45:16.871Z</time></trkpt><trkpt lat="44.84471293772484" lon="11.844059908148946"><ele>3.0</ele><time>2026-03-22T14:45:17.871Z</time></trkpt><trkpt lat="44.84494011511738" lon="11.843805373221851"><ele>1.5</ele><time>2026-03-22T14:45:18.871Z</time></trkpt><trkpt lat="44.84516797837704" lon="11.843547504941537"><ele>0.0</ele><time>2026-03-22T14:45:19.871Z</time></trkpt><trkpt lat="44.84538381530386" lon="11.843307295770702"><ele>-1.5</ele><time>2026-03-22T14:45:20.871Z</time></trkpt><trkpt lat="44.84558139941538" lon="11.84308940177176"><ele>-3.0</ele><time>2026-03-22T14:45:21.871Z</time></trkpt><trkpt lat="44.84575672158351" lon="11.842875877938985"><ele>-3.0</ele><time>2026-03-22T14:45:22.871Z</time></trkpt><trkpt lat="44.845926397123826" lon="11.842676213281159"><ele>-3.0</ele><time>2026-03-22T14:45:23.871Z</time></trkpt><trkpt lat="44.846079554049474" lon="11.842479061050119"><ele>-3.0</ele><time>2026-03-22T14:45:24.871Z</time></trkpt><trkpt lat="44.846205034139274" lon="11.84227480580278"><ele>-3.0</ele><time>2026-03-22T14:45:25.871Z</time></trkpt><trkpt lat="44.8462985048579" lon="11.842029795149442"><ele>-3.0</ele><time>2026-03-22T14:45:26.871Z</time></trkpt><trkpt lat="44.846359642579216" lon="11.841737807493573"><ele>-3.0</ele><time>2026-03-22T14:45:27.871Z</time></trkpt><trkpt lat="44.8463919657034" lon="11.841424938285508"><ele>-3.0</ele><time>2026-03-22T14:45:28.871Z</time></trkpt><trkpt lat="44.846393542863545" lon="11.841083181074783"><ele>-3.0</ele><time>2026-03-22T14:45:29.871Z</time></trkpt><trkpt lat="44.84640836624617" lon="11.840712416579688"><ele>-1.5</ele><time>2026-03-22T14:45:30.871Z</time></trkpt><trkpt lat="44.8464320995575" lon="11.840330109797666"><ele>0.0</ele><time>2026-03-22T14:45:31.871Z</time></trkpt><trkpt lat="44.84645850649742" lon="11.839929700936523"><ele>0.5</ele><time>2026-03-22T14:45:32.871Z</time></trkpt><trkpt lat="44.846484955643234" lon="11.83952523905256"><ele>1.0</ele><time>2026-03-22T14:45:33.871Z</time></trkpt><trkpt lat="44.846509071457675" lon="11.839119665607065"><ele>1.0</ele><time>2026-03-22T14:45:34.871Z</time></trkpt><trkpt lat="44.84653515575459" lon="11.83871278073339"><ele>1.0</ele><time>2026-03-22T14:45:35.871Z</time></trkpt><trkpt lat="44.84656013099078" lon="11.838309534402798"><ele>1.5</ele><time>2026-03-22T14:45:36.871Z</time></trkpt><trkpt lat="44.84658350842257" lon="11.837903426885727"><ele>2.0</ele><time>2026-03-22T14:45:37.871Z</time></trkpt><trkpt lat="44.846594485268774" lon="11.837501830583623"><ele>2.0</ele><time>2026-03-22T14:45:38.871Z</time></trkpt><trkpt lat="44.84658607364535" lon="11.837099444621538"><ele>2.0</ele><time>2026-03-22T14:45:39.871Z</time></trkpt><trkpt lat="44.84657382202317" lon="11.836702603963813"><ele>1.0</ele><time>2026-03-22T14:45:40.871Z</time></trkpt><trkpt lat="44.84655605874351" lon="11.836313860380695"><ele>0.0</ele><time>2026-03-22T14:45:41.871Z</time></trkpt><trkpt lat="44.84653990460751" lon="11.835938256492218"><ele>-0.5</ele><time>2026-03-22T14:45:42.871Z</time></trkpt><trkpt lat="44.84652742481839" lon="11.835575156624515"><ele>-1.0</ele><time>2026-03-22T14:45:43.871Z</time></trkpt><trkpt lat="44.846516903051416" lon="11.8352265081842"><ele>0.0</ele><time>2026-03-22T14:45:44.871Z</time></trkpt><trkpt lat="44.84651330984547" lon="11.8348779355416"><ele>1.0</ele><time>2026-03-22T14:45:45.871Z</time></trkpt><trkpt lat="44.84652054382701" lon="11.834523842458736"><ele>1.5</ele><time>2026-03-22T14:45:46.871Z</time></trkpt><trkpt lat="44.846560825831844" lon="11.834179654114434"><ele>2.0</ele><time>2026-03-22T14:45:47.871Z</time></trkpt><trkpt lat="44.846629334393604" lon="11.833839362686888"><ele>2.0</ele><time>2026-03-22T14:45:48.871Z</time></trkpt><trkpt lat="44.846715532062674" lon="11.833518275896687"><ele>2.0</ele><time>2026-03-22T14:45:49.87Z</time></trkpt><trkpt lat="44.84680311310112" lon="11.83320978004733"><ele>2.0</ele><time>2026-03-22T14:45:50.87Z</time></trkpt><trkpt lat="44.84690880357614" lon="11.832920190752066"><ele>2.0</ele><time>2026-03-22T14:45:51.87Z</time></trkpt><trkpt lat="44.847055175887746" lon="11.832667976855127"><ele>2.0</ele><time>2026-03-22T14:45:52.87Z</time></trkpt><trkpt lat="44.84723633656803" lon="11.832452165919575"><ele>2.0</ele><time>2026-03-22T14:45:53.87Z</time></trkpt><trkpt lat="44.84745241833313" lon="11.83225516775583"><ele>1.0</ele><time>2026-03-22T14:45:54.87Z</time></trkpt><trkpt lat="44.847695321621686" lon="11.832054817658696"><ele>0.0</ele><time>2026-03-22T14:45:55.87Z</time></trkpt><trkpt lat="44.847919615326425" lon="11.831842351183532"><ele>0.5</ele><time>2026-03-22T14:45:56.87Z</time></trkpt><trkpt lat="44.84817600324278" lon="11.831656552211323"><ele>1.0</ele><time>2026-03-22T14:45:57.87Z</time></trkpt><trkpt lat="44.84843941928027" lon="11.8314984531811"><ele>1.0</ele><time>2026-03-22T14:45:58.87Z</time></trkpt><trkpt lat="44.848715031792175" lon="11.831372062557763"><ele>1.0</ele><time>2026-03-22T14:45:59.87Z</time></trkpt><trkpt lat="44.848987657481715" lon="11.831246986120973"><ele>1.0</ele><time>2026-03-22T14:46:00.87Z</time></trkpt><trkpt lat="44.8492600137398" lon="11.831126369750692"><ele>1.0</ele><time>2026-03-22T14:46:01.87Z</time></trkpt><trkpt lat="44.849526051677806" lon="11.831009250319582"><ele>1.0</ele><time>2026-03-22T14:46:02.87Z</time></trkpt><trkpt lat="44.8497677002308" lon="11.830884851712637"><ele>1.0</ele><time>2026-03-22T14:46:03.87Z</time></trkpt><trkpt lat="44.84999467489947" lon="11.830820291362164"><ele>1.0</ele><time>2026-03-22T14:46:04.87Z</time></trkpt><trkpt lat="44.85021210616014" lon="11.830768062959704"><ele>1.0</ele><time>2026-03-22T14:46:05.87Z</time></trkpt><trkpt lat="44.85043255823172" lon="11.830752463377399"><ele>1.0</ele><time>2026-03-22T14:46:06.87Z</time></trkpt><trkpt lat="44.8506717928893" lon="11.830773684105065"><ele>1.0</ele><time>2026-03-22T14:46:07.87Z</time></trkpt><trkpt lat="44.85090635584489" lon="11.830835754156103"><ele>1.0</ele><time>2026-03-22T14:46:08.87Z</time></trkpt><trkpt lat="44.851149789488325" lon="11.830941592823862"><ele>1.0</ele><time>2026-03-22T14:46:09.87Z</time></trkpt><trkpt lat="44.85138205755529" lon="11.831097734664471"><ele>1.0</ele><time>2026-03-22T14:46:10.87Z</time></trkpt><trkpt lat="44.8516216356592" lon="11.831287701426938"><ele>1.0</ele><time>2026-03-22T14:46:11.87Z</time></trkpt><trkpt lat="44.85186177845784" lon="11.831485339965326"><ele>1.0</ele><time>2026-03-22T14:46:12.871Z</time></trkpt><trkpt lat="44.85210433326144" lon="11.831684963550806"><ele>1.0</ele><time>2026-03-22T14:46:13.871Z</time></trkpt><trkpt lat="44.852358206372806" lon="11.831893902117002"><ele>1.0</ele><time>2026-03-22T14:46:14.871Z</time></trkpt><trkpt lat="44.85261622766061" lon="11.832106254716956"><ele>1.0</ele><time>2026-03-22T14:46:15.87Z</time></trkpt><trkpt lat="44.85287440066754" lon="11.832318562803245"><ele>1.0</ele><time>2026-03-22T14:46:16.87Z</time></trkpt><trkpt lat="44.85313421873043" lon="11.832530827600486"><ele>1.0</ele><time>2026-03-22T14:46:17.87Z</time></trkpt><trkpt lat="44.85338784700343" lon="11.832739335578472"><ele>1.0</ele><time>2026-03-22T14:46:18.871Z</time></trkpt><trkpt lat="44.85364695312633" lon="11.832953158298125"><ele>1.5</ele><time>2026-03-22T14:46:19.871Z</time></trkpt><trkpt lat="44.8539007836755" lon="11.833162627457023"><ele>2.0</ele><time>2026-03-22T14:46:20.871Z</time></trkpt><trkpt lat="44.85415507708292" lon="11.833372478547046"><ele>1.5</ele><time>2026-03-22T14:46:21.87Z</time></trkpt><trkpt lat="44.854416477459274" lon="11.833588194581141"><ele>1.0</ele><time>2026-03-22T14:46:22.871Z</time></trkpt><trkpt lat="44.854671161085825" lon="11.833798367702144"><ele>1.0</ele><time>2026-03-22T14:46:23.871Z</time></trkpt><trkpt lat="44.8549289214074" lon="11.83401280186577"><ele>1.0</ele><time>2026-03-22T14:46:24.871Z</time></trkpt><trkpt lat="44.855170266936184" lon="11.834207040608902"><ele>0.5</ele><time>2026-03-22T14:46:25.871Z</time></trkpt><trkpt lat="44.855402654026825" lon="11.834398846348899"><ele>0.0</ele><time>2026-03-22T14:46:26.871Z</time></trkpt><trkpt lat="44.85562913763311" lon="11.83458328012084"><ele>0.0</ele><time>2026-03-22T14:46:27.871Z</time></trkpt><trkpt lat="44.85583979007572" lon="11.834754822008177"><ele>0.0</ele><time>2026-03-22T14:46:28.871Z</time></trkpt><trkpt lat="44.85605504720618" lon="11.834898665158816"><ele>0.0</ele><time>2026-03-22T14:46:29.871Z</time></trkpt><trkpt lat="44.85626091282723" lon="11.835057235857139"><ele>0.0</ele><time>2026-03-22T14:46:30.871Z</time></trkpt><trkpt lat="44.85648514364847" lon="11.835169516180507"><ele>0.5</ele><time>2026-03-22T14:46:31.871Z</time></trkpt><trkpt lat="44.85671880669612" lon="11.835258945257387"><ele>1.0</ele><time>2026-03-22T14:46:32.871Z</time></trkpt><trkpt lat="44.85696797872776" lon="11.835316527630566"><ele>2.0</ele><time>2026-03-22T14:46:33.871Z</time></trkpt><trkpt lat="44.85722370074802" lon="11.83534299298174"><ele>3.0</ele><time>2026-03-22T14:46:34.871Z</time></trkpt><trkpt lat="44.85748282754964" lon="11.835323408637228"><ele>2.0</ele><time>2026-03-22T14:46:35.871Z</time></trkpt><trkpt lat="44.85774337576713" lon="11.835272511796326"><ele>1.0</ele><time>2026-03-22T14:46:36.871Z</time></trkpt><trkpt lat="44.85798902230575" lon="11.835193793031069"><ele>1.0</ele><time>2026-03-22T14:46:37.871Z</time></trkpt><trkpt lat="44.858230389488256" lon="11.835074289887883"><ele>1.0</ele><time>2026-03-22T14:46:38.871Z</time></trkpt><trkpt lat="44.85846176845756" lon="11.834915430461413"><ele>1.0</ele><time>2026-03-22T14:46:39.871Z</time></trkpt><trkpt lat="44.8586922784782" lon="11.834729141098453"><ele>1.0</ele><time>2026-03-22T14:46:40.871Z</time></trkpt><trkpt lat="44.85892373669593" lon="11.834532507965728"><ele>1.0</ele><time>2026-03-22T14:46:41.871Z</time></trkpt><trkpt lat="44.8591544444403" lon="11.834338207726727"><ele>1.0</ele><time>2026-03-22T14:46:42.871Z</time></trkpt><trkpt lat="44.85938663797285" lon="11.834144236866527"><ele>1.0</ele><time>2026-03-22T14:46:43.871Z</time></trkpt><trkpt lat="44.859612199835475" lon="11.833941813688968"><ele>1.0</ele><time>2026-03-22T14:46:44.87Z</time></trkpt><trkpt lat="44.859824307528186" lon="11.833693095709723"><ele>1.5</ele><time>2026-03-22T14:46:45.87Z</time></trkpt><trkpt lat="44.86003609220279" lon="11.833425812006144"><ele>2.0</ele><time>2026-03-22T14:46:46.87Z</time></trkpt><trkpt lat="44.86025757215067" lon="11.833157495659616"><ele>1.5</ele><time>2026-03-22T14:46:47.87Z</time></trkpt><trkpt lat="44.860472415054105" lon="11.83287363241491"><ele>1.0</ele><time>2026-03-22T14:46:48.87Z</time></trkpt><trkpt lat="44.86067861065389" lon="11.832585897224098"><ele>1.0</ele><time>2026-03-22T14:46:49.87Z</time></trkpt><trkpt lat="44.86088222573046" lon="11.832303677737137"><ele>1.0</ele><time>2026-03-22T14:46:50.87Z</time></trkpt><trkpt lat="44.86108000664165" lon="11.8320490907878"><ele>0.5</ele><time>2026-03-22T14:46:51.87Z</time></trkpt><trkpt lat="44.86126613217322" lon="11.831832086931694"><ele>0.0</ele><time>2026-03-22T14:46:52.87Z</time></trkpt><trkpt lat="44.86146842388982" lon="11.831657106951504"><ele>0.0</ele><time>2026-03-22T14:46:53.87Z</time></trkpt><trkpt lat="44.86168269487938" lon="11.83153466119259"><ele>0.0</ele><time>2026-03-22T14:46:54.87Z</time></trkpt><trkpt lat="44.8619086620315" lon="11.831438088411367"><ele>0.0</ele><time>2026-03-22T14:46:55.87Z</time></trkpt><trkpt lat="44.8621464482964" lon="11.831385117639256"><ele>0.0</ele><time>2026-03-22T14:46:56.87Z</time></trkpt><trkpt lat="44.86238179357292" lon="11.831352366765687"><ele>0.0</ele><time>2026-03-22T14:46:57.87Z</time></trkpt><trkpt lat="44.862611144889094" lon="11.831345714100467"><ele>0.0</ele><time>2026-03-22T14:46:58.87Z</time></trkpt><trkpt lat="44.862822426444204" lon="11.831344442427215"><ele>0.0</ele><time>2026-03-22T14:46:59.87Z</time></trkpt><trkpt lat="44.86301879636705" lon="11.831344301695"><ele>0.0</ele><time>2026-03-22T14:47:00.87Z</time></trkpt><trkpt lat="44.86319303985025" lon="11.831340194366126"><ele>0.0</ele><time>2026-03-22T14:47:01.87Z</time></trkpt><trkpt lat="44.863351680678385" lon="11.831339247791089"><ele>0.0</ele><time>2026-03-22T14:47:02.87Z</time></trkpt><trkpt lat="44.86349087297559" lon="11.831339178365187"><ele>0.25</ele><time>2026-03-22T14:47:03.87Z</time></trkpt><trkpt lat="44.86361468322736" lon="11.831336185548448"><ele>0.5</ele><time>2026-03-22T14:47:04.87Z</time></trkpt><trkpt lat="44.86374030104072" lon="11.831331861460415"><ele>0.75</ele><time>2026-03-22T14:47:05.87Z</time></trkpt><trkpt lat="44.86387527680642" lon="11.83132619590699"><ele>1.0</ele><time>2026-03-22T14:47:06.87Z</time></trkpt><trkpt lat="44.8640044471498" lon="11.831318671352138"><ele>1.0</ele><time>2026-03-22T14:47:07.87Z</time></trkpt><trkpt lat="44.864124002713865" lon="11.831307405089195"><ele>1.0</ele><time>2026-03-22T14:47:08.87Z</time></trkpt><trkpt lat="44.86423459531834" lon="11.831297647868098"><ele>1.0</ele><time>2026-03-22T14:47:09.87Z</time></trkpt><trkpt lat="44.8643638825175" lon="11.831285413559607"><ele>1.0</ele><time>2026-03-22T14:47:10.87Z</time></trkpt><trkpt lat="44.86449745642132" lon="11.8312869484927"><ele>1.0</ele><time>2026-03-22T14:47:11.87Z</time></trkpt><trkpt lat="44.864648177118305" lon="11.831269230822322"><ele>1.0</ele><time>2026-03-22T14:47:12.87Z</time></trkpt><trkpt lat="44.86479341394775" lon="11.831281738606718"><ele>1.0</ele><time>2026-03-22T14:47:13.87Z</time></trkpt><trkpt lat="44.86493275162094" lon="11.831296288483811"><ele>1.0</ele><time>2026-03-22T14:47:14.87Z</time></trkpt><trkpt lat="44.865052599306516" lon="11.83133715369457"><ele>0.6666666666666666</ele><time>2026-03-22T14:47:15.87Z</time></trkpt><trkpt lat="44.86518905355538" lon="11.8313178417152"><ele>0.3333333333333333</ele><time>2026-03-22T14:47:16.87Z</time></trkpt><trkpt lat="44.865345040784256" lon="11.83125465541072"><ele>0.0</ele><time>2026-03-22T14:47:17.869Z</time></trkpt><trkpt lat="44.86554650361994" lon="11.831183522949512"><ele>0.0</ele><time>2026-03-22T14:47:18.869Z</time></trkpt><trkpt lat="44.865758568290424" lon="11.831104347722933"><ele>0.0</ele><time>2026-03-22T14:47:19.869Z</time></trkpt><trkpt lat="44.86597426787857" lon="11.830999315800272"><ele>0.0</ele><time>2026-03-22T14:47:20.869Z</time></trkpt><trkpt lat="44.86618602593574" lon="11.830875847539952"><ele>0.5</ele><time>2026-03-22T14:47:21.869Z</time></trkpt><trkpt lat="44.866406142066445" lon="11.830771279956066"><ele>1.0</ele><time>2026-03-22T14:47:22.869Z</time></trkpt><trkpt lat="44.866620610880815" lon="11.830685566196745"><ele>1.3333333333333333</ele><time>2026-03-22T14:47:23.869Z</time></trkpt><trkpt lat="44.866827412922376" lon="11.83061859205342"><ele>1.6666666666666665</ele><time>2026-03-22T14:47:24.869Z</time></trkpt><trkpt lat="44.867025122195734" lon="11.830576585923215"><ele>2.0</ele><time>2026-03-22T14:47:25.869Z</time></trkpt><trkpt lat="44.86720782785288" lon="11.830550776063951"><ele>2.0</ele><time>2026-03-22T14:47:26.869Z</time></trkpt><trkpt lat="44.86737003933363" lon="11.830571608024378"><ele>2.0</ele><time>2026-03-22T14:47:27.869Z</time></trkpt><trkpt lat="44.86751641210917" lon="11.830662365683215"><ele>2.0</ele><time>2026-03-22T14:47:28.869Z</time></trkpt><trkpt lat="44.867672154863364" lon="11.830763531580725"><ele>2.0</ele><time>2026-03-22T14:47:29.869Z</time></trkpt><trkpt lat="44.867816924049826" lon="11.830902267612103"><ele>2.0</ele><time>2026-03-22T14:47:30.869Z</time></trkpt><trkpt lat="44.867959812780654" lon="11.831065849467446"><ele>2.0</ele><time>2026-03-22T14:47:31.869Z</time></trkpt><trkpt lat="44.86810563273175" lon="11.831243116651079"><ele>2.0</ele><time>2026-03-22T14:47:32.869Z</time></trkpt><trkpt lat="44.86825189379635" lon="11.8314209960071"><ele>2.0</ele><time>2026-03-22T14:47:33.869Z</time></trkpt><trkpt lat="44.86840652027173" lon="11.831609049069538"><ele>2.0</ele><time>2026-03-22T14:47:34.869Z</time></trkpt><trkpt lat="44.86856440849589" lon="11.831800354096975"><ele>2.0</ele><time>2026-03-22T14:47:35.869Z</time></trkpt><trkpt lat="44.868716178786315" lon="11.83198275285876"><ele>2.0</ele><time>2026-03-22T14:47:36.869Z</time></trkpt><trkpt lat="44.86886733667775" lon="11.832158597107641"><ele>2.0</ele><time>2026-03-22T14:47:37.869Z</time></trkpt><trkpt lat="44.8690271189406" lon="11.832305552554104"><ele>2.0</ele><time>2026-03-22T14:47:38.869Z</time></trkpt><trkpt lat="44.86918063503374" lon="11.832461592776184"><ele>2.0</ele><time>2026-03-22T14:47:39.869Z</time></trkpt><trkpt lat="44.869339065914275" lon="11.832603541419921"><ele>2.0</ele><time>2026-03-22T14:47:40.869Z</time></trkpt><trkpt lat="44.86950627922791" lon="11.83274844433062"><ele>2.333333333333333</ele><time>2026-03-22T14:47:41.869Z</time></trkpt><trkpt lat="44.86967790673355" lon="11.832889281455763"><ele>2.6666666666666665</ele><time>2026-03-22T14:47:42.869Z</time></trkpt><trkpt lat="44.8698475744449" lon="11.833027109575873"><ele>3.0</ele><time>2026-03-22T14:47:43.869Z</time></trkpt><trkpt lat="44.870016588764585" lon="11.833170036997632"><ele>3.0</ele><time>2026-03-22T14:47:44.869Z</time></trkpt><trkpt lat="44.870188087269234" lon="11.833315017947161"><ele>3.0</ele><time>2026-03-22T14:47:45.869Z</time></trkpt><trkpt lat="44.87035492437641" lon="11.833449913958168"><ele>3.0</ele><time>2026-03-22T14:47:46.869Z</time></trkpt><trkpt lat="44.870519853912114" lon="11.833591310925806"><ele>3.0</ele><time>2026-03-22T14:47:47.869Z</time></trkpt><trkpt lat="44.870670055217516" lon="11.833747725866736"><ele>3.0</ele><time>2026-03-22T14:47:48.869Z</time></trkpt><trkpt lat="44.87080349382716" lon="11.833888523375224"><ele>3.0</ele><time>2026-03-22T14:47:49.869Z</time></trkpt><trkpt lat="44.87095128995648" lon="11.83401936630953"><ele>2.6666666666666665</ele><time>2026-03-22T14:47:50.868Z</time></trkpt><trkpt lat="44.871105754678595" lon="11.834128910185514"><ele>2.333333333333333</ele><time>2026-03-22T14:47:51.868Z</time></trkpt><trkpt lat="44.87125890666073" lon="11.834231861362241"><ele>2.0</ele><time>2026-03-22T14:47:52.868Z</time></trkpt><trkpt lat="44.871422449140475" lon="11.834325102740976"><ele>2.0</ele><time>2026-03-22T14:47:53.868Z</time></trkpt><trkpt lat="44.87160022312221" lon="11.834406722916142"><ele>2.0</ele><time>2026-03-22T14:47:54.868Z</time></trkpt><trkpt lat="44.87178664053068" lon="11.834503488325753"><ele>2.0</ele><time>2026-03-22T14:47:55.868Z</time></trkpt><trkpt lat="44.87196777670953" lon="11.83463577581781"><ele>1.0</ele><time>2026-03-22T14:47:56.868Z</time></trkpt><trkpt lat="44.872166913926684" lon="11.83479974050778"><ele>0.0</ele><time>2026-03-22T14:47:57.868Z</time></trkpt><trkpt lat="44.8723476661163" lon="11.835007508422036"><ele>0.0</ele><time>2026-03-22T14:47:58.868Z</time></trkpt><trkpt lat="44.872537172404556" lon="11.83521006234572"><ele>0.0</ele><time>2026-03-22T14:47:59.868Z</time></trkpt><trkpt lat="44.872728588403184" lon="11.83540770103919"><ele>0.0</ele><time>2026-03-22T14:48:00.868Z</time></trkpt><trkpt lat="44.87292292068449" lon="11.835606243713105"><ele>0.0</ele><time>2026-03-22T14:48:01.868Z</time></trkpt><trkpt lat="44.87309794494306" lon="11.835802951402345"><ele>0.3333333333333333</ele><time>2026-03-22T14:48:02.868Z</time></trkpt><trkpt lat="44.8732871455983" lon="11.835981048506943"><ele>0.6666666666666666</ele><time>2026-03-22T14:48:03.868Z</time></trkpt><trkpt lat="44.87346282343641" lon="11.836155334408692"><ele>1.0</ele><time>2026-03-22T14:48:04.868Z</time></trkpt><trkpt lat="44.8736282202075" lon="11.836325737409926"><ele>1.0</ele><time>2026-03-22T14:48:05.868Z</time></trkpt><trkpt lat="44.87379436066368" lon="11.836497319185396"><ele>1.0</ele><time>2026-03-22T14:48:06.868Z</time></trkpt><trkpt lat="44.873973108765405" lon="11.83668250059824"><ele>1.0</ele><time>2026-03-22T14:48:07.868Z</time></trkpt><trkpt lat="44.87416909066791" lon="11.836884358602088"><ele>2.0</ele><time>2026-03-22T14:48:08.868Z</time></trkpt><trkpt lat="44.874371571003266" lon="11.837088223206454"><ele>3.0</ele><time>2026-03-22T14:48:09.868Z</time></trkpt><trkpt lat="44.87458304727981" lon="11.837305298141185"><ele>3.0</ele><time>2026-03-22T14:48:10.868Z</time></trkpt><trkpt lat="44.87478030446943" lon="11.837502563800603"><ele>3.0</ele><time>2026-03-22T14:48:11.868Z</time></trkpt><trkpt lat="44.87496071715154" lon="11.83768336029433"><ele>2.3333333333333335</ele><time>2026-03-22T14:48:12.868Z</time></trkpt><trkpt lat="44.87512276378039" lon="11.837846369589974"><ele>1.6666666666666665</ele><time>2026-03-22T14:48:13.868Z</time></trkpt><trkpt lat="44.87523835736956" lon="11.838030113661787"><ele>1.0</ele><time>2026-03-22T14:48:14.868Z</time></trkpt><trkpt lat="44.8753539637025" lon="11.838217641604857"><ele>1.0</ele><time>2026-03-22T14:48:15.868Z</time></trkpt><trkpt lat="44.87548055815904" lon="11.83841219556342"><ele>1.0</ele><time>2026-03-22T14:48:16.868Z</time></trkpt><trkpt lat="44.87560947667014" lon="11.838586703936565"><ele>1.0</ele><time>2026-03-22T14:48:17.868Z</time></trkpt><trkpt lat="44.87574696915905" lon="11.838766568253009"><ele>0.6666666666666666</ele><time>2026-03-22T14:48:18.869Z</time></trkpt><trkpt lat="44.87591665479264" lon="11.838880121245776"><ele>0.3333333333333333</ele><time>2026-03-22T14:48:19.869Z</time></trkpt><trkpt lat="44.876092712443295" lon="11.83897558641441"><ele>0.0</ele><time>2026-03-22T14:48:20.868Z</time></trkpt><trkpt lat="44.876281267454395" lon="11.839067347390854"><ele>0.6666666666666666</ele><time>2026-03-22T14:48:21.869Z</time></trkpt><trkpt lat="44.87647993512351" lon="11.839140311235525"><ele>1.3333333333333333</ele><time>2026-03-22T14:48:22.868Z</time></trkpt><trkpt lat="44.87669182125706" lon="11.839212009452977"><ele>2.0</ele><time>2026-03-22T14:48:23.868Z</time></trkpt><trkpt lat="44.876911324835724" lon="11.839286285263714"><ele>2.0</ele><time>2026-03-22T14:48:24.869Z</time></trkpt><trkpt lat="44.87714167316051" lon="11.839375276929548"><ele>2.0</ele><time>2026-03-22T14:48:25.869Z</time></trkpt><trkpt lat="44.877356367717944" lon="11.839486003948137"><ele>2.0</ele><time>2026-03-22T14:48:26.869Z</time></trkpt><trkpt lat="44.87755859737682" lon="11.839609028227196"><ele>2.0</ele><time>2026-03-22T14:48:27.869Z</time></trkpt><trkpt lat="44.877758513738826" lon="11.839683605782547"><ele>2.0</ele><time>2026-03-22T14:48:28.869Z</time></trkpt><trkpt lat="44.87793158039261" lon="11.83979635082505"><ele>1.6666666666666665</ele><time>2026-03-22T14:48:29.869Z</time></trkpt><trkpt lat="44.87809648868862" lon="11.839896618962937"><ele>1.3333333333333333</ele><time>2026-03-22T14:48:30.868Z</time></trkpt><trkpt lat="44.8782520746287" lon="11.83997677402682"><ele>1.0</ele><time>2026-03-22T14:48:31.868Z</time></trkpt><trkpt lat="44.87841080655829" lon="11.84004770498731"><ele>0.3333333333333333</ele><time>2026-03-22T14:48:32.868Z</time></trkpt><trkpt lat="44.87857504086281" lon="11.840094846339944"><ele>-0.3333333333333333</ele><time>2026-03-22T14:48:33.868Z</time></trkpt><trkpt lat="44.878744237091176" lon="11.84011136018699"><ele>-1.0</ele><time>2026-03-22T14:48:34.868Z</time></trkpt><trkpt lat="44.87890733243578" lon="11.840104452206864"><ele>-1.0</ele><time>2026-03-22T14:48:35.868Z</time></trkpt><trkpt lat="44.879076631937345" lon="11.84007332724451"><ele>-1.0</ele><time>2026-03-22T14:48:36.868Z</time></trkpt><trkpt lat="44.879247428814104" lon="11.840018636068953"><ele>-1.0</ele><time>2026-03-22T14:48:37.868Z</time></trkpt><trkpt lat="44.879413466640315" lon="11.839942555755462"><ele>-0.6666666666666666</ele><time>2026-03-22T14:48:38.868Z</time></trkpt><trkpt lat="44.87957531493472" lon="11.839883351987156"><ele>-0.3333333333333333</ele><time>2026-03-22T14:48:39.868Z</time></trkpt><trkpt lat="44.879727934566134" lon="11.839820149037084"><ele>0.0</ele><time>2026-03-22T14:48:40.868Z</time></trkpt><trkpt lat="44.879884573537495" lon="11.839752077072076"><ele>0.0</ele><time>2026-03-22T14:48:41.868Z</time></trkpt><trkpt lat="44.88005193162369" lon="11.839686453079405"><ele>0.0</ele><time>2026-03-22T14:48:42.868Z</time></trkpt><trkpt lat="44.8802150098958" lon="11.83960224858098"><ele>0.0</ele><time>2026-03-22T14:48:43.868Z</time></trkpt><trkpt lat="44.88037642536676" lon="11.839516635570291"><ele>0.3333333333333333</ele><time>2026-03-22T14:48:44.868Z</time></trkpt><trkpt lat="44.88053170881419" lon="11.839436744258954"><ele>0.6666666666666666</ele><time>2026-03-22T14:48:45.868Z</time></trkpt><trkpt lat="44.880692745884154" lon="11.839361996176681"><ele>1.0</ele><time>2026-03-22T14:48:46.868Z</time></trkpt><trkpt lat="44.88085590239601" lon="11.839277318980095"><ele>1.3333333333333333</ele><time>2026-03-22T14:48:47.868Z</time></trkpt><trkpt lat="44.88101108033708" lon="11.83920102633703"><ele>1.6666666666666665</ele><time>2026-03-22T14:48:48.868Z</time></trkpt><trkpt lat="44.8811736622062" lon="11.83912327943005"><ele>2.0</ele><time>2026-03-22T14:48:49.868Z</time></trkpt><trkpt lat="44.88134416239286" lon="11.839051368141655"><ele>2.0</ele><time>2026-03-22T14:48:50.868Z</time></trkpt><trkpt lat="44.88151537222571" lon="11.83895383585774"><ele>2.0</ele><time>2026-03-22T14:48:51.868Z</time></trkpt><trkpt lat="44.88169141828633" lon="11.838873670667388"><ele>2.0</ele><time>2026-03-22T14:48:52.868Z</time></trkpt><trkpt lat="44.88188308224517" lon="11.83874104574027"><ele>1.5</ele><time>2026-03-22T14:48:53.868Z</time></trkpt><trkpt lat="44.88211663237011" lon="11.838606733403394"><ele>1.0</ele><time>2026-03-22T14:48:54.868Z</time></trkpt><trkpt lat="44.88238063159866" lon="11.838473651696438"><ele>1.5</ele><time>2026-03-22T14:48:55.868Z</time></trkpt><trkpt lat="44.882652865712224" lon="11.838359064119452"><ele>2.0</ele><time>2026-03-22T14:48:56.868Z</time></trkpt><trkpt lat="44.882922818782276" lon="11.838230149597443"><ele>2.0</ele><time>2026-03-22T14:48:57.868Z</time></trkpt><trkpt lat="44.883189550016205" lon="11.838107627050801"><ele>2.0</ele><time>2026-03-22T14:48:58.868Z</time></trkpt><trkpt lat="44.88345373003573" lon="11.837998054852354"><ele>2.0</ele><time>2026-03-22T14:48:59.868Z</time></trkpt><trkpt lat="44.88372418249211" lon="11.837915980677831"><ele>2.0</ele><time>2026-03-22T14:49:00.868Z</time></trkpt><trkpt lat="44.883990750031025" lon="11.837845371825347"><ele>2.0</ele><time>2026-03-22T14:49:01.868Z</time></trkpt><trkpt lat="44.88425565959272" lon="11.8377905782758"><ele>2.0</ele><time>2026-03-22T14:49:02.867Z</time></trkpt><trkpt lat="44.884527811752704" lon="11.837723855022524"><ele>2.0</ele><time>2026-03-22T14:49:03.867Z</time></trkpt><trkpt lat="44.884790888467194" lon="11.837661009779204"><ele>2.0</ele><time>2026-03-22T14:49:04.867Z</time></trkpt><trkpt lat="44.88505543239382" lon="11.83760565343844"><ele>1.0</ele><time>2026-03-22T14:49:05.867Z</time></trkpt><trkpt lat="44.885299956647714" lon="11.837557599598677"><ele>0.0</ele><time>2026-03-22T14:49:06.867Z</time></trkpt><trkpt lat="44.885529204619175" lon="11.837510763639308"><ele>0.0</ele><time>2026-03-22T14:49:07.867Z</time></trkpt><trkpt lat="44.88574601196383" lon="11.837453722891189"><ele>0.0</ele><time>2026-03-22T14:49:08.867Z</time></trkpt><trkpt lat="44.88594697291416" lon="11.837408460502294"><ele>0.0</ele><time>2026-03-22T14:49:09.867Z</time></trkpt><trkpt lat="44.88613303037327" lon="11.837361546864244"><ele>-0.3333333333333333</ele><time>2026-03-22T14:49:10.867Z</time></trkpt><trkpt lat="44.88630509839523" lon="11.83731289674633"><ele>-0.6666666666666666</ele><time>2026-03-22T14:49:11.867Z</time></trkpt><trkpt lat="44.886469837845596" lon="11.837277302492879"><ele>-1.0</ele><time>2026-03-22T14:49:12.867Z</time></trkpt><trkpt lat="44.88664368594955" lon="11.837228139521594"><ele>-0.75</ele><time>2026-03-22T14:49:13.867Z</time></trkpt><trkpt lat="44.88680230283346" lon="11.837194379163975"><ele>-0.5</ele><time>2026-03-22T14:49:14.867Z</time></trkpt><trkpt lat="44.886948469299575" lon="11.837169858470933"><ele>-0.25</ele><time>2026-03-22T14:49:15.867Z</time></trkpt><trkpt lat="44.88706902278837" lon="11.837167214938"><ele>0.0</ele><time>2026-03-22T14:49:16.867Z</time></trkpt><trkpt lat="44.8872000090655" lon="11.837170506839216"><ele>0.0</ele><time>2026-03-22T14:49:17.867Z</time></trkpt><trkpt lat="44.887316423950224" lon="11.837172926541296"><ele>0.0</ele><time>2026-03-22T14:49:18.867Z</time></trkpt><trkpt lat="44.88742908747217" lon="11.837173802153375"><ele>0.0</ele><time>2026-03-22T14:49:19.867Z</time></trkpt><trkpt lat="44.88753767767562" lon="11.837087039174467"><ele>0.0</ele><time>2026-03-22T14:49:20.867Z</time></trkpt><trkpt lat="44.88764645795737" lon="11.8369994740344"><ele>-0.3333333333333333</ele><time>2026-03-22T14:49:21.867Z</time></trkpt><trkpt lat="44.88776385342419" lon="11.836881160536173"><ele>-0.6666666666666666</ele><time>2026-03-22T14:49:22.867Z</time></trkpt><trkpt lat="44.88791498362131" lon="11.836787886356104"><ele>-1.0</ele><time>2026-03-22T14:49:23.867Z</time></trkpt><trkpt lat="44.88803934826442" lon="11.836626899174147"><ele>-0.3333333333333333</ele><time>2026-03-22T14:49:24.867Z</time></trkpt><trkpt lat="44.88815558012312" lon="11.83644406873268"><ele>0.3333333333333333</ele><time>2026-03-22T14:49:25.867Z</time></trkpt><trkpt lat="44.88827099959507" lon="11.836253488089215"><ele>1.0</ele><time>2026-03-22T14:49:26.867Z</time></trkpt><trkpt lat="44.8883830153471" lon="11.836049687155585"><ele>1.0</ele><time>2026-03-22T14:49:27.867Z</time></trkpt><trkpt lat="44.88849409216169" lon="11.835855321624637"><ele>1.0</ele><time>2026-03-22T14:49:28.867Z</time></trkpt><trkpt lat="44.88859765307602" lon="11.835658460103113"><ele>1.0</ele><time>2026-03-22T14:49:29.867Z</time></trkpt><trkpt lat="44.88869093819185" lon="11.835456675446016"><ele>1.0</ele><time>2026-03-22T14:49:30.867Z</time></trkpt><trkpt lat="44.88876628884795" lon="11.835239025958181"><ele>1.0</ele><time>2026-03-22T14:49:31.867Z</time></trkpt><trkpt lat="44.888830566573695" lon="11.835004288664056"><ele>1.0</ele><time>2026-03-22T14:49:32.867Z</time></trkpt><trkpt lat="44.88888189653068" lon="11.83475668042136"><ele>1.0</ele><time>2026-03-22T14:49:33.867Z</time></trkpt><trkpt lat="44.88892803629005" lon="11.83450763900464"><ele>1.0</ele><time>2026-03-22T14:49:34.867Z</time></trkpt><trkpt lat="44.88897709123191" lon="11.834277283693988"><ele>1.0</ele><time>2026-03-22T14:49:35.866Z</time></trkpt><trkpt lat="44.889027703047184" lon="11.834053400438451"><ele>1.3333333333333333</ele><time>2026-03-22T14:49:36.866Z</time></trkpt><trkpt lat="44.88908222024952" lon="11.833839906622087"><ele>1.6666666666666665</ele><time>2026-03-22T14:49:37.866Z</time></trkpt><trkpt lat="44.8891464426577" lon="11.833642868759622"><ele>2.0</ele><time>2026-03-22T14:49:38.868Z</time></trkpt><trkpt lat="44.88922774161488" lon="11.833470197666639"><ele>2.5</ele><time>2026-03-22T14:49:39.87Z</time></trkpt><trkpt lat="44.88931671640548" lon="11.83331117533808"><ele>3.0</ele><time>2026-03-22T14:49:40.871Z</time></trkpt><trkpt lat="44.88942112913677" lon="11.833165178052752"><ele>3.5</ele><time>2026-03-22T14:49:41.873Z</time></trkpt><trkpt lat="44.88953154851801" lon="11.83304790655984"><ele>4.0</ele><time>2026-03-22T14:49:42.874Z</time></trkpt><trkpt lat="44.889647392553506" lon="11.832958770211997"><ele>3.9999999999999996</ele><time>2026-03-22T14:49:43.876Z</time></trkpt><trkpt lat="44.889757832176585" lon="11.832931088636359"><ele>4.0</ele><time>2026-03-22T14:49:44.877Z</time></trkpt><trkpt lat="44.88984673048728" lon="11.832895744356776"><ele>4.0</ele><time>2026-03-22T14:49:45.878Z</time></trkpt><trkpt lat="44.88991998721362" lon="11.832866285250638"><ele>4.0</ele><time>2026-03-22T14:49:46.879Z</time></trkpt><trkpt lat="44.889984704658985" lon="11.832824513363633"><ele>3.9999999999999996</ele><time>2026-03-22T14:49:47.88Z</time></trkpt><trkpt lat="44.89004890952493" lon="11.832843856381093"><ele>4.0</ele><time>2026-03-22T14:49:48.881Z</time></trkpt><trkpt lat="44.89010908203702" lon="11.833018356251724"><ele>4.0</ele><time>2026-03-22T14:49:50.883Z</time></trkpt><trkpt lat="44.89016306310571" lon="11.833143929960343"><ele>4.0</ele><time>2026-03-22T14:49:51.884Z</time></trkpt><trkpt lat="44.89019700668893" lon="11.833295445357024"><ele>4.0</ele><time>2026-03-22T14:49:52.885Z</time></trkpt><trkpt lat="44.89023534065115" lon="11.833458692985376"><ele>4.0</ele><time>2026-03-22T14:49:53.885Z</time></trkpt><trkpt lat="44.89027962072536" lon="11.83361787295083"><ele>3.8000000000000003</ele><time>2026-03-22T14:49:54.886Z</time></trkpt><trkpt lat="44.89032627465666" lon="11.833764128368975"><ele>3.6000000000000005</ele><time>2026-03-22T14:49:55.887Z</time></trkpt><trkpt lat="44.89037260060722" lon="11.833898195578383"><ele>3.4</ele><time>2026-03-22T14:49:56.887Z</time></trkpt><trkpt lat="44.89042517105112" lon="11.834015296642447"><ele>3.2</ele><time>2026-03-22T14:49:57.888Z</time></trkpt><trkpt lat="44.89044941105947" lon="11.834123998196478"><ele>3.0</ele><time>2026-03-22T14:49:58.888Z</time></trkpt><trkpt lat="44.890496246570585" lon="11.834196540027058"><ele>3.0</ele><time>2026-03-22T14:49:59.889Z</time></trkpt><trkpt lat="44.89054039521989" lon="11.834296971625019"><ele>3.0</ele><time>2026-03-22T14:50:01.889Z</time></trkpt><trkpt lat="44.890456736028646" lon="11.834336569805002"><ele>3.0</ele><time>2026-03-22T14:50:03.89Z</time></trkpt><trkpt lat="44.89038093149396" lon="11.834373496723485"><ele>3.0</ele><time>2026-03-22T14:50:04.89Z</time></trkpt><trkpt lat="44.890290909798274" lon="11.834418470338804"><ele>3.0</ele><time>2026-03-22T14:50:05.891Z</time></trkpt><trkpt lat="44.89019307551747" lon="11.83446748280446"><ele>2.6</ele><time>2026-03-22T14:50:06.891Z</time></trkpt><trkpt lat="44.890089269758214" lon="11.8345194869956"><ele>2.1999999999999997</ele><time>2026-03-22T14:50:07.891Z</time></trkpt><trkpt lat="44.88998639327529" lon="11.834571025921836"><ele>1.8</ele><time>2026-03-22T14:50:08.892Z</time></trkpt><trkpt lat="44.88989501572559" lon="11.834616806701947"><ele>1.4</ele><time>2026-03-22T14:50:09.892Z</time></trkpt><trkpt lat="44.88980106439227" lon="11.834664849719053"><ele>1.0</ele><time>2026-03-22T14:50:10.892Z</time></trkpt><trkpt lat="44.88971193593341" lon="11.834709359530516"><ele>0.9999999999999999</ele><time>2026-03-22T14:50:11.892Z</time></trkpt><trkpt lat="44.88963214533177" lon="11.834749345577505"><ele>1.0</ele><time>2026-03-22T14:50:12.892Z</time></trkpt><trkpt lat="44.889554056438485" lon="11.834787636132749"><ele>1.0</ele><time>2026-03-22T14:50:13.893Z</time></trkpt><trkpt lat="44.88947456557429" lon="11.8348262276547"><ele>1.0</ele><time>2026-03-22T14:50:14.893Z</time></trkpt><trkpt lat="44.88940879708208" lon="11.834858156999049"><ele>0.9999999999999999</ele><time>2026-03-22T14:50:15.893Z</time></trkpt><trkpt lat="44.889337111604675" lon="11.83490810277067"><ele>1.0</ele><time>2026-03-22T14:50:17.893Z</time></trkpt><trkpt lat="44.88940788719039" lon="11.8351783462359"><ele>1.0</ele><time>2026-03-22T14:50:19.893Z</time></trkpt><trkpt lat="44.8894674411478" lon="11.835243410291941"><ele>1.0</ele><time>2026-03-22T14:50:21.894Z</time></trkpt></trkseg></trk></gpx>